<?xml version='1.0' encoding='UTF-8'?><gpx version="1.1" creator="JPX - https://github.com/jenetics/jpx" xmlns="http://www.topografix.com/GPX/1/1"><trk><trkseg><trkpt lat="44.7728084" lon="9.3875522"><ele>264.0</ele><time>2026-04-18T08:04:51.28Z</time></trkpt><trkpt lat="44.7728037" lon="9.3876714"><ele>264.0</ele><time>2026-04-18T08:04:56.281Z</time></trkpt><trkpt lat="44.772877" lon="9.3876825"><ele>264.0</ele><time>2026-04-18T08:05:40.28Z</time></trkpt><trkpt lat="44.7729498" lon="9.3877111"><ele>264.0</ele><time>2026-04-18T08:07:39.28Z</time></trkpt><trkpt lat="44.7729988" lon="9.3878082"><ele>264.0</ele><time>2026-04-18T08:07:43.28Z</time></trkpt><trkpt lat="44.7730001" lon="9.3879185"><ele>264.0</ele><time>2026-04-18T08:07:45.28Z</time></trkpt><trkpt lat="44.7729942" lon="9.3880263"><ele>263.75</ele><time>2026-04-18T08:07:47.28Z</time></trkpt><trkpt lat="44.7729789" lon="9.3881723"><ele>263.5</ele><time>2026-04-18T08:07:49.279Z</time></trkpt><trkpt lat="44.7729565" lon="9.3883309"><ele>263.25</ele><time>2026-04-18T08:07:51.28Z</time></trkpt><trkpt lat="44.7729432" lon="9.388499"><ele>263.0</ele><time>2026-04-18T08:07:53.279Z</time></trkpt><trkpt lat="44.7729314" lon="9.3886729"><ele>263.0</ele><time>2026-04-18T08:07:55.28Z</time></trkpt><trkpt lat="44.7729217" lon="9.3887613"><ele>263.0</ele><time>2026-04-18T08:07:56.279Z</time></trkpt><trkpt lat="44.7729102" lon="9.3889123"><ele>263.0</ele><time>2026-04-18T08:07:58.28Z</time></trkpt><trkpt lat="44.7729005" lon="9.3890427"><ele>263.0</ele><time>2026-04-18T08:08:00.28Z</time></trkpt><trkpt lat="44.7728808" lon="9.3891816"><ele>263.0</ele><time>2026-04-18T08:08:02.279Z</time></trkpt><trkpt lat="44.7728564" lon="9.3892746"><ele>263.0</ele><time>2026-04-18T08:08:04.279Z</time></trkpt><trkpt lat="44.7727609" lon="9.3893446"><ele>262.4</ele><time>2026-04-18T08:08:07.281Z</time></trkpt><trkpt lat="44.7726955" lon="9.3893471"><ele>261.8</ele><time>2026-04-18T08:08:08.28Z</time></trkpt><trkpt lat="44.7725999" lon="9.3893149"><ele>261.2</ele><time>2026-04-18T08:08:09.281Z</time></trkpt><trkpt lat="44.7724744" lon="9.3892569"><ele>260.6</ele><time>2026-04-18T08:08:10.28Z</time></trkpt><trkpt lat="44.7723507" lon="9.3892035"><ele>260.0</ele><time>2026-04-18T08:08:11.28Z</time></trkpt><trkpt lat="44.7722299" lon="9.3891558"><ele>259.75</ele><time>2026-04-18T08:08:12.279Z</time></trkpt><trkpt lat="44.7721082" lon="9.3891076"><ele>259.5</ele><time>2026-04-18T08:08:13.28Z</time></trkpt><trkpt lat="44.7719869" lon="9.3890571"><ele>259.25</ele><time>2026-04-18T08:08:14.28Z</time></trkpt><trkpt lat="44.7718623" lon="9.3890043"><ele>259.0</ele><time>2026-04-18T08:08:15.279Z</time></trkpt><trkpt lat="44.7717392" lon="9.3889547"><ele>258.0</ele><time>2026-04-18T08:08:16.28Z</time></trkpt><trkpt lat="44.7716211" lon="9.3889098"><ele>257.0</ele><time>2026-04-18T08:08:17.279Z</time></trkpt><trkpt lat="44.7715056" lon="9.3888625"><ele>256.0</ele><time>2026-04-18T08:08:18.28Z</time></trkpt><trkpt lat="44.771391" lon="9.3888171"><ele>255.0</ele><time>2026-04-18T08:08:19.281Z</time></trkpt><trkpt lat="44.7712769" lon="9.3887706"><ele>256.75</ele><time>2026-04-18T08:08:20.28Z</time></trkpt><trkpt lat="44.7711651" lon="9.3887236"><ele>258.5</ele><time>2026-04-18T08:08:21.279Z</time></trkpt><trkpt lat="44.7710592" lon="9.3886766"><ele>260.25</ele><time>2026-04-18T08:08:22.28Z</time></trkpt><trkpt lat="44.7709539" lon="9.3886316"><ele>262.0</ele><time>2026-04-18T08:08:23.279Z</time></trkpt><trkpt lat="44.7708444" lon="9.3885887"><ele>262.0</ele><time>2026-04-18T08:08:24.279Z</time></trkpt><trkpt lat="44.7707305" lon="9.3885479"><ele>262.0</ele><time>2026-04-18T08:08:25.28Z</time></trkpt><trkpt lat="44.770613" lon="9.3885097"><ele>262.0</ele><time>2026-04-18T08:08:26.28Z</time></trkpt><trkpt lat="44.7704922" lon="9.3884758"><ele>262.0</ele><time>2026-04-18T08:08:27.28Z</time></trkpt><trkpt lat="44.7703686" lon="9.3884453"><ele>262.0</ele><time>2026-04-18T08:08:28.28Z</time></trkpt><trkpt lat="44.7702416" lon="9.3884169"><ele>262.0</ele><time>2026-04-18T08:08:29.28Z</time></trkpt><trkpt lat="44.7701155" lon="9.388395"><ele>262.0</ele><time>2026-04-18T08:08:30.281Z</time></trkpt><trkpt lat="44.7699932" lon="9.3883816"><ele>262.0</ele><time>2026-04-18T08:08:31.281Z</time></trkpt><trkpt lat="44.7698791" lon="9.3883731"><ele>261.4</ele><time>2026-04-18T08:08:32.28Z</time></trkpt><trkpt lat="44.7697727" lon="9.388368"><ele>260.79999999999995</ele><time>2026-04-18T08:08:33.28Z</time></trkpt><trkpt lat="44.7696696" lon="9.388368"><ele>260.2</ele><time>2026-04-18T08:08:34.28Z</time></trkpt><trkpt lat="44.7695683" lon="9.3883714"><ele>259.59999999999997</ele><time>2026-04-18T08:08:35.28Z</time></trkpt><trkpt lat="44.7694731" lon="9.3883777"><ele>259.0</ele><time>2026-04-18T08:08:36.28Z</time></trkpt><trkpt lat="44.7693798" lon="9.3883868"><ele>260.0</ele><time>2026-04-18T08:08:37.281Z</time></trkpt><trkpt lat="44.7692881" lon="9.3884012"><ele>261.0</ele><time>2026-04-18T08:08:38.28Z</time></trkpt><trkpt lat="44.7691989" lon="9.3884171"><ele>262.0</ele><time>2026-04-18T08:08:39.28Z</time></trkpt><trkpt lat="44.7691092" lon="9.3884325"><ele>263.0</ele><time>2026-04-18T08:08:40.279Z</time></trkpt><trkpt lat="44.769014" lon="9.3884502"><ele>264.0</ele><time>2026-04-18T08:08:41.28Z</time></trkpt><trkpt lat="44.7689221" lon="9.38847"><ele>264.0</ele><time>2026-04-18T08:08:42.28Z</time></trkpt><trkpt lat="44.7688328" lon="9.3884935"><ele>264.0</ele><time>2026-04-18T08:08:43.28Z</time></trkpt><trkpt lat="44.7687472" lon="9.3885176"><ele>264.0</ele><time>2026-04-18T08:08:44.279Z</time></trkpt><trkpt lat="44.7686647" lon="9.3885411"><ele>264.0</ele><time>2026-04-18T08:08:45.28Z</time></trkpt><trkpt lat="44.7685813" lon="9.3885648"><ele>264.0</ele><time>2026-04-18T08:08:46.28Z</time></trkpt><trkpt lat="44.7684972" lon="9.3885914"><ele>264.0</ele><time>2026-04-18T08:08:47.279Z</time></trkpt><trkpt lat="44.7684122" lon="9.3886189"><ele>263.59999999999997</ele><time>2026-04-18T08:08:48.28Z</time></trkpt><trkpt lat="44.7683306" lon="9.3886418"><ele>263.2</ele><time>2026-04-18T08:08:49.28Z</time></trkpt><trkpt lat="44.76825" lon="9.3886681"><ele>262.79999999999995</ele><time>2026-04-18T08:08:50.281Z</time></trkpt><trkpt lat="44.7681748" lon="9.3886903"><ele>262.4</ele><time>2026-04-18T08:08:51.281Z</time></trkpt><trkpt lat="44.7680585" lon="9.3887285"><ele>262.0</ele><time>2026-04-18T08:08:53.28Z</time></trkpt><trkpt lat="44.7679726" lon="9.388754"><ele>262.0</ele><time>2026-04-18T08:08:55.279Z</time></trkpt><trkpt lat="44.7679072" lon="9.3887758"><ele>262.0</ele><time>2026-04-18T08:08:57.28Z</time></trkpt><trkpt lat="44.7678382" lon="9.3887973"><ele>262.0</ele><time>2026-04-18T08:09:00.279Z</time></trkpt><trkpt lat="44.7677291" lon="9.3888109"><ele>262.0</ele><time>2026-04-18T08:11:47.28Z</time></trkpt><trkpt lat="44.7676249" lon="9.3888515"><ele>262.0</ele><time>2026-04-18T08:11:49.279Z</time></trkpt><trkpt lat="44.7675559" lon="9.388875"><ele>262.0</ele><time>2026-04-18T08:11:50.279Z</time></trkpt><trkpt lat="44.7674821" lon="9.3889005"><ele>261.5</ele><time>2026-04-18T08:11:51.279Z</time></trkpt><trkpt lat="44.7674064" lon="9.3889239"><ele>261.0</ele><time>2026-04-18T08:11:52.279Z</time></trkpt><trkpt lat="44.7673307" lon="9.3889462"><ele>260.5</ele><time>2026-04-18T08:11:53.279Z</time></trkpt><trkpt lat="44.7672497" lon="9.3889736"><ele>260.0</ele><time>2026-04-18T08:11:54.279Z</time></trkpt><trkpt lat="44.7671698" lon="9.3890026"><ele>259.5</ele><time>2026-04-18T08:11:55.279Z</time></trkpt><trkpt lat="44.767088" lon="9.3890297"><ele>259.0</ele><time>2026-04-18T08:11:56.278Z</time></trkpt><trkpt lat="44.7670001" lon="9.3890606"><ele>259.0</ele><time>2026-04-18T08:11:57.278Z</time></trkpt><trkpt lat="44.7669016" lon="9.3890993"><ele>259.0</ele><time>2026-04-18T08:11:58.278Z</time></trkpt><trkpt lat="44.7667957" lon="9.3891384"><ele>259.0</ele><time>2026-04-18T08:11:59.278Z</time></trkpt><trkpt lat="44.7666891" lon="9.3891695"><ele>259.0</ele><time>2026-04-18T08:12:00.279Z</time></trkpt><trkpt lat="44.766576" lon="9.3891934"><ele>259.0</ele><time>2026-04-18T08:12:01.279Z</time></trkpt><trkpt lat="44.7664583" lon="9.3892055"><ele>259.0</ele><time>2026-04-18T08:12:02.279Z</time></trkpt><trkpt lat="44.7663347" lon="9.3892018"><ele>259.0</ele><time>2026-04-18T08:12:03.28Z</time></trkpt><trkpt lat="44.7662086" lon="9.3891823"><ele>259.0</ele><time>2026-04-18T08:12:04.28Z</time></trkpt><trkpt lat="44.7660776" lon="9.3891431"><ele>259.0</ele><time>2026-04-18T08:12:05.278Z</time></trkpt><trkpt lat="44.7659562" lon="9.3890857"><ele>258.5</ele><time>2026-04-18T08:12:06.278Z</time></trkpt><trkpt lat="44.7658407" lon="9.389018"><ele>258.0</ele><time>2026-04-18T08:12:07.278Z</time></trkpt><trkpt lat="44.7657295" lon="9.3889372"><ele>257.5</ele><time>2026-04-18T08:12:08.278Z</time></trkpt><trkpt lat="44.7656226" lon="9.3888392"><ele>257.0</ele><time>2026-04-18T08:12:09.278Z</time></trkpt><trkpt lat="44.7655229" lon="9.3887237"><ele>256.75</ele><time>2026-04-18T08:12:10.279Z</time></trkpt><trkpt lat="44.7654304" lon="9.3885937"><ele>256.5</ele><time>2026-04-18T08:12:11.279Z</time></trkpt><trkpt lat="44.7653456" lon="9.3884524"><ele>256.25</ele><time>2026-04-18T08:12:12.279Z</time></trkpt><trkpt lat="44.765268" lon="9.3883035"><ele>256.0</ele><time>2026-04-18T08:12:13.279Z</time></trkpt><trkpt lat="44.7651932" lon="9.3881506"><ele>256.25</ele><time>2026-04-18T08:12:14.278Z</time></trkpt><trkpt lat="44.7651184" lon="9.3879972"><ele>256.5</ele><time>2026-04-18T08:12:15.279Z</time></trkpt><trkpt lat="44.7650424" lon="9.3878445"><ele>256.75</ele><time>2026-04-18T08:12:16.278Z</time></trkpt><trkpt lat="44.7649683" lon="9.3876941"><ele>257.0</ele><time>2026-04-18T08:12:17.279Z</time></trkpt><trkpt lat="44.7648978" lon="9.3875457"><ele>257.0</ele><time>2026-04-18T08:12:18.279Z</time></trkpt><trkpt lat="44.7648275" lon="9.3874007"><ele>257.0</ele><time>2026-04-18T08:12:19.278Z</time></trkpt><trkpt lat="44.7647577" lon="9.3872585"><ele>257.0</ele><time>2026-04-18T08:12:20.278Z</time></trkpt><trkpt lat="44.7646882" lon="9.3871197"><ele>257.0</ele><time>2026-04-18T08:12:21.279Z</time></trkpt><trkpt lat="44.7646173" lon="9.3869772"><ele>258.5</ele><time>2026-04-18T08:12:22.279Z</time></trkpt><trkpt lat="44.7645462" lon="9.3868264"><ele>260.0</ele><time>2026-04-18T08:12:23.279Z</time></trkpt><trkpt lat="44.7644808" lon="9.3866727"><ele>261.5</ele><time>2026-04-18T08:12:24.28Z</time></trkpt><trkpt lat="44.7644157" lon="9.3865048"><ele>263.0</ele><time>2026-04-18T08:12:25.279Z</time></trkpt><trkpt lat="44.7643421" lon="9.3863321"><ele>264.0</ele><time>2026-04-18T08:12:26.278Z</time></trkpt><trkpt lat="44.7642603" lon="9.3861565"><ele>265.0</ele><time>2026-04-18T08:12:27.278Z</time></trkpt><trkpt lat="44.764172" lon="9.3859693"><ele>266.0</ele><time>2026-04-18T08:12:28.279Z</time></trkpt><trkpt lat="44.7640838" lon="9.3857798"><ele>266.0</ele><time>2026-04-18T08:12:29.28Z</time></trkpt><trkpt lat="44.7639947" lon="9.3855854"><ele>266.0</ele><time>2026-04-18T08:12:30.279Z</time></trkpt><trkpt lat="44.7639056" lon="9.3853954"><ele>266.0</ele><time>2026-04-18T08:12:31.278Z</time></trkpt><trkpt lat="44.763817" lon="9.3852062"><ele>271.0</ele><time>2026-04-18T08:12:32.279Z</time></trkpt><trkpt lat="44.7637328" lon="9.3850236"><ele>276.0</ele><time>2026-04-18T08:12:33.279Z</time></trkpt><trkpt lat="44.7636505" lon="9.3848436"><ele>281.0</ele><time>2026-04-18T08:12:34.28Z</time></trkpt><trkpt lat="44.7635703" lon="9.3846668"><ele>276.6666666666667</ele><time>2026-04-18T08:12:35.279Z</time></trkpt><trkpt lat="44.7634872" lon="9.3844899"><ele>272.3333333333333</ele><time>2026-04-18T08:12:36.279Z</time></trkpt><trkpt lat="44.7634007" lon="9.3843104"><ele>268.0</ele><time>2026-04-18T08:12:37.28Z</time></trkpt><trkpt lat="44.7633081" lon="9.3841305"><ele>268.0</ele><time>2026-04-18T08:12:38.279Z</time></trkpt><trkpt lat="44.763205" lon="9.3839496"><ele>268.0</ele><time>2026-04-18T08:12:39.279Z</time></trkpt><trkpt lat="44.763089" lon="9.3837738"><ele>268.0</ele><time>2026-04-18T08:12:40.279Z</time></trkpt><trkpt lat="44.7629613" lon="9.3836094"><ele>266.3333333333333</ele><time>2026-04-18T08:12:41.278Z</time></trkpt><trkpt lat="44.7628218" lon="9.3834549"><ele>264.6666666666667</ele><time>2026-04-18T08:12:42.28Z</time></trkpt><trkpt lat="44.7626772" lon="9.383318"><ele>263.0</ele><time>2026-04-18T08:12:43.278Z</time></trkpt><trkpt lat="44.7625263" lon="9.3832036"><ele>263.0</ele><time>2026-04-18T08:12:44.278Z</time></trkpt><trkpt lat="44.7623734" lon="9.3830977"><ele>263.0</ele><time>2026-04-18T08:12:45.278Z</time></trkpt><trkpt lat="44.7622292" lon="9.3829951"><ele>263.0</ele><time>2026-04-18T08:12:46.278Z</time></trkpt><trkpt lat="44.7620936" lon="9.3828976"><ele>263.0</ele><time>2026-04-18T08:12:47.279Z</time></trkpt><trkpt lat="44.7619599" lon="9.3828047"><ele>263.0</ele><time>2026-04-18T08:12:48.279Z</time></trkpt><trkpt lat="44.7618254" lon="9.3827157"><ele>263.0</ele><time>2026-04-18T08:12:49.278Z</time></trkpt><trkpt lat="44.7616977" lon="9.3826287"><ele>263.0</ele><time>2026-04-18T08:12:50.278Z</time></trkpt><trkpt lat="44.7615744" lon="9.382543"><ele>263.0</ele><time>2026-04-18T08:12:51.278Z</time></trkpt><trkpt lat="44.7614523" lon="9.3824609"><ele>263.0</ele><time>2026-04-18T08:12:52.279Z</time></trkpt><trkpt lat="44.7613271" lon="9.3823791"><ele>263.0</ele><time>2026-04-18T08:12:53.279Z</time></trkpt><trkpt lat="44.761202" lon="9.3822941"><ele>263.0</ele><time>2026-04-18T08:12:54.279Z</time></trkpt><trkpt lat="44.7610772" lon="9.3822082"><ele>264.25</ele><time>2026-04-18T08:12:55.279Z</time></trkpt><trkpt lat="44.7609507" lon="9.3821227"><ele>265.5</ele><time>2026-04-18T08:12:56.279Z</time></trkpt><trkpt lat="44.760824" lon="9.3820383"><ele>266.75</ele><time>2026-04-18T08:12:57.28Z</time></trkpt><trkpt lat="44.7606951" lon="9.3819506"><ele>268.0</ele><time>2026-04-18T08:12:58.279Z</time></trkpt><trkpt lat="44.7605761" lon="9.3818721"><ele>268.0</ele><time>2026-04-18T08:12:59.279Z</time></trkpt><trkpt lat="44.7604694" lon="9.381808"><ele>268.0</ele><time>2026-04-18T08:13:00.279Z</time></trkpt><trkpt lat="44.7603703" lon="9.3817546"><ele>268.0</ele><time>2026-04-18T08:13:01.28Z</time></trkpt><trkpt lat="44.7602809" lon="9.3817012"><ele>268.0</ele><time>2026-04-18T08:13:02.279Z</time></trkpt><trkpt lat="44.760202" lon="9.3816307"><ele>268.0</ele><time>2026-04-18T08:13:03.279Z</time></trkpt><trkpt lat="44.7601132" lon="9.3815773"><ele>267.6</ele><time>2026-04-18T08:13:04.278Z</time></trkpt><trkpt lat="44.7600184" lon="9.3815415"><ele>267.20000000000005</ele><time>2026-04-18T08:13:05.278Z</time></trkpt><trkpt lat="44.7599206" lon="9.381503"><ele>266.8</ele><time>2026-04-18T08:13:06.278Z</time></trkpt><trkpt lat="44.759823" lon="9.3814681"><ele>266.40000000000003</ele><time>2026-04-18T08:13:07.279Z</time></trkpt><trkpt lat="44.7597251" lon="9.3814431"><ele>266.0</ele><time>2026-04-18T08:13:08.279Z</time></trkpt><trkpt lat="44.7596265" lon="9.3814197"><ele>266.0</ele><time>2026-04-18T08:13:09.279Z</time></trkpt><trkpt lat="44.7595261" lon="9.3813937"><ele>266.0</ele><time>2026-04-18T08:13:10.28Z</time></trkpt><trkpt lat="44.759423" lon="9.3813664"><ele>266.0</ele><time>2026-04-18T08:13:11.278Z</time></trkpt><trkpt lat="44.7593224" lon="9.3813385"><ele>266.0</ele><time>2026-04-18T08:13:12.279Z</time></trkpt><trkpt lat="44.7592248" lon="9.3813092"><ele>266.0</ele><time>2026-04-18T08:13:13.279Z</time></trkpt><trkpt lat="44.7591291" lon="9.3812815"><ele>268.6</ele><time>2026-04-18T08:13:14.28Z</time></trkpt><trkpt lat="44.7590342" lon="9.3812551"><ele>271.20000000000005</ele><time>2026-04-18T08:13:15.279Z</time></trkpt><trkpt lat="44.7589396" lon="9.381227"><ele>273.79999999999995</ele><time>2026-04-18T08:13:16.279Z</time></trkpt><trkpt lat="44.7588458" lon="9.381193"><ele>276.4</ele><time>2026-04-18T08:13:17.279Z</time></trkpt><trkpt lat="44.7587453" lon="9.3811539"><ele>279.0</ele><time>2026-04-18T08:13:18.278Z</time></trkpt><trkpt lat="44.7586416" lon="9.3811261"><ele>279.0</ele><time>2026-04-18T08:13:19.278Z</time></trkpt><trkpt lat="44.7585469" lon="9.3811067"><ele>279.0</ele><time>2026-04-18T08:13:20.279Z</time></trkpt><trkpt lat="44.7584524" lon="9.3810844"><ele>279.0</ele><time>2026-04-18T08:13:21.279Z</time></trkpt><trkpt lat="44.7583639" lon="9.3810569"><ele>279.0</ele><time>2026-04-18T08:13:22.278Z</time></trkpt><trkpt lat="44.7582763" lon="9.3810253"><ele>279.0</ele><time>2026-04-18T08:13:23.278Z</time></trkpt><trkpt lat="44.7581833" lon="9.3809737"><ele>279.0</ele><time>2026-04-18T08:13:24.278Z</time></trkpt><trkpt lat="44.7580773" lon="9.3809363"><ele>279.0</ele><time>2026-04-18T08:13:25.279Z</time></trkpt><trkpt lat="44.7579682" lon="9.3808886"><ele>279.0</ele><time>2026-04-18T08:13:26.279Z</time></trkpt><trkpt lat="44.7578597" lon="9.3808656"><ele>279.0</ele><time>2026-04-18T08:13:27.28Z</time></trkpt><trkpt lat="44.7577577" lon="9.3808388"><ele>279.0</ele><time>2026-04-18T08:13:28.28Z</time></trkpt><trkpt lat="44.7576544" lon="9.3808064"><ele>279.0</ele><time>2026-04-18T08:13:29.279Z</time></trkpt><trkpt lat="44.7575568" lon="9.3807652"><ele>279.0</ele><time>2026-04-18T08:13:30.279Z</time></trkpt><trkpt lat="44.7574681" lon="9.3807077"><ele>279.0</ele><time>2026-04-18T08:13:31.279Z</time></trkpt><trkpt lat="44.7573844" lon="9.3806537"><ele>279.0</ele><time>2026-04-18T08:13:32.28Z</time></trkpt><trkpt lat="44.7573004" lon="9.3805975"><ele>279.0</ele><time>2026-04-18T08:13:33.279Z</time></trkpt><trkpt lat="44.7572152" lon="9.3805391"><ele>280.0</ele><time>2026-04-18T08:13:34.278Z</time></trkpt><trkpt lat="44.75713" lon="9.3804788"><ele>281.0</ele><time>2026-04-18T08:13:35.278Z</time></trkpt><trkpt lat="44.7570406" lon="9.3804111"><ele>282.0</ele><time>2026-04-18T08:13:36.278Z</time></trkpt><trkpt lat="44.7569469" lon="9.3803408"><ele>283.0</ele><time>2026-04-18T08:13:37.279Z</time></trkpt><trkpt lat="44.7568468" lon="9.3802675"><ele>284.0</ele><time>2026-04-18T08:13:38.278Z</time></trkpt><trkpt lat="44.7567394" lon="9.3802022"><ele>284.0</ele><time>2026-04-18T08:13:39.279Z</time></trkpt><trkpt lat="44.7566305" lon="9.3801487"><ele>284.0</ele><time>2026-04-18T08:13:40.279Z</time></trkpt><trkpt lat="44.756526" lon="9.3800827"><ele>284.0</ele><time>2026-04-18T08:13:41.279Z</time></trkpt><trkpt lat="44.7564289" lon="9.3800229"><ele>284.0</ele><time>2026-04-18T08:13:42.279Z</time></trkpt><trkpt lat="44.7563298" lon="9.3799584"><ele>284.0</ele><time>2026-04-18T08:13:43.279Z</time></trkpt><trkpt lat="44.7562313" lon="9.3798836"><ele>284.0</ele><time>2026-04-18T08:13:44.279Z</time></trkpt><trkpt lat="44.7561305" lon="9.3797991"><ele>284.0</ele><time>2026-04-18T08:13:45.279Z</time></trkpt><trkpt lat="44.7560376" lon="9.3796933"><ele>284.0</ele><time>2026-04-18T08:13:46.279Z</time></trkpt><trkpt lat="44.7559575" lon="9.3795727"><ele>284.0</ele><time>2026-04-18T08:13:47.279Z</time></trkpt><trkpt lat="44.7558826" lon="9.3794533"><ele>284.0</ele><time>2026-04-18T08:13:48.279Z</time></trkpt><trkpt lat="44.7558063" lon="9.3793434"><ele>284.0</ele><time>2026-04-18T08:13:49.279Z</time></trkpt><trkpt lat="44.7557267" lon="9.3792462"><ele>284.0</ele><time>2026-04-18T08:13:50.279Z</time></trkpt><trkpt lat="44.7556639" lon="9.3791474"><ele>284.0</ele><time>2026-04-18T08:13:51.279Z</time></trkpt><trkpt lat="44.7556176" lon="9.3790281"><ele>284.0</ele><time>2026-04-18T08:13:52.279Z</time></trkpt><trkpt lat="44.7555919" lon="9.3788912"><ele>284.4</ele><time>2026-04-18T08:13:53.279Z</time></trkpt><trkpt lat="44.7555821" lon="9.3787437"><ele>284.79999999999995</ele><time>2026-04-18T08:13:54.278Z</time></trkpt><trkpt lat="44.7555803" lon="9.3785999"><ele>285.20000000000005</ele><time>2026-04-18T08:13:55.279Z</time></trkpt><trkpt lat="44.7555723" lon="9.3784618"><ele>285.6</ele><time>2026-04-18T08:13:56.279Z</time></trkpt><trkpt lat="44.7555523" lon="9.3783271"><ele>286.0</ele><time>2026-04-18T08:13:57.279Z</time></trkpt><trkpt lat="44.7555218" lon="9.3781932"><ele>286.0</ele><time>2026-04-18T08:13:58.279Z</time></trkpt><trkpt lat="44.7554864" lon="9.3780589"><ele>286.0</ele><time>2026-04-18T08:13:59.279Z</time></trkpt><trkpt lat="44.7554331" lon="9.3778888"><ele>286.0</ele><time>2026-04-18T08:14:00.278Z</time></trkpt><trkpt lat="44.7553825" lon="9.3777231"><ele>286.0</ele><time>2026-04-18T08:14:01.279Z</time></trkpt><trkpt lat="44.7553469" lon="9.3775666"><ele>286.8</ele><time>2026-04-18T08:14:02.279Z</time></trkpt><trkpt lat="44.7553249" lon="9.3774182"><ele>287.6</ele><time>2026-04-18T08:14:03.279Z</time></trkpt><trkpt lat="44.7553163" lon="9.3772843"><ele>288.4</ele><time>2026-04-18T08:14:04.278Z</time></trkpt><trkpt lat="44.7553118" lon="9.3771525"><ele>289.2</ele><time>2026-04-18T08:14:05.279Z</time></trkpt><trkpt lat="44.7553146" lon="9.3770367"><ele>290.0</ele><time>2026-04-18T08:14:06.28Z</time></trkpt><trkpt lat="44.7553231" lon="9.3769346"><ele>290.33333333333337</ele><time>2026-04-18T08:14:07.279Z</time></trkpt><trkpt lat="44.7553377" lon="9.3768348"><ele>290.6666666666667</ele><time>2026-04-18T08:14:08.279Z</time></trkpt><trkpt lat="44.7553469" lon="9.3767424"><ele>291.0</ele><time>2026-04-18T08:14:09.279Z</time></trkpt><trkpt lat="44.7553237" lon="9.3766441"><ele>291.3333333333333</ele><time>2026-04-18T08:14:10.279Z</time></trkpt><trkpt lat="44.755297" lon="9.3765487"><ele>291.66666666666663</ele><time>2026-04-18T08:14:11.279Z</time></trkpt><trkpt lat="44.7552035" lon="9.3764931"><ele>292.0</ele><time>2026-04-18T08:14:12.28Z</time></trkpt><trkpt lat="44.7551382" lon="9.376416"><ele>293.2</ele><time>2026-04-18T08:14:13.279Z</time></trkpt><trkpt lat="44.755074" lon="9.3763341"><ele>294.4</ele><time>2026-04-18T08:14:14.278Z</time></trkpt><trkpt lat="44.7550023" lon="9.3762523"><ele>295.6</ele><time>2026-04-18T08:14:15.278Z</time></trkpt><trkpt lat="44.7549212" lon="9.3761742"><ele>296.8</ele><time>2026-04-18T08:14:16.279Z</time></trkpt><trkpt lat="44.7548345" lon="9.3761062"><ele>298.0</ele><time>2026-04-18T08:14:17.278Z</time></trkpt><trkpt lat="44.7547521" lon="9.3760468"><ele>298.0</ele><time>2026-04-18T08:14:18.279Z</time></trkpt><trkpt lat="44.7546736" lon="9.3759827"><ele>298.0</ele><time>2026-04-18T08:14:19.279Z</time></trkpt><trkpt lat="44.7545973" lon="9.3759135"><ele>298.0</ele><time>2026-04-18T08:14:20.278Z</time></trkpt><trkpt lat="44.7545187" lon="9.3758391"><ele>298.0</ele><time>2026-04-18T08:14:21.279Z</time></trkpt><trkpt lat="44.7544456" lon="9.3757573"><ele>298.0</ele><time>2026-04-18T08:14:22.278Z</time></trkpt><trkpt lat="44.754374" lon="9.3756705"><ele>298.2</ele><time>2026-04-18T08:14:23.279Z</time></trkpt><trkpt lat="44.7542998" lon="9.3755806"><ele>298.4</ele><time>2026-04-18T08:14:24.278Z</time></trkpt><trkpt lat="44.7542258" lon="9.3754923"><ele>298.59999999999997</ele><time>2026-04-18T08:14:25.279Z</time></trkpt><trkpt lat="44.7541477" lon="9.3754058"><ele>298.8</ele><time>2026-04-18T08:14:26.28Z</time></trkpt><trkpt lat="44.7540685" lon="9.3753179"><ele>299.0</ele><time>2026-04-18T08:14:27.279Z</time></trkpt><trkpt lat="44.7539932" lon="9.3752385"><ele>299.0</ele><time>2026-04-18T08:14:28.279Z</time></trkpt><trkpt lat="44.7539245" lon="9.3751746"><ele>299.0</ele><time>2026-04-18T08:14:29.279Z</time></trkpt><trkpt lat="44.7538643" lon="9.3751195"><ele>299.0</ele><time>2026-04-18T08:14:30.278Z</time></trkpt><trkpt lat="44.753805" lon="9.375066"><ele>299.0</ele><time>2026-04-18T08:14:31.278Z</time></trkpt><trkpt lat="44.7537441" lon="9.3750138"><ele>299.0</ele><time>2026-04-18T08:14:32.279Z</time></trkpt><trkpt lat="44.753676" lon="9.3749528"><ele>299.0</ele><time>2026-04-18T08:14:33.278Z</time></trkpt><trkpt lat="44.7536072" lon="9.3748935"><ele>299.0</ele><time>2026-04-18T08:14:34.279Z</time></trkpt><trkpt lat="44.753542" lon="9.3748375"><ele>299.0</ele><time>2026-04-18T08:14:35.279Z</time></trkpt><trkpt lat="44.7534827" lon="9.3747786"><ele>299.0</ele><time>2026-04-18T08:14:36.279Z</time></trkpt><trkpt lat="44.7534217" lon="9.3747158"><ele>299.0</ele><time>2026-04-18T08:14:37.279Z</time></trkpt><trkpt lat="44.7533613" lon="9.374651"><ele>299.0</ele><time>2026-04-18T08:14:38.279Z</time></trkpt><trkpt lat="44.7533057" lon="9.3745853"><ele>299.0</ele><time>2026-04-18T08:14:39.279Z</time></trkpt><trkpt lat="44.7532562" lon="9.3745231"><ele>299.0</ele><time>2026-04-18T08:14:40.279Z</time></trkpt><trkpt lat="44.753172" lon="9.3744161"><ele>299.2857142857143</ele><time>2026-04-18T08:14:42.278Z</time></trkpt><trkpt lat="44.7531256" lon="9.3743537"><ele>299.57142857142856</ele><time>2026-04-18T08:14:43.279Z</time></trkpt><trkpt lat="44.7530776" lon="9.3742872"><ele>299.8571428571429</ele><time>2026-04-18T08:14:44.279Z</time></trkpt><trkpt lat="44.7530326" lon="9.3742212"><ele>300.1428571428571</ele><time>2026-04-18T08:14:45.279Z</time></trkpt><trkpt lat="44.7529884" lon="9.3741499"><ele>300.42857142857144</ele><time>2026-04-18T08:14:46.278Z</time></trkpt><trkpt lat="44.7529437" lon="9.3740778"><ele>300.7142857142857</ele><time>2026-04-18T08:14:47.278Z</time></trkpt><trkpt lat="44.7529" lon="9.3740053"><ele>301.0</ele><time>2026-04-18T08:14:48.279Z</time></trkpt><trkpt lat="44.7528609" lon="9.3739325"><ele>301.0</ele><time>2026-04-18T08:14:49.279Z</time></trkpt><trkpt lat="44.7528208" lon="9.3738592"><ele>301.0</ele><time>2026-04-18T08:14:50.279Z</time></trkpt><trkpt lat="44.7527807" lon="9.3737837"><ele>301.0</ele><time>2026-04-18T08:14:51.278Z</time></trkpt><trkpt lat="44.7527431" lon="9.3737108"><ele>301.0</ele><time>2026-04-18T08:14:52.278Z</time></trkpt><trkpt lat="44.7526982" lon="9.3736411"><ele>301.0</ele><time>2026-04-18T08:14:53.279Z</time></trkpt><trkpt lat="44.7526458" lon="9.3735713"><ele>301.0</ele><time>2026-04-18T08:14:54.278Z</time></trkpt><trkpt lat="44.7525874" lon="9.3735188"><ele>301.0</ele><time>2026-04-18T08:14:55.278Z</time></trkpt><trkpt lat="44.7525236" lon="9.3734738"><ele>301.3333333333333</ele><time>2026-04-18T08:14:56.28Z</time></trkpt><trkpt lat="44.7524558" lon="9.3734208"><ele>301.66666666666663</ele><time>2026-04-18T08:14:57.279Z</time></trkpt><trkpt lat="44.7523883" lon="9.3733608"><ele>302.0</ele><time>2026-04-18T08:14:58.279Z</time></trkpt><trkpt lat="44.7523188" lon="9.3732996"><ele>302.3333333333333</ele><time>2026-04-18T08:14:59.279Z</time></trkpt><trkpt lat="44.7522472" lon="9.3732363"><ele>302.6666666666667</ele><time>2026-04-18T08:15:00.278Z</time></trkpt><trkpt lat="44.7521829" lon="9.3731741"><ele>303.0</ele><time>2026-04-18T08:15:01.279Z</time></trkpt><trkpt lat="44.7521236" lon="9.3731139"><ele>303.0</ele><time>2026-04-18T08:15:02.278Z</time></trkpt><trkpt lat="44.7520658" lon="9.3730529"><ele>303.0</ele><time>2026-04-18T08:15:03.279Z</time></trkpt><trkpt lat="44.7520046" lon="9.3729849"><ele>303.0</ele><time>2026-04-18T08:15:04.278Z</time></trkpt><trkpt lat="44.7519455" lon="9.3729108"><ele>303.0</ele><time>2026-04-18T08:15:05.279Z</time></trkpt><trkpt lat="44.7518895" lon="9.3728316"><ele>303.0</ele><time>2026-04-18T08:15:06.278Z</time></trkpt><trkpt lat="44.7518363" lon="9.3727532"><ele>303.0</ele><time>2026-04-18T08:15:07.279Z</time></trkpt><trkpt lat="44.7517838" lon="9.3726827"><ele>303.6666666666667</ele><time>2026-04-18T08:15:08.279Z</time></trkpt><trkpt lat="44.7517408" lon="9.3726056"><ele>304.3333333333333</ele><time>2026-04-18T08:15:09.28Z</time></trkpt><trkpt lat="44.7517012" lon="9.3725336"><ele>305.0</ele><time>2026-04-18T08:15:10.279Z</time></trkpt><trkpt lat="44.7516618" lon="9.3724579"><ele>305.66666666666663</ele><time>2026-04-18T08:15:11.278Z</time></trkpt><trkpt lat="44.7516284" lon="9.3723814"><ele>306.3333333333333</ele><time>2026-04-18T08:15:12.278Z</time></trkpt><trkpt lat="44.7515809" lon="9.3722261"><ele>307.0</ele><time>2026-04-18T08:15:14.28Z</time></trkpt><trkpt lat="44.7515805" lon="9.3720461"><ele>307.0</ele><time>2026-04-18T08:15:16.279Z</time></trkpt><trkpt lat="44.7515825" lon="9.3719503"><ele>307.0</ele><time>2026-04-18T08:15:17.279Z</time></trkpt><trkpt lat="44.7515724" lon="9.3718609"><ele>307.0</ele><time>2026-04-18T08:15:18.279Z</time></trkpt><trkpt lat="44.7515146" lon="9.3716886"><ele>307.0</ele><time>2026-04-18T08:15:20.279Z</time></trkpt><trkpt lat="44.7514831" lon="9.3715931"><ele>307.0</ele><time>2026-04-18T08:15:21.28Z</time></trkpt><trkpt lat="44.751417" lon="9.3714539"><ele>307.0</ele><time>2026-04-18T08:15:23.279Z</time></trkpt><trkpt lat="44.7513073" lon="9.371379"><ele>307.0</ele><time>2026-04-18T08:15:25.279Z</time></trkpt><trkpt lat="44.7512329" lon="9.3713344"><ele>307.0</ele><time>2026-04-18T08:15:26.28Z</time></trkpt><trkpt lat="44.7511629" lon="9.3712859"><ele>307.0</ele><time>2026-04-18T08:15:27.279Z</time></trkpt><trkpt lat="44.751098" lon="9.3712183"><ele>307.0</ele><time>2026-04-18T08:15:28.278Z</time></trkpt><trkpt lat="44.751044" lon="9.3711329"><ele>307.0</ele><time>2026-04-18T08:15:29.279Z</time></trkpt><trkpt lat="44.7510028" lon="9.3710496"><ele>306.8333333333333</ele><time>2026-04-18T08:15:30.28Z</time></trkpt><trkpt lat="44.7509628" lon="9.3709734"><ele>306.66666666666663</ele><time>2026-04-18T08:15:31.28Z</time></trkpt><trkpt lat="44.7508672" lon="9.3708897"><ele>306.5</ele><time>2026-04-18T08:15:33.278Z</time></trkpt><trkpt lat="44.7507599" lon="9.3709364"><ele>306.3333333333333</ele><time>2026-04-18T08:15:35.278Z</time></trkpt><trkpt lat="44.7507108" lon="9.3710186"><ele>306.1666666666667</ele><time>2026-04-18T08:15:36.278Z</time></trkpt><trkpt lat="44.7506764" lon="9.3711178"><ele>306.0</ele><time>2026-04-18T08:15:37.278Z</time></trkpt><trkpt lat="44.7506486" lon="9.371214"><ele>306.0</ele><time>2026-04-18T08:15:38.278Z</time></trkpt><trkpt lat="44.7506359" lon="9.3713035"><ele>306.0</ele><time>2026-04-18T08:15:39.278Z</time></trkpt><trkpt lat="44.7506178" lon="9.371393"><ele>306.0</ele><time>2026-04-18T08:15:40.279Z</time></trkpt><trkpt lat="44.7505966" lon="9.371478"><ele>306.0</ele><time>2026-04-18T08:15:41.279Z</time></trkpt><trkpt lat="44.7505857" lon="9.3715668"><ele>306.0</ele><time>2026-04-18T08:15:42.279Z</time></trkpt><trkpt lat="44.7505782" lon="9.3716565"><ele>306.0</ele><time>2026-04-18T08:15:43.279Z</time></trkpt><trkpt lat="44.7505641" lon="9.3717431"><ele>306.0</ele><time>2026-04-18T08:15:44.279Z</time></trkpt><trkpt lat="44.7505474" lon="9.371832"><ele>305.3333333333333</ele><time>2026-04-18T08:15:45.28Z</time></trkpt><trkpt lat="44.7505296" lon="9.3719238"><ele>304.6666666666667</ele><time>2026-04-18T08:15:46.278Z</time></trkpt><trkpt lat="44.7504895" lon="9.3720923"><ele>304.0</ele><time>2026-04-18T08:15:48.278Z</time></trkpt><trkpt lat="44.7504843" lon="9.3721833"><ele>303.33333333333337</ele><time>2026-04-18T08:15:49.279Z</time></trkpt><trkpt lat="44.7504768" lon="9.3722764"><ele>302.6666666666667</ele><time>2026-04-18T08:15:50.278Z</time></trkpt><trkpt lat="44.7504641" lon="9.3723654"><ele>302.0</ele><time>2026-04-18T08:15:51.278Z</time></trkpt><trkpt lat="44.750461" lon="9.3724573"><ele>301.6666666666667</ele><time>2026-04-18T08:15:52.279Z</time></trkpt><trkpt lat="44.7504522" lon="9.3725458"><ele>301.33333333333337</ele><time>2026-04-18T08:15:53.279Z</time></trkpt><trkpt lat="44.7504428" lon="9.3726335"><ele>301.0</ele><time>2026-04-18T08:15:54.279Z</time></trkpt><trkpt lat="44.7504319" lon="9.3727224"><ele>300.6666666666667</ele><time>2026-04-18T08:15:55.279Z</time></trkpt><trkpt lat="44.7504064" lon="9.3728129"><ele>300.3333333333333</ele><time>2026-04-18T08:15:56.279Z</time></trkpt><trkpt lat="44.7503364" lon="9.3729455"><ele>300.0</ele><time>2026-04-18T08:15:58.279Z</time></trkpt><trkpt lat="44.7502521" lon="9.3730358"><ele>305.3333333333333</ele><time>2026-04-18T08:16:00.279Z</time></trkpt><trkpt lat="44.7501823" lon="9.3730939"><ele>310.6666666666667</ele><time>2026-04-18T08:16:01.279Z</time></trkpt><trkpt lat="44.750088" lon="9.3731566"><ele>316.0</ele><time>2026-04-18T08:16:03.28Z</time></trkpt><trkpt lat="44.7500224" lon="9.3730896"><ele>321.33333333333337</ele><time>2026-04-18T08:16:05.279Z</time></trkpt><trkpt lat="44.7500188" lon="9.3730001"><ele>326.6666666666667</ele><time>2026-04-18T08:16:06.279Z</time></trkpt><trkpt lat="44.7500267" lon="9.3729112"><ele>332.0</ele><time>2026-04-18T08:16:07.279Z</time></trkpt><trkpt lat="44.7500374" lon="9.3727537"><ele>333.6666666666667</ele><time>2026-04-18T08:16:09.279Z</time></trkpt><trkpt lat="44.7500381" lon="9.3725733"><ele>335.33333333333337</ele><time>2026-04-18T08:16:11.279Z</time></trkpt><trkpt lat="44.7500455" lon="9.3724715"><ele>337.0</ele><time>2026-04-18T08:16:12.28Z</time></trkpt><trkpt lat="44.7500584" lon="9.3723706"><ele>338.6666666666667</ele><time>2026-04-18T08:16:13.279Z</time></trkpt><trkpt lat="44.7500492" lon="9.3722683"><ele>340.3333333333333</ele><time>2026-04-18T08:16:14.279Z</time></trkpt><trkpt lat="44.7500613" lon="9.3721554"><ele>342.0</ele><time>2026-04-18T08:16:15.279Z</time></trkpt><trkpt lat="44.7500716" lon="9.3720587"><ele>343.3333333333333</ele><time>2026-04-18T08:16:16.278Z</time></trkpt><trkpt lat="44.7500871" lon="9.3719622"><ele>344.6666666666667</ele><time>2026-04-18T08:16:17.279Z</time></trkpt><trkpt lat="44.7500931" lon="9.3718555"><ele>346.0</ele><time>2026-04-18T08:16:18.28Z</time></trkpt><trkpt lat="44.7500916" lon="9.3717397"><ele>347.33333333333337</ele><time>2026-04-18T08:16:19.28Z</time></trkpt><trkpt lat="44.7500844" lon="9.371607"><ele>348.6666666666667</ele><time>2026-04-18T08:16:20.279Z</time></trkpt><trkpt lat="44.7500791" lon="9.3714675"><ele>350.0</ele><time>2026-04-18T08:16:21.279Z</time></trkpt><trkpt lat="44.7500702" lon="9.3713305"><ele>350.0</ele><time>2026-04-18T08:16:22.279Z</time></trkpt><trkpt lat="44.7500563" lon="9.3712013"><ele>350.0</ele><time>2026-04-18T08:16:23.279Z</time></trkpt><trkpt lat="44.7500371" lon="9.3710739"><ele>350.0</ele><time>2026-04-18T08:16:24.278Z</time></trkpt><trkpt lat="44.7500192" lon="9.3709426"><ele>350.0</ele><time>2026-04-18T08:16:25.278Z</time></trkpt><trkpt lat="44.7500049" lon="9.3708111"><ele>350.0</ele><time>2026-04-18T08:16:26.279Z</time></trkpt><trkpt lat="44.7499839" lon="9.3706584"><ele>348.25</ele><time>2026-04-18T08:16:27.279Z</time></trkpt><trkpt lat="44.7499608" lon="9.3704977"><ele>346.5</ele><time>2026-04-18T08:16:28.278Z</time></trkpt><trkpt lat="44.7499213" lon="9.3703206"><ele>344.75</ele><time>2026-04-18T08:16:29.28Z</time></trkpt><trkpt lat="44.7498801" lon="9.3701688"><ele>343.0</ele><time>2026-04-18T08:16:30.279Z</time></trkpt><trkpt lat="44.7498276" lon="9.3700245"><ele>343.0</ele><time>2026-04-18T08:16:31.278Z</time></trkpt><trkpt lat="44.7497689" lon="9.3698985"><ele>343.0</ele><time>2026-04-18T08:16:32.279Z</time></trkpt><trkpt lat="44.7497263" lon="9.3697871"><ele>343.0</ele><time>2026-04-18T08:16:33.279Z</time></trkpt><trkpt lat="44.749697" lon="9.3696888"><ele>343.0</ele><time>2026-04-18T08:16:34.279Z</time></trkpt><trkpt lat="44.7496757" lon="9.369599"><ele>343.0</ele><time>2026-04-18T08:16:35.278Z</time></trkpt><trkpt lat="44.7496244" lon="9.3694655"><ele>343.0</ele><time>2026-04-18T08:16:37.28Z</time></trkpt><trkpt lat="44.7495466" lon="9.3694914"><ele>343.0</ele><time>2026-04-18T08:16:39.279Z</time></trkpt><trkpt lat="44.7495606" lon="9.3696556"><ele>343.0</ele><time>2026-04-18T08:16:41.279Z</time></trkpt><trkpt lat="44.7495922" lon="9.3698081"><ele>343.0</ele><time>2026-04-18T08:16:42.28Z</time></trkpt><trkpt lat="44.7496162" lon="9.3699713"><ele>343.0</ele><time>2026-04-18T08:16:43.28Z</time></trkpt><trkpt lat="44.7496365" lon="9.3701185"><ele>343.0</ele><time>2026-04-18T08:16:44.279Z</time></trkpt><trkpt lat="44.7496469" lon="9.3702517"><ele>343.0</ele><time>2026-04-18T08:16:45.278Z</time></trkpt><trkpt lat="44.7496525" lon="9.3703929"><ele>343.0</ele><time>2026-04-18T08:16:46.279Z</time></trkpt><trkpt lat="44.7496581" lon="9.3705236"><ele>343.0</ele><time>2026-04-18T08:16:47.279Z</time></trkpt><trkpt lat="44.7496605" lon="9.370636"><ele>343.0</ele><time>2026-04-18T08:16:48.278Z</time></trkpt><trkpt lat="44.7496619" lon="9.3707597"><ele>344.16666666666663</ele><time>2026-04-18T08:16:49.279Z</time></trkpt><trkpt lat="44.7496622" lon="9.3708831"><ele>345.3333333333333</ele><time>2026-04-18T08:16:50.279Z</time></trkpt><trkpt lat="44.7496603" lon="9.3710066"><ele>346.5</ele><time>2026-04-18T08:16:51.278Z</time></trkpt><trkpt lat="44.7496522" lon="9.3711248"><ele>347.6666666666667</ele><time>2026-04-18T08:16:52.279Z</time></trkpt><trkpt lat="44.7496406" lon="9.3712364"><ele>348.83333333333337</ele><time>2026-04-18T08:16:53.278Z</time></trkpt><trkpt lat="44.749625" lon="9.3713473"><ele>350.0</ele><time>2026-04-18T08:16:54.278Z</time></trkpt><trkpt lat="44.7496018" lon="9.3714646"><ele>350.0</ele><time>2026-04-18T08:16:55.278Z</time></trkpt><trkpt lat="44.7495712" lon="9.3715781"><ele>350.0</ele><time>2026-04-18T08:16:56.279Z</time></trkpt><trkpt lat="44.7495316" lon="9.3716915"><ele>350.0</ele><time>2026-04-18T08:16:57.279Z</time></trkpt><trkpt lat="44.7494932" lon="9.3717927"><ele>350.0</ele><time>2026-04-18T08:16:58.277Z</time></trkpt><trkpt lat="44.7494535" lon="9.3718911"><ele>350.0</ele><time>2026-04-18T08:16:59.279Z</time></trkpt><trkpt lat="44.7494087" lon="9.3719948"><ele>350.0</ele><time>2026-04-18T08:17:00.278Z</time></trkpt><trkpt lat="44.7493605" lon="9.3720992"><ele>359.0</ele><time>2026-04-18T08:17:01.278Z</time></trkpt><trkpt lat="44.749316" lon="9.3722097"><ele>368.0</ele><time>2026-04-18T08:17:02.277Z</time></trkpt><trkpt lat="44.7492861" lon="9.3723329"><ele>377.0</ele><time>2026-04-18T08:17:03.278Z</time></trkpt><trkpt lat="44.7492551" lon="9.3724559"><ele>386.0</ele><time>2026-04-18T08:17:04.277Z</time></trkpt><trkpt lat="44.7492185" lon="9.3725797"><ele>395.0</ele><time>2026-04-18T08:17:05.279Z</time></trkpt><trkpt lat="44.749177" lon="9.3727035"><ele>395.0</ele><time>2026-04-18T08:17:06.277Z</time></trkpt><trkpt lat="44.7491323" lon="9.372826"><ele>395.0</ele><time>2026-04-18T08:17:07.278Z</time></trkpt><trkpt lat="44.7490874" lon="9.3729468"><ele>395.0</ele><time>2026-04-18T08:17:08.279Z</time></trkpt><trkpt lat="44.7490411" lon="9.3730628"><ele>395.0</ele><time>2026-04-18T08:17:09.278Z</time></trkpt><trkpt lat="44.7489991" lon="9.3731742"><ele>395.0</ele><time>2026-04-18T08:17:10.278Z</time></trkpt><trkpt lat="44.7489635" lon="9.3732788"><ele>392.49999999999994</ele><time>2026-04-18T08:17:11.279Z</time></trkpt><trkpt lat="44.7489429" lon="9.3733803"><ele>390.0</ele><time>2026-04-18T08:17:12.279Z</time></trkpt><trkpt lat="44.7488938" lon="9.3734669"><ele>387.5</ele><time>2026-04-18T08:17:13.278Z</time></trkpt><trkpt lat="44.7488237" lon="9.3735472"><ele>385.0</ele><time>2026-04-18T08:17:14.277Z</time></trkpt><trkpt lat="44.7487268" lon="9.3736039"><ele>382.5</ele><time>2026-04-18T08:17:15.277Z</time></trkpt><trkpt lat="44.7486504" lon="9.3736561"><ele>380.0</ele><time>2026-04-18T08:17:16.277Z</time></trkpt><trkpt lat="44.7485785" lon="9.3737033"><ele>386.6666666666667</ele><time>2026-04-18T08:17:17.277Z</time></trkpt><trkpt lat="44.7485115" lon="9.373748"><ele>393.33333333333337</ele><time>2026-04-18T08:17:18.277Z</time></trkpt><trkpt lat="44.7484405" lon="9.3737763"><ele>400.0</ele><time>2026-04-18T08:17:19.277Z</time></trkpt><trkpt lat="44.7483602" lon="9.3737859"><ele>406.6666666666667</ele><time>2026-04-18T08:17:20.277Z</time></trkpt><trkpt lat="44.7482761" lon="9.3737899"><ele>413.3333333333333</ele><time>2026-04-18T08:17:21.277Z</time></trkpt><trkpt lat="44.7481856" lon="9.3737923"><ele>420.0</ele><time>2026-04-18T08:17:22.278Z</time></trkpt><trkpt lat="44.7480968" lon="9.3737953"><ele>420.0</ele><time>2026-04-18T08:17:23.279Z</time></trkpt><trkpt lat="44.7480222" lon="9.3738163"><ele>420.0</ele><time>2026-04-18T08:17:24.279Z</time></trkpt><trkpt lat="44.7479587" lon="9.3738586"><ele>420.0</ele><time>2026-04-18T08:17:25.279Z</time></trkpt><trkpt lat="44.7478968" lon="9.373898"><ele>420.0</ele><time>2026-04-18T08:17:26.278Z</time></trkpt><trkpt lat="44.7477917" lon="9.3739655"><ele>420.0</ele><time>2026-04-18T08:17:28.278Z</time></trkpt><trkpt lat="44.7477231" lon="9.3739472"><ele>420.0</ele><time>2026-04-18T08:17:29.278Z</time></trkpt><trkpt lat="44.7476199" lon="9.3739022"><ele>423.2</ele><time>2026-04-18T08:17:31.277Z</time></trkpt><trkpt lat="44.7475379" lon="9.3738586"><ele>426.4</ele><time>2026-04-18T08:17:33.279Z</time></trkpt><trkpt lat="44.7474309" lon="9.3738292"><ele>429.6</ele><time>2026-04-18T08:17:35.278Z</time></trkpt><trkpt lat="44.7473361" lon="9.3738175"><ele>432.8</ele><time>2026-04-18T08:17:37.278Z</time></trkpt><trkpt lat="44.7472318" lon="9.3738113"><ele>436.0</ele><time>2026-04-18T08:17:39.278Z</time></trkpt><trkpt lat="44.7471128" lon="9.3737653"><ele>436.00000000000006</ele><time>2026-04-18T08:17:41.278Z</time></trkpt><trkpt lat="44.7470605" lon="9.3736985"><ele>436.0</ele><time>2026-04-18T08:17:42.278Z</time></trkpt><trkpt lat="44.7470158" lon="9.3736197"><ele>436.0</ele><time>2026-04-18T08:17:43.278Z</time></trkpt><trkpt lat="44.7469091" lon="9.373545"><ele>436.0</ele><time>2026-04-18T08:17:45.277Z</time></trkpt><trkpt lat="44.7468445" lon="9.37355"><ele>436.00000000000006</ele><time>2026-04-18T08:17:46.279Z</time></trkpt><trkpt lat="44.7467687" lon="9.3735718"><ele>436.0</ele><time>2026-04-18T08:17:47.279Z</time></trkpt><trkpt lat="44.7466961" lon="9.3735817"><ele>436.1666666666667</ele><time>2026-04-18T08:17:48.278Z</time></trkpt><trkpt lat="44.7466145" lon="9.373582"><ele>436.33333333333337</ele><time>2026-04-18T08:17:49.278Z</time></trkpt><trkpt lat="44.7465284" lon="9.3735628"><ele>436.5</ele><time>2026-04-18T08:17:50.277Z</time></trkpt><trkpt lat="44.7464424" lon="9.3735435"><ele>436.66666666666663</ele><time>2026-04-18T08:17:51.277Z</time></trkpt><trkpt lat="44.7463598" lon="9.3735166"><ele>436.8333333333333</ele><time>2026-04-18T08:17:52.279Z</time></trkpt><trkpt lat="44.7462794" lon="9.3734816"><ele>437.0</ele><time>2026-04-18T08:17:53.278Z</time></trkpt><trkpt lat="44.7461929" lon="9.3734594"><ele>437.0</ele><time>2026-04-18T08:17:54.278Z</time></trkpt><trkpt lat="44.7461084" lon="9.3734234"><ele>437.00000000000006</ele><time>2026-04-18T08:17:55.278Z</time></trkpt><trkpt lat="44.746018" lon="9.3733955"><ele>437.00000000000006</ele><time>2026-04-18T08:17:56.278Z</time></trkpt><trkpt lat="44.7459075" lon="9.3733978"><ele>437.0</ele><time>2026-04-18T08:17:57.278Z</time></trkpt><trkpt lat="44.745805" lon="9.3734024"><ele>437.0</ele><time>2026-04-18T08:17:58.278Z</time></trkpt><trkpt lat="44.7457116" lon="9.3734123"><ele>438.49999999999994</ele><time>2026-04-18T08:17:59.278Z</time></trkpt><trkpt lat="44.7456195" lon="9.3734227"><ele>440.0</ele><time>2026-04-18T08:18:00.278Z</time></trkpt><trkpt lat="44.7455262" lon="9.3734301"><ele>441.5</ele><time>2026-04-18T08:18:01.278Z</time></trkpt><trkpt lat="44.7454365" lon="9.3733991"><ele>443.0</ele><time>2026-04-18T08:18:02.278Z</time></trkpt><trkpt lat="44.7453636" lon="9.373342"><ele>444.49999999999994</ele><time>2026-04-18T08:18:03.279Z</time></trkpt><trkpt lat="44.745286" lon="9.3733049"><ele>446.0</ele><time>2026-04-18T08:18:04.278Z</time></trkpt><trkpt lat="44.7452095" lon="9.3732837"><ele>446.4</ele><time>2026-04-18T08:18:05.279Z</time></trkpt><trkpt lat="44.7451313" lon="9.373277"><ele>446.8</ele><time>2026-04-18T08:18:06.278Z</time></trkpt><trkpt lat="44.7450099" lon="9.3732176"><ele>447.19999999999993</ele><time>2026-04-18T08:18:08.278Z</time></trkpt><trkpt lat="44.744954" lon="9.373126"><ele>447.59999999999997</ele><time>2026-04-18T08:18:09.278Z</time></trkpt><trkpt lat="44.7449126" lon="9.3730263"><ele>448.0</ele><time>2026-04-18T08:18:10.279Z</time></trkpt><trkpt lat="44.7448821" lon="9.3729222"><ele>452.1666666666667</ele><time>2026-04-18T08:18:11.278Z</time></trkpt><trkpt lat="44.744852" lon="9.3728198"><ele>456.33333333333337</ele><time>2026-04-18T08:18:12.278Z</time></trkpt><trkpt lat="44.7448182" lon="9.3727138"><ele>460.5</ele><time>2026-04-18T08:18:13.278Z</time></trkpt><trkpt lat="44.7447717" lon="9.3726084"><ele>464.66666666666663</ele><time>2026-04-18T08:18:14.277Z</time></trkpt><trkpt lat="44.7447077" lon="9.3725185"><ele>468.8333333333333</ele><time>2026-04-18T08:18:15.277Z</time></trkpt><trkpt lat="44.7446338" lon="9.3724573"><ele>473.0</ele><time>2026-04-18T08:18:16.279Z</time></trkpt><trkpt lat="44.7445609" lon="9.3724122"><ele>472.99999999999994</ele><time>2026-04-18T08:18:17.279Z</time></trkpt><trkpt lat="44.744487" lon="9.3723672"><ele>473.0</ele><time>2026-04-18T08:18:18.278Z</time></trkpt><trkpt lat="44.744418" lon="9.3723304"><ele>473.0</ele><time>2026-04-18T08:18:19.278Z</time></trkpt><trkpt lat="44.7443492" lon="9.3723114"><ele>473.0</ele><time>2026-04-18T08:18:20.278Z</time></trkpt><trkpt lat="44.7442767" lon="9.3722976"><ele>472.99999999999994</ele><time>2026-04-18T08:18:21.278Z</time></trkpt><trkpt lat="44.7442038" lon="9.3723239"><ele>473.0</ele><time>2026-04-18T08:18:22.279Z</time></trkpt><trkpt lat="44.7441373" lon="9.3723785"><ele>474.0</ele><time>2026-04-18T08:18:23.278Z</time></trkpt><trkpt lat="44.7440826" lon="9.3724548"><ele>475.0</ele><time>2026-04-18T08:18:24.278Z</time></trkpt><trkpt lat="44.7440407" lon="9.3725396"><ele>476.0</ele><time>2026-04-18T08:18:25.278Z</time></trkpt><trkpt lat="44.7439992" lon="9.3726289"><ele>477.0</ele><time>2026-04-18T08:18:26.278Z</time></trkpt><trkpt lat="44.7439746" lon="9.3727272"><ele>478.0</ele><time>2026-04-18T08:18:27.277Z</time></trkpt><trkpt lat="44.7439519" lon="9.3728248"><ele>479.0</ele><time>2026-04-18T08:18:28.277Z</time></trkpt><trkpt lat="44.7439391" lon="9.372917"><ele>480.0</ele><time>2026-04-18T08:18:29.277Z</time></trkpt><trkpt lat="44.743919" lon="9.3730049"><ele>479.8333333333333</ele><time>2026-04-18T08:18:30.277Z</time></trkpt><trkpt lat="44.7439109" lon="9.3730952"><ele>479.66666666666663</ele><time>2026-04-18T08:18:31.278Z</time></trkpt><trkpt lat="44.7438511" lon="9.3732455"><ele>479.5</ele><time>2026-04-18T08:18:33.278Z</time></trkpt><trkpt lat="44.7437897" lon="9.3732855"><ele>479.3333333333333</ele><time>2026-04-18T08:18:34.278Z</time></trkpt><trkpt lat="44.743707" lon="9.3732896"><ele>479.16666666666663</ele><time>2026-04-18T08:18:35.278Z</time></trkpt><trkpt lat="44.7436297" lon="9.3732813"><ele>479.0</ele><time>2026-04-18T08:18:36.278Z</time></trkpt><trkpt lat="44.7435419" lon="9.3732617"><ele>478.99999999999994</ele><time>2026-04-18T08:18:37.279Z</time></trkpt><trkpt lat="44.743455" lon="9.3732377"><ele>479.0</ele><time>2026-04-18T08:18:38.278Z</time></trkpt><trkpt lat="44.7433728" lon="9.3732222"><ele>479.0</ele><time>2026-04-18T08:18:39.278Z</time></trkpt><trkpt lat="44.7432906" lon="9.373223"><ele>479.0</ele><time>2026-04-18T08:18:40.278Z</time></trkpt><trkpt lat="44.7432036" lon="9.3732324"><ele>478.99999999999994</ele><time>2026-04-18T08:18:41.278Z</time></trkpt><trkpt lat="44.7431121" lon="9.3732548"><ele>479.0</ele><time>2026-04-18T08:18:42.278Z</time></trkpt><trkpt lat="44.743026" lon="9.3732761"><ele>478.99999999999994</ele><time>2026-04-18T08:18:43.279Z</time></trkpt><trkpt lat="44.7429407" lon="9.3732888"><ele>479.0</ele><time>2026-04-18T08:18:44.278Z</time></trkpt><trkpt lat="44.7428599" lon="9.3732966"><ele>479.0</ele><time>2026-04-18T08:18:45.278Z</time></trkpt><trkpt lat="44.7427895" lon="9.3732918"><ele>479.0</ele><time>2026-04-18T08:18:46.277Z</time></trkpt><trkpt lat="44.7427189" lon="9.3732752"><ele>478.99999999999994</ele><time>2026-04-18T08:18:47.278Z</time></trkpt><trkpt lat="44.7426496" lon="9.3732552"><ele>479.0</ele><time>2026-04-18T08:18:48.278Z</time></trkpt><trkpt lat="44.7425426" lon="9.3732511"><ele>480.3333333333333</ele><time>2026-04-18T08:18:50.278Z</time></trkpt><trkpt lat="44.7424703" lon="9.3732718"><ele>481.66666666666663</ele><time>2026-04-18T08:18:52.278Z</time></trkpt><trkpt lat="44.7424104" lon="9.37323"><ele>483.0</ele><time>2026-04-18T08:18:54.278Z</time></trkpt><trkpt lat="44.7424699" lon="9.3731354"><ele>484.33333333333337</ele><time>2026-04-18T08:18:57.278Z</time></trkpt><trkpt lat="44.7425442" lon="9.3731298"><ele>485.6666666666667</ele><time>2026-04-18T08:18:58.277Z</time></trkpt><trkpt lat="44.7426229" lon="9.37313"><ele>487.0</ele><time>2026-04-18T08:18:59.277Z</time></trkpt><trkpt lat="44.7427079" lon="9.3731234"><ele>485.6666666666667</ele><time>2026-04-18T08:19:00.277Z</time></trkpt><trkpt lat="44.7427949" lon="9.3731015"><ele>484.33333333333337</ele><time>2026-04-18T08:19:01.279Z</time></trkpt><trkpt lat="44.7428793" lon="9.3730419"><ele>483.0</ele><time>2026-04-18T08:19:02.277Z</time></trkpt><trkpt lat="44.7429591" lon="9.3729633"><ele>481.66666666666663</ele><time>2026-04-18T08:19:03.279Z</time></trkpt><trkpt lat="44.7430275" lon="9.3728948"><ele>480.3333333333333</ele><time>2026-04-18T08:19:04.277Z</time></trkpt><trkpt lat="44.7430934" lon="9.3728302"><ele>479.0</ele><time>2026-04-18T08:19:05.278Z</time></trkpt><trkpt lat="44.7431615" lon="9.3727643"><ele>483.99999999999994</ele><time>2026-04-18T08:19:06.277Z</time></trkpt><trkpt lat="44.7432236" lon="9.3727272"><ele>489.0</ele><time>2026-04-18T08:19:07.278Z</time></trkpt><trkpt lat="44.7432807" lon="9.372668"><ele>494.0</ele><time>2026-04-18T08:19:08.278Z</time></trkpt><trkpt lat="44.7433214" lon="9.3725725"><ele>499.0</ele><time>2026-04-18T08:19:09.278Z</time></trkpt><trkpt lat="44.7433417" lon="9.3724606"><ele>503.99999999999994</ele><time>2026-04-18T08:19:10.278Z</time></trkpt><trkpt lat="44.74335" lon="9.3723456"><ele>509.0</ele><time>2026-04-18T08:19:11.278Z</time></trkpt><trkpt lat="44.7433807" lon="9.3722325"><ele>509.6</ele><time>2026-04-18T08:19:12.278Z</time></trkpt><trkpt lat="44.7434314" lon="9.3721241"><ele>510.2</ele><time>2026-04-18T08:19:13.278Z</time></trkpt><trkpt lat="44.7434861" lon="9.3720158"><ele>510.80000000000007</ele><time>2026-04-18T08:19:14.278Z</time></trkpt><trkpt lat="44.7435459" lon="9.3719169"><ele>511.40000000000003</ele><time>2026-04-18T08:19:15.278Z</time></trkpt><trkpt lat="44.7436064" lon="9.3718283"><ele>512.0</ele><time>2026-04-18T08:19:16.277Z</time></trkpt><trkpt lat="44.7436736" lon="9.3717465"><ele>512.0</ele><time>2026-04-18T08:19:17.278Z</time></trkpt><trkpt lat="44.7437468" lon="9.3716618"><ele>512.0</ele><time>2026-04-18T08:19:18.277Z</time></trkpt><trkpt lat="44.7438218" lon="9.3715851"><ele>512.0</ele><time>2026-04-18T08:19:19.277Z</time></trkpt><trkpt lat="44.7438976" lon="9.3715121"><ele>512.0</ele><time>2026-04-18T08:19:20.278Z</time></trkpt><trkpt lat="44.7439764" lon="9.3714435"><ele>512.0</ele><time>2026-04-18T08:19:21.278Z</time></trkpt><trkpt lat="44.7440472" lon="9.3713699"><ele>515.8333333333333</ele><time>2026-04-18T08:19:22.279Z</time></trkpt><trkpt lat="44.7441113" lon="9.371287"><ele>519.6666666666666</ele><time>2026-04-18T08:19:23.278Z</time></trkpt><trkpt lat="44.7441722" lon="9.3712028"><ele>523.5</ele><time>2026-04-18T08:19:24.277Z</time></trkpt><trkpt lat="44.7442451" lon="9.3711408"><ele>527.3333333333334</ele><time>2026-04-18T08:19:25.278Z</time></trkpt><trkpt lat="44.7443333" lon="9.3711111"><ele>531.1666666666667</ele><time>2026-04-18T08:19:26.278Z</time></trkpt><trkpt lat="44.7444252" lon="9.371106"><ele>535.0</ele><time>2026-04-18T08:19:27.277Z</time></trkpt><trkpt lat="44.7445114" lon="9.3711059"><ele>535.0</ele><time>2026-04-18T08:19:28.279Z</time></trkpt><trkpt lat="44.7445935" lon="9.3711097"><ele>535.0</ele><time>2026-04-18T08:19:29.278Z</time></trkpt><trkpt lat="44.7446594" lon="9.3711103"><ele>535.0</ele><time>2026-04-18T08:19:30.279Z</time></trkpt><trkpt lat="44.7447224" lon="9.3711048"><ele>535.0</ele><time>2026-04-18T08:19:31.278Z</time></trkpt><trkpt lat="44.7448149" lon="9.371039"><ele>535.0</ele><time>2026-04-18T08:19:33.278Z</time></trkpt><trkpt lat="44.7448271" lon="9.3708841"><ele>535.0</ele><time>2026-04-18T08:19:35.278Z</time></trkpt><trkpt lat="44.744811" lon="9.3707917"><ele>535.0</ele><time>2026-04-18T08:19:36.277Z</time></trkpt><trkpt lat="44.7447813" lon="9.3706899"><ele>535.0</ele><time>2026-04-18T08:19:37.278Z</time></trkpt><trkpt lat="44.7447547" lon="9.3706061"><ele>535.0</ele><time>2026-04-18T08:19:38.278Z</time></trkpt><trkpt lat="44.7446681" lon="9.3704888"><ele>535.0</ele><time>2026-04-18T08:19:40.278Z</time></trkpt><trkpt lat="44.7445416" lon="9.3704614"><ele>535.0</ele><time>2026-04-18T08:19:42.279Z</time></trkpt><trkpt lat="44.7444761" lon="9.3704681"><ele>535.0</ele><time>2026-04-18T08:19:43.278Z</time></trkpt><trkpt lat="44.7444064" lon="9.3705082"><ele>535.0</ele><time>2026-04-18T08:19:44.279Z</time></trkpt><trkpt lat="44.7443284" lon="9.3705549"><ele>535.0</ele><time>2026-04-18T08:19:45.278Z</time></trkpt><trkpt lat="44.7442512" lon="9.3706019"><ele>535.0</ele><time>2026-04-18T08:19:46.278Z</time></trkpt><trkpt lat="44.7441797" lon="9.3706353"><ele>535.0</ele><time>2026-04-18T08:19:47.278Z</time></trkpt><trkpt lat="44.7441056" lon="9.3706688"><ele>535.0</ele><time>2026-04-18T08:19:48.278Z</time></trkpt><trkpt lat="44.7440299" lon="9.3706934"><ele>535.0</ele><time>2026-04-18T08:19:49.277Z</time></trkpt><trkpt lat="44.7439495" lon="9.3707225"><ele>535.0</ele><time>2026-04-18T08:19:50.277Z</time></trkpt><trkpt lat="44.7438692" lon="9.3707475"><ele>535.0</ele><time>2026-04-18T08:19:51.278Z</time></trkpt><trkpt lat="44.7437875" lon="9.3707755"><ele>535.0</ele><time>2026-04-18T08:19:52.277Z</time></trkpt><trkpt lat="44.7437051" lon="9.3708067"><ele>535.0</ele><time>2026-04-18T08:19:53.278Z</time></trkpt><trkpt lat="44.7436266" lon="9.3708343"><ele>535.0</ele><time>2026-04-18T08:19:54.278Z</time></trkpt><trkpt lat="44.74355" lon="9.370864"><ele>536.1666666666667</ele><time>2026-04-18T08:19:55.277Z</time></trkpt><trkpt lat="44.7434723" lon="9.3708988"><ele>537.3333333333334</ele><time>2026-04-18T08:19:56.277Z</time></trkpt><trkpt lat="44.7433916" lon="9.3709353"><ele>538.5</ele><time>2026-04-18T08:19:57.277Z</time></trkpt><trkpt lat="44.7433111" lon="9.37097"><ele>539.6666666666666</ele><time>2026-04-18T08:19:58.278Z</time></trkpt><trkpt lat="44.7432318" lon="9.3710103"><ele>540.8333333333333</ele><time>2026-04-18T08:19:59.277Z</time></trkpt><trkpt lat="44.7431507" lon="9.3710565"><ele>542.0</ele><time>2026-04-18T08:20:00.278Z</time></trkpt><trkpt lat="44.7430745" lon="9.3710927"><ele>542.0</ele><time>2026-04-18T08:20:01.278Z</time></trkpt><trkpt lat="44.7430037" lon="9.3711023"><ele>542.0</ele><time>2026-04-18T08:20:02.279Z</time></trkpt><trkpt lat="44.7429328" lon="9.3710814"><ele>542.0</ele><time>2026-04-18T08:20:03.278Z</time></trkpt><trkpt lat="44.7428854" lon="9.3710205"><ele>542.0</ele><time>2026-04-18T08:20:04.278Z</time></trkpt><trkpt lat="44.7428433" lon="9.3709355"><ele>542.0</ele><time>2026-04-18T08:20:05.279Z</time></trkpt><trkpt lat="44.7428145" lon="9.3708418"><ele>542.0</ele><time>2026-04-18T08:20:06.278Z</time></trkpt><trkpt lat="44.7427815" lon="9.3707491"><ele>542.0</ele><time>2026-04-18T08:20:07.279Z</time></trkpt><trkpt lat="44.7427278" lon="9.3706619"><ele>541.7142857142857</ele><time>2026-04-18T08:20:08.279Z</time></trkpt><trkpt lat="44.7426714" lon="9.3705939"><ele>541.4285714285714</ele><time>2026-04-18T08:20:09.278Z</time></trkpt><trkpt lat="44.7426142" lon="9.3705238"><ele>541.1428571428571</ele><time>2026-04-18T08:20:10.278Z</time></trkpt><trkpt lat="44.7425593" lon="9.3704643"><ele>540.8571428571429</ele><time>2026-04-18T08:20:11.279Z</time></trkpt><trkpt lat="44.7424982" lon="9.3704139"><ele>540.5714285714286</ele><time>2026-04-18T08:20:12.278Z</time></trkpt><trkpt lat="44.7424255" lon="9.3703826"><ele>540.2857142857142</ele><time>2026-04-18T08:20:13.278Z</time></trkpt><trkpt lat="44.7423442" lon="9.3703762"><ele>540.0</ele><time>2026-04-18T08:20:14.277Z</time></trkpt><trkpt lat="44.7422674" lon="9.3703903"><ele>540.0</ele><time>2026-04-18T08:20:15.279Z</time></trkpt><trkpt lat="44.7421934" lon="9.3704163"><ele>540.0</ele><time>2026-04-18T08:20:16.279Z</time></trkpt><trkpt lat="44.7421207" lon="9.3704436"><ele>540.0</ele><time>2026-04-18T08:20:17.277Z</time></trkpt><trkpt lat="44.7420489" lon="9.370468"><ele>540.0</ele><time>2026-04-18T08:20:18.278Z</time></trkpt><trkpt lat="44.7419796" lon="9.3704912"><ele>540.0</ele><time>2026-04-18T08:20:19.278Z</time></trkpt><trkpt lat="44.7419075" lon="9.3705221"><ele>540.0</ele><time>2026-04-18T08:20:20.277Z</time></trkpt><trkpt lat="44.7418355" lon="9.3705534"><ele>540.0</ele><time>2026-04-18T08:20:21.278Z</time></trkpt><trkpt lat="44.7417575" lon="9.3705832"><ele>542.8</ele><time>2026-04-18T08:20:22.277Z</time></trkpt><trkpt lat="44.7416732" lon="9.3706112"><ele>545.6</ele><time>2026-04-18T08:20:23.277Z</time></trkpt><trkpt lat="44.7415853" lon="9.3706347"><ele>548.4</ele><time>2026-04-18T08:20:24.277Z</time></trkpt><trkpt lat="44.7414933" lon="9.3706564"><ele>551.2</ele><time>2026-04-18T08:20:25.278Z</time></trkpt><trkpt lat="44.7413976" lon="9.3706767"><ele>554.0</ele><time>2026-04-18T08:20:26.278Z</time></trkpt><trkpt lat="44.7413012" lon="9.3706904"><ele>554.0</ele><time>2026-04-18T08:20:27.277Z</time></trkpt><trkpt lat="44.7412021" lon="9.3706968"><ele>554.0</ele><time>2026-04-18T08:20:28.278Z</time></trkpt><trkpt lat="44.7411006" lon="9.3706992"><ele>554.0</ele><time>2026-04-18T08:20:29.279Z</time></trkpt><trkpt lat="44.7409986" lon="9.3706985"><ele>554.0</ele><time>2026-04-18T08:20:30.279Z</time></trkpt><trkpt lat="44.7409013" lon="9.3706978"><ele>554.0</ele><time>2026-04-18T08:20:31.278Z</time></trkpt><trkpt lat="44.740806" lon="9.3706988"><ele>554.1666666666666</ele><time>2026-04-18T08:20:32.279Z</time></trkpt><trkpt lat="44.7407108" lon="9.3707132"><ele>554.3333333333333</ele><time>2026-04-18T08:20:33.278Z</time></trkpt><trkpt lat="44.7406248" lon="9.3707348"><ele>554.5</ele><time>2026-04-18T08:20:34.278Z</time></trkpt><trkpt lat="44.7405419" lon="9.3707659"><ele>554.6666666666666</ele><time>2026-04-18T08:20:35.278Z</time></trkpt><trkpt lat="44.7404624" lon="9.3708005"><ele>554.8333333333334</ele><time>2026-04-18T08:20:36.278Z</time></trkpt><trkpt lat="44.7403815" lon="9.3708318"><ele>555.0</ele><time>2026-04-18T08:20:37.277Z</time></trkpt><trkpt lat="44.7402979" lon="9.370846"><ele>555.0</ele><time>2026-04-18T08:20:38.279Z</time></trkpt><trkpt lat="44.7402166" lon="9.3708364"><ele>555.0</ele><time>2026-04-18T08:20:39.278Z</time></trkpt><trkpt lat="44.7401432" lon="9.3707949"><ele>555.0</ele><time>2026-04-18T08:20:40.278Z</time></trkpt><trkpt lat="44.7400732" lon="9.3707357"><ele>555.0</ele><time>2026-04-18T08:20:41.278Z</time></trkpt><trkpt lat="44.7400019" lon="9.3706597"><ele>555.0</ele><time>2026-04-18T08:20:42.278Z</time></trkpt><trkpt lat="44.7399167" lon="9.3705775"><ele>555.0</ele><time>2026-04-18T08:20:43.278Z</time></trkpt><trkpt lat="44.7398366" lon="9.3705008"><ele>557.0</ele><time>2026-04-18T08:20:44.277Z</time></trkpt><trkpt lat="44.7397754" lon="9.3704271"><ele>559.0</ele><time>2026-04-18T08:20:45.278Z</time></trkpt><trkpt lat="44.7397318" lon="9.3703411"><ele>561.0</ele><time>2026-04-18T08:20:46.278Z</time></trkpt><trkpt lat="44.739702" lon="9.3702458"><ele>563.0</ele><time>2026-04-18T08:20:47.278Z</time></trkpt><trkpt lat="44.7396689" lon="9.3701365"><ele>565.0</ele><time>2026-04-18T08:20:49.278Z</time></trkpt><trkpt lat="44.739577" lon="9.3701167"><ele>567.0</ele><time>2026-04-18T08:20:51.277Z</time></trkpt><trkpt lat="44.7395128" lon="9.370174"><ele>567.0</ele><time>2026-04-18T08:20:52.277Z</time></trkpt><trkpt lat="44.7394351" lon="9.3702473"><ele>567.0</ele><time>2026-04-18T08:20:53.278Z</time></trkpt><trkpt lat="44.739358" lon="9.3703052"><ele>567.0</ele><time>2026-04-18T08:20:54.279Z</time></trkpt><trkpt lat="44.7392732" lon="9.370368"><ele>567.0</ele><time>2026-04-18T08:20:55.278Z</time></trkpt><trkpt lat="44.7391887" lon="9.3704413"><ele>567.0</ele><time>2026-04-18T08:20:56.278Z</time></trkpt><trkpt lat="44.7391194" lon="9.3705204"><ele>570.6666666666666</ele><time>2026-04-18T08:20:57.278Z</time></trkpt><trkpt lat="44.7390688" lon="9.3706053"><ele>574.3333333333334</ele><time>2026-04-18T08:20:58.277Z</time></trkpt><trkpt lat="44.7390344" lon="9.3707048"><ele>578.0</ele><time>2026-04-18T08:20:59.278Z</time></trkpt><trkpt lat="44.7390188" lon="9.3708099"><ele>581.6666666666667</ele><time>2026-04-18T08:21:00.279Z</time></trkpt><trkpt lat="44.7390145" lon="9.3709349"><ele>585.3333333333334</ele><time>2026-04-18T08:21:01.278Z</time></trkpt><trkpt lat="44.7390229" lon="9.3710759"><ele>589.0</ele><time>2026-04-18T08:21:02.278Z</time></trkpt><trkpt lat="44.7390456" lon="9.3712008"><ele>589.0</ele><time>2026-04-18T08:21:03.278Z</time></trkpt><trkpt lat="44.7390642" lon="9.3713142"><ele>589.0</ele><time>2026-04-18T08:21:04.278Z</time></trkpt><trkpt lat="44.7390829" lon="9.3714205"><ele>589.0</ele><time>2026-04-18T08:21:05.277Z</time></trkpt><trkpt lat="44.7390918" lon="9.371521"><ele>589.0</ele><time>2026-04-18T08:21:06.278Z</time></trkpt><trkpt lat="44.7390877" lon="9.3716114"><ele>589.0</ele><time>2026-04-18T08:21:07.278Z</time></trkpt><trkpt lat="44.7390411" lon="9.3717475"><ele>589.0</ele><time>2026-04-18T08:21:09.277Z</time></trkpt><trkpt lat="44.738927" lon="9.3718153"><ele>588.3333333333334</ele><time>2026-04-18T08:21:11.279Z</time></trkpt><trkpt lat="44.7388571" lon="9.3718137"><ele>587.6666666666667</ele><time>2026-04-18T08:21:12.279Z</time></trkpt><trkpt lat="44.7387769" lon="9.3718065"><ele>587.0</ele><time>2026-04-18T08:21:13.278Z</time></trkpt><trkpt lat="44.7386916" lon="9.3718141"><ele>586.3333333333334</ele><time>2026-04-18T08:21:14.278Z</time></trkpt><trkpt lat="44.7385958" lon="9.3718337"><ele>585.6666666666666</ele><time>2026-04-18T08:21:15.278Z</time></trkpt><trkpt lat="44.7385022" lon="9.371864"><ele>585.0</ele><time>2026-04-18T08:21:16.278Z</time></trkpt><trkpt lat="44.738416" lon="9.3719138"><ele>589.5</ele><time>2026-04-18T08:21:17.279Z</time></trkpt><trkpt lat="44.7383395" lon="9.3719793"><ele>594.0</ele><time>2026-04-18T08:21:18.278Z</time></trkpt><trkpt lat="44.7382715" lon="9.3720331"><ele>598.5</ele><time>2026-04-18T08:21:19.279Z</time></trkpt><trkpt lat="44.7381888" lon="9.3720613"><ele>603.0</ele><time>2026-04-18T08:21:20.278Z</time></trkpt><trkpt lat="44.7381025" lon="9.3720536"><ele>607.5</ele><time>2026-04-18T08:21:21.279Z</time></trkpt><trkpt lat="44.7380187" lon="9.372067"><ele>612.0</ele><time>2026-04-18T08:21:22.279Z</time></trkpt><trkpt lat="44.7379401" lon="9.3721011"><ele>612.0</ele><time>2026-04-18T08:21:23.278Z</time></trkpt><trkpt lat="44.7378682" lon="9.3721646"><ele>612.0</ele><time>2026-04-18T08:21:24.278Z</time></trkpt><trkpt lat="44.7378017" lon="9.3722398"><ele>612.0</ele><time>2026-04-18T08:21:25.277Z</time></trkpt><trkpt lat="44.7377332" lon="9.3723205"><ele>612.0</ele><time>2026-04-18T08:21:26.278Z</time></trkpt><trkpt lat="44.7376633" lon="9.3723877"><ele>612.0</ele><time>2026-04-18T08:21:27.278Z</time></trkpt><trkpt lat="44.7375945" lon="9.3724463"><ele>612.0</ele><time>2026-04-18T08:21:28.279Z</time></trkpt><trkpt lat="44.7375172" lon="9.3724584"><ele>612.0</ele><time>2026-04-18T08:21:29.278Z</time></trkpt><trkpt lat="44.737444" lon="9.3724613"><ele>612.0</ele><time>2026-04-18T08:21:30.278Z</time></trkpt><trkpt lat="44.737371" lon="9.3724341"><ele>612.0</ele><time>2026-04-18T08:21:31.278Z</time></trkpt><trkpt lat="44.7373033" lon="9.3724049"><ele>612.0</ele><time>2026-04-18T08:21:32.279Z</time></trkpt><trkpt lat="44.7372357" lon="9.3724137"><ele>612.0</ele><time>2026-04-18T08:21:33.278Z</time></trkpt><trkpt lat="44.7371772" lon="9.3724627"><ele>612.0</ele><time>2026-04-18T08:21:34.278Z</time></trkpt><trkpt lat="44.7371295" lon="9.372544"><ele>612.0</ele><time>2026-04-18T08:21:35.278Z</time></trkpt><trkpt lat="44.7371061" lon="9.3726427"><ele>612.0</ele><time>2026-04-18T08:21:36.279Z</time></trkpt><trkpt lat="44.7371108" lon="9.3727595"><ele>612.0</ele><time>2026-04-18T08:21:37.278Z</time></trkpt><trkpt lat="44.7371238" lon="9.3728769"><ele>612.0</ele><time>2026-04-18T08:21:38.277Z</time></trkpt><trkpt lat="44.7371245" lon="9.3730101"><ele>612.0</ele><time>2026-04-18T08:21:39.277Z</time></trkpt><trkpt lat="44.7371134" lon="9.3731425"><ele>612.0</ele><time>2026-04-18T08:21:40.278Z</time></trkpt><trkpt lat="44.7370868" lon="9.3732691"><ele>609.6666666666666</ele><time>2026-04-18T08:21:41.278Z</time></trkpt><trkpt lat="44.7370632" lon="9.3733937"><ele>607.3333333333334</ele><time>2026-04-18T08:21:42.278Z</time></trkpt><trkpt lat="44.7370589" lon="9.3735169"><ele>605.0</ele><time>2026-04-18T08:21:43.279Z</time></trkpt><trkpt lat="44.7370545" lon="9.3736241"><ele>602.6666666666667</ele><time>2026-04-18T08:21:44.278Z</time></trkpt><trkpt lat="44.737039" lon="9.3737325"><ele>600.3333333333334</ele><time>2026-04-18T08:21:45.278Z</time></trkpt><trkpt lat="44.737014" lon="9.3738271"><ele>598.0</ele><time>2026-04-18T08:21:46.278Z</time></trkpt><trkpt lat="44.73696" lon="9.3739029"><ele>597.5</ele><time>2026-04-18T08:21:47.279Z</time></trkpt><trkpt lat="44.7368932" lon="9.3739616"><ele>597.0</ele><time>2026-04-18T08:21:48.278Z</time></trkpt><trkpt lat="44.7368162" lon="9.3740008"><ele>596.5</ele><time>2026-04-18T08:21:49.278Z</time></trkpt><trkpt lat="44.7367307" lon="9.374047"><ele>596.0</ele><time>2026-04-18T08:21:50.278Z</time></trkpt><trkpt lat="44.7366403" lon="9.3740894"><ele>595.5</ele><time>2026-04-18T08:21:51.278Z</time></trkpt><trkpt lat="44.7365446" lon="9.3741275"><ele>595.0</ele><time>2026-04-18T08:21:52.278Z</time></trkpt><trkpt lat="44.7364558" lon="9.3741629"><ele>598.1666666666667</ele><time>2026-04-18T08:21:53.278Z</time></trkpt><trkpt lat="44.7363689" lon="9.3741841"><ele>601.3333333333334</ele><time>2026-04-18T08:21:54.278Z</time></trkpt><trkpt lat="44.7362863" lon="9.3741722"><ele>604.5</ele><time>2026-04-18T08:21:55.278Z</time></trkpt><trkpt lat="44.7362031" lon="9.3741283"><ele>607.6666666666666</ele><time>2026-04-18T08:21:56.277Z</time></trkpt><trkpt lat="44.7361293" lon="9.3740729"><ele>610.8333333333333</ele><time>2026-04-18T08:21:57.277Z</time></trkpt><trkpt lat="44.736059" lon="9.3740076"><ele>614.0</ele><time>2026-04-18T08:21:58.278Z</time></trkpt><trkpt lat="44.7359969" lon="9.3739306"><ele>620.3333333333333</ele><time>2026-04-18T08:21:59.278Z</time></trkpt><trkpt lat="44.7359496" lon="9.3738467"><ele>626.6666666666666</ele><time>2026-04-18T08:22:00.278Z</time></trkpt><trkpt lat="44.7359051" lon="9.3737654"><ele>633.0</ele><time>2026-04-18T08:22:01.278Z</time></trkpt><trkpt lat="44.7358373" lon="9.3737104"><ele>639.3333333333334</ele><time>2026-04-18T08:22:02.278Z</time></trkpt><trkpt lat="44.7357551" lon="9.3736965"><ele>645.6666666666667</ele><time>2026-04-18T08:22:03.278Z</time></trkpt><trkpt lat="44.7356729" lon="9.3736969"><ele>652.0</ele><time>2026-04-18T08:22:04.277Z</time></trkpt><trkpt lat="44.7355859" lon="9.3736819"><ele>652.0</ele><time>2026-04-18T08:22:05.277Z</time></trkpt><trkpt lat="44.735502" lon="9.3736613"><ele>652.0</ele><time>2026-04-18T08:22:06.279Z</time></trkpt><trkpt lat="44.7354149" lon="9.3736504"><ele>652.0</ele><time>2026-04-18T08:22:07.278Z</time></trkpt><trkpt lat="44.7353252" lon="9.3736647"><ele>652.0</ele><time>2026-04-18T08:22:08.277Z</time></trkpt><trkpt lat="44.7352422" lon="9.3736983"><ele>652.0</ele><time>2026-04-18T08:22:09.279Z</time></trkpt><trkpt lat="44.7351716" lon="9.3737422"><ele>652.0</ele><time>2026-04-18T08:22:10.279Z</time></trkpt><trkpt lat="44.7351066" lon="9.3738023"><ele>648.6666666666667</ele><time>2026-04-18T08:22:11.278Z</time></trkpt><trkpt lat="44.7350546" lon="9.3738759"><ele>645.3333333333334</ele><time>2026-04-18T08:22:12.278Z</time></trkpt><trkpt lat="44.7350105" lon="9.3739485"><ele>642.0</ele><time>2026-04-18T08:22:13.277Z</time></trkpt><trkpt lat="44.7348959" lon="9.3740353"><ele>638.6666666666666</ele><time>2026-04-18T08:22:15.277Z</time></trkpt><trkpt lat="44.7348141" lon="9.3740469"><ele>635.3333333333333</ele><time>2026-04-18T08:22:16.278Z</time></trkpt><trkpt lat="44.7347442" lon="9.374072"><ele>632.0</ele><time>2026-04-18T08:22:17.279Z</time></trkpt><trkpt lat="44.7346958" lon="9.3741472"><ele>632.0</ele><time>2026-04-18T08:22:18.278Z</time></trkpt><trkpt lat="44.7346695" lon="9.3742447"><ele>632.0</ele><time>2026-04-18T08:22:19.278Z</time></trkpt><trkpt lat="44.7346512" lon="9.3743862"><ele>632.0</ele><time>2026-04-18T08:22:20.278Z</time></trkpt><trkpt lat="44.7346263" lon="9.3745482"><ele>632.0</ele><time>2026-04-18T08:22:21.278Z</time></trkpt><trkpt lat="44.7346053" lon="9.3747007"><ele>632.0</ele><time>2026-04-18T08:22:22.277Z</time></trkpt><trkpt lat="44.7345916" lon="9.3748267"><ele>634.1666666666666</ele><time>2026-04-18T08:22:23.278Z</time></trkpt><trkpt lat="44.7345741" lon="9.3749409"><ele>636.3333333333333</ele><time>2026-04-18T08:22:24.278Z</time></trkpt><trkpt lat="44.7345571" lon="9.3750416"><ele>638.5</ele><time>2026-04-18T08:22:25.278Z</time></trkpt><trkpt lat="44.7345321" lon="9.375143"><ele>640.6666666666666</ele><time>2026-04-18T08:22:26.278Z</time></trkpt><trkpt lat="44.7344881" lon="9.3752416"><ele>642.8333333333334</ele><time>2026-04-18T08:22:27.278Z</time></trkpt><trkpt lat="44.7344354" lon="9.3753152"><ele>645.0</ele><time>2026-04-18T08:22:28.278Z</time></trkpt><trkpt lat="44.7343795" lon="9.3753718"><ele>645.0</ele><time>2026-04-18T08:22:29.277Z</time></trkpt><trkpt lat="44.7343116" lon="9.3754483"><ele>645.0</ele><time>2026-04-18T08:22:31.278Z</time></trkpt><trkpt lat="44.7342529" lon="9.3755027"><ele>645.0</ele><time>2026-04-18T08:22:34.279Z</time></trkpt><trkpt lat="44.7341786" lon="9.3754952"><ele>645.0</ele><time>2026-04-18T08:22:54.277Z</time></trkpt><trkpt lat="44.7341561" lon="9.3755924"><ele>645.0</ele><time>2026-04-18T08:22:58.279Z</time></trkpt><trkpt lat="44.7341956" lon="9.3757084"><ele>645.0</ele><time>2026-04-18T08:23:02.277Z</time></trkpt><trkpt lat="44.7342457" lon="9.3758248"><ele>643.6666666666666</ele><time>2026-04-18T08:23:05.279Z</time></trkpt><trkpt lat="44.7343077" lon="9.3758905"><ele>642.3333333333334</ele><time>2026-04-18T08:23:08.277Z</time></trkpt><trkpt lat="44.7343747" lon="9.3759489"><ele>641.0</ele><time>2026-04-18T08:23:11.277Z</time></trkpt><trkpt lat="44.7344242" lon="9.3760058"><ele>639.6666666666667</ele><time>2026-04-18T08:23:13.277Z</time></trkpt><trkpt lat="44.7344393" lon="9.3761057"><ele>638.3333333333334</ele><time>2026-04-18T08:23:15.277Z</time></trkpt><trkpt lat="44.7344082" lon="9.3762113"><ele>637.0</ele><time>2026-04-18T08:23:17.278Z</time></trkpt><trkpt lat="44.7343355" lon="9.3763012"><ele>637.0</ele><time>2026-04-18T08:23:19.278Z</time></trkpt><trkpt lat="44.7342576" lon="9.37636"><ele>637.0</ele><time>2026-04-18T08:23:21.279Z</time></trkpt><trkpt lat="44.7341681" lon="9.3763785"><ele>637.0</ele><time>2026-04-18T08:23:23.278Z</time></trkpt><trkpt lat="44.7340779" lon="9.3763705"><ele>637.0</ele><time>2026-04-18T08:23:25.277Z</time></trkpt><trkpt lat="44.7340084" lon="9.3763507"><ele>637.0</ele><time>2026-04-18T08:23:27.278Z</time></trkpt><trkpt lat="44.7339488" lon="9.3763163"><ele>637.0</ele><time>2026-04-18T08:23:29.278Z</time></trkpt><trkpt lat="44.7338779" lon="9.3762603"><ele>637.0</ele><time>2026-04-18T08:23:31.277Z</time></trkpt><trkpt lat="44.7337981" lon="9.3761884"><ele>637.0</ele><time>2026-04-18T08:23:33.277Z</time></trkpt><trkpt lat="44.7337264" lon="9.3761418"><ele>637.0</ele><time>2026-04-18T08:23:35.277Z</time></trkpt><trkpt lat="44.733642" lon="9.3760544"><ele>637.0</ele><time>2026-04-18T08:23:37.278Z</time></trkpt><trkpt lat="44.7335876" lon="9.3760046"><ele>637.0</ele><time>2026-04-18T08:23:38.277Z</time></trkpt><trkpt lat="44.7334879" lon="9.3759062"><ele>635.4</ele><time>2026-04-18T08:23:40.278Z</time></trkpt><trkpt lat="44.7334012" lon="9.3757945"><ele>633.8000000000001</ele><time>2026-04-18T08:23:42.278Z</time></trkpt><trkpt lat="44.7333199" lon="9.3757139"><ele>632.2</ele><time>2026-04-18T08:23:44.278Z</time></trkpt><trkpt lat="44.7332428" lon="9.3756738"><ele>630.6</ele><time>2026-04-18T08:23:46.278Z</time></trkpt><trkpt lat="44.7331726" lon="9.3756401"><ele>629.0</ele><time>2026-04-18T08:23:48.278Z</time></trkpt><trkpt lat="44.7331134" lon="9.3755587"><ele>629.2</ele><time>2026-04-18T08:23:51.278Z</time></trkpt><trkpt lat="44.7330609" lon="9.3754502"><ele>629.4</ele><time>2026-04-18T08:23:54.278Z</time></trkpt><trkpt lat="44.7329829" lon="9.3754022"><ele>629.6</ele><time>2026-04-18T08:23:56.277Z</time></trkpt><trkpt lat="44.7328752" lon="9.3753616"><ele>629.8</ele><time>2026-04-18T08:23:58.279Z</time></trkpt><trkpt lat="44.7327762" lon="9.375311"><ele>630.0</ele><time>2026-04-18T08:24:00.279Z</time></trkpt><trkpt lat="44.7326775" lon="9.3752782"><ele>626.8333333333334</ele><time>2026-04-18T08:24:02.278Z</time></trkpt><trkpt lat="44.7325788" lon="9.3752508"><ele>623.6666666666666</ele><time>2026-04-18T08:24:04.278Z</time></trkpt><trkpt lat="44.7324727" lon="9.3752471"><ele>620.5</ele><time>2026-04-18T08:24:06.277Z</time></trkpt><trkpt lat="44.7323919" lon="9.3752785"><ele>617.3333333333333</ele><time>2026-04-18T08:24:08.279Z</time></trkpt><trkpt lat="44.7323363" lon="9.3753253"><ele>614.1666666666666</ele><time>2026-04-18T08:24:10.278Z</time></trkpt><trkpt lat="44.7322552" lon="9.3753783"><ele>611.0</ele><time>2026-04-18T08:24:13.279Z</time></trkpt><trkpt lat="44.7321907" lon="9.375394"><ele>611.0</ele><time>2026-04-18T08:24:15.277Z</time></trkpt><trkpt lat="44.732118" lon="9.375441"><ele>611.0</ele><time>2026-04-18T08:24:18.278Z</time></trkpt><trkpt lat="44.7320761" lon="9.3755081"><ele>611.0</ele><time>2026-04-18T08:24:20.277Z</time></trkpt><trkpt lat="44.732036" lon="9.3756091"><ele>611.0</ele><time>2026-04-18T08:24:23.278Z</time></trkpt><trkpt lat="44.7319617" lon="9.3756251"><ele>611.0</ele><time>2026-04-18T08:24:27.278Z</time></trkpt><trkpt lat="44.7319068" lon="9.3755598"><ele>611.0</ele><time>2026-04-18T08:24:30.279Z</time></trkpt><trkpt lat="44.7318456" lon="9.3754793"><ele>607.0</ele><time>2026-04-18T08:25:19.279Z</time></trkpt><trkpt lat="44.7318168" lon="9.3753621"><ele>603.0</ele><time>2026-04-18T08:25:23.279Z</time></trkpt><trkpt lat="44.7317507" lon="9.375251"><ele>599.0</ele><time>2026-04-18T08:25:26.278Z</time></trkpt><trkpt lat="44.7316902" lon="9.3751731"><ele>595.0</ele><time>2026-04-18T08:25:28.279Z</time></trkpt><trkpt lat="44.731643" lon="9.3750877"><ele>591.0</ele><time>2026-04-18T08:25:30.278Z</time></trkpt><trkpt lat="44.7316162" lon="9.374996"><ele>587.0</ele><time>2026-04-18T08:25:32.278Z</time></trkpt><trkpt lat="44.7316002" lon="9.374869"><ele>587.0</ele><time>2026-04-18T08:25:34.278Z</time></trkpt><trkpt lat="44.7316022" lon="9.3747036"><ele>587.0</ele><time>2026-04-18T08:25:36.277Z</time></trkpt><trkpt lat="44.7315812" lon="9.3745442"><ele>587.0</ele><time>2026-04-18T08:25:38.278Z</time></trkpt><trkpt lat="44.7315236" lon="9.3744316"><ele>587.0</ele><time>2026-04-18T08:25:40.278Z</time></trkpt><trkpt lat="44.7314516" lon="9.3743532"><ele>587.0</ele><time>2026-04-18T08:25:42.278Z</time></trkpt><trkpt lat="44.7313635" lon="9.374314"><ele>587.2</ele><time>2026-04-18T08:25:44.277Z</time></trkpt><trkpt lat="44.7312516" lon="9.3742802"><ele>587.4000000000001</ele><time>2026-04-18T08:25:46.278Z</time></trkpt><trkpt lat="44.7311616" lon="9.3742157"><ele>587.5999999999999</ele><time>2026-04-18T08:25:48.278Z</time></trkpt><trkpt lat="44.7310981" lon="9.3740815"><ele>587.8</ele><time>2026-04-18T08:25:50.277Z</time></trkpt><trkpt lat="44.7310654" lon="9.3739406"><ele>588.0</ele><time>2026-04-18T08:25:52.277Z</time></trkpt><trkpt lat="44.7309894" lon="9.3738703"><ele>586.0</ele><time>2026-04-18T08:25:54.279Z</time></trkpt><trkpt lat="44.7309043" lon="9.3738208"><ele>584.0</ele><time>2026-04-18T08:25:56.278Z</time></trkpt><trkpt lat="44.7307925" lon="9.3737335"><ele>582.0</ele><time>2026-04-18T08:25:58.278Z</time></trkpt><trkpt lat="44.7307097" lon="9.3736563"><ele>580.0</ele><time>2026-04-18T08:26:00.278Z</time></trkpt><trkpt lat="44.7306227" lon="9.3735672"><ele>578.0</ele><time>2026-04-18T08:26:02.277Z</time></trkpt><trkpt lat="44.7305178" lon="9.3734758"><ele>578.0</ele><time>2026-04-18T08:26:04.277Z</time></trkpt><trkpt lat="44.730411" lon="9.3733844"><ele>578.0</ele><time>2026-04-18T08:26:06.277Z</time></trkpt><trkpt lat="44.7303103" lon="9.3733031"><ele>578.0</ele><time>2026-04-18T08:26:08.279Z</time></trkpt><trkpt lat="44.7302263" lon="9.3732325"><ele>578.0</ele><time>2026-04-18T08:26:10.277Z</time></trkpt><trkpt lat="44.7301549" lon="9.3731497"><ele>578.0</ele><time>2026-04-18T08:26:12.278Z</time></trkpt><trkpt lat="44.7300894" lon="9.3730501"><ele>577.1666666666666</ele><time>2026-04-18T08:26:14.278Z</time></trkpt><trkpt lat="44.7300241" lon="9.3729609"><ele>576.3333333333333</ele><time>2026-04-18T08:26:16.277Z</time></trkpt><trkpt lat="44.7299616" lon="9.3728785"><ele>575.5</ele><time>2026-04-18T08:26:18.278Z</time></trkpt><trkpt lat="44.7299195" lon="9.3728019"><ele>574.6666666666666</ele><time>2026-04-18T08:26:20.278Z</time></trkpt><trkpt lat="44.7298831" lon="9.3727086"><ele>573.8333333333334</ele><time>2026-04-18T08:26:23.278Z</time></trkpt><trkpt lat="44.7298375" lon="9.3726371"><ele>573.0</ele><time>2026-04-18T08:26:57.278Z</time></trkpt><trkpt lat="44.7297881" lon="9.3725721"><ele>573.0</ele><time>2026-04-18T08:26:59.279Z</time></trkpt><trkpt lat="44.729745" lon="9.3724873"><ele>573.0</ele><time>2026-04-18T08:27:03.277Z</time></trkpt><trkpt lat="44.7297189" lon="9.3723864"><ele>573.0</ele><time>2026-04-18T08:27:09.278Z</time></trkpt><trkpt lat="44.729701" lon="9.3722577"><ele>573.0</ele><time>2026-04-18T08:31:32.277Z</time></trkpt><trkpt lat="44.7296669" lon="9.3721516"><ele>573.0</ele><time>2026-04-18T08:31:35.277Z</time></trkpt><trkpt lat="44.7296099" lon="9.3720999"><ele>573.0</ele><time>2026-04-18T08:31:37.276Z</time></trkpt><trkpt lat="44.729517" lon="9.3721185"><ele>573.7142857142858</ele><time>2026-04-18T08:31:40.277Z</time></trkpt><trkpt lat="44.7294519" lon="9.3721346"><ele>574.4285714285714</ele><time>2026-04-18T08:31:42.278Z</time></trkpt><trkpt lat="44.7293841" lon="9.3721581"><ele>575.1428571428571</ele><time>2026-04-18T08:31:44.276Z</time></trkpt><trkpt lat="44.7292986" lon="9.3721912"><ele>575.8571428571429</ele><time>2026-04-18T08:31:46.277Z</time></trkpt><trkpt lat="44.7292222" lon="9.3722246"><ele>576.5714285714286</ele><time>2026-04-18T08:31:48.278Z</time></trkpt><trkpt lat="44.7291616" lon="9.3722612"><ele>577.2857142857143</ele><time>2026-04-18T08:31:50.277Z</time></trkpt><trkpt lat="44.7290984" lon="9.3722912"><ele>578.0</ele><time>2026-04-18T08:31:52.277Z</time></trkpt><trkpt lat="44.7290297" lon="9.3723178"><ele>575.5</ele><time>2026-04-18T08:31:54.277Z</time></trkpt><trkpt lat="44.7289541" lon="9.3723506"><ele>573.0</ele><time>2026-04-18T08:31:56.277Z</time></trkpt><trkpt lat="44.7288702" lon="9.3723568"><ele>570.5</ele><time>2026-04-18T08:31:58.277Z</time></trkpt><trkpt lat="44.7287862" lon="9.3723597"><ele>568.0</ele><time>2026-04-18T08:32:00.276Z</time></trkpt><trkpt lat="44.7287198" lon="9.372305"><ele>565.5</ele><time>2026-04-18T08:32:02.277Z</time></trkpt><trkpt lat="44.7286666" lon="9.3722371"><ele>563.0</ele><time>2026-04-18T08:32:04.277Z</time></trkpt><trkpt lat="44.7286068" lon="9.3721909"><ele>562.1428571428571</ele><time>2026-04-18T08:32:06.277Z</time></trkpt><trkpt lat="44.7285455" lon="9.3721645"><ele>561.2857142857143</ele><time>2026-04-18T08:32:08.276Z</time></trkpt><trkpt lat="44.7284725" lon="9.3721415"><ele>560.4285714285714</ele><time>2026-04-18T08:32:10.278Z</time></trkpt><trkpt lat="44.7284071" lon="9.3721079"><ele>559.5714285714286</ele><time>2026-04-18T08:32:12.277Z</time></trkpt><trkpt lat="44.7283496" lon="9.3720647"><ele>558.7142857142857</ele><time>2026-04-18T08:32:14.277Z</time></trkpt><trkpt lat="44.7282745" lon="9.3719796"><ele>557.8571428571429</ele><time>2026-04-18T08:32:17.276Z</time></trkpt><trkpt lat="44.7282298" lon="9.3719097"><ele>557.0</ele><time>2026-04-18T08:32:19.278Z</time></trkpt><trkpt lat="44.7281998" lon="9.3718186"><ele>557.0</ele><time>2026-04-18T08:32:21.277Z</time></trkpt><trkpt lat="44.7281852" lon="9.3717152"><ele>557.0</ele><time>2026-04-18T08:32:23.276Z</time></trkpt><trkpt lat="44.7281977" lon="9.3715771"><ele>557.0</ele><time>2026-04-18T08:32:25.277Z</time></trkpt><trkpt lat="44.7282112" lon="9.3714842"><ele>557.0</ele><time>2026-04-18T08:32:26.277Z</time></trkpt><trkpt lat="44.7282193" lon="9.3713876"><ele>557.0</ele><time>2026-04-18T08:32:27.276Z</time></trkpt><trkpt lat="44.7282159" lon="9.3712971"><ele>557.0</ele><time>2026-04-18T08:32:28.277Z</time></trkpt><trkpt lat="44.7281952" lon="9.3711386"><ele>558.2</ele><time>2026-04-18T08:32:30.277Z</time></trkpt><trkpt lat="44.7281396" lon="9.3710499"><ele>559.4000000000001</ele><time>2026-04-18T08:32:32.277Z</time></trkpt><trkpt lat="44.7280301" lon="9.3709997"><ele>560.5999999999999</ele><time>2026-04-18T08:32:34.277Z</time></trkpt><trkpt lat="44.7279488" lon="9.3709892"><ele>561.8</ele><time>2026-04-18T08:32:35.277Z</time></trkpt><trkpt lat="44.7278749" lon="9.3709747"><ele>563.0</ele><time>2026-04-18T08:32:36.277Z</time></trkpt><trkpt lat="44.7277699" lon="9.3709763"><ele>560.8333333333333</ele><time>2026-04-18T08:32:38.276Z</time></trkpt><trkpt lat="44.7276857" lon="9.370959"><ele>558.6666666666666</ele><time>2026-04-18T08:32:40.277Z</time></trkpt><trkpt lat="44.7275924" lon="9.3709401"><ele>556.5</ele><time>2026-04-18T08:32:42.276Z</time></trkpt><trkpt lat="44.7275097" lon="9.3709261"><ele>554.3333333333334</ele><time>2026-04-18T08:32:44.277Z</time></trkpt><trkpt lat="44.7274274" lon="9.3709138"><ele>552.1666666666667</ele><time>2026-04-18T08:32:46.277Z</time></trkpt><trkpt lat="44.7273542" lon="9.370937"><ele>550.0</ele><time>2026-04-18T08:32:48.277Z</time></trkpt><trkpt lat="44.7272706" lon="9.3709773"><ele>550.0</ele><time>2026-04-18T08:32:50.276Z</time></trkpt><trkpt lat="44.7271797" lon="9.3710081"><ele>550.0</ele><time>2026-04-18T08:32:52.277Z</time></trkpt><trkpt lat="44.7270847" lon="9.3710557"><ele>550.0</ele><time>2026-04-18T08:32:54.277Z</time></trkpt><trkpt lat="44.7269967" lon="9.371139"><ele>550.0</ele><time>2026-04-18T08:32:56.276Z</time></trkpt><trkpt lat="44.7269156" lon="9.3712362"><ele>550.0</ele><time>2026-04-18T08:32:58.276Z</time></trkpt><trkpt lat="44.7268313" lon="9.3712966"><ele>549.6666666666667</ele><time>2026-04-18T08:33:00.277Z</time></trkpt><trkpt lat="44.7267409" lon="9.3713401"><ele>549.3333333333334</ele><time>2026-04-18T08:33:02.276Z</time></trkpt><trkpt lat="44.7266501" lon="9.3713809"><ele>549.0</ele><time>2026-04-18T08:33:04.276Z</time></trkpt><trkpt lat="44.7265615" lon="9.3714064"><ele>548.6666666666666</ele><time>2026-04-18T08:33:06.277Z</time></trkpt><trkpt lat="44.7264845" lon="9.3713965"><ele>548.3333333333333</ele><time>2026-04-18T08:33:08.277Z</time></trkpt><trkpt lat="44.7263986" lon="9.3713679"><ele>548.0</ele><time>2026-04-18T08:33:10.276Z</time></trkpt><trkpt lat="44.7263294" lon="9.3713688"><ele>549.1666666666666</ele><time>2026-04-18T08:33:12.277Z</time></trkpt><trkpt lat="44.7262629" lon="9.3714081"><ele>550.3333333333333</ele><time>2026-04-18T08:33:14.277Z</time></trkpt><trkpt lat="44.7261957" lon="9.371498"><ele>551.5</ele><time>2026-04-18T08:33:16.277Z</time></trkpt><trkpt lat="44.7261296" lon="9.3715843"><ele>552.6666666666666</ele><time>2026-04-18T08:33:18.275Z</time></trkpt><trkpt lat="44.7260733" lon="9.3716747"><ele>553.8333333333334</ele><time>2026-04-18T08:33:20.276Z</time></trkpt><trkpt lat="44.7260358" lon="9.3718048"><ele>555.0</ele><time>2026-04-18T08:33:23.276Z</time></trkpt><trkpt lat="44.7260143" lon="9.3719038"><ele>555.0</ele><time>2026-04-18T08:33:25.276Z</time></trkpt><trkpt lat="44.7260209" lon="9.3720663"><ele>555.0</ele><time>2026-04-18T08:33:27.276Z</time></trkpt><trkpt lat="44.7260254" lon="9.3721931"><ele>555.0</ele><time>2026-04-18T08:33:29.277Z</time></trkpt><trkpt lat="44.7260135" lon="9.3723051"><ele>555.0</ele><time>2026-04-18T08:33:31.276Z</time></trkpt><trkpt lat="44.7259746" lon="9.3724092"><ele>555.0</ele><time>2026-04-18T08:33:33.275Z</time></trkpt><trkpt lat="44.7259184" lon="9.372527"><ele>553.5</ele><time>2026-04-18T08:33:35.275Z</time></trkpt><trkpt lat="44.7258513" lon="9.3726487"><ele>552.0</ele><time>2026-04-18T08:33:37.276Z</time></trkpt><trkpt lat="44.725798" lon="9.3727675"><ele>550.5</ele><time>2026-04-18T08:33:39.276Z</time></trkpt><trkpt lat="44.725755" lon="9.3728822"><ele>549.0</ele><time>2026-04-18T08:33:41.276Z</time></trkpt><trkpt lat="44.7257239" lon="9.3729825"><ele>547.5</ele><time>2026-04-18T08:33:43.275Z</time></trkpt><trkpt lat="44.7256874" lon="9.3730611"><ele>546.0</ele><time>2026-04-18T08:33:46.276Z</time></trkpt><trkpt lat="44.7256421" lon="9.3731354"><ele>544.3333333333334</ele><time>2026-04-18T08:34:05.276Z</time></trkpt><trkpt lat="44.7256012" lon="9.3732042"><ele>542.6666666666666</ele><time>2026-04-18T08:36:08.275Z</time></trkpt><trkpt lat="44.7255488" lon="9.373282"><ele>541.0</ele><time>2026-04-18T08:36:14.275Z</time></trkpt><trkpt lat="44.7254775" lon="9.3733766"><ele>539.3333333333333</ele><time>2026-04-18T08:36:16.275Z</time></trkpt><trkpt lat="44.7254061" lon="9.3734945"><ele>537.6666666666666</ele><time>2026-04-18T08:36:18.277Z</time></trkpt><trkpt lat="44.7253752" lon="9.3735727"><ele>536.0</ele><time>2026-04-18T08:36:19.276Z</time></trkpt><trkpt lat="44.7253392" lon="9.3736761"><ele>536.0</ele><time>2026-04-18T08:36:20.276Z</time></trkpt><trkpt lat="44.7253011" lon="9.3737955"><ele>536.0</ele><time>2026-04-18T08:36:21.276Z</time></trkpt><trkpt lat="44.7252758" lon="9.3739295"><ele>536.0</ele><time>2026-04-18T08:36:23.275Z</time></trkpt><trkpt lat="44.7252755" lon="9.3741213"><ele>536.0</ele><time>2026-04-18T08:36:25.276Z</time></trkpt><trkpt lat="44.7252982" lon="9.3742359"><ele>536.0</ele><time>2026-04-18T08:36:26.277Z</time></trkpt><trkpt lat="44.7253264" lon="9.3743492"><ele>535.5</ele><time>2026-04-18T08:36:27.276Z</time></trkpt><trkpt lat="44.7253529" lon="9.3744604"><ele>535.0</ele><time>2026-04-18T08:36:28.276Z</time></trkpt><trkpt lat="44.7253772" lon="9.3745778"><ele>534.5</ele><time>2026-04-18T08:36:29.276Z</time></trkpt><trkpt lat="44.7254019" lon="9.3747032"><ele>534.0</ele><time>2026-04-18T08:36:30.276Z</time></trkpt><trkpt lat="44.7254237" lon="9.3748237"><ele>533.5</ele><time>2026-04-18T08:36:31.277Z</time></trkpt><trkpt lat="44.7254478" lon="9.3749155"><ele>533.0</ele><time>2026-04-18T08:36:32.277Z</time></trkpt><trkpt lat="44.7254622" lon="9.3750068"><ele>532.6666666666666</ele><time>2026-04-18T08:36:33.275Z</time></trkpt><trkpt lat="44.725467" lon="9.3751025"><ele>532.3333333333333</ele><time>2026-04-18T08:36:34.276Z</time></trkpt><trkpt lat="44.7254733" lon="9.3752257"><ele>532.0</ele><time>2026-04-18T08:36:35.275Z</time></trkpt><trkpt lat="44.7254749" lon="9.3753389"><ele>531.6666666666666</ele><time>2026-04-18T08:36:36.276Z</time></trkpt><trkpt lat="44.7254634" lon="9.3754393"><ele>531.3333333333334</ele><time>2026-04-18T08:36:38.276Z</time></trkpt><trkpt lat="44.7253922" lon="9.3755787"><ele>531.0</ele><time>2026-04-18T08:36:53.276Z</time></trkpt><trkpt lat="44.7253497" lon="9.3756452"><ele>529.0</ele><time>2026-04-18T08:36:54.276Z</time></trkpt><trkpt lat="44.7253021" lon="9.3757186"><ele>527.0</ele><time>2026-04-18T08:36:55.277Z</time></trkpt><trkpt lat="44.7252268" lon="9.375859"><ele>525.0</ele><time>2026-04-18T08:36:57.276Z</time></trkpt><trkpt lat="44.7251612" lon="9.3759129"><ele>523.0</ele><time>2026-04-18T08:37:00.275Z</time></trkpt><trkpt lat="44.7250981" lon="9.375977"><ele>521.0</ele><time>2026-04-18T08:37:03.276Z</time></trkpt><trkpt lat="44.7250272" lon="9.376051"><ele>519.0</ele><time>2026-04-18T08:37:06.275Z</time></trkpt><trkpt lat="44.724982" lon="9.3761288"><ele>521.0</ele><time>2026-04-18T08:37:09.276Z</time></trkpt><trkpt lat="44.7249341" lon="9.3762008"><ele>523.0</ele><time>2026-04-18T08:37:12.276Z</time></trkpt><trkpt lat="44.7248921" lon="9.3762673"><ele>525.0</ele><time>2026-04-18T08:37:25.276Z</time></trkpt><trkpt lat="44.7248339" lon="9.3763497"><ele>527.0</ele><time>2026-04-18T08:40:39.275Z</time></trkpt><trkpt lat="44.7247578" lon="9.3764429"><ele>529.0</ele><time>2026-04-18T08:40:42.275Z</time></trkpt><trkpt lat="44.724697" lon="9.3765039"><ele>531.0</ele><time>2026-04-18T08:40:44.274Z</time></trkpt><trkpt lat="44.7246376" lon="9.3765528"><ele>531.0</ele><time>2026-04-18T08:40:46.275Z</time></trkpt><trkpt lat="44.7245828" lon="9.376611"><ele>531.0</ele><time>2026-04-18T08:40:48.275Z</time></trkpt><trkpt lat="44.7245165" lon="9.3767064"><ele>531.0</ele><time>2026-04-18T08:40:51.275Z</time></trkpt><trkpt lat="44.724479" lon="9.3767911"><ele>531.0</ele><time>2026-04-18T08:40:53.275Z</time></trkpt><trkpt lat="44.7244553" lon="9.3768895"><ele>531.0</ele><time>2026-04-18T08:40:55.275Z</time></trkpt><trkpt lat="44.7244478" lon="9.37699"><ele>531.0</ele><time>2026-04-18T08:40:57.275Z</time></trkpt><trkpt lat="44.7244401" lon="9.3770922"><ele>529.3333333333334</ele><time>2026-04-18T08:40:59.275Z</time></trkpt><trkpt lat="44.7244309" lon="9.3771874"><ele>527.6666666666666</ele><time>2026-04-18T08:41:01.275Z</time></trkpt><trkpt lat="44.7244159" lon="9.3772856"><ele>526.0</ele><time>2026-04-18T08:41:03.275Z</time></trkpt><trkpt lat="44.7243828" lon="9.3773631"><ele>524.3333333333333</ele><time>2026-04-18T08:41:04.275Z</time></trkpt><trkpt lat="44.7243372" lon="9.3774923"><ele>522.6666666666666</ele><time>2026-04-18T08:41:06.275Z</time></trkpt><trkpt lat="44.7243027" lon="9.3776049"><ele>521.0</ele><time>2026-04-18T08:41:08.276Z</time></trkpt><trkpt lat="44.7242734" lon="9.3777116"><ele>521.0</ele><time>2026-04-18T08:41:10.275Z</time></trkpt><trkpt lat="44.7242632" lon="9.3778062"><ele>521.0</ele><time>2026-04-18T08:41:12.275Z</time></trkpt><trkpt lat="44.7242426" lon="9.3778986"><ele>521.0</ele><time>2026-04-18T08:41:14.275Z</time></trkpt><trkpt lat="44.7242073" lon="9.3779755"><ele>521.0</ele><time>2026-04-18T08:41:16.275Z</time></trkpt><trkpt lat="44.7241271" lon="9.3780403"><ele>521.0</ele><time>2026-04-18T08:41:19.275Z</time></trkpt><trkpt lat="44.724042" lon="9.378064"><ele>521.0</ele><time>2026-04-18T08:41:21.275Z</time></trkpt><trkpt lat="44.7239327" lon="9.3780524"><ele>521.0</ele><time>2026-04-18T08:41:23.274Z</time></trkpt><trkpt lat="44.7238286" lon="9.3780306"><ele>521.0</ele><time>2026-04-18T08:41:25.274Z</time></trkpt><trkpt lat="44.7237249" lon="9.3780043"><ele>521.0</ele><time>2026-04-18T08:41:27.274Z</time></trkpt><trkpt lat="44.7236625" lon="9.3780213"><ele>521.0</ele><time>2026-04-18T08:41:29.275Z</time></trkpt><trkpt lat="44.723598" lon="9.378146"><ele>521.0</ele><time>2026-04-18T08:41:31.275Z</time></trkpt><trkpt lat="44.7235633" lon="9.3782255"><ele>521.0</ele><time>2026-04-18T08:41:33.274Z</time></trkpt><trkpt lat="44.7234542" lon="9.3782911"><ele>521.0</ele><time>2026-04-18T08:41:35.276Z</time></trkpt><trkpt lat="44.7233483" lon="9.3783336"><ele>521.0</ele><time>2026-04-18T08:41:37.275Z</time></trkpt><trkpt lat="44.7232643" lon="9.3784359"><ele>521.0</ele><time>2026-04-18T08:41:39.274Z</time></trkpt><trkpt lat="44.7231994" lon="9.3785335"><ele>521.0</ele><time>2026-04-18T08:41:41.274Z</time></trkpt><trkpt lat="44.7231462" lon="9.3786466"><ele>521.0</ele><time>2026-04-18T08:41:43.275Z</time></trkpt><trkpt lat="44.7231142" lon="9.3788064"><ele>521.0</ele><time>2026-04-18T08:41:45.275Z</time></trkpt><trkpt lat="44.7230859" lon="9.3789684"><ele>521.0</ele><time>2026-04-18T08:41:47.275Z</time></trkpt><trkpt lat="44.723054" lon="9.3791114"><ele>521.0</ele><time>2026-04-18T08:41:49.274Z</time></trkpt><trkpt lat="44.7230108" lon="9.3792395"><ele>521.0</ele><time>2026-04-18T08:41:51.275Z</time></trkpt><trkpt lat="44.7229429" lon="9.3793398"><ele>519.3333333333333</ele><time>2026-04-18T08:41:53.276Z</time></trkpt><trkpt lat="44.7228423" lon="9.3794116"><ele>517.6666666666666</ele><time>2026-04-18T08:41:55.274Z</time></trkpt><trkpt lat="44.7227844" lon="9.3794564"><ele>516.0</ele><time>2026-04-18T08:41:56.275Z</time></trkpt><trkpt lat="44.7227246" lon="9.3795031"><ele>514.3333333333334</ele><time>2026-04-18T08:41:57.274Z</time></trkpt><trkpt lat="44.7226665" lon="9.3795431"><ele>512.6666666666667</ele><time>2026-04-18T08:41:58.275Z</time></trkpt><trkpt lat="44.7226114" lon="9.3795909"><ele>511.0</ele><time>2026-04-18T08:41:59.275Z</time></trkpt><trkpt lat="44.7225188" lon="9.3796704"><ele>508.33333333333337</ele><time>2026-04-18T08:42:01.274Z</time></trkpt><trkpt lat="44.7224416" lon="9.3797423"><ele>505.6666666666667</ele><time>2026-04-18T08:42:03.275Z</time></trkpt><trkpt lat="44.7223879" lon="9.3798245"><ele>503.0</ele><time>2026-04-18T08:42:05.275Z</time></trkpt><trkpt lat="44.7223346" lon="9.379914"><ele>500.33333333333337</ele><time>2026-04-18T08:42:07.274Z</time></trkpt><trkpt lat="44.7222779" lon="9.380002"><ele>497.6666666666667</ele><time>2026-04-18T08:42:09.275Z</time></trkpt><trkpt lat="44.7222304" lon="9.3800989"><ele>495.0</ele><time>2026-04-18T08:42:11.274Z</time></trkpt><trkpt lat="44.7221835" lon="9.3802155"><ele>495.0</ele><time>2026-04-18T08:42:13.274Z</time></trkpt><trkpt lat="44.7221342" lon="9.380329"><ele>495.0</ele><time>2026-04-18T08:42:15.275Z</time></trkpt><trkpt lat="44.7220854" lon="9.3804578"><ele>495.0</ele><time>2026-04-18T08:42:17.275Z</time></trkpt><trkpt lat="44.7220507" lon="9.3805785"><ele>495.0</ele><time>2026-04-18T08:42:19.275Z</time></trkpt><trkpt lat="44.7219997" lon="9.3806971"><ele>495.0</ele><time>2026-04-18T08:42:21.275Z</time></trkpt><trkpt lat="44.7219441" lon="9.380827"><ele>493.2</ele><time>2026-04-18T08:42:23.275Z</time></trkpt><trkpt lat="44.7219075" lon="9.3809321"><ele>491.4</ele><time>2026-04-18T08:42:25.275Z</time></trkpt><trkpt lat="44.721867" lon="9.3810449"><ele>489.6</ele><time>2026-04-18T08:42:27.275Z</time></trkpt><trkpt lat="44.721822" lon="9.3811935"><ele>487.8</ele><time>2026-04-18T08:42:29.275Z</time></trkpt><trkpt lat="44.7217556" lon="9.3813308"><ele>486.0</ele><time>2026-04-18T08:42:31.274Z</time></trkpt><trkpt lat="44.7217144" lon="9.3814"><ele>475.0</ele><time>2026-04-18T08:42:32.274Z</time></trkpt><trkpt lat="44.7216781" lon="9.3814798"><ele>475.0</ele><time>2026-04-18T08:42:33.274Z</time></trkpt><trkpt lat="44.7216487" lon="9.3815606"><ele>475.0</ele><time>2026-04-18T08:42:34.275Z</time></trkpt><trkpt lat="44.7215824" lon="9.3816944"><ele>475.0</ele><time>2026-04-18T08:42:36.275Z</time></trkpt><trkpt lat="44.7215381" lon="9.3818165"><ele>475.0</ele><time>2026-04-18T08:42:38.275Z</time></trkpt><trkpt lat="44.7215015" lon="9.3819197"><ele>475.0</ele><time>2026-04-18T08:42:40.274Z</time></trkpt></trkseg><trkseg><trkpt lat="44.7215811" lon="9.3847681"><ele>438.0</ele><time>2026-04-18T08:59:08.272Z</time></trkpt><trkpt lat="44.7215632" lon="9.3848574"><ele>438.0</ele><time>2026-04-18T08:59:11.272Z</time></trkpt><trkpt lat="44.7215446" lon="9.3849518"><ele>438.0</ele><time>2026-04-18T08:59:13.272Z</time></trkpt><trkpt lat="44.7215347" lon="9.3850676"><ele>438.0</ele><time>2026-04-18T08:59:15.271Z</time></trkpt><trkpt lat="44.7215228" lon="9.3851985"><ele>438.0</ele><time>2026-04-18T08:59:17.272Z</time></trkpt><trkpt lat="44.7215143" lon="9.3853241"><ele>438.0</ele><time>2026-04-18T08:59:19.272Z</time></trkpt><trkpt lat="44.7214966" lon="9.3854442"><ele>438.5</ele><time>2026-04-18T08:59:21.272Z</time></trkpt><trkpt lat="44.7214753" lon="9.3855781"><ele>439.0</ele><time>2026-04-18T08:59:23.273Z</time></trkpt><trkpt lat="44.7214591" lon="9.385723"><ele>439.5</ele><time>2026-04-18T08:59:25.271Z</time></trkpt><trkpt lat="44.7214543" lon="9.3858193"><ele>440.0</ele><time>2026-04-18T08:59:27.272Z</time></trkpt><trkpt lat="44.7214585" lon="9.3859301"><ele>440.5</ele><time>2026-04-18T08:59:30.272Z</time></trkpt><trkpt lat="44.7214331" lon="9.3860531"><ele>441.0</ele><time>2026-04-18T08:59:48.272Z</time></trkpt><trkpt lat="44.7213842" lon="9.3861283"><ele>441.0</ele><time>2026-04-18T08:59:51.271Z</time></trkpt><trkpt lat="44.7213446" lon="9.3862232"><ele>441.0</ele><time>2026-04-18T09:00:00.272Z</time></trkpt><trkpt lat="44.7213832" lon="9.3861518"><ele>441.0</ele><time>2026-04-18T09:00:14.272Z</time></trkpt><trkpt lat="44.7214357" lon="9.386066"><ele>441.0</ele><time>2026-04-18T09:00:28.27Z</time></trkpt><trkpt lat="44.7214539" lon="9.3859599"><ele>441.0</ele><time>2026-04-18T09:00:30.27Z</time></trkpt><trkpt lat="44.7214556" lon="9.3858367"><ele>441.0</ele><time>2026-04-18T09:00:32.272Z</time></trkpt><trkpt lat="44.72146" lon="9.3857355"><ele>441.0</ele><time>2026-04-18T09:00:34.271Z</time></trkpt><trkpt lat="44.7214716" lon="9.3856422"><ele>441.0</ele><time>2026-04-18T09:00:36.271Z</time></trkpt><trkpt lat="44.7214854" lon="9.3855411"><ele>441.0</ele><time>2026-04-18T09:00:38.27Z</time></trkpt><trkpt lat="44.7215064" lon="9.3854233"><ele>441.0</ele><time>2026-04-18T09:00:40.27Z</time></trkpt><trkpt lat="44.7215197" lon="9.3853276"><ele>441.0</ele><time>2026-04-18T09:00:42.272Z</time></trkpt><trkpt lat="44.7215252" lon="9.3852082"><ele>441.0</ele><time>2026-04-18T09:00:45.271Z</time></trkpt><trkpt lat="44.7215357" lon="9.3851111"><ele>440.8333333333333</ele><time>2026-04-18T09:00:48.27Z</time></trkpt><trkpt lat="44.7215396" lon="9.3850024"><ele>440.66666666666663</ele><time>2026-04-18T09:01:12.271Z</time></trkpt><trkpt lat="44.7214779" lon="9.3849267"><ele>440.5</ele><time>2026-04-18T09:01:14.271Z</time></trkpt><trkpt lat="44.7214007" lon="9.3848373"><ele>440.3333333333333</ele><time>2026-04-18T09:01:16.271Z</time></trkpt><trkpt lat="44.7213304" lon="9.3847166"><ele>440.16666666666663</ele><time>2026-04-18T09:01:18.271Z</time></trkpt><trkpt lat="44.7212887" lon="9.3846448"><ele>440.0</ele><time>2026-04-18T09:01:19.271Z</time></trkpt><trkpt lat="44.7212458" lon="9.3845683"><ele>440.0</ele><time>2026-04-18T09:01:20.27Z</time></trkpt><trkpt lat="44.7211703" lon="9.3844563"><ele>440.0</ele><time>2026-04-18T09:01:22.272Z</time></trkpt><trkpt lat="44.721101" lon="9.38434"><ele>440.0</ele><time>2026-04-18T09:01:24.271Z</time></trkpt><trkpt lat="44.7210383" lon="9.3842339"><ele>440.0</ele><time>2026-04-18T09:01:26.271Z</time></trkpt><trkpt lat="44.7209825" lon="9.3841205"><ele>440.0</ele><time>2026-04-18T09:01:28.27Z</time></trkpt><trkpt lat="44.7209305" lon="9.3839532"><ele>442.16666666666663</ele><time>2026-04-18T09:01:30.271Z</time></trkpt><trkpt lat="44.7209118" lon="9.3838641"><ele>444.3333333333333</ele><time>2026-04-18T09:01:31.271Z</time></trkpt><trkpt lat="44.7208906" lon="9.3837756"><ele>446.5</ele><time>2026-04-18T09:01:32.271Z</time></trkpt><trkpt lat="44.7208626" lon="9.383686"><ele>448.66666666666663</ele><time>2026-04-18T09:01:33.27Z</time></trkpt><trkpt lat="44.7207963" lon="9.3835418"><ele>450.8333333333333</ele><time>2026-04-18T09:01:35.271Z</time></trkpt><trkpt lat="44.7207529" lon="9.3834775"><ele>453.0</ele><time>2026-04-18T09:01:36.271Z</time></trkpt><trkpt lat="44.7206626" lon="9.3833646"><ele>454.79999999999995</ele><time>2026-04-18T09:01:38.271Z</time></trkpt><trkpt lat="44.7205757" lon="9.3832675"><ele>456.59999999999997</ele><time>2026-04-18T09:01:40.27Z</time></trkpt><trkpt lat="44.7205009" lon="9.3831767"><ele>458.40000000000003</ele><time>2026-04-18T09:01:42.271Z</time></trkpt><trkpt lat="44.7204504" lon="9.3830609"><ele>460.20000000000005</ele><time>2026-04-18T09:01:44.27Z</time></trkpt><trkpt lat="44.7204481" lon="9.3829216"><ele>462.0</ele><time>2026-04-18T09:01:46.27Z</time></trkpt><trkpt lat="44.7204558" lon="9.3827536"><ele>463.0</ele><time>2026-04-18T09:01:48.271Z</time></trkpt><trkpt lat="44.7204416" lon="9.3826653"><ele>464.00000000000006</ele><time>2026-04-18T09:01:49.271Z</time></trkpt><trkpt lat="44.7203969" lon="9.3825261"><ele>465.00000000000006</ele><time>2026-04-18T09:01:51.27Z</time></trkpt><trkpt lat="44.7203324" lon="9.3823799"><ele>466.0</ele><time>2026-04-18T09:01:53.272Z</time></trkpt><trkpt lat="44.7202654" lon="9.3822465"><ele>467.0</ele><time>2026-04-18T09:01:55.27Z</time></trkpt><trkpt lat="44.7202001" lon="9.3821339"><ele>465.49999999999994</ele><time>2026-04-18T09:01:57.27Z</time></trkpt><trkpt lat="44.7201617" lon="9.3819994"><ele>464.0</ele><time>2026-04-18T09:01:59.271Z</time></trkpt><trkpt lat="44.7201891" lon="9.3818404"><ele>462.5</ele><time>2026-04-18T09:02:01.27Z</time></trkpt><trkpt lat="44.7202325" lon="9.381769"><ele>461.0</ele><time>2026-04-18T09:02:02.271Z</time></trkpt><trkpt lat="44.7202782" lon="9.3817043"><ele>459.49999999999994</ele><time>2026-04-18T09:02:03.271Z</time></trkpt><trkpt lat="44.7203285" lon="9.3816378"><ele>458.0</ele><time>2026-04-18T09:02:04.272Z</time></trkpt><trkpt lat="44.7203744" lon="9.3815578"><ele>457.99999999999994</ele><time>2026-04-18T09:02:05.271Z</time></trkpt><trkpt lat="44.7204009" lon="9.3814668"><ele>458.0</ele><time>2026-04-18T09:02:06.27Z</time></trkpt><trkpt lat="44.7204249" lon="9.3813737"><ele>458.0</ele><time>2026-04-18T09:02:07.27Z</time></trkpt><trkpt lat="44.7204589" lon="9.3812956"><ele>458.0</ele><time>2026-04-18T09:02:08.272Z</time></trkpt><trkpt lat="44.7205182" lon="9.3811349"><ele>457.99999999999994</ele><time>2026-04-18T09:02:10.272Z</time></trkpt><trkpt lat="44.7205322" lon="9.3810478"><ele>458.0</ele><time>2026-04-18T09:02:11.271Z</time></trkpt><trkpt lat="44.7205363" lon="9.3808774"><ele>456.99999999999994</ele><time>2026-04-18T09:02:13.271Z</time></trkpt><trkpt lat="44.7205902" lon="9.3807269"><ele>456.0</ele><time>2026-04-18T09:02:15.271Z</time></trkpt><trkpt lat="44.7206569" lon="9.3806689"><ele>455.0</ele><time>2026-04-18T09:02:16.271Z</time></trkpt><trkpt lat="44.7207235" lon="9.3806266"><ele>454.0</ele><time>2026-04-18T09:02:17.271Z</time></trkpt><trkpt lat="44.7207826" lon="9.3805636"><ele>452.99999999999994</ele><time>2026-04-18T09:02:18.271Z</time></trkpt><trkpt lat="44.7208194" lon="9.3804754"><ele>452.0</ele><time>2026-04-18T09:02:19.271Z</time></trkpt><trkpt lat="44.7208411" lon="9.3803824"><ele>450.49999999999994</ele><time>2026-04-18T09:02:20.271Z</time></trkpt><trkpt lat="44.7208533" lon="9.3802853"><ele>449.0</ele><time>2026-04-18T09:02:21.271Z</time></trkpt><trkpt lat="44.7208641" lon="9.380196"><ele>447.5</ele><time>2026-04-18T09:02:22.271Z</time></trkpt><trkpt lat="44.7208751" lon="9.3801077"><ele>446.0</ele><time>2026-04-18T09:02:23.271Z</time></trkpt><trkpt lat="44.7208985" lon="9.379955"><ele>444.49999999999994</ele><time>2026-04-18T09:02:25.271Z</time></trkpt><trkpt lat="44.7209048" lon="9.3798492"><ele>443.0</ele><time>2026-04-18T09:02:27.27Z</time></trkpt><trkpt lat="44.7208856" lon="9.3797468"><ele>443.2</ele><time>2026-04-18T09:02:29.272Z</time></trkpt><trkpt lat="44.7208314" lon="9.3796672"><ele>443.4</ele><time>2026-04-18T09:02:32.27Z</time></trkpt><trkpt lat="44.7207507" lon="9.3796125"><ele>443.59999999999997</ele><time>2026-04-18T09:02:36.271Z</time></trkpt><trkpt lat="44.7206513" lon="9.3796197"><ele>443.79999999999995</ele><time>2026-04-18T09:02:38.271Z</time></trkpt><trkpt lat="44.720586" lon="9.3796352"><ele>444.0</ele><time>2026-04-18T09:02:39.27Z</time></trkpt><trkpt lat="44.7204737" lon="9.3795859"><ele>444.0</ele><time>2026-04-18T09:02:41.27Z</time></trkpt><trkpt lat="44.7204443" lon="9.3793962"><ele>444.0</ele><time>2026-04-18T09:02:43.27Z</time></trkpt><trkpt lat="44.7204483" lon="9.3792762"><ele>444.0</ele><time>2026-04-18T09:02:44.27Z</time></trkpt><trkpt lat="44.7204541" lon="9.379148"><ele>444.0</ele><time>2026-04-18T09:02:45.272Z</time></trkpt><trkpt lat="44.7204744" lon="9.3790211"><ele>444.0</ele><time>2026-04-18T09:02:46.271Z</time></trkpt><trkpt lat="44.7205177" lon="9.3789148"><ele>443.5</ele><time>2026-04-18T09:02:47.271Z</time></trkpt><trkpt lat="44.7205564" lon="9.3788181"><ele>443.0</ele><time>2026-04-18T09:02:48.271Z</time></trkpt><trkpt lat="44.7205738" lon="9.3787194"><ele>442.5</ele><time>2026-04-18T09:02:49.271Z</time></trkpt><trkpt lat="44.7205641" lon="9.3786258"><ele>442.0</ele><time>2026-04-18T09:02:50.271Z</time></trkpt><trkpt lat="44.7205108" lon="9.3785544"><ele>441.5</ele><time>2026-04-18T09:02:51.271Z</time></trkpt><trkpt lat="44.7203688" lon="9.3785307"><ele>441.0</ele><time>2026-04-18T09:02:53.271Z</time></trkpt><trkpt lat="44.7202951" lon="9.378528"><ele>437.57142857142856</ele><time>2026-04-18T09:02:54.271Z</time></trkpt><trkpt lat="44.7202161" lon="9.3785213"><ele>434.1428571428571</ele><time>2026-04-18T09:02:55.272Z</time></trkpt><trkpt lat="44.7201416" lon="9.3785124"><ele>430.7142857142857</ele><time>2026-04-18T09:02:56.271Z</time></trkpt><trkpt lat="44.7200804" lon="9.3784855"><ele>427.2857142857143</ele><time>2026-04-18T09:02:57.272Z</time></trkpt><trkpt lat="44.7200321" lon="9.3784253"><ele>423.85714285714283</ele><time>2026-04-18T09:02:58.271Z</time></trkpt><trkpt lat="44.7200178" lon="9.3783358"><ele>420.42857142857144</ele><time>2026-04-18T09:02:59.271Z</time></trkpt><trkpt lat="44.720021" lon="9.3782382"><ele>417.0</ele><time>2026-04-18T09:03:00.271Z</time></trkpt><trkpt lat="44.7200257" lon="9.3781328"><ele>417.0</ele><time>2026-04-18T09:03:01.271Z</time></trkpt><trkpt lat="44.7200343" lon="9.3780237"><ele>417.0</ele><time>2026-04-18T09:03:02.271Z</time></trkpt><trkpt lat="44.7200379" lon="9.3779326"><ele>417.0</ele><time>2026-04-18T09:03:03.271Z</time></trkpt><trkpt lat="44.7200491" lon="9.3778354"><ele>417.0</ele><time>2026-04-18T09:03:04.271Z</time></trkpt><trkpt lat="44.7200738" lon="9.3777396"><ele>417.0</ele><time>2026-04-18T09:03:05.272Z</time></trkpt><trkpt lat="44.7201066" lon="9.3776485"><ele>417.0</ele><time>2026-04-18T09:03:06.271Z</time></trkpt><trkpt lat="44.7201454" lon="9.377558"><ele>417.0</ele><time>2026-04-18T09:03:07.271Z</time></trkpt><trkpt lat="44.7201687" lon="9.3774542"><ele>416.1666666666667</ele><time>2026-04-18T09:03:08.27Z</time></trkpt><trkpt lat="44.7201797" lon="9.377342"><ele>415.33333333333337</ele><time>2026-04-18T09:03:09.271Z</time></trkpt><trkpt lat="44.7201696" lon="9.377229"><ele>414.5</ele><time>2026-04-18T09:03:10.271Z</time></trkpt><trkpt lat="44.7201346" lon="9.3771295"><ele>413.6666666666667</ele><time>2026-04-18T09:03:11.27Z</time></trkpt><trkpt lat="44.720081" lon="9.3770511"><ele>412.83333333333337</ele><time>2026-04-18T09:03:12.271Z</time></trkpt><trkpt lat="44.7200151" lon="9.3769882"><ele>412.0</ele><time>2026-04-18T09:03:13.271Z</time></trkpt><trkpt lat="44.7199441" lon="9.3769293"><ele>413.83333333333337</ele><time>2026-04-18T09:03:14.271Z</time></trkpt><trkpt lat="44.7198685" lon="9.3768787"><ele>415.6666666666667</ele><time>2026-04-18T09:03:15.271Z</time></trkpt><trkpt lat="44.7197939" lon="9.3768339"><ele>417.5</ele><time>2026-04-18T09:03:16.271Z</time></trkpt><trkpt lat="44.7197239" lon="9.3768114"><ele>419.33333333333337</ele><time>2026-04-18T09:03:17.272Z</time></trkpt><trkpt lat="44.7196382" lon="9.3768975"><ele>421.1666666666667</ele><time>2026-04-18T09:03:19.271Z</time></trkpt><trkpt lat="44.7196394" lon="9.3769888"><ele>423.0</ele><time>2026-04-18T09:03:20.27Z</time></trkpt><trkpt lat="44.7196681" lon="9.3770983"><ele>421.1666666666667</ele><time>2026-04-18T09:03:21.271Z</time></trkpt><trkpt lat="44.7197005" lon="9.3772202"><ele>419.33333333333337</ele><time>2026-04-18T09:03:22.272Z</time></trkpt><trkpt lat="44.7197153" lon="9.3773425"><ele>417.5</ele><time>2026-04-18T09:03:23.27Z</time></trkpt><trkpt lat="44.7196976" lon="9.377451"><ele>415.6666666666667</ele><time>2026-04-18T09:03:24.272Z</time></trkpt><trkpt lat="44.719644" lon="9.3775311"><ele>413.83333333333337</ele><time>2026-04-18T09:03:25.271Z</time></trkpt><trkpt lat="44.7195749" lon="9.3775784"><ele>412.0</ele><time>2026-04-18T09:03:26.272Z</time></trkpt><trkpt lat="44.7194912" lon="9.3776236"><ele>412.00000000000006</ele><time>2026-04-18T09:03:27.271Z</time></trkpt><trkpt lat="44.719412" lon="9.3776692"><ele>412.0</ele><time>2026-04-18T09:03:28.271Z</time></trkpt><trkpt lat="44.7193388" lon="9.3776912"><ele>412.0</ele><time>2026-04-18T09:03:29.271Z</time></trkpt><trkpt lat="44.7192684" lon="9.3776675"><ele>412.0</ele><time>2026-04-18T09:03:30.271Z</time></trkpt><trkpt lat="44.7192161" lon="9.3775845"><ele>412.00000000000006</ele><time>2026-04-18T09:03:31.271Z</time></trkpt><trkpt lat="44.7191691" lon="9.377477"><ele>412.0</ele><time>2026-04-18T09:03:32.271Z</time></trkpt><trkpt lat="44.7191115" lon="9.3773669"><ele>411.6</ele><time>2026-04-18T09:03:33.271Z</time></trkpt><trkpt lat="44.7190431" lon="9.3772675"><ele>411.20000000000005</ele><time>2026-04-18T09:03:34.271Z</time></trkpt><trkpt lat="44.7189634" lon="9.377192"><ele>410.8</ele><time>2026-04-18T09:03:35.272Z</time></trkpt><trkpt lat="44.7188864" lon="9.3771282"><ele>410.4</ele><time>2026-04-18T09:03:36.271Z</time></trkpt><trkpt lat="44.7187803" lon="9.377131"><ele>410.0</ele><time>2026-04-18T09:03:37.27Z</time></trkpt><trkpt lat="44.7186848" lon="9.3771472"><ele>409.99999999999994</ele><time>2026-04-18T09:03:38.272Z</time></trkpt><trkpt lat="44.7185828" lon="9.3771823"><ele>410.0</ele><time>2026-04-18T09:03:39.271Z</time></trkpt><trkpt lat="44.718487" lon="9.3772105"><ele>410.0</ele><time>2026-04-18T09:03:40.27Z</time></trkpt><trkpt lat="44.7183987" lon="9.3772403"><ele>410.0</ele><time>2026-04-18T09:03:41.271Z</time></trkpt><trkpt lat="44.7183221" lon="9.3772711"><ele>409.99999999999994</ele><time>2026-04-18T09:03:42.271Z</time></trkpt><trkpt lat="44.7182554" lon="9.3772913"><ele>410.0</ele><time>2026-04-18T09:03:43.271Z</time></trkpt><trkpt lat="44.718191" lon="9.3772851"><ele>405.8333333333333</ele><time>2026-04-18T09:03:44.27Z</time></trkpt><trkpt lat="44.7181272" lon="9.3772673"><ele>401.66666666666663</ele><time>2026-04-18T09:03:45.271Z</time></trkpt><trkpt lat="44.7181225" lon="9.3771326"><ele>397.5</ele><time>2026-04-18T09:03:46.27Z</time></trkpt><trkpt lat="44.7181137" lon="9.3770244"><ele>393.33333333333337</ele><time>2026-04-18T09:03:47.271Z</time></trkpt><trkpt lat="44.7181141" lon="9.3768973"><ele>389.1666666666667</ele><time>2026-04-18T09:03:48.271Z</time></trkpt><trkpt lat="44.7180947" lon="9.3767729"><ele>385.0</ele><time>2026-04-18T09:03:49.271Z</time></trkpt><trkpt lat="44.7180392" lon="9.3766662"><ele>385.00000000000006</ele><time>2026-04-18T09:03:50.271Z</time></trkpt><trkpt lat="44.7179713" lon="9.376583"><ele>385.0</ele><time>2026-04-18T09:03:51.27Z</time></trkpt><trkpt lat="44.7179147" lon="9.3764939"><ele>385.0</ele><time>2026-04-18T09:03:52.27Z</time></trkpt><trkpt lat="44.7178693" lon="9.3763864"><ele>385.0</ele><time>2026-04-18T09:03:53.272Z</time></trkpt><trkpt lat="44.7178282" lon="9.3762786"><ele>385.00000000000006</ele><time>2026-04-18T09:03:54.271Z</time></trkpt><trkpt lat="44.7177915" lon="9.376166"><ele>385.0</ele><time>2026-04-18T09:03:55.271Z</time></trkpt><trkpt lat="44.7177568" lon="9.3760481"><ele>380.6666666666667</ele><time>2026-04-18T09:03:56.27Z</time></trkpt><trkpt lat="44.717722" lon="9.3759394"><ele>376.33333333333337</ele><time>2026-04-18T09:03:57.271Z</time></trkpt><trkpt lat="44.7176875" lon="9.3758366"><ele>372.0</ele><time>2026-04-18T09:03:58.272Z</time></trkpt><trkpt lat="44.7176408" lon="9.3757517"><ele>367.6666666666667</ele><time>2026-04-18T09:03:59.271Z</time></trkpt><trkpt lat="44.7175758" lon="9.3756977"><ele>363.33333333333337</ele><time>2026-04-18T09:04:00.27Z</time></trkpt><trkpt lat="44.717506" lon="9.3757009"><ele>359.0</ele><time>2026-04-18T09:04:01.271Z</time></trkpt><trkpt lat="44.7174431" lon="9.3758491"><ele>359.0</ele><time>2026-04-18T09:04:03.27Z</time></trkpt><trkpt lat="44.7174498" lon="9.3759549"><ele>359.0</ele><time>2026-04-18T09:04:04.272Z</time></trkpt><trkpt lat="44.717479" lon="9.3760754"><ele>359.0</ele><time>2026-04-18T09:04:05.271Z</time></trkpt><trkpt lat="44.7175161" lon="9.3762159"><ele>359.0</ele><time>2026-04-18T09:04:06.272Z</time></trkpt><trkpt lat="44.717551" lon="9.3763822"><ele>359.0</ele><time>2026-04-18T09:04:07.271Z</time></trkpt><trkpt lat="44.7175761" lon="9.3765498"><ele>357.79999999999995</ele><time>2026-04-18T09:04:08.271Z</time></trkpt><trkpt lat="44.7175972" lon="9.3767095"><ele>356.59999999999997</ele><time>2026-04-18T09:04:09.27Z</time></trkpt><trkpt lat="44.7176055" lon="9.3768609"><ele>355.4</ele><time>2026-04-18T09:04:10.27Z</time></trkpt><trkpt lat="44.7175871" lon="9.377012"><ele>354.2</ele><time>2026-04-18T09:04:11.271Z</time></trkpt><trkpt lat="44.7175452" lon="9.3771393"><ele>353.0</ele><time>2026-04-18T09:04:12.271Z</time></trkpt><trkpt lat="44.7174907" lon="9.3772323"><ele>351.0</ele><time>2026-04-18T09:04:13.271Z</time></trkpt><trkpt lat="44.7174314" lon="9.3773108"><ele>349.0</ele><time>2026-04-18T09:04:14.27Z</time></trkpt><trkpt lat="44.7173245" lon="9.3773463"><ele>347.0</ele><time>2026-04-18T09:04:15.27Z</time></trkpt><trkpt lat="44.7172138" lon="9.377418"><ele>345.0</ele><time>2026-04-18T09:04:16.271Z</time></trkpt><trkpt lat="44.7170934" lon="9.3775145"><ele>345.0</ele><time>2026-04-18T09:04:17.271Z</time></trkpt><trkpt lat="44.7169751" lon="9.3776398"><ele>345.0</ele><time>2026-04-18T09:04:18.271Z</time></trkpt><trkpt lat="44.7168552" lon="9.3777769"><ele>345.0</ele><time>2026-04-18T09:04:19.27Z</time></trkpt><trkpt lat="44.7167371" lon="9.3778952"><ele>345.0</ele><time>2026-04-18T09:04:20.27Z</time></trkpt><trkpt lat="44.7166335" lon="9.3779661"><ele>347.0</ele><time>2026-04-18T09:04:21.271Z</time></trkpt><trkpt lat="44.7165294" lon="9.3780058"><ele>349.0</ele><time>2026-04-18T09:04:22.27Z</time></trkpt><trkpt lat="44.7164141" lon="9.3780142"><ele>351.0</ele><time>2026-04-18T09:04:23.271Z</time></trkpt><trkpt lat="44.7162926" lon="9.3780126"><ele>353.0</ele><time>2026-04-18T09:04:24.271Z</time></trkpt><trkpt lat="44.7161713" lon="9.3780036"><ele>352.79999999999995</ele><time>2026-04-18T09:04:25.272Z</time></trkpt><trkpt lat="44.7160585" lon="9.3779747"><ele>352.6</ele><time>2026-04-18T09:04:26.27Z</time></trkpt><trkpt lat="44.7159641" lon="9.3779154"><ele>352.4</ele><time>2026-04-18T09:04:27.27Z</time></trkpt><trkpt lat="44.715882" lon="9.3778148"><ele>352.20000000000005</ele><time>2026-04-18T09:04:28.27Z</time></trkpt><trkpt lat="44.7157892" lon="9.3777119"><ele>352.0</ele><time>2026-04-18T09:04:29.27Z</time></trkpt><trkpt lat="44.7156759" lon="9.3776359"><ele>352.0</ele><time>2026-04-18T09:04:30.271Z</time></trkpt><trkpt lat="44.7155656" lon="9.3775872"><ele>352.0</ele><time>2026-04-18T09:04:31.27Z</time></trkpt><trkpt lat="44.7154594" lon="9.3775504"><ele>352.0</ele><time>2026-04-18T09:04:32.271Z</time></trkpt><trkpt lat="44.7153606" lon="9.3775105"><ele>352.0</ele><time>2026-04-18T09:04:33.27Z</time></trkpt><trkpt lat="44.7152594" lon="9.3774633"><ele>352.0</ele><time>2026-04-18T09:04:34.27Z</time></trkpt><trkpt lat="44.7151569" lon="9.3774055"><ele>347.8</ele><time>2026-04-18T09:04:35.27Z</time></trkpt><trkpt lat="44.7150636" lon="9.3773474"><ele>343.6</ele><time>2026-04-18T09:04:36.27Z</time></trkpt><trkpt lat="44.7149589" lon="9.377313"><ele>339.40000000000003</ele><time>2026-04-18T09:04:37.27Z</time></trkpt><trkpt lat="44.7148502" lon="9.3773136"><ele>335.20000000000005</ele><time>2026-04-18T09:04:38.272Z</time></trkpt><trkpt lat="44.7147509" lon="9.3773149"><ele>331.0</ele><time>2026-04-18T09:04:39.271Z</time></trkpt><trkpt lat="44.7146596" lon="9.3773046"><ele>331.0</ele><time>2026-04-18T09:04:40.27Z</time></trkpt><trkpt lat="44.7145856" lon="9.3772686"><ele>331.0</ele><time>2026-04-18T09:04:41.27Z</time></trkpt><trkpt lat="44.7145356" lon="9.3771961"><ele>331.0</ele><time>2026-04-18T09:04:42.27Z</time></trkpt><trkpt lat="44.7145146" lon="9.3770928"><ele>331.0</ele><time>2026-04-18T09:04:43.272Z</time></trkpt><trkpt lat="44.7144672" lon="9.3770021"><ele>331.0</ele><time>2026-04-18T09:04:44.27Z</time></trkpt><trkpt lat="44.714388" lon="9.3769444"><ele>331.0</ele><time>2026-04-18T09:04:45.271Z</time></trkpt><trkpt lat="44.7142989" lon="9.3769141"><ele>336.0</ele><time>2026-04-18T09:04:46.27Z</time></trkpt><trkpt lat="44.7141953" lon="9.3768999"><ele>341.0</ele><time>2026-04-18T09:04:47.27Z</time></trkpt><trkpt lat="44.7140817" lon="9.3768935"><ele>346.0</ele><time>2026-04-18T09:04:48.271Z</time></trkpt><trkpt lat="44.7139681" lon="9.3769064"><ele>351.0</ele><time>2026-04-18T09:04:49.271Z</time></trkpt><trkpt lat="44.7138657" lon="9.3769133"><ele>356.0</ele><time>2026-04-18T09:04:50.271Z</time></trkpt><trkpt lat="44.7137712" lon="9.3768898"><ele>356.0</ele><time>2026-04-18T09:04:51.271Z</time></trkpt><trkpt lat="44.7136892" lon="9.3768325"><ele>356.0</ele><time>2026-04-18T09:04:52.272Z</time></trkpt><trkpt lat="44.7136076" lon="9.3767445"><ele>356.0</ele><time>2026-04-18T09:04:53.272Z</time></trkpt><trkpt lat="44.7135082" lon="9.3766689"><ele>356.0</ele><time>2026-04-18T09:04:54.271Z</time></trkpt><trkpt lat="44.7133975" lon="9.3766236"><ele>356.0</ele><time>2026-04-18T09:04:55.27Z</time></trkpt><trkpt lat="44.7132918" lon="9.3766018"><ele>352.6</ele><time>2026-04-18T09:04:56.272Z</time></trkpt><trkpt lat="44.7131821" lon="9.3766054"><ele>349.20000000000005</ele><time>2026-04-18T09:04:57.271Z</time></trkpt><trkpt lat="44.7130753" lon="9.376633"><ele>345.79999999999995</ele><time>2026-04-18T09:04:58.271Z</time></trkpt><trkpt lat="44.7129694" lon="9.376661"><ele>342.4</ele><time>2026-04-18T09:04:59.271Z</time></trkpt><trkpt lat="44.7128607" lon="9.3766748"><ele>339.0</ele><time>2026-04-18T09:05:00.272Z</time></trkpt><trkpt lat="44.7127532" lon="9.3766724"><ele>338.6</ele><time>2026-04-18T09:05:01.27Z</time></trkpt><trkpt lat="44.7126436" lon="9.3766807"><ele>338.2</ele><time>2026-04-18T09:05:02.271Z</time></trkpt><trkpt lat="44.7125412" lon="9.3766807"><ele>337.8</ele><time>2026-04-18T09:05:03.272Z</time></trkpt><trkpt lat="44.7124413" lon="9.3766786"><ele>337.40000000000003</ele><time>2026-04-18T09:05:04.27Z</time></trkpt><trkpt lat="44.7123419" lon="9.3766748"><ele>337.0</ele><time>2026-04-18T09:05:05.271Z</time></trkpt><trkpt lat="44.7122443" lon="9.3766642"><ele>337.0</ele><time>2026-04-18T09:05:06.271Z</time></trkpt><trkpt lat="44.7121481" lon="9.3766531"><ele>337.0</ele><time>2026-04-18T09:05:07.272Z</time></trkpt><trkpt lat="44.7120528" lon="9.3766479"><ele>337.0</ele><time>2026-04-18T09:05:08.27Z</time></trkpt><trkpt lat="44.7119617" lon="9.3766761"><ele>337.0</ele><time>2026-04-18T09:05:09.272Z</time></trkpt><trkpt lat="44.7118806" lon="9.3767374"><ele>337.0</ele><time>2026-04-18T09:05:10.271Z</time></trkpt><trkpt lat="44.711813" lon="9.3768134"><ele>337.16666666666663</ele><time>2026-04-18T09:05:11.271Z</time></trkpt><trkpt lat="44.7117513" lon="9.3768962"><ele>337.3333333333333</ele><time>2026-04-18T09:05:12.271Z</time></trkpt><trkpt lat="44.7116885" lon="9.3769815"><ele>337.5</ele><time>2026-04-18T09:05:13.271Z</time></trkpt><trkpt lat="44.7116213" lon="9.3770528"><ele>337.6666666666667</ele><time>2026-04-18T09:05:14.271Z</time></trkpt><trkpt lat="44.711548" lon="9.3771019"><ele>337.83333333333337</ele><time>2026-04-18T09:05:15.27Z</time></trkpt><trkpt lat="44.7114681" lon="9.3771153"><ele>338.0</ele><time>2026-04-18T09:05:16.271Z</time></trkpt><trkpt lat="44.7113842" lon="9.3771125"><ele>338.0</ele><time>2026-04-18T09:05:17.27Z</time></trkpt><trkpt lat="44.7112992" lon="9.3771184"><ele>338.0</ele><time>2026-04-18T09:05:18.27Z</time></trkpt><trkpt lat="44.7112162" lon="9.3771496"><ele>338.0</ele><time>2026-04-18T09:05:19.27Z</time></trkpt><trkpt lat="44.7111308" lon="9.3771933"><ele>338.0</ele><time>2026-04-18T09:05:20.27Z</time></trkpt><trkpt lat="44.7110458" lon="9.3772341"><ele>338.0</ele><time>2026-04-18T09:05:21.27Z</time></trkpt><trkpt lat="44.710962" lon="9.3772686"><ele>338.0</ele><time>2026-04-18T09:05:22.27Z</time></trkpt><trkpt lat="44.7108843" lon="9.3772986"><ele>335.2</ele><time>2026-04-18T09:05:23.27Z</time></trkpt><trkpt lat="44.7108106" lon="9.3773235"><ele>332.4</ele><time>2026-04-18T09:05:24.271Z</time></trkpt><trkpt lat="44.7107366" lon="9.377336"><ele>329.59999999999997</ele><time>2026-04-18T09:05:25.272Z</time></trkpt><trkpt lat="44.7106674" lon="9.3774751"><ele>326.79999999999995</ele><time>2026-04-18T09:05:27.271Z</time></trkpt><trkpt lat="44.7106977" lon="9.3776325"><ele>324.0</ele><time>2026-04-18T09:05:29.271Z</time></trkpt><trkpt lat="44.710743" lon="9.3777209"><ele>324.0</ele><time>2026-04-18T09:05:30.27Z</time></trkpt><trkpt lat="44.710782" lon="9.3778139"><ele>324.0</ele><time>2026-04-18T09:05:31.27Z</time></trkpt><trkpt lat="44.7108138" lon="9.3779134"><ele>324.0</ele><time>2026-04-18T09:05:32.271Z</time></trkpt><trkpt lat="44.71084" lon="9.3779999"><ele>324.0</ele><time>2026-04-18T09:05:33.271Z</time></trkpt><trkpt lat="44.7108607" lon="9.3780958"><ele>324.0</ele><time>2026-04-18T09:05:35.271Z</time></trkpt><trkpt lat="44.7108575" lon="9.378231"><ele>324.0</ele><time>2026-04-18T09:05:39.27Z</time></trkpt><trkpt lat="44.7108895" lon="9.3783341"><ele>322.0</ele><time>2026-04-18T09:05:40.271Z</time></trkpt><trkpt lat="44.7109483" lon="9.3784807"><ele>320.0</ele><time>2026-04-18T09:05:41.27Z</time></trkpt><trkpt lat="44.7110184" lon="9.3786397"><ele>318.0</ele><time>2026-04-18T09:05:42.272Z</time></trkpt><trkpt lat="44.7110997" lon="9.3788207"><ele>316.0</ele><time>2026-04-18T09:05:43.271Z</time></trkpt><trkpt lat="44.7111715" lon="9.3789788"><ele>315.25</ele><time>2026-04-18T09:05:44.271Z</time></trkpt><trkpt lat="44.7112429" lon="9.3791316"><ele>314.5</ele><time>2026-04-18T09:05:45.272Z</time></trkpt><trkpt lat="44.711317" lon="9.3792815"><ele>313.75</ele><time>2026-04-18T09:05:46.271Z</time></trkpt><trkpt lat="44.7113892" lon="9.3794288"><ele>313.0</ele><time>2026-04-18T09:05:47.27Z</time></trkpt><trkpt lat="44.7114518" lon="9.3795615"><ele>313.0</ele><time>2026-04-18T09:05:48.27Z</time></trkpt><trkpt lat="44.7115115" lon="9.3796791"><ele>313.0</ele><time>2026-04-18T09:05:49.27Z</time></trkpt><trkpt lat="44.711577" lon="9.3797832"><ele>313.0</ele><time>2026-04-18T09:05:50.271Z</time></trkpt><trkpt lat="44.7116562" lon="9.3798687"><ele>313.0</ele><time>2026-04-18T09:05:51.271Z</time></trkpt><trkpt lat="44.7117394" lon="9.3799273"><ele>313.0</ele><time>2026-04-18T09:05:52.272Z</time></trkpt><trkpt lat="44.7118286" lon="9.3799673"><ele>314.5</ele><time>2026-04-18T09:05:53.271Z</time></trkpt><trkpt lat="44.7119205" lon="9.3799945"><ele>316.0</ele><time>2026-04-18T09:05:54.272Z</time></trkpt><trkpt lat="44.7120131" lon="9.3800106"><ele>317.5</ele><time>2026-04-18T09:05:55.271Z</time></trkpt><trkpt lat="44.7121048" lon="9.3800231"><ele>319.0</ele><time>2026-04-18T09:05:56.271Z</time></trkpt><trkpt lat="44.7121888" lon="9.3800314"><ele>320.5</ele><time>2026-04-18T09:05:57.27Z</time></trkpt><trkpt lat="44.7122657" lon="9.3800406"><ele>322.0</ele><time>2026-04-18T09:05:58.27Z</time></trkpt><trkpt lat="44.7123437" lon="9.3800538"><ele>322.0</ele><time>2026-04-18T09:05:59.27Z</time></trkpt><trkpt lat="44.7124236" lon="9.3800663"><ele>322.0</ele><time>2026-04-18T09:06:00.27Z</time></trkpt><trkpt lat="44.712505" lon="9.380081"><ele>322.0</ele><time>2026-04-18T09:06:01.27Z</time></trkpt><trkpt lat="44.7125779" lon="9.3800951"><ele>322.0</ele><time>2026-04-18T09:06:02.271Z</time></trkpt><trkpt lat="44.7126807" lon="9.3801192"><ele>322.0</ele><time>2026-04-18T09:06:04.27Z</time></trkpt><trkpt lat="44.7127463" lon="9.3801469"><ele>322.0</ele><time>2026-04-18T09:06:07.272Z</time></trkpt><trkpt lat="44.7127787" lon="9.3802246"><ele>322.0</ele><time>2026-04-18T09:06:10.271Z</time></trkpt><trkpt lat="44.7127263" lon="9.380288"><ele>322.0</ele><time>2026-04-18T09:06:13.271Z</time></trkpt><trkpt lat="44.7126556" lon="9.3803305"><ele>322.0</ele><time>2026-04-18T09:09:03.27Z</time></trkpt><trkpt lat="44.7125865" lon="9.3802924"><ele>322.0</ele><time>2026-04-18T09:09:52.269Z</time></trkpt><trkpt lat="44.7124913" lon="9.3803143"><ele>322.0</ele><time>2026-04-18T09:09:54.271Z</time></trkpt><trkpt lat="44.7124237" lon="9.3803477"><ele>322.0</ele><time>2026-04-18T09:09:55.269Z</time></trkpt><trkpt lat="44.7123536" lon="9.38039"><ele>322.0</ele><time>2026-04-18T09:09:56.27Z</time></trkpt><trkpt lat="44.7122973" lon="9.3804733"><ele>322.0</ele><time>2026-04-18T09:09:57.269Z</time></trkpt><trkpt lat="44.712266" lon="9.3805753"><ele>322.0</ele><time>2026-04-18T09:09:58.269Z</time></trkpt><trkpt lat="44.7122472" lon="9.3806956"><ele>322.0</ele><time>2026-04-18T09:09:59.269Z</time></trkpt><trkpt lat="44.7122297" lon="9.3808205"><ele>322.0</ele><time>2026-04-18T09:10:00.269Z</time></trkpt><trkpt lat="44.7122134" lon="9.3809502"><ele>322.0</ele><time>2026-04-18T09:10:01.27Z</time></trkpt><trkpt lat="44.7121958" lon="9.3810811"><ele>322.8</ele><time>2026-04-18T09:10:02.27Z</time></trkpt><trkpt lat="44.7121803" lon="9.3812103"><ele>323.6</ele><time>2026-04-18T09:10:03.27Z</time></trkpt><trkpt lat="44.7121652" lon="9.3813433"><ele>324.40000000000003</ele><time>2026-04-18T09:10:04.27Z</time></trkpt><trkpt lat="44.7121514" lon="9.3814746"><ele>325.20000000000005</ele><time>2026-04-18T09:10:05.271Z</time></trkpt><trkpt lat="44.7121365" lon="9.3815999"><ele>326.0</ele><time>2026-04-18T09:10:06.271Z</time></trkpt><trkpt lat="44.7121236" lon="9.3817293"><ele>327.1666666666667</ele><time>2026-04-18T09:10:07.27Z</time></trkpt><trkpt lat="44.7121099" lon="9.3818539"><ele>328.33333333333337</ele><time>2026-04-18T09:10:08.269Z</time></trkpt><trkpt lat="44.7120958" lon="9.3819771"><ele>329.5</ele><time>2026-04-18T09:10:09.269Z</time></trkpt><trkpt lat="44.7120804" lon="9.3820983"><ele>330.6666666666667</ele><time>2026-04-18T09:10:10.27Z</time></trkpt><trkpt lat="44.7120643" lon="9.3822152"><ele>331.8333333333333</ele><time>2026-04-18T09:10:11.27Z</time></trkpt><trkpt lat="44.7120556" lon="9.3823374"><ele>333.0</ele><time>2026-04-18T09:10:12.27Z</time></trkpt><trkpt lat="44.7120686" lon="9.3824669"><ele>333.6666666666667</ele><time>2026-04-18T09:10:13.269Z</time></trkpt><trkpt lat="44.712109" lon="9.3825894"><ele>334.3333333333333</ele><time>2026-04-18T09:10:14.27Z</time></trkpt><trkpt lat="44.7121648" lon="9.3826896"><ele>335.0</ele><time>2026-04-18T09:10:15.271Z</time></trkpt><trkpt lat="44.7122289" lon="9.3827782"><ele>335.66666666666663</ele><time>2026-04-18T09:10:16.27Z</time></trkpt><trkpt lat="44.7122938" lon="9.3828577"><ele>336.3333333333333</ele><time>2026-04-18T09:10:17.27Z</time></trkpt><trkpt lat="44.712352" lon="9.3829356"><ele>337.0</ele><time>2026-04-18T09:10:18.27Z</time></trkpt><trkpt lat="44.7124008" lon="9.3830149"><ele>338.16666666666663</ele><time>2026-04-18T09:10:19.27Z</time></trkpt><trkpt lat="44.7124193" lon="9.3831277"><ele>339.3333333333333</ele><time>2026-04-18T09:10:20.271Z</time></trkpt><trkpt lat="44.7124139" lon="9.3832538"><ele>340.5</ele><time>2026-04-18T09:10:21.27Z</time></trkpt><trkpt lat="44.7124084" lon="9.3833864"><ele>341.6666666666667</ele><time>2026-04-18T09:10:22.269Z</time></trkpt><trkpt lat="44.7123995" lon="9.3835121"><ele>342.83333333333337</ele><time>2026-04-18T09:10:23.269Z</time></trkpt><trkpt lat="44.7123927" lon="9.3836408"><ele>344.0</ele><time>2026-04-18T09:10:24.27Z</time></trkpt><trkpt lat="44.7123863" lon="9.3837578"><ele>345.33333333333337</ele><time>2026-04-18T09:10:25.27Z</time></trkpt><trkpt lat="44.7123774" lon="9.383863"><ele>346.6666666666667</ele><time>2026-04-18T09:10:26.269Z</time></trkpt><trkpt lat="44.7123653" lon="9.3839714"><ele>348.0</ele><time>2026-04-18T09:10:27.27Z</time></trkpt><trkpt lat="44.7123396" lon="9.3840791"><ele>349.3333333333333</ele><time>2026-04-18T09:10:28.27Z</time></trkpt><trkpt lat="44.7122877" lon="9.3841788"><ele>350.66666666666663</ele><time>2026-04-18T09:10:29.27Z</time></trkpt><trkpt lat="44.7122175" lon="9.3842608"><ele>352.0</ele><time>2026-04-18T09:10:30.271Z</time></trkpt><trkpt lat="44.7121387" lon="9.3843346"><ele>352.0</ele><time>2026-04-18T09:10:31.271Z</time></trkpt><trkpt lat="44.7120583" lon="9.3844065"><ele>352.0</ele><time>2026-04-18T09:10:32.27Z</time></trkpt><trkpt lat="44.7119808" lon="9.3844705"><ele>352.0</ele><time>2026-04-18T09:10:33.269Z</time></trkpt><trkpt lat="44.7119029" lon="9.3845347"><ele>352.0</ele><time>2026-04-18T09:10:34.27Z</time></trkpt><trkpt lat="44.7118244" lon="9.3845997"><ele>352.0</ele><time>2026-04-18T09:10:35.27Z</time></trkpt><trkpt lat="44.7117448" lon="9.3846662"><ele>352.0</ele><time>2026-04-18T09:10:36.27Z</time></trkpt><trkpt lat="44.711663" lon="9.3847333"><ele>352.0</ele><time>2026-04-18T09:10:37.27Z</time></trkpt><trkpt lat="44.7115762" lon="9.3847994"><ele>352.0</ele><time>2026-04-18T09:10:38.27Z</time></trkpt><trkpt lat="44.7114862" lon="9.3848618"><ele>352.0</ele><time>2026-04-18T09:10:39.271Z</time></trkpt><trkpt lat="44.7113926" lon="9.3849211"><ele>352.0</ele><time>2026-04-18T09:10:40.271Z</time></trkpt><trkpt lat="44.7112957" lon="9.3849765"><ele>352.0</ele><time>2026-04-18T09:10:41.269Z</time></trkpt><trkpt lat="44.7111988" lon="9.3850299"><ele>352.0</ele><time>2026-04-18T09:10:42.271Z</time></trkpt><trkpt lat="44.7110996" lon="9.3850814"><ele>352.0</ele><time>2026-04-18T09:10:43.27Z</time></trkpt><trkpt lat="44.7110028" lon="9.3851368"><ele>352.0</ele><time>2026-04-18T09:10:44.27Z</time></trkpt><trkpt lat="44.7109064" lon="9.3851865"><ele>352.0</ele><time>2026-04-18T09:10:45.269Z</time></trkpt><trkpt lat="44.7108059" lon="9.3852369"><ele>353.0</ele><time>2026-04-18T09:10:46.269Z</time></trkpt><trkpt lat="44.7107004" lon="9.3852877"><ele>354.0</ele><time>2026-04-18T09:10:47.271Z</time></trkpt><trkpt lat="44.7105909" lon="9.385343"><ele>355.0</ele><time>2026-04-18T09:10:48.271Z</time></trkpt><trkpt lat="44.7104772" lon="9.3853914"><ele>356.0</ele><time>2026-04-18T09:10:49.27Z</time></trkpt><trkpt lat="44.7103557" lon="9.385417"><ele>356.25</ele><time>2026-04-18T09:10:50.27Z</time></trkpt><trkpt lat="44.7102333" lon="9.3854157"><ele>356.5</ele><time>2026-04-18T09:10:51.269Z</time></trkpt><trkpt lat="44.7101118" lon="9.3854113"><ele>356.75</ele><time>2026-04-18T09:10:52.27Z</time></trkpt><trkpt lat="44.7099963" lon="9.3854282"><ele>357.0</ele><time>2026-04-18T09:10:53.27Z</time></trkpt><trkpt lat="44.709882" lon="9.385483"><ele>358.5</ele><time>2026-04-18T09:10:54.27Z</time></trkpt><trkpt lat="44.7097796" lon="9.3855804"><ele>360.0</ele><time>2026-04-18T09:10:55.271Z</time></trkpt><trkpt lat="44.7096718" lon="9.3857252"><ele>361.5</ele><time>2026-04-18T09:10:56.271Z</time></trkpt><trkpt lat="44.7095712" lon="9.3858815"><ele>363.0</ele><time>2026-04-18T09:10:57.27Z</time></trkpt><trkpt lat="44.7094782" lon="9.3860197"><ele>364.1666666666667</ele><time>2026-04-18T09:10:58.269Z</time></trkpt><trkpt lat="44.7093921" lon="9.3861302"><ele>365.3333333333333</ele><time>2026-04-18T09:10:59.269Z</time></trkpt><trkpt lat="44.7093117" lon="9.3861983"><ele>366.5</ele><time>2026-04-18T09:11:00.27Z</time></trkpt><trkpt lat="44.7092387" lon="9.3862164"><ele>367.66666666666663</ele><time>2026-04-18T09:11:01.269Z</time></trkpt><trkpt lat="44.7091738" lon="9.3861728"><ele>368.8333333333333</ele><time>2026-04-18T09:11:02.269Z</time></trkpt><trkpt lat="44.7091464" lon="9.3860833"><ele>370.0</ele><time>2026-04-18T09:11:03.269Z</time></trkpt><trkpt lat="44.7091613" lon="9.3859853"><ele>370.0</ele><time>2026-04-18T09:11:04.269Z</time></trkpt><trkpt lat="44.7092023" lon="9.3858789"><ele>370.0</ele><time>2026-04-18T09:11:05.269Z</time></trkpt><trkpt lat="44.7092359" lon="9.3857688"><ele>370.0</ele><time>2026-04-18T09:11:06.269Z</time></trkpt><trkpt lat="44.7092291" lon="9.385651"><ele>370.0</ele><time>2026-04-18T09:11:07.269Z</time></trkpt><trkpt lat="44.7091844" lon="9.3855634"><ele>370.0</ele><time>2026-04-18T09:11:08.271Z</time></trkpt><trkpt lat="44.7091149" lon="9.3855418"><ele>370.0</ele><time>2026-04-18T09:11:09.27Z</time></trkpt><trkpt lat="44.7090344" lon="9.3855914"><ele>370.0</ele><time>2026-04-18T09:11:10.27Z</time></trkpt><trkpt lat="44.708958" lon="9.3856777"><ele>370.0</ele><time>2026-04-18T09:11:11.27Z</time></trkpt><trkpt lat="44.7088904" lon="9.3857493"><ele>370.0</ele><time>2026-04-18T09:11:12.27Z</time></trkpt><trkpt lat="44.7088051" lon="9.3857695"><ele>370.0</ele><time>2026-04-18T09:11:13.27Z</time></trkpt><trkpt lat="44.7087287" lon="9.3857166"><ele>370.0</ele><time>2026-04-18T09:11:14.27Z</time></trkpt><trkpt lat="44.7086723" lon="9.3856045"><ele>371.0</ele><time>2026-04-18T09:11:15.27Z</time></trkpt><trkpt lat="44.708599" lon="9.3854603"><ele>372.0</ele><time>2026-04-18T09:11:16.271Z</time></trkpt><trkpt lat="44.7085016" lon="9.385352"><ele>373.0</ele><time>2026-04-18T09:11:17.27Z</time></trkpt><trkpt lat="44.7084138" lon="9.3853043"><ele>374.0</ele><time>2026-04-18T09:11:18.269Z</time></trkpt><trkpt lat="44.7083455" lon="9.3853192"><ele>375.0</ele><time>2026-04-18T09:11:19.27Z</time></trkpt><trkpt lat="44.7083004" lon="9.3853867"><ele>375.0</ele><time>2026-04-18T09:11:20.27Z</time></trkpt><trkpt lat="44.7083095" lon="9.3854795"><ele>375.0</ele><time>2026-04-18T09:11:21.269Z</time></trkpt><trkpt lat="44.7083612" lon="9.3856013"><ele>375.0</ele><time>2026-04-18T09:11:22.269Z</time></trkpt><trkpt lat="44.7084157" lon="9.3857431"><ele>375.0</ele><time>2026-04-18T09:11:23.269Z</time></trkpt><trkpt lat="44.7084457" lon="9.3858839"><ele>375.0</ele><time>2026-04-18T09:11:24.27Z</time></trkpt><trkpt lat="44.7084865" lon="9.3860047"><ele>374.0</ele><time>2026-04-18T09:11:25.27Z</time></trkpt><trkpt lat="44.7085452" lon="9.3861002"><ele>373.0</ele><time>2026-04-18T09:11:26.27Z</time></trkpt><trkpt lat="44.7086032" lon="9.3861691"><ele>372.0</ele><time>2026-04-18T09:11:27.27Z</time></trkpt><trkpt lat="44.7086625" lon="9.386301"><ele>371.0</ele><time>2026-04-18T09:11:29.271Z</time></trkpt><trkpt lat="44.7086231" lon="9.38641"><ele>370.0</ele><time>2026-04-18T09:11:31.271Z</time></trkpt><trkpt lat="44.7084851" lon="9.3863402"><ele>373.4</ele><time>2026-04-18T09:11:33.271Z</time></trkpt><trkpt lat="44.7084084" lon="9.3862606"><ele>376.8</ele><time>2026-04-18T09:11:34.269Z</time></trkpt><trkpt lat="44.7083299" lon="9.3861681"><ele>380.20000000000005</ele><time>2026-04-18T09:11:36.27Z</time></trkpt><trkpt lat="44.7082397" lon="9.3860298"><ele>383.6</ele><time>2026-04-18T09:11:38.27Z</time></trkpt><trkpt lat="44.7081762" lon="9.3859409"><ele>387.0</ele><time>2026-04-18T09:11:39.271Z</time></trkpt><trkpt lat="44.7081051" lon="9.385847"><ele>387.0</ele><time>2026-04-18T09:11:40.27Z</time></trkpt><trkpt lat="44.7080388" lon="9.3857584"><ele>387.0</ele><time>2026-04-18T09:11:41.271Z</time></trkpt><trkpt lat="44.7079706" lon="9.3856759"><ele>387.0</ele><time>2026-04-18T09:11:42.269Z</time></trkpt><trkpt lat="44.7079024" lon="9.3855968"><ele>387.0</ele><time>2026-04-18T09:11:43.27Z</time></trkpt><trkpt lat="44.7078351" lon="9.3855163"><ele>387.0</ele><time>2026-04-18T09:11:44.27Z</time></trkpt><trkpt lat="44.707763" lon="9.3854309"><ele>389.0</ele><time>2026-04-18T09:11:45.27Z</time></trkpt><trkpt lat="44.7076929" lon="9.3853408"><ele>391.0</ele><time>2026-04-18T09:11:46.27Z</time></trkpt><trkpt lat="44.7076221" lon="9.3852455"><ele>393.0</ele><time>2026-04-18T09:11:47.27Z</time></trkpt><trkpt lat="44.7075638" lon="9.3851383"><ele>395.0</ele><time>2026-04-18T09:11:48.27Z</time></trkpt><trkpt lat="44.7075095" lon="9.3850258"><ele>397.0</ele><time>2026-04-18T09:11:49.269Z</time></trkpt><trkpt lat="44.7074461" lon="9.3849225"><ele>397.0</ele><time>2026-04-18T09:11:50.27Z</time></trkpt><trkpt lat="44.7073572" lon="9.384856"><ele>397.0</ele><time>2026-04-18T09:11:51.269Z</time></trkpt><trkpt lat="44.7072638" lon="9.3848338"><ele>397.0</ele><time>2026-04-18T09:11:52.269Z</time></trkpt><trkpt lat="44.7071596" lon="9.3848597"><ele>397.0</ele><time>2026-04-18T09:11:53.269Z</time></trkpt><trkpt lat="44.7070613" lon="9.3849122"><ele>397.0</ele><time>2026-04-18T09:11:54.269Z</time></trkpt><trkpt lat="44.7069633" lon="9.384979"><ele>397.20000000000005</ele><time>2026-04-18T09:11:55.269Z</time></trkpt><trkpt lat="44.7068718" lon="9.385046"><ele>397.4</ele><time>2026-04-18T09:11:56.27Z</time></trkpt><trkpt lat="44.7067878" lon="9.3851282"><ele>397.6</ele><time>2026-04-18T09:11:57.27Z</time></trkpt><trkpt lat="44.7067183" lon="9.3852311"><ele>397.79999999999995</ele><time>2026-04-18T09:11:58.27Z</time></trkpt><trkpt lat="44.70667" lon="9.3853637"><ele>398.0</ele><time>2026-04-18T09:11:59.27Z</time></trkpt><trkpt lat="44.7066442" lon="9.3855118"><ele>401.59999999999997</ele><time>2026-04-18T09:12:00.27Z</time></trkpt><trkpt lat="44.7066281" lon="9.3856509"><ele>405.2</ele><time>2026-04-18T09:12:01.269Z</time></trkpt><trkpt lat="44.7065933" lon="9.3857799"><ele>408.8</ele><time>2026-04-18T09:12:02.27Z</time></trkpt><trkpt lat="44.7065247" lon="9.3858839"><ele>412.4</ele><time>2026-04-18T09:12:03.27Z</time></trkpt><trkpt lat="44.706429" lon="9.3859461"><ele>416.0</ele><time>2026-04-18T09:12:04.271Z</time></trkpt><trkpt lat="44.7063174" lon="9.3859654"><ele>416.0</ele><time>2026-04-18T09:12:05.269Z</time></trkpt><trkpt lat="44.7061941" lon="9.3859658"><ele>416.0</ele><time>2026-04-18T09:12:06.27Z</time></trkpt><trkpt lat="44.7060911" lon="9.3858678"><ele>416.0</ele><time>2026-04-18T09:12:07.27Z</time></trkpt><trkpt lat="44.7059917" lon="9.3858025"><ele>416.0</ele><time>2026-04-18T09:12:08.271Z</time></trkpt><trkpt lat="44.7058913" lon="9.3857202"><ele>414.6</ele><time>2026-04-18T09:12:09.27Z</time></trkpt><trkpt lat="44.705789" lon="9.3856507"><ele>413.20000000000005</ele><time>2026-04-18T09:12:10.27Z</time></trkpt><trkpt lat="44.7056873" lon="9.3856076"><ele>411.79999999999995</ele><time>2026-04-18T09:12:11.271Z</time></trkpt><trkpt lat="44.705576" lon="9.3855904"><ele>410.4</ele><time>2026-04-18T09:12:12.27Z</time></trkpt><trkpt lat="44.7054694" lon="9.3855905"><ele>409.0</ele><time>2026-04-18T09:12:13.271Z</time></trkpt><trkpt lat="44.7053642" lon="9.3856034"><ele>409.0</ele><time>2026-04-18T09:12:14.27Z</time></trkpt><trkpt lat="44.7052656" lon="9.3856465"><ele>409.0</ele><time>2026-04-18T09:12:15.27Z</time></trkpt><trkpt lat="44.7051749" lon="9.385722"><ele>409.0</ele><time>2026-04-18T09:12:16.271Z</time></trkpt><trkpt lat="44.7051033" lon="9.3858244"><ele>409.0</ele><time>2026-04-18T09:12:17.27Z</time></trkpt><trkpt lat="44.7050547" lon="9.3859477"><ele>409.0</ele><time>2026-04-18T09:12:18.27Z</time></trkpt><trkpt lat="44.7050274" lon="9.3860862"><ele>410.0</ele><time>2026-04-18T09:12:19.269Z</time></trkpt><trkpt lat="44.7050248" lon="9.3862316"><ele>411.0</ele><time>2026-04-18T09:12:20.27Z</time></trkpt><trkpt lat="44.705052" lon="9.3863667"><ele>412.0</ele><time>2026-04-18T09:12:21.271Z</time></trkpt><trkpt lat="44.7051147" lon="9.3864852"><ele>413.0</ele><time>2026-04-18T09:12:22.271Z</time></trkpt><trkpt lat="44.7052106" lon="9.3865584"><ele>414.0</ele><time>2026-04-18T09:12:23.27Z</time></trkpt><trkpt lat="44.7053183" lon="9.3865813"><ele>415.6666666666667</ele><time>2026-04-18T09:12:24.269Z</time></trkpt><trkpt lat="44.705414" lon="9.3865628"><ele>417.33333333333337</ele><time>2026-04-18T09:12:25.27Z</time></trkpt><trkpt lat="44.705498" lon="9.3865276"><ele>419.0</ele><time>2026-04-18T09:12:26.271Z</time></trkpt><trkpt lat="44.7055717" lon="9.3865007"><ele>420.6666666666667</ele><time>2026-04-18T09:12:27.271Z</time></trkpt><trkpt lat="44.7056309" lon="9.3865397"><ele>422.33333333333337</ele><time>2026-04-18T09:12:28.269Z</time></trkpt><trkpt lat="44.7056639" lon="9.3866196"><ele>424.0</ele><time>2026-04-18T09:12:29.268Z</time></trkpt><trkpt lat="44.7056119" lon="9.3867832"><ele>424.00000000000006</ele><time>2026-04-18T09:12:31.268Z</time></trkpt><trkpt lat="44.7055472" lon="9.3868656"><ele>424.0</ele><time>2026-04-18T09:12:32.268Z</time></trkpt><trkpt lat="44.7054692" lon="9.3869349"><ele>424.0</ele><time>2026-04-18T09:12:33.268Z</time></trkpt><trkpt lat="44.70538" lon="9.3869602"><ele>424.0</ele><time>2026-04-18T09:12:34.269Z</time></trkpt><trkpt lat="44.7053003" lon="9.3869559"><ele>424.00000000000006</ele><time>2026-04-18T09:12:35.269Z</time></trkpt><trkpt lat="44.7052224" lon="9.3869504"><ele>424.0</ele><time>2026-04-18T09:12:36.269Z</time></trkpt><trkpt lat="44.7051448" lon="9.3869664"><ele>424.2</ele><time>2026-04-18T09:12:37.269Z</time></trkpt><trkpt lat="44.7050641" lon="9.3870171"><ele>424.4</ele><time>2026-04-18T09:12:38.268Z</time></trkpt><trkpt lat="44.7049879" lon="9.387092"><ele>424.6</ele><time>2026-04-18T09:12:39.268Z</time></trkpt><trkpt lat="44.704894" lon="9.3871412"><ele>424.8</ele><time>2026-04-18T09:12:40.268Z</time></trkpt><trkpt lat="44.7047807" lon="9.3871774"><ele>425.0</ele><time>2026-04-18T09:12:41.269Z</time></trkpt><trkpt lat="44.7046635" lon="9.3871987"><ele>426.0</ele><time>2026-04-18T09:12:42.268Z</time></trkpt><trkpt lat="44.7045449" lon="9.3872134"><ele>427.0</ele><time>2026-04-18T09:12:43.269Z</time></trkpt><trkpt lat="44.7044245" lon="9.3872153"><ele>428.0</ele><time>2026-04-18T09:12:44.269Z</time></trkpt><trkpt lat="44.7043107" lon="9.3871964"><ele>429.0</ele><time>2026-04-18T09:12:45.269Z</time></trkpt><trkpt lat="44.7042096" lon="9.3871649"><ele>429.0</ele><time>2026-04-18T09:12:46.268Z</time></trkpt><trkpt lat="44.7041137" lon="9.3871358"><ele>429.0</ele><time>2026-04-18T09:12:47.268Z</time></trkpt><trkpt lat="44.7040297" lon="9.3871163"><ele>429.0</ele><time>2026-04-18T09:12:48.269Z</time></trkpt><trkpt lat="44.7039503" lon="9.3871126"><ele>429.0</ele><time>2026-04-18T09:12:49.269Z</time></trkpt><trkpt lat="44.7038969" lon="9.3871691"><ele>429.0</ele><time>2026-04-18T09:12:50.269Z</time></trkpt><trkpt lat="44.7038496" lon="9.3872866"><ele>429.0</ele><time>2026-04-18T09:12:51.268Z</time></trkpt><trkpt lat="44.703808" lon="9.3874379"><ele>429.6</ele><time>2026-04-18T09:12:52.268Z</time></trkpt><trkpt lat="44.7037634" lon="9.3875882"><ele>430.2</ele><time>2026-04-18T09:12:53.269Z</time></trkpt><trkpt lat="44.7037182" lon="9.3877168"><ele>430.80000000000007</ele><time>2026-04-18T09:12:54.269Z</time></trkpt><trkpt lat="44.7036722" lon="9.3878527"><ele>431.40000000000003</ele><time>2026-04-18T09:12:55.269Z</time></trkpt><trkpt lat="44.7036265" lon="9.3879931"><ele>432.0</ele><time>2026-04-18T09:12:56.269Z</time></trkpt><trkpt lat="44.7035813" lon="9.3881357"><ele>433.40000000000003</ele><time>2026-04-18T09:12:57.268Z</time></trkpt><trkpt lat="44.7035384" lon="9.3882689"><ele>434.80000000000007</ele><time>2026-04-18T09:12:58.268Z</time></trkpt><trkpt lat="44.7034913" lon="9.3883998"><ele>436.2</ele><time>2026-04-18T09:12:59.27Z</time></trkpt><trkpt lat="44.7034403" lon="9.3885282"><ele>437.6</ele><time>2026-04-18T09:13:00.269Z</time></trkpt><trkpt lat="44.7033855" lon="9.3886528"><ele>439.0</ele><time>2026-04-18T09:13:01.269Z</time></trkpt><trkpt lat="44.7033255" lon="9.3887677"><ele>440.50000000000006</ele><time>2026-04-18T09:13:02.268Z</time></trkpt><trkpt lat="44.7032606" lon="9.3888813"><ele>442.0</ele><time>2026-04-18T09:13:03.269Z</time></trkpt><trkpt lat="44.7031935" lon="9.3889969"><ele>443.5</ele><time>2026-04-18T09:13:04.269Z</time></trkpt><trkpt lat="44.70314" lon="9.3890911"><ele>445.0</ele><time>2026-04-18T09:13:05.27Z</time></trkpt><trkpt lat="44.7031243" lon="9.3891857"><ele>446.50000000000006</ele><time>2026-04-18T09:13:06.269Z</time></trkpt><trkpt lat="44.7031572" lon="9.3892768"><ele>448.0</ele><time>2026-04-18T09:13:07.269Z</time></trkpt><trkpt lat="44.7032325" lon="9.389334"><ele>448.0</ele><time>2026-04-18T09:13:08.269Z</time></trkpt><trkpt lat="44.7033402" lon="9.3893605"><ele>448.0</ele><time>2026-04-18T09:13:09.269Z</time></trkpt><trkpt lat="44.7034608" lon="9.3894015"><ele>448.0</ele><time>2026-04-18T09:13:10.268Z</time></trkpt><trkpt lat="44.7035728" lon="9.3894738"><ele>448.0</ele><time>2026-04-18T09:13:11.268Z</time></trkpt><trkpt lat="44.7036682" lon="9.3895482"><ele>447.5</ele><time>2026-04-18T09:13:12.269Z</time></trkpt><trkpt lat="44.7037642" lon="9.3896256"><ele>447.0</ele><time>2026-04-18T09:13:13.27Z</time></trkpt><trkpt lat="44.7038633" lon="9.3896931"><ele>446.5</ele><time>2026-04-18T09:13:14.269Z</time></trkpt><trkpt lat="44.7039728" lon="9.3897245"><ele>446.0</ele><time>2026-04-18T09:13:15.269Z</time></trkpt><trkpt lat="44.7040904" lon="9.3897124"><ele>446.0</ele><time>2026-04-18T09:13:16.268Z</time></trkpt><trkpt lat="44.7042044" lon="9.3896828"><ele>446.0</ele><time>2026-04-18T09:13:17.269Z</time></trkpt><trkpt lat="44.7043192" lon="9.3896603"><ele>446.0</ele><time>2026-04-18T09:13:18.268Z</time></trkpt><trkpt lat="44.7044335" lon="9.3896475"><ele>446.0</ele><time>2026-04-18T09:13:19.269Z</time></trkpt><trkpt lat="44.7045483" lon="9.3896641"><ele>452.25</ele><time>2026-04-18T09:13:20.269Z</time></trkpt><trkpt lat="44.7046531" lon="9.3897172"><ele>458.5</ele><time>2026-04-18T09:13:21.269Z</time></trkpt><trkpt lat="44.7047533" lon="9.3897904"><ele>464.75</ele><time>2026-04-18T09:13:22.269Z</time></trkpt><trkpt lat="44.7048579" lon="9.389866"><ele>471.0</ele><time>2026-04-18T09:13:23.269Z</time></trkpt><trkpt lat="44.704959" lon="9.3899334"><ele>471.0</ele><time>2026-04-18T09:13:24.269Z</time></trkpt><trkpt lat="44.7050586" lon="9.3899962"><ele>471.0</ele><time>2026-04-18T09:13:25.269Z</time></trkpt><trkpt lat="44.705158" lon="9.3900543"><ele>471.0</ele><time>2026-04-18T09:13:26.27Z</time></trkpt><trkpt lat="44.7052613" lon="9.3901056"><ele>471.0</ele><time>2026-04-18T09:13:27.269Z</time></trkpt><trkpt lat="44.7053804" lon="9.3901193"><ele>471.0</ele><time>2026-04-18T09:13:28.269Z</time></trkpt><trkpt lat="44.7054919" lon="9.3900719"><ele>472.5</ele><time>2026-04-18T09:13:29.27Z</time></trkpt><trkpt lat="44.7055937" lon="9.3899833"><ele>474.0</ele><time>2026-04-18T09:13:30.268Z</time></trkpt><trkpt lat="44.7056824" lon="9.3898749"><ele>475.5</ele><time>2026-04-18T09:13:31.268Z</time></trkpt><trkpt lat="44.7057588" lon="9.3897655"><ele>477.0</ele><time>2026-04-18T09:13:32.268Z</time></trkpt><trkpt lat="44.7058315" lon="9.38966"><ele>475.0</ele><time>2026-04-18T09:13:33.269Z</time></trkpt><trkpt lat="44.705904" lon="9.389558"><ele>473.00000000000006</ele><time>2026-04-18T09:13:34.269Z</time></trkpt><trkpt lat="44.7059767" lon="9.3894593"><ele>471.00000000000006</ele><time>2026-04-18T09:13:35.269Z</time></trkpt><trkpt lat="44.7060532" lon="9.3893708"><ele>469.0</ele><time>2026-04-18T09:13:36.269Z</time></trkpt><trkpt lat="44.7061388" lon="9.389319"><ele>467.0</ele><time>2026-04-18T09:13:37.269Z</time></trkpt><trkpt lat="44.7062339" lon="9.389318"><ele>467.0</ele><time>2026-04-18T09:13:38.269Z</time></trkpt><trkpt lat="44.7063264" lon="9.389381"><ele>467.0</ele><time>2026-04-18T09:13:39.268Z</time></trkpt><trkpt lat="44.7064268" lon="9.3894826"><ele>467.0</ele><time>2026-04-18T09:13:40.268Z</time></trkpt><trkpt lat="44.7065256" lon="9.3895921"><ele>467.0</ele><time>2026-04-18T09:13:41.268Z</time></trkpt><trkpt lat="44.7066305" lon="9.3897109"><ele>469.0</ele><time>2026-04-18T09:13:42.269Z</time></trkpt><trkpt lat="44.7067301" lon="9.3898298"><ele>471.0</ele><time>2026-04-18T09:13:43.268Z</time></trkpt><trkpt lat="44.7068155" lon="9.3899543"><ele>473.0</ele><time>2026-04-18T09:13:44.268Z</time></trkpt><trkpt lat="44.7068882" lon="9.3900758"><ele>475.0</ele><time>2026-04-18T09:13:45.269Z</time></trkpt><trkpt lat="44.7069524" lon="9.3901902"><ele>475.0</ele><time>2026-04-18T09:13:46.269Z</time></trkpt><trkpt lat="44.7070144" lon="9.3902945"><ele>475.0</ele><time>2026-04-18T09:13:47.269Z</time></trkpt><trkpt lat="44.7070766" lon="9.3904032"><ele>475.0</ele><time>2026-04-18T09:13:48.268Z</time></trkpt><trkpt lat="44.7071276" lon="9.3905049"><ele>475.0</ele><time>2026-04-18T09:13:49.27Z</time></trkpt><trkpt lat="44.7071549" lon="9.3906316"><ele>475.0</ele><time>2026-04-18T09:13:50.269Z</time></trkpt><trkpt lat="44.7071361" lon="9.3907728"><ele>474.50000000000006</ele><time>2026-04-18T09:13:51.268Z</time></trkpt><trkpt lat="44.7070858" lon="9.390897"><ele>474.0</ele><time>2026-04-18T09:13:52.268Z</time></trkpt><trkpt lat="44.7070359" lon="9.3909895"><ele>473.5</ele><time>2026-04-18T09:13:53.268Z</time></trkpt><trkpt lat="44.7069834" lon="9.3910784"><ele>473.0</ele><time>2026-04-18T09:13:54.27Z</time></trkpt><trkpt lat="44.7069295" lon="9.3911628"><ele>472.50000000000006</ele><time>2026-04-18T09:13:55.269Z</time></trkpt><trkpt lat="44.7068827" lon="9.3912363"><ele>472.0</ele><time>2026-04-18T09:13:56.269Z</time></trkpt><trkpt lat="44.7068384" lon="9.3913016"><ele>474.40000000000003</ele><time>2026-04-18T09:13:57.269Z</time></trkpt><trkpt lat="44.7067655" lon="9.3914056"><ele>476.80000000000007</ele><time>2026-04-18T09:13:59.269Z</time></trkpt><trkpt lat="44.7067077" lon="9.39148"><ele>479.2</ele><time>2026-04-18T09:14:01.269Z</time></trkpt><trkpt lat="44.7066508" lon="9.3915342"><ele>481.6</ele><time>2026-04-18T09:14:03.269Z</time></trkpt><trkpt lat="44.7065357" lon="9.3916205"><ele>484.0</ele><time>2026-04-18T09:15:12.268Z</time></trkpt><trkpt lat="44.7064632" lon="9.3916605"><ele>484.00000000000006</ele><time>2026-04-18T09:15:13.269Z</time></trkpt><trkpt lat="44.7063906" lon="9.3917034"><ele>484.0</ele><time>2026-04-18T09:15:14.269Z</time></trkpt><trkpt lat="44.7063261" lon="9.3917531"><ele>484.0</ele><time>2026-04-18T09:15:15.269Z</time></trkpt><trkpt lat="44.7062597" lon="9.3918084"><ele>484.0</ele><time>2026-04-18T09:15:16.27Z</time></trkpt><trkpt lat="44.7061837" lon="9.3918613"><ele>484.00000000000006</ele><time>2026-04-18T09:15:17.269Z</time></trkpt><trkpt lat="44.7061057" lon="9.3919196"><ele>484.0</ele><time>2026-04-18T09:15:18.268Z</time></trkpt><trkpt lat="44.706026" lon="9.3919821"><ele>487.2</ele><time>2026-04-18T09:15:19.269Z</time></trkpt><trkpt lat="44.7059469" lon="9.3920485"><ele>490.4</ele><time>2026-04-18T09:15:20.27Z</time></trkpt><trkpt lat="44.7058699" lon="9.3921251"><ele>493.6</ele><time>2026-04-18T09:15:21.269Z</time></trkpt><trkpt lat="44.7058001" lon="9.3922155"><ele>496.8</ele><time>2026-04-18T09:15:22.268Z</time></trkpt><trkpt lat="44.7057399" lon="9.3923195"><ele>500.0</ele><time>2026-04-18T09:15:23.27Z</time></trkpt><trkpt lat="44.7056942" lon="9.3924314"><ele>500.0</ele><time>2026-04-18T09:15:24.269Z</time></trkpt><trkpt lat="44.705653" lon="9.3925484"><ele>500.0</ele><time>2026-04-18T09:15:25.269Z</time></trkpt><trkpt lat="44.7056094" lon="9.3926803"><ele>500.0</ele><time>2026-04-18T09:15:26.27Z</time></trkpt><trkpt lat="44.7055595" lon="9.3928056"><ele>500.0</ele><time>2026-04-18T09:15:27.269Z</time></trkpt><trkpt lat="44.7055019" lon="9.3929157"><ele>500.0</ele><time>2026-04-18T09:15:28.269Z</time></trkpt><trkpt lat="44.7054449" lon="9.3930228"><ele>498.4</ele><time>2026-04-18T09:15:29.27Z</time></trkpt><trkpt lat="44.7053859" lon="9.393137"><ele>496.8</ele><time>2026-04-18T09:15:30.268Z</time></trkpt><trkpt lat="44.7053262" lon="9.3932567"><ele>495.20000000000005</ele><time>2026-04-18T09:15:31.269Z</time></trkpt><trkpt lat="44.7052607" lon="9.3933846"><ele>493.6</ele><time>2026-04-18T09:15:32.27Z</time></trkpt><trkpt lat="44.7051916" lon="9.3935065"><ele>492.0</ele><time>2026-04-18T09:15:33.269Z</time></trkpt><trkpt lat="44.7051237" lon="9.39364"><ele>496.25</ele><time>2026-04-18T09:15:34.268Z</time></trkpt><trkpt lat="44.7050547" lon="9.393774"><ele>500.5</ele><time>2026-04-18T09:15:35.268Z</time></trkpt><trkpt lat="44.7049784" lon="9.3939032"><ele>504.75</ele><time>2026-04-18T09:15:36.269Z</time></trkpt><trkpt lat="44.7048788" lon="9.3940422"><ele>509.0</ele><time>2026-04-18T09:15:37.27Z</time></trkpt><trkpt lat="44.7047734" lon="9.3941377"><ele>509.0</ele><time>2026-04-18T09:15:38.269Z</time></trkpt><trkpt lat="44.7046412" lon="9.394191"><ele>509.0</ele><time>2026-04-18T09:15:39.268Z</time></trkpt><trkpt lat="44.7045139" lon="9.3942249"><ele>509.0</ele><time>2026-04-18T09:15:40.268Z</time></trkpt><trkpt lat="44.7043858" lon="9.3942686"><ele>509.0</ele><time>2026-04-18T09:15:41.268Z</time></trkpt><trkpt lat="44.7042644" lon="9.3943233"><ele>515.0</ele><time>2026-04-18T09:15:42.27Z</time></trkpt><trkpt lat="44.7041432" lon="9.3943791"><ele>521.0</ele><time>2026-04-18T09:15:43.269Z</time></trkpt><trkpt lat="44.7040244" lon="9.3944425"><ele>527.0</ele><time>2026-04-18T09:15:44.268Z</time></trkpt><trkpt lat="44.703903" lon="9.3945019"><ele>533.0</ele><time>2026-04-18T09:15:45.269Z</time></trkpt><trkpt lat="44.7037805" lon="9.3945543"><ele>533.0</ele><time>2026-04-18T09:15:46.269Z</time></trkpt><trkpt lat="44.7036612" lon="9.3945965"><ele>533.0</ele><time>2026-04-18T09:15:47.269Z</time></trkpt><trkpt lat="44.7035409" lon="9.3946329"><ele>533.0</ele><time>2026-04-18T09:15:48.27Z</time></trkpt><trkpt lat="44.7034204" lon="9.3946714"><ele>533.0</ele><time>2026-04-18T09:15:49.269Z</time></trkpt><trkpt lat="44.7033008" lon="9.3947302"><ele>532.75</ele><time>2026-04-18T09:15:50.269Z</time></trkpt><trkpt lat="44.7031908" lon="9.3948197"><ele>532.5</ele><time>2026-04-18T09:15:51.269Z</time></trkpt><trkpt lat="44.7030936" lon="9.3949316"><ele>532.25</ele><time>2026-04-18T09:15:52.269Z</time></trkpt><trkpt lat="44.7029985" lon="9.3950402"><ele>532.0</ele><time>2026-04-18T09:15:53.269Z</time></trkpt><trkpt lat="44.7028896" lon="9.3951344"><ele>532.0</ele><time>2026-04-18T09:15:54.269Z</time></trkpt><trkpt lat="44.702761" lon="9.3952062"><ele>532.0</ele><time>2026-04-18T09:15:55.269Z</time></trkpt><trkpt lat="44.7026309" lon="9.395257"><ele>532.0</ele><time>2026-04-18T09:15:56.269Z</time></trkpt><trkpt lat="44.702497" lon="9.3953027"><ele>532.0</ele><time>2026-04-18T09:15:57.269Z</time></trkpt><trkpt lat="44.7023653" lon="9.3953545"><ele>534.25</ele><time>2026-04-18T09:15:58.268Z</time></trkpt><trkpt lat="44.7022389" lon="9.3954029"><ele>536.5</ele><time>2026-04-18T09:15:59.268Z</time></trkpt><trkpt lat="44.7021183" lon="9.3954563"><ele>538.75</ele><time>2026-04-18T09:16:00.269Z</time></trkpt><trkpt lat="44.7020083" lon="9.3955145"><ele>541.0</ele><time>2026-04-18T09:16:01.269Z</time></trkpt><trkpt lat="44.7018958" lon="9.395583"><ele>544.0</ele><time>2026-04-18T09:16:02.268Z</time></trkpt><trkpt lat="44.7017836" lon="9.3956859"><ele>547.0</ele><time>2026-04-18T09:16:03.27Z</time></trkpt><trkpt lat="44.7016848" lon="9.3958211"><ele>550.0</ele><time>2026-04-18T09:16:04.269Z</time></trkpt><trkpt lat="44.7015976" lon="9.3959709"><ele>553.0</ele><time>2026-04-18T09:16:05.268Z</time></trkpt><trkpt lat="44.7015111" lon="9.3961082"><ele>553.0</ele><time>2026-04-18T09:16:06.269Z</time></trkpt><trkpt lat="44.7014195" lon="9.3962379"><ele>553.0</ele><time>2026-04-18T09:16:07.269Z</time></trkpt><trkpt lat="44.7013157" lon="9.3963493"><ele>553.0</ele><time>2026-04-18T09:16:08.27Z</time></trkpt><trkpt lat="44.701192" lon="9.3964562"><ele>553.0</ele><time>2026-04-18T09:16:09.268Z</time></trkpt><trkpt lat="44.7010484" lon="9.3965631"><ele>554.75</ele><time>2026-04-18T09:16:10.268Z</time></trkpt><trkpt lat="44.7009044" lon="9.3966672"><ele>556.5</ele><time>2026-04-18T09:16:11.268Z</time></trkpt><trkpt lat="44.7007775" lon="9.3967632"><ele>558.25</ele><time>2026-04-18T09:16:12.268Z</time></trkpt><trkpt lat="44.7006695" lon="9.3968393"><ele>560.0</ele><time>2026-04-18T09:16:13.269Z</time></trkpt><trkpt lat="44.7005698" lon="9.3968958"><ele>560.0</ele><time>2026-04-18T09:16:14.27Z</time></trkpt><trkpt lat="44.7004763" lon="9.396903"><ele>560.0</ele><time>2026-04-18T09:16:15.27Z</time></trkpt><trkpt lat="44.7003936" lon="9.3968527"><ele>560.0</ele><time>2026-04-18T09:16:16.27Z</time></trkpt><trkpt lat="44.7003494" lon="9.3967608"><ele>560.0</ele><time>2026-04-18T09:16:17.27Z</time></trkpt><trkpt lat="44.7003451" lon="9.3966434"><ele>560.0</ele><time>2026-04-18T09:16:18.268Z</time></trkpt><trkpt lat="44.7003829" lon="9.3965332"><ele>560.0</ele><time>2026-04-18T09:16:19.268Z</time></trkpt><trkpt lat="44.7004638" lon="9.3964569"><ele>560.0</ele><time>2026-04-18T09:16:20.27Z</time></trkpt><trkpt lat="44.7005834" lon="9.3963887"><ele>560.0</ele><time>2026-04-18T09:16:21.269Z</time></trkpt><trkpt lat="44.7006954" lon="9.3963294"><ele>560.0</ele><time>2026-04-18T09:16:22.268Z</time></trkpt><trkpt lat="44.7008069" lon="9.3962531"><ele>560.0</ele><time>2026-04-18T09:16:23.269Z</time></trkpt><trkpt lat="44.7009131" lon="9.3961549"><ele>558.25</ele><time>2026-04-18T09:16:24.269Z</time></trkpt><trkpt lat="44.7010153" lon="9.3960263"><ele>556.5</ele><time>2026-04-18T09:16:25.269Z</time></trkpt><trkpt lat="44.7011018" lon="9.3958898"><ele>554.75</ele><time>2026-04-18T09:16:26.269Z</time></trkpt><trkpt lat="44.7011856" lon="9.3957558"><ele>553.0</ele><time>2026-04-18T09:16:27.268Z</time></trkpt><trkpt lat="44.7012694" lon="9.3956218"><ele>558.75</ele><time>2026-04-18T09:16:28.268Z</time></trkpt><trkpt lat="44.7013511" lon="9.3954844"><ele>564.5</ele><time>2026-04-18T09:16:29.269Z</time></trkpt><trkpt lat="44.7014293" lon="9.3953534"><ele>570.25</ele><time>2026-04-18T09:16:30.268Z</time></trkpt><trkpt lat="44.7015073" lon="9.3952299"><ele>576.0</ele><time>2026-04-18T09:16:31.268Z</time></trkpt><trkpt lat="44.7015917" lon="9.39511"><ele>576.0</ele><time>2026-04-18T09:16:32.269Z</time></trkpt><trkpt lat="44.7016914" lon="9.3950044"><ele>576.0</ele><time>2026-04-18T09:16:33.268Z</time></trkpt><trkpt lat="44.701805" lon="9.3949195"><ele>576.0</ele><time>2026-04-18T09:16:34.268Z</time></trkpt><trkpt lat="44.7019216" lon="9.3948379"><ele>576.0</ele><time>2026-04-18T09:16:35.269Z</time></trkpt><trkpt lat="44.7020295" lon="9.3947413"><ele>576.0</ele><time>2026-04-18T09:16:36.269Z</time></trkpt><trkpt lat="44.7021296" lon="9.3946415"><ele>576.0</ele><time>2026-04-18T09:16:37.269Z</time></trkpt><trkpt lat="44.702225" lon="9.3945439"><ele>576.0</ele><time>2026-04-18T09:16:38.269Z</time></trkpt><trkpt lat="44.7023135" lon="9.3944461"><ele>576.0</ele><time>2026-04-18T09:16:39.27Z</time></trkpt><trkpt lat="44.7023792" lon="9.3943298"><ele>576.0</ele><time>2026-04-18T09:16:40.269Z</time></trkpt><trkpt lat="44.7024134" lon="9.3942064"><ele>576.0</ele><time>2026-04-18T09:16:41.27Z</time></trkpt><trkpt lat="44.7024184" lon="9.3940923"><ele>576.0</ele><time>2026-04-18T09:16:42.268Z</time></trkpt><trkpt lat="44.7023829" lon="9.393993"><ele>576.0</ele><time>2026-04-18T09:16:43.27Z</time></trkpt><trkpt lat="44.702314" lon="9.3939322"><ele>576.0</ele><time>2026-04-18T09:16:44.269Z</time></trkpt><trkpt lat="44.7022225" lon="9.393916"><ele>576.0</ele><time>2026-04-18T09:16:45.27Z</time></trkpt><trkpt lat="44.70213" lon="9.3939412"><ele>576.0</ele><time>2026-04-18T09:16:46.268Z</time></trkpt><trkpt lat="44.7020379" lon="9.393976"><ele>576.0</ele><time>2026-04-18T09:16:47.268Z</time></trkpt><trkpt lat="44.7019425" lon="9.3940241"><ele>576.0</ele><time>2026-04-18T09:16:48.269Z</time></trkpt><trkpt lat="44.7018454" lon="9.3940969"><ele>576.0</ele><time>2026-04-18T09:16:49.268Z</time></trkpt><trkpt lat="44.7017543" lon="9.3941853"><ele>576.0</ele><time>2026-04-18T09:16:50.268Z</time></trkpt><trkpt lat="44.7016628" lon="9.3942805"><ele>577.75</ele><time>2026-04-18T09:16:51.268Z</time></trkpt><trkpt lat="44.7015664" lon="9.3943693"><ele>579.5</ele><time>2026-04-18T09:16:52.269Z</time></trkpt><trkpt lat="44.701462" lon="9.3944301"><ele>581.25</ele><time>2026-04-18T09:16:53.269Z</time></trkpt><trkpt lat="44.7013485" lon="9.3944568"><ele>583.0</ele><time>2026-04-18T09:16:54.269Z</time></trkpt><trkpt lat="44.7012296" lon="9.3944727"><ele>583.0</ele><time>2026-04-18T09:16:55.269Z</time></trkpt><trkpt lat="44.7011104" lon="9.3945153"><ele>583.0</ele><time>2026-04-18T09:16:56.269Z</time></trkpt><trkpt lat="44.7009938" lon="9.3945758"><ele>583.0</ele><time>2026-04-18T09:16:57.269Z</time></trkpt><trkpt lat="44.7008822" lon="9.3946426"><ele>583.0</ele><time>2026-04-18T09:16:58.269Z</time></trkpt><trkpt lat="44.7007754" lon="9.3947034"><ele>585.6</ele><time>2026-04-18T09:16:59.269Z</time></trkpt><trkpt lat="44.7006704" lon="9.3947644"><ele>588.1999999999999</ele><time>2026-04-18T09:17:00.269Z</time></trkpt><trkpt lat="44.7005715" lon="9.3948263"><ele>590.8</ele><time>2026-04-18T09:17:01.27Z</time></trkpt><trkpt lat="44.7004722" lon="9.3948787"><ele>593.4</ele><time>2026-04-18T09:17:02.269Z</time></trkpt><trkpt lat="44.7003684" lon="9.3949067"><ele>596.0</ele><time>2026-04-18T09:17:03.269Z</time></trkpt><trkpt lat="44.700263" lon="9.3948949"><ele>597.5</ele><time>2026-04-18T09:17:04.27Z</time></trkpt><trkpt lat="44.7001615" lon="9.3948389"><ele>599.0</ele><time>2026-04-18T09:17:05.268Z</time></trkpt><trkpt lat="44.7000737" lon="9.3947477"><ele>600.5</ele><time>2026-04-18T09:17:06.268Z</time></trkpt><trkpt lat="44.7000005" lon="9.3946256"><ele>602.0</ele><time>2026-04-18T09:17:07.268Z</time></trkpt><trkpt lat="44.6999254" lon="9.3944901"><ele>602.0</ele><time>2026-04-18T09:17:08.268Z</time></trkpt><trkpt lat="44.6998603" lon="9.3943576"><ele>602.0</ele><time>2026-04-18T09:17:09.269Z</time></trkpt><trkpt lat="44.6997963" lon="9.3942206"><ele>602.0</ele><time>2026-04-18T09:17:10.27Z</time></trkpt><trkpt lat="44.6997328" lon="9.394084"><ele>602.0</ele><time>2026-04-18T09:17:11.268Z</time></trkpt><trkpt lat="44.6996694" lon="9.3939507"><ele>600.2</ele><time>2026-04-18T09:17:12.27Z</time></trkpt><trkpt lat="44.6996103" lon="9.3938149"><ele>598.4000000000001</ele><time>2026-04-18T09:17:13.268Z</time></trkpt><trkpt lat="44.6995478" lon="9.3936821"><ele>596.5999999999999</ele><time>2026-04-18T09:17:14.269Z</time></trkpt><trkpt lat="44.6994774" lon="9.393561"><ele>594.8</ele><time>2026-04-18T09:17:15.269Z</time></trkpt><trkpt lat="44.6994043" lon="9.3934562"><ele>593.0</ele><time>2026-04-18T09:17:16.269Z</time></trkpt><trkpt lat="44.6993302" lon="9.3933539"><ele>598.3333333333333</ele><time>2026-04-18T09:17:17.268Z</time></trkpt><trkpt lat="44.6992662" lon="9.3932615"><ele>603.6666666666666</ele><time>2026-04-18T09:17:18.268Z</time></trkpt><trkpt lat="44.6992191" lon="9.3931766"><ele>609.0</ele><time>2026-04-18T09:17:19.268Z</time></trkpt><trkpt lat="44.6991861" lon="9.3930793"><ele>614.3333333333334</ele><time>2026-04-18T09:17:20.269Z</time></trkpt><trkpt lat="44.6991736" lon="9.3929732"><ele>619.6666666666667</ele><time>2026-04-18T09:17:21.268Z</time></trkpt><trkpt lat="44.6991836" lon="9.3928691"><ele>625.0</ele><time>2026-04-18T09:17:22.269Z</time></trkpt><trkpt lat="44.6992134" lon="9.3927659"><ele>625.0</ele><time>2026-04-18T09:17:23.268Z</time></trkpt><trkpt lat="44.6992571" lon="9.3926605"><ele>625.0</ele><time>2026-04-18T09:17:24.268Z</time></trkpt><trkpt lat="44.6993021" lon="9.3925474"><ele>625.0</ele><time>2026-04-18T09:17:25.269Z</time></trkpt><trkpt lat="44.6993451" lon="9.3924311"><ele>625.0</ele><time>2026-04-18T09:17:26.269Z</time></trkpt><trkpt lat="44.6993919" lon="9.3923168"><ele>625.0</ele><time>2026-04-18T09:17:27.27Z</time></trkpt><trkpt lat="44.6994384" lon="9.392195"><ele>623.2</ele><time>2026-04-18T09:17:28.269Z</time></trkpt><trkpt lat="44.6994694" lon="9.392061"><ele>621.4</ele><time>2026-04-18T09:17:29.27Z</time></trkpt><trkpt lat="44.6994694" lon="9.3919201"><ele>619.6</ele><time>2026-04-18T09:17:30.268Z</time></trkpt><trkpt lat="44.6994367" lon="9.391792"><ele>617.8</ele><time>2026-04-18T09:17:31.269Z</time></trkpt><trkpt lat="44.6993734" lon="9.3916823"><ele>616.0</ele><time>2026-04-18T09:17:32.269Z</time></trkpt><trkpt lat="44.6992866" lon="9.3916134"><ele>616.0</ele><time>2026-04-18T09:17:33.27Z</time></trkpt><trkpt lat="44.6991853" lon="9.3915846"><ele>616.0</ele><time>2026-04-18T09:17:34.269Z</time></trkpt><trkpt lat="44.699091" lon="9.3916061"><ele>616.0</ele><time>2026-04-18T09:17:35.27Z</time></trkpt><trkpt lat="44.6990044" lon="9.3916779"><ele>616.0</ele><time>2026-04-18T09:17:36.269Z</time></trkpt><trkpt lat="44.6989434" lon="9.3917903"><ele>616.0</ele><time>2026-04-18T09:17:37.27Z</time></trkpt><trkpt lat="44.6988999" lon="9.391926"><ele>616.0</ele><time>2026-04-18T09:17:38.268Z</time></trkpt><trkpt lat="44.698862" lon="9.3920503"><ele>616.0</ele><time>2026-04-18T09:17:39.269Z</time></trkpt><trkpt lat="44.6988208" lon="9.3921758"><ele>616.0</ele><time>2026-04-18T09:17:40.27Z</time></trkpt><trkpt lat="44.6987706" lon="9.3923009"><ele>616.0</ele><time>2026-04-18T09:17:41.268Z</time></trkpt><trkpt lat="44.698697" lon="9.3924086"><ele>616.0</ele><time>2026-04-18T09:17:42.268Z</time></trkpt><trkpt lat="44.6986001" lon="9.3924879"><ele>620.6</ele><time>2026-04-18T09:17:43.268Z</time></trkpt><trkpt lat="44.6984966" lon="9.392534"><ele>625.2</ele><time>2026-04-18T09:17:44.269Z</time></trkpt><trkpt lat="44.6983989" lon="9.3925632"><ele>629.8</ele><time>2026-04-18T09:17:45.269Z</time></trkpt><trkpt lat="44.6982978" lon="9.3925862"><ele>634.4</ele><time>2026-04-18T09:17:46.269Z</time></trkpt><trkpt lat="44.6982" lon="9.3925948"><ele>639.0</ele><time>2026-04-18T09:17:47.27Z</time></trkpt><trkpt lat="44.6980996" lon="9.3925851"><ele>639.0</ele><time>2026-04-18T09:17:48.269Z</time></trkpt><trkpt lat="44.6980022" lon="9.3925646"><ele>639.0</ele><time>2026-04-18T09:17:49.27Z</time></trkpt><trkpt lat="44.6979058" lon="9.3925542"><ele>639.0</ele><time>2026-04-18T09:17:50.27Z</time></trkpt><trkpt lat="44.6978087" lon="9.3925659"><ele>639.0</ele><time>2026-04-18T09:17:51.268Z</time></trkpt><trkpt lat="44.6977162" lon="9.3925999"><ele>639.0</ele><time>2026-04-18T09:17:52.269Z</time></trkpt><trkpt lat="44.6976256" lon="9.3926467"><ele>640.0</ele><time>2026-04-18T09:17:53.269Z</time></trkpt><trkpt lat="44.6975338" lon="9.3926962"><ele>641.0</ele><time>2026-04-18T09:17:54.269Z</time></trkpt><trkpt lat="44.6974375" lon="9.3927264"><ele>642.0</ele><time>2026-04-18T09:17:55.269Z</time></trkpt><trkpt lat="44.6973443" lon="9.3927223"><ele>643.0</ele><time>2026-04-18T09:17:56.269Z</time></trkpt><trkpt lat="44.697264" lon="9.3927013"><ele>644.0</ele><time>2026-04-18T09:17:57.268Z</time></trkpt><trkpt lat="44.6971892" lon="9.3926659"><ele>644.0</ele><time>2026-04-18T09:17:58.269Z</time></trkpt><trkpt lat="44.697111" lon="9.3926181"><ele>644.0</ele><time>2026-04-18T09:17:59.27Z</time></trkpt><trkpt lat="44.6970325" lon="9.3925835"><ele>644.0</ele><time>2026-04-18T09:18:00.27Z</time></trkpt><trkpt lat="44.6969473" lon="9.3925571"><ele>644.0</ele><time>2026-04-18T09:18:01.269Z</time></trkpt><trkpt lat="44.696857" lon="9.392546"><ele>644.0</ele><time>2026-04-18T09:18:02.27Z</time></trkpt><trkpt lat="44.6967658" lon="9.392551"><ele>644.0</ele><time>2026-04-18T09:18:03.269Z</time></trkpt><trkpt lat="44.6966756" lon="9.3925565"><ele>644.6666666666666</ele><time>2026-04-18T09:18:04.269Z</time></trkpt><trkpt lat="44.6965929" lon="9.3925476"><ele>645.3333333333333</ele><time>2026-04-18T09:18:05.268Z</time></trkpt><trkpt lat="44.6965114" lon="9.3925166"><ele>646.0</ele><time>2026-04-18T09:18:06.268Z</time></trkpt><trkpt lat="44.6964407" lon="9.3924497"><ele>646.6666666666666</ele><time>2026-04-18T09:18:07.268Z</time></trkpt><trkpt lat="44.696389" lon="9.3923537"><ele>647.3333333333334</ele><time>2026-04-18T09:18:08.269Z</time></trkpt><trkpt lat="44.6963565" lon="9.3922501"><ele>648.0</ele><time>2026-04-18T09:18:09.269Z</time></trkpt><trkpt lat="44.696327" lon="9.3921337"><ele>648.0</ele><time>2026-04-18T09:18:10.268Z</time></trkpt><trkpt lat="44.6963029" lon="9.3920185"><ele>648.0</ele><time>2026-04-18T09:18:11.269Z</time></trkpt><trkpt lat="44.6962752" lon="9.3919069"><ele>648.0</ele><time>2026-04-18T09:18:12.269Z</time></trkpt><trkpt lat="44.6962425" lon="9.391794"><ele>648.0</ele><time>2026-04-18T09:18:13.269Z</time></trkpt><trkpt lat="44.6962127" lon="9.3916795"><ele>648.0</ele><time>2026-04-18T09:18:14.268Z</time></trkpt><trkpt lat="44.6961888" lon="9.3915539"><ele>648.0</ele><time>2026-04-18T09:18:15.268Z</time></trkpt><trkpt lat="44.6961751" lon="9.3914279"><ele>647.4</ele><time>2026-04-18T09:18:16.269Z</time></trkpt><trkpt lat="44.6961763" lon="9.3912966"><ele>646.8</ele><time>2026-04-18T09:18:17.27Z</time></trkpt><trkpt lat="44.6961993" lon="9.3911609"><ele>646.2</ele><time>2026-04-18T09:18:18.269Z</time></trkpt><trkpt lat="44.6962443" lon="9.3910397"><ele>645.6</ele><time>2026-04-18T09:18:19.27Z</time></trkpt><trkpt lat="44.6963024" lon="9.3909281"><ele>645.0</ele><time>2026-04-18T09:18:20.269Z</time></trkpt><trkpt lat="44.6963604" lon="9.3908002"><ele>645.0</ele><time>2026-04-18T09:18:21.27Z</time></trkpt><trkpt lat="44.6964011" lon="9.390661"><ele>645.0</ele><time>2026-04-18T09:18:22.268Z</time></trkpt><trkpt lat="44.6964033" lon="9.3905184"><ele>645.0</ele><time>2026-04-18T09:18:23.268Z</time></trkpt><trkpt lat="44.696376" lon="9.390393"><ele>645.0</ele><time>2026-04-18T09:18:24.27Z</time></trkpt><trkpt lat="44.6963304" lon="9.3902932"><ele>645.0</ele><time>2026-04-18T09:18:25.269Z</time></trkpt><trkpt lat="44.6962741" lon="9.3902139"><ele>645.3333333333334</ele><time>2026-04-18T09:18:26.269Z</time></trkpt><trkpt lat="44.6962074" lon="9.3901665"><ele>645.6666666666666</ele><time>2026-04-18T09:18:27.269Z</time></trkpt><trkpt lat="44.6961327" lon="9.3901575"><ele>646.0</ele><time>2026-04-18T09:18:28.268Z</time></trkpt><trkpt lat="44.6960644" lon="9.3901845"><ele>646.3333333333333</ele><time>2026-04-18T09:18:29.27Z</time></trkpt><trkpt lat="44.6959738" lon="9.390262"><ele>646.6666666666666</ele><time>2026-04-18T09:18:31.27Z</time></trkpt><trkpt lat="44.6959606" lon="9.3904115"><ele>647.0</ele><time>2026-04-18T09:18:33.269Z</time></trkpt><trkpt lat="44.6959757" lon="9.3905302"><ele>650.3333333333333</ele><time>2026-04-18T09:18:35.27Z</time></trkpt><trkpt lat="44.6959704" lon="9.3906897"><ele>653.6666666666666</ele><time>2026-04-18T09:18:37.269Z</time></trkpt><trkpt lat="44.6959594" lon="9.3907881"><ele>657.0</ele><time>2026-04-18T09:18:38.269Z</time></trkpt><trkpt lat="44.6959394" lon="9.3908781"><ele>660.3333333333334</ele><time>2026-04-18T09:18:39.268Z</time></trkpt><trkpt lat="44.6959095" lon="9.3909776"><ele>663.6666666666667</ele><time>2026-04-18T09:18:40.268Z</time></trkpt><trkpt lat="44.6958708" lon="9.3910759"><ele>667.0</ele><time>2026-04-18T09:18:41.27Z</time></trkpt><trkpt lat="44.6958323" lon="9.3911835"><ele>667.0</ele><time>2026-04-18T09:18:42.268Z</time></trkpt><trkpt lat="44.6958014" lon="9.3912953"><ele>667.0</ele><time>2026-04-18T09:18:43.268Z</time></trkpt><trkpt lat="44.6957781" lon="9.3913874"><ele>667.0</ele><time>2026-04-18T09:18:44.268Z</time></trkpt><trkpt lat="44.6957529" lon="9.3915119"><ele>667.0</ele><time>2026-04-18T09:18:46.27Z</time></trkpt><trkpt lat="44.6957339" lon="9.3916111"><ele>667.0</ele><time>2026-04-18T09:18:48.268Z</time></trkpt><trkpt lat="44.6956921" lon="9.3917936"><ele>667.6</ele><time>2026-04-18T09:18:50.268Z</time></trkpt><trkpt lat="44.695664" lon="9.3918992"><ele>668.2</ele><time>2026-04-18T09:18:51.268Z</time></trkpt><trkpt lat="44.6956372" lon="9.3920175"><ele>668.8</ele><time>2026-04-18T09:18:52.268Z</time></trkpt><trkpt lat="44.695621" lon="9.3921522"><ele>669.4</ele><time>2026-04-18T09:18:53.268Z</time></trkpt><trkpt lat="44.6956129" lon="9.3922958"><ele>670.0</ele><time>2026-04-18T09:18:54.268Z</time></trkpt><trkpt lat="44.6956102" lon="9.3924446"><ele>670.6</ele><time>2026-04-18T09:18:55.268Z</time></trkpt><trkpt lat="44.6956058" lon="9.3926043"><ele>671.2</ele><time>2026-04-18T09:18:56.268Z</time></trkpt><trkpt lat="44.695594" lon="9.3927484"><ele>671.8</ele><time>2026-04-18T09:18:57.269Z</time></trkpt><trkpt lat="44.6955852" lon="9.3929005"><ele>672.4</ele><time>2026-04-18T09:18:58.269Z</time></trkpt><trkpt lat="44.6955948" lon="9.393058"><ele>673.0</ele><time>2026-04-18T09:18:59.27Z</time></trkpt><trkpt lat="44.6956219" lon="9.3932166"><ele>673.75</ele><time>2026-04-18T09:19:00.269Z</time></trkpt><trkpt lat="44.6956673" lon="9.3933636"><ele>674.5</ele><time>2026-04-18T09:19:01.268Z</time></trkpt><trkpt lat="44.6957214" lon="9.3935086"><ele>675.25</ele><time>2026-04-18T09:19:02.268Z</time></trkpt><trkpt lat="44.6957673" lon="9.3936521"><ele>676.0</ele><time>2026-04-18T09:19:03.268Z</time></trkpt><trkpt lat="44.6958004" lon="9.3937958"><ele>678.25</ele><time>2026-04-18T09:19:04.268Z</time></trkpt><trkpt lat="44.6958411" lon="9.393939"><ele>680.5</ele><time>2026-04-18T09:19:05.268Z</time></trkpt><trkpt lat="44.6958939" lon="9.3940818"><ele>682.75</ele><time>2026-04-18T09:19:06.269Z</time></trkpt><trkpt lat="44.6959534" lon="9.3942263"><ele>685.0</ele><time>2026-04-18T09:19:07.269Z</time></trkpt><trkpt lat="44.6960179" lon="9.3943644"><ele>685.0</ele><time>2026-04-18T09:19:08.269Z</time></trkpt><trkpt lat="44.6960798" lon="9.3944991"><ele>685.0</ele><time>2026-04-18T09:19:09.268Z</time></trkpt><trkpt lat="44.6961268" lon="9.3946372"><ele>685.0</ele><time>2026-04-18T09:19:10.269Z</time></trkpt><trkpt lat="44.6961573" lon="9.3947821"><ele>685.0</ele><time>2026-04-18T09:19:11.27Z</time></trkpt><trkpt lat="44.6961839" lon="9.3949228"><ele>685.0</ele><time>2026-04-18T09:19:12.269Z</time></trkpt><trkpt lat="44.6962068" lon="9.3950547"><ele>687.2</ele><time>2026-04-18T09:19:13.269Z</time></trkpt><trkpt lat="44.6962399" lon="9.3951757"><ele>689.4</ele><time>2026-04-18T09:19:14.27Z</time></trkpt><trkpt lat="44.6962833" lon="9.3952777"><ele>691.5999999999999</ele><time>2026-04-18T09:19:15.269Z</time></trkpt><trkpt lat="44.6963212" lon="9.3953935"><ele>693.8</ele><time>2026-04-18T09:19:16.269Z</time></trkpt><trkpt lat="44.696325" lon="9.3955169"><ele>696.0</ele><time>2026-04-18T09:19:17.269Z</time></trkpt><trkpt lat="44.696307" lon="9.3956483"><ele>698.5999999999999</ele><time>2026-04-18T09:19:18.268Z</time></trkpt><trkpt lat="44.6962749" lon="9.3957753"><ele>701.2</ele><time>2026-04-18T09:19:19.269Z</time></trkpt><trkpt lat="44.6962358" lon="9.395891"><ele>703.8</ele><time>2026-04-18T09:19:20.268Z</time></trkpt><trkpt lat="44.6961995" lon="9.3960037"><ele>706.4000000000001</ele><time>2026-04-18T09:19:21.27Z</time></trkpt><trkpt lat="44.696163" lon="9.3961182"><ele>709.0</ele><time>2026-04-18T09:19:22.269Z</time></trkpt><trkpt lat="44.6961248" lon="9.3962307"><ele>709.8000000000001</ele><time>2026-04-18T09:19:23.269Z</time></trkpt><trkpt lat="44.6960817" lon="9.3963406"><ele>710.6</ele><time>2026-04-18T09:19:24.269Z</time></trkpt><trkpt lat="44.6960353" lon="9.3964406"><ele>711.4</ele><time>2026-04-18T09:19:25.269Z</time></trkpt><trkpt lat="44.6959667" lon="9.3965297"><ele>712.2</ele><time>2026-04-18T09:19:26.269Z</time></trkpt><trkpt lat="44.6958831" lon="9.396603"><ele>713.0</ele><time>2026-04-18T09:19:27.27Z</time></trkpt><trkpt lat="44.6957847" lon="9.3966445"><ele>713.0</ele><time>2026-04-18T09:19:28.269Z</time></trkpt><trkpt lat="44.6956844" lon="9.3966488"><ele>713.0</ele><time>2026-04-18T09:19:29.268Z</time></trkpt><trkpt lat="44.6955843" lon="9.3966248"><ele>713.0</ele><time>2026-04-18T09:19:30.268Z</time></trkpt><trkpt lat="44.6954948" lon="9.3965753"><ele>713.0</ele><time>2026-04-18T09:19:31.269Z</time></trkpt><trkpt lat="44.6954092" lon="9.3964902"><ele>713.0</ele><time>2026-04-18T09:19:32.268Z</time></trkpt><trkpt lat="44.6953352" lon="9.3963849"><ele>712.5999999999999</ele><time>2026-04-18T09:19:33.27Z</time></trkpt><trkpt lat="44.6952486" lon="9.3962914"><ele>712.1999999999999</ele><time>2026-04-18T09:19:34.269Z</time></trkpt><trkpt lat="44.6951534" lon="9.3962284"><ele>711.8</ele><time>2026-04-18T09:19:35.269Z</time></trkpt><trkpt lat="44.6950484" lon="9.3961678"><ele>711.4</ele><time>2026-04-18T09:19:36.27Z</time></trkpt><trkpt lat="44.6949433" lon="9.3961011"><ele>711.0</ele><time>2026-04-18T09:19:37.268Z</time></trkpt><trkpt lat="44.6948431" lon="9.3960275"><ele>711.0</ele><time>2026-04-18T09:19:38.27Z</time></trkpt><trkpt lat="44.6947526" lon="9.3959494"><ele>711.0</ele><time>2026-04-18T09:19:39.268Z</time></trkpt><trkpt lat="44.6946729" lon="9.3958703"><ele>711.0</ele><time>2026-04-18T09:19:40.269Z</time></trkpt><trkpt lat="44.6945953" lon="9.3957805"><ele>711.0</ele><time>2026-04-18T09:19:41.268Z</time></trkpt><trkpt lat="44.694529" lon="9.3956876"><ele>711.0</ele><time>2026-04-18T09:19:42.27Z</time></trkpt><trkpt lat="44.6944564" lon="9.3956029"><ele>712.1999999999999</ele><time>2026-04-18T09:19:43.269Z</time></trkpt><trkpt lat="44.6943798" lon="9.3955367"><ele>713.4</ele><time>2026-04-18T09:19:44.269Z</time></trkpt><trkpt lat="44.6942969" lon="9.3954868"><ele>714.6</ele><time>2026-04-18T09:19:45.268Z</time></trkpt><trkpt lat="44.6942048" lon="9.3954523"><ele>715.8</ele><time>2026-04-18T09:19:46.268Z</time></trkpt><trkpt lat="44.6941003" lon="9.3954164"><ele>717.0</ele><time>2026-04-18T09:19:47.269Z</time></trkpt><trkpt lat="44.6939977" lon="9.3953811"><ele>717.0</ele><time>2026-04-18T09:19:48.269Z</time></trkpt><trkpt lat="44.6938979" lon="9.395344"><ele>717.0</ele><time>2026-04-18T09:19:49.268Z</time></trkpt><trkpt lat="44.6938023" lon="9.3953052"><ele>717.0</ele><time>2026-04-18T09:19:50.269Z</time></trkpt><trkpt lat="44.6937072" lon="9.3952675"><ele>717.0</ele><time>2026-04-18T09:19:51.27Z</time></trkpt><trkpt lat="44.6936143" lon="9.3952554"><ele>717.0</ele><time>2026-04-18T09:19:52.27Z</time></trkpt><trkpt lat="44.6935176" lon="9.3952889"><ele>718.8</ele><time>2026-04-18T09:19:53.268Z</time></trkpt><trkpt lat="44.6934261" lon="9.3953589"><ele>720.6</ele><time>2026-04-18T09:19:54.268Z</time></trkpt><trkpt lat="44.6933371" lon="9.3954639"><ele>722.4</ele><time>2026-04-18T09:19:55.269Z</time></trkpt><trkpt lat="44.6932542" lon="9.3955762"><ele>724.1999999999999</ele><time>2026-04-18T09:19:56.268Z</time></trkpt><trkpt lat="44.6931797" lon="9.3956877"><ele>726.0</ele><time>2026-04-18T09:19:57.268Z</time></trkpt><trkpt lat="44.6931125" lon="9.3957991"><ele>728.4</ele><time>2026-04-18T09:19:58.269Z</time></trkpt><trkpt lat="44.6930556" lon="9.3959154"><ele>730.8</ele><time>2026-04-18T09:19:59.269Z</time></trkpt><trkpt lat="44.6930148" lon="9.396042"><ele>733.1999999999999</ele><time>2026-04-18T09:20:00.269Z</time></trkpt><trkpt lat="44.6930054" lon="9.3961762"><ele>735.5999999999999</ele><time>2026-04-18T09:20:01.268Z</time></trkpt><trkpt lat="44.6930247" lon="9.396329"><ele>738.0</ele><time>2026-04-18T09:20:02.268Z</time></trkpt><trkpt lat="44.6930523" lon="9.3964777"><ele>739.4</ele><time>2026-04-18T09:20:03.269Z</time></trkpt><trkpt lat="44.6930851" lon="9.3966155"><ele>740.8</ele><time>2026-04-18T09:20:04.269Z</time></trkpt><trkpt lat="44.6931118" lon="9.3967482"><ele>742.2</ele><time>2026-04-18T09:20:05.269Z</time></trkpt><trkpt lat="44.6931269" lon="9.3968707"><ele>743.6</ele><time>2026-04-18T09:20:06.269Z</time></trkpt><trkpt lat="44.6931246" lon="9.3969876"><ele>745.0</ele><time>2026-04-18T09:20:07.269Z</time></trkpt><trkpt lat="44.6931058" lon="9.3971035"><ele>745.5</ele><time>2026-04-18T09:20:08.268Z</time></trkpt><trkpt lat="44.6930868" lon="9.3972248"><ele>746.0</ele><time>2026-04-18T09:20:09.268Z</time></trkpt><trkpt lat="44.6931037" lon="9.3973365"><ele>746.5</ele><time>2026-04-18T09:20:10.269Z</time></trkpt><trkpt lat="44.6931508" lon="9.3974231"><ele>747.0</ele><time>2026-04-18T09:20:11.269Z</time></trkpt><trkpt lat="44.6932155" lon="9.3974879"><ele>747.5</ele><time>2026-04-18T09:20:12.269Z</time></trkpt><trkpt lat="44.6932789" lon="9.3975512"><ele>748.0</ele><time>2026-04-18T09:20:13.268Z</time></trkpt><trkpt lat="44.6933347" lon="9.397637"><ele>748.0</ele><time>2026-04-18T09:20:14.269Z</time></trkpt><trkpt lat="44.69338" lon="9.3977442"><ele>748.0</ele><time>2026-04-18T09:20:15.269Z</time></trkpt><trkpt lat="44.6934217" lon="9.3978582"><ele>748.0</ele><time>2026-04-18T09:20:16.268Z</time></trkpt><trkpt lat="44.6934647" lon="9.3979814"><ele>748.0</ele><time>2026-04-18T09:20:17.268Z</time></trkpt><trkpt lat="44.6935101" lon="9.3980982"><ele>748.0</ele><time>2026-04-18T09:20:18.268Z</time></trkpt><trkpt lat="44.6935572" lon="9.398228"><ele>749.2</ele><time>2026-04-18T09:20:19.27Z</time></trkpt><trkpt lat="44.6936045" lon="9.3983651"><ele>750.4</ele><time>2026-04-18T09:20:20.269Z</time></trkpt><trkpt lat="44.6936511" lon="9.3985074"><ele>751.6</ele><time>2026-04-18T09:20:21.269Z</time></trkpt><trkpt lat="44.6937022" lon="9.3986445"><ele>752.8000000000001</ele><time>2026-04-18T09:20:22.268Z</time></trkpt><trkpt lat="44.6937632" lon="9.398778"><ele>754.0</ele><time>2026-04-18T09:20:23.268Z</time></trkpt><trkpt lat="44.6938362" lon="9.3989061"><ele>754.0</ele><time>2026-04-18T09:20:24.268Z</time></trkpt><trkpt lat="44.6939197" lon="9.399024"><ele>754.0</ele><time>2026-04-18T09:20:25.268Z</time></trkpt><trkpt lat="44.69401" lon="9.3991325"><ele>754.0</ele><time>2026-04-18T09:20:26.269Z</time></trkpt><trkpt lat="44.6941056" lon="9.3992275"><ele>754.0</ele><time>2026-04-18T09:20:27.269Z</time></trkpt><trkpt lat="44.6942041" lon="9.3993051"><ele>754.0</ele><time>2026-04-18T09:20:28.269Z</time></trkpt><trkpt lat="44.6942976" lon="9.3993779"><ele>754.0</ele><time>2026-04-18T09:20:29.269Z</time></trkpt><trkpt lat="44.6943834" lon="9.3994653"><ele>754.0</ele><time>2026-04-18T09:20:30.269Z</time></trkpt><trkpt lat="44.6944464" lon="9.3995847"><ele>754.0</ele><time>2026-04-18T09:20:31.269Z</time></trkpt><trkpt lat="44.694485" lon="9.3997359"><ele>754.0</ele><time>2026-04-18T09:20:32.269Z</time></trkpt><trkpt lat="44.6945072" lon="9.3999045"><ele>754.2</ele><time>2026-04-18T09:20:33.268Z</time></trkpt><trkpt lat="44.694525" lon="9.4000581"><ele>754.4000000000001</ele><time>2026-04-18T09:20:34.268Z</time></trkpt><trkpt lat="44.6945452" lon="9.4002071"><ele>754.6</ele><time>2026-04-18T09:20:35.268Z</time></trkpt><trkpt lat="44.694571" lon="9.4003567"><ele>754.8</ele><time>2026-04-18T09:20:36.269Z</time></trkpt><trkpt lat="44.6946092" lon="9.400493"><ele>755.0</ele><time>2026-04-18T09:20:37.27Z</time></trkpt><trkpt lat="44.6946651" lon="9.4006146"><ele>757.6</ele><time>2026-04-18T09:20:38.269Z</time></trkpt><trkpt lat="44.6947397" lon="9.4007208"><ele>760.2</ele><time>2026-04-18T09:20:39.27Z</time></trkpt><trkpt lat="44.694819" lon="9.400809"><ele>762.8</ele><time>2026-04-18T09:20:40.269Z</time></trkpt><trkpt lat="44.6949045" lon="9.4008983"><ele>765.4</ele><time>2026-04-18T09:20:41.269Z</time></trkpt><trkpt lat="44.6949889" lon="9.4009876"><ele>768.0</ele><time>2026-04-18T09:20:42.269Z</time></trkpt><trkpt lat="44.6950672" lon="9.4010774"><ele>768.0</ele><time>2026-04-18T09:20:43.269Z</time></trkpt><trkpt lat="44.6951325" lon="9.4011584"><ele>768.0</ele><time>2026-04-18T09:20:44.269Z</time></trkpt><trkpt lat="44.6951847" lon="9.4012221"><ele>768.0</ele><time>2026-04-18T09:20:45.27Z</time></trkpt><trkpt lat="44.6952263" lon="9.4012943"><ele>768.0</ele><time>2026-04-18T09:20:46.27Z</time></trkpt><trkpt lat="44.6952473" lon="9.4014075"><ele>768.0</ele><time>2026-04-18T09:20:47.268Z</time></trkpt><trkpt lat="44.695232" lon="9.4015259"><ele>768.0</ele><time>2026-04-18T09:20:48.268Z</time></trkpt><trkpt lat="44.6951976" lon="9.4016485"><ele>769.5999999999999</ele><time>2026-04-18T09:20:49.268Z</time></trkpt><trkpt lat="44.6951563" lon="9.4017796"><ele>771.1999999999999</ele><time>2026-04-18T09:20:50.27Z</time></trkpt><trkpt lat="44.6951174" lon="9.4019159"><ele>772.8</ele><time>2026-04-18T09:20:51.27Z</time></trkpt><trkpt lat="44.6950806" lon="9.4020566"><ele>774.4</ele><time>2026-04-18T09:20:52.268Z</time></trkpt><trkpt lat="44.6950421" lon="9.4021991"><ele>776.0</ele><time>2026-04-18T09:20:53.269Z</time></trkpt><trkpt lat="44.6950043" lon="9.4023398"><ele>776.0</ele><time>2026-04-18T09:20:54.268Z</time></trkpt><trkpt lat="44.6949686" lon="9.4024787"><ele>776.0</ele><time>2026-04-18T09:20:55.269Z</time></trkpt><trkpt lat="44.6949368" lon="9.4025969"><ele>776.0</ele><time>2026-04-18T09:20:56.27Z</time></trkpt><trkpt lat="44.6949102" lon="9.4027203"><ele>776.0</ele><time>2026-04-18T09:20:57.269Z</time></trkpt><trkpt lat="44.6948937" lon="9.4028529"><ele>776.0</ele><time>2026-04-18T09:20:58.268Z</time></trkpt><trkpt lat="44.6948817" lon="9.4029884"><ele>776.8</ele><time>2026-04-18T09:20:59.267Z</time></trkpt><trkpt lat="44.6948741" lon="9.4031153"><ele>777.5999999999999</ele><time>2026-04-18T09:21:00.268Z</time></trkpt><trkpt lat="44.6948716" lon="9.4032387"><ele>778.4</ele><time>2026-04-18T09:21:01.267Z</time></trkpt><trkpt lat="44.6948909" lon="9.4033617"><ele>779.2</ele><time>2026-04-18T09:21:02.267Z</time></trkpt><trkpt lat="44.694936" lon="9.4034856"><ele>780.0</ele><time>2026-04-18T09:21:03.268Z</time></trkpt><trkpt lat="44.6949967" lon="9.4035972"><ele>780.0</ele><time>2026-04-18T09:21:04.267Z</time></trkpt><trkpt lat="44.6950613" lon="9.4037048"><ele>780.0</ele><time>2026-04-18T09:21:05.268Z</time></trkpt><trkpt lat="44.6951154" lon="9.4038173"><ele>780.0</ele><time>2026-04-18T09:21:06.268Z</time></trkpt><trkpt lat="44.6951481" lon="9.4039405"><ele>780.0</ele><time>2026-04-18T09:21:07.269Z</time></trkpt><trkpt lat="44.6951498" lon="9.4040721"><ele>780.0</ele><time>2026-04-18T09:21:08.269Z</time></trkpt><trkpt lat="44.6951178" lon="9.4041977"><ele>780.0</ele><time>2026-04-18T09:21:09.268Z</time></trkpt><trkpt lat="44.6950593" lon="9.404306"><ele>780.0</ele><time>2026-04-18T09:21:10.267Z</time></trkpt><trkpt lat="44.6949772" lon="9.4043872"><ele>780.0</ele><time>2026-04-18T09:21:11.268Z</time></trkpt><trkpt lat="44.6948827" lon="9.4044486"><ele>780.0</ele><time>2026-04-18T09:21:12.268Z</time></trkpt><trkpt lat="44.6947812" lon="9.4045054"><ele>780.0</ele><time>2026-04-18T09:21:13.268Z</time></trkpt><trkpt lat="44.6946776" lon="9.4045702"><ele>780.0</ele><time>2026-04-18T09:21:14.267Z</time></trkpt><trkpt lat="44.6945873" lon="9.4046371"><ele>780.0</ele><time>2026-04-18T09:21:15.268Z</time></trkpt><trkpt lat="44.6945211" lon="9.4047267"><ele>780.0</ele><time>2026-04-18T09:21:16.268Z</time></trkpt><trkpt lat="44.6944798" lon="9.4048374"><ele>780.0</ele><time>2026-04-18T09:21:17.269Z</time></trkpt><trkpt lat="44.6944566" lon="9.4049569"><ele>780.0</ele><time>2026-04-18T09:21:18.268Z</time></trkpt><trkpt lat="44.6944284" lon="9.405071"><ele>781.6666666666666</ele><time>2026-04-18T09:21:19.268Z</time></trkpt><trkpt lat="44.6943872" lon="9.4051721"><ele>783.3333333333333</ele><time>2026-04-18T09:21:20.268Z</time></trkpt><trkpt lat="44.6943143" lon="9.4052377"><ele>785.0</ele><time>2026-04-18T09:21:21.268Z</time></trkpt><trkpt lat="44.6942271" lon="9.4052674"><ele>786.6666666666666</ele><time>2026-04-18T09:21:22.268Z</time></trkpt><trkpt lat="44.6941466" lon="9.4053184"><ele>788.3333333333333</ele><time>2026-04-18T09:21:23.269Z</time></trkpt><trkpt lat="44.6940863" lon="9.4054301"><ele>790.0</ele><time>2026-04-18T09:21:24.268Z</time></trkpt><trkpt lat="44.6940548" lon="9.4055614"><ele>790.0</ele><time>2026-04-18T09:21:25.267Z</time></trkpt><trkpt lat="44.6940185" lon="9.4056897"><ele>790.0</ele><time>2026-04-18T09:21:26.268Z</time></trkpt><trkpt lat="44.6939698" lon="9.4058093"><ele>790.0</ele><time>2026-04-18T09:21:27.268Z</time></trkpt><trkpt lat="44.6939154" lon="9.4059307"><ele>790.0</ele><time>2026-04-18T09:21:28.269Z</time></trkpt><trkpt lat="44.6938623" lon="9.4060551"><ele>790.0</ele><time>2026-04-18T09:21:29.268Z</time></trkpt><trkpt lat="44.6938145" lon="9.4061836"><ele>790.0</ele><time>2026-04-18T09:21:30.269Z</time></trkpt><trkpt lat="44.693783" lon="9.4063176"><ele>790.0</ele><time>2026-04-18T09:21:31.269Z</time></trkpt><trkpt lat="44.6937754" lon="9.4064628"><ele>790.0</ele><time>2026-04-18T09:21:32.267Z</time></trkpt><trkpt lat="44.6937954" lon="9.4066038"><ele>790.0</ele><time>2026-04-18T09:21:33.267Z</time></trkpt><trkpt lat="44.6938416" lon="9.4067325"><ele>790.0</ele><time>2026-04-18T09:21:34.268Z</time></trkpt><trkpt lat="44.6938991" lon="9.406852"><ele>790.2</ele><time>2026-04-18T09:21:35.268Z</time></trkpt><trkpt lat="44.693963" lon="9.40697"><ele>790.4</ele><time>2026-04-18T09:21:36.268Z</time></trkpt><trkpt lat="44.6940244" lon="9.4070851"><ele>790.5999999999999</ele><time>2026-04-18T09:21:37.268Z</time></trkpt><trkpt lat="44.6940769" lon="9.4072025"><ele>790.8</ele><time>2026-04-18T09:21:38.268Z</time></trkpt><trkpt lat="44.6941088" lon="9.407337"><ele>791.0</ele><time>2026-04-18T09:21:39.268Z</time></trkpt><trkpt lat="44.694093" lon="9.4074668"><ele>791.0</ele><time>2026-04-18T09:21:40.267Z</time></trkpt><trkpt lat="44.6940356" lon="9.407574"><ele>791.0</ele><time>2026-04-18T09:21:41.268Z</time></trkpt><trkpt lat="44.6939423" lon="9.4076631"><ele>791.0</ele><time>2026-04-18T09:21:42.268Z</time></trkpt><trkpt lat="44.693847" lon="9.4077385"><ele>791.0</ele><time>2026-04-18T09:21:43.269Z</time></trkpt><trkpt lat="44.6937556" lon="9.4078085"><ele>791.0</ele><time>2026-04-18T09:21:44.267Z</time></trkpt><trkpt lat="44.6936633" lon="9.4078787"><ele>795.5999999999999</ele><time>2026-04-18T09:21:45.268Z</time></trkpt><trkpt lat="44.6935811" lon="9.4079622"><ele>800.2</ele><time>2026-04-18T09:21:46.268Z</time></trkpt><trkpt lat="44.6935197" lon="9.4080825"><ele>804.8</ele><time>2026-04-18T09:21:47.268Z</time></trkpt><trkpt lat="44.6934883" lon="9.4082217"><ele>809.4000000000001</ele><time>2026-04-18T09:21:48.267Z</time></trkpt><trkpt lat="44.6934734" lon="9.4083755"><ele>814.0</ele><time>2026-04-18T09:21:49.267Z</time></trkpt><trkpt lat="44.6934616" lon="9.4085221"><ele>814.0</ele><time>2026-04-18T09:21:50.267Z</time></trkpt><trkpt lat="44.6934502" lon="9.4086548"><ele>814.0</ele><time>2026-04-18T09:21:51.268Z</time></trkpt><trkpt lat="44.6934414" lon="9.4087868"><ele>814.0</ele><time>2026-04-18T09:21:52.268Z</time></trkpt><trkpt lat="44.693433" lon="9.4089186"><ele>814.0</ele><time>2026-04-18T09:21:53.267Z</time></trkpt><trkpt lat="44.6934223" lon="9.4090453"><ele>814.0</ele><time>2026-04-18T09:21:54.267Z</time></trkpt><trkpt lat="44.6933964" lon="9.4091784"><ele>813.4000000000001</ele><time>2026-04-18T09:21:55.268Z</time></trkpt><trkpt lat="44.6933571" lon="9.4093087"><ele>812.8</ele><time>2026-04-18T09:21:56.268Z</time></trkpt><trkpt lat="44.6933102" lon="9.4094259"><ele>812.2</ele><time>2026-04-18T09:21:57.268Z</time></trkpt><trkpt lat="44.6932522" lon="9.4095305"><ele>811.5999999999999</ele><time>2026-04-18T09:21:58.268Z</time></trkpt><trkpt lat="44.6931828" lon="9.4096251"><ele>811.0</ele><time>2026-04-18T09:21:59.269Z</time></trkpt><trkpt lat="44.6931088" lon="9.4097084"><ele>808.8</ele><time>2026-04-18T09:22:00.267Z</time></trkpt><trkpt lat="44.6930232" lon="9.4097768"><ele>806.5999999999999</ele><time>2026-04-18T09:22:01.268Z</time></trkpt><trkpt lat="44.6929303" lon="9.409836"><ele>804.4</ele><time>2026-04-18T09:22:02.268Z</time></trkpt><trkpt lat="44.6928335" lon="9.4098966"><ele>802.2</ele><time>2026-04-18T09:22:03.268Z</time></trkpt><trkpt lat="44.6927328" lon="9.4099675"><ele>800.0</ele><time>2026-04-18T09:22:04.267Z</time></trkpt><trkpt lat="44.6926336" lon="9.4100325"><ele>805.2</ele><time>2026-04-18T09:22:05.267Z</time></trkpt><trkpt lat="44.6925393" lon="9.4100947"><ele>810.4</ele><time>2026-04-18T09:22:06.268Z</time></trkpt><trkpt lat="44.6924445" lon="9.410157"><ele>815.5999999999999</ele><time>2026-04-18T09:22:07.268Z</time></trkpt><trkpt lat="44.6923528" lon="9.4102188"><ele>820.8</ele><time>2026-04-18T09:22:08.268Z</time></trkpt><trkpt lat="44.6922621" lon="9.4102879"><ele>826.0</ele><time>2026-04-18T09:22:09.268Z</time></trkpt><trkpt lat="44.6921765" lon="9.4103789"><ele>823.5999999999999</ele><time>2026-04-18T09:22:10.268Z</time></trkpt><trkpt lat="44.6921164" lon="9.4104937"><ele>821.2</ele><time>2026-04-18T09:22:11.268Z</time></trkpt><trkpt lat="44.692066" lon="9.4106375"><ele>818.8</ele><time>2026-04-18T09:22:12.268Z</time></trkpt><trkpt lat="44.6920391" lon="9.4107967"><ele>816.4000000000001</ele><time>2026-04-18T09:22:13.268Z</time></trkpt><trkpt lat="44.6920364" lon="9.4109496"><ele>814.0</ele><time>2026-04-18T09:22:14.268Z</time></trkpt><trkpt lat="44.6920357" lon="9.4110893"><ele>814.0</ele><time>2026-04-18T09:22:15.268Z</time></trkpt><trkpt lat="44.6920323" lon="9.4112172"><ele>814.0</ele><time>2026-04-18T09:22:16.267Z</time></trkpt><trkpt lat="44.692006" lon="9.4113441"><ele>814.0</ele><time>2026-04-18T09:22:17.269Z</time></trkpt><trkpt lat="44.6919545" lon="9.4114471"><ele>814.0</ele><time>2026-04-18T09:22:18.268Z</time></trkpt><trkpt lat="44.6918836" lon="9.4115272"><ele>814.0</ele><time>2026-04-18T09:22:19.268Z</time></trkpt><trkpt lat="44.6918109" lon="9.4116061"><ele>819.1666666666666</ele><time>2026-04-18T09:22:20.267Z</time></trkpt><trkpt lat="44.6917532" lon="9.4116868"><ele>824.3333333333333</ele><time>2026-04-18T09:22:21.268Z</time></trkpt><trkpt lat="44.6917206" lon="9.4117948"><ele>829.5</ele><time>2026-04-18T09:22:22.268Z</time></trkpt><trkpt lat="44.6917241" lon="9.4119117"><ele>834.6666666666667</ele><time>2026-04-18T09:22:23.268Z</time></trkpt><trkpt lat="44.691748" lon="9.412035"><ele>839.8333333333334</ele><time>2026-04-18T09:22:24.268Z</time></trkpt><trkpt lat="44.6917755" lon="9.4121689"><ele>845.0</ele><time>2026-04-18T09:22:25.268Z</time></trkpt><trkpt lat="44.6918106" lon="9.4122957"><ele>845.5000000000001</ele><time>2026-04-18T09:22:26.267Z</time></trkpt><trkpt lat="44.6918627" lon="9.4124129"><ele>846.0</ele><time>2026-04-18T09:22:27.268Z</time></trkpt><trkpt lat="44.6919171" lon="9.4125272"><ele>846.5</ele><time>2026-04-18T09:22:28.268Z</time></trkpt><trkpt lat="44.6919635" lon="9.4126334"><ele>847.0</ele><time>2026-04-18T09:22:29.267Z</time></trkpt><trkpt lat="44.6919965" lon="9.4127347"><ele>847.5000000000001</ele><time>2026-04-18T09:22:30.268Z</time></trkpt><trkpt lat="44.692016" lon="9.4128496"><ele>848.0</ele><time>2026-04-18T09:22:31.269Z</time></trkpt><trkpt lat="44.6920177" lon="9.4129762"><ele>848.4</ele><time>2026-04-18T09:22:32.268Z</time></trkpt><trkpt lat="44.6920014" lon="9.4131033"><ele>848.8</ele><time>2026-04-18T09:22:33.267Z</time></trkpt><trkpt lat="44.6919663" lon="9.4132253"><ele>849.2</ele><time>2026-04-18T09:22:34.269Z</time></trkpt><trkpt lat="44.6919256" lon="9.41335"><ele>849.6</ele><time>2026-04-18T09:22:35.268Z</time></trkpt><trkpt lat="44.6918824" lon="9.4134786"><ele>850.0</ele><time>2026-04-18T09:22:36.268Z</time></trkpt><trkpt lat="44.6918307" lon="9.413605"><ele>850.0</ele><time>2026-04-18T09:22:37.267Z</time></trkpt><trkpt lat="44.6917617" lon="9.4137129"><ele>850.0</ele><time>2026-04-18T09:22:38.268Z</time></trkpt><trkpt lat="44.6916774" lon="9.4137955"><ele>850.0</ele><time>2026-04-18T09:22:39.267Z</time></trkpt><trkpt lat="44.6915816" lon="9.4138256"><ele>850.0</ele><time>2026-04-18T09:22:40.268Z</time></trkpt><trkpt lat="44.6914681" lon="9.4138315"><ele>850.0</ele><time>2026-04-18T09:22:41.268Z</time></trkpt><trkpt lat="44.6913492" lon="9.4138231"><ele>850.0</ele><time>2026-04-18T09:22:42.268Z</time></trkpt><trkpt lat="44.6912383" lon="9.413805"><ele>850.0</ele><time>2026-04-18T09:22:43.269Z</time></trkpt><trkpt lat="44.691122" lon="9.4137895"><ele>850.0</ele><time>2026-04-18T09:22:44.267Z</time></trkpt><trkpt lat="44.6910035" lon="9.4137788"><ele>850.0</ele><time>2026-04-18T09:22:45.269Z</time></trkpt><trkpt lat="44.6908911" lon="9.4137667"><ele>851.0</ele><time>2026-04-18T09:22:46.268Z</time></trkpt><trkpt lat="44.6907739" lon="9.4137664"><ele>852.0</ele><time>2026-04-18T09:22:47.267Z</time></trkpt><trkpt lat="44.6906581" lon="9.4137799"><ele>853.0</ele><time>2026-04-18T09:22:48.268Z</time></trkpt><trkpt lat="44.6905432" lon="9.4138059"><ele>854.0</ele><time>2026-04-18T09:22:49.268Z</time></trkpt><trkpt lat="44.690435" lon="9.4138499"><ele>854.0</ele><time>2026-04-18T09:22:50.267Z</time></trkpt><trkpt lat="44.6903254" lon="9.4139008"><ele>854.0</ele><time>2026-04-18T09:22:51.268Z</time></trkpt><trkpt lat="44.6902159" lon="9.4139573"><ele>854.0</ele><time>2026-04-18T09:22:52.267Z</time></trkpt><trkpt lat="44.6901068" lon="9.4140112"><ele>854.0</ele><time>2026-04-18T09:22:53.268Z</time></trkpt><trkpt lat="44.6899989" lon="9.4140656"><ele>854.6</ele><time>2026-04-18T09:22:54.268Z</time></trkpt><trkpt lat="44.689895" lon="9.4141213"><ele>855.2</ele><time>2026-04-18T09:22:55.267Z</time></trkpt><trkpt lat="44.6897952" lon="9.4141754"><ele>855.8000000000001</ele><time>2026-04-18T09:22:56.268Z</time></trkpt><trkpt lat="44.6897034" lon="9.4142251"><ele>856.4000000000001</ele><time>2026-04-18T09:22:57.268Z</time></trkpt><trkpt lat="44.6896142" lon="9.4142839"><ele>857.0</ele><time>2026-04-18T09:22:58.269Z</time></trkpt><trkpt lat="44.6895378" lon="9.4143623"><ele>857.0000000000001</ele><time>2026-04-18T09:22:59.268Z</time></trkpt><trkpt lat="44.6894884" lon="9.4144659"><ele>857.0</ele><time>2026-04-18T09:23:00.268Z</time></trkpt><trkpt lat="44.689467" lon="9.414587"><ele>857.0</ele><time>2026-04-18T09:23:01.267Z</time></trkpt><trkpt lat="44.6894803" lon="9.4147039"><ele>857.0</ele><time>2026-04-18T09:23:02.268Z</time></trkpt><trkpt lat="44.6895231" lon="9.4147918"><ele>857.0000000000001</ele><time>2026-04-18T09:23:03.268Z</time></trkpt><trkpt lat="44.6895884" lon="9.4148639"><ele>857.0</ele><time>2026-04-18T09:23:04.269Z</time></trkpt><trkpt lat="44.6896751" lon="9.414909"><ele>858.2</ele><time>2026-04-18T09:23:05.267Z</time></trkpt><trkpt lat="44.6897702" lon="9.4149262"><ele>859.4000000000001</ele><time>2026-04-18T09:23:06.268Z</time></trkpt><trkpt lat="44.6898776" lon="9.4149174"><ele>860.5999999999999</ele><time>2026-04-18T09:23:07.267Z</time></trkpt><trkpt lat="44.6899838" lon="9.4148927"><ele>861.8</ele><time>2026-04-18T09:23:08.267Z</time></trkpt><trkpt lat="44.6901019" lon="9.4148666"><ele>863.0</ele><time>2026-04-18T09:23:09.268Z</time></trkpt><trkpt lat="44.690221" lon="9.4148433"><ele>862.5000000000001</ele><time>2026-04-18T09:23:10.268Z</time></trkpt><trkpt lat="44.6903323" lon="9.4148263"><ele>862.0</ele><time>2026-04-18T09:23:11.268Z</time></trkpt><trkpt lat="44.6904149" lon="9.4148111"><ele>861.5</ele><time>2026-04-18T09:23:12.268Z</time></trkpt><trkpt lat="44.6904993" lon="9.41479"><ele>861.0</ele><time>2026-04-18T09:23:14.268Z</time></trkpt><trkpt lat="44.690574" lon="9.4147987"><ele>860.5000000000001</ele><time>2026-04-18T09:23:25.268Z</time></trkpt><trkpt lat="44.690642" lon="9.4147723"><ele>860.0</ele><time>2026-04-18T09:24:30.268Z</time></trkpt><trkpt lat="44.6907227" lon="9.4147564"><ele>860.0</ele><time>2026-04-18T09:24:32.268Z</time></trkpt><trkpt lat="44.6908146" lon="9.4147398"><ele>860.0</ele><time>2026-04-18T09:24:34.268Z</time></trkpt><trkpt lat="44.6909164" lon="9.4147594"><ele>860.0</ele><time>2026-04-18T09:24:36.267Z</time></trkpt><trkpt lat="44.6910198" lon="9.4148608"><ele>860.0</ele><time>2026-04-18T09:24:38.268Z</time></trkpt><trkpt lat="44.691062" lon="9.4149454"><ele>860.0</ele><time>2026-04-18T09:24:39.268Z</time></trkpt><trkpt lat="44.6910999" lon="9.4150462"><ele>860.0000000000001</ele><time>2026-04-18T09:24:40.268Z</time></trkpt><trkpt lat="44.6911324" lon="9.4151436"><ele>860.0</ele><time>2026-04-18T09:24:41.267Z</time></trkpt><trkpt lat="44.6911672" lon="9.4152486"><ele>860.0</ele><time>2026-04-18T09:24:42.268Z</time></trkpt><trkpt lat="44.6912061" lon="9.415362"><ele>860.0</ele><time>2026-04-18T09:24:43.268Z</time></trkpt><trkpt lat="44.6912518" lon="9.4154834"><ele>860.0000000000001</ele><time>2026-04-18T09:24:44.267Z</time></trkpt><trkpt lat="44.6912928" lon="9.4156086"><ele>860.0</ele><time>2026-04-18T09:24:45.267Z</time></trkpt><trkpt lat="44.6913362" lon="9.4157394"><ele>860.0</ele><time>2026-04-18T09:24:46.267Z</time></trkpt><trkpt lat="44.6913812" lon="9.4158684"><ele>860.0</ele><time>2026-04-18T09:24:47.267Z</time></trkpt><trkpt lat="44.6914234" lon="9.4160015"><ele>860.0</ele><time>2026-04-18T09:24:48.268Z</time></trkpt><trkpt lat="44.6914609" lon="9.4161339"><ele>860.0</ele><time>2026-04-18T09:24:49.268Z</time></trkpt><trkpt lat="44.6914989" lon="9.4162683"><ele>860.0</ele><time>2026-04-18T09:24:50.268Z</time></trkpt><trkpt lat="44.6915441" lon="9.4163983"><ele>862.4</ele><time>2026-04-18T09:24:51.268Z</time></trkpt><trkpt lat="44.6915877" lon="9.4165222"><ele>864.8</ele><time>2026-04-18T09:24:52.268Z</time></trkpt><trkpt lat="44.6916304" lon="9.416641"><ele>867.2</ele><time>2026-04-18T09:24:53.268Z</time></trkpt><trkpt lat="44.6916708" lon="9.4167574"><ele>869.6</ele><time>2026-04-18T09:24:54.267Z</time></trkpt><trkpt lat="44.6917114" lon="9.4168751"><ele>872.0</ele><time>2026-04-18T09:24:55.269Z</time></trkpt><trkpt lat="44.6917523" lon="9.416995"><ele>872.0</ele><time>2026-04-18T09:24:56.268Z</time></trkpt><trkpt lat="44.6917953" lon="9.4171161"><ele>872.0</ele><time>2026-04-18T09:24:57.268Z</time></trkpt><trkpt lat="44.691844" lon="9.4172416"><ele>872.0</ele><time>2026-04-18T09:24:58.269Z</time></trkpt><trkpt lat="44.6918928" lon="9.4173681"><ele>872.0</ele><time>2026-04-18T09:24:59.268Z</time></trkpt><trkpt lat="44.6919437" lon="9.417488"><ele>872.0</ele><time>2026-04-18T09:25:00.268Z</time></trkpt><trkpt lat="44.6919836" lon="9.4175937"><ele>871.5000000000001</ele><time>2026-04-18T09:25:01.267Z</time></trkpt><trkpt lat="44.6920147" lon="9.41769"><ele>871.0</ele><time>2026-04-18T09:25:02.268Z</time></trkpt><trkpt lat="44.6920316" lon="9.4178016"><ele>870.5</ele><time>2026-04-18T09:25:03.269Z</time></trkpt><trkpt lat="44.692017" lon="9.417908"><ele>870.0</ele><time>2026-04-18T09:25:04.267Z</time></trkpt><trkpt lat="44.6919624" lon="9.4179784"><ele>869.5000000000001</ele><time>2026-04-18T09:25:05.268Z</time></trkpt><trkpt lat="44.6918448" lon="9.4179719"><ele>869.0</ele><time>2026-04-18T09:25:07.269Z</time></trkpt><trkpt lat="44.691765" lon="9.4178272"><ele>872.1666666666667</ele><time>2026-04-18T09:25:09.269Z</time></trkpt><trkpt lat="44.6917117" lon="9.4177013"><ele>875.3333333333334</ele><time>2026-04-18T09:25:11.268Z</time></trkpt><trkpt lat="44.6916629" lon="9.417596"><ele>878.5</ele><time>2026-04-18T09:25:13.268Z</time></trkpt><trkpt lat="44.6915986" lon="9.4174785"><ele>881.6666666666667</ele><time>2026-04-18T09:25:15.269Z</time></trkpt><trkpt lat="44.6915521" lon="9.417416"><ele>884.8333333333334</ele><time>2026-04-18T09:25:16.268Z</time></trkpt><trkpt lat="44.6914987" lon="9.4173522"><ele>888.0</ele><time>2026-04-18T09:25:17.268Z</time></trkpt><trkpt lat="44.6914416" lon="9.4172992"><ele>888.0</ele><time>2026-04-18T09:25:18.267Z</time></trkpt><trkpt lat="44.6913335" lon="9.4172176"><ele>888.0</ele><time>2026-04-18T09:25:20.268Z</time></trkpt><trkpt lat="44.6912647" lon="9.4171784"><ele>888.0</ele><time>2026-04-18T09:25:21.268Z</time></trkpt><trkpt lat="44.6912043" lon="9.4171413"><ele>888.0</ele><time>2026-04-18T09:25:22.267Z</time></trkpt><trkpt lat="44.6911258" lon="9.4171003"><ele>888.0</ele><time>2026-04-18T09:25:24.267Z</time></trkpt><trkpt lat="44.6910607" lon="9.4170761"><ele>888.0</ele><time>2026-04-18T09:25:27.267Z</time></trkpt><trkpt lat="44.6909438" lon="9.4170232"><ele>888.1666666666666</ele><time>2026-04-18T09:25:29.268Z</time></trkpt><trkpt lat="44.6908648" lon="9.4169782"><ele>888.3333333333333</ele><time>2026-04-18T09:25:30.267Z</time></trkpt><trkpt lat="44.6907914" lon="9.4169351"><ele>888.5</ele><time>2026-04-18T09:25:31.267Z</time></trkpt><trkpt lat="44.6907131" lon="9.4168739"><ele>888.6666666666666</ele><time>2026-04-18T09:25:33.268Z</time></trkpt><trkpt lat="44.6906409" lon="9.4168462"><ele>888.8333333333333</ele><time>2026-04-18T09:25:36.267Z</time></trkpt><trkpt lat="44.690693" lon="9.4169034"><ele>889.0</ele><time>2026-04-18T09:25:41.268Z</time></trkpt><trkpt lat="44.6907633" lon="9.4169158"><ele>888.9999999999999</ele><time>2026-04-18T09:25:52.268Z</time></trkpt><trkpt lat="44.69087" lon="9.4169758"><ele>889.0</ele><time>2026-04-18T09:25:54.268Z</time></trkpt><trkpt lat="44.6909346" lon="9.4170103"><ele>889.0</ele><time>2026-04-18T09:25:55.268Z</time></trkpt><trkpt lat="44.6909977" lon="9.4170511"><ele>889.0</ele><time>2026-04-18T09:25:56.268Z</time></trkpt><trkpt lat="44.6910864" lon="9.4170942"><ele>888.9999999999999</ele><time>2026-04-18T09:25:57.269Z</time></trkpt><trkpt lat="44.6911548" lon="9.4171379"><ele>889.0</ele><time>2026-04-18T09:25:58.268Z</time></trkpt><trkpt lat="44.6912255" lon="9.4171836"><ele>888.8000000000001</ele><time>2026-04-18T09:25:59.268Z</time></trkpt><trkpt lat="44.6913048" lon="9.4172347"><ele>888.6000000000001</ele><time>2026-04-18T09:26:00.267Z</time></trkpt><trkpt lat="44.6913946" lon="9.4172984"><ele>888.4</ele><time>2026-04-18T09:26:01.268Z</time></trkpt><trkpt lat="44.6914849" lon="9.4173766"><ele>888.2</ele><time>2026-04-18T09:26:02.268Z</time></trkpt><trkpt lat="44.6915534" lon="9.417475"><ele>888.0</ele><time>2026-04-18T09:26:03.268Z</time></trkpt><trkpt lat="44.6916118" lon="9.4175814"><ele>888.0</ele><time>2026-04-18T09:26:04.268Z</time></trkpt><trkpt lat="44.6916638" lon="9.417691"><ele>888.0</ele><time>2026-04-18T09:26:05.268Z</time></trkpt><trkpt lat="44.6917123" lon="9.4177987"><ele>888.0</ele><time>2026-04-18T09:26:06.269Z</time></trkpt><trkpt lat="44.6917601" lon="9.4179054"><ele>888.0</ele><time>2026-04-18T09:26:07.268Z</time></trkpt><trkpt lat="44.6918141" lon="9.4179885"><ele>888.0</ele><time>2026-04-18T09:26:08.268Z</time></trkpt><trkpt lat="44.691886" lon="9.4180271"><ele>888.0</ele><time>2026-04-18T09:26:09.268Z</time></trkpt><trkpt lat="44.6919596" lon="9.4180065"><ele>884.8333333333334</ele><time>2026-04-18T09:26:10.268Z</time></trkpt><trkpt lat="44.6920124" lon="9.4179401"><ele>881.6666666666667</ele><time>2026-04-18T09:26:11.268Z</time></trkpt><trkpt lat="44.6920319" lon="9.4178295"><ele>878.5</ele><time>2026-04-18T09:26:12.268Z</time></trkpt><trkpt lat="44.6920182" lon="9.4177126"><ele>875.3333333333334</ele><time>2026-04-18T09:26:13.267Z</time></trkpt><trkpt lat="44.6919877" lon="9.4176236"><ele>872.1666666666667</ele><time>2026-04-18T09:26:14.269Z</time></trkpt><trkpt lat="44.6919366" lon="9.4175081"><ele>869.0</ele><time>2026-04-18T09:26:16.269Z</time></trkpt><trkpt lat="44.6920013" lon="9.4175018"><ele>869.0000000000001</ele><time>2026-04-18T09:26:22.267Z</time></trkpt><trkpt lat="44.6920497" lon="9.4175659"><ele>869.0</ele><time>2026-04-18T09:26:23.268Z</time></trkpt><trkpt lat="44.6921052" lon="9.4176555"><ele>869.0</ele><time>2026-04-18T09:26:24.268Z</time></trkpt><trkpt lat="44.6921485" lon="9.4177571"><ele>869.0</ele><time>2026-04-18T09:26:25.268Z</time></trkpt><trkpt lat="44.6921832" lon="9.4178751"><ele>869.0000000000001</ele><time>2026-04-18T09:26:26.268Z</time></trkpt><trkpt lat="44.6922229" lon="9.4179913"><ele>869.0</ele><time>2026-04-18T09:26:27.267Z</time></trkpt><trkpt lat="44.6922858" lon="9.4181177"><ele>870.3333333333334</ele><time>2026-04-18T09:26:28.267Z</time></trkpt><trkpt lat="44.692344" lon="9.4182183"><ele>871.6666666666667</ele><time>2026-04-18T09:26:29.268Z</time></trkpt><trkpt lat="44.6923967" lon="9.4183183"><ele>873.0</ele><time>2026-04-18T09:26:30.269Z</time></trkpt><trkpt lat="44.6924427" lon="9.4184326"><ele>874.3333333333333</ele><time>2026-04-18T09:26:31.268Z</time></trkpt><trkpt lat="44.692488" lon="9.4185343"><ele>875.6666666666666</ele><time>2026-04-18T09:26:32.268Z</time></trkpt><trkpt lat="44.6925336" lon="9.4186204"><ele>877.0</ele><time>2026-04-18T09:26:33.268Z</time></trkpt><trkpt lat="44.6925768" lon="9.4186967"><ele>879.1666666666666</ele><time>2026-04-18T09:26:34.268Z</time></trkpt><trkpt lat="44.6926196" lon="9.4188396"><ele>881.3333333333333</ele><time>2026-04-18T09:26:36.269Z</time></trkpt><trkpt lat="44.6926025" lon="9.4190137"><ele>883.5</ele><time>2026-04-18T09:26:38.268Z</time></trkpt><trkpt lat="44.6925821" lon="9.4191048"><ele>885.6666666666667</ele><time>2026-04-18T09:26:39.267Z</time></trkpt><trkpt lat="44.6925699" lon="9.4191935"><ele>887.8333333333334</ele><time>2026-04-18T09:26:40.268Z</time></trkpt><trkpt lat="44.6925695" lon="9.4192957"><ele>890.0</ele><time>2026-04-18T09:26:41.269Z</time></trkpt><trkpt lat="44.6925793" lon="9.419399"><ele>890.0000000000001</ele><time>2026-04-18T09:26:42.268Z</time></trkpt><trkpt lat="44.6925872" lon="9.4195129"><ele>890.0</ele><time>2026-04-18T09:26:43.268Z</time></trkpt><trkpt lat="44.6926023" lon="9.4196136"><ele>890.0</ele><time>2026-04-18T09:26:44.268Z</time></trkpt><trkpt lat="44.6926015" lon="9.4197185"><ele>890.0</ele><time>2026-04-18T09:26:45.267Z</time></trkpt><trkpt lat="44.6926027" lon="9.4198354"><ele>890.0000000000001</ele><time>2026-04-18T09:26:46.269Z</time></trkpt><trkpt lat="44.6925952" lon="9.4199503"><ele>890.0</ele><time>2026-04-18T09:26:47.269Z</time></trkpt><trkpt lat="44.6925821" lon="9.4200718"><ele>889.8333333333334</ele><time>2026-04-18T09:26:48.268Z</time></trkpt><trkpt lat="44.6925868" lon="9.4201763"><ele>889.6666666666667</ele><time>2026-04-18T09:26:49.268Z</time></trkpt><trkpt lat="44.6926005" lon="9.4202774"><ele>889.5</ele><time>2026-04-18T09:26:50.267Z</time></trkpt><trkpt lat="44.6926549" lon="9.4204171"><ele>889.3333333333333</ele><time>2026-04-18T09:26:52.268Z</time></trkpt><trkpt lat="44.6927122" lon="9.4205082"><ele>889.1666666666666</ele><time>2026-04-18T09:26:54.267Z</time></trkpt><trkpt lat="44.6927878" lon="9.4205217"><ele>889.0</ele><time>2026-04-18T09:26:56.268Z</time></trkpt><trkpt lat="44.692866" lon="9.4204517"><ele>888.9999999999999</ele><time>2026-04-18T09:26:58.268Z</time></trkpt><trkpt lat="44.6929175" lon="9.4203964"><ele>889.0</ele><time>2026-04-18T09:26:59.268Z</time></trkpt><trkpt lat="44.6930134" lon="9.4203537"><ele>889.0</ele><time>2026-04-18T09:27:01.268Z</time></trkpt><trkpt lat="44.6930926" lon="9.4203962"><ele>889.0</ele><time>2026-04-18T09:27:03.267Z</time></trkpt><trkpt lat="44.6931511" lon="9.4204791"><ele>888.9999999999999</ele><time>2026-04-18T09:27:05.268Z</time></trkpt><trkpt lat="44.6931804" lon="9.4205906"><ele>889.0</ele><time>2026-04-18T09:27:07.267Z</time></trkpt><trkpt lat="44.6931809" lon="9.4207679"><ele>890.6</ele><time>2026-04-18T09:27:09.268Z</time></trkpt><trkpt lat="44.6931715" lon="9.4208625"><ele>892.2</ele><time>2026-04-18T09:27:10.268Z</time></trkpt><trkpt lat="44.6931586" lon="9.4209536"><ele>893.8000000000001</ele><time>2026-04-18T09:27:11.268Z</time></trkpt><trkpt lat="44.6931462" lon="9.4211127"><ele>895.4000000000001</ele><time>2026-04-18T09:27:13.268Z</time></trkpt><trkpt lat="44.6931905" lon="9.4212434"><ele>897.0</ele><time>2026-04-18T09:27:15.267Z</time></trkpt><trkpt lat="44.6932816" lon="9.4213176"><ele>897.0</ele><time>2026-04-18T09:27:17.268Z</time></trkpt><trkpt lat="44.693381" lon="9.4212946"><ele>897.0</ele><time>2026-04-18T09:27:19.268Z</time></trkpt><trkpt lat="44.6934797" lon="9.4212122"><ele>897.0</ele><time>2026-04-18T09:27:21.267Z</time></trkpt><trkpt lat="44.6935863" lon="9.4211748"><ele>897.0</ele><time>2026-04-18T09:27:23.268Z</time></trkpt><trkpt lat="44.6937082" lon="9.4211834"><ele>897.0</ele><time>2026-04-18T09:27:25.268Z</time></trkpt><trkpt lat="44.6937715" lon="9.4211953"><ele>898.4000000000001</ele><time>2026-04-18T09:27:26.268Z</time></trkpt><trkpt lat="44.6938437" lon="9.4212065"><ele>899.8000000000001</ele><time>2026-04-18T09:27:27.267Z</time></trkpt><trkpt lat="44.693915" lon="9.4212384"><ele>901.2</ele><time>2026-04-18T09:27:28.269Z</time></trkpt><trkpt lat="44.6939857" lon="9.421268"><ele>902.6</ele><time>2026-04-18T09:27:29.268Z</time></trkpt><trkpt lat="44.6940959" lon="9.4212682"><ele>904.0</ele><time>2026-04-18T09:27:31.268Z</time></trkpt><trkpt lat="44.6942204" lon="9.4212362"><ele>903.9999999999999</ele><time>2026-04-18T09:27:33.268Z</time></trkpt><trkpt lat="44.6942805" lon="9.4212761"><ele>904.0</ele><time>2026-04-18T09:27:35.267Z</time></trkpt><trkpt lat="44.694309" lon="9.4214073"><ele>904.0</ele><time>2026-04-18T09:27:37.267Z</time></trkpt><trkpt lat="44.6943068" lon="9.4215196"><ele>904.0</ele><time>2026-04-18T09:27:38.268Z</time></trkpt><trkpt lat="44.6942971" lon="9.4216092"><ele>903.9999999999999</ele><time>2026-04-18T09:27:39.267Z</time></trkpt><trkpt lat="44.6942873" lon="9.4217053"><ele>904.0</ele><time>2026-04-18T09:27:40.268Z</time></trkpt><trkpt lat="44.6942832" lon="9.4218105"><ele>906.4999999999999</ele><time>2026-04-18T09:27:41.269Z</time></trkpt><trkpt lat="44.6942505" lon="9.4219158"><ele>909.0</ele><time>2026-04-18T09:27:42.268Z</time></trkpt><trkpt lat="44.6942236" lon="9.4220311"><ele>911.5</ele><time>2026-04-18T09:27:43.267Z</time></trkpt><trkpt lat="44.6942056" lon="9.4221339"><ele>914.0</ele><time>2026-04-18T09:27:44.267Z</time></trkpt><trkpt lat="44.6941942" lon="9.4222452"><ele>916.4999999999999</ele><time>2026-04-18T09:27:45.268Z</time></trkpt><trkpt lat="44.6941663" lon="9.4223659"><ele>919.0</ele><time>2026-04-18T09:27:46.268Z</time></trkpt><trkpt lat="44.6941274" lon="9.4224756"><ele>919.9999999999999</ele><time>2026-04-18T09:27:47.268Z</time></trkpt><trkpt lat="44.6940888" lon="9.422578"><ele>921.0</ele><time>2026-04-18T09:27:48.268Z</time></trkpt><trkpt lat="44.6940614" lon="9.4226817"><ele>922.0</ele><time>2026-04-18T09:27:49.268Z</time></trkpt><trkpt lat="44.6940345" lon="9.4227863"><ele>923.0</ele><time>2026-04-18T09:27:50.268Z</time></trkpt><trkpt lat="44.6940135" lon="9.4228868"><ele>923.9999999999999</ele><time>2026-04-18T09:27:51.268Z</time></trkpt><trkpt lat="44.6939881" lon="9.422983"><ele>925.0</ele><time>2026-04-18T09:27:52.268Z</time></trkpt><trkpt lat="44.6939596" lon="9.4230724"><ele>926.5714285714287</ele><time>2026-04-18T09:27:53.269Z</time></trkpt><trkpt lat="44.6939214" lon="9.4231548"><ele>928.1428571428571</ele><time>2026-04-18T09:27:54.267Z</time></trkpt><trkpt lat="44.6938753" lon="9.4232301"><ele>929.7142857142858</ele><time>2026-04-18T09:27:55.268Z</time></trkpt><trkpt lat="44.6938298" lon="9.4232952"><ele>931.2857142857143</ele><time>2026-04-18T09:27:56.268Z</time></trkpt><trkpt lat="44.6937873" lon="9.4233653"><ele>932.8571428571429</ele><time>2026-04-18T09:27:57.267Z</time></trkpt><trkpt lat="44.6937511" lon="9.4234379"><ele>934.4285714285714</ele><time>2026-04-18T09:27:58.267Z</time></trkpt><trkpt lat="44.6937039" lon="9.4235078"><ele>936.0</ele><time>2026-04-18T09:27:59.268Z</time></trkpt><trkpt lat="44.6936423" lon="9.4235561"><ele>935.0</ele><time>2026-04-18T09:28:00.268Z</time></trkpt><trkpt lat="44.6935674" lon="9.4235927"><ele>934.0</ele><time>2026-04-18T09:28:01.268Z</time></trkpt><trkpt lat="44.6934967" lon="9.423616"><ele>933.0</ele><time>2026-04-18T09:28:02.269Z</time></trkpt><trkpt lat="44.6934285" lon="9.4236338"><ele>932.0</ele><time>2026-04-18T09:28:03.268Z</time></trkpt><trkpt lat="44.6932859" lon="9.4236968"><ele>931.0</ele><time>2026-04-18T09:28:05.267Z</time></trkpt><trkpt lat="44.6932234" lon="9.4237452"><ele>930.0</ele><time>2026-04-18T09:28:06.268Z</time></trkpt><trkpt lat="44.693164" lon="9.4238023"><ele>932.3333333333334</ele><time>2026-04-18T09:28:07.268Z</time></trkpt><trkpt lat="44.6931205" lon="9.4238745"><ele>934.6666666666667</ele><time>2026-04-18T09:28:08.268Z</time></trkpt><trkpt lat="44.6930979" lon="9.4239593"><ele>937.0</ele><time>2026-04-18T09:28:09.267Z</time></trkpt><trkpt lat="44.6930816" lon="9.4240531"><ele>939.3333333333334</ele><time>2026-04-18T09:28:10.268Z</time></trkpt><trkpt lat="44.6930733" lon="9.424177"><ele>941.6666666666667</ele><time>2026-04-18T09:28:11.269Z</time></trkpt><trkpt lat="44.6930751" lon="9.4242945"><ele>944.0</ele><time>2026-04-18T09:28:12.268Z</time></trkpt><trkpt lat="44.6930814" lon="9.4244086"><ele>944.0000000000001</ele><time>2026-04-18T09:28:13.269Z</time></trkpt><trkpt lat="44.6930945" lon="9.4245006"><ele>944.0</ele><time>2026-04-18T09:28:14.268Z</time></trkpt><trkpt lat="44.693157" lon="9.4245984"><ele>944.0</ele><time>2026-04-18T09:28:16.268Z</time></trkpt><trkpt lat="44.6932534" lon="9.4245839"><ele>944.0</ele><time>2026-04-18T09:28:18.268Z</time></trkpt><trkpt lat="44.6933503" lon="9.4244816"><ele>944.0000000000001</ele><time>2026-04-18T09:28:20.268Z</time></trkpt><trkpt lat="44.6934012" lon="9.4244282"><ele>944.0</ele><time>2026-04-18T09:28:21.267Z</time></trkpt><trkpt lat="44.6934498" lon="9.4243708"><ele>944.0</ele><time>2026-04-18T09:28:22.268Z</time></trkpt><trkpt lat="44.6934978" lon="9.4242943"><ele>944.0000000000001</ele><time>2026-04-18T09:28:23.267Z</time></trkpt><trkpt lat="44.693543" lon="9.4242117"><ele>944.0000000000001</ele><time>2026-04-18T09:28:24.267Z</time></trkpt><trkpt lat="44.6936253" lon="9.4241024"><ele>944.0</ele><time>2026-04-18T09:28:26.268Z</time></trkpt><trkpt lat="44.6937254" lon="9.424105"><ele>944.0</ele><time>2026-04-18T09:28:28.268Z</time></trkpt><trkpt lat="44.693844" lon="9.4241748"><ele>945.7142857142857</ele><time>2026-04-18T09:28:30.268Z</time></trkpt><trkpt lat="44.6939085" lon="9.424189"><ele>947.4285714285716</ele><time>2026-04-18T09:28:31.268Z</time></trkpt><trkpt lat="44.6939764" lon="9.4241779"><ele>949.1428571428572</ele><time>2026-04-18T09:28:32.269Z</time></trkpt><trkpt lat="44.6940516" lon="9.4241461"><ele>950.8571428571429</ele><time>2026-04-18T09:28:33.268Z</time></trkpt><trkpt lat="44.6941206" lon="9.4241046"><ele>952.5714285714287</ele><time>2026-04-18T09:28:34.269Z</time></trkpt><trkpt lat="44.6941907" lon="9.424057"><ele>954.2857142857144</ele><time>2026-04-18T09:28:35.268Z</time></trkpt><trkpt lat="44.6942545" lon="9.4240354"><ele>956.0000000000001</ele><time>2026-04-18T09:28:36.267Z</time></trkpt><trkpt lat="44.6943385" lon="9.4240057"><ele>957.1999999999999</ele><time>2026-04-18T09:28:37.267Z</time></trkpt><trkpt lat="44.694429" lon="9.4239924"><ele>958.3999999999999</ele><time>2026-04-18T09:28:38.269Z</time></trkpt><trkpt lat="44.694506" lon="9.4239759"><ele>959.6</ele><time>2026-04-18T09:28:39.268Z</time></trkpt><trkpt lat="44.694571" lon="9.4239753"><ele>960.8</ele><time>2026-04-18T09:28:40.267Z</time></trkpt><trkpt lat="44.6946821" lon="9.4240209"><ele>962.0</ele><time>2026-04-18T09:28:42.268Z</time></trkpt><trkpt lat="44.6947623" lon="9.4241409"><ele>962.0000000000001</ele><time>2026-04-18T09:28:44.268Z</time></trkpt><trkpt lat="44.694802" lon="9.4242327"><ele>962.0</ele><time>2026-04-18T09:28:45.267Z</time></trkpt><trkpt lat="44.6948299" lon="9.4243199"><ele>962.0</ele><time>2026-04-18T09:28:46.267Z</time></trkpt><trkpt lat="44.6948425" lon="9.4244089"><ele>962.0</ele><time>2026-04-18T09:28:47.268Z</time></trkpt><trkpt lat="44.694826" lon="9.4245333"><ele>962.0000000000001</ele><time>2026-04-18T09:28:49.269Z</time></trkpt><trkpt lat="44.6947528" lon="9.4246322"><ele>962.0</ele><time>2026-04-18T09:28:51.267Z</time></trkpt><trkpt lat="44.6946489" lon="9.4247232"><ele>964.8</ele><time>2026-04-18T09:28:53.269Z</time></trkpt><trkpt lat="44.6945911" lon="9.4248157"><ele>967.6</ele><time>2026-04-18T09:28:54.268Z</time></trkpt><trkpt lat="44.6945449" lon="9.4249099"><ele>970.3999999999999</ele><time>2026-04-18T09:28:55.269Z</time></trkpt><trkpt lat="44.6944807" lon="9.4250864"><ele>973.1999999999999</ele><time>2026-04-18T09:28:57.268Z</time></trkpt><trkpt lat="44.6944545" lon="9.4251984"><ele>976.0</ele><time>2026-04-18T09:28:58.269Z</time></trkpt><trkpt lat="44.6944357" lon="9.425304"><ele>975.9999999999999</ele><time>2026-04-18T09:28:59.268Z</time></trkpt><trkpt lat="44.6944224" lon="9.4254134"><ele>976.0</ele><time>2026-04-18T09:29:00.267Z</time></trkpt><trkpt lat="44.6944203" lon="9.4255267"><ele>976.0</ele><time>2026-04-18T09:29:01.268Z</time></trkpt><trkpt lat="44.6944219" lon="9.4256397"><ele>976.0</ele><time>2026-04-18T09:29:02.268Z</time></trkpt><trkpt lat="44.6944336" lon="9.4257564"><ele>975.9999999999999</ele><time>2026-04-18T09:29:03.268Z</time></trkpt><trkpt lat="44.694448" lon="9.4258652"><ele>976.0</ele><time>2026-04-18T09:29:04.267Z</time></trkpt><trkpt lat="44.6944468" lon="9.4259645"><ele>975.8333333333333</ele><time>2026-04-18T09:29:05.268Z</time></trkpt><trkpt lat="44.6943978" lon="9.426118"><ele>975.6666666666666</ele><time>2026-04-18T09:29:07.268Z</time></trkpt><trkpt lat="44.6943488" lon="9.4261815"><ele>975.5</ele><time>2026-04-18T09:29:08.267Z</time></trkpt><trkpt lat="44.6942837" lon="9.4262351"><ele>975.3333333333333</ele><time>2026-04-18T09:29:09.267Z</time></trkpt><trkpt lat="44.6942167" lon="9.4262783"><ele>975.1666666666666</ele><time>2026-04-18T09:29:10.268Z</time></trkpt><trkpt lat="44.6941388" lon="9.4263882"><ele>975.0</ele><time>2026-04-18T09:29:12.267Z</time></trkpt><trkpt lat="44.6941016" lon="9.4264621"><ele>977.3333333333334</ele><time>2026-04-18T09:29:13.269Z</time></trkpt><trkpt lat="44.6940741" lon="9.4265454"><ele>979.6666666666667</ele><time>2026-04-18T09:29:14.269Z</time></trkpt><trkpt lat="44.6939937" lon="9.4266583"><ele>982.0</ele><time>2026-04-18T09:29:16.268Z</time></trkpt><trkpt lat="44.6939302" lon="9.4266827"><ele>984.3333333333334</ele><time>2026-04-18T09:29:17.267Z</time></trkpt><trkpt lat="44.6938527" lon="9.4266949"><ele>986.6666666666667</ele><time>2026-04-18T09:29:18.268Z</time></trkpt><trkpt lat="44.6937367" lon="9.4267533"><ele>989.0</ele><time>2026-04-18T09:29:20.267Z</time></trkpt><trkpt lat="44.6936455" lon="9.426916"><ele>989.0</ele><time>2026-04-18T09:29:22.269Z</time></trkpt><trkpt lat="44.69361" lon="9.427004"><ele>989.0000000000001</ele><time>2026-04-18T09:29:23.268Z</time></trkpt><trkpt lat="44.6935831" lon="9.4271688"><ele>989.0000000000001</ele><time>2026-04-18T09:29:25.267Z</time></trkpt><trkpt lat="44.6935623" lon="9.4273206"><ele>989.0</ele><time>2026-04-18T09:29:27.268Z</time></trkpt><trkpt lat="44.6935181" lon="9.4274785"><ele>989.0</ele><time>2026-04-18T09:29:29.268Z</time></trkpt><trkpt lat="44.6934841" lon="9.4275609"><ele>989.5000000000001</ele><time>2026-04-18T09:29:30.268Z</time></trkpt><trkpt lat="44.6934417" lon="9.4276468"><ele>990.0</ele><time>2026-04-18T09:29:31.269Z</time></trkpt><trkpt lat="44.6933939" lon="9.4277236"><ele>990.5</ele><time>2026-04-18T09:29:32.268Z</time></trkpt><trkpt lat="44.6933433" lon="9.4277873"><ele>991.0</ele><time>2026-04-18T09:29:33.267Z</time></trkpt><trkpt lat="44.6932962" lon="9.4279005"><ele>991.5000000000001</ele><time>2026-04-18T09:29:35.269Z</time></trkpt><trkpt lat="44.6932952" lon="9.4280295"><ele>992.0</ele><time>2026-04-18T09:29:37.268Z</time></trkpt><trkpt lat="44.6932845" lon="9.428179"><ele>994.1666666666667</ele><time>2026-04-18T09:29:39.268Z</time></trkpt><trkpt lat="44.6932563" lon="9.4282696"><ele>996.3333333333334</ele><time>2026-04-18T09:29:40.267Z</time></trkpt><trkpt lat="44.6932158" lon="9.4283399"><ele>998.5</ele><time>2026-04-18T09:29:41.267Z</time></trkpt><trkpt lat="44.6931642" lon="9.4284331"><ele>1000.6666666666667</ele><time>2026-04-18T09:29:42.267Z</time></trkpt><trkpt lat="44.6930896" lon="9.4285431"><ele>1002.8333333333334</ele><time>2026-04-18T09:29:44.268Z</time></trkpt><trkpt lat="44.6930457" lon="9.4286493"><ele>1005.0</ele><time>2026-04-18T09:29:46.267Z</time></trkpt><trkpt lat="44.6929917" lon="9.428589"><ele>1005.0</ele><time>2026-04-18T09:36:28.267Z</time></trkpt><trkpt lat="44.69288" lon="9.4285337"><ele>1005.0</ele><time>2026-04-18T09:36:30.267Z</time></trkpt><trkpt lat="44.692773" lon="9.4286106"><ele>1005.0</ele><time>2026-04-18T09:36:31.267Z</time></trkpt><trkpt lat="44.6926787" lon="9.4286782"><ele>1005.0</ele><time>2026-04-18T09:36:32.268Z</time></trkpt><trkpt lat="44.6925986" lon="9.4287584"><ele>1005.0</ele><time>2026-04-18T09:36:33.267Z</time></trkpt><trkpt lat="44.692516" lon="9.4288466"><ele>1005.5</ele><time>2026-04-18T09:36:34.266Z</time></trkpt><trkpt lat="44.6924414" lon="9.4289225"><ele>1006.0</ele><time>2026-04-18T09:36:35.268Z</time></trkpt><trkpt lat="44.6923608" lon="9.4289816"><ele>1006.5</ele><time>2026-04-18T09:36:36.267Z</time></trkpt><trkpt lat="44.6922767" lon="9.4290112"><ele>1007.0</ele><time>2026-04-18T09:36:37.267Z</time></trkpt><trkpt lat="44.6921853" lon="9.4290032"><ele>1007.5</ele><time>2026-04-18T09:36:38.267Z</time></trkpt><trkpt lat="44.692103" lon="9.4289725"><ele>1008.0</ele><time>2026-04-18T09:36:39.266Z</time></trkpt><trkpt lat="44.6920229" lon="9.4289591"><ele>1008.0</ele><time>2026-04-18T09:36:40.266Z</time></trkpt><trkpt lat="44.6919365" lon="9.4289721"><ele>1008.0</ele><time>2026-04-18T09:36:41.267Z</time></trkpt><trkpt lat="44.6918564" lon="9.4290042"><ele>1008.0</ele><time>2026-04-18T09:36:42.267Z</time></trkpt><trkpt lat="44.6917764" lon="9.4290406"><ele>1008.0</ele><time>2026-04-18T09:36:43.267Z</time></trkpt><trkpt lat="44.6916938" lon="9.4290889"><ele>1008.0</ele><time>2026-04-18T09:36:44.267Z</time></trkpt><trkpt lat="44.6916037" lon="9.4291464"><ele>1008.0</ele><time>2026-04-18T09:36:45.267Z</time></trkpt><trkpt lat="44.6915115" lon="9.4292033"><ele>1006.4</ele><time>2026-04-18T09:36:46.267Z</time></trkpt><trkpt lat="44.6914234" lon="9.429254"><ele>1004.8</ele><time>2026-04-18T09:36:47.266Z</time></trkpt><trkpt lat="44.6913274" lon="9.4292933"><ele>1003.2</ele><time>2026-04-18T09:36:48.267Z</time></trkpt><trkpt lat="44.6912597" lon="9.4292524"><ele>1001.6</ele><time>2026-04-18T09:36:49.267Z</time></trkpt><trkpt lat="44.6911787" lon="9.4291422"><ele>1000.0</ele><time>2026-04-18T09:36:50.268Z</time></trkpt><trkpt lat="44.6911066" lon="9.4290362"><ele>1000.75</ele><time>2026-04-18T09:36:51.267Z</time></trkpt><trkpt lat="44.6910278" lon="9.428899"><ele>1001.5</ele><time>2026-04-18T09:36:52.266Z</time></trkpt><trkpt lat="44.6909483" lon="9.4287776"><ele>1002.25</ele><time>2026-04-18T09:36:53.266Z</time></trkpt><trkpt lat="44.6908815" lon="9.4286638"><ele>1003.0</ele><time>2026-04-18T09:36:54.267Z</time></trkpt><trkpt lat="44.6908154" lon="9.4285441"><ele>1002.3333333333333</ele><time>2026-04-18T09:36:55.267Z</time></trkpt><trkpt lat="44.6907859" lon="9.4284478"><ele>1001.6666666666666</ele><time>2026-04-18T09:36:56.268Z</time></trkpt><trkpt lat="44.6907815" lon="9.4283395"><ele>1001.0</ele><time>2026-04-18T09:36:57.266Z</time></trkpt><trkpt lat="44.690767" lon="9.4282463"><ele>1000.3333333333333</ele><time>2026-04-18T09:36:58.266Z</time></trkpt><trkpt lat="44.6907533" lon="9.4281043"><ele>999.6666666666666</ele><time>2026-04-18T09:37:01.267Z</time></trkpt><trkpt lat="44.6907453" lon="9.4280127"><ele>999.0</ele><time>2026-04-18T09:37:02.266Z</time></trkpt><trkpt lat="44.6907306" lon="9.4278655"><ele>999.0</ele><time>2026-04-18T09:37:04.268Z</time></trkpt><trkpt lat="44.6906763" lon="9.4278035"><ele>999.0</ele><time>2026-04-18T09:37:06.268Z</time></trkpt><trkpt lat="44.6906097" lon="9.4278152"><ele>999.0</ele><time>2026-04-18T09:37:20.268Z</time></trkpt><trkpt lat="44.6905448" lon="9.4278449"><ele>999.0</ele><time>2026-04-18T09:37:35.267Z</time></trkpt><trkpt lat="44.6906141" lon="9.4278068"><ele>999.0</ele><time>2026-04-18T09:37:51.266Z</time></trkpt><trkpt lat="44.6907092" lon="9.4277965"><ele>999.0</ele><time>2026-04-18T09:37:53.266Z</time></trkpt><trkpt lat="44.690734" lon="9.4279124"><ele>997.8000000000001</ele><time>2026-04-18T09:37:56.267Z</time></trkpt><trkpt lat="44.6907291" lon="9.4280862"><ele>996.6000000000001</ele><time>2026-04-18T09:37:58.267Z</time></trkpt><trkpt lat="44.6907052" lon="9.4282366"><ele>995.4</ele><time>2026-04-18T09:38:00.267Z</time></trkpt><trkpt lat="44.6906561" lon="9.4283168"><ele>994.2</ele><time>2026-04-18T09:38:03.268Z</time></trkpt><trkpt lat="44.6906087" lon="9.4284109"><ele>993.0</ele><time>2026-04-18T09:38:11.267Z</time></trkpt><trkpt lat="44.6905284" lon="9.4285808"><ele>993.0</ele><time>2026-04-18T09:38:13.267Z</time></trkpt><trkpt lat="44.6904816" lon="9.4286915"><ele>993.0</ele><time>2026-04-18T09:38:14.268Z</time></trkpt><trkpt lat="44.690426" lon="9.4288309"><ele>993.0</ele><time>2026-04-18T09:38:15.268Z</time></trkpt><trkpt lat="44.6903845" lon="9.4289929"><ele>993.0</ele><time>2026-04-18T09:38:16.267Z</time></trkpt><trkpt lat="44.6903548" lon="9.4291371"><ele>993.0</ele><time>2026-04-18T09:38:17.267Z</time></trkpt><trkpt lat="44.6903232" lon="9.4292724"><ele>994.8</ele><time>2026-04-18T09:38:18.268Z</time></trkpt><trkpt lat="44.6902826" lon="9.4293913"><ele>996.5999999999999</ele><time>2026-04-18T09:38:19.267Z</time></trkpt><trkpt lat="44.6902376" lon="9.429523"><ele>998.4000000000001</ele><time>2026-04-18T09:38:20.267Z</time></trkpt><trkpt lat="44.6901862" lon="9.4296587"><ele>1000.2</ele><time>2026-04-18T09:38:21.267Z</time></trkpt><trkpt lat="44.6901332" lon="9.429785"><ele>1002.0</ele><time>2026-04-18T09:38:22.266Z</time></trkpt><trkpt lat="44.6900835" lon="9.4298951"><ele>1003.5</ele><time>2026-04-18T09:38:23.267Z</time></trkpt><trkpt lat="44.6900309" lon="9.429983"><ele>1005.0</ele><time>2026-04-18T09:38:24.268Z</time></trkpt><trkpt lat="44.6899694" lon="9.4300547"><ele>1006.5</ele><time>2026-04-18T09:38:25.267Z</time></trkpt><trkpt lat="44.6899016" lon="9.4300923"><ele>1008.0</ele><time>2026-04-18T09:38:26.267Z</time></trkpt><trkpt lat="44.6898223" lon="9.4300997"><ele>1009.5</ele><time>2026-04-18T09:38:27.267Z</time></trkpt><trkpt lat="44.6897088" lon="9.4300732"><ele>1011.0</ele><time>2026-04-18T09:38:28.268Z</time></trkpt><trkpt lat="44.6896187" lon="9.4300342"><ele>1011.0</ele><time>2026-04-18T09:38:29.268Z</time></trkpt><trkpt lat="44.689532" lon="9.4299842"><ele>1010.9999999999999</ele><time>2026-04-18T09:38:30.266Z</time></trkpt><trkpt lat="44.6894371" lon="9.4299353"><ele>1010.9999999999999</ele><time>2026-04-18T09:38:31.267Z</time></trkpt><trkpt lat="44.6893434" lon="9.4298986"><ele>1011.0</ele><time>2026-04-18T09:38:32.266Z</time></trkpt><trkpt lat="44.6892552" lon="9.4298308"><ele>1011.0</ele><time>2026-04-18T09:38:33.267Z</time></trkpt><trkpt lat="44.6891592" lon="9.4297452"><ele>1010.8</ele><time>2026-04-18T09:38:34.267Z</time></trkpt><trkpt lat="44.6890768" lon="9.4296483"><ele>1010.5999999999999</ele><time>2026-04-18T09:38:35.267Z</time></trkpt><trkpt lat="44.6890055" lon="9.4295422"><ele>1010.4</ele><time>2026-04-18T09:38:36.266Z</time></trkpt><trkpt lat="44.6889288" lon="9.4294379"><ele>1010.2</ele><time>2026-04-18T09:38:37.267Z</time></trkpt><trkpt lat="44.6888534" lon="9.4293377"><ele>1010.0</ele><time>2026-04-18T09:38:38.267Z</time></trkpt><trkpt lat="44.6887909" lon="9.4292546"><ele>1010.0000000000001</ele><time>2026-04-18T09:38:39.267Z</time></trkpt><trkpt lat="44.6887446" lon="9.4291869"><ele>1010.0</ele><time>2026-04-18T09:38:40.266Z</time></trkpt><trkpt lat="44.6886575" lon="9.4290382"><ele>1010.0</ele><time>2026-04-18T09:38:42.267Z</time></trkpt><trkpt lat="44.6886091" lon="9.4289513"><ele>1010.0</ele><time>2026-04-18T09:38:43.268Z</time></trkpt><trkpt lat="44.6885602" lon="9.4288659"><ele>1010.0000000000001</ele><time>2026-04-18T09:38:44.268Z</time></trkpt><trkpt lat="44.6885001" lon="9.4287852"><ele>1010.0</ele><time>2026-04-18T09:38:45.267Z</time></trkpt><trkpt lat="44.6884457" lon="9.4287003"><ele>1013.6666666666667</ele><time>2026-04-18T09:38:46.267Z</time></trkpt><trkpt lat="44.6884072" lon="9.4286181"><ele>1017.3333333333334</ele><time>2026-04-18T09:38:47.267Z</time></trkpt><trkpt lat="44.6883744" lon="9.4285301"><ele>1021.0</ele><time>2026-04-18T09:38:48.266Z</time></trkpt><trkpt lat="44.6883761" lon="9.4284244"><ele>1024.6666666666667</ele><time>2026-04-18T09:38:49.266Z</time></trkpt><trkpt lat="44.6883832" lon="9.428323"><ele>1028.3333333333333</ele><time>2026-04-18T09:38:50.267Z</time></trkpt><trkpt lat="44.6883845" lon="9.4282321"><ele>1032.0</ele><time>2026-04-18T09:38:51.267Z</time></trkpt><trkpt lat="44.6883071" lon="9.4281482"><ele>1032.0</ele><time>2026-04-18T09:38:53.267Z</time></trkpt><trkpt lat="44.6882234" lon="9.4281068"><ele>1032.0</ele><time>2026-04-18T09:38:55.267Z</time></trkpt><trkpt lat="44.6881724" lon="9.4282443"><ele>1032.0</ele><time>2026-04-18T09:38:57.266Z</time></trkpt><trkpt lat="44.6881802" lon="9.4283542"><ele>1032.0</ele><time>2026-04-18T09:38:58.267Z</time></trkpt><trkpt lat="44.688196" lon="9.4285001"><ele>1032.0</ele><time>2026-04-18T09:38:59.267Z</time></trkpt><trkpt lat="44.6882084" lon="9.4286405"><ele>1032.0</ele><time>2026-04-18T09:39:00.266Z</time></trkpt><trkpt lat="44.6882311" lon="9.4288043"><ele>1032.0</ele><time>2026-04-18T09:39:01.266Z</time></trkpt><trkpt lat="44.6882321" lon="9.4289625"><ele>1032.0</ele><time>2026-04-18T09:39:02.266Z</time></trkpt><trkpt lat="44.6882212" lon="9.4291101"><ele>1032.0</ele><time>2026-04-18T09:39:03.267Z</time></trkpt><trkpt lat="44.6881898" lon="9.4292639"><ele>1033.5</ele><time>2026-04-18T09:39:04.267Z</time></trkpt><trkpt lat="44.6881626" lon="9.4293988"><ele>1035.0</ele><time>2026-04-18T09:39:05.267Z</time></trkpt><trkpt lat="44.6881337" lon="9.429503"><ele>1036.5</ele><time>2026-04-18T09:39:06.267Z</time></trkpt><trkpt lat="44.6880912" lon="9.4296012"><ele>1038.0</ele><time>2026-04-18T09:39:07.267Z</time></trkpt><trkpt lat="44.6880377" lon="9.4296763"><ele>1039.5</ele><time>2026-04-18T09:39:08.267Z</time></trkpt><trkpt lat="44.6879614" lon="9.4297241"><ele>1041.0</ele><time>2026-04-18T09:39:09.266Z</time></trkpt><trkpt lat="44.6878873" lon="9.4297803"><ele>1041.8</ele><time>2026-04-18T09:39:10.268Z</time></trkpt><trkpt lat="44.6878352" lon="9.4298512"><ele>1042.6</ele><time>2026-04-18T09:39:11.268Z</time></trkpt><trkpt lat="44.6877987" lon="9.4300327"><ele>1043.4</ele><time>2026-04-18T09:39:13.267Z</time></trkpt><trkpt lat="44.6878146" lon="9.4301704"><ele>1044.2</ele><time>2026-04-18T09:39:14.268Z</time></trkpt><trkpt lat="44.6878349" lon="9.4303188"><ele>1045.0</ele><time>2026-04-18T09:39:15.268Z</time></trkpt><trkpt lat="44.6878514" lon="9.4304776"><ele>1046.8</ele><time>2026-04-18T09:39:16.267Z</time></trkpt><trkpt lat="44.6878722" lon="9.4306267"><ele>1048.6</ele><time>2026-04-18T09:39:17.267Z</time></trkpt><trkpt lat="44.6878905" lon="9.430777"><ele>1050.4</ele><time>2026-04-18T09:39:18.267Z</time></trkpt><trkpt lat="44.6879068" lon="9.4309118"><ele>1052.2</ele><time>2026-04-18T09:39:19.267Z</time></trkpt><trkpt lat="44.6879334" lon="9.4310149"><ele>1054.0</ele><time>2026-04-18T09:39:20.267Z</time></trkpt><trkpt lat="44.6879782" lon="9.4311316"><ele>1054.0</ele><time>2026-04-18T09:39:21.267Z</time></trkpt><trkpt lat="44.6880232" lon="9.4312505"><ele>1054.0</ele><time>2026-04-18T09:39:22.267Z</time></trkpt><trkpt lat="44.6880664" lon="9.4313619"><ele>1054.0</ele><time>2026-04-18T09:39:23.268Z</time></trkpt><trkpt lat="44.6881152" lon="9.431466"><ele>1054.0</ele><time>2026-04-18T09:39:24.267Z</time></trkpt><trkpt lat="44.6881687" lon="9.4315708"><ele>1054.0</ele><time>2026-04-18T09:39:25.267Z</time></trkpt><trkpt lat="44.6882121" lon="9.4316886"><ele>1055.2</ele><time>2026-04-18T09:39:26.266Z</time></trkpt><trkpt lat="44.6882335" lon="9.4318162"><ele>1056.4</ele><time>2026-04-18T09:39:27.267Z</time></trkpt><trkpt lat="44.6882461" lon="9.4319541"><ele>1057.6</ele><time>2026-04-18T09:39:28.267Z</time></trkpt><trkpt lat="44.6882604" lon="9.432099"><ele>1058.8</ele><time>2026-04-18T09:39:29.266Z</time></trkpt><trkpt lat="44.6882789" lon="9.4322303"><ele>1060.0</ele><time>2026-04-18T09:39:30.266Z</time></trkpt><trkpt lat="44.6882982" lon="9.4323614"><ele>1061.8</ele><time>2026-04-18T09:39:31.267Z</time></trkpt><trkpt lat="44.6883182" lon="9.4324916"><ele>1063.6</ele><time>2026-04-18T09:39:32.267Z</time></trkpt><trkpt lat="44.6883344" lon="9.4326226"><ele>1065.4</ele><time>2026-04-18T09:39:33.267Z</time></trkpt><trkpt lat="44.6883525" lon="9.432747"><ele>1067.2</ele><time>2026-04-18T09:39:34.267Z</time></trkpt><trkpt lat="44.6883842" lon="9.4328767"><ele>1069.0</ele><time>2026-04-18T09:39:36.267Z</time></trkpt><trkpt lat="44.6884014" lon="9.4330255"><ele>1071.5</ele><time>2026-04-18T09:39:40.267Z</time></trkpt><trkpt lat="44.6883889" lon="9.4331209"><ele>1074.0</ele><time>2026-04-18T09:39:41.266Z</time></trkpt><trkpt lat="44.6883585" lon="9.433199"><ele>1076.5</ele><time>2026-04-18T09:39:42.267Z</time></trkpt><trkpt lat="44.6882584" lon="9.4332929"><ele>1079.0</ele><time>2026-04-18T09:39:44.267Z</time></trkpt><trkpt lat="44.688189" lon="9.4333243"><ele>1081.5</ele><time>2026-04-18T09:39:45.266Z</time></trkpt><trkpt lat="44.6881219" lon="9.433333"><ele>1084.0</ele><time>2026-04-18T09:39:46.266Z</time></trkpt><trkpt lat="44.6880396" lon="9.433327"><ele>1084.0</ele><time>2026-04-18T09:39:47.267Z</time></trkpt><trkpt lat="44.6879546" lon="9.4332608"><ele>1084.0</ele><time>2026-04-18T09:39:48.267Z</time></trkpt><trkpt lat="44.6878637" lon="9.4331928"><ele>1084.0</ele><time>2026-04-18T09:39:49.268Z</time></trkpt><trkpt lat="44.687798" lon="9.433162"><ele>1084.0</ele><time>2026-04-18T09:39:50.267Z</time></trkpt><trkpt lat="44.687694" lon="9.433167"><ele>1084.0</ele><time>2026-04-18T09:39:52.267Z</time></trkpt><trkpt lat="44.6875809" lon="9.4332906"><ele>1084.5</ele><time>2026-04-18T09:39:54.267Z</time></trkpt><trkpt lat="44.6875162" lon="9.4333833"><ele>1085.0</ele><time>2026-04-18T09:39:55.267Z</time></trkpt><trkpt lat="44.6874552" lon="9.4334509"><ele>1085.5</ele><time>2026-04-18T09:39:56.267Z</time></trkpt><trkpt lat="44.6873732" lon="9.4334917"><ele>1086.0</ele><time>2026-04-18T09:39:57.267Z</time></trkpt><trkpt lat="44.6872922" lon="9.433519"><ele>1086.5</ele><time>2026-04-18T09:39:58.266Z</time></trkpt><trkpt lat="44.6872157" lon="9.433505"><ele>1087.0</ele><time>2026-04-18T09:39:59.266Z</time></trkpt><trkpt lat="44.6871249" lon="9.4334628"><ele>1087.0</ele><time>2026-04-18T09:40:00.267Z</time></trkpt><trkpt lat="44.6870422" lon="9.4334458"><ele>1087.0</ele><time>2026-04-18T09:40:01.267Z</time></trkpt><trkpt lat="44.686971" lon="9.4334409"><ele>1087.0</ele><time>2026-04-18T09:40:02.267Z</time></trkpt><trkpt lat="44.6868736" lon="9.4335031"><ele>1087.0</ele><time>2026-04-18T09:40:04.267Z</time></trkpt><trkpt lat="44.6868334" lon="9.433573"><ele>1087.0</ele><time>2026-04-18T09:40:05.267Z</time></trkpt><trkpt lat="44.6868195" lon="9.4337266"><ele>1087.0</ele><time>2026-04-18T09:40:07.267Z</time></trkpt><trkpt lat="44.6868473" lon="9.4338275"><ele>1087.0</ele><time>2026-04-18T09:40:09.267Z</time></trkpt><trkpt lat="44.6869042" lon="9.4338916"><ele>1087.0</ele><time>2026-04-18T09:40:18.266Z</time></trkpt><trkpt lat="44.6869686" lon="9.4339312"><ele>1087.0</ele><time>2026-04-18T09:40:23.266Z</time></trkpt><trkpt lat="44.6870524" lon="9.434019"><ele>1087.0</ele><time>2026-04-18T09:41:31.266Z</time></trkpt><trkpt lat="44.6871157" lon="9.4341553"><ele>1087.0</ele><time>2026-04-18T09:41:33.266Z</time></trkpt><trkpt lat="44.6871407" lon="9.4342959"><ele>1087.0</ele><time>2026-04-18T09:41:35.267Z</time></trkpt><trkpt lat="44.6871208" lon="9.4344079"><ele>1087.0</ele><time>2026-04-18T09:41:37.267Z</time></trkpt><trkpt lat="44.687061" lon="9.4345111"><ele>1087.0</ele><time>2026-04-18T09:41:39.267Z</time></trkpt><trkpt lat="44.6869994" lon="9.4345652"><ele>1087.0</ele><time>2026-04-18T09:41:40.266Z</time></trkpt><trkpt lat="44.6869173" lon="9.4346227"><ele>1087.0</ele><time>2026-04-18T09:41:41.267Z</time></trkpt><trkpt lat="44.6868423" lon="9.4346729"><ele>1087.0</ele><time>2026-04-18T09:41:42.267Z</time></trkpt><trkpt lat="44.6867686" lon="9.4347793"><ele>1088.5</ele><time>2026-04-18T09:41:44.267Z</time></trkpt><trkpt lat="44.6867531" lon="9.4349359"><ele>1090.0</ele><time>2026-04-18T09:41:46.267Z</time></trkpt><trkpt lat="44.6867468" lon="9.4350259"><ele>1091.5</ele><time>2026-04-18T09:41:47.267Z</time></trkpt><trkpt lat="44.6867521" lon="9.4351309"><ele>1093.0</ele><time>2026-04-18T09:41:48.267Z</time></trkpt><trkpt lat="44.686748" lon="9.4352295"><ele>1094.5</ele><time>2026-04-18T09:41:49.267Z</time></trkpt><trkpt lat="44.686748" lon="9.4353221"><ele>1096.0</ele><time>2026-04-18T09:41:50.267Z</time></trkpt><trkpt lat="44.6867551" lon="9.4354283"><ele>1096.8333333333333</ele><time>2026-04-18T09:41:51.266Z</time></trkpt><trkpt lat="44.6867636" lon="9.4355477"><ele>1097.6666666666665</ele><time>2026-04-18T09:41:52.266Z</time></trkpt><trkpt lat="44.6867745" lon="9.4356654"><ele>1098.5</ele><time>2026-04-18T09:41:53.268Z</time></trkpt><trkpt lat="44.6867874" lon="9.4357806"><ele>1099.3333333333333</ele><time>2026-04-18T09:41:54.268Z</time></trkpt><trkpt lat="44.6867902" lon="9.4359004"><ele>1100.1666666666667</ele><time>2026-04-18T09:41:55.267Z</time></trkpt><trkpt lat="44.6867814" lon="9.4360241"><ele>1101.0</ele><time>2026-04-18T09:41:56.266Z</time></trkpt><trkpt lat="44.6867805" lon="9.4361535"><ele>1101.0</ele><time>2026-04-18T09:41:57.267Z</time></trkpt><trkpt lat="44.6867856" lon="9.4362524"><ele>1101.0</ele><time>2026-04-18T09:41:58.267Z</time></trkpt><trkpt lat="44.6868247" lon="9.436435"><ele>1101.0</ele><time>2026-04-18T09:42:00.267Z</time></trkpt><trkpt lat="44.6868383" lon="9.4365241"><ele>1101.0</ele><time>2026-04-18T09:42:01.267Z</time></trkpt><trkpt lat="44.6868468" lon="9.4366193"><ele>1101.0</ele><time>2026-04-18T09:42:02.267Z</time></trkpt><trkpt lat="44.6868469" lon="9.436714"><ele>1101.0</ele><time>2026-04-18T09:42:03.267Z</time></trkpt><trkpt lat="44.6868369" lon="9.4368378"><ele>1102.1666666666667</ele><time>2026-04-18T09:42:04.267Z</time></trkpt><trkpt lat="44.6868324" lon="9.4369469"><ele>1103.3333333333333</ele><time>2026-04-18T09:42:05.267Z</time></trkpt><trkpt lat="44.686854" lon="9.4371152"><ele>1104.5</ele><time>2026-04-18T09:42:07.267Z</time></trkpt><trkpt lat="44.6868811" lon="9.4371964"><ele>1105.6666666666665</ele><time>2026-04-18T09:42:08.268Z</time></trkpt><trkpt lat="44.6869094" lon="9.4372902"><ele>1106.8333333333333</ele><time>2026-04-18T09:42:09.266Z</time></trkpt><trkpt lat="44.6869345" lon="9.4373901"><ele>1108.0</ele><time>2026-04-18T09:42:10.267Z</time></trkpt><trkpt lat="44.6869481" lon="9.4374908"><ele>1108.5</ele><time>2026-04-18T09:42:11.267Z</time></trkpt><trkpt lat="44.6869454" lon="9.4375942"><ele>1109.0</ele><time>2026-04-18T09:42:12.267Z</time></trkpt><trkpt lat="44.6869389" lon="9.437696"><ele>1109.5</ele><time>2026-04-18T09:42:13.267Z</time></trkpt><trkpt lat="44.6869089" lon="9.4378437"><ele>1110.0</ele><time>2026-04-18T09:42:15.266Z</time></trkpt><trkpt lat="44.6869268" lon="9.4380054"><ele>1110.5</ele><time>2026-04-18T09:42:17.267Z</time></trkpt><trkpt lat="44.6869592" lon="9.4381038"><ele>1111.0</ele><time>2026-04-18T09:42:18.268Z</time></trkpt><trkpt lat="44.6869945" lon="9.4381979"><ele>1117.5</ele><time>2026-04-18T09:42:19.268Z</time></trkpt><trkpt lat="44.6870357" lon="9.4382953"><ele>1124.0</ele><time>2026-04-18T09:42:20.268Z</time></trkpt><trkpt lat="44.6870694" lon="9.4383855"><ele>1130.5</ele><time>2026-04-18T09:42:21.267Z</time></trkpt><trkpt lat="44.6870955" lon="9.4384685"><ele>1137.0</ele><time>2026-04-18T09:42:22.266Z</time></trkpt><trkpt lat="44.6871465" lon="9.4386439"><ele>1143.5</ele><time>2026-04-18T09:42:24.267Z</time></trkpt><trkpt lat="44.6871759" lon="9.438753"><ele>1150.0</ele><time>2026-04-18T09:42:25.267Z</time></trkpt><trkpt lat="44.6871977" lon="9.438848"><ele>1150.4</ele><time>2026-04-18T09:42:26.267Z</time></trkpt><trkpt lat="44.6871876" lon="9.4389818"><ele>1150.8</ele><time>2026-04-18T09:42:28.266Z</time></trkpt><trkpt lat="44.6871205" lon="9.4390554"><ele>1151.2</ele><time>2026-04-18T09:42:30.267Z</time></trkpt><trkpt lat="44.6869866" lon="9.4390679"><ele>1151.6</ele><time>2026-04-18T09:42:32.266Z</time></trkpt><trkpt lat="44.6869174" lon="9.4391013"><ele>1152.0</ele><time>2026-04-18T09:42:33.267Z</time></trkpt><trkpt lat="44.6868669" lon="9.4391905"><ele>1149.3333333333333</ele><time>2026-04-18T09:42:35.268Z</time></trkpt><trkpt lat="44.6868312" lon="9.4393581"><ele>1146.6666666666667</ele><time>2026-04-18T09:42:37.267Z</time></trkpt><trkpt lat="44.686815" lon="9.4394611"><ele>1144.0</ele><time>2026-04-18T09:42:38.266Z</time></trkpt><trkpt lat="44.6868016" lon="9.4395586"><ele>1141.3333333333335</ele><time>2026-04-18T09:42:39.267Z</time></trkpt><trkpt lat="44.686796" lon="9.4396572"><ele>1138.6666666666667</ele><time>2026-04-18T09:42:40.267Z</time></trkpt><trkpt lat="44.6867977" lon="9.4397631"><ele>1136.0</ele><time>2026-04-18T09:42:41.267Z</time></trkpt><trkpt lat="44.6868003" lon="9.4398924"><ele>1136.0</ele><time>2026-04-18T09:42:42.267Z</time></trkpt><trkpt lat="44.686805" lon="9.4400313"><ele>1136.0</ele><time>2026-04-18T09:42:43.266Z</time></trkpt><trkpt lat="44.6868043" lon="9.4401815"><ele>1136.0</ele><time>2026-04-18T09:42:44.266Z</time></trkpt><trkpt lat="44.6867922" lon="9.4403015"><ele>1136.0</ele><time>2026-04-18T09:42:45.266Z</time></trkpt><trkpt lat="44.686782" lon="9.4404149"><ele>1136.0</ele><time>2026-04-18T09:42:46.267Z</time></trkpt><trkpt lat="44.6867748" lon="9.4405218"><ele>1136.0</ele><time>2026-04-18T09:42:47.267Z</time></trkpt><trkpt lat="44.686774" lon="9.4406238"><ele>1136.3333333333335</ele><time>2026-04-18T09:42:48.267Z</time></trkpt><trkpt lat="44.6867837" lon="9.4407275"><ele>1136.6666666666667</ele><time>2026-04-18T09:42:49.267Z</time></trkpt><trkpt lat="44.686806" lon="9.4408206"><ele>1137.0</ele><time>2026-04-18T09:42:50.266Z</time></trkpt><trkpt lat="44.6868321" lon="9.4409053"><ele>1137.3333333333333</ele><time>2026-04-18T09:42:51.267Z</time></trkpt><trkpt lat="44.6868512" lon="9.4410664"><ele>1137.6666666666665</ele><time>2026-04-18T09:42:53.267Z</time></trkpt><trkpt lat="44.6868527" lon="9.4412165"><ele>1138.0</ele><time>2026-04-18T09:42:55.266Z</time></trkpt><trkpt lat="44.6868499" lon="9.4414076"><ele>1138.2</ele><time>2026-04-18T09:42:57.268Z</time></trkpt><trkpt lat="44.6868634" lon="9.4415271"><ele>1138.4</ele><time>2026-04-18T09:42:58.266Z</time></trkpt><trkpt lat="44.6868778" lon="9.4416344"><ele>1138.6000000000001</ele><time>2026-04-18T09:42:59.267Z</time></trkpt><trkpt lat="44.6869089" lon="9.4417361"><ele>1138.8</ele><time>2026-04-18T09:43:00.267Z</time></trkpt><trkpt lat="44.6869539" lon="9.4418704"><ele>1139.0</ele><time>2026-04-18T09:43:01.267Z</time></trkpt><trkpt lat="44.6870004" lon="9.442014"><ele>1139.6666666666667</ele><time>2026-04-18T09:43:02.267Z</time></trkpt><trkpt lat="44.6870426" lon="9.4421413"><ele>1140.3333333333335</ele><time>2026-04-18T09:43:03.267Z</time></trkpt><trkpt lat="44.6870724" lon="9.4422451"><ele>1141.0</ele><time>2026-04-18T09:43:04.266Z</time></trkpt><trkpt lat="44.6870465" lon="9.4423936"><ele>1141.6666666666667</ele><time>2026-04-18T09:43:06.267Z</time></trkpt><trkpt lat="44.6869966" lon="9.4424499"><ele>1142.3333333333333</ele><time>2026-04-18T09:43:07.267Z</time></trkpt><trkpt lat="44.6869305" lon="9.4425128"><ele>1143.0</ele><time>2026-04-18T09:43:08.266Z</time></trkpt><trkpt lat="44.6868773" lon="9.4425694"><ele>1143.0</ele><time>2026-04-18T09:43:09.267Z</time></trkpt><trkpt lat="44.6868241" lon="9.4426955"><ele>1143.0</ele><time>2026-04-18T09:43:11.267Z</time></trkpt><trkpt lat="44.6868377" lon="9.4428341"><ele>1143.0</ele><time>2026-04-18T09:43:13.267Z</time></trkpt><trkpt lat="44.6868803" lon="9.4429704"><ele>1143.0</ele><time>2026-04-18T09:43:15.268Z</time></trkpt><trkpt lat="44.6869006" lon="9.4431435"><ele>1143.0</ele><time>2026-04-18T09:43:17.268Z</time></trkpt><trkpt lat="44.6869057" lon="9.4432352"><ele>1143.1666666666667</ele><time>2026-04-18T09:43:18.268Z</time></trkpt><trkpt lat="44.6869139" lon="9.4433269"><ele>1143.3333333333333</ele><time>2026-04-18T09:43:19.267Z</time></trkpt><trkpt lat="44.6869558" lon="9.4434316"><ele>1143.5</ele><time>2026-04-18T09:43:21.267Z</time></trkpt><trkpt lat="44.6870499" lon="9.4435026"><ele>1143.6666666666665</ele><time>2026-04-18T09:43:23.267Z</time></trkpt><trkpt lat="44.6871137" lon="9.443542"><ele>1143.8333333333333</ele><time>2026-04-18T09:43:24.266Z</time></trkpt><trkpt lat="44.6871801" lon="9.443599"><ele>1144.0</ele><time>2026-04-18T09:43:25.266Z</time></trkpt><trkpt lat="44.6872218" lon="9.4436704"><ele>1148.2</ele><time>2026-04-18T09:43:26.267Z</time></trkpt><trkpt lat="44.6872406" lon="9.4437651"><ele>1152.4</ele><time>2026-04-18T09:43:27.267Z</time></trkpt><trkpt lat="44.687253" lon="9.4438992"><ele>1156.6</ele><time>2026-04-18T09:43:28.267Z</time></trkpt><trkpt lat="44.6872512" lon="9.4440374"><ele>1160.8</ele><time>2026-04-18T09:43:29.267Z</time></trkpt><trkpt lat="44.6872456" lon="9.4441924"><ele>1165.0</ele><time>2026-04-18T09:43:30.268Z</time></trkpt><trkpt lat="44.6872523" lon="9.444337"><ele>1165.0</ele><time>2026-04-18T09:43:31.266Z</time></trkpt><trkpt lat="44.6872768" lon="9.4444753"><ele>1165.0</ele><time>2026-04-18T09:43:32.266Z</time></trkpt><trkpt lat="44.6873148" lon="9.4446011"><ele>1165.0</ele><time>2026-04-18T09:43:33.267Z</time></trkpt><trkpt lat="44.6873425" lon="9.4447131"><ele>1165.0</ele><time>2026-04-18T09:43:34.267Z</time></trkpt><trkpt lat="44.6873455" lon="9.4448185"><ele>1165.0</ele><time>2026-04-18T09:43:35.267Z</time></trkpt><trkpt lat="44.6873336" lon="9.4449357"><ele>1165.0</ele><time>2026-04-18T09:43:36.267Z</time></trkpt><trkpt lat="44.6873124" lon="9.4450658"><ele>1165.0</ele><time>2026-04-18T09:43:37.267Z</time></trkpt><trkpt lat="44.6872796" lon="9.4451822"><ele>1165.0</ele><time>2026-04-18T09:43:38.267Z</time></trkpt><trkpt lat="44.6872455" lon="9.4452912"><ele>1165.0</ele><time>2026-04-18T09:43:39.268Z</time></trkpt><trkpt lat="44.6872181" lon="9.4453997"><ele>1165.0</ele><time>2026-04-18T09:43:40.267Z</time></trkpt><trkpt lat="44.6872077" lon="9.445505"><ele>1165.0</ele><time>2026-04-18T09:43:41.267Z</time></trkpt><trkpt lat="44.6871987" lon="9.4456383"><ele>1165.0</ele><time>2026-04-18T09:43:42.267Z</time></trkpt><trkpt lat="44.6871873" lon="9.4457609"><ele>1166.2857142857142</ele><time>2026-04-18T09:43:43.267Z</time></trkpt><trkpt lat="44.6871726" lon="9.4458726"><ele>1167.5714285714284</ele><time>2026-04-18T09:43:44.268Z</time></trkpt><trkpt lat="44.687166" lon="9.4459691"><ele>1168.857142857143</ele><time>2026-04-18T09:43:45.266Z</time></trkpt><trkpt lat="44.6871781" lon="9.446057"><ele>1170.142857142857</ele><time>2026-04-18T09:43:46.266Z</time></trkpt><trkpt lat="44.6871979" lon="9.4461459"><ele>1171.4285714285716</ele><time>2026-04-18T09:43:47.267Z</time></trkpt><trkpt lat="44.6872225" lon="9.4462436"><ele>1172.7142857142858</ele><time>2026-04-18T09:43:48.267Z</time></trkpt><trkpt lat="44.6872544" lon="9.4463301"><ele>1174.0</ele><time>2026-04-18T09:43:49.268Z</time></trkpt><trkpt lat="44.6872819" lon="9.4464372"><ele>1174.3333333333333</ele><time>2026-04-18T09:43:50.266Z</time></trkpt><trkpt lat="44.6873104" lon="9.4465506"><ele>1174.6666666666665</ele><time>2026-04-18T09:43:51.268Z</time></trkpt><trkpt lat="44.6873338" lon="9.4466487"><ele>1175.0</ele><time>2026-04-18T09:43:52.267Z</time></trkpt><trkpt lat="44.687356" lon="9.4467586"><ele>1175.3333333333333</ele><time>2026-04-18T09:43:53.267Z</time></trkpt><trkpt lat="44.6873679" lon="9.4468692"><ele>1175.6666666666667</ele><time>2026-04-18T09:43:54.266Z</time></trkpt><trkpt lat="44.6873633" lon="9.4469634"><ele>1176.0</ele><time>2026-04-18T09:43:55.266Z</time></trkpt><trkpt lat="44.6872872" lon="9.4470867"><ele>1176.8</ele><time>2026-04-18T09:43:57.267Z</time></trkpt><trkpt lat="44.6872125" lon="9.447136"><ele>1177.6</ele><time>2026-04-18T09:43:58.266Z</time></trkpt><trkpt lat="44.6871221" lon="9.4471917"><ele>1178.4</ele><time>2026-04-18T09:43:59.268Z</time></trkpt><trkpt lat="44.6870249" lon="9.4472614"><ele>1179.2</ele><time>2026-04-18T09:44:00.267Z</time></trkpt><trkpt lat="44.6869201" lon="9.4473317"><ele>1180.0</ele><time>2026-04-18T09:44:01.268Z</time></trkpt><trkpt lat="44.6868393" lon="9.4473982"><ele>1179.6</ele><time>2026-04-18T09:44:02.267Z</time></trkpt><trkpt lat="44.6867856" lon="9.4474832"><ele>1179.2</ele><time>2026-04-18T09:44:03.267Z</time></trkpt><trkpt lat="44.6867382" lon="9.4475965"><ele>1178.8</ele><time>2026-04-18T09:44:04.266Z</time></trkpt><trkpt lat="44.6866894" lon="9.4477298"><ele>1178.4</ele><time>2026-04-18T09:44:05.266Z</time></trkpt><trkpt lat="44.686636" lon="9.4478664"><ele>1178.0</ele><time>2026-04-18T09:44:06.267Z</time></trkpt><trkpt lat="44.6865933" lon="9.4479793"><ele>1178.0</ele><time>2026-04-18T09:44:07.267Z</time></trkpt><trkpt lat="44.6865763" lon="9.4480829"><ele>1178.0</ele><time>2026-04-18T09:44:08.267Z</time></trkpt><trkpt lat="44.6865786" lon="9.4481998"><ele>1178.0</ele><time>2026-04-18T09:44:09.267Z</time></trkpt><trkpt lat="44.6866035" lon="9.448332"><ele>1178.0</ele><time>2026-04-18T09:44:10.267Z</time></trkpt><trkpt lat="44.6866181" lon="9.4484378"><ele>1178.0</ele><time>2026-04-18T09:44:11.268Z</time></trkpt><trkpt lat="44.6865953" lon="9.448566"><ele>1178.0</ele><time>2026-04-18T09:44:13.267Z</time></trkpt><trkpt lat="44.6864656" lon="9.4486021"><ele>1178.0</ele><time>2026-04-18T09:44:15.268Z</time></trkpt><trkpt lat="44.6863698" lon="9.4486132"><ele>1178.0</ele><time>2026-04-18T09:44:16.267Z</time></trkpt><trkpt lat="44.6862978" lon="9.4486291"><ele>1178.0</ele><time>2026-04-18T09:44:17.267Z</time></trkpt><trkpt lat="44.6862235" lon="9.4486862"><ele>1178.0</ele><time>2026-04-18T09:44:19.266Z</time></trkpt><trkpt lat="44.686176" lon="9.4487522"><ele>1178.0</ele><time>2026-04-18T09:44:20.267Z</time></trkpt><trkpt lat="44.6861326" lon="9.4488326"><ele>1178.0</ele><time>2026-04-18T09:44:21.267Z</time></trkpt><trkpt lat="44.6860897" lon="9.4489306"><ele>1178.2</ele><time>2026-04-18T09:44:22.267Z</time></trkpt><trkpt lat="44.6860391" lon="9.4490509"><ele>1178.4</ele><time>2026-04-18T09:44:23.267Z</time></trkpt><trkpt lat="44.6859884" lon="9.4491736"><ele>1178.6000000000001</ele><time>2026-04-18T09:44:24.267Z</time></trkpt><trkpt lat="44.6859386" lon="9.4492735"><ele>1178.8</ele><time>2026-04-18T09:44:25.268Z</time></trkpt><trkpt lat="44.6858788" lon="9.4493644"><ele>1179.0</ele><time>2026-04-18T09:44:26.267Z</time></trkpt><trkpt lat="44.685816" lon="9.4494505"><ele>1179.0</ele><time>2026-04-18T09:44:27.267Z</time></trkpt><trkpt lat="44.6857561" lon="9.4495336"><ele>1179.0</ele><time>2026-04-18T09:44:28.267Z</time></trkpt><trkpt lat="44.6856977" lon="9.4496102"><ele>1179.0</ele><time>2026-04-18T09:44:29.266Z</time></trkpt><trkpt lat="44.6856153" lon="9.4497052"><ele>1179.0</ele><time>2026-04-18T09:44:31.267Z</time></trkpt><trkpt lat="44.6854888" lon="9.4497785"><ele>1179.0</ele><time>2026-04-18T09:44:33.266Z</time></trkpt><trkpt lat="44.685412" lon="9.4498234"><ele>1179.6666666666667</ele><time>2026-04-18T09:44:34.267Z</time></trkpt><trkpt lat="44.6853463" lon="9.4498483"><ele>1180.3333333333333</ele><time>2026-04-18T09:44:35.268Z</time></trkpt><trkpt lat="44.6852403" lon="9.4498737"><ele>1181.0</ele><time>2026-04-18T09:44:37.267Z</time></trkpt><trkpt lat="44.6851677" lon="9.4499159"><ele>1181.6666666666665</ele><time>2026-04-18T09:44:39.267Z</time></trkpt><trkpt lat="44.6851083" lon="9.4499791"><ele>1182.3333333333333</ele><time>2026-04-18T09:47:31.266Z</time></trkpt><trkpt lat="44.6850038" lon="9.4499381"><ele>1183.0</ele><time>2026-04-18T09:47:33.267Z</time></trkpt><trkpt lat="44.6849177" lon="9.4498859"><ele>1183.2</ele><time>2026-04-18T09:47:35.266Z</time></trkpt><trkpt lat="44.6848226" lon="9.4498476"><ele>1183.4</ele><time>2026-04-18T09:47:38.265Z</time></trkpt><trkpt lat="44.6847259" lon="9.4497795"><ele>1183.6000000000001</ele><time>2026-04-18T09:47:40.266Z</time></trkpt><trkpt lat="44.6846273" lon="9.4497107"><ele>1183.8</ele><time>2026-04-18T09:47:42.266Z</time></trkpt><trkpt lat="44.6845665" lon="9.4496704"><ele>1184.0</ele><time>2026-04-18T09:47:43.266Z</time></trkpt><trkpt lat="44.6845046" lon="9.4496313"><ele>1182.8333333333335</ele><time>2026-04-18T09:47:44.266Z</time></trkpt><trkpt lat="44.684439" lon="9.4496076"><ele>1181.6666666666667</ele><time>2026-04-18T09:47:45.266Z</time></trkpt><trkpt lat="44.6843741" lon="9.4495741"><ele>1180.5</ele><time>2026-04-18T09:47:46.265Z</time></trkpt><trkpt lat="44.6843054" lon="9.4495494"><ele>1179.3333333333333</ele><time>2026-04-18T09:47:47.265Z</time></trkpt><trkpt lat="44.6842195" lon="9.4495263"><ele>1178.1666666666665</ele><time>2026-04-18T09:47:48.265Z</time></trkpt><trkpt lat="44.6841426" lon="9.4494942"><ele>1177.0</ele><time>2026-04-18T09:47:49.265Z</time></trkpt><trkpt lat="44.6840628" lon="9.4494619"><ele>1176.3333333333333</ele><time>2026-04-18T09:47:50.266Z</time></trkpt><trkpt lat="44.6839847" lon="9.4494194"><ele>1175.6666666666665</ele><time>2026-04-18T09:47:51.266Z</time></trkpt><trkpt lat="44.6839189" lon="9.4493608"><ele>1175.0</ele><time>2026-04-18T09:47:52.266Z</time></trkpt><trkpt lat="44.6838449" lon="9.4493098"><ele>1174.3333333333333</ele><time>2026-04-18T09:47:53.266Z</time></trkpt><trkpt lat="44.6837427" lon="9.4492406"><ele>1173.6666666666667</ele><time>2026-04-18T09:47:55.266Z</time></trkpt><trkpt lat="44.6836735" lon="9.4492048"><ele>1173.0</ele><time>2026-04-18T09:47:56.266Z</time></trkpt><trkpt lat="44.6836034" lon="9.4491734"><ele>1174.6666666666667</ele><time>2026-04-18T09:47:57.266Z</time></trkpt><trkpt lat="44.6835381" lon="9.4491379"><ele>1176.3333333333333</ele><time>2026-04-18T09:47:58.267Z</time></trkpt><trkpt lat="44.6834702" lon="9.4491011"><ele>1178.0</ele><time>2026-04-18T09:47:59.266Z</time></trkpt><trkpt lat="44.6834032" lon="9.4490601"><ele>1179.6666666666665</ele><time>2026-04-18T09:48:00.266Z</time></trkpt><trkpt lat="44.6833349" lon="9.4490265"><ele>1181.3333333333333</ele><time>2026-04-18T09:48:01.267Z</time></trkpt><trkpt lat="44.6832224" lon="9.4489793"><ele>1183.0</ele><time>2026-04-18T09:48:03.267Z</time></trkpt><trkpt lat="44.6831348" lon="9.4489671"><ele>1183.0</ele><time>2026-04-18T09:48:05.265Z</time></trkpt><trkpt lat="44.6830596" lon="9.4489158"><ele>1183.0</ele><time>2026-04-18T09:48:07.266Z</time></trkpt><trkpt lat="44.6829848" lon="9.4488458"><ele>1183.0</ele><time>2026-04-18T09:48:09.265Z</time></trkpt><trkpt lat="44.6829286" lon="9.4488049"><ele>1183.0</ele><time>2026-04-18T09:48:10.266Z</time></trkpt><trkpt lat="44.6828705" lon="9.4487619"><ele>1183.0</ele><time>2026-04-18T09:48:11.265Z</time></trkpt><trkpt lat="44.6827847" lon="9.4486826"><ele>1183.0</ele><time>2026-04-18T09:48:13.266Z</time></trkpt><trkpt lat="44.6827055" lon="9.4485985"><ele>1181.3333333333333</ele><time>2026-04-18T09:48:15.266Z</time></trkpt><trkpt lat="44.682649" lon="9.4485397"><ele>1179.6666666666665</ele><time>2026-04-18T09:48:17.267Z</time></trkpt><trkpt lat="44.6825682" lon="9.4484423"><ele>1178.0</ele><time>2026-04-18T09:48:21.267Z</time></trkpt><trkpt lat="44.6825393" lon="9.4483542"><ele>1176.3333333333333</ele><time>2026-04-18T09:48:22.265Z</time></trkpt><trkpt lat="44.6825074" lon="9.4482762"><ele>1174.6666666666667</ele><time>2026-04-18T09:48:23.265Z</time></trkpt><trkpt lat="44.6824554" lon="9.4481884"><ele>1173.0</ele><time>2026-04-18T09:48:24.267Z</time></trkpt><trkpt lat="44.6823794" lon="9.4480361"><ele>1171.3333333333333</ele><time>2026-04-18T09:48:26.266Z</time></trkpt><trkpt lat="44.6823608" lon="9.4479468"><ele>1169.6666666666667</ele><time>2026-04-18T09:51:18.266Z</time></trkpt><trkpt lat="44.6823065" lon="9.4478521"><ele>1168.0</ele><time>2026-04-18T09:56:00.266Z</time></trkpt><trkpt lat="44.6822574" lon="9.4477696"><ele>1166.3333333333335</ele><time>2026-04-18T09:56:02.265Z</time></trkpt><trkpt lat="44.6822065" lon="9.4476698"><ele>1164.6666666666667</ele><time>2026-04-18T09:56:05.267Z</time></trkpt><trkpt lat="44.6821623" lon="9.4475763"><ele>1163.0</ele><time>2026-04-18T09:56:07.265Z</time></trkpt><trkpt lat="44.6821202" lon="9.4474881"><ele>1163.0</ele><time>2026-04-18T09:56:09.266Z</time></trkpt><trkpt lat="44.6820797" lon="9.4474139"><ele>1163.0</ele><time>2026-04-18T09:56:11.266Z</time></trkpt><trkpt lat="44.6820466" lon="9.4473202"><ele>1163.0</ele><time>2026-04-18T09:56:14.265Z</time></trkpt><trkpt lat="44.681996" lon="9.4472597"><ele>1163.0</ele><time>2026-04-18T09:56:38.266Z</time></trkpt><trkpt lat="44.6819507" lon="9.4471761"><ele>1163.0</ele><time>2026-04-18T09:56:42.266Z</time></trkpt><trkpt lat="44.6819033" lon="9.4470854"><ele>1163.0</ele><time>2026-04-18T09:56:44.265Z</time></trkpt><trkpt lat="44.6818706" lon="9.4469892"><ele>1163.0</ele><time>2026-04-18T09:56:47.265Z</time></trkpt><trkpt lat="44.6818393" lon="9.4469062"><ele>1163.6</ele><time>2026-04-18T09:56:49.266Z</time></trkpt><trkpt lat="44.681808" lon="9.4467883"><ele>1164.1999999999998</ele><time>2026-04-18T09:56:51.265Z</time></trkpt><trkpt lat="44.6817691" lon="9.4466508"><ele>1164.8</ele><time>2026-04-18T09:56:53.265Z</time></trkpt><trkpt lat="44.6817149" lon="9.446572"><ele>1165.3999999999999</ele><time>2026-04-18T09:56:56.265Z</time></trkpt><trkpt lat="44.6816511" lon="9.4464221"><ele>1166.0</ele><time>2026-04-18T09:57:58.266Z</time></trkpt><trkpt lat="44.6816174" lon="9.4463442"><ele>1164.6666666666667</ele><time>2026-04-18T09:57:59.266Z</time></trkpt><trkpt lat="44.6815719" lon="9.4462823"><ele>1163.3333333333335</ele><time>2026-04-18T09:58:00.265Z</time></trkpt><trkpt lat="44.6814677" lon="9.4461869"><ele>1162.0</ele><time>2026-04-18T09:58:02.266Z</time></trkpt><trkpt lat="44.6813983" lon="9.4460667"><ele>1160.6666666666667</ele><time>2026-04-18T09:58:04.265Z</time></trkpt><trkpt lat="44.6813585" lon="9.4459951"><ele>1159.3333333333333</ele><time>2026-04-18T09:58:05.266Z</time></trkpt><trkpt lat="44.6813202" lon="9.4459225"><ele>1158.0</ele><time>2026-04-18T09:58:06.266Z</time></trkpt><trkpt lat="44.6812622" lon="9.4458182"><ele>1158.0</ele><time>2026-04-18T09:58:08.266Z</time></trkpt><trkpt lat="44.6811955" lon="9.4456991"><ele>1158.0</ele><time>2026-04-18T09:58:10.266Z</time></trkpt><trkpt lat="44.6811699" lon="9.4456156"><ele>1158.0</ele><time>2026-04-18T09:58:11.266Z</time></trkpt><trkpt lat="44.6811431" lon="9.4455118"><ele>1158.0</ele><time>2026-04-18T09:58:12.266Z</time></trkpt><trkpt lat="44.6811142" lon="9.4454186"><ele>1158.0</ele><time>2026-04-18T09:58:13.265Z</time></trkpt><trkpt lat="44.6810792" lon="9.4453381"><ele>1158.0</ele><time>2026-04-18T09:58:14.265Z</time></trkpt><trkpt lat="44.6809925" lon="9.4452198"><ele>1158.8571428571427</ele><time>2026-04-18T09:58:16.267Z</time></trkpt><trkpt lat="44.6809292" lon="9.4451532"><ele>1159.7142857142858</ele><time>2026-04-18T09:58:17.266Z</time></trkpt><trkpt lat="44.6808763" lon="9.4450857"><ele>1160.5714285714284</ele><time>2026-04-18T09:58:18.267Z</time></trkpt><trkpt lat="44.6808342" lon="9.4449951"><ele>1161.4285714285713</ele><time>2026-04-18T09:58:19.266Z</time></trkpt><trkpt lat="44.6808039" lon="9.4449105"><ele>1162.2857142857142</ele><time>2026-04-18T09:58:20.266Z</time></trkpt><trkpt lat="44.6807742" lon="9.4448199"><ele>1163.142857142857</ele><time>2026-04-18T09:58:21.266Z</time></trkpt><trkpt lat="44.680743" lon="9.4447187"><ele>1164.0</ele><time>2026-04-18T09:58:22.266Z</time></trkpt><trkpt lat="44.680682" lon="9.4446368"><ele>1163.3333333333333</ele><time>2026-04-18T09:58:23.266Z</time></trkpt><trkpt lat="44.6806373" lon="9.4445522"><ele>1162.6666666666667</ele><time>2026-04-18T09:58:24.266Z</time></trkpt><trkpt lat="44.6805746" lon="9.4444642"><ele>1162.0</ele><time>2026-04-18T09:58:25.265Z</time></trkpt><trkpt lat="44.6805101" lon="9.4443935"><ele>1161.3333333333335</ele><time>2026-04-18T09:58:26.265Z</time></trkpt><trkpt lat="44.6804587" lon="9.4443296"><ele>1160.6666666666667</ele><time>2026-04-18T09:58:27.265Z</time></trkpt><trkpt lat="44.6803948" lon="9.4442829"><ele>1160.0</ele><time>2026-04-18T09:58:28.266Z</time></trkpt><trkpt lat="44.6803023" lon="9.4442159"><ele>1162.4</ele><time>2026-04-18T09:58:30.267Z</time></trkpt><trkpt lat="44.6802006" lon="9.444159"><ele>1164.8</ele><time>2026-04-18T09:58:32.267Z</time></trkpt><trkpt lat="44.6801359" lon="9.4441528"><ele>1167.2</ele><time>2026-04-18T09:58:33.265Z</time></trkpt><trkpt lat="44.6800392" lon="9.4441073"><ele>1169.6</ele><time>2026-04-18T09:58:35.265Z</time></trkpt><trkpt lat="44.6799503" lon="9.4440463"><ele>1172.0</ele><time>2026-04-18T09:58:37.266Z</time></trkpt><trkpt lat="44.6798372" lon="9.4440005"><ele>1172.0</ele><time>2026-04-18T09:58:39.266Z</time></trkpt><trkpt lat="44.67975" lon="9.4439491"><ele>1172.0</ele><time>2026-04-18T09:58:41.266Z</time></trkpt><trkpt lat="44.6796418" lon="9.4438346"><ele>1172.0</ele><time>2026-04-18T09:58:43.266Z</time></trkpt><trkpt lat="44.6795873" lon="9.4437722"><ele>1172.0</ele><time>2026-04-18T09:58:44.266Z</time></trkpt><trkpt lat="44.6795102" lon="9.4436758"><ele>1172.0</ele><time>2026-04-18T09:58:46.266Z</time></trkpt><trkpt lat="44.6794129" lon="9.4435872"><ele>1171.1666666666667</ele><time>2026-04-18T09:58:48.266Z</time></trkpt><trkpt lat="44.6793471" lon="9.4435127"><ele>1170.3333333333335</ele><time>2026-04-18T09:58:50.266Z</time></trkpt><trkpt lat="44.6792767" lon="9.4434865"><ele>1169.5</ele><time>2026-04-18T10:06:27.265Z</time></trkpt><trkpt lat="44.6792007" lon="9.4434808"><ele>1168.6666666666667</ele><time>2026-04-18T10:06:29.265Z</time></trkpt><trkpt lat="44.6790981" lon="9.4434386"><ele>1167.8333333333333</ele><time>2026-04-18T10:06:31.265Z</time></trkpt><trkpt lat="44.6790354" lon="9.4434056"><ele>1167.0</ele><time>2026-04-18T10:06:32.265Z</time></trkpt><trkpt lat="44.6789767" lon="9.4433632"><ele>1167.0</ele><time>2026-04-18T10:06:33.265Z</time></trkpt><trkpt lat="44.6788901" lon="9.4432448"><ele>1167.0</ele><time>2026-04-18T10:06:35.264Z</time></trkpt><trkpt lat="44.6788565" lon="9.4431681"><ele>1167.0</ele><time>2026-04-18T10:06:36.264Z</time></trkpt><trkpt lat="44.6788215" lon="9.4430898"><ele>1167.0</ele><time>2026-04-18T10:06:37.266Z</time></trkpt><trkpt lat="44.678781" lon="9.4430125"><ele>1167.0</ele><time>2026-04-18T10:06:38.265Z</time></trkpt><trkpt lat="44.6786844" lon="9.4429035"><ele>1167.0</ele><time>2026-04-18T10:06:40.264Z</time></trkpt><trkpt lat="44.6786313" lon="9.4428502"><ele>1168.0</ele><time>2026-04-18T10:06:41.266Z</time></trkpt><trkpt lat="44.6785703" lon="9.4427511"><ele>1169.0</ele><time>2026-04-18T10:06:43.265Z</time></trkpt><trkpt lat="44.6785009" lon="9.4426505"><ele>1170.0</ele><time>2026-04-18T10:06:45.265Z</time></trkpt><trkpt lat="44.6784822" lon="9.4425492"><ele>1171.0</ele><time>2026-04-18T10:06:47.265Z</time></trkpt><trkpt lat="44.6784403" lon="9.44246"><ele>1172.0</ele><time>2026-04-18T10:06:48.265Z</time></trkpt><trkpt lat="44.678436" lon="9.442364"><ele>1173.0</ele><time>2026-04-18T10:06:49.264Z</time></trkpt><trkpt lat="44.6784407" lon="9.4422745"><ele>1173.0</ele><time>2026-04-18T10:06:50.265Z</time></trkpt><trkpt lat="44.6784626" lon="9.4421852"><ele>1173.0</ele><time>2026-04-18T10:06:51.265Z</time></trkpt><trkpt lat="44.6784677" lon="9.4420688"><ele>1173.0</ele><time>2026-04-18T10:06:52.265Z</time></trkpt><trkpt lat="44.6785112" lon="9.4419153"><ele>1173.0</ele><time>2026-04-18T10:06:53.264Z</time></trkpt><trkpt lat="44.6785314" lon="9.4417896"><ele>1173.0</ele><time>2026-04-18T10:06:54.265Z</time></trkpt><trkpt lat="44.6785528" lon="9.4416703"><ele>1173.0</ele><time>2026-04-18T10:06:55.265Z</time></trkpt><trkpt lat="44.6785715" lon="9.4415589"><ele>1172.8333333333333</ele><time>2026-04-18T10:06:56.265Z</time></trkpt><trkpt lat="44.6785935" lon="9.441451"><ele>1172.6666666666667</ele><time>2026-04-18T10:06:57.265Z</time></trkpt><trkpt lat="44.678607" lon="9.4413214"><ele>1172.5</ele><time>2026-04-18T10:06:58.264Z</time></trkpt><trkpt lat="44.678625" lon="9.4412019"><ele>1172.3333333333335</ele><time>2026-04-18T10:06:59.264Z</time></trkpt><trkpt lat="44.678634" lon="9.4410828"><ele>1172.1666666666667</ele><time>2026-04-18T10:07:00.265Z</time></trkpt><trkpt lat="44.6786323" lon="9.4409521"><ele>1172.0</ele><time>2026-04-18T10:07:01.265Z</time></trkpt><trkpt lat="44.6786231" lon="9.4408261"><ele>1172.0</ele><time>2026-04-18T10:07:02.264Z</time></trkpt><trkpt lat="44.6786135" lon="9.4407046"><ele>1172.0</ele><time>2026-04-18T10:07:03.264Z</time></trkpt><trkpt lat="44.6786029" lon="9.4405883"><ele>1172.0</ele><time>2026-04-18T10:07:04.264Z</time></trkpt><trkpt lat="44.6785936" lon="9.4404836"><ele>1172.0</ele><time>2026-04-18T10:07:05.266Z</time></trkpt><trkpt lat="44.6785842" lon="9.440382"><ele>1172.0</ele><time>2026-04-18T10:07:06.266Z</time></trkpt><trkpt lat="44.6785735" lon="9.4402747"><ele>1172.0</ele><time>2026-04-18T10:07:07.266Z</time></trkpt><trkpt lat="44.6785274" lon="9.4401211"><ele>1171.0</ele><time>2026-04-18T10:07:09.264Z</time></trkpt><trkpt lat="44.678463" lon="9.4399872"><ele>1170.0</ele><time>2026-04-18T10:07:11.266Z</time></trkpt><trkpt lat="44.6784023" lon="9.4398397"><ele>1169.0</ele><time>2026-04-18T10:07:13.264Z</time></trkpt><trkpt lat="44.6783734" lon="9.4397608"><ele>1168.0</ele><time>2026-04-18T10:07:14.265Z</time></trkpt><trkpt lat="44.6783354" lon="9.4396398"><ele>1167.0</ele><time>2026-04-18T10:07:15.265Z</time></trkpt><trkpt lat="44.6783034" lon="9.4395323"><ele>1165.8333333333333</ele><time>2026-04-18T10:07:16.265Z</time></trkpt><trkpt lat="44.6782693" lon="9.4394178"><ele>1164.6666666666667</ele><time>2026-04-18T10:07:17.266Z</time></trkpt><trkpt lat="44.6782206" lon="9.4392985"><ele>1163.5</ele><time>2026-04-18T10:07:18.265Z</time></trkpt><trkpt lat="44.6781694" lon="9.4391887"><ele>1162.3333333333335</ele><time>2026-04-18T10:07:19.265Z</time></trkpt><trkpt lat="44.6781127" lon="9.43909"><ele>1161.1666666666667</ele><time>2026-04-18T10:07:20.265Z</time></trkpt><trkpt lat="44.6780592" lon="9.4390073"><ele>1160.0</ele><time>2026-04-18T10:07:21.264Z</time></trkpt><trkpt lat="44.6779921" lon="9.4388863"><ele>1157.8333333333335</ele><time>2026-04-18T10:07:23.264Z</time></trkpt><trkpt lat="44.6779722" lon="9.438795"><ele>1155.6666666666667</ele><time>2026-04-18T10:07:25.265Z</time></trkpt><trkpt lat="44.6779735" lon="9.4386756"><ele>1153.5</ele><time>2026-04-18T10:07:28.265Z</time></trkpt><trkpt lat="44.6779668" lon="9.4385699"><ele>1151.3333333333333</ele><time>2026-04-18T10:07:32.265Z</time></trkpt><trkpt lat="44.6779671" lon="9.4384713"><ele>1149.1666666666665</ele><time>2026-04-18T10:07:36.265Z</time></trkpt><trkpt lat="44.6779134" lon="9.4383591"><ele>1147.0</ele><time>2026-04-18T10:08:25.264Z</time></trkpt><trkpt lat="44.6778218" lon="9.4382322"><ele>1148.0</ele><time>2026-04-18T10:08:27.265Z</time></trkpt><trkpt lat="44.6777445" lon="9.4381128"><ele>1149.0</ele><time>2026-04-18T10:08:29.265Z</time></trkpt><trkpt lat="44.6777316" lon="9.4380181"><ele>1150.0</ele><time>2026-04-18T10:08:30.265Z</time></trkpt><trkpt lat="44.6777062" lon="9.4379249"><ele>1151.0</ele><time>2026-04-18T10:08:31.265Z</time></trkpt><trkpt lat="44.6776363" lon="9.4378151"><ele>1152.0</ele><time>2026-04-18T10:08:33.265Z</time></trkpt><trkpt lat="44.6775164" lon="9.4377427"><ele>1152.0</ele><time>2026-04-18T10:08:35.265Z</time></trkpt><trkpt lat="44.6774387" lon="9.4377253"><ele>1152.0</ele><time>2026-04-18T10:08:36.265Z</time></trkpt><trkpt lat="44.6772997" lon="9.4377212"><ele>1152.0</ele><time>2026-04-18T10:08:38.265Z</time></trkpt><trkpt lat="44.6772211" lon="9.4377213"><ele>1152.0</ele><time>2026-04-18T10:08:39.264Z</time></trkpt><trkpt lat="44.6771115" lon="9.4377129"><ele>1152.0</ele><time>2026-04-18T10:08:41.264Z</time></trkpt><trkpt lat="44.6770068" lon="9.4377395"><ele>1153.6</ele><time>2026-04-18T10:08:43.265Z</time></trkpt><trkpt lat="44.6769205" lon="9.4378307"><ele>1155.2</ele><time>2026-04-18T10:08:45.264Z</time></trkpt><trkpt lat="44.6768761" lon="9.4378979"><ele>1156.8</ele><time>2026-04-18T10:08:46.265Z</time></trkpt><trkpt lat="44.6767877" lon="9.4380327"><ele>1158.4</ele><time>2026-04-18T10:08:48.265Z</time></trkpt><trkpt lat="44.6767385" lon="9.4380964"><ele>1160.0</ele><time>2026-04-18T10:08:49.266Z</time></trkpt><trkpt lat="44.6766738" lon="9.4381766"><ele>1160.0</ele><time>2026-04-18T10:08:50.266Z</time></trkpt><trkpt lat="44.6766234" lon="9.4382448"><ele>1160.0</ele><time>2026-04-18T10:08:51.264Z</time></trkpt><trkpt lat="44.676577" lon="9.4383225"><ele>1160.0</ele><time>2026-04-18T10:08:52.265Z</time></trkpt><trkpt lat="44.676543" lon="9.4384013"><ele>1160.0</ele><time>2026-04-18T10:08:53.265Z</time></trkpt><trkpt lat="44.6764883" lon="9.4384986"><ele>1160.0</ele><time>2026-04-18T10:08:55.265Z</time></trkpt><trkpt lat="44.6764084" lon="9.438516"><ele>1160.0</ele><time>2026-04-18T10:08:57.265Z</time></trkpt><trkpt lat="44.6762865" lon="9.4384549"><ele>1160.0</ele><time>2026-04-18T10:08:59.264Z</time></trkpt><trkpt lat="44.6762109" lon="9.4384411"><ele>1160.0</ele><time>2026-04-18T10:09:00.265Z</time></trkpt><trkpt lat="44.676133" lon="9.4384218"><ele>1160.0</ele><time>2026-04-18T10:09:01.264Z</time></trkpt><trkpt lat="44.6760648" lon="9.4383861"><ele>1160.0</ele><time>2026-04-18T10:09:02.265Z</time></trkpt><trkpt lat="44.6759782" lon="9.4383142"><ele>1160.0</ele><time>2026-04-18T10:09:04.265Z</time></trkpt><trkpt lat="44.6759151" lon="9.4382625"><ele>1160.0</ele><time>2026-04-18T10:09:06.265Z</time></trkpt><trkpt lat="44.675824" lon="9.4382414"><ele>1158.8333333333335</ele><time>2026-04-18T10:09:08.265Z</time></trkpt><trkpt lat="44.6757595" lon="9.4382543"><ele>1157.6666666666667</ele><time>2026-04-18T10:09:09.265Z</time></trkpt><trkpt lat="44.6756915" lon="9.4382722"><ele>1156.5</ele><time>2026-04-18T10:09:10.266Z</time></trkpt><trkpt lat="44.6756252" lon="9.438296"><ele>1155.3333333333333</ele><time>2026-04-18T10:09:11.265Z</time></trkpt><trkpt lat="44.6755173" lon="9.4383114"><ele>1154.1666666666665</ele><time>2026-04-18T10:09:13.265Z</time></trkpt><trkpt lat="44.6754381" lon="9.4382613"><ele>1153.0</ele><time>2026-04-18T10:09:15.265Z</time></trkpt><trkpt lat="44.6754179" lon="9.438136"><ele>1153.0</ele><time>2026-04-18T10:09:17.265Z</time></trkpt><trkpt lat="44.6754119" lon="9.4380447"><ele>1153.0</ele><time>2026-04-18T10:09:18.266Z</time></trkpt><trkpt lat="44.6754273" lon="9.4379251"><ele>1153.0</ele><time>2026-04-18T10:09:19.264Z</time></trkpt><trkpt lat="44.675487" lon="9.4377866"><ele>1153.0</ele><time>2026-04-18T10:09:20.264Z</time></trkpt><trkpt lat="44.6755032" lon="9.4376831"><ele>1153.0</ele><time>2026-04-18T10:09:21.264Z</time></trkpt><trkpt lat="44.6754973" lon="9.4375865"><ele>1153.0</ele><time>2026-04-18T10:09:22.264Z</time></trkpt><trkpt lat="44.6754987" lon="9.4374967"><ele>1152.4285714285716</ele><time>2026-04-18T10:09:23.264Z</time></trkpt><trkpt lat="44.6754457" lon="9.4374117"><ele>1151.857142857143</ele><time>2026-04-18T10:09:24.265Z</time></trkpt><trkpt lat="44.6753909" lon="9.4373448"><ele>1151.2857142857142</ele><time>2026-04-18T10:09:25.266Z</time></trkpt><trkpt lat="44.6753331" lon="9.4373036"><ele>1150.7142857142858</ele><time>2026-04-18T10:09:26.266Z</time></trkpt><trkpt lat="44.675268" lon="9.4372665"><ele>1150.142857142857</ele><time>2026-04-18T10:09:27.265Z</time></trkpt><trkpt lat="44.675209" lon="9.4372234"><ele>1149.5714285714287</ele><time>2026-04-18T10:09:28.265Z</time></trkpt><trkpt lat="44.6751445" lon="9.4371721"><ele>1149.0</ele><time>2026-04-18T10:09:29.265Z</time></trkpt><trkpt lat="44.6750914" lon="9.4371079"><ele>1146.8333333333333</ele><time>2026-04-18T10:09:30.265Z</time></trkpt><trkpt lat="44.6750384" lon="9.4370406"><ele>1144.6666666666667</ele><time>2026-04-18T10:09:31.265Z</time></trkpt><trkpt lat="44.674987" lon="9.4369748"><ele>1142.5</ele><time>2026-04-18T10:09:32.264Z</time></trkpt><trkpt lat="44.6749334" lon="9.4369166"><ele>1140.3333333333335</ele><time>2026-04-18T10:09:33.264Z</time></trkpt><trkpt lat="44.6748754" lon="9.4368689"><ele>1138.1666666666667</ele><time>2026-04-18T10:09:34.265Z</time></trkpt><trkpt lat="44.6747666" lon="9.4368031"><ele>1136.0</ele><time>2026-04-18T10:09:36.266Z</time></trkpt><trkpt lat="44.6746916" lon="9.4367247"><ele>1136.0</ele><time>2026-04-18T10:09:38.264Z</time></trkpt><trkpt lat="44.6746336" lon="9.4365711"><ele>1136.0</ele><time>2026-04-18T10:09:40.264Z</time></trkpt><trkpt lat="44.674617" lon="9.4364506"><ele>1136.0</ele><time>2026-04-18T10:09:41.265Z</time></trkpt><trkpt lat="44.6745813" lon="9.4363076"><ele>1136.0</ele><time>2026-04-18T10:09:42.265Z</time></trkpt><trkpt lat="44.6745578" lon="9.4362007"><ele>1136.0</ele><time>2026-04-18T10:09:43.265Z</time></trkpt><trkpt lat="44.6745364" lon="9.4360093"><ele>1134.0</ele><time>2026-04-18T10:09:45.265Z</time></trkpt><trkpt lat="44.6745318" lon="9.435894"><ele>1132.0</ele><time>2026-04-18T10:09:46.266Z</time></trkpt><trkpt lat="44.6745277" lon="9.4357952"><ele>1130.0</ele><time>2026-04-18T10:09:47.265Z</time></trkpt><trkpt lat="44.6745181" lon="9.4357076"><ele>1128.0</ele><time>2026-04-18T10:09:48.266Z</time></trkpt><trkpt lat="44.6745" lon="9.4356182"><ele>1126.0</ele><time>2026-04-18T10:09:49.265Z</time></trkpt><trkpt lat="44.6744678" lon="9.4355324"><ele>1124.0</ele><time>2026-04-18T10:09:50.265Z</time></trkpt><trkpt lat="44.6743959" lon="9.4354037"><ele>1124.0</ele><time>2026-04-18T10:09:52.266Z</time></trkpt><trkpt lat="44.6743433" lon="9.4353546"><ele>1124.0</ele><time>2026-04-18T10:09:53.265Z</time></trkpt><trkpt lat="44.6742852" lon="9.4353148"><ele>1124.0</ele><time>2026-04-18T10:09:54.265Z</time></trkpt><trkpt lat="44.674167" lon="9.4352669"><ele>1124.0</ele><time>2026-04-18T10:09:56.264Z</time></trkpt><trkpt lat="44.6741057" lon="9.4352441"><ele>1124.0</ele><time>2026-04-18T10:09:57.264Z</time></trkpt><trkpt lat="44.6739951" lon="9.4351855"><ele>1124.0</ele><time>2026-04-18T10:09:59.265Z</time></trkpt><trkpt lat="44.6739394" lon="9.4351311"><ele>1124.0</ele><time>2026-04-18T10:10:00.266Z</time></trkpt><trkpt lat="44.6738809" lon="9.4350811"><ele>1124.0</ele><time>2026-04-18T10:10:01.265Z</time></trkpt><trkpt lat="44.6738224" lon="9.4350386"><ele>1124.0</ele><time>2026-04-18T10:10:02.266Z</time></trkpt><trkpt lat="44.6737128" lon="9.4349499"><ele>1124.0</ele><time>2026-04-18T10:10:04.266Z</time></trkpt><trkpt lat="44.6736607" lon="9.4348934"><ele>1124.0</ele><time>2026-04-18T10:10:05.266Z</time></trkpt><trkpt lat="44.6736045" lon="9.4348349"><ele>1124.0</ele><time>2026-04-18T10:10:06.264Z</time></trkpt><trkpt lat="44.6735268" lon="9.4346964"><ele>1120.8</ele><time>2026-04-18T10:10:08.265Z</time></trkpt><trkpt lat="44.6734389" lon="9.4345858"><ele>1117.6000000000001</ele><time>2026-04-18T10:10:10.264Z</time></trkpt><trkpt lat="44.6733802" lon="9.4345276"><ele>1114.4</ele><time>2026-04-18T10:10:11.264Z</time></trkpt><trkpt lat="44.6733206" lon="9.4344834"><ele>1111.2</ele><time>2026-04-18T10:10:12.265Z</time></trkpt><trkpt lat="44.6732487" lon="9.4344554"><ele>1108.0</ele><time>2026-04-18T10:10:13.265Z</time></trkpt><trkpt lat="44.6731431" lon="9.4343786"><ele>1108.0</ele><time>2026-04-18T10:10:15.264Z</time></trkpt><trkpt lat="44.6730431" lon="9.4343329"><ele>1108.0</ele><time>2026-04-18T10:10:17.266Z</time></trkpt><trkpt lat="44.6729426" lon="9.434348"><ele>1108.0</ele><time>2026-04-18T10:10:19.265Z</time></trkpt><trkpt lat="44.6728508" lon="9.4343216"><ele>1108.0</ele><time>2026-04-18T10:10:21.266Z</time></trkpt><trkpt lat="44.6728153" lon="9.4342179"><ele>1108.0</ele><time>2026-04-18T10:10:23.266Z</time></trkpt><trkpt lat="44.672852" lon="9.4340936"><ele>1108.0</ele><time>2026-04-18T10:10:25.265Z</time></trkpt><trkpt lat="44.6729567" lon="9.4340464"><ele>1108.0</ele><time>2026-04-18T10:10:27.265Z</time></trkpt><trkpt lat="44.673028" lon="9.434043"><ele>1108.0</ele><time>2026-04-18T10:10:28.264Z</time></trkpt><trkpt lat="44.6731036" lon="9.4340463"><ele>1108.0</ele><time>2026-04-18T10:10:29.265Z</time></trkpt><trkpt lat="44.6731835" lon="9.4340589"><ele>1108.0</ele><time>2026-04-18T10:10:30.266Z</time></trkpt><trkpt lat="44.6732642" lon="9.434063"><ele>1108.0</ele><time>2026-04-18T10:10:31.265Z</time></trkpt><trkpt lat="44.6733546" lon="9.4340608"><ele>1108.0</ele><time>2026-04-18T10:10:32.265Z</time></trkpt><trkpt lat="44.6734544" lon="9.4340686"><ele>1108.0</ele><time>2026-04-18T10:10:33.265Z</time></trkpt><trkpt lat="44.6735465" lon="9.4340758"><ele>1108.0</ele><time>2026-04-18T10:10:34.264Z</time></trkpt><trkpt lat="44.673622" lon="9.4340796"><ele>1108.0</ele><time>2026-04-18T10:10:35.265Z</time></trkpt><trkpt lat="44.6736907" lon="9.4340681"><ele>1108.0</ele><time>2026-04-18T10:10:36.265Z</time></trkpt><trkpt lat="44.6737571" lon="9.4340271"><ele>1108.0</ele><time>2026-04-18T10:10:37.264Z</time></trkpt><trkpt lat="44.6738231" lon="9.4339583"><ele>1107.8333333333333</ele><time>2026-04-18T10:10:38.264Z</time></trkpt><trkpt lat="44.6738813" lon="9.4338771"><ele>1107.6666666666665</ele><time>2026-04-18T10:10:39.266Z</time></trkpt><trkpt lat="44.6739295" lon="9.4337949"><ele>1107.5</ele><time>2026-04-18T10:10:40.265Z</time></trkpt><trkpt lat="44.6739672" lon="9.4337053"><ele>1107.3333333333333</ele><time>2026-04-18T10:10:41.266Z</time></trkpt><trkpt lat="44.6739945" lon="9.4336063"><ele>1107.1666666666667</ele><time>2026-04-18T10:10:42.265Z</time></trkpt><trkpt lat="44.6740172" lon="9.4335004"><ele>1107.0</ele><time>2026-04-18T10:10:43.265Z</time></trkpt><trkpt lat="44.6740364" lon="9.4333899"><ele>1104.4</ele><time>2026-04-18T10:10:44.265Z</time></trkpt><trkpt lat="44.674056" lon="9.4332828"><ele>1101.8000000000002</ele><time>2026-04-18T10:10:45.265Z</time></trkpt><trkpt lat="44.6741041" lon="9.4331371"><ele>1099.2</ele><time>2026-04-18T10:10:47.266Z</time></trkpt><trkpt lat="44.6742033" lon="9.4330382"><ele>1096.6000000000001</ele><time>2026-04-18T10:10:49.265Z</time></trkpt><trkpt lat="44.6743279" lon="9.43304"><ele>1094.0</ele><time>2026-04-18T10:10:51.265Z</time></trkpt><trkpt lat="44.67445" lon="9.4330865"><ele>1092.4285714285713</ele><time>2026-04-18T10:10:53.265Z</time></trkpt><trkpt lat="44.6745128" lon="9.4331261"><ele>1090.8571428571427</ele><time>2026-04-18T10:10:54.266Z</time></trkpt><trkpt lat="44.6745777" lon="9.4331584"><ele>1089.2857142857142</ele><time>2026-04-18T10:10:55.265Z</time></trkpt><trkpt lat="44.6746387" lon="9.4332035"><ele>1087.7142857142858</ele><time>2026-04-18T10:10:56.264Z</time></trkpt><trkpt lat="44.6746906" lon="9.4332648"><ele>1086.1428571428573</ele><time>2026-04-18T10:10:57.265Z</time></trkpt><trkpt lat="44.6747422" lon="9.4333492"><ele>1084.5714285714287</ele><time>2026-04-18T10:10:58.265Z</time></trkpt><trkpt lat="44.6747989" lon="9.433428"><ele>1083.0</ele><time>2026-04-18T10:10:59.265Z</time></trkpt><trkpt lat="44.6748621" lon="9.4334752"><ele>1083.0</ele><time>2026-04-18T10:11:00.265Z</time></trkpt><trkpt lat="44.6749391" lon="9.4335034"><ele>1083.0</ele><time>2026-04-18T10:11:01.266Z</time></trkpt><trkpt lat="44.6749974" lon="9.4335543"><ele>1083.0</ele><time>2026-04-18T10:11:02.265Z</time></trkpt><trkpt lat="44.675041" lon="9.4336201"><ele>1083.0</ele><time>2026-04-18T10:11:03.265Z</time></trkpt><trkpt lat="44.6750776" lon="9.4336964"><ele>1083.0</ele><time>2026-04-18T10:11:04.265Z</time></trkpt><trkpt lat="44.6751074" lon="9.4338049"><ele>1083.0</ele><time>2026-04-18T10:11:05.264Z</time></trkpt><trkpt lat="44.6751438" lon="9.4339038"><ele>1083.0</ele><time>2026-04-18T10:11:06.264Z</time></trkpt><trkpt lat="44.6751891" lon="9.434004"><ele>1081.8</ele><time>2026-04-18T10:11:07.264Z</time></trkpt><trkpt lat="44.6752455" lon="9.4341028"><ele>1080.6</ele><time>2026-04-18T10:11:08.265Z</time></trkpt><trkpt lat="44.6753144" lon="9.4341881"><ele>1079.4</ele><time>2026-04-18T10:11:09.266Z</time></trkpt><trkpt lat="44.6753838" lon="9.4342777"><ele>1078.2</ele><time>2026-04-18T10:11:10.265Z</time></trkpt><trkpt lat="44.6754579" lon="9.4343702"><ele>1077.0</ele><time>2026-04-18T10:11:11.265Z</time></trkpt><trkpt lat="44.6755365" lon="9.434459"><ele>1077.0</ele><time>2026-04-18T10:11:12.265Z</time></trkpt><trkpt lat="44.6756099" lon="9.4345516"><ele>1077.0</ele><time>2026-04-18T10:11:13.266Z</time></trkpt><trkpt lat="44.6756721" lon="9.4346391"><ele>1077.0</ele><time>2026-04-18T10:11:14.265Z</time></trkpt><trkpt lat="44.6757245" lon="9.4347089"><ele>1077.0</ele><time>2026-04-18T10:11:15.264Z</time></trkpt><trkpt lat="44.6758142" lon="9.4347815"><ele>1077.0</ele><time>2026-04-18T10:11:17.265Z</time></trkpt><trkpt lat="44.6758802" lon="9.4348074"><ele>1077.0</ele><time>2026-04-18T10:11:19.265Z</time></trkpt><trkpt lat="44.6759259" lon="9.4347383"><ele>1077.0</ele><time>2026-04-18T10:14:24.263Z</time></trkpt><trkpt lat="44.6759749" lon="9.4346233"><ele>1077.0</ele><time>2026-04-18T10:14:26.263Z</time></trkpt><trkpt lat="44.6759577" lon="9.4344641"><ele>1077.0</ele><time>2026-04-18T10:14:28.263Z</time></trkpt><trkpt lat="44.675933" lon="9.4343689"><ele>1077.0</ele><time>2026-04-18T10:14:29.265Z</time></trkpt><trkpt lat="44.6759094" lon="9.4342696"><ele>1077.0</ele><time>2026-04-18T10:14:30.264Z</time></trkpt><trkpt lat="44.6758905" lon="9.4341822"><ele>1077.0</ele><time>2026-04-18T10:14:31.264Z</time></trkpt><trkpt lat="44.6758276" lon="9.4340275"><ele>1077.0</ele><time>2026-04-18T10:14:33.264Z</time></trkpt><trkpt lat="44.6757789" lon="9.4339693"><ele>1077.0</ele><time>2026-04-18T10:14:34.264Z</time></trkpt><trkpt lat="44.6757135" lon="9.433913"><ele>1077.0</ele><time>2026-04-18T10:14:35.264Z</time></trkpt><trkpt lat="44.6756501" lon="9.4338709"><ele>1077.0</ele><time>2026-04-18T10:14:36.265Z</time></trkpt><trkpt lat="44.6755906" lon="9.4338354"><ele>1077.0</ele><time>2026-04-18T10:14:37.265Z</time></trkpt><trkpt lat="44.6755393" lon="9.4337751"><ele>1077.0</ele><time>2026-04-18T10:14:38.264Z</time></trkpt><trkpt lat="44.6755041" lon="9.4336943"><ele>1077.0</ele><time>2026-04-18T10:14:39.264Z</time></trkpt><trkpt lat="44.6754783" lon="9.4336005"><ele>1074.8333333333333</ele><time>2026-04-18T10:14:40.264Z</time></trkpt><trkpt lat="44.6754653" lon="9.4334801"><ele>1072.6666666666667</ele><time>2026-04-18T10:14:41.263Z</time></trkpt><trkpt lat="44.6754619" lon="9.4333668"><ele>1070.5</ele><time>2026-04-18T10:14:42.263Z</time></trkpt><trkpt lat="44.6754627" lon="9.4332597"><ele>1068.3333333333335</ele><time>2026-04-18T10:14:43.263Z</time></trkpt><trkpt lat="44.6754643" lon="9.4331707"><ele>1066.1666666666667</ele><time>2026-04-18T10:14:44.264Z</time></trkpt><trkpt lat="44.6754151" lon="9.4330409"><ele>1064.0</ele><time>2026-04-18T10:14:46.264Z</time></trkpt><trkpt lat="44.6752993" lon="9.4329446"><ele>1064.6666666666667</ele><time>2026-04-18T10:14:48.265Z</time></trkpt><trkpt lat="44.6752452" lon="9.432882"><ele>1065.3333333333335</ele><time>2026-04-18T10:14:49.264Z</time></trkpt><trkpt lat="44.6752078" lon="9.4328017"><ele>1066.0</ele><time>2026-04-18T10:14:50.264Z</time></trkpt><trkpt lat="44.6751694" lon="9.432725"><ele>1066.6666666666667</ele><time>2026-04-18T10:14:51.264Z</time></trkpt><trkpt lat="44.6751475" lon="9.4326003"><ele>1067.3333333333333</ele><time>2026-04-18T10:14:52.263Z</time></trkpt><trkpt lat="44.6751111" lon="9.4325023"><ele>1068.0</ele><time>2026-04-18T10:14:53.263Z</time></trkpt><trkpt lat="44.6750765" lon="9.4324084"><ele>1068.0000000000002</ele><time>2026-04-18T10:14:54.263Z</time></trkpt><trkpt lat="44.6750442" lon="9.4323173"><ele>1068.0</ele><time>2026-04-18T10:14:55.263Z</time></trkpt><trkpt lat="44.6750085" lon="9.4322264"><ele>1068.0</ele><time>2026-04-18T10:14:56.265Z</time></trkpt><trkpt lat="44.674968" lon="9.4321301"><ele>1068.0</ele><time>2026-04-18T10:14:57.264Z</time></trkpt><trkpt lat="44.674925" lon="9.4320397"><ele>1068.0</ele><time>2026-04-18T10:14:58.265Z</time></trkpt><trkpt lat="44.6748917" lon="9.4319462"><ele>1068.0000000000002</ele><time>2026-04-18T10:14:59.265Z</time></trkpt><trkpt lat="44.6748716" lon="9.4318515"><ele>1068.0</ele><time>2026-04-18T10:15:00.263Z</time></trkpt><trkpt lat="44.6748594" lon="9.4317592"><ele>1065.5</ele><time>2026-04-18T10:15:01.264Z</time></trkpt><trkpt lat="44.6748376" lon="9.4316572"><ele>1063.0</ele><time>2026-04-18T10:15:02.265Z</time></trkpt><trkpt lat="44.6748136" lon="9.4315542"><ele>1060.5</ele><time>2026-04-18T10:15:03.264Z</time></trkpt><trkpt lat="44.6747969" lon="9.4314482"><ele>1058.0</ele><time>2026-04-18T10:15:04.264Z</time></trkpt><trkpt lat="44.6747833" lon="9.4313461"><ele>1055.5</ele><time>2026-04-18T10:15:05.264Z</time></trkpt><trkpt lat="44.6747799" lon="9.4312317"><ele>1053.0</ele><time>2026-04-18T10:15:06.265Z</time></trkpt><trkpt lat="44.6747989" lon="9.4311187"><ele>1051.0</ele><time>2026-04-18T10:15:07.263Z</time></trkpt><trkpt lat="44.6748131" lon="9.4310012"><ele>1049.0</ele><time>2026-04-18T10:15:08.263Z</time></trkpt><trkpt lat="44.6748314" lon="9.4308825"><ele>1047.0</ele><time>2026-04-18T10:15:09.265Z</time></trkpt><trkpt lat="44.6748471" lon="9.4307686"><ele>1045.0</ele><time>2026-04-18T10:15:10.264Z</time></trkpt><trkpt lat="44.6748605" lon="9.4306546"><ele>1043.0</ele><time>2026-04-18T10:15:11.264Z</time></trkpt><trkpt lat="44.6748732" lon="9.430545"><ele>1041.0</ele><time>2026-04-18T10:15:12.263Z</time></trkpt><trkpt lat="44.6748807" lon="9.43044"><ele>1039.8333333333333</ele><time>2026-04-18T10:15:13.264Z</time></trkpt><trkpt lat="44.6748822" lon="9.4303353"><ele>1038.6666666666667</ele><time>2026-04-18T10:15:14.264Z</time></trkpt><trkpt lat="44.6748786" lon="9.4302323"><ele>1037.5</ele><time>2026-04-18T10:15:15.264Z</time></trkpt><trkpt lat="44.6748837" lon="9.4301319"><ele>1036.3333333333335</ele><time>2026-04-18T10:15:16.264Z</time></trkpt><trkpt lat="44.6748912" lon="9.4300154"><ele>1035.1666666666667</ele><time>2026-04-18T10:15:17.264Z</time></trkpt><trkpt lat="44.6748974" lon="9.4298987"><ele>1034.0</ele><time>2026-04-18T10:15:18.264Z</time></trkpt><trkpt lat="44.6748977" lon="9.4297896"><ele>1034.0</ele><time>2026-04-18T10:15:19.264Z</time></trkpt><trkpt lat="44.6748882" lon="9.4296827"><ele>1034.0</ele><time>2026-04-18T10:15:20.264Z</time></trkpt><trkpt lat="44.6748645" lon="9.4295768"><ele>1034.0</ele><time>2026-04-18T10:15:21.264Z</time></trkpt><trkpt lat="44.6748285" lon="9.4294811"><ele>1034.0</ele><time>2026-04-18T10:15:22.264Z</time></trkpt><trkpt lat="44.674789" lon="9.4293883"><ele>1034.0</ele><time>2026-04-18T10:15:23.263Z</time></trkpt><trkpt lat="44.6747555" lon="9.429297"><ele>1034.0</ele><time>2026-04-18T10:15:24.263Z</time></trkpt><trkpt lat="44.6747256" lon="9.4292067"><ele>1033.0</ele><time>2026-04-18T10:15:25.263Z</time></trkpt><trkpt lat="44.6746883" lon="9.4291016"><ele>1032.0</ele><time>2026-04-18T10:15:26.263Z</time></trkpt><trkpt lat="44.6746508" lon="9.4289932"><ele>1031.0</ele><time>2026-04-18T10:15:27.264Z</time></trkpt><trkpt lat="44.6746208" lon="9.4288827"><ele>1030.0</ele><time>2026-04-18T10:15:28.264Z</time></trkpt><trkpt lat="44.6745902" lon="9.4287652"><ele>1029.0</ele><time>2026-04-18T10:15:29.264Z</time></trkpt><trkpt lat="44.6745692" lon="9.428652"><ele>1028.0</ele><time>2026-04-18T10:15:30.265Z</time></trkpt><trkpt lat="44.6745568" lon="9.4285361"><ele>1026.5</ele><time>2026-04-18T10:15:31.264Z</time></trkpt><trkpt lat="44.674552" lon="9.4284223"><ele>1025.0</ele><time>2026-04-18T10:15:32.264Z</time></trkpt><trkpt lat="44.6745497" lon="9.4282977"><ele>1023.5</ele><time>2026-04-18T10:15:33.264Z</time></trkpt><trkpt lat="44.6745445" lon="9.428171"><ele>1022.0</ele><time>2026-04-18T10:15:34.264Z</time></trkpt><trkpt lat="44.6745348" lon="9.4280534"><ele>1020.5000000000001</ele><time>2026-04-18T10:15:35.263Z</time></trkpt><trkpt lat="44.6745172" lon="9.4279396"><ele>1019.0</ele><time>2026-04-18T10:15:36.263Z</time></trkpt><trkpt lat="44.6744892" lon="9.4278468"><ele>1018.5000000000001</ele><time>2026-04-18T10:15:37.263Z</time></trkpt><trkpt lat="44.6744422" lon="9.4277636"><ele>1018.0</ele><time>2026-04-18T10:15:38.264Z</time></trkpt><trkpt lat="44.6743728" lon="9.4276705"><ele>1017.5</ele><time>2026-04-18T10:15:39.264Z</time></trkpt><trkpt lat="44.6742934" lon="9.4275897"><ele>1017.0</ele><time>2026-04-18T10:15:40.265Z</time></trkpt><trkpt lat="44.6742148" lon="9.4275229"><ele>1016.5000000000001</ele><time>2026-04-18T10:15:41.264Z</time></trkpt><trkpt lat="44.6741394" lon="9.427466"><ele>1016.0</ele><time>2026-04-18T10:15:42.264Z</time></trkpt><trkpt lat="44.6740707" lon="9.4274115"><ele>1016.0</ele><time>2026-04-18T10:15:43.263Z</time></trkpt><trkpt lat="44.6740156" lon="9.4273453"><ele>1016.0</ele><time>2026-04-18T10:15:44.263Z</time></trkpt><trkpt lat="44.6739481" lon="9.4272838"><ele>1016.0</ele><time>2026-04-18T10:15:45.264Z</time></trkpt><trkpt lat="44.673882" lon="9.4272351"><ele>1016.0</ele><time>2026-04-18T10:15:46.263Z</time></trkpt><trkpt lat="44.6738152" lon="9.4272217"><ele>1016.0</ele><time>2026-04-18T10:15:47.264Z</time></trkpt><trkpt lat="44.673752" lon="9.4272396"><ele>1016.0</ele><time>2026-04-18T10:15:48.265Z</time></trkpt><trkpt lat="44.6736938" lon="9.4272818"><ele>1016.0</ele><time>2026-04-18T10:15:49.263Z</time></trkpt><trkpt lat="44.6736483" lon="9.4273492"><ele>1016.0</ele><time>2026-04-18T10:15:50.263Z</time></trkpt><trkpt lat="44.6736019" lon="9.427458"><ele>1015.9999999999999</ele><time>2026-04-18T10:15:51.263Z</time></trkpt><trkpt lat="44.6735603" lon="9.4276021"><ele>1015.9999999999999</ele><time>2026-04-18T10:15:52.264Z</time></trkpt><trkpt lat="44.6735266" lon="9.4277449"><ele>1016.0</ele><time>2026-04-18T10:15:53.264Z</time></trkpt><trkpt lat="44.6734865" lon="9.4278721"><ele>1016.0</ele><time>2026-04-18T10:15:54.264Z</time></trkpt><trkpt lat="44.6734431" lon="9.4279825"><ele>1016.0</ele><time>2026-04-18T10:15:55.264Z</time></trkpt><trkpt lat="44.6733892" lon="9.428076"><ele>1015.9999999999999</ele><time>2026-04-18T10:15:56.263Z</time></trkpt><trkpt lat="44.6733177" lon="9.4281691"><ele>1015.9999999999999</ele><time>2026-04-18T10:15:57.263Z</time></trkpt><trkpt lat="44.673224" lon="9.4282527"><ele>1016.0</ele><time>2026-04-18T10:15:58.264Z</time></trkpt><trkpt lat="44.6731104" lon="9.4283394"><ele>1016.0</ele><time>2026-04-18T10:15:59.264Z</time></trkpt><trkpt lat="44.6729938" lon="9.4284318"><ele>1016.0</ele><time>2026-04-18T10:16:00.263Z</time></trkpt><trkpt lat="44.6728836" lon="9.4285042"><ele>1016.0</ele><time>2026-04-18T10:16:01.264Z</time></trkpt><trkpt lat="44.6727729" lon="9.428573"><ele>1016.0</ele><time>2026-04-18T10:16:02.264Z</time></trkpt><trkpt lat="44.67268" lon="9.428665"><ele>1016.0</ele><time>2026-04-18T10:16:03.264Z</time></trkpt><trkpt lat="44.6725925" lon="9.4287645"><ele>1015.75</ele><time>2026-04-18T10:16:04.265Z</time></trkpt><trkpt lat="44.6725198" lon="9.4288695"><ele>1015.5</ele><time>2026-04-18T10:16:05.264Z</time></trkpt><trkpt lat="44.6724542" lon="9.4290027"><ele>1015.25</ele><time>2026-04-18T10:16:06.264Z</time></trkpt><trkpt lat="44.6723891" lon="9.4291483"><ele>1015.0</ele><time>2026-04-18T10:16:07.265Z</time></trkpt><trkpt lat="44.6723203" lon="9.4292849"><ele>1015.0</ele><time>2026-04-18T10:16:08.264Z</time></trkpt><trkpt lat="44.6722543" lon="9.4294137"><ele>1015.0</ele><time>2026-04-18T10:16:09.265Z</time></trkpt><trkpt lat="44.672195" lon="9.4295194"><ele>1015.0</ele><time>2026-04-18T10:16:10.264Z</time></trkpt><trkpt lat="44.6721321" lon="9.4295987"><ele>1015.0</ele><time>2026-04-18T10:16:11.265Z</time></trkpt><trkpt lat="44.6720583" lon="9.4296514"><ele>1015.0</ele><time>2026-04-18T10:16:12.264Z</time></trkpt><trkpt lat="44.6719829" lon="9.4296684"><ele>1015.2</ele><time>2026-04-18T10:16:13.265Z</time></trkpt><trkpt lat="44.6718912" lon="9.4296606"><ele>1015.4</ele><time>2026-04-18T10:16:14.265Z</time></trkpt><trkpt lat="44.6717818" lon="9.4296222"><ele>1015.5999999999999</ele><time>2026-04-18T10:16:15.264Z</time></trkpt><trkpt lat="44.6716945" lon="9.4295765"><ele>1015.8</ele><time>2026-04-18T10:16:16.264Z</time></trkpt><trkpt lat="44.6716112" lon="9.4295566"><ele>1016.0</ele><time>2026-04-18T10:16:17.263Z</time></trkpt><trkpt lat="44.6715409" lon="9.4295654"><ele>1016.0000000000001</ele><time>2026-04-18T10:16:18.264Z</time></trkpt><trkpt lat="44.671479" lon="9.4296029"><ele>1016.0</ele><time>2026-04-18T10:16:19.263Z</time></trkpt><trkpt lat="44.6714102" lon="9.4296782"><ele>1016.0</ele><time>2026-04-18T10:16:20.263Z</time></trkpt><trkpt lat="44.671339" lon="9.4297838"><ele>1016.0</ele><time>2026-04-18T10:16:21.264Z</time></trkpt><trkpt lat="44.6712671" lon="9.4298643"><ele>1016.0000000000001</ele><time>2026-04-18T10:16:22.263Z</time></trkpt><trkpt lat="44.6711788" lon="9.4299232"><ele>1016.0</ele><time>2026-04-18T10:16:23.264Z</time></trkpt><trkpt lat="44.6710698" lon="9.4299693"><ele>1011.5</ele><time>2026-04-18T10:16:24.263Z</time></trkpt><trkpt lat="44.6709544" lon="9.4300289"><ele>1007.0</ele><time>2026-04-18T10:16:25.263Z</time></trkpt><trkpt lat="44.6708473" lon="9.4300893"><ele>1002.5</ele><time>2026-04-18T10:16:26.263Z</time></trkpt><trkpt lat="44.6707408" lon="9.4301345"><ele>998.0</ele><time>2026-04-18T10:16:27.264Z</time></trkpt><trkpt lat="44.6706379" lon="9.4301793"><ele>998.0000000000001</ele><time>2026-04-18T10:16:28.264Z</time></trkpt><trkpt lat="44.6705445" lon="9.4302057"><ele>998.0</ele><time>2026-04-18T10:16:29.263Z</time></trkpt><trkpt lat="44.6704551" lon="9.4302345"><ele>998.0</ele><time>2026-04-18T10:16:30.263Z</time></trkpt><trkpt lat="44.6703637" lon="9.4302575"><ele>998.0</ele><time>2026-04-18T10:16:31.265Z</time></trkpt><trkpt lat="44.6702834" lon="9.4302867"><ele>998.0000000000001</ele><time>2026-04-18T10:16:32.265Z</time></trkpt><trkpt lat="44.6702256" lon="9.4303548"><ele>998.0</ele><time>2026-04-18T10:16:33.265Z</time></trkpt><trkpt lat="44.6701652" lon="9.4304272"><ele>997.5999999999999</ele><time>2026-04-18T10:16:34.265Z</time></trkpt><trkpt lat="44.6701064" lon="9.4304885"><ele>997.1999999999999</ele><time>2026-04-18T10:16:35.265Z</time></trkpt><trkpt lat="44.670047" lon="9.4305354"><ele>996.8</ele><time>2026-04-18T10:16:36.265Z</time></trkpt><trkpt lat="44.6699327" lon="9.4305422"><ele>996.4</ele><time>2026-04-18T10:16:38.264Z</time></trkpt><trkpt lat="44.6698502" lon="9.4304556"><ele>996.0</ele><time>2026-04-18T10:16:40.264Z</time></trkpt><trkpt lat="44.6698394" lon="9.4303078"><ele>992.5999999999999</ele><time>2026-04-18T10:16:42.265Z</time></trkpt><trkpt lat="44.6699072" lon="9.4301935"><ele>989.1999999999999</ele><time>2026-04-18T10:16:44.264Z</time></trkpt><trkpt lat="44.6699735" lon="9.4301459"><ele>985.8000000000001</ele><time>2026-04-18T10:16:45.263Z</time></trkpt><trkpt lat="44.6700558" lon="9.4301118"><ele>982.4000000000001</ele><time>2026-04-18T10:16:46.264Z</time></trkpt><trkpt lat="44.6701454" lon="9.430077"><ele>979.0</ele><time>2026-04-18T10:16:47.264Z</time></trkpt><trkpt lat="44.6702439" lon="9.4300129"><ele>979.0</ele><time>2026-04-18T10:16:48.264Z</time></trkpt><trkpt lat="44.6703413" lon="9.4299387"><ele>979.0000000000001</ele><time>2026-04-18T10:16:49.265Z</time></trkpt><trkpt lat="44.6704349" lon="9.4298428"><ele>979.0000000000001</ele><time>2026-04-18T10:16:50.265Z</time></trkpt><trkpt lat="44.6705228" lon="9.4297475"><ele>979.0</ele><time>2026-04-18T10:16:51.264Z</time></trkpt><trkpt lat="44.6706068" lon="9.4296546"><ele>979.0</ele><time>2026-04-18T10:16:52.263Z</time></trkpt><trkpt lat="44.6706859" lon="9.4295619"><ele>978.9999999999999</ele><time>2026-04-18T10:16:53.263Z</time></trkpt><trkpt lat="44.6707627" lon="9.4294746"><ele>979.0</ele><time>2026-04-18T10:16:54.265Z</time></trkpt><trkpt lat="44.6708364" lon="9.4293999"><ele>979.0</ele><time>2026-04-18T10:16:55.264Z</time></trkpt><trkpt lat="44.6709046" lon="9.4293237"><ele>979.0</ele><time>2026-04-18T10:16:56.264Z</time></trkpt><trkpt lat="44.6709606" lon="9.4292463"><ele>978.9999999999999</ele><time>2026-04-18T10:16:57.264Z</time></trkpt><trkpt lat="44.6709969" lon="9.4291671"><ele>979.0</ele><time>2026-04-18T10:16:58.264Z</time></trkpt><trkpt lat="44.6710138" lon="9.4290138"><ele>979.0</ele><time>2026-04-18T10:17:00.264Z</time></trkpt><trkpt lat="44.6709585" lon="9.4288904"><ele>979.0000000000001</ele><time>2026-04-18T10:17:02.265Z</time></trkpt><trkpt lat="44.6708499" lon="9.4288581"><ele>979.0000000000001</ele><time>2026-04-18T10:17:04.263Z</time></trkpt><trkpt lat="44.6707663" lon="9.4288753"><ele>979.0</ele><time>2026-04-18T10:17:05.264Z</time></trkpt><trkpt lat="44.670676" lon="9.4289002"><ele>979.0</ele><time>2026-04-18T10:17:06.264Z</time></trkpt><trkpt lat="44.6705946" lon="9.4289186"><ele>979.0</ele><time>2026-04-18T10:17:07.264Z</time></trkpt><trkpt lat="44.6705198" lon="9.4289362"><ele>979.0</ele><time>2026-04-18T10:17:08.264Z</time></trkpt><trkpt lat="44.6704502" lon="9.4289598"><ele>979.0</ele><time>2026-04-18T10:17:09.265Z</time></trkpt><trkpt lat="44.6703914" lon="9.4289947"><ele>979.0</ele><time>2026-04-18T10:17:10.263Z</time></trkpt><trkpt lat="44.6703442" lon="9.4290554"><ele>979.0</ele><time>2026-04-18T10:17:11.263Z</time></trkpt><trkpt lat="44.6703" lon="9.4291353"><ele>979.0</ele><time>2026-04-18T10:17:12.264Z</time></trkpt><trkpt lat="44.6702619" lon="9.429223"><ele>979.0</ele><time>2026-04-18T10:17:13.265Z</time></trkpt><trkpt lat="44.6702235" lon="9.4292987"><ele>975.6</ele><time>2026-04-18T10:17:14.265Z</time></trkpt><trkpt lat="44.6701333" lon="9.4293903"><ele>972.2</ele><time>2026-04-18T10:17:16.263Z</time></trkpt><trkpt lat="44.6700757" lon="9.4294266"><ele>968.8000000000001</ele><time>2026-04-18T10:17:17.263Z</time></trkpt><trkpt lat="44.6699462" lon="9.4294506"><ele>965.4000000000001</ele><time>2026-04-18T10:17:18.263Z</time></trkpt><trkpt lat="44.6698533" lon="9.4294898"><ele>962.0</ele><time>2026-04-18T10:17:19.263Z</time></trkpt><trkpt lat="44.6697566" lon="9.4295452"><ele>962.0</ele><time>2026-04-18T10:17:20.265Z</time></trkpt><trkpt lat="44.6696643" lon="9.4296034"><ele>962.0</ele><time>2026-04-18T10:17:21.264Z</time></trkpt><trkpt lat="44.6695675" lon="9.4296397"><ele>962.0</ele><time>2026-04-18T10:17:22.264Z</time></trkpt><trkpt lat="44.6694745" lon="9.4296636"><ele>962.0</ele><time>2026-04-18T10:17:23.264Z</time></trkpt><trkpt lat="44.6693853" lon="9.4296973"><ele>962.0</ele><time>2026-04-18T10:17:24.264Z</time></trkpt><trkpt lat="44.6693093" lon="9.4297256"><ele>961.8333333333334</ele><time>2026-04-18T10:17:25.264Z</time></trkpt><trkpt lat="44.6692456" lon="9.4297718"><ele>961.6666666666667</ele><time>2026-04-18T10:17:26.264Z</time></trkpt><trkpt lat="44.6691839" lon="9.4298431"><ele>961.5</ele><time>2026-04-18T10:17:27.264Z</time></trkpt><trkpt lat="44.6691207" lon="9.4299312"><ele>961.3333333333333</ele><time>2026-04-18T10:17:28.264Z</time></trkpt><trkpt lat="44.6690702" lon="9.430028"><ele>961.1666666666666</ele><time>2026-04-18T10:17:29.264Z</time></trkpt><trkpt lat="44.6690301" lon="9.4301284"><ele>961.0</ele><time>2026-04-18T10:17:30.263Z</time></trkpt><trkpt lat="44.6689943" lon="9.4302234"><ele>960.9999999999999</ele><time>2026-04-18T10:17:31.264Z</time></trkpt><trkpt lat="44.6689504" lon="9.4303025"><ele>961.0</ele><time>2026-04-18T10:17:32.263Z</time></trkpt><trkpt lat="44.6688969" lon="9.4303761"><ele>961.0</ele><time>2026-04-18T10:17:33.264Z</time></trkpt><trkpt lat="44.6688333" lon="9.430438"><ele>961.0</ele><time>2026-04-18T10:17:34.264Z</time></trkpt><trkpt lat="44.6687641" lon="9.4304897"><ele>960.9999999999999</ele><time>2026-04-18T10:17:35.264Z</time></trkpt><trkpt lat="44.6686942" lon="9.4305016"><ele>961.0</ele><time>2026-04-18T10:17:36.265Z</time></trkpt><trkpt lat="44.6686102" lon="9.4304969"><ele>960.5999999999999</ele><time>2026-04-18T10:17:37.263Z</time></trkpt><trkpt lat="44.6685109" lon="9.4304761"><ele>960.1999999999999</ele><time>2026-04-18T10:17:38.265Z</time></trkpt><trkpt lat="44.6684107" lon="9.4304437"><ele>959.8000000000001</ele><time>2026-04-18T10:17:39.264Z</time></trkpt><trkpt lat="44.6683065" lon="9.4304183"><ele>959.4000000000001</ele><time>2026-04-18T10:17:40.263Z</time></trkpt><trkpt lat="44.668192" lon="9.4304293"><ele>959.0</ele><time>2026-04-18T10:17:41.264Z</time></trkpt><trkpt lat="44.6680782" lon="9.4304332"><ele>959.0</ele><time>2026-04-18T10:17:42.264Z</time></trkpt><trkpt lat="44.6679747" lon="9.4304745"><ele>959.0</ele><time>2026-04-18T10:17:43.264Z</time></trkpt><trkpt lat="44.6678619" lon="9.4305083"><ele>959.0</ele><time>2026-04-18T10:17:44.265Z</time></trkpt><trkpt lat="44.6677523" lon="9.4305474"><ele>959.0</ele><time>2026-04-18T10:17:45.264Z</time></trkpt><trkpt lat="44.6676309" lon="9.4305868"><ele>956.0</ele><time>2026-04-18T10:17:46.264Z</time></trkpt><trkpt lat="44.6675244" lon="9.4306254"><ele>953.0000000000001</ele><time>2026-04-18T10:17:47.265Z</time></trkpt><trkpt lat="44.667415" lon="9.4306503"><ele>950.0000000000001</ele><time>2026-04-18T10:17:48.263Z</time></trkpt><trkpt lat="44.66731" lon="9.4306723"><ele>947.0</ele><time>2026-04-18T10:17:49.264Z</time></trkpt><trkpt lat="44.6671957" lon="9.4306942"><ele>944.0</ele><time>2026-04-18T10:17:50.264Z</time></trkpt><trkpt lat="44.6670903" lon="9.4307305"><ele>944.0000000000001</ele><time>2026-04-18T10:17:51.263Z</time></trkpt><trkpt lat="44.666989" lon="9.4307789"><ele>944.0</ele><time>2026-04-18T10:17:52.265Z</time></trkpt><trkpt lat="44.6668988" lon="9.4308361"><ele>944.0</ele><time>2026-04-18T10:17:53.264Z</time></trkpt><trkpt lat="44.6668236" lon="9.4308875"><ele>944.0</ele><time>2026-04-18T10:17:54.264Z</time></trkpt><trkpt lat="44.6667659" lon="9.4309322"><ele>944.0000000000001</ele><time>2026-04-18T10:17:55.263Z</time></trkpt><trkpt lat="44.6666961" lon="9.4310157"><ele>944.0</ele><time>2026-04-18T10:17:57.264Z</time></trkpt><trkpt lat="44.6666757" lon="9.4311466"><ele>945.1666666666667</ele><time>2026-04-18T10:18:00.264Z</time></trkpt><trkpt lat="44.6666369" lon="9.4312391"><ele>946.3333333333334</ele><time>2026-04-18T10:22:18.262Z</time></trkpt><trkpt lat="44.6665333" lon="9.4312925"><ele>947.5</ele><time>2026-04-18T10:22:21.262Z</time></trkpt><trkpt lat="44.6664448" lon="9.4313518"><ele>948.6666666666667</ele><time>2026-04-18T10:22:23.262Z</time></trkpt><trkpt lat="44.6663789" lon="9.4313912"><ele>949.8333333333334</ele><time>2026-04-18T10:22:24.264Z</time></trkpt><trkpt lat="44.666316" lon="9.4314249"><ele>951.0</ele><time>2026-04-18T10:22:25.263Z</time></trkpt><trkpt lat="44.666248" lon="9.4314641"><ele>951.0</ele><time>2026-04-18T10:22:26.262Z</time></trkpt><trkpt lat="44.6661751" lon="9.4315172"><ele>950.9999999999999</ele><time>2026-04-18T10:22:27.263Z</time></trkpt><trkpt lat="44.6660983" lon="9.4315813"><ele>950.9999999999999</ele><time>2026-04-18T10:22:28.263Z</time></trkpt><trkpt lat="44.66603" lon="9.4316393"><ele>951.0</ele><time>2026-04-18T10:22:29.263Z</time></trkpt><trkpt lat="44.6659303" lon="9.4317075"><ele>951.0</ele><time>2026-04-18T10:22:30.263Z</time></trkpt><trkpt lat="44.6658292" lon="9.431757"><ele>950.1999999999999</ele><time>2026-04-18T10:22:31.264Z</time></trkpt><trkpt lat="44.6657378" lon="9.4317909"><ele>949.3999999999999</ele><time>2026-04-18T10:22:32.263Z</time></trkpt><trkpt lat="44.6656387" lon="9.4318098"><ele>948.6</ele><time>2026-04-18T10:22:33.262Z</time></trkpt><trkpt lat="44.6655403" lon="9.4318014"><ele>947.8</ele><time>2026-04-18T10:22:34.263Z</time></trkpt><trkpt lat="44.6654348" lon="9.4318049"><ele>947.0</ele><time>2026-04-18T10:22:35.263Z</time></trkpt><trkpt lat="44.6653305" lon="9.431852"><ele>946.0</ele><time>2026-04-18T10:22:36.263Z</time></trkpt><trkpt lat="44.6652315" lon="9.4319304"><ele>945.0</ele><time>2026-04-18T10:22:37.262Z</time></trkpt><trkpt lat="44.6651288" lon="9.4320116"><ele>944.0</ele><time>2026-04-18T10:22:38.263Z</time></trkpt><trkpt lat="44.665015" lon="9.4320872"><ele>943.0</ele><time>2026-04-18T10:22:39.263Z</time></trkpt><trkpt lat="44.6648919" lon="9.4321397"><ele>949.0</ele><time>2026-04-18T10:22:40.262Z</time></trkpt><trkpt lat="44.6647733" lon="9.432183"><ele>955.0</ele><time>2026-04-18T10:22:41.262Z</time></trkpt><trkpt lat="44.6646685" lon="9.4322562"><ele>961.0</ele><time>2026-04-18T10:22:42.262Z</time></trkpt><trkpt lat="44.6645725" lon="9.4323623"><ele>967.0</ele><time>2026-04-18T10:22:43.263Z</time></trkpt><trkpt lat="44.6645027" lon="9.4325059"><ele>967.0</ele><time>2026-04-18T10:22:44.262Z</time></trkpt><trkpt lat="44.6644542" lon="9.4327097"><ele>967.0</ele><time>2026-04-18T10:22:45.262Z</time></trkpt><trkpt lat="44.6644277" lon="9.4329067"><ele>967.0</ele><time>2026-04-18T10:22:46.262Z</time></trkpt><trkpt lat="44.6643967" lon="9.4330755"><ele>967.0</ele><time>2026-04-18T10:22:47.262Z</time></trkpt><trkpt lat="44.6643313" lon="9.4332279"><ele>965.25</ele><time>2026-04-18T10:22:48.263Z</time></trkpt><trkpt lat="44.664242" lon="9.433354"><ele>963.5</ele><time>2026-04-18T10:22:49.263Z</time></trkpt><trkpt lat="44.6641579" lon="9.4334551"><ele>961.75</ele><time>2026-04-18T10:22:50.264Z</time></trkpt><trkpt lat="44.6640638" lon="9.4335806"><ele>960.0</ele><time>2026-04-18T10:22:51.263Z</time></trkpt><trkpt lat="44.6639975" lon="9.4337549"><ele>962.5</ele><time>2026-04-18T10:22:52.262Z</time></trkpt><trkpt lat="44.6639607" lon="9.4339552"><ele>965.0</ele><time>2026-04-18T10:22:53.263Z</time></trkpt><trkpt lat="44.6639379" lon="9.434148"><ele>967.5</ele><time>2026-04-18T10:22:54.263Z</time></trkpt><trkpt lat="44.6639141" lon="9.4343268"><ele>970.0</ele><time>2026-04-18T10:22:55.262Z</time></trkpt><trkpt lat="44.6638851" lon="9.4345067"><ele>973.5</ele><time>2026-04-18T10:22:56.262Z</time></trkpt><trkpt lat="44.663845" lon="9.4346805"><ele>977.0</ele><time>2026-04-18T10:22:57.263Z</time></trkpt><trkpt lat="44.6637986" lon="9.4348491"><ele>980.5</ele><time>2026-04-18T10:22:58.263Z</time></trkpt><trkpt lat="44.6637477" lon="9.4350182"><ele>984.0</ele><time>2026-04-18T10:22:59.262Z</time></trkpt><trkpt lat="44.6636974" lon="9.4351785"><ele>984.0</ele><time>2026-04-18T10:23:00.262Z</time></trkpt><trkpt lat="44.6636436" lon="9.4353406"><ele>984.0</ele><time>2026-04-18T10:23:01.263Z</time></trkpt><trkpt lat="44.6635896" lon="9.4355025"><ele>984.0</ele><time>2026-04-18T10:23:02.263Z</time></trkpt><trkpt lat="44.6635351" lon="9.4356664"><ele>984.0</ele><time>2026-04-18T10:23:03.263Z</time></trkpt><trkpt lat="44.6634779" lon="9.4358276"><ele>983.75</ele><time>2026-04-18T10:23:04.263Z</time></trkpt><trkpt lat="44.6634234" lon="9.4359879"><ele>983.5</ele><time>2026-04-18T10:23:05.264Z</time></trkpt><trkpt lat="44.6633698" lon="9.4361487"><ele>983.25</ele><time>2026-04-18T10:23:06.263Z</time></trkpt><trkpt lat="44.6633168" lon="9.4363126"><ele>983.0</ele><time>2026-04-18T10:23:07.262Z</time></trkpt><trkpt lat="44.663263" lon="9.4364751"><ele>983.0</ele><time>2026-04-18T10:23:08.262Z</time></trkpt><trkpt lat="44.6632091" lon="9.4366439"><ele>983.0</ele><time>2026-04-18T10:23:09.263Z</time></trkpt><trkpt lat="44.6631681" lon="9.4368125"><ele>983.0</ele><time>2026-04-18T10:23:10.263Z</time></trkpt><trkpt lat="44.6631441" lon="9.4369852"><ele>983.0</ele><time>2026-04-18T10:23:11.263Z</time></trkpt><trkpt lat="44.6631317" lon="9.4371523"><ele>983.5</ele><time>2026-04-18T10:23:12.262Z</time></trkpt><trkpt lat="44.6631236" lon="9.4373164"><ele>984.0</ele><time>2026-04-18T10:23:13.263Z</time></trkpt><trkpt lat="44.6631218" lon="9.4374946"><ele>984.5</ele><time>2026-04-18T10:23:14.263Z</time></trkpt><trkpt lat="44.6631323" lon="9.4376811"><ele>985.0</ele><time>2026-04-18T10:23:15.263Z</time></trkpt><trkpt lat="44.6631484" lon="9.4378606"><ele>985.25</ele><time>2026-04-18T10:23:16.262Z</time></trkpt><trkpt lat="44.6631648" lon="9.4380379"><ele>985.5</ele><time>2026-04-18T10:23:17.262Z</time></trkpt><trkpt lat="44.6631769" lon="9.4382071"><ele>985.75</ele><time>2026-04-18T10:23:18.262Z</time></trkpt><trkpt lat="44.6632031" lon="9.4383631"><ele>986.0</ele><time>2026-04-18T10:23:19.263Z</time></trkpt><trkpt lat="44.6632649" lon="9.4384886"><ele>986.0</ele><time>2026-04-18T10:23:20.264Z</time></trkpt><trkpt lat="44.6633543" lon="9.4385773"><ele>986.0</ele><time>2026-04-18T10:23:21.263Z</time></trkpt><trkpt lat="44.6634807" lon="9.4386346"><ele>986.0</ele><time>2026-04-18T10:23:22.262Z</time></trkpt><trkpt lat="44.663611" lon="9.4386743"><ele>986.0</ele><time>2026-04-18T10:23:23.263Z</time></trkpt><trkpt lat="44.6637284" lon="9.4387191"><ele>989.4</ele><time>2026-04-18T10:23:24.263Z</time></trkpt><trkpt lat="44.6638355" lon="9.4387765"><ele>992.8</ele><time>2026-04-18T10:23:25.262Z</time></trkpt><trkpt lat="44.6639181" lon="9.4388588"><ele>996.1999999999999</ele><time>2026-04-18T10:23:26.262Z</time></trkpt><trkpt lat="44.6639664" lon="9.4389701"><ele>999.5999999999999</ele><time>2026-04-18T10:23:27.263Z</time></trkpt><trkpt lat="44.6639696" lon="9.4391049"><ele>1003.0</ele><time>2026-04-18T10:23:28.264Z</time></trkpt><trkpt lat="44.6639207" lon="9.4392354"><ele>1003.0</ele><time>2026-04-18T10:23:29.263Z</time></trkpt><trkpt lat="44.6638527" lon="9.439359"><ele>1003.0</ele><time>2026-04-18T10:23:30.263Z</time></trkpt><trkpt lat="44.6637711" lon="9.4394881"><ele>1003.0</ele><time>2026-04-18T10:23:31.263Z</time></trkpt><trkpt lat="44.6636903" lon="9.4396158"><ele>1003.0</ele><time>2026-04-18T10:23:32.263Z</time></trkpt><trkpt lat="44.6636121" lon="9.4397419"><ele>999.75</ele><time>2026-04-18T10:23:33.262Z</time></trkpt><trkpt lat="44.6635341" lon="9.4398702"><ele>996.5</ele><time>2026-04-18T10:23:34.263Z</time></trkpt><trkpt lat="44.6634687" lon="9.44001"><ele>993.25</ele><time>2026-04-18T10:23:35.264Z</time></trkpt><trkpt lat="44.6634301" lon="9.4401834"><ele>990.0</ele><time>2026-04-18T10:23:36.263Z</time></trkpt><trkpt lat="44.6634132" lon="9.4403792"><ele>993.0</ele><time>2026-04-18T10:23:37.263Z</time></trkpt><trkpt lat="44.6634015" lon="9.4405744"><ele>996.0</ele><time>2026-04-18T10:23:38.262Z</time></trkpt><trkpt lat="44.6633778" lon="9.4407677"><ele>999.0</ele><time>2026-04-18T10:23:39.263Z</time></trkpt><trkpt lat="44.6633251" lon="9.440954"><ele>1002.0</ele><time>2026-04-18T10:23:40.262Z</time></trkpt><trkpt lat="44.6632522" lon="9.4411175"><ele>1002.0</ele><time>2026-04-18T10:23:41.263Z</time></trkpt><trkpt lat="44.6631719" lon="9.4412497"><ele>1002.0</ele><time>2026-04-18T10:23:42.263Z</time></trkpt><trkpt lat="44.663071" lon="9.4413175"><ele>1002.0</ele><time>2026-04-18T10:23:43.262Z</time></trkpt><trkpt lat="44.6629686" lon="9.4413212"><ele>1002.0</ele><time>2026-04-18T10:23:44.262Z</time></trkpt><trkpt lat="44.6628507" lon="9.4412883"><ele>1001.6</ele><time>2026-04-18T10:23:45.262Z</time></trkpt><trkpt lat="44.6627495" lon="9.4412241"><ele>1001.2</ele><time>2026-04-18T10:23:46.263Z</time></trkpt><trkpt lat="44.6626555" lon="9.4412102"><ele>1000.8</ele><time>2026-04-18T10:23:47.264Z</time></trkpt><trkpt lat="44.6625707" lon="9.4412456"><ele>1000.4</ele><time>2026-04-18T10:23:48.263Z</time></trkpt><trkpt lat="44.662509" lon="9.441346"><ele>1000.0</ele><time>2026-04-18T10:23:49.263Z</time></trkpt><trkpt lat="44.6624635" lon="9.4415085"><ele>1000.0</ele><time>2026-04-18T10:23:50.262Z</time></trkpt><trkpt lat="44.6624332" lon="9.4416823"><ele>1000.0</ele><time>2026-04-18T10:23:51.263Z</time></trkpt><trkpt lat="44.6624003" lon="9.4418624"><ele>1000.0</ele><time>2026-04-18T10:23:52.263Z</time></trkpt><trkpt lat="44.6623616" lon="9.442047"><ele>1000.0</ele><time>2026-04-18T10:23:53.264Z</time></trkpt><trkpt lat="44.6623189" lon="9.4422396"><ele>1003.0</ele><time>2026-04-18T10:23:54.262Z</time></trkpt><trkpt lat="44.6622762" lon="9.4424325"><ele>1006.0</ele><time>2026-04-18T10:23:55.263Z</time></trkpt><trkpt lat="44.662235" lon="9.4426359"><ele>1009.0</ele><time>2026-04-18T10:23:56.263Z</time></trkpt><trkpt lat="44.662197" lon="9.4428349"><ele>1012.0</ele><time>2026-04-18T10:23:57.263Z</time></trkpt><trkpt lat="44.6621664" lon="9.4430269"><ele>1013.0</ele><time>2026-04-18T10:23:58.262Z</time></trkpt><trkpt lat="44.6621531" lon="9.4432067"><ele>1014.0</ele><time>2026-04-18T10:23:59.263Z</time></trkpt><trkpt lat="44.6621549" lon="9.4433775"><ele>1015.0</ele><time>2026-04-18T10:24:00.263Z</time></trkpt><trkpt lat="44.6621665" lon="9.4435502"><ele>1016.0</ele><time>2026-04-18T10:24:01.263Z</time></trkpt><trkpt lat="44.6621854" lon="9.4437225"><ele>1016.5</ele><time>2026-04-18T10:24:02.263Z</time></trkpt><trkpt lat="44.6621916" lon="9.4438948"><ele>1017.0</ele><time>2026-04-18T10:24:03.263Z</time></trkpt><trkpt lat="44.6621539" lon="9.4440517"><ele>1017.5</ele><time>2026-04-18T10:24:04.261Z</time></trkpt><trkpt lat="44.6620684" lon="9.4441829"><ele>1018.0</ele><time>2026-04-18T10:24:05.262Z</time></trkpt><trkpt lat="44.6619651" lon="9.4442552"><ele>1016.25</ele><time>2026-04-18T10:24:06.264Z</time></trkpt><trkpt lat="44.6618494" lon="9.4442574"><ele>1014.5</ele><time>2026-04-18T10:24:07.262Z</time></trkpt><trkpt lat="44.6617262" lon="9.4442553"><ele>1012.75</ele><time>2026-04-18T10:24:08.264Z</time></trkpt><trkpt lat="44.6616105" lon="9.4441851"><ele>1011.0</ele><time>2026-04-18T10:24:09.263Z</time></trkpt><trkpt lat="44.6615991" lon="9.443931"><ele>1011.0</ele><time>2026-04-18T10:24:10.262Z</time></trkpt><trkpt lat="44.6615098" lon="9.4438312"><ele>1011.0</ele><time>2026-04-18T10:24:11.264Z</time></trkpt><trkpt lat="44.661415" lon="9.4437566"><ele>1011.0</ele><time>2026-04-18T10:24:12.264Z</time></trkpt><trkpt lat="44.6612996" lon="9.4437357"><ele>1011.0</ele><time>2026-04-18T10:24:13.264Z</time></trkpt><trkpt lat="44.6611818" lon="9.4437325"><ele>1007.5</ele><time>2026-04-18T10:24:14.263Z</time></trkpt><trkpt lat="44.6610523" lon="9.4437372"><ele>1004.0</ele><time>2026-04-18T10:24:15.263Z</time></trkpt><trkpt lat="44.6609185" lon="9.4437443"><ele>1000.5</ele><time>2026-04-18T10:24:16.263Z</time></trkpt><trkpt lat="44.6607911" lon="9.4437513"><ele>997.0</ele><time>2026-04-18T10:24:17.262Z</time></trkpt><trkpt lat="44.6606617" lon="9.4437575"><ele>997.0</ele><time>2026-04-18T10:24:18.262Z</time></trkpt><trkpt lat="44.6605348" lon="9.443768"><ele>997.0</ele><time>2026-04-18T10:24:19.262Z</time></trkpt><trkpt lat="44.6604115" lon="9.4437798"><ele>997.0</ele><time>2026-04-18T10:24:20.263Z</time></trkpt><trkpt lat="44.6602851" lon="9.4438093"><ele>997.0</ele><time>2026-04-18T10:24:21.263Z</time></trkpt><trkpt lat="44.6601626" lon="9.4438799"><ele>1001.25</ele><time>2026-04-18T10:24:22.263Z</time></trkpt><trkpt lat="44.660055" lon="9.4439808"><ele>1005.5</ele><time>2026-04-18T10:24:23.264Z</time></trkpt><trkpt lat="44.6599575" lon="9.4440938"><ele>1009.75</ele><time>2026-04-18T10:24:24.263Z</time></trkpt><trkpt lat="44.6598562" lon="9.4442089"><ele>1014.0</ele><time>2026-04-18T10:24:25.263Z</time></trkpt><trkpt lat="44.6597558" lon="9.4443301"><ele>1014.0</ele><time>2026-04-18T10:24:26.263Z</time></trkpt><trkpt lat="44.6596572" lon="9.4444496"><ele>1014.0</ele><time>2026-04-18T10:24:27.263Z</time></trkpt><trkpt lat="44.6595591" lon="9.4445631"><ele>1014.0</ele><time>2026-04-18T10:24:28.263Z</time></trkpt><trkpt lat="44.6594634" lon="9.4446769"><ele>1014.0</ele><time>2026-04-18T10:24:29.263Z</time></trkpt><trkpt lat="44.6593696" lon="9.4447912"><ele>1014.25</ele><time>2026-04-18T10:24:30.263Z</time></trkpt><trkpt lat="44.6592795" lon="9.4449044"><ele>1014.5</ele><time>2026-04-18T10:24:31.263Z</time></trkpt><trkpt lat="44.6591857" lon="9.4450174"><ele>1014.75</ele><time>2026-04-18T10:24:32.262Z</time></trkpt><trkpt lat="44.6590855" lon="9.4451182"><ele>1015.0</ele><time>2026-04-18T10:24:33.263Z</time></trkpt><trkpt lat="44.6589717" lon="9.4452017"><ele>1015.0</ele><time>2026-04-18T10:24:34.263Z</time></trkpt><trkpt lat="44.6588455" lon="9.4452625"><ele>1015.0</ele><time>2026-04-18T10:24:35.262Z</time></trkpt><trkpt lat="44.6587148" lon="9.4452935"><ele>1015.0</ele><time>2026-04-18T10:24:36.263Z</time></trkpt><trkpt lat="44.6585785" lon="9.4453075"><ele>1015.0</ele><time>2026-04-18T10:24:37.263Z</time></trkpt><trkpt lat="44.6584384" lon="9.4453223"><ele>1016.0</ele><time>2026-04-18T10:24:38.264Z</time></trkpt><trkpt lat="44.6582981" lon="9.4453363"><ele>1017.0</ele><time>2026-04-18T10:24:39.263Z</time></trkpt><trkpt lat="44.658161" lon="9.4453263"><ele>1018.0</ele><time>2026-04-18T10:24:40.262Z</time></trkpt><trkpt lat="44.6580313" lon="9.4452852"><ele>1019.0</ele><time>2026-04-18T10:24:41.262Z</time></trkpt><trkpt lat="44.6579031" lon="9.4452361"><ele>1020.25</ele><time>2026-04-18T10:24:42.263Z</time></trkpt><trkpt lat="44.6577671" lon="9.4452179"><ele>1021.5</ele><time>2026-04-18T10:24:43.263Z</time></trkpt><trkpt lat="44.6576252" lon="9.4452308"><ele>1022.75</ele><time>2026-04-18T10:24:44.262Z</time></trkpt><trkpt lat="44.6574782" lon="9.4452611"><ele>1024.0</ele><time>2026-04-18T10:24:45.262Z</time></trkpt><trkpt lat="44.6573309" lon="9.4453019"><ele>1024.0</ele><time>2026-04-18T10:24:46.262Z</time></trkpt><trkpt lat="44.6571871" lon="9.4453387"><ele>1024.0</ele><time>2026-04-18T10:24:47.262Z</time></trkpt><trkpt lat="44.6570516" lon="9.445382"><ele>1024.0</ele><time>2026-04-18T10:24:48.262Z</time></trkpt><trkpt lat="44.6569248" lon="9.4454603"><ele>1024.0</ele><time>2026-04-18T10:24:49.263Z</time></trkpt><trkpt lat="44.6568189" lon="9.4455658"><ele>1027.25</ele><time>2026-04-18T10:24:50.263Z</time></trkpt><trkpt lat="44.6567261" lon="9.4456862"><ele>1030.5</ele><time>2026-04-18T10:24:51.263Z</time></trkpt><trkpt lat="44.6566297" lon="9.4458017"><ele>1033.75</ele><time>2026-04-18T10:24:52.264Z</time></trkpt><trkpt lat="44.656512" lon="9.4458624"><ele>1037.0</ele><time>2026-04-18T10:24:53.262Z</time></trkpt><trkpt lat="44.6563811" lon="9.4458717"><ele>1037.0</ele><time>2026-04-18T10:24:54.262Z</time></trkpt><trkpt lat="44.6562479" lon="9.4458613"><ele>1037.0</ele><time>2026-04-18T10:24:55.263Z</time></trkpt><trkpt lat="44.6561186" lon="9.4458908"><ele>1037.0</ele><time>2026-04-18T10:24:56.263Z</time></trkpt><trkpt lat="44.6559885" lon="9.4459676"><ele>1037.0</ele><time>2026-04-18T10:24:57.263Z</time></trkpt><trkpt lat="44.6558593" lon="9.4460864"><ele>1035.75</ele><time>2026-04-18T10:24:58.263Z</time></trkpt><trkpt lat="44.6557574" lon="9.4462186"><ele>1034.5</ele><time>2026-04-18T10:24:59.263Z</time></trkpt><trkpt lat="44.6556826" lon="9.4463733"><ele>1033.25</ele><time>2026-04-18T10:25:00.263Z</time></trkpt><trkpt lat="44.6556448" lon="9.4465612"><ele>1032.0</ele><time>2026-04-18T10:25:01.263Z</time></trkpt><trkpt lat="44.6556412" lon="9.4467598"><ele>1035.0</ele><time>2026-04-18T10:25:02.262Z</time></trkpt><trkpt lat="44.6556515" lon="9.4469637"><ele>1038.0</ele><time>2026-04-18T10:25:03.262Z</time></trkpt><trkpt lat="44.6556679" lon="9.4471697"><ele>1041.0</ele><time>2026-04-18T10:25:04.262Z</time></trkpt><trkpt lat="44.6556824" lon="9.4473687"><ele>1044.0</ele><time>2026-04-18T10:25:05.262Z</time></trkpt><trkpt lat="44.6556797" lon="9.4475385"><ele>1045.0</ele><time>2026-04-18T10:25:06.263Z</time></trkpt><trkpt lat="44.6556565" lon="9.4476778"><ele>1046.0</ele><time>2026-04-18T10:25:07.263Z</time></trkpt><trkpt lat="44.6556175" lon="9.4478054"><ele>1047.0</ele><time>2026-04-18T10:25:08.263Z</time></trkpt><trkpt lat="44.6555076" lon="9.4478477"><ele>1048.0</ele><time>2026-04-18T10:25:09.263Z</time></trkpt><trkpt lat="44.655397" lon="9.4478785"><ele>1049.0</ele><time>2026-04-18T10:25:10.263Z</time></trkpt><trkpt lat="44.6552751" lon="9.4479006"><ele>1050.0</ele><time>2026-04-18T10:25:11.263Z</time></trkpt><trkpt lat="44.6551551" lon="9.4479278"><ele>1051.0</ele><time>2026-04-18T10:25:12.262Z</time></trkpt><trkpt lat="44.6550358" lon="9.4479689"><ele>1052.0</ele><time>2026-04-18T10:25:13.262Z</time></trkpt><trkpt lat="44.6549197" lon="9.4480268"><ele>1053.0</ele><time>2026-04-18T10:25:14.262Z</time></trkpt><trkpt lat="44.6548045" lon="9.4480837"><ele>1053.0</ele><time>2026-04-18T10:25:15.262Z</time></trkpt><trkpt lat="44.6546912" lon="9.4481521"><ele>1053.0</ele><time>2026-04-18T10:25:16.262Z</time></trkpt><trkpt lat="44.6545813" lon="9.4482413"><ele>1053.0</ele><time>2026-04-18T10:25:17.263Z</time></trkpt><trkpt lat="44.6544861" lon="9.4483683"><ele>1053.0</ele><time>2026-04-18T10:25:18.263Z</time></trkpt><trkpt lat="44.6544101" lon="9.4485323"><ele>1053.0</ele><time>2026-04-18T10:25:19.263Z</time></trkpt><trkpt lat="44.6543434" lon="9.4487148"><ele>1053.0</ele><time>2026-04-18T10:25:20.263Z</time></trkpt><trkpt lat="44.6542816" lon="9.4489089"><ele>1053.0</ele><time>2026-04-18T10:25:21.263Z</time></trkpt><trkpt lat="44.6542243" lon="9.4491067"><ele>1053.0</ele><time>2026-04-18T10:25:22.263Z</time></trkpt><trkpt lat="44.6541691" lon="9.4493026"><ele>1053.0</ele><time>2026-04-18T10:25:23.263Z</time></trkpt><trkpt lat="44.6541169" lon="9.4494987"><ele>1053.0</ele><time>2026-04-18T10:25:24.263Z</time></trkpt><trkpt lat="44.6540695" lon="9.4496961"><ele>1053.0</ele><time>2026-04-18T10:25:25.263Z</time></trkpt><trkpt lat="44.6540333" lon="9.4498957"><ele>1053.0</ele><time>2026-04-18T10:25:26.263Z</time></trkpt><trkpt lat="44.6540045" lon="9.450079"><ele>1055.0</ele><time>2026-04-18T10:25:27.263Z</time></trkpt><trkpt lat="44.6539812" lon="9.4502575"><ele>1057.0</ele><time>2026-04-18T10:25:28.262Z</time></trkpt><trkpt lat="44.6539622" lon="9.4504365"><ele>1059.0</ele><time>2026-04-18T10:25:29.262Z</time></trkpt><trkpt lat="44.6539531" lon="9.4506158"><ele>1061.0</ele><time>2026-04-18T10:25:30.263Z</time></trkpt><trkpt lat="44.6539625" lon="9.4507855"><ele>1061.0</ele><time>2026-04-18T10:25:31.263Z</time></trkpt><trkpt lat="44.6539938" lon="9.4509448"><ele>1061.0</ele><time>2026-04-18T10:25:32.263Z</time></trkpt><trkpt lat="44.6540513" lon="9.4510929"><ele>1061.0</ele><time>2026-04-18T10:25:33.263Z</time></trkpt><trkpt lat="44.6541349" lon="9.4512121"><ele>1061.0</ele><time>2026-04-18T10:25:34.263Z</time></trkpt><trkpt lat="44.6542554" lon="9.4513051"><ele>1059.3333333333335</ele><time>2026-04-18T10:25:35.263Z</time></trkpt><trkpt lat="44.6544025" lon="9.451352"><ele>1057.6666666666667</ele><time>2026-04-18T10:25:36.263Z</time></trkpt><trkpt lat="44.6545594" lon="9.4513805"><ele>1056.0</ele><time>2026-04-18T10:25:37.264Z</time></trkpt><trkpt lat="44.6547125" lon="9.4514336"><ele>1056.0</ele><time>2026-04-18T10:25:38.263Z</time></trkpt><trkpt lat="44.6548579" lon="9.451524"><ele>1056.0</ele><time>2026-04-18T10:25:39.264Z</time></trkpt><trkpt lat="44.6549932" lon="9.45164"><ele>1056.0</ele><time>2026-04-18T10:25:40.263Z</time></trkpt><trkpt lat="44.655119" lon="9.4517598"><ele>1056.0</ele><time>2026-04-18T10:25:41.262Z</time></trkpt><trkpt lat="44.6552433" lon="9.4518829"><ele>1056.0</ele><time>2026-04-18T10:25:42.262Z</time></trkpt><trkpt lat="44.6553636" lon="9.452011"><ele>1056.0</ele><time>2026-04-18T10:25:43.263Z</time></trkpt><trkpt lat="44.655471" lon="9.4521463"><ele>1056.0</ele><time>2026-04-18T10:25:44.263Z</time></trkpt><trkpt lat="44.6555586" lon="9.4523122"><ele>1056.6666666666667</ele><time>2026-04-18T10:25:45.263Z</time></trkpt><trkpt lat="44.6556266" lon="9.4525075"><ele>1057.3333333333335</ele><time>2026-04-18T10:25:46.262Z</time></trkpt><trkpt lat="44.6556835" lon="9.4527111"><ele>1058.0</ele><time>2026-04-18T10:25:47.262Z</time></trkpt><trkpt lat="44.6557407" lon="9.4529106"><ele>1055.6666666666667</ele><time>2026-04-18T10:25:48.264Z</time></trkpt><trkpt lat="44.6557988" lon="9.4531139"><ele>1053.3333333333333</ele><time>2026-04-18T10:25:49.263Z</time></trkpt><trkpt lat="44.6558532" lon="9.4533145"><ele>1051.0</ele><time>2026-04-18T10:25:50.263Z</time></trkpt><trkpt lat="44.6559043" lon="9.4535105"><ele>1051.0</ele><time>2026-04-18T10:25:51.263Z</time></trkpt><trkpt lat="44.6559562" lon="9.4537066"><ele>1051.0</ele><time>2026-04-18T10:25:52.262Z</time></trkpt><trkpt lat="44.6560075" lon="9.4539022"><ele>1051.0</ele><time>2026-04-18T10:25:53.263Z</time></trkpt><trkpt lat="44.6560588" lon="9.4540939"><ele>1051.0</ele><time>2026-04-18T10:25:54.264Z</time></trkpt><trkpt lat="44.6561229" lon="9.4542821"><ele>1052.5</ele><time>2026-04-18T10:25:55.262Z</time></trkpt><trkpt lat="44.6562036" lon="9.45445"><ele>1054.0</ele><time>2026-04-18T10:25:56.263Z</time></trkpt><trkpt lat="44.6563012" lon="9.4545951"><ele>1055.5</ele><time>2026-04-18T10:25:57.264Z</time></trkpt><trkpt lat="44.6564142" lon="9.4547223"><ele>1057.0</ele><time>2026-04-18T10:25:58.263Z</time></trkpt><trkpt lat="44.6565432" lon="9.4548197"><ele>1055.75</ele><time>2026-04-18T10:25:59.262Z</time></trkpt><trkpt lat="44.6566823" lon="9.4548765"><ele>1054.5</ele><time>2026-04-18T10:26:00.263Z</time></trkpt><trkpt lat="44.6568224" lon="9.4549132"><ele>1053.25</ele><time>2026-04-18T10:26:01.263Z</time></trkpt><trkpt lat="44.6569586" lon="9.4549421"><ele>1052.0</ele><time>2026-04-18T10:26:02.262Z</time></trkpt><trkpt lat="44.6570747" lon="9.4549891"><ele>1052.0</ele><time>2026-04-18T10:26:03.263Z</time></trkpt><trkpt lat="44.6571567" lon="9.4550857"><ele>1052.0</ele><time>2026-04-18T10:26:04.263Z</time></trkpt><trkpt lat="44.657197" lon="9.4552166"><ele>1052.0</ele><time>2026-04-18T10:26:05.263Z</time></trkpt><trkpt lat="44.6571998" lon="9.455374"><ele>1052.0</ele><time>2026-04-18T10:26:06.264Z</time></trkpt><trkpt lat="44.6571941" lon="9.4555479"><ele>1052.0</ele><time>2026-04-18T10:26:07.262Z</time></trkpt><trkpt lat="44.6572253" lon="9.4557399"><ele>1050.5</ele><time>2026-04-18T10:26:08.262Z</time></trkpt><trkpt lat="44.6572711" lon="9.4559377"><ele>1049.0</ele><time>2026-04-18T10:26:09.263Z</time></trkpt><trkpt lat="44.6573218" lon="9.4561269"><ele>1047.5</ele><time>2026-04-18T10:26:10.263Z</time></trkpt><trkpt lat="44.6573791" lon="9.4563"><ele>1046.0</ele><time>2026-04-18T10:26:11.264Z</time></trkpt><trkpt lat="44.6574624" lon="9.4564349"><ele>1043.25</ele><time>2026-04-18T10:26:12.262Z</time></trkpt><trkpt lat="44.6575716" lon="9.4565171"><ele>1040.5</ele><time>2026-04-18T10:26:13.264Z</time></trkpt><trkpt lat="44.6576982" lon="9.4565322"><ele>1037.75</ele><time>2026-04-18T10:26:14.263Z</time></trkpt><trkpt lat="44.6578454" lon="9.4565006"><ele>1035.0</ele><time>2026-04-18T10:26:15.264Z</time></trkpt><trkpt lat="44.6579881" lon="9.4564582"><ele>1034.6666666666667</ele><time>2026-04-18T10:26:16.263Z</time></trkpt><trkpt lat="44.6581383" lon="9.4564148"><ele>1034.3333333333335</ele><time>2026-04-18T10:26:17.262Z</time></trkpt><trkpt lat="44.6582931" lon="9.4563809"><ele>1034.0</ele><time>2026-04-18T10:26:18.262Z</time></trkpt><trkpt lat="44.6584464" lon="9.456365"><ele>1034.0</ele><time>2026-04-18T10:26:19.263Z</time></trkpt><trkpt lat="44.6586046" lon="9.456366"><ele>1034.0</ele><time>2026-04-18T10:26:20.264Z</time></trkpt><trkpt lat="44.658767" lon="9.4563851"><ele>1034.0</ele><time>2026-04-18T10:26:21.262Z</time></trkpt><trkpt lat="44.6589363" lon="9.4564213"><ele>1034.0</ele><time>2026-04-18T10:26:22.262Z</time></trkpt><trkpt lat="44.6591" lon="9.4564729"><ele>1034.0</ele><time>2026-04-18T10:26:23.263Z</time></trkpt><trkpt lat="44.6592669" lon="9.4565316"><ele>1034.0</ele><time>2026-04-18T10:26:24.263Z</time></trkpt><trkpt lat="44.6594346" lon="9.4565889"><ele>1033.3333333333335</ele><time>2026-04-18T10:26:25.263Z</time></trkpt><trkpt lat="44.6595965" lon="9.4566452"><ele>1032.6666666666667</ele><time>2026-04-18T10:26:26.263Z</time></trkpt><trkpt lat="44.6597578" lon="9.4566996"><ele>1032.0</ele><time>2026-04-18T10:26:27.264Z</time></trkpt><trkpt lat="44.659917" lon="9.456757"><ele>1032.0</ele><time>2026-04-18T10:26:28.262Z</time></trkpt><trkpt lat="44.6600692" lon="9.4568234"><ele>1032.0</ele><time>2026-04-18T10:26:29.263Z</time></trkpt><trkpt lat="44.6602025" lon="9.4569183"><ele>1032.0</ele><time>2026-04-18T10:26:30.263Z</time></trkpt><trkpt lat="44.660318" lon="9.4570472"><ele>1028.5</ele><time>2026-04-18T10:26:31.264Z</time></trkpt><trkpt lat="44.6604213" lon="9.4571793"><ele>1025.0</ele><time>2026-04-18T10:26:32.264Z</time></trkpt><trkpt lat="44.6605234" lon="9.4572818"><ele>1021.5</ele><time>2026-04-18T10:26:33.263Z</time></trkpt><trkpt lat="44.6606342" lon="9.4573223"><ele>1018.0</ele><time>2026-04-18T10:26:34.262Z</time></trkpt><trkpt lat="44.6607495" lon="9.4572937"><ele>1018.0</ele><time>2026-04-18T10:26:35.262Z</time></trkpt><trkpt lat="44.660854" lon="9.4572061"><ele>1018.0</ele><time>2026-04-18T10:26:36.263Z</time></trkpt><trkpt lat="44.6609467" lon="9.4570788"><ele>1018.0</ele><time>2026-04-18T10:26:37.263Z</time></trkpt><trkpt lat="44.6610402" lon="9.4569531"><ele>1018.0</ele><time>2026-04-18T10:26:38.263Z</time></trkpt><trkpt lat="44.6611675" lon="9.4568327"><ele>1020.0</ele><time>2026-04-18T10:26:39.262Z</time></trkpt><trkpt lat="44.6613134" lon="9.4567574"><ele>1022.0</ele><time>2026-04-18T10:26:40.264Z</time></trkpt><trkpt lat="44.6614699" lon="9.4567322"><ele>1024.0</ele><time>2026-04-18T10:26:41.263Z</time></trkpt><trkpt lat="44.6616183" lon="9.4567198"><ele>1024.0</ele><time>2026-04-18T10:26:42.263Z</time></trkpt><trkpt lat="44.6617694" lon="9.4567114"><ele>1024.0</ele><time>2026-04-18T10:26:43.263Z</time></trkpt><trkpt lat="44.6619198" lon="9.4567097"><ele>1024.0</ele><time>2026-04-18T10:26:44.263Z</time></trkpt><trkpt lat="44.6620606" lon="9.4567136"><ele>1024.0</ele><time>2026-04-18T10:26:45.263Z</time></trkpt><trkpt lat="44.6621843" lon="9.4567497"><ele>1023.25</ele><time>2026-04-18T10:26:46.264Z</time></trkpt><trkpt lat="44.6622845" lon="9.4568511"><ele>1022.5</ele><time>2026-04-18T10:26:47.263Z</time></trkpt><trkpt lat="44.6623473" lon="9.4569975"><ele>1021.75</ele><time>2026-04-18T10:26:48.263Z</time></trkpt><trkpt lat="44.6623725" lon="9.4571789"><ele>1021.0</ele><time>2026-04-18T10:26:49.263Z</time></trkpt><trkpt lat="44.6623855" lon="9.457362"><ele>1019.75</ele><time>2026-04-18T10:26:50.263Z</time></trkpt><trkpt lat="44.6623968" lon="9.457544"><ele>1018.5</ele><time>2026-04-18T10:26:51.263Z</time></trkpt><trkpt lat="44.6624093" lon="9.4577347"><ele>1017.25</ele><time>2026-04-18T10:26:52.262Z</time></trkpt><trkpt lat="44.6624218" lon="9.4579316"><ele>1016.0</ele><time>2026-04-18T10:26:53.263Z</time></trkpt><trkpt lat="44.6624337" lon="9.4581371"><ele>1016.0</ele><time>2026-04-18T10:26:54.263Z</time></trkpt><trkpt lat="44.6624337" lon="9.4583365"><ele>1016.0</ele><time>2026-04-18T10:26:55.262Z</time></trkpt><trkpt lat="44.6624215" lon="9.4585396"><ele>1016.0</ele><time>2026-04-18T10:26:56.263Z</time></trkpt><trkpt lat="44.6624002" lon="9.4587472"><ele>1016.0</ele><time>2026-04-18T10:26:57.263Z</time></trkpt><trkpt lat="44.6623769" lon="9.4589581"><ele>1014.0</ele><time>2026-04-18T10:26:58.263Z</time></trkpt><trkpt lat="44.6623533" lon="9.4591675"><ele>1012.0</ele><time>2026-04-18T10:26:59.262Z</time></trkpt><trkpt lat="44.662328" lon="9.4593732"><ele>1010.0</ele><time>2026-04-18T10:27:00.263Z</time></trkpt><trkpt lat="44.6623023" lon="9.4595814"><ele>1009.3333333333334</ele><time>2026-04-18T10:27:01.263Z</time></trkpt><trkpt lat="44.6622783" lon="9.4597965"><ele>1008.6666666666667</ele><time>2026-04-18T10:27:02.263Z</time></trkpt><trkpt lat="44.6622527" lon="9.460011"><ele>1008.0</ele><time>2026-04-18T10:27:03.263Z</time></trkpt><trkpt lat="44.6622262" lon="9.4602215"><ele>1008.0</ele><time>2026-04-18T10:27:04.263Z</time></trkpt><trkpt lat="44.6622003" lon="9.460426"><ele>1008.0</ele><time>2026-04-18T10:27:05.263Z</time></trkpt><trkpt lat="44.6621785" lon="9.4606222"><ele>1008.0</ele><time>2026-04-18T10:27:06.262Z</time></trkpt><trkpt lat="44.6621563" lon="9.4608029"><ele>1008.0</ele><time>2026-04-18T10:27:07.263Z</time></trkpt><trkpt lat="44.6621374" lon="9.4609685"><ele>1007.0</ele><time>2026-04-18T10:27:08.264Z</time></trkpt><trkpt lat="44.66214" lon="9.4611233"><ele>1006.0</ele><time>2026-04-18T10:27:09.262Z</time></trkpt><trkpt lat="44.6621808" lon="9.4612701"><ele>1005.0</ele><time>2026-04-18T10:27:10.264Z</time></trkpt><trkpt lat="44.662266" lon="9.4614074"><ele>1004.0</ele><time>2026-04-18T10:27:11.264Z</time></trkpt><trkpt lat="44.6623752" lon="9.4615265"><ele>1004.25</ele><time>2026-04-18T10:27:12.263Z</time></trkpt><trkpt lat="44.662494" lon="9.4616392"><ele>1004.5</ele><time>2026-04-18T10:27:13.262Z</time></trkpt><trkpt lat="44.6626147" lon="9.4617528"><ele>1004.75</ele><time>2026-04-18T10:27:14.262Z</time></trkpt><trkpt lat="44.6627386" lon="9.4618692"><ele>1005.0</ele><time>2026-04-18T10:27:15.263Z</time></trkpt><trkpt lat="44.6628662" lon="9.4619867"><ele>1005.0</ele><time>2026-04-18T10:27:16.263Z</time></trkpt><trkpt lat="44.6629911" lon="9.4620984"><ele>1005.0</ele><time>2026-04-18T10:27:17.263Z</time></trkpt><trkpt lat="44.6631006" lon="9.4622154"><ele>1005.0</ele><time>2026-04-18T10:27:18.263Z</time></trkpt><trkpt lat="44.6631802" lon="9.4623582"><ele>1005.0</ele><time>2026-04-18T10:27:19.262Z</time></trkpt><trkpt lat="44.6632338" lon="9.462522"><ele>1002.25</ele><time>2026-04-18T10:27:20.263Z</time></trkpt><trkpt lat="44.6632557" lon="9.4626995"><ele>999.5</ele><time>2026-04-18T10:27:21.264Z</time></trkpt><trkpt lat="44.6632671" lon="9.4628714"><ele>996.75</ele><time>2026-04-18T10:27:22.263Z</time></trkpt><trkpt lat="44.6632963" lon="9.4630254"><ele>994.0</ele><time>2026-04-18T10:27:23.263Z</time></trkpt><trkpt lat="44.6633525" lon="9.4631702"><ele>993.75</ele><time>2026-04-18T10:27:24.264Z</time></trkpt><trkpt lat="44.6634218" lon="9.4632973"><ele>993.5</ele><time>2026-04-18T10:27:25.262Z</time></trkpt><trkpt lat="44.6635069" lon="9.4634169"><ele>993.25</ele><time>2026-04-18T10:27:26.262Z</time></trkpt><trkpt lat="44.6635984" lon="9.4635399"><ele>993.0</ele><time>2026-04-18T10:27:27.262Z</time></trkpt><trkpt lat="44.6636874" lon="9.4636596"><ele>991.0</ele><time>2026-04-18T10:27:28.262Z</time></trkpt><trkpt lat="44.6637818" lon="9.4637867"><ele>989.0</ele><time>2026-04-18T10:27:29.263Z</time></trkpt><trkpt lat="44.6638808" lon="9.4639196"><ele>987.0</ele><time>2026-04-18T10:27:30.263Z</time></trkpt><trkpt lat="44.6639825" lon="9.4640523"><ele>985.0</ele><time>2026-04-18T10:27:31.263Z</time></trkpt><trkpt lat="44.6640837" lon="9.4641855"><ele>985.0</ele><time>2026-04-18T10:27:32.264Z</time></trkpt><trkpt lat="44.6641864" lon="9.4643159"><ele>985.0</ele><time>2026-04-18T10:27:33.264Z</time></trkpt><trkpt lat="44.6642902" lon="9.4644327"><ele>985.0</ele><time>2026-04-18T10:27:34.262Z</time></trkpt><trkpt lat="44.6643927" lon="9.4645187"><ele>985.0</ele><time>2026-04-18T10:27:35.263Z</time></trkpt><trkpt lat="44.6645001" lon="9.4645703"><ele>985.25</ele><time>2026-04-18T10:27:36.263Z</time></trkpt><trkpt lat="44.6646099" lon="9.4645801"><ele>985.5</ele><time>2026-04-18T10:27:37.262Z</time></trkpt><trkpt lat="44.6647226" lon="9.4645597"><ele>985.75</ele><time>2026-04-18T10:27:38.262Z</time></trkpt><trkpt lat="44.6648452" lon="9.4645364"><ele>986.0</ele><time>2026-04-18T10:27:39.262Z</time></trkpt><trkpt lat="44.6649809" lon="9.4645504"><ele>985.25</ele><time>2026-04-18T10:27:40.262Z</time></trkpt><trkpt lat="44.6651117" lon="9.4646152"><ele>984.5</ele><time>2026-04-18T10:27:41.263Z</time></trkpt><trkpt lat="44.6652385" lon="9.4647093"><ele>983.75</ele><time>2026-04-18T10:27:42.262Z</time></trkpt><trkpt lat="44.6653608" lon="9.4648315"><ele>983.0</ele><time>2026-04-18T10:27:43.264Z</time></trkpt><trkpt lat="44.6654809" lon="9.4649669"><ele>983.0</ele><time>2026-04-18T10:27:44.262Z</time></trkpt><trkpt lat="44.6655984" lon="9.465127"><ele>983.0</ele><time>2026-04-18T10:27:45.263Z</time></trkpt><trkpt lat="44.6657143" lon="9.4652919"><ele>983.0</ele><time>2026-04-18T10:27:46.264Z</time></trkpt><trkpt lat="44.6658267" lon="9.4654526"><ele>984.5</ele><time>2026-04-18T10:27:47.263Z</time></trkpt><trkpt lat="44.6659315" lon="9.4656065"><ele>986.0</ele><time>2026-04-18T10:27:48.264Z</time></trkpt><trkpt lat="44.6660279" lon="9.4657558"><ele>987.5</ele><time>2026-04-18T10:27:49.264Z</time></trkpt><trkpt lat="44.6660922" lon="9.4659275"><ele>989.0</ele><time>2026-04-18T10:27:50.262Z</time></trkpt><trkpt lat="44.6661117" lon="9.4661342"><ele>982.6666666666667</ele><time>2026-04-18T10:27:51.263Z</time></trkpt><trkpt lat="44.6661035" lon="9.4663535"><ele>976.3333333333333</ele><time>2026-04-18T10:27:52.263Z</time></trkpt><trkpt lat="44.6660808" lon="9.4665856"><ele>970.0</ele><time>2026-04-18T10:27:53.263Z</time></trkpt><trkpt lat="44.6660504" lon="9.4668206"><ele>970.0</ele><time>2026-04-18T10:27:54.262Z</time></trkpt><trkpt lat="44.6660171" lon="9.4670469"><ele>970.0</ele><time>2026-04-18T10:27:55.263Z</time></trkpt><trkpt lat="44.6659795" lon="9.4672732"><ele>970.0</ele><time>2026-04-18T10:27:56.263Z</time></trkpt><trkpt lat="44.6659398" lon="9.4674938"><ele>969.0</ele><time>2026-04-18T10:27:57.263Z</time></trkpt><trkpt lat="44.6658965" lon="9.4677124"><ele>968.0</ele><time>2026-04-18T10:27:58.262Z</time></trkpt><trkpt lat="44.6658472" lon="9.4679299"><ele>967.0</ele><time>2026-04-18T10:27:59.264Z</time></trkpt><trkpt lat="44.6657926" lon="9.4681277"><ele>965.75</ele><time>2026-04-18T10:28:00.264Z</time></trkpt><trkpt lat="44.6657173" lon="9.4682846"><ele>964.5</ele><time>2026-04-18T10:28:01.264Z</time></trkpt><trkpt lat="44.6656151" lon="9.468402"><ele>963.25</ele><time>2026-04-18T10:28:02.264Z</time></trkpt><trkpt lat="44.6654944" lon="9.4684632"><ele>962.0</ele><time>2026-04-18T10:28:03.262Z</time></trkpt><trkpt lat="44.6653694" lon="9.468466"><ele>960.5</ele><time>2026-04-18T10:28:04.263Z</time></trkpt><trkpt lat="44.6652365" lon="9.4684051"><ele>959.0</ele><time>2026-04-18T10:28:05.264Z</time></trkpt><trkpt lat="44.6651027" lon="9.4683113"><ele>957.5</ele><time>2026-04-18T10:28:06.263Z</time></trkpt><trkpt lat="44.6649641" lon="9.4682092"><ele>956.0</ele><time>2026-04-18T10:28:07.262Z</time></trkpt><trkpt lat="44.6648262" lon="9.468113"><ele>956.0</ele><time>2026-04-18T10:28:08.264Z</time></trkpt><trkpt lat="44.6646886" lon="9.4680155"><ele>956.0</ele><time>2026-04-18T10:28:09.263Z</time></trkpt><trkpt lat="44.6645491" lon="9.4679188"><ele>956.0</ele><time>2026-04-18T10:28:10.262Z</time></trkpt><trkpt lat="44.6644066" lon="9.4678244"><ele>955.6666666666667</ele><time>2026-04-18T10:28:11.263Z</time></trkpt><trkpt lat="44.6642612" lon="9.4677345"><ele>955.3333333333333</ele><time>2026-04-18T10:28:12.263Z</time></trkpt><trkpt lat="44.6641159" lon="9.4676483"><ele>955.0</ele><time>2026-04-18T10:28:13.262Z</time></trkpt><trkpt lat="44.6639757" lon="9.4675665"><ele>955.0</ele><time>2026-04-18T10:28:14.263Z</time></trkpt><trkpt lat="44.6638413" lon="9.4674885"><ele>955.0</ele><time>2026-04-18T10:28:15.263Z</time></trkpt><trkpt lat="44.6637127" lon="9.4674113"><ele>955.0</ele><time>2026-04-18T10:28:16.264Z</time></trkpt><trkpt lat="44.6635928" lon="9.4673375"><ele>955.0</ele><time>2026-04-18T10:28:17.262Z</time></trkpt><trkpt lat="44.6634807" lon="9.46727"><ele>953.8</ele><time>2026-04-18T10:28:18.262Z</time></trkpt><trkpt lat="44.6633717" lon="9.4672187"><ele>952.6</ele><time>2026-04-18T10:28:19.263Z</time></trkpt><trkpt lat="44.6632659" lon="9.4672246"><ele>951.4000000000001</ele><time>2026-04-18T10:28:20.263Z</time></trkpt><trkpt lat="44.6631781" lon="9.4672959"><ele>950.2</ele><time>2026-04-18T10:28:21.262Z</time></trkpt><trkpt lat="44.6631332" lon="9.4674125"><ele>949.0</ele><time>2026-04-18T10:28:22.262Z</time></trkpt><trkpt lat="44.6631386" lon="9.4675573"><ele>949.0</ele><time>2026-04-18T10:28:23.262Z</time></trkpt><trkpt lat="44.6631802" lon="9.4677143"><ele>949.0</ele><time>2026-04-18T10:28:24.262Z</time></trkpt><trkpt lat="44.663243" lon="9.4678877"><ele>949.0</ele><time>2026-04-18T10:28:25.263Z</time></trkpt><trkpt lat="44.6633072" lon="9.4680653"><ele>949.0</ele><time>2026-04-18T10:28:26.264Z</time></trkpt><trkpt lat="44.6633717" lon="9.4682451"><ele>945.6666666666666</ele><time>2026-04-18T10:28:27.263Z</time></trkpt><trkpt lat="44.6634386" lon="9.4684328"><ele>942.3333333333333</ele><time>2026-04-18T10:28:28.262Z</time></trkpt><trkpt lat="44.663508" lon="9.4686296"><ele>939.0</ele><time>2026-04-18T10:28:29.264Z</time></trkpt><trkpt lat="44.6635759" lon="9.4688219"><ele>938.5</ele><time>2026-04-18T10:28:30.264Z</time></trkpt><trkpt lat="44.6636416" lon="9.4690109"><ele>938.0</ele><time>2026-04-18T10:28:31.263Z</time></trkpt><trkpt lat="44.66371" lon="9.4691941"><ele>937.5</ele><time>2026-04-18T10:28:32.262Z</time></trkpt><trkpt lat="44.6637798" lon="9.4693722"><ele>937.0</ele><time>2026-04-18T10:28:33.263Z</time></trkpt><trkpt lat="44.6638559" lon="9.4695424"><ele>934.5</ele><time>2026-04-18T10:28:34.263Z</time></trkpt><trkpt lat="44.6639386" lon="9.4697013"><ele>932.0</ele><time>2026-04-18T10:28:35.263Z</time></trkpt><trkpt lat="44.6640287" lon="9.4698593"><ele>929.5</ele><time>2026-04-18T10:28:36.263Z</time></trkpt><trkpt lat="44.6641273" lon="9.4700144"><ele>927.0</ele><time>2026-04-18T10:28:37.263Z</time></trkpt><trkpt lat="44.6642282" lon="9.4701618"><ele>927.0</ele><time>2026-04-18T10:28:38.262Z</time></trkpt><trkpt lat="44.6643284" lon="9.470309"><ele>927.0</ele><time>2026-04-18T10:28:39.263Z</time></trkpt><trkpt lat="44.664429" lon="9.4704572"><ele>927.0</ele><time>2026-04-18T10:28:40.263Z</time></trkpt><trkpt lat="44.6645289" lon="9.4706018"><ele>927.0</ele><time>2026-04-18T10:28:41.264Z</time></trkpt><trkpt lat="44.6646219" lon="9.4707395"><ele>926.2</ele><time>2026-04-18T10:28:42.263Z</time></trkpt><trkpt lat="44.6646809" lon="9.4708689"><ele>925.4000000000001</ele><time>2026-04-18T10:28:43.263Z</time></trkpt><trkpt lat="44.6647049" lon="9.4710042"><ele>924.5999999999999</ele><time>2026-04-18T10:28:44.263Z</time></trkpt><trkpt lat="44.6646758" lon="9.4711221"><ele>923.8</ele><time>2026-04-18T10:28:45.262Z</time></trkpt><trkpt lat="44.6645968" lon="9.4711948"><ele>923.0</ele><time>2026-04-18T10:28:46.263Z</time></trkpt><trkpt lat="44.6644944" lon="9.4711959"><ele>922.25</ele><time>2026-04-18T10:28:47.263Z</time></trkpt><trkpt lat="44.6643798" lon="9.4711521"><ele>921.5</ele><time>2026-04-18T10:28:48.262Z</time></trkpt><trkpt lat="44.6642605" lon="9.4710975"><ele>920.75</ele><time>2026-04-18T10:28:49.262Z</time></trkpt><trkpt lat="44.6641318" lon="9.4710358"><ele>920.0</ele><time>2026-04-18T10:28:50.263Z</time></trkpt><trkpt lat="44.6639993" lon="9.4709714"><ele>920.0</ele><time>2026-04-18T10:28:51.262Z</time></trkpt><trkpt lat="44.6638734" lon="9.4709087"><ele>920.0</ele><time>2026-04-18T10:28:52.263Z</time></trkpt><trkpt lat="44.6637457" lon="9.4708477"><ele>920.0</ele><time>2026-04-18T10:28:53.263Z</time></trkpt><trkpt lat="44.6636203" lon="9.4707899"><ele>920.0</ele><time>2026-04-18T10:28:54.263Z</time></trkpt><trkpt lat="44.6634998" lon="9.4707264"><ele>919.25</ele><time>2026-04-18T10:28:55.264Z</time></trkpt><trkpt lat="44.6633865" lon="9.470642"><ele>918.5</ele><time>2026-04-18T10:28:56.262Z</time></trkpt><trkpt lat="44.6632786" lon="9.4705318"><ele>917.75</ele><time>2026-04-18T10:28:57.262Z</time></trkpt><trkpt lat="44.6631745" lon="9.4704101"><ele>917.0</ele><time>2026-04-18T10:28:58.264Z</time></trkpt><trkpt lat="44.6630706" lon="9.4702921"><ele>917.0</ele><time>2026-04-18T10:28:59.263Z</time></trkpt><trkpt lat="44.6629687" lon="9.4701825"><ele>917.0</ele><time>2026-04-18T10:29:00.263Z</time></trkpt><trkpt lat="44.6628714" lon="9.4700878"><ele>917.0</ele><time>2026-04-18T10:29:01.263Z</time></trkpt><trkpt lat="44.6627806" lon="9.4700134"><ele>917.0</ele><time>2026-04-18T10:29:02.263Z</time></trkpt><trkpt lat="44.6626895" lon="9.4699873"><ele>917.0</ele><time>2026-04-18T10:29:03.263Z</time></trkpt><trkpt lat="44.6626085" lon="9.4700222"><ele>915.2</ele><time>2026-04-18T10:29:04.264Z</time></trkpt><trkpt lat="44.6625672" lon="9.4701093"><ele>913.4000000000001</ele><time>2026-04-18T10:29:05.263Z</time></trkpt><trkpt lat="44.662572" lon="9.4702152"><ele>911.5999999999999</ele><time>2026-04-18T10:29:06.263Z</time></trkpt><trkpt lat="44.6626266" lon="9.470323"><ele>909.8</ele><time>2026-04-18T10:29:07.262Z</time></trkpt><trkpt lat="44.6627223" lon="9.4704142"><ele>908.0</ele><time>2026-04-18T10:29:08.264Z</time></trkpt><trkpt lat="44.6628257" lon="9.4705042"><ele>907.75</ele><time>2026-04-18T10:29:09.263Z</time></trkpt><trkpt lat="44.6629228" lon="9.4706455"><ele>907.5</ele><time>2026-04-18T10:29:10.264Z</time></trkpt><trkpt lat="44.66299" lon="9.4708195"><ele>907.25</ele><time>2026-04-18T10:29:11.262Z</time></trkpt><trkpt lat="44.6630343" lon="9.4709976"><ele>907.0</ele><time>2026-04-18T10:29:12.262Z</time></trkpt><trkpt lat="44.6630846" lon="9.471167"><ele>904.0</ele><time>2026-04-18T10:29:13.263Z</time></trkpt><trkpt lat="44.6631521" lon="9.47131"><ele>901.0</ele><time>2026-04-18T10:29:14.263Z</time></trkpt><trkpt lat="44.6632442" lon="9.4714293"><ele>898.0</ele><time>2026-04-18T10:29:15.264Z</time></trkpt><trkpt lat="44.6633541" lon="9.4715218"><ele>895.0</ele><time>2026-04-18T10:29:16.263Z</time></trkpt><trkpt lat="44.6634654" lon="9.4716173"><ele>895.0</ele><time>2026-04-18T10:29:17.261Z</time></trkpt><trkpt lat="44.6635767" lon="9.4717353"><ele>895.0</ele><time>2026-04-18T10:29:18.261Z</time></trkpt><trkpt lat="44.6636558" lon="9.4718651"><ele>895.0</ele><time>2026-04-18T10:29:19.261Z</time></trkpt><trkpt lat="44.6636851" lon="9.4720312"><ele>895.0</ele><time>2026-04-18T10:29:20.261Z</time></trkpt><trkpt lat="44.6636711" lon="9.4722205"><ele>893.6666666666666</ele><time>2026-04-18T10:29:21.262Z</time></trkpt><trkpt lat="44.6636322" lon="9.4724144"><ele>892.3333333333333</ele><time>2026-04-18T10:29:22.262Z</time></trkpt><trkpt lat="44.66359" lon="9.4726221"><ele>891.0</ele><time>2026-04-18T10:29:23.262Z</time></trkpt><trkpt lat="44.6635479" lon="9.4728298"><ele>890.0</ele><time>2026-04-18T10:29:24.262Z</time></trkpt><trkpt lat="44.6635124" lon="9.4730352"><ele>889.0</ele><time>2026-04-18T10:29:25.262Z</time></trkpt><trkpt lat="44.6634976" lon="9.4732445"><ele>888.0</ele><time>2026-04-18T10:29:26.263Z</time></trkpt><trkpt lat="44.6634968" lon="9.4734491"><ele>887.0</ele><time>2026-04-18T10:29:27.262Z</time></trkpt><trkpt lat="44.6634998" lon="9.4736477"><ele>885.5</ele><time>2026-04-18T10:29:28.261Z</time></trkpt><trkpt lat="44.663507" lon="9.4738394"><ele>884.0</ele><time>2026-04-18T10:29:29.261Z</time></trkpt><trkpt lat="44.6635229" lon="9.4740252"><ele>882.5</ele><time>2026-04-18T10:29:30.263Z</time></trkpt><trkpt lat="44.6635576" lon="9.4741972"><ele>881.0</ele><time>2026-04-18T10:29:31.262Z</time></trkpt><trkpt lat="44.6636082" lon="9.4743436"><ele>881.5000000000001</ele><time>2026-04-18T10:29:32.262Z</time></trkpt><trkpt lat="44.6636499" lon="9.4744673"><ele>882.0</ele><time>2026-04-18T10:29:33.262Z</time></trkpt><trkpt lat="44.6636614" lon="9.4745902"><ele>882.5</ele><time>2026-04-18T10:29:34.262Z</time></trkpt><trkpt lat="44.6636276" lon="9.4746931"><ele>883.0</ele><time>2026-04-18T10:29:35.262Z</time></trkpt><trkpt lat="44.6635667" lon="9.4747524"><ele>883.5000000000001</ele><time>2026-04-18T10:29:36.262Z</time></trkpt><trkpt lat="44.6634769" lon="9.4747038"><ele>884.0</ele><time>2026-04-18T10:29:37.262Z</time></trkpt><trkpt lat="44.6634193" lon="9.474612"><ele>883.4000000000001</ele><time>2026-04-18T10:29:38.262Z</time></trkpt><trkpt lat="44.66337" lon="9.474485"><ele>882.8000000000001</ele><time>2026-04-18T10:29:39.261Z</time></trkpt><trkpt lat="44.6633154" lon="9.4743337"><ele>882.1999999999999</ele><time>2026-04-18T10:29:40.263Z</time></trkpt><trkpt lat="44.6632681" lon="9.4741912"><ele>881.5999999999999</ele><time>2026-04-18T10:29:41.262Z</time></trkpt><trkpt lat="44.6632285" lon="9.4740538"><ele>881.0</ele><time>2026-04-18T10:29:42.262Z</time></trkpt><trkpt lat="44.6631826" lon="9.4739229"><ele>881.0000000000001</ele><time>2026-04-18T10:29:43.262Z</time></trkpt><trkpt lat="44.6631288" lon="9.4738109"><ele>881.0</ele><time>2026-04-18T10:29:44.262Z</time></trkpt><trkpt lat="44.6630562" lon="9.4737336"><ele>881.0</ele><time>2026-04-18T10:29:45.261Z</time></trkpt><trkpt lat="44.662973" lon="9.4737129"><ele>881.0</ele><time>2026-04-18T10:29:46.261Z</time></trkpt><trkpt lat="44.6628994" lon="9.4737543"><ele>881.0000000000001</ele><time>2026-04-18T10:29:47.261Z</time></trkpt><trkpt lat="44.662862" lon="9.4738545"><ele>881.0</ele><time>2026-04-18T10:29:48.263Z</time></trkpt><trkpt lat="44.6628691" lon="9.4739835"><ele>881.0</ele><time>2026-04-18T10:29:49.263Z</time></trkpt><trkpt lat="44.6629141" lon="9.4741125"><ele>881.0</ele><time>2026-04-18T10:29:50.262Z</time></trkpt><trkpt lat="44.6629738" lon="9.4742585"><ele>881.0</ele><time>2026-04-18T10:29:51.261Z</time></trkpt><trkpt lat="44.6630253" lon="9.4744185"><ele>881.0</ele><time>2026-04-18T10:29:52.263Z</time></trkpt><trkpt lat="44.6630709" lon="9.4745868"><ele>879.5</ele><time>2026-04-18T10:29:53.262Z</time></trkpt><trkpt lat="44.6631069" lon="9.4747718"><ele>878.0</ele><time>2026-04-18T10:29:54.262Z</time></trkpt><trkpt lat="44.6631433" lon="9.4749634"><ele>876.5</ele><time>2026-04-18T10:29:55.262Z</time></trkpt><trkpt lat="44.6631742" lon="9.4751531"><ele>875.0</ele><time>2026-04-18T10:29:56.261Z</time></trkpt><trkpt lat="44.6632029" lon="9.4753432"><ele>873.25</ele><time>2026-04-18T10:29:57.261Z</time></trkpt><trkpt lat="44.6632211" lon="9.4755302"><ele>871.5</ele><time>2026-04-18T10:29:58.263Z</time></trkpt><trkpt lat="44.6632288" lon="9.4757127"><ele>869.75</ele><time>2026-04-18T10:29:59.261Z</time></trkpt><trkpt lat="44.6632328" lon="9.4758795"><ele>868.0</ele><time>2026-04-18T10:30:00.261Z</time></trkpt><trkpt lat="44.6632524" lon="9.4760165"><ele>868.0</ele><time>2026-04-18T10:30:01.262Z</time></trkpt><trkpt lat="44.6633034" lon="9.4761199"><ele>868.0</ele><time>2026-04-18T10:30:02.262Z</time></trkpt><trkpt lat="44.6633811" lon="9.4761813"><ele>868.0</ele><time>2026-04-18T10:30:03.263Z</time></trkpt><trkpt lat="44.6634687" lon="9.4762035"><ele>868.0</ele><time>2026-04-18T10:30:04.263Z</time></trkpt><trkpt lat="44.6635568" lon="9.4762138"><ele>868.0</ele><time>2026-04-18T10:30:05.262Z</time></trkpt><trkpt lat="44.6636503" lon="9.4762601"><ele>870.0</ele><time>2026-04-18T10:30:06.262Z</time></trkpt><trkpt lat="44.6637305" lon="9.4763549"><ele>872.0</ele><time>2026-04-18T10:30:07.262Z</time></trkpt><trkpt lat="44.6637855" lon="9.4764762"><ele>874.0</ele><time>2026-04-18T10:30:08.261Z</time></trkpt><trkpt lat="44.6638268" lon="9.4766166"><ele>876.0</ele><time>2026-04-18T10:30:09.261Z</time></trkpt><trkpt lat="44.6638312" lon="9.4767888"><ele>878.0</ele><time>2026-04-18T10:30:10.262Z</time></trkpt><trkpt lat="44.6638098" lon="9.4769502"><ele>878.0</ele><time>2026-04-18T10:30:11.261Z</time></trkpt><trkpt lat="44.6637819" lon="9.4770928"><ele>878.0</ele><time>2026-04-18T10:30:12.261Z</time></trkpt><trkpt lat="44.6637518" lon="9.4772466"><ele>878.0</ele><time>2026-04-18T10:30:13.262Z</time></trkpt><trkpt lat="44.6637241" lon="9.4774089"><ele>878.0</ele><time>2026-04-18T10:30:14.262Z</time></trkpt><trkpt lat="44.663697" lon="9.4775689"><ele>879.2</ele><time>2026-04-18T10:30:15.262Z</time></trkpt><trkpt lat="44.6636745" lon="9.4777226"><ele>880.4</ele><time>2026-04-18T10:30:16.261Z</time></trkpt><trkpt lat="44.6636614" lon="9.4778779"><ele>881.6000000000001</ele><time>2026-04-18T10:30:17.262Z</time></trkpt><trkpt lat="44.6636551" lon="9.478032"><ele>882.8000000000001</ele><time>2026-04-18T10:30:18.262Z</time></trkpt><trkpt lat="44.6636522" lon="9.4781852"><ele>884.0</ele><time>2026-04-18T10:30:19.262Z</time></trkpt><trkpt lat="44.6636585" lon="9.4783418"><ele>884.0</ele><time>2026-04-18T10:30:20.261Z</time></trkpt><trkpt lat="44.6636695" lon="9.4784958"><ele>884.0000000000001</ele><time>2026-04-18T10:30:21.261Z</time></trkpt><trkpt lat="44.6636826" lon="9.4786428"><ele>884.0000000000001</ele><time>2026-04-18T10:30:22.262Z</time></trkpt><trkpt lat="44.6636925" lon="9.4787794"><ele>884.0</ele><time>2026-04-18T10:30:23.261Z</time></trkpt><trkpt lat="44.6636976" lon="9.4789119"><ele>884.0</ele><time>2026-04-18T10:30:24.261Z</time></trkpt><trkpt lat="44.6637075" lon="9.4790607"><ele>883.1666666666667</ele><time>2026-04-18T10:30:25.262Z</time></trkpt><trkpt lat="44.6637191" lon="9.4791982"><ele>882.3333333333334</ele><time>2026-04-18T10:30:26.262Z</time></trkpt><trkpt lat="44.6637234" lon="9.4793232"><ele>881.5</ele><time>2026-04-18T10:30:27.262Z</time></trkpt><trkpt lat="44.6637292" lon="9.4794359"><ele>880.6666666666667</ele><time>2026-04-18T10:30:28.262Z</time></trkpt><trkpt lat="44.6637581" lon="9.4795353"><ele>879.8333333333334</ele><time>2026-04-18T10:30:29.261Z</time></trkpt><trkpt lat="44.6638124" lon="9.4796108"><ele>879.0</ele><time>2026-04-18T10:30:30.262Z</time></trkpt><trkpt lat="44.6638862" lon="9.4796559"><ele>877.3333333333334</ele><time>2026-04-18T10:30:31.262Z</time></trkpt><trkpt lat="44.6639736" lon="9.4796764"><ele>875.6666666666667</ele><time>2026-04-18T10:30:32.262Z</time></trkpt><trkpt lat="44.6640625" lon="9.4796797"><ele>874.0</ele><time>2026-04-18T10:30:33.262Z</time></trkpt><trkpt lat="44.6641496" lon="9.4796704"><ele>872.3333333333334</ele><time>2026-04-18T10:30:34.262Z</time></trkpt><trkpt lat="44.6642295" lon="9.4796627"><ele>870.6666666666667</ele><time>2026-04-18T10:30:35.262Z</time></trkpt><trkpt lat="44.6643191" lon="9.4796568"><ele>869.0</ele><time>2026-04-18T10:30:36.261Z</time></trkpt><trkpt lat="44.6644019" lon="9.4796557"><ele>871.1666666666667</ele><time>2026-04-18T10:30:37.261Z</time></trkpt><trkpt lat="44.6644847" lon="9.4796671"><ele>873.3333333333334</ele><time>2026-04-18T10:30:38.262Z</time></trkpt><trkpt lat="44.6645641" lon="9.4796847"><ele>875.5</ele><time>2026-04-18T10:30:39.261Z</time></trkpt><trkpt lat="44.664638" lon="9.4797234"><ele>877.6666666666667</ele><time>2026-04-18T10:30:40.262Z</time></trkpt><trkpt lat="44.6647101" lon="9.4797614"><ele>879.8333333333334</ele><time>2026-04-18T10:30:41.263Z</time></trkpt><trkpt lat="44.6647928" lon="9.4798177"><ele>882.0</ele><time>2026-04-18T10:30:42.262Z</time></trkpt><trkpt lat="44.6648734" lon="9.4798633"><ele>882.0</ele><time>2026-04-18T10:30:43.263Z</time></trkpt><trkpt lat="44.6649554" lon="9.4798852"><ele>882.0</ele><time>2026-04-18T10:30:44.262Z</time></trkpt><trkpt lat="44.6650418" lon="9.4798675"><ele>882.0</ele><time>2026-04-18T10:30:45.262Z</time></trkpt><trkpt lat="44.6651096" lon="9.4798092"><ele>882.0</ele><time>2026-04-18T10:30:46.261Z</time></trkpt><trkpt lat="44.6651498" lon="9.4797084"><ele>882.0</ele><time>2026-04-18T10:30:47.263Z</time></trkpt><trkpt lat="44.6651457" lon="9.4795889"><ele>882.0</ele><time>2026-04-18T10:30:48.261Z</time></trkpt><trkpt lat="44.6651008" lon="9.47946"><ele>884.0</ele><time>2026-04-18T10:30:49.262Z</time></trkpt><trkpt lat="44.6650247" lon="9.4793134"><ele>886.0</ele><time>2026-04-18T10:30:50.262Z</time></trkpt><trkpt lat="44.6649448" lon="9.479181"><ele>888.0</ele><time>2026-04-18T10:30:51.263Z</time></trkpt><trkpt lat="44.6648648" lon="9.4790496"><ele>890.0</ele><time>2026-04-18T10:30:52.263Z</time></trkpt><trkpt lat="44.6647935" lon="9.4789266"><ele>890.0</ele><time>2026-04-18T10:30:53.262Z</time></trkpt><trkpt lat="44.6647236" lon="9.4787916"><ele>890.0</ele><time>2026-04-18T10:30:54.261Z</time></trkpt><trkpt lat="44.6646685" lon="9.478647"><ele>890.0</ele><time>2026-04-18T10:30:55.262Z</time></trkpt><trkpt lat="44.6646355" lon="9.4785055"><ele>890.0</ele><time>2026-04-18T10:30:56.262Z</time></trkpt><trkpt lat="44.6646424" lon="9.4783417"><ele>891.25</ele><time>2026-04-18T10:30:57.263Z</time></trkpt><trkpt lat="44.6646694" lon="9.4781712"><ele>892.5</ele><time>2026-04-18T10:30:58.261Z</time></trkpt><trkpt lat="44.6647127" lon="9.4780076"><ele>893.75</ele><time>2026-04-18T10:30:59.262Z</time></trkpt><trkpt lat="44.6647641" lon="9.4778491"><ele>895.0</ele><time>2026-04-18T10:31:00.262Z</time></trkpt><trkpt lat="44.6648347" lon="9.4777014"><ele>895.25</ele><time>2026-04-18T10:31:01.262Z</time></trkpt><trkpt lat="44.6649306" lon="9.4775815"><ele>895.5</ele><time>2026-04-18T10:31:02.263Z</time></trkpt><trkpt lat="44.6650411" lon="9.4774817"><ele>895.75</ele><time>2026-04-18T10:31:03.263Z</time></trkpt><trkpt lat="44.6651631" lon="9.4774004"><ele>896.0</ele><time>2026-04-18T10:31:04.262Z</time></trkpt><trkpt lat="44.6652807" lon="9.4773405"><ele>899.25</ele><time>2026-04-18T10:31:05.261Z</time></trkpt><trkpt lat="44.6653998" lon="9.4772965"><ele>902.5</ele><time>2026-04-18T10:31:06.262Z</time></trkpt><trkpt lat="44.6655217" lon="9.477259"><ele>905.75</ele><time>2026-04-18T10:31:07.262Z</time></trkpt><trkpt lat="44.6656463" lon="9.4772177"><ele>909.0</ele><time>2026-04-18T10:31:08.262Z</time></trkpt><trkpt lat="44.6657721" lon="9.4771456"><ele>908.75</ele><time>2026-04-18T10:31:09.261Z</time></trkpt><trkpt lat="44.6658798" lon="9.4770198"><ele>908.5</ele><time>2026-04-18T10:31:10.263Z</time></trkpt><trkpt lat="44.6659694" lon="9.4768644"><ele>908.25</ele><time>2026-04-18T10:31:11.262Z</time></trkpt><trkpt lat="44.6660503" lon="9.4767118"><ele>908.0</ele><time>2026-04-18T10:31:12.261Z</time></trkpt><trkpt lat="44.6661316" lon="9.4765732"><ele>909.25</ele><time>2026-04-18T10:31:13.262Z</time></trkpt><trkpt lat="44.6662162" lon="9.4764568"><ele>910.5</ele><time>2026-04-18T10:31:14.262Z</time></trkpt><trkpt lat="44.6663162" lon="9.476363"><ele>911.75</ele><time>2026-04-18T10:31:15.262Z</time></trkpt><trkpt lat="44.6664419" lon="9.4762742"><ele>913.0</ele><time>2026-04-18T10:31:16.262Z</time></trkpt><trkpt lat="44.6665573" lon="9.4761892"><ele>913.0</ele><time>2026-04-18T10:31:17.261Z</time></trkpt><trkpt lat="44.6666753" lon="9.4761058"><ele>913.0</ele><time>2026-04-18T10:31:18.262Z</time></trkpt><trkpt lat="44.6667796" lon="9.4760328"><ele>913.0</ele><time>2026-04-18T10:31:19.262Z</time></trkpt><trkpt lat="44.6668848" lon="9.475956"><ele>913.0</ele><time>2026-04-18T10:31:20.262Z</time></trkpt><trkpt lat="44.6669863" lon="9.4758692"><ele>916.0</ele><time>2026-04-18T10:31:21.263Z</time></trkpt><trkpt lat="44.6670752" lon="9.4757546"><ele>919.0</ele><time>2026-04-18T10:31:22.262Z</time></trkpt><trkpt lat="44.6671605" lon="9.4756368"><ele>922.0</ele><time>2026-04-18T10:31:23.262Z</time></trkpt><trkpt lat="44.66723" lon="9.4754561"><ele>925.0</ele><time>2026-04-18T10:31:24.263Z</time></trkpt><trkpt lat="44.6672427" lon="9.4752487"><ele>925.0</ele><time>2026-04-18T10:31:25.262Z</time></trkpt><trkpt lat="44.667292" lon="9.4750666"><ele>925.0</ele><time>2026-04-18T10:31:26.261Z</time></trkpt><trkpt lat="44.6673318" lon="9.4748896"><ele>925.0</ele><time>2026-04-18T10:31:27.262Z</time></trkpt><trkpt lat="44.6673728" lon="9.474714"><ele>925.0</ele><time>2026-04-18T10:31:28.262Z</time></trkpt><trkpt lat="44.6674139" lon="9.4745711"><ele>924.9999999999999</ele><time>2026-04-18T10:31:29.262Z</time></trkpt><trkpt lat="44.6674737" lon="9.4744764"><ele>925.0</ele><time>2026-04-18T10:31:30.261Z</time></trkpt><trkpt lat="44.6675489" lon="9.4744277"><ele>925.0</ele><time>2026-04-18T10:31:31.262Z</time></trkpt><trkpt lat="44.6676218" lon="9.4744392"><ele>925.0</ele><time>2026-04-18T10:31:32.262Z</time></trkpt><trkpt lat="44.6676831" lon="9.4745008"><ele>924.9999999999999</ele><time>2026-04-18T10:31:33.262Z</time></trkpt><trkpt lat="44.667718" lon="9.4746036"><ele>925.0</ele><time>2026-04-18T10:31:34.261Z</time></trkpt><trkpt lat="44.6677273" lon="9.4747417"><ele>925.0</ele><time>2026-04-18T10:31:35.262Z</time></trkpt><trkpt lat="44.6677265" lon="9.4748973"><ele>925.0</ele><time>2026-04-18T10:31:36.262Z</time></trkpt><trkpt lat="44.6677234" lon="9.475044"><ele>925.0</ele><time>2026-04-18T10:31:37.261Z</time></trkpt><trkpt lat="44.6677087" lon="9.4752115"><ele>925.0</ele><time>2026-04-18T10:31:38.262Z</time></trkpt><trkpt lat="44.6676782" lon="9.4753838"><ele>927.5</ele><time>2026-04-18T10:31:39.262Z</time></trkpt><trkpt lat="44.66764" lon="9.4755462"><ele>930.0</ele><time>2026-04-18T10:31:40.263Z</time></trkpt><trkpt lat="44.6675944" lon="9.4757086"><ele>932.5</ele><time>2026-04-18T10:31:41.262Z</time></trkpt><trkpt lat="44.6675403" lon="9.4758646"><ele>935.0</ele><time>2026-04-18T10:31:42.262Z</time></trkpt><trkpt lat="44.667481" lon="9.4760191"><ele>935.0</ele><time>2026-04-18T10:31:43.262Z</time></trkpt><trkpt lat="44.6674255" lon="9.476178"><ele>935.0</ele><time>2026-04-18T10:31:44.263Z</time></trkpt><trkpt lat="44.6673754" lon="9.4763462"><ele>935.0</ele><time>2026-04-18T10:31:45.262Z</time></trkpt><trkpt lat="44.6673228" lon="9.4765117"><ele>935.0</ele><time>2026-04-18T10:31:46.261Z</time></trkpt><trkpt lat="44.6672664" lon="9.4766761"><ele>938.25</ele><time>2026-04-18T10:31:47.261Z</time></trkpt><trkpt lat="44.6672106" lon="9.4768456"><ele>941.5</ele><time>2026-04-18T10:31:48.262Z</time></trkpt><trkpt lat="44.667154" lon="9.4770065"><ele>944.75</ele><time>2026-04-18T10:31:49.262Z</time></trkpt><trkpt lat="44.667092" lon="9.4771486"><ele>948.0</ele><time>2026-04-18T10:31:50.262Z</time></trkpt><trkpt lat="44.6670241" lon="9.4772753"><ele>946.4</ele><time>2026-04-18T10:31:51.262Z</time></trkpt><trkpt lat="44.6669533" lon="9.4773821"><ele>944.8</ele><time>2026-04-18T10:31:52.262Z</time></trkpt><trkpt lat="44.666891" lon="9.477497"><ele>943.2</ele><time>2026-04-18T10:31:53.262Z</time></trkpt><trkpt lat="44.6668519" lon="9.4776271"><ele>941.6</ele><time>2026-04-18T10:31:54.262Z</time></trkpt><trkpt lat="44.666843" lon="9.4777908"><ele>940.0</ele><time>2026-04-18T10:31:55.262Z</time></trkpt><trkpt lat="44.6668435" lon="9.4779364"><ele>940.0</ele><time>2026-04-18T10:31:56.261Z</time></trkpt><trkpt lat="44.6668551" lon="9.4780561"><ele>940.0</ele><time>2026-04-18T10:31:57.261Z</time></trkpt><trkpt lat="44.6668987" lon="9.4781448"><ele>940.0</ele><time>2026-04-18T10:31:58.261Z</time></trkpt><trkpt lat="44.6670155" lon="9.4781388"><ele>940.0</ele><time>2026-04-18T10:32:00.262Z</time></trkpt><trkpt lat="44.6670511" lon="9.4780463"><ele>940.0</ele><time>2026-04-18T10:32:01.261Z</time></trkpt><trkpt lat="44.6670649" lon="9.4779098"><ele>944.2</ele><time>2026-04-18T10:32:02.261Z</time></trkpt><trkpt lat="44.6670714" lon="9.477765"><ele>948.4</ele><time>2026-04-18T10:32:03.261Z</time></trkpt><trkpt lat="44.6671099" lon="9.4776308"><ele>952.5999999999999</ele><time>2026-04-18T10:32:04.261Z</time></trkpt><trkpt lat="44.6671755" lon="9.4774961"><ele>956.8</ele><time>2026-04-18T10:32:05.261Z</time></trkpt><trkpt lat="44.6672464" lon="9.4773681"><ele>961.0</ele><time>2026-04-18T10:32:06.262Z</time></trkpt><trkpt lat="44.6673184" lon="9.4772427"><ele>961.0</ele><time>2026-04-18T10:32:07.262Z</time></trkpt><trkpt lat="44.6673958" lon="9.4771192"><ele>961.0</ele><time>2026-04-18T10:32:08.263Z</time></trkpt><trkpt lat="44.6674801" lon="9.4770037"><ele>961.0</ele><time>2026-04-18T10:32:09.263Z</time></trkpt><trkpt lat="44.6675732" lon="9.4769106"><ele>961.0</ele><time>2026-04-18T10:32:10.262Z</time></trkpt><trkpt lat="44.667675" lon="9.4768265"><ele>963.75</ele><time>2026-04-18T10:32:11.262Z</time></trkpt><trkpt lat="44.6677815" lon="9.476729"><ele>966.5</ele><time>2026-04-18T10:32:12.262Z</time></trkpt><trkpt lat="44.667889" lon="9.4766409"><ele>969.25</ele><time>2026-04-18T10:32:13.262Z</time></trkpt><trkpt lat="44.6680007" lon="9.4765598"><ele>972.0</ele><time>2026-04-18T10:32:14.262Z</time></trkpt><trkpt lat="44.668108" lon="9.4764633"><ele>972.0</ele><time>2026-04-18T10:32:15.262Z</time></trkpt><trkpt lat="44.6681938" lon="9.4763424"><ele>972.0</ele><time>2026-04-18T10:32:16.262Z</time></trkpt><trkpt lat="44.6682683" lon="9.476208"><ele>972.0</ele><time>2026-04-18T10:32:17.261Z</time></trkpt><trkpt lat="44.6683371" lon="9.4760767"><ele>972.0</ele><time>2026-04-18T10:32:18.262Z</time></trkpt><trkpt lat="44.668448" lon="9.4759833"><ele>973.75</ele><time>2026-04-18T10:32:19.261Z</time></trkpt><trkpt lat="44.668554" lon="9.475884"><ele>975.5</ele><time>2026-04-18T10:32:20.263Z</time></trkpt><trkpt lat="44.6686493" lon="9.4757735"><ele>977.25</ele><time>2026-04-18T10:32:21.263Z</time></trkpt><trkpt lat="44.6687406" lon="9.4756626"><ele>979.0</ele><time>2026-04-18T10:32:22.262Z</time></trkpt><trkpt lat="44.6688404" lon="9.4755704"><ele>979.0</ele><time>2026-04-18T10:32:23.262Z</time></trkpt><trkpt lat="44.6689528" lon="9.4755183"><ele>979.0</ele><time>2026-04-18T10:32:24.262Z</time></trkpt><trkpt lat="44.6690907" lon="9.475486"><ele>979.0</ele><time>2026-04-18T10:32:25.262Z</time></trkpt><trkpt lat="44.6692226" lon="9.4754604"><ele>979.0</ele><time>2026-04-18T10:32:26.262Z</time></trkpt><trkpt lat="44.66934" lon="9.4754367"><ele>980.0</ele><time>2026-04-18T10:32:27.262Z</time></trkpt><trkpt lat="44.6694534" lon="9.4754101"><ele>981.0</ele><time>2026-04-18T10:32:28.262Z</time></trkpt><trkpt lat="44.669568" lon="9.4753751"><ele>982.0</ele><time>2026-04-18T10:32:29.262Z</time></trkpt><trkpt lat="44.6696953" lon="9.4753235"><ele>983.0</ele><time>2026-04-18T10:32:30.262Z</time></trkpt><trkpt lat="44.6698013" lon="9.4752689"><ele>983.0</ele><time>2026-04-18T10:32:31.261Z</time></trkpt><trkpt lat="44.6699048" lon="9.4752059"><ele>983.0</ele><time>2026-04-18T10:32:32.262Z</time></trkpt><trkpt lat="44.6700049" lon="9.4751444"><ele>983.0</ele><time>2026-04-18T10:32:33.263Z</time></trkpt><trkpt lat="44.670099" lon="9.4750771"><ele>983.0</ele><time>2026-04-18T10:32:34.262Z</time></trkpt><trkpt lat="44.6701671" lon="9.4749912"><ele>983.0</ele><time>2026-04-18T10:32:35.261Z</time></trkpt><trkpt lat="44.6702108" lon="9.4748756"><ele>983.0</ele><time>2026-04-18T10:32:36.261Z</time></trkpt><trkpt lat="44.6702352" lon="9.4747175"><ele>983.0</ele><time>2026-04-18T10:32:37.262Z</time></trkpt><trkpt lat="44.6702346" lon="9.4745542"><ele>983.0</ele><time>2026-04-18T10:32:38.262Z</time></trkpt><trkpt lat="44.6702425" lon="9.4744049"><ele>983.0</ele><time>2026-04-18T10:32:39.261Z</time></trkpt><trkpt lat="44.6702737" lon="9.4742642"><ele>983.0</ele><time>2026-04-18T10:32:40.261Z</time></trkpt><trkpt lat="44.6703333" lon="9.4741358"><ele>984.75</ele><time>2026-04-18T10:32:41.263Z</time></trkpt><trkpt lat="44.6704249" lon="9.4740443"><ele>986.5</ele><time>2026-04-18T10:32:42.263Z</time></trkpt><trkpt lat="44.6705399" lon="9.4739858"><ele>988.25</ele><time>2026-04-18T10:32:43.263Z</time></trkpt><trkpt lat="44.6706577" lon="9.4739441"><ele>990.0</ele><time>2026-04-18T10:32:44.262Z</time></trkpt><trkpt lat="44.6707738" lon="9.4739021"><ele>990.0</ele><time>2026-04-18T10:32:45.263Z</time></trkpt><trkpt lat="44.6708888" lon="9.4738658"><ele>990.0</ele><time>2026-04-18T10:32:46.262Z</time></trkpt><trkpt lat="44.6710029" lon="9.4738466"><ele>990.0</ele><time>2026-04-18T10:32:47.261Z</time></trkpt><trkpt lat="44.6711172" lon="9.4738515"><ele>990.0</ele><time>2026-04-18T10:32:48.263Z</time></trkpt><trkpt lat="44.6712273" lon="9.473871"><ele>992.5</ele><time>2026-04-18T10:32:49.262Z</time></trkpt><trkpt lat="44.6713368" lon="9.4738934"><ele>995.0</ele><time>2026-04-18T10:32:50.262Z</time></trkpt><trkpt lat="44.6714454" lon="9.4739106"><ele>997.5</ele><time>2026-04-18T10:32:51.262Z</time></trkpt><trkpt lat="44.6715543" lon="9.4739431"><ele>1000.0</ele><time>2026-04-18T10:32:52.262Z</time></trkpt><trkpt lat="44.6716779" lon="9.4739894"><ele>1000.0</ele><time>2026-04-18T10:32:53.263Z</time></trkpt><trkpt lat="44.6718173" lon="9.4740101"><ele>1000.0</ele><time>2026-04-18T10:32:54.263Z</time></trkpt><trkpt lat="44.6719307" lon="9.4740049"><ele>1000.0</ele><time>2026-04-18T10:32:55.262Z</time></trkpt><trkpt lat="44.6720382" lon="9.4739523"><ele>1000.0</ele><time>2026-04-18T10:32:56.262Z</time></trkpt><trkpt lat="44.6721314" lon="9.4738585"><ele>998.8</ele><time>2026-04-18T10:32:57.261Z</time></trkpt><trkpt lat="44.6722137" lon="9.4737618"><ele>997.6</ele><time>2026-04-18T10:32:58.261Z</time></trkpt><trkpt lat="44.6722821" lon="9.4736729"><ele>996.4000000000001</ele><time>2026-04-18T10:32:59.262Z</time></trkpt><trkpt lat="44.6723518" lon="9.4735896"><ele>995.2</ele><time>2026-04-18T10:33:00.262Z</time></trkpt><trkpt lat="44.6724412" lon="9.4735367"><ele>994.0</ele><time>2026-04-18T10:33:01.262Z</time></trkpt><trkpt lat="44.6725329" lon="9.4735309"><ele>994.0</ele><time>2026-04-18T10:33:02.261Z</time></trkpt><trkpt lat="44.6726172" lon="9.4735619"><ele>994.0000000000001</ele><time>2026-04-18T10:33:03.261Z</time></trkpt><trkpt lat="44.6726887" lon="9.4736323"><ele>994.0000000000001</ele><time>2026-04-18T10:33:04.261Z</time></trkpt><trkpt lat="44.672732" lon="9.4737339"><ele>994.0</ele><time>2026-04-18T10:33:05.263Z</time></trkpt><trkpt lat="44.6727409" lon="9.4738654"><ele>994.0</ele><time>2026-04-18T10:33:06.263Z</time></trkpt><trkpt lat="44.6727441" lon="9.4740096"><ele>996.2</ele><time>2026-04-18T10:33:07.262Z</time></trkpt><trkpt lat="44.6727518" lon="9.4741448"><ele>998.4000000000001</ele><time>2026-04-18T10:33:08.261Z</time></trkpt><trkpt lat="44.6727418" lon="9.4742807"><ele>1000.6</ele><time>2026-04-18T10:33:09.263Z</time></trkpt><trkpt lat="44.6727017" lon="9.4743905"><ele>1002.8</ele><time>2026-04-18T10:33:10.261Z</time></trkpt><trkpt lat="44.6726361" lon="9.4744806"><ele>1005.0</ele><time>2026-04-18T10:33:11.262Z</time></trkpt><trkpt lat="44.6725529" lon="9.4745408"><ele>1005.0</ele><time>2026-04-18T10:33:12.262Z</time></trkpt><trkpt lat="44.6724573" lon="9.4745766"><ele>1005.0</ele><time>2026-04-18T10:33:13.262Z</time></trkpt><trkpt lat="44.6723552" lon="9.4746045"><ele>1005.0</ele><time>2026-04-18T10:33:14.261Z</time></trkpt><trkpt lat="44.672254" lon="9.4746374"><ele>1005.0</ele><time>2026-04-18T10:33:15.261Z</time></trkpt><trkpt lat="44.6721544" lon="9.4746787"><ele>1005.0</ele><time>2026-04-18T10:33:16.263Z</time></trkpt><trkpt lat="44.6720544" lon="9.4747287"><ele>1007.0</ele><time>2026-04-18T10:33:17.262Z</time></trkpt><trkpt lat="44.671955" lon="9.4747867"><ele>1009.0</ele><time>2026-04-18T10:33:18.261Z</time></trkpt><trkpt lat="44.6718579" lon="9.4748621"><ele>1011.0</ele><time>2026-04-18T10:33:19.262Z</time></trkpt><trkpt lat="44.6717666" lon="9.4749521"><ele>1013.0</ele><time>2026-04-18T10:33:20.262Z</time></trkpt><trkpt lat="44.6716707" lon="9.4750375"><ele>1015.0</ele><time>2026-04-18T10:33:21.261Z</time></trkpt><trkpt lat="44.6715671" lon="9.4750991"><ele>1015.0</ele><time>2026-04-18T10:33:22.262Z</time></trkpt><trkpt lat="44.6714741" lon="9.4751455"><ele>1015.0</ele><time>2026-04-18T10:33:23.261Z</time></trkpt><trkpt lat="44.6713918" lon="9.4752053"><ele>1015.0</ele><time>2026-04-18T10:33:24.262Z</time></trkpt><trkpt lat="44.6713251" lon="9.4752864"><ele>1015.0</ele><time>2026-04-18T10:33:25.262Z</time></trkpt><trkpt lat="44.6712703" lon="9.4753828"><ele>1015.0</ele><time>2026-04-18T10:33:26.262Z</time></trkpt><trkpt lat="44.6712213" lon="9.4754823"><ele>1014.8333333333333</ele><time>2026-04-18T10:33:27.262Z</time></trkpt><trkpt lat="44.6711739" lon="9.4755823"><ele>1014.6666666666666</ele><time>2026-04-18T10:33:28.262Z</time></trkpt><trkpt lat="44.6711262" lon="9.4756866"><ele>1014.5</ele><time>2026-04-18T10:33:29.262Z</time></trkpt><trkpt lat="44.6710709" lon="9.4757896"><ele>1014.3333333333333</ele><time>2026-04-18T10:33:30.262Z</time></trkpt><trkpt lat="44.6710124" lon="9.4758843"><ele>1014.1666666666666</ele><time>2026-04-18T10:33:31.261Z</time></trkpt><trkpt lat="44.6709597" lon="9.4759773"><ele>1014.0</ele><time>2026-04-18T10:33:32.261Z</time></trkpt><trkpt lat="44.6709266" lon="9.4760707"><ele>1014.0</ele><time>2026-04-18T10:33:33.261Z</time></trkpt><trkpt lat="44.6709133" lon="9.476179"><ele>1014.0</ele><time>2026-04-18T10:33:34.262Z</time></trkpt><trkpt lat="44.6709146" lon="9.4762985"><ele>1014.0</ele><time>2026-04-18T10:33:35.262Z</time></trkpt><trkpt lat="44.6709248" lon="9.4764121"><ele>1014.0</ele><time>2026-04-18T10:33:36.263Z</time></trkpt><trkpt lat="44.6709376" lon="9.4765335"><ele>1014.0</ele><time>2026-04-18T10:33:37.262Z</time></trkpt><trkpt lat="44.6709551" lon="9.4766399"><ele>1014.0</ele><time>2026-04-18T10:33:38.262Z</time></trkpt><trkpt lat="44.6709802" lon="9.4767464"><ele>1015.8333333333334</ele><time>2026-04-18T10:33:39.262Z</time></trkpt><trkpt lat="44.6710069" lon="9.4768342"><ele>1017.6666666666667</ele><time>2026-04-18T10:33:40.262Z</time></trkpt><trkpt lat="44.6711044" lon="9.4768811"><ele>1019.5</ele><time>2026-04-18T10:33:41.261Z</time></trkpt><trkpt lat="44.6711781" lon="9.476931"><ele>1021.3333333333334</ele><time>2026-04-18T10:33:42.261Z</time></trkpt><trkpt lat="44.6712392" lon="9.4770272"><ele>1023.1666666666667</ele><time>2026-04-18T10:33:44.262Z</time></trkpt><trkpt lat="44.6711964" lon="9.4771246"><ele>1025.0</ele><time>2026-04-18T10:33:46.262Z</time></trkpt><trkpt lat="44.6711395" lon="9.4771824"><ele>1025.7142857142856</ele><time>2026-04-18T10:33:47.262Z</time></trkpt><trkpt lat="44.6710868" lon="9.4772606"><ele>1026.4285714285713</ele><time>2026-04-18T10:33:48.263Z</time></trkpt><trkpt lat="44.6710497" lon="9.4773365"><ele>1027.142857142857</ele><time>2026-04-18T10:33:49.262Z</time></trkpt><trkpt lat="44.6710096" lon="9.4774148"><ele>1027.8571428571427</ele><time>2026-04-18T10:33:50.262Z</time></trkpt><trkpt lat="44.6709556" lon="9.4774836"><ele>1028.5714285714284</ele><time>2026-04-18T10:33:51.263Z</time></trkpt><trkpt lat="44.6708901" lon="9.4775364"><ele>1029.2857142857142</ele><time>2026-04-18T10:33:52.262Z</time></trkpt><trkpt lat="44.6708276" lon="9.4775705"><ele>1030.0</ele><time>2026-04-18T10:33:53.263Z</time></trkpt><trkpt lat="44.6707618" lon="9.4776202"><ele>1030.0</ele><time>2026-04-18T10:33:54.262Z</time></trkpt><trkpt lat="44.6706987" lon="9.4776906"><ele>1030.0</ele><time>2026-04-18T10:33:55.261Z</time></trkpt><trkpt lat="44.6706512" lon="9.4777684"><ele>1030.0</ele><time>2026-04-18T10:33:56.262Z</time></trkpt><trkpt lat="44.6706156" lon="9.4778524"><ele>1030.0</ele><time>2026-04-18T10:33:57.262Z</time></trkpt><trkpt lat="44.6705847" lon="9.4779705"><ele>1030.0</ele><time>2026-04-18T10:33:58.262Z</time></trkpt><trkpt lat="44.6705535" lon="9.4780975"><ele>1030.0</ele><time>2026-04-18T10:33:59.262Z</time></trkpt><trkpt lat="44.6705284" lon="9.4782164"><ele>1030.6666666666665</ele><time>2026-04-18T10:34:00.262Z</time></trkpt><trkpt lat="44.6705033" lon="9.4783438"><ele>1031.3333333333333</ele><time>2026-04-18T10:34:01.262Z</time></trkpt><trkpt lat="44.6704918" lon="9.4784754"><ele>1032.0</ele><time>2026-04-18T10:34:02.262Z</time></trkpt><trkpt lat="44.6704875" lon="9.4786046"><ele>1032.6666666666667</ele><time>2026-04-18T10:34:03.262Z</time></trkpt><trkpt lat="44.670487" lon="9.4787179"><ele>1033.3333333333335</ele><time>2026-04-18T10:34:04.262Z</time></trkpt><trkpt lat="44.6704917" lon="9.478834"><ele>1034.0</ele><time>2026-04-18T10:34:05.261Z</time></trkpt><trkpt lat="44.6704953" lon="9.4789436"><ele>1035.1666666666667</ele><time>2026-04-18T10:34:06.261Z</time></trkpt><trkpt lat="44.6704989" lon="9.4790454"><ele>1036.3333333333335</ele><time>2026-04-18T10:34:07.262Z</time></trkpt><trkpt lat="44.670501" lon="9.4791372"><ele>1037.5</ele><time>2026-04-18T10:34:08.262Z</time></trkpt><trkpt lat="44.6705193" lon="9.4792361"><ele>1038.6666666666667</ele><time>2026-04-18T10:34:10.262Z</time></trkpt><trkpt lat="44.670574" lon="9.4793017"><ele>1039.8333333333333</ele><time>2026-04-18T10:37:15.262Z</time></trkpt><trkpt lat="44.6706647" lon="9.4793433"><ele>1041.0</ele><time>2026-04-18T10:37:17.261Z</time></trkpt><trkpt lat="44.67078" lon="9.4794267"><ele>1041.0</ele><time>2026-04-18T10:37:19.262Z</time></trkpt><trkpt lat="44.6708626" lon="9.4795638"><ele>1041.0</ele><time>2026-04-18T10:37:21.262Z</time></trkpt><trkpt lat="44.6708901" lon="9.4796584"><ele>1041.0</ele><time>2026-04-18T10:37:22.262Z</time></trkpt><trkpt lat="44.6709073" lon="9.4797564"><ele>1041.0</ele><time>2026-04-18T10:37:23.262Z</time></trkpt><trkpt lat="44.670924" lon="9.4798642"><ele>1041.0</ele><time>2026-04-18T10:37:24.262Z</time></trkpt><trkpt lat="44.6709394" lon="9.4799716"><ele>1041.0</ele><time>2026-04-18T10:37:25.262Z</time></trkpt><trkpt lat="44.6709558" lon="9.4800974"><ele>1042.2</ele><time>2026-04-18T10:37:26.261Z</time></trkpt><trkpt lat="44.6709686" lon="9.4802285"><ele>1043.3999999999999</ele><time>2026-04-18T10:37:27.263Z</time></trkpt><trkpt lat="44.6709971" lon="9.4803648"><ele>1044.6</ele><time>2026-04-18T10:37:28.262Z</time></trkpt><trkpt lat="44.6710495" lon="9.4804842"><ele>1045.8</ele><time>2026-04-18T10:37:29.261Z</time></trkpt><trkpt lat="44.6711172" lon="9.480594"><ele>1047.0</ele><time>2026-04-18T10:37:30.262Z</time></trkpt><trkpt lat="44.6711884" lon="9.4806925"><ele>1050.6</ele><time>2026-04-18T10:37:31.262Z</time></trkpt><trkpt lat="44.6712621" lon="9.4807592"><ele>1054.2</ele><time>2026-04-18T10:37:32.262Z</time></trkpt><trkpt lat="44.6713514" lon="9.4807961"><ele>1057.8</ele><time>2026-04-18T10:37:33.262Z</time></trkpt><trkpt lat="44.6714419" lon="9.4808216"><ele>1061.4</ele><time>2026-04-18T10:37:34.261Z</time></trkpt><trkpt lat="44.6715364" lon="9.4808826"><ele>1065.0</ele><time>2026-04-18T10:37:35.262Z</time></trkpt><trkpt lat="44.671629" lon="9.4810137"><ele>1065.0</ele><time>2026-04-18T10:37:36.262Z</time></trkpt><trkpt lat="44.671727" lon="9.4811599"><ele>1065.0</ele><time>2026-04-18T10:37:37.262Z</time></trkpt><trkpt lat="44.671861" lon="9.4813095"><ele>1065.0</ele><time>2026-04-18T10:37:38.263Z</time></trkpt><trkpt lat="44.6719883" lon="9.4814226"><ele>1067.0</ele><time>2026-04-18T10:37:39.262Z</time></trkpt><trkpt lat="44.6721074" lon="9.4815331"><ele>1069.0</ele><time>2026-04-18T10:37:40.261Z</time></trkpt><trkpt lat="44.6722218" lon="9.4816548"><ele>1071.0</ele><time>2026-04-18T10:37:41.262Z</time></trkpt><trkpt lat="44.6723093" lon="9.4817729"><ele>1073.0</ele><time>2026-04-18T10:37:42.263Z</time></trkpt><trkpt lat="44.6723872" lon="9.481909"><ele>1073.0</ele><time>2026-04-18T10:37:43.261Z</time></trkpt><trkpt lat="44.6724516" lon="9.4820331"><ele>1073.0</ele><time>2026-04-18T10:37:44.262Z</time></trkpt><trkpt lat="44.6725244" lon="9.4821451"><ele>1073.0</ele><time>2026-04-18T10:37:45.262Z</time></trkpt><trkpt lat="44.6726087" lon="9.4822403"><ele>1073.0</ele><time>2026-04-18T10:37:46.261Z</time></trkpt><trkpt lat="44.6727276" lon="9.482335"><ele>1075.25</ele><time>2026-04-18T10:37:47.262Z</time></trkpt><trkpt lat="44.6728701" lon="9.4824173"><ele>1077.5</ele><time>2026-04-18T10:37:48.263Z</time></trkpt><trkpt lat="44.6730058" lon="9.482482"><ele>1079.75</ele><time>2026-04-18T10:37:49.262Z</time></trkpt><trkpt lat="44.6731399" lon="9.4825182"><ele>1082.0</ele><time>2026-04-18T10:37:50.262Z</time></trkpt><trkpt lat="44.6732562" lon="9.4825563"><ele>1082.0</ele><time>2026-04-18T10:37:51.261Z</time></trkpt><trkpt lat="44.6733519" lon="9.4826491"><ele>1082.0</ele><time>2026-04-18T10:37:52.261Z</time></trkpt><trkpt lat="44.67343" lon="9.4827488"><ele>1082.0</ele><time>2026-04-18T10:37:53.262Z</time></trkpt><trkpt lat="44.6735204" lon="9.4828112"><ele>1082.0</ele><time>2026-04-18T10:37:54.262Z</time></trkpt><trkpt lat="44.673637" lon="9.4828785"><ele>1082.0</ele><time>2026-04-18T10:37:55.262Z</time></trkpt><trkpt lat="44.6737557" lon="9.4829547"><ele>1086.75</ele><time>2026-04-18T10:37:56.261Z</time></trkpt><trkpt lat="44.6738706" lon="9.4829963"><ele>1091.5</ele><time>2026-04-18T10:37:57.261Z</time></trkpt><trkpt lat="44.6739984" lon="9.4829992"><ele>1096.25</ele><time>2026-04-18T10:37:58.263Z</time></trkpt><trkpt lat="44.6741296" lon="9.4829849"><ele>1101.0</ele><time>2026-04-18T10:37:59.262Z</time></trkpt><trkpt lat="44.6742561" lon="9.4829745"><ele>1101.0</ele><time>2026-04-18T10:38:00.262Z</time></trkpt><trkpt lat="44.6743988" lon="9.4829807"><ele>1101.0</ele><time>2026-04-18T10:38:01.262Z</time></trkpt><trkpt lat="44.6745181" lon="9.482998"><ele>1101.0</ele><time>2026-04-18T10:38:02.262Z</time></trkpt><trkpt lat="44.6746359" lon="9.4829883"><ele>1101.0</ele><time>2026-04-18T10:38:03.261Z</time></trkpt><trkpt lat="44.6747608" lon="9.4829432"><ele>1102.75</ele><time>2026-04-18T10:38:04.262Z</time></trkpt><trkpt lat="44.6748891" lon="9.4828814"><ele>1104.5</ele><time>2026-04-18T10:38:05.262Z</time></trkpt><trkpt lat="44.6750074" lon="9.4828215"><ele>1106.25</ele><time>2026-04-18T10:38:06.263Z</time></trkpt><trkpt lat="44.6751266" lon="9.4828125"><ele>1108.0</ele><time>2026-04-18T10:38:07.262Z</time></trkpt><trkpt lat="44.6752474" lon="9.4828621"><ele>1109.75</ele><time>2026-04-18T10:38:08.263Z</time></trkpt><trkpt lat="44.6753767" lon="9.4829442"><ele>1111.5</ele><time>2026-04-18T10:38:09.261Z</time></trkpt><trkpt lat="44.6755131" lon="9.4830119"><ele>1113.25</ele><time>2026-04-18T10:38:10.263Z</time></trkpt><trkpt lat="44.6756545" lon="9.4830494"><ele>1115.0</ele><time>2026-04-18T10:38:11.262Z</time></trkpt><trkpt lat="44.6757939" lon="9.4830792"><ele>1115.0</ele><time>2026-04-18T10:38:12.262Z</time></trkpt><trkpt lat="44.6759402" lon="9.483117"><ele>1115.0</ele><time>2026-04-18T10:38:13.261Z</time></trkpt><trkpt lat="44.6760971" lon="9.4831615"><ele>1115.0</ele><time>2026-04-18T10:38:14.263Z</time></trkpt><trkpt lat="44.6762541" lon="9.4832052"><ele>1117.0</ele><time>2026-04-18T10:38:15.262Z</time></trkpt><trkpt lat="44.6764268" lon="9.4832468"><ele>1119.0</ele><time>2026-04-18T10:38:16.262Z</time></trkpt><trkpt lat="44.6765884" lon="9.4832752"><ele>1121.0</ele><time>2026-04-18T10:38:17.262Z</time></trkpt><trkpt lat="44.6767313" lon="9.4832863"><ele>1121.0</ele><time>2026-04-18T10:38:18.262Z</time></trkpt><trkpt lat="44.676874" lon="9.4833084"><ele>1121.0</ele><time>2026-04-18T10:38:19.262Z</time></trkpt><trkpt lat="44.6770244" lon="9.4833431"><ele>1121.0</ele><time>2026-04-18T10:38:20.261Z</time></trkpt><trkpt lat="44.6771774" lon="9.4833992"><ele>1124.0</ele><time>2026-04-18T10:38:21.262Z</time></trkpt><trkpt lat="44.6773301" lon="9.4834429"><ele>1127.0</ele><time>2026-04-18T10:38:22.262Z</time></trkpt><trkpt lat="44.6774857" lon="9.4834564"><ele>1130.0</ele><time>2026-04-18T10:38:23.262Z</time></trkpt><trkpt lat="44.6776297" lon="9.4835026"><ele>1130.0</ele><time>2026-04-18T10:38:24.262Z</time></trkpt><trkpt lat="44.6777574" lon="9.4835604"><ele>1130.0</ele><time>2026-04-18T10:38:25.261Z</time></trkpt><trkpt lat="44.6778693" lon="9.4836461"><ele>1130.0</ele><time>2026-04-18T10:38:26.262Z</time></trkpt><trkpt lat="44.6779723" lon="9.483755"><ele>1130.0</ele><time>2026-04-18T10:38:27.263Z</time></trkpt><trkpt lat="44.6780696" lon="9.4838841"><ele>1131.2</ele><time>2026-04-18T10:38:28.263Z</time></trkpt><trkpt lat="44.6781489" lon="9.4840131"><ele>1132.4</ele><time>2026-04-18T10:38:29.262Z</time></trkpt><trkpt lat="44.6782222" lon="9.4841349"><ele>1133.6</ele><time>2026-04-18T10:38:30.261Z</time></trkpt><trkpt lat="44.678297" lon="9.4842451"><ele>1134.8</ele><time>2026-04-18T10:38:31.261Z</time></trkpt><trkpt lat="44.6783776" lon="9.4843281"><ele>1136.0</ele><time>2026-04-18T10:38:32.262Z</time></trkpt><trkpt lat="44.6784736" lon="9.4843919"><ele>1136.0</ele><time>2026-04-18T10:38:33.263Z</time></trkpt><trkpt lat="44.6785785" lon="9.4844388"><ele>1136.0</ele><time>2026-04-18T10:38:34.262Z</time></trkpt><trkpt lat="44.6786897" lon="9.4844746"><ele>1136.0</ele><time>2026-04-18T10:38:35.262Z</time></trkpt><trkpt lat="44.6788049" lon="9.4845178"><ele>1136.0</ele><time>2026-04-18T10:38:36.261Z</time></trkpt><trkpt lat="44.6789102" lon="9.484584"><ele>1138.25</ele><time>2026-04-18T10:38:37.262Z</time></trkpt><trkpt lat="44.6790087" lon="9.484682"><ele>1140.5</ele><time>2026-04-18T10:38:38.263Z</time></trkpt><trkpt lat="44.6791034" lon="9.48481"><ele>1142.75</ele><time>2026-04-18T10:38:39.262Z</time></trkpt><trkpt lat="44.6791949" lon="9.484959"><ele>1145.0</ele><time>2026-04-18T10:38:40.263Z</time></trkpt><trkpt lat="44.679283" lon="9.4851178"><ele>1145.0</ele><time>2026-04-18T10:38:41.262Z</time></trkpt><trkpt lat="44.679361" lon="9.4852809"><ele>1145.0</ele><time>2026-04-18T10:38:42.262Z</time></trkpt><trkpt lat="44.6794378" lon="9.4854446"><ele>1145.0</ele><time>2026-04-18T10:38:43.262Z</time></trkpt><trkpt lat="44.6795146" lon="9.4856065"><ele>1145.0</ele><time>2026-04-18T10:38:44.262Z</time></trkpt><trkpt lat="44.6795939" lon="9.4857706"><ele>1148.5</ele><time>2026-04-18T10:38:45.262Z</time></trkpt><trkpt lat="44.6796727" lon="9.4859356"><ele>1152.0</ele><time>2026-04-18T10:38:46.261Z</time></trkpt><trkpt lat="44.6797487" lon="9.4861057"><ele>1155.5</ele><time>2026-04-18T10:38:47.263Z</time></trkpt><trkpt lat="44.6798233" lon="9.4862794"><ele>1159.0</ele><time>2026-04-18T10:38:48.262Z</time></trkpt><trkpt lat="44.6799026" lon="9.4864538"><ele>1160.5</ele><time>2026-04-18T10:38:49.262Z</time></trkpt><trkpt lat="44.6799899" lon="9.4866251"><ele>1162.0</ele><time>2026-04-18T10:38:50.261Z</time></trkpt><trkpt lat="44.680083" lon="9.4867884"><ele>1163.5</ele><time>2026-04-18T10:38:51.262Z</time></trkpt><trkpt lat="44.6801849" lon="9.4869392"><ele>1165.0</ele><time>2026-04-18T10:38:52.262Z</time></trkpt><trkpt lat="44.6802904" lon="9.4870852"><ele>1170.0</ele><time>2026-04-18T10:38:53.263Z</time></trkpt><trkpt lat="44.6803851" lon="9.4872393"><ele>1175.0</ele><time>2026-04-18T10:38:54.262Z</time></trkpt><trkpt lat="44.6804668" lon="9.4874041"><ele>1180.0</ele><time>2026-04-18T10:38:55.262Z</time></trkpt><trkpt lat="44.6805387" lon="9.4875676"><ele>1185.0</ele><time>2026-04-18T10:38:56.262Z</time></trkpt><trkpt lat="44.680598" lon="9.4877423"><ele>1186.6</ele><time>2026-04-18T10:38:57.261Z</time></trkpt><trkpt lat="44.680623" lon="9.4879271"><ele>1188.2</ele><time>2026-04-18T10:38:58.262Z</time></trkpt><trkpt lat="44.6806044" lon="9.4880895"><ele>1189.8</ele><time>2026-04-18T10:38:59.262Z</time></trkpt><trkpt lat="44.6805703" lon="9.4882153"><ele>1191.4</ele><time>2026-04-18T10:39:00.262Z</time></trkpt><trkpt lat="44.680548" lon="9.4883359"><ele>1193.0</ele><time>2026-04-18T10:39:01.261Z</time></trkpt><trkpt lat="44.6805568" lon="9.4884653"><ele>1193.0</ele><time>2026-04-18T10:39:02.261Z</time></trkpt><trkpt lat="44.6806007" lon="9.4885647"><ele>1193.0</ele><time>2026-04-18T10:39:03.262Z</time></trkpt><trkpt lat="44.6806748" lon="9.4886347"><ele>1193.0</ele><time>2026-04-18T10:39:04.261Z</time></trkpt><trkpt lat="44.6807636" lon="9.4886785"><ele>1193.0</ele><time>2026-04-18T10:39:05.263Z</time></trkpt><trkpt lat="44.6808398" lon="9.4887293"><ele>1193.0</ele><time>2026-04-18T10:39:06.262Z</time></trkpt><trkpt lat="44.6809002" lon="9.4887991"><ele>1193.0</ele><time>2026-04-18T10:39:07.261Z</time></trkpt><trkpt lat="44.6809506" lon="9.4888895"><ele>1193.5</ele><time>2026-04-18T10:39:08.262Z</time></trkpt><trkpt lat="44.6809948" lon="9.488989"><ele>1194.0</ele><time>2026-04-18T10:39:09.262Z</time></trkpt><trkpt lat="44.6810564" lon="9.4890625"><ele>1194.5</ele><time>2026-04-18T10:39:10.262Z</time></trkpt><trkpt lat="44.6811329" lon="9.4890898"><ele>1195.0</ele><time>2026-04-18T10:39:11.262Z</time></trkpt><trkpt lat="44.6812231" lon="9.4890743"><ele>1195.5</ele><time>2026-04-18T10:39:12.261Z</time></trkpt><trkpt lat="44.6813196" lon="9.489031"><ele>1196.0</ele><time>2026-04-18T10:39:13.261Z</time></trkpt><trkpt lat="44.6814093" lon="9.4889933"><ele>1193.8</ele><time>2026-04-18T10:39:14.262Z</time></trkpt><trkpt lat="44.6814886" lon="9.4889981"><ele>1191.6</ele><time>2026-04-18T10:39:15.262Z</time></trkpt><trkpt lat="44.6815649" lon="9.4890597"><ele>1189.4</ele><time>2026-04-18T10:39:16.262Z</time></trkpt><trkpt lat="44.6816384" lon="9.4891612"><ele>1187.2</ele><time>2026-04-18T10:39:17.262Z</time></trkpt><trkpt lat="44.6817109" lon="9.4892736"><ele>1185.0</ele><time>2026-04-18T10:39:18.262Z</time></trkpt><trkpt lat="44.6817868" lon="9.4893859"><ele>1185.0</ele><time>2026-04-18T10:39:19.262Z</time></trkpt><trkpt lat="44.6818586" lon="9.4894669"><ele>1185.0</ele><time>2026-04-18T10:39:20.262Z</time></trkpt><trkpt lat="44.6819448" lon="9.489512"><ele>1185.0</ele><time>2026-04-18T10:39:21.262Z</time></trkpt><trkpt lat="44.6820495" lon="9.4895376"><ele>1185.0</ele><time>2026-04-18T10:39:22.262Z</time></trkpt><trkpt lat="44.6821555" lon="9.489576"><ele>1185.0</ele><time>2026-04-18T10:39:23.262Z</time></trkpt><trkpt lat="44.6822475" lon="9.4896687"><ele>1181.0</ele><time>2026-04-18T10:39:24.262Z</time></trkpt><trkpt lat="44.6823222" lon="9.4897706"><ele>1177.0</ele><time>2026-04-18T10:39:25.263Z</time></trkpt><trkpt lat="44.6823863" lon="9.4898649"><ele>1173.0</ele><time>2026-04-18T10:39:26.262Z</time></trkpt><trkpt lat="44.6824564" lon="9.4899308"><ele>1169.0</ele><time>2026-04-18T10:39:27.262Z</time></trkpt><trkpt lat="44.6825282" lon="9.4899967"><ele>1165.0</ele><time>2026-04-18T10:39:28.262Z</time></trkpt><trkpt lat="44.6826458" lon="9.4900205"><ele>1165.0</ele><time>2026-04-18T10:39:29.262Z</time></trkpt><trkpt lat="44.682729" lon="9.4900241"><ele>1165.0</ele><time>2026-04-18T10:39:30.262Z</time></trkpt><trkpt lat="44.6828212" lon="9.4900571"><ele>1165.0</ele><time>2026-04-18T10:39:31.263Z</time></trkpt><trkpt lat="44.6828458" lon="9.4901785"><ele>1165.0</ele><time>2026-04-18T10:39:32.263Z</time></trkpt><trkpt lat="44.6828812" lon="9.4902856"><ele>1165.0</ele><time>2026-04-18T10:39:33.261Z</time></trkpt><trkpt lat="44.6829163" lon="9.4903938"><ele>1165.0</ele><time>2026-04-18T10:39:34.261Z</time></trkpt><trkpt lat="44.682964" lon="9.4905053"><ele>1161.6</ele><time>2026-04-18T10:39:35.261Z</time></trkpt><trkpt lat="44.6830316" lon="9.4906109"><ele>1158.2</ele><time>2026-04-18T10:39:36.261Z</time></trkpt><trkpt lat="44.6831107" lon="9.4907067"><ele>1154.8</ele><time>2026-04-18T10:39:37.261Z</time></trkpt><trkpt lat="44.6831858" lon="9.4907898"><ele>1151.4</ele><time>2026-04-18T10:39:38.262Z</time></trkpt><trkpt lat="44.6832611" lon="9.4908771"><ele>1148.0</ele><time>2026-04-18T10:39:39.263Z</time></trkpt><trkpt lat="44.6833358" lon="9.49095"><ele>1148.0</ele><time>2026-04-18T10:39:40.262Z</time></trkpt><trkpt lat="44.6834052" lon="9.4910113"><ele>1148.0</ele><time>2026-04-18T10:39:41.261Z</time></trkpt><trkpt lat="44.6834953" lon="9.4910101"><ele>1148.0</ele><time>2026-04-18T10:39:42.261Z</time></trkpt><trkpt lat="44.6835925" lon="9.4910348"><ele>1148.0</ele><time>2026-04-18T10:39:43.262Z</time></trkpt><trkpt lat="44.6836817" lon="9.4910372"><ele>1148.0</ele><time>2026-04-18T10:39:44.262Z</time></trkpt><trkpt lat="44.6837658" lon="9.4910635"><ele>1148.0</ele><time>2026-04-18T10:39:45.262Z</time></trkpt><trkpt lat="44.683805" lon="9.491181"><ele>1147.0</ele><time>2026-04-18T10:39:46.262Z</time></trkpt><trkpt lat="44.6838515" lon="9.4912957"><ele>1146.0</ele><time>2026-04-18T10:39:47.261Z</time></trkpt><trkpt lat="44.683896" lon="9.4914013"><ele>1145.0</ele><time>2026-04-18T10:39:48.263Z</time></trkpt><trkpt lat="44.6839507" lon="9.4915106"><ele>1144.0</ele><time>2026-04-18T10:39:49.263Z</time></trkpt><trkpt lat="44.6840001" lon="9.4916039"><ele>1143.0</ele><time>2026-04-18T10:39:50.263Z</time></trkpt><trkpt lat="44.6840556" lon="9.4916814"><ele>1142.0</ele><time>2026-04-18T10:39:51.262Z</time></trkpt><trkpt lat="44.6841384" lon="9.4917774"><ele>1142.0</ele><time>2026-04-18T10:39:52.261Z</time></trkpt><trkpt lat="44.6842351" lon="9.4918766"><ele>1142.0</ele><time>2026-04-18T10:39:53.263Z</time></trkpt><trkpt lat="44.6843265" lon="9.4919887"><ele>1142.0</ele><time>2026-04-18T10:39:54.262Z</time></trkpt><trkpt lat="44.6844001" lon="9.4921191"><ele>1142.0</ele><time>2026-04-18T10:39:55.262Z</time></trkpt><trkpt lat="44.6844614" lon="9.4922332"><ele>1138.8</ele><time>2026-04-18T10:39:56.263Z</time></trkpt><trkpt lat="44.6845225" lon="9.4923338"><ele>1135.6</ele><time>2026-04-18T10:39:57.262Z</time></trkpt><trkpt lat="44.6845585" lon="9.4924143"><ele>1132.3999999999999</ele><time>2026-04-18T10:39:58.262Z</time></trkpt><trkpt lat="44.6845581" lon="9.4925916"><ele>1129.2</ele><time>2026-04-18T10:40:00.261Z</time></trkpt><trkpt lat="44.6845305" lon="9.4927106"><ele>1126.0</ele><time>2026-04-18T10:40:01.261Z</time></trkpt><trkpt lat="44.684533" lon="9.4928261"><ele>1124.1666666666665</ele><time>2026-04-18T10:40:02.261Z</time></trkpt><trkpt lat="44.6845921" lon="9.492974"><ele>1122.3333333333333</ele><time>2026-04-18T10:40:03.26Z</time></trkpt><trkpt lat="44.6846327" lon="9.4930814"><ele>1120.5</ele><time>2026-04-18T10:40:04.26Z</time></trkpt><trkpt lat="44.6846841" lon="9.4931491"><ele>1118.6666666666667</ele><time>2026-04-18T10:40:05.26Z</time></trkpt><trkpt lat="44.684752" lon="9.4931722"><ele>1116.8333333333335</ele><time>2026-04-18T10:40:06.261Z</time></trkpt><trkpt lat="44.6848267" lon="9.4931447"><ele>1115.0</ele><time>2026-04-18T10:40:07.261Z</time></trkpt><trkpt lat="44.6848928" lon="9.493072"><ele>1115.0</ele><time>2026-04-18T10:40:08.261Z</time></trkpt><trkpt lat="44.6849437" lon="9.4929749"><ele>1115.0</ele><time>2026-04-18T10:40:09.261Z</time></trkpt><trkpt lat="44.6849905" lon="9.4928713"><ele>1115.0</ele><time>2026-04-18T10:40:10.26Z</time></trkpt><trkpt lat="44.6850299" lon="9.4927634"><ele>1115.0</ele><time>2026-04-18T10:40:11.26Z</time></trkpt><trkpt lat="44.6850678" lon="9.4926452"><ele>1115.0</ele><time>2026-04-18T10:40:12.262Z</time></trkpt><trkpt lat="44.6851086" lon="9.4925593"><ele>1115.0</ele><time>2026-04-18T10:40:13.262Z</time></trkpt><trkpt lat="44.6851562" lon="9.4924751"><ele>1113.25</ele><time>2026-04-18T10:40:14.26Z</time></trkpt><trkpt lat="44.6852399" lon="9.4924552"><ele>1111.5</ele><time>2026-04-18T10:40:15.261Z</time></trkpt><trkpt lat="44.6853646" lon="9.4925373"><ele>1109.75</ele><time>2026-04-18T10:40:16.261Z</time></trkpt><trkpt lat="44.6854798" lon="9.4925418"><ele>1108.0</ele><time>2026-04-18T10:40:17.262Z</time></trkpt><trkpt lat="44.6855991" lon="9.4925507"><ele>1108.0</ele><time>2026-04-18T10:40:18.261Z</time></trkpt><trkpt lat="44.6857141" lon="9.492563"><ele>1108.0</ele><time>2026-04-18T10:40:19.261Z</time></trkpt><trkpt lat="44.6858243" lon="9.4925627"><ele>1108.0</ele><time>2026-04-18T10:40:20.261Z</time></trkpt><trkpt lat="44.685929" lon="9.4925618"><ele>1108.0</ele><time>2026-04-18T10:40:21.261Z</time></trkpt><trkpt lat="44.6860304" lon="9.4925638"><ele>1108.0</ele><time>2026-04-18T10:40:22.261Z</time></trkpt><trkpt lat="44.686134" lon="9.4925611"><ele>1107.2</ele><time>2026-04-18T10:40:23.261Z</time></trkpt><trkpt lat="44.6862378" lon="9.4925452"><ele>1106.4</ele><time>2026-04-18T10:40:24.26Z</time></trkpt><trkpt lat="44.6863426" lon="9.4925297"><ele>1105.6000000000001</ele><time>2026-04-18T10:40:25.26Z</time></trkpt><trkpt lat="44.6864487" lon="9.4925133"><ele>1104.8</ele><time>2026-04-18T10:40:26.261Z</time></trkpt><trkpt lat="44.686556" lon="9.4924984"><ele>1104.0</ele><time>2026-04-18T10:40:27.261Z</time></trkpt><trkpt lat="44.6866591" lon="9.492496"><ele>1104.0</ele><time>2026-04-18T10:40:28.261Z</time></trkpt><trkpt lat="44.6867574" lon="9.492507"><ele>1104.0</ele><time>2026-04-18T10:40:29.261Z</time></trkpt><trkpt lat="44.6868593" lon="9.4925282"><ele>1104.0</ele><time>2026-04-18T10:40:30.26Z</time></trkpt><trkpt lat="44.6869678" lon="9.4925513"><ele>1104.0</ele><time>2026-04-18T10:40:31.261Z</time></trkpt><trkpt lat="44.6870803" lon="9.492567"><ele>1104.0</ele><time>2026-04-18T10:40:32.26Z</time></trkpt><trkpt lat="44.6871929" lon="9.4925879"><ele>1104.5</ele><time>2026-04-18T10:40:33.261Z</time></trkpt><trkpt lat="44.6872984" lon="9.4926381"><ele>1105.0</ele><time>2026-04-18T10:40:34.261Z</time></trkpt><trkpt lat="44.6874079" lon="9.492687"><ele>1105.5</ele><time>2026-04-18T10:40:35.26Z</time></trkpt><trkpt lat="44.6875231" lon="9.492712"><ele>1106.0</ele><time>2026-04-18T10:40:36.261Z</time></trkpt><trkpt lat="44.6876442" lon="9.492728"><ele>1106.0</ele><time>2026-04-18T10:40:37.261Z</time></trkpt><trkpt lat="44.6877597" lon="9.4927395"><ele>1106.0</ele><time>2026-04-18T10:40:38.261Z</time></trkpt><trkpt lat="44.6878688" lon="9.4927327"><ele>1106.0</ele><time>2026-04-18T10:40:39.261Z</time></trkpt><trkpt lat="44.6879718" lon="9.4926919"><ele>1106.0</ele><time>2026-04-18T10:40:40.261Z</time></trkpt><trkpt lat="44.6880783" lon="9.4926272"><ele>1106.0</ele><time>2026-04-18T10:40:41.26Z</time></trkpt><trkpt lat="44.688186" lon="9.4925595"><ele>1104.8</ele><time>2026-04-18T10:40:42.26Z</time></trkpt><trkpt lat="44.6882851" lon="9.4925009"><ele>1103.6</ele><time>2026-04-18T10:40:43.26Z</time></trkpt><trkpt lat="44.6883733" lon="9.4924757"><ele>1102.4</ele><time>2026-04-18T10:40:44.26Z</time></trkpt><trkpt lat="44.6884535" lon="9.4925009"><ele>1101.2</ele><time>2026-04-18T10:40:45.261Z</time></trkpt><trkpt lat="44.6885337" lon="9.492583"><ele>1100.0</ele><time>2026-04-18T10:40:46.261Z</time></trkpt><trkpt lat="44.6886141" lon="9.492658"><ele>1099.2</ele><time>2026-04-18T10:40:47.262Z</time></trkpt><trkpt lat="44.6887041" lon="9.4927125"><ele>1098.4</ele><time>2026-04-18T10:40:48.261Z</time></trkpt><trkpt lat="44.6887968" lon="9.4927402"><ele>1097.6</ele><time>2026-04-18T10:40:49.26Z</time></trkpt><trkpt lat="44.6888915" lon="9.4927363"><ele>1096.8</ele><time>2026-04-18T10:40:50.261Z</time></trkpt><trkpt lat="44.6889824" lon="9.492724"><ele>1096.0</ele><time>2026-04-18T10:40:51.26Z</time></trkpt><trkpt lat="44.6890691" lon="9.4927654"><ele>1096.0</ele><time>2026-04-18T10:40:52.261Z</time></trkpt><trkpt lat="44.6891297" lon="9.4928554"><ele>1096.0</ele><time>2026-04-18T10:40:53.26Z</time></trkpt><trkpt lat="44.689177" lon="9.4929583"><ele>1096.0</ele><time>2026-04-18T10:40:54.261Z</time></trkpt><trkpt lat="44.6892369" lon="9.4930555"><ele>1096.0</ele><time>2026-04-18T10:40:55.262Z</time></trkpt><trkpt lat="44.6892931" lon="9.4931377"><ele>1096.0</ele><time>2026-04-18T10:40:56.261Z</time></trkpt><trkpt lat="44.68936" lon="9.4931936"><ele>1096.0</ele><time>2026-04-18T10:40:57.26Z</time></trkpt><trkpt lat="44.6894404" lon="9.4932156"><ele>1093.6</ele><time>2026-04-18T10:40:58.262Z</time></trkpt><trkpt lat="44.6895351" lon="9.4932317"><ele>1091.1999999999998</ele><time>2026-04-18T10:40:59.26Z</time></trkpt><trkpt lat="44.6896248" lon="9.493282"><ele>1088.8000000000002</ele><time>2026-04-18T10:41:00.261Z</time></trkpt><trkpt lat="44.6896957" lon="9.4933706"><ele>1086.4</ele><time>2026-04-18T10:41:01.261Z</time></trkpt><trkpt lat="44.6897485" lon="9.4934808"><ele>1084.0</ele><time>2026-04-18T10:41:02.262Z</time></trkpt><trkpt lat="44.6898008" lon="9.4935522"><ele>1084.0</ele><time>2026-04-18T10:41:03.261Z</time></trkpt><trkpt lat="44.6898634" lon="9.4935835"><ele>1084.0</ele><time>2026-04-18T10:41:04.261Z</time></trkpt><trkpt lat="44.6899354" lon="9.4935868"><ele>1084.0</ele><time>2026-04-18T10:41:05.261Z</time></trkpt><trkpt lat="44.6900249" lon="9.4935768"><ele>1084.0</ele><time>2026-04-18T10:41:06.26Z</time></trkpt><trkpt lat="44.690125" lon="9.4935556"><ele>1084.0</ele><time>2026-04-18T10:41:07.261Z</time></trkpt><trkpt lat="44.6902259" lon="9.493527"><ele>1084.0</ele><time>2026-04-18T10:41:08.261Z</time></trkpt><trkpt lat="44.6903183" lon="9.493492"><ele>1082.6000000000001</ele><time>2026-04-18T10:41:09.261Z</time></trkpt><trkpt lat="44.6904153" lon="9.4934518"><ele>1081.2</ele><time>2026-04-18T10:41:10.262Z</time></trkpt><trkpt lat="44.6905209" lon="9.493414"><ele>1079.8000000000002</ele><time>2026-04-18T10:41:11.26Z</time></trkpt><trkpt lat="44.690627" lon="9.493364"><ele>1078.4</ele><time>2026-04-18T10:41:12.261Z</time></trkpt><trkpt lat="44.6907241" lon="9.4933092"><ele>1077.0</ele><time>2026-04-18T10:41:13.262Z</time></trkpt><trkpt lat="44.690815" lon="9.4932522"><ele>1077.0</ele><time>2026-04-18T10:41:14.261Z</time></trkpt><trkpt lat="44.690904" lon="9.4932028"><ele>1077.0</ele><time>2026-04-18T10:41:15.261Z</time></trkpt><trkpt lat="44.6909937" lon="9.4931765"><ele>1077.0</ele><time>2026-04-18T10:41:16.261Z</time></trkpt><trkpt lat="44.6910775" lon="9.4931858"><ele>1077.0</ele><time>2026-04-18T10:41:17.261Z</time></trkpt><trkpt lat="44.6911471" lon="9.4932413"><ele>1077.0</ele><time>2026-04-18T10:41:18.26Z</time></trkpt><trkpt lat="44.6912223" lon="9.4933299"><ele>1077.0</ele><time>2026-04-18T10:41:19.261Z</time></trkpt><trkpt lat="44.6913059" lon="9.4934431"><ele>1077.3333333333333</ele><time>2026-04-18T10:41:20.261Z</time></trkpt><trkpt lat="44.6913719" lon="9.493548"><ele>1077.6666666666667</ele><time>2026-04-18T10:41:21.26Z</time></trkpt><trkpt lat="44.691439" lon="9.4936482"><ele>1078.0</ele><time>2026-04-18T10:41:22.261Z</time></trkpt><trkpt lat="44.6915055" lon="9.4937286"><ele>1078.3333333333335</ele><time>2026-04-18T10:41:23.261Z</time></trkpt><trkpt lat="44.6915738" lon="9.493795"><ele>1078.6666666666667</ele><time>2026-04-18T10:41:24.262Z</time></trkpt><trkpt lat="44.6916485" lon="9.4938399"><ele>1079.0</ele><time>2026-04-18T10:41:25.261Z</time></trkpt><trkpt lat="44.6917339" lon="9.4938593"><ele>1077.2</ele><time>2026-04-18T10:41:26.262Z</time></trkpt><trkpt lat="44.6918332" lon="9.4938524"><ele>1075.4</ele><time>2026-04-18T10:41:27.261Z</time></trkpt><trkpt lat="44.6919461" lon="9.4938342"><ele>1073.6</ele><time>2026-04-18T10:41:28.261Z</time></trkpt><trkpt lat="44.6920592" lon="9.4938273"><ele>1071.8</ele><time>2026-04-18T10:41:29.261Z</time></trkpt><trkpt lat="44.6921695" lon="9.4938333"><ele>1070.0</ele><time>2026-04-18T10:41:30.26Z</time></trkpt><trkpt lat="44.6922758" lon="9.4938385"><ele>1069.4</ele><time>2026-04-18T10:41:31.261Z</time></trkpt><trkpt lat="44.6923771" lon="9.4938257"><ele>1068.8</ele><time>2026-04-18T10:41:32.261Z</time></trkpt><trkpt lat="44.6924717" lon="9.4938059"><ele>1068.2</ele><time>2026-04-18T10:41:33.262Z</time></trkpt><trkpt lat="44.6925584" lon="9.4937938"><ele>1067.6</ele><time>2026-04-18T10:41:34.261Z</time></trkpt><trkpt lat="44.6926307" lon="9.4938022"><ele>1067.0</ele><time>2026-04-18T10:41:35.261Z</time></trkpt><trkpt lat="44.6927253" lon="9.4938966"><ele>1067.0</ele><time>2026-04-18T10:41:37.26Z</time></trkpt><trkpt lat="44.6927359" lon="9.4940335"><ele>1067.0</ele><time>2026-04-18T10:41:39.261Z</time></trkpt><trkpt lat="44.6926754" lon="9.4941557"><ele>1067.0</ele><time>2026-04-18T10:41:41.261Z</time></trkpt><trkpt lat="44.6926495" lon="9.4942433"><ele>1067.0</ele><time>2026-04-18T10:41:42.261Z</time></trkpt><trkpt lat="44.692659" lon="9.4944071"><ele>1067.0</ele><time>2026-04-18T10:41:44.261Z</time></trkpt><trkpt lat="44.6926822" lon="9.4945556"><ele>1066.6</ele><time>2026-04-18T10:41:46.261Z</time></trkpt><trkpt lat="44.6927112" lon="9.4947272"><ele>1066.2</ele><time>2026-04-18T10:41:48.261Z</time></trkpt><trkpt lat="44.6927353" lon="9.4948478"><ele>1065.8</ele><time>2026-04-18T10:41:49.261Z</time></trkpt><trkpt lat="44.6927727" lon="9.4949815"><ele>1065.4</ele><time>2026-04-18T10:41:50.261Z</time></trkpt><trkpt lat="44.6928172" lon="9.4951283"><ele>1065.0</ele><time>2026-04-18T10:41:51.26Z</time></trkpt><trkpt lat="44.6928644" lon="9.4952579"><ele>1066.3333333333333</ele><time>2026-04-18T10:41:52.261Z</time></trkpt><trkpt lat="44.6929021" lon="9.4953622"><ele>1067.6666666666667</ele><time>2026-04-18T10:41:53.261Z</time></trkpt><trkpt lat="44.6929334" lon="9.4954671"><ele>1069.0</ele><time>2026-04-18T10:41:54.26Z</time></trkpt><trkpt lat="44.6929515" lon="9.4955766"><ele>1070.3333333333335</ele><time>2026-04-18T10:41:55.261Z</time></trkpt><trkpt lat="44.6929457" lon="9.4956844"><ele>1071.6666666666667</ele><time>2026-04-18T10:41:56.261Z</time></trkpt><trkpt lat="44.6929078" lon="9.4957823"><ele>1073.0</ele><time>2026-04-18T10:41:57.262Z</time></trkpt><trkpt lat="44.6928543" lon="9.4958874"><ele>1073.0</ele><time>2026-04-18T10:41:58.26Z</time></trkpt><trkpt lat="44.6927975" lon="9.4959903"><ele>1073.0</ele><time>2026-04-18T10:41:59.262Z</time></trkpt><trkpt lat="44.6927455" lon="9.4960958"><ele>1073.0</ele><time>2026-04-18T10:42:00.26Z</time></trkpt><trkpt lat="44.6927047" lon="9.4962099"><ele>1073.0</ele><time>2026-04-18T10:42:01.261Z</time></trkpt><trkpt lat="44.6926794" lon="9.4963288"><ele>1073.0</ele><time>2026-04-18T10:42:02.261Z</time></trkpt><trkpt lat="44.6926709" lon="9.496457"><ele>1070.0</ele><time>2026-04-18T10:42:03.261Z</time></trkpt><trkpt lat="44.6926627" lon="9.4965821"><ele>1067.0</ele><time>2026-04-18T10:42:04.261Z</time></trkpt><trkpt lat="44.6926525" lon="9.4967213"><ele>1064.0</ele><time>2026-04-18T10:42:05.261Z</time></trkpt><trkpt lat="44.6926363" lon="9.4968644"><ele>1061.0</ele><time>2026-04-18T10:42:06.26Z</time></trkpt><trkpt lat="44.6926276" lon="9.4970122"><ele>1058.0</ele><time>2026-04-18T10:42:07.261Z</time></trkpt><trkpt lat="44.6926326" lon="9.4971613"><ele>1056.8</ele><time>2026-04-18T10:42:08.261Z</time></trkpt><trkpt lat="44.692653" lon="9.4973052"><ele>1055.6</ele><time>2026-04-18T10:42:09.26Z</time></trkpt><trkpt lat="44.692681" lon="9.4974534"><ele>1054.4</ele><time>2026-04-18T10:42:10.26Z</time></trkpt><trkpt lat="44.6927059" lon="9.4975981"><ele>1053.2</ele><time>2026-04-18T10:42:11.262Z</time></trkpt><trkpt lat="44.6927318" lon="9.4977256"><ele>1052.0</ele><time>2026-04-18T10:42:12.261Z</time></trkpt><trkpt lat="44.6927702" lon="9.4978318"><ele>1052.6</ele><time>2026-04-18T10:42:13.262Z</time></trkpt><trkpt lat="44.6928285" lon="9.4979139"><ele>1053.2</ele><time>2026-04-18T10:42:14.26Z</time></trkpt><trkpt lat="44.6929046" lon="9.4979678"><ele>1053.8</ele><time>2026-04-18T10:42:15.261Z</time></trkpt><trkpt lat="44.6930055" lon="9.4980235"><ele>1054.4</ele><time>2026-04-18T10:42:16.261Z</time></trkpt><trkpt lat="44.6931019" lon="9.4981059"><ele>1055.0</ele><time>2026-04-18T10:42:17.261Z</time></trkpt><trkpt lat="44.6931854" lon="9.4982042"><ele>1055.0</ele><time>2026-04-18T10:42:18.261Z</time></trkpt><trkpt lat="44.6932603" lon="9.4982989"><ele>1055.0</ele><time>2026-04-18T10:42:19.261Z</time></trkpt><trkpt lat="44.6933461" lon="9.4983885"><ele>1055.0</ele><time>2026-04-18T10:42:20.26Z</time></trkpt><trkpt lat="44.6934295" lon="9.4984696"><ele>1055.0</ele><time>2026-04-18T10:42:21.262Z</time></trkpt><trkpt lat="44.6935207" lon="9.4985552"><ele>1055.0</ele><time>2026-04-18T10:42:22.26Z</time></trkpt><trkpt lat="44.6936135" lon="9.4986364"><ele>1054.2</ele><time>2026-04-18T10:42:23.26Z</time></trkpt><trkpt lat="44.6937075" lon="9.4987211"><ele>1053.4</ele><time>2026-04-18T10:42:24.26Z</time></trkpt><trkpt lat="44.6938038" lon="9.4988045"><ele>1052.6</ele><time>2026-04-18T10:42:25.26Z</time></trkpt><trkpt lat="44.6938949" lon="9.4988888"><ele>1051.8</ele><time>2026-04-18T10:42:26.261Z</time></trkpt><trkpt lat="44.693985" lon="9.4989677"><ele>1051.0</ele><time>2026-04-18T10:42:27.261Z</time></trkpt><trkpt lat="44.6940727" lon="9.4990359"><ele>1051.0</ele><time>2026-04-18T10:42:28.26Z</time></trkpt><trkpt lat="44.6941584" lon="9.4990922"><ele>1051.0</ele><time>2026-04-18T10:42:29.26Z</time></trkpt><trkpt lat="44.6942544" lon="9.4991442"><ele>1051.0</ele><time>2026-04-18T10:42:30.261Z</time></trkpt><trkpt lat="44.6943565" lon="9.4991848"><ele>1051.0</ele><time>2026-04-18T10:42:31.261Z</time></trkpt><trkpt lat="44.6944613" lon="9.4992112"><ele>1051.0</ele><time>2026-04-18T10:42:32.26Z</time></trkpt><trkpt lat="44.6945634" lon="9.4992307"><ele>1050.8</ele><time>2026-04-18T10:42:33.261Z</time></trkpt><trkpt lat="44.6946717" lon="9.4992512"><ele>1050.6</ele><time>2026-04-18T10:42:34.26Z</time></trkpt><trkpt lat="44.6947824" lon="9.4992754"><ele>1050.4</ele><time>2026-04-18T10:42:35.261Z</time></trkpt><trkpt lat="44.6948915" lon="9.4993001"><ele>1050.2</ele><time>2026-04-18T10:42:36.261Z</time></trkpt><trkpt lat="44.6949976" lon="9.4993077"><ele>1050.0</ele><time>2026-04-18T10:42:37.26Z</time></trkpt><trkpt lat="44.6951025" lon="9.4993005"><ele>1050.0</ele><time>2026-04-18T10:42:38.26Z</time></trkpt><trkpt lat="44.6951999" lon="9.4992798"><ele>1050.0</ele><time>2026-04-18T10:42:39.26Z</time></trkpt><trkpt lat="44.6952916" lon="9.4992554"><ele>1050.0</ele><time>2026-04-18T10:42:40.261Z</time></trkpt><trkpt lat="44.6953677" lon="9.4992431"><ele>1050.0</ele><time>2026-04-18T10:42:41.261Z</time></trkpt><trkpt lat="44.6954611" lon="9.4992473"><ele>1050.0</ele><time>2026-04-18T10:42:42.262Z</time></trkpt><trkpt lat="44.6955534" lon="9.4992759"><ele>1049.0</ele><time>2026-04-18T10:42:43.262Z</time></trkpt><trkpt lat="44.6956384" lon="9.499306"><ele>1048.0</ele><time>2026-04-18T10:42:44.261Z</time></trkpt><trkpt lat="44.695729" lon="9.4993308"><ele>1047.0</ele><time>2026-04-18T10:42:45.261Z</time></trkpt><trkpt lat="44.6958184" lon="9.4993609"><ele>1046.0</ele><time>2026-04-18T10:42:46.26Z</time></trkpt><trkpt lat="44.6959122" lon="9.4993889"><ele>1045.0</ele><time>2026-04-18T10:42:47.26Z</time></trkpt><trkpt lat="44.6960151" lon="9.4994145"><ele>1043.4</ele><time>2026-04-18T10:42:48.261Z</time></trkpt><trkpt lat="44.6961163" lon="9.4994454"><ele>1041.8</ele><time>2026-04-18T10:42:49.261Z</time></trkpt><trkpt lat="44.6962213" lon="9.4994774"><ele>1040.2</ele><time>2026-04-18T10:42:50.262Z</time></trkpt><trkpt lat="44.6963213" lon="9.4995077"><ele>1038.6</ele><time>2026-04-18T10:42:51.261Z</time></trkpt><trkpt lat="44.6964191" lon="9.4995377"><ele>1037.0</ele><time>2026-04-18T10:42:52.261Z</time></trkpt><trkpt lat="44.6965086" lon="9.4995667"><ele>1037.0</ele><time>2026-04-18T10:42:53.26Z</time></trkpt><trkpt lat="44.6965974" lon="9.4996047"><ele>1037.0</ele><time>2026-04-18T10:42:54.261Z</time></trkpt><trkpt lat="44.6966849" lon="9.49967"><ele>1037.0</ele><time>2026-04-18T10:42:55.261Z</time></trkpt><trkpt lat="44.6967673" lon="9.4997682"><ele>1037.0</ele><time>2026-04-18T10:42:56.261Z</time></trkpt><trkpt lat="44.696838" lon="9.4998957"><ele>1037.0</ele><time>2026-04-18T10:42:57.26Z</time></trkpt><trkpt lat="44.6968969" lon="9.5000381"><ele>1033.75</ele><time>2026-04-18T10:42:58.261Z</time></trkpt><trkpt lat="44.696954" lon="9.500186"><ele>1030.5</ele><time>2026-04-18T10:42:59.26Z</time></trkpt><trkpt lat="44.6970136" lon="9.5003281"><ele>1027.25</ele><time>2026-04-18T10:43:00.261Z</time></trkpt><trkpt lat="44.6970735" lon="9.5004675"><ele>1024.0</ele><time>2026-04-18T10:43:01.26Z</time></trkpt><trkpt lat="44.6971327" lon="9.5006089"><ele>1023.25</ele><time>2026-04-18T10:43:02.26Z</time></trkpt><trkpt lat="44.6971894" lon="9.5007491"><ele>1022.5</ele><time>2026-04-18T10:43:03.26Z</time></trkpt><trkpt lat="44.6972402" lon="9.5008926"><ele>1021.75</ele><time>2026-04-18T10:43:04.262Z</time></trkpt><trkpt lat="44.6972794" lon="9.5010434"><ele>1021.0</ele><time>2026-04-18T10:43:05.26Z</time></trkpt><trkpt lat="44.6973127" lon="9.501194"><ele>1020.1999999999999</ele><time>2026-04-18T10:43:06.261Z</time></trkpt><trkpt lat="44.6973387" lon="9.5013377"><ele>1019.3999999999999</ele><time>2026-04-18T10:43:07.261Z</time></trkpt><trkpt lat="44.697347" lon="9.5014667"><ele>1018.6</ele><time>2026-04-18T10:43:08.26Z</time></trkpt><trkpt lat="44.6973278" lon="9.5015846"><ele>1017.8</ele><time>2026-04-18T10:43:09.261Z</time></trkpt><trkpt lat="44.697275" lon="9.5016817"><ele>1017.0</ele><time>2026-04-18T10:43:10.261Z</time></trkpt><trkpt lat="44.6971979" lon="9.5017397"><ele>1017.0</ele><time>2026-04-18T10:43:11.261Z</time></trkpt><trkpt lat="44.6971016" lon="9.5017523"><ele>1017.0</ele><time>2026-04-18T10:43:12.261Z</time></trkpt><trkpt lat="44.6969918" lon="9.5017211"><ele>1017.0</ele><time>2026-04-18T10:43:13.261Z</time></trkpt><trkpt lat="44.6968799" lon="9.501668"><ele>1017.0</ele><time>2026-04-18T10:43:14.261Z</time></trkpt><trkpt lat="44.6967743" lon="9.501607"><ele>1017.0</ele><time>2026-04-18T10:43:15.26Z</time></trkpt><trkpt lat="44.6966703" lon="9.5015545"><ele>1016.5</ele><time>2026-04-18T10:43:16.262Z</time></trkpt><trkpt lat="44.6965765" lon="9.5015211"><ele>1016.0</ele><time>2026-04-18T10:43:17.261Z</time></trkpt><trkpt lat="44.6964878" lon="9.5015117"><ele>1015.5</ele><time>2026-04-18T10:43:18.261Z</time></trkpt><trkpt lat="44.6964051" lon="9.501544"><ele>1015.0</ele><time>2026-04-18T10:43:19.261Z</time></trkpt><trkpt lat="44.6963397" lon="9.5016168"><ele>1014.5</ele><time>2026-04-18T10:43:20.26Z</time></trkpt><trkpt lat="44.696305" lon="9.501722"><ele>1014.0</ele><time>2026-04-18T10:43:21.26Z</time></trkpt><trkpt lat="44.6963034" lon="9.5018542"><ele>1014.0</ele><time>2026-04-18T10:43:22.26Z</time></trkpt><trkpt lat="44.696344" lon="9.5019754"><ele>1014.0000000000001</ele><time>2026-04-18T10:43:23.26Z</time></trkpt><trkpt lat="44.6964098" lon="9.5020926"><ele>1014.0000000000001</ele><time>2026-04-18T10:43:24.262Z</time></trkpt><trkpt lat="44.6964861" lon="9.5022096"><ele>1014.0</ele><time>2026-04-18T10:43:25.261Z</time></trkpt><trkpt lat="44.6965654" lon="9.5023325"><ele>1014.0</ele><time>2026-04-18T10:43:26.262Z</time></trkpt><trkpt lat="44.6966436" lon="9.5024589"><ele>1011.75</ele><time>2026-04-18T10:43:27.262Z</time></trkpt><trkpt lat="44.6967289" lon="9.502592"><ele>1009.5</ele><time>2026-04-18T10:43:28.261Z</time></trkpt><trkpt lat="44.6968175" lon="9.5027204"><ele>1007.25</ele><time>2026-04-18T10:43:29.262Z</time></trkpt><trkpt lat="44.6969106" lon="9.5028409"><ele>1005.0</ele><time>2026-04-18T10:43:30.261Z</time></trkpt><trkpt lat="44.6970097" lon="9.5029509"><ele>1003.0</ele><time>2026-04-18T10:43:31.262Z</time></trkpt><trkpt lat="44.6971125" lon="9.5030523"><ele>1001.0</ele><time>2026-04-18T10:43:32.262Z</time></trkpt><trkpt lat="44.6972167" lon="9.5031444"><ele>999.0</ele><time>2026-04-18T10:43:33.261Z</time></trkpt><trkpt lat="44.6973232" lon="9.5032249"><ele>997.0</ele><time>2026-04-18T10:43:34.261Z</time></trkpt><trkpt lat="44.697432" lon="9.5032946"><ele>997.0</ele><time>2026-04-18T10:43:35.262Z</time></trkpt><trkpt lat="44.6975406" lon="9.5033536"><ele>997.0</ele><time>2026-04-18T10:43:36.261Z</time></trkpt><trkpt lat="44.6976544" lon="9.503399"><ele>997.0</ele><time>2026-04-18T10:43:37.262Z</time></trkpt><trkpt lat="44.6977762" lon="9.5034279"><ele>997.0</ele><time>2026-04-18T10:43:38.26Z</time></trkpt><trkpt lat="44.697904" lon="9.5034395"><ele>994.5</ele><time>2026-04-18T10:43:39.262Z</time></trkpt><trkpt lat="44.698034" lon="9.5034413"><ele>992.0</ele><time>2026-04-18T10:43:40.261Z</time></trkpt><trkpt lat="44.6981621" lon="9.5034282"><ele>989.5</ele><time>2026-04-18T10:43:41.261Z</time></trkpt><trkpt lat="44.6982868" lon="9.5033948"><ele>987.0</ele><time>2026-04-18T10:43:42.262Z</time></trkpt><trkpt lat="44.6984067" lon="9.5033422"><ele>987.0</ele><time>2026-04-18T10:43:43.26Z</time></trkpt><trkpt lat="44.6985219" lon="9.5032746"><ele>987.0</ele><time>2026-04-18T10:43:44.26Z</time></trkpt><trkpt lat="44.6986324" lon="9.5031967"><ele>987.0</ele><time>2026-04-18T10:43:45.261Z</time></trkpt><trkpt lat="44.6987381" lon="9.5031062"><ele>987.0</ele><time>2026-04-18T10:43:46.26Z</time></trkpt><trkpt lat="44.6988376" lon="9.503003"><ele>986.0</ele><time>2026-04-18T10:43:47.261Z</time></trkpt><trkpt lat="44.6989364" lon="9.5029033"><ele>985.0</ele><time>2026-04-18T10:43:48.262Z</time></trkpt><trkpt lat="44.6990439" lon="9.5028311"><ele>984.0</ele><time>2026-04-18T10:43:49.262Z</time></trkpt><trkpt lat="44.6991609" lon="9.5027882"><ele>983.0</ele><time>2026-04-18T10:43:50.262Z</time></trkpt><trkpt lat="44.6992792" lon="9.5027718"><ele>983.0</ele><time>2026-04-18T10:43:51.261Z</time></trkpt><trkpt lat="44.6993955" lon="9.5027727"><ele>983.0</ele><time>2026-04-18T10:43:52.261Z</time></trkpt><trkpt lat="44.6995092" lon="9.5027704"><ele>983.0</ele><time>2026-04-18T10:43:53.261Z</time></trkpt><trkpt lat="44.6996183" lon="9.5027557"><ele>983.0</ele><time>2026-04-18T10:43:54.261Z</time></trkpt><trkpt lat="44.6997234" lon="9.5027225"><ele>983.0</ele><time>2026-04-18T10:43:55.261Z</time></trkpt><trkpt lat="44.6998101" lon="9.5026533"><ele>980.4</ele><time>2026-04-18T10:43:56.26Z</time></trkpt><trkpt lat="44.6998742" lon="9.5025574"><ele>977.8</ele><time>2026-04-18T10:43:57.261Z</time></trkpt><trkpt lat="44.6999225" lon="9.5024404"><ele>975.2</ele><time>2026-04-18T10:43:58.26Z</time></trkpt><trkpt lat="44.6999695" lon="9.5023084"><ele>972.6</ele><time>2026-04-18T10:43:59.261Z</time></trkpt><trkpt lat="44.7000274" lon="9.5021893"><ele>970.0</ele><time>2026-04-18T10:44:00.261Z</time></trkpt><trkpt lat="44.7001033" lon="9.5021053"><ele>970.0</ele><time>2026-04-18T10:44:01.261Z</time></trkpt><trkpt lat="44.7001882" lon="9.5020847"><ele>970.0</ele><time>2026-04-18T10:44:02.261Z</time></trkpt><trkpt lat="44.7002604" lon="9.5021347"><ele>970.0</ele><time>2026-04-18T10:44:03.26Z</time></trkpt><trkpt lat="44.7003298" lon="9.5022332"><ele>970.0</ele><time>2026-04-18T10:44:04.261Z</time></trkpt><trkpt lat="44.7003961" lon="9.5023672"><ele>970.0</ele><time>2026-04-18T10:44:05.261Z</time></trkpt><trkpt lat="44.7004739" lon="9.5025155"><ele>969.0</ele><time>2026-04-18T10:44:06.26Z</time></trkpt><trkpt lat="44.7005539" lon="9.5026554"><ele>968.0</ele><time>2026-04-18T10:44:07.262Z</time></trkpt><trkpt lat="44.7006401" lon="9.5027919"><ele>967.0</ele><time>2026-04-18T10:44:08.261Z</time></trkpt><trkpt lat="44.7007332" lon="9.5029219"><ele>966.0</ele><time>2026-04-18T10:44:09.26Z</time></trkpt><trkpt lat="44.7008255" lon="9.5030426"><ele>965.8</ele><time>2026-04-18T10:44:10.261Z</time></trkpt><trkpt lat="44.7009091" lon="9.50315"><ele>965.5999999999999</ele><time>2026-04-18T10:44:11.261Z</time></trkpt><trkpt lat="44.7009843" lon="9.5032395"><ele>965.4</ele><time>2026-04-18T10:44:12.261Z</time></trkpt><trkpt lat="44.7010486" lon="9.5033286"><ele>965.2</ele><time>2026-04-18T10:44:13.262Z</time></trkpt><trkpt lat="44.7010863" lon="9.5034399"><ele>965.0</ele><time>2026-04-18T10:44:14.261Z</time></trkpt><trkpt lat="44.7010979" lon="9.5035561"><ele>965.0000000000001</ele><time>2026-04-18T10:44:15.261Z</time></trkpt><trkpt lat="44.7010907" lon="9.5036607"><ele>965.0</ele><time>2026-04-18T10:44:16.262Z</time></trkpt><trkpt lat="44.7010795" lon="9.5037582"><ele>965.0</ele><time>2026-04-18T10:44:17.26Z</time></trkpt><trkpt lat="44.7010623" lon="9.5038633"><ele>965.0</ele><time>2026-04-18T10:44:18.26Z</time></trkpt><trkpt lat="44.701039" lon="9.5039719"><ele>965.0000000000001</ele><time>2026-04-18T10:44:19.261Z</time></trkpt><trkpt lat="44.7010127" lon="9.5040784"><ele>965.0</ele><time>2026-04-18T10:44:20.261Z</time></trkpt><trkpt lat="44.7009832" lon="9.5041675"><ele>964.0000000000001</ele><time>2026-04-18T10:44:21.261Z</time></trkpt><trkpt lat="44.7009539" lon="9.5042467"><ele>963.0</ele><time>2026-04-18T10:44:22.261Z</time></trkpt><trkpt lat="44.7009233" lon="9.5043338"><ele>962.0</ele><time>2026-04-18T10:44:23.262Z</time></trkpt><trkpt lat="44.7008924" lon="9.5044324"><ele>961.0</ele><time>2026-04-18T10:44:24.261Z</time></trkpt><trkpt lat="44.7008605" lon="9.5045487"><ele>960.0000000000001</ele><time>2026-04-18T10:44:25.261Z</time></trkpt><trkpt lat="44.7008567" lon="9.5046581"><ele>959.0</ele><time>2026-04-18T10:44:26.26Z</time></trkpt><trkpt lat="44.7008746" lon="9.5047609"><ele>958.8333333333334</ele><time>2026-04-18T10:44:27.261Z</time></trkpt><trkpt lat="44.7009037" lon="9.504857"><ele>958.6666666666667</ele><time>2026-04-18T10:44:28.26Z</time></trkpt><trkpt lat="44.7009477" lon="9.5049535"><ele>958.5</ele><time>2026-04-18T10:44:29.261Z</time></trkpt><trkpt lat="44.7010038" lon="9.5050419"><ele>958.3333333333333</ele><time>2026-04-18T10:44:30.261Z</time></trkpt><trkpt lat="44.701073" lon="9.5051176"><ele>958.1666666666666</ele><time>2026-04-18T10:44:31.26Z</time></trkpt><trkpt lat="44.7011375" lon="9.5051887"><ele>958.0</ele><time>2026-04-18T10:44:32.26Z</time></trkpt><trkpt lat="44.701201" lon="9.5052615"><ele>957.8333333333333</ele><time>2026-04-18T10:44:33.261Z</time></trkpt><trkpt lat="44.7012637" lon="9.5053257"><ele>957.6666666666666</ele><time>2026-04-18T10:44:34.26Z</time></trkpt><trkpt lat="44.70132" lon="9.5053888"><ele>957.5</ele><time>2026-04-18T10:44:35.261Z</time></trkpt><trkpt lat="44.7013715" lon="9.5054494"><ele>957.3333333333333</ele><time>2026-04-18T10:44:36.261Z</time></trkpt><trkpt lat="44.7014222" lon="9.5055208"><ele>957.1666666666666</ele><time>2026-04-18T10:44:38.261Z</time></trkpt><trkpt lat="44.7014915" lon="9.5055401"><ele>957.0</ele><time>2026-04-18T10:44:42.261Z</time></trkpt><trkpt lat="44.7015529" lon="9.505425"><ele>957.6666666666666</ele><time>2026-04-18T10:44:44.262Z</time></trkpt><trkpt lat="44.7015837" lon="9.5053291"><ele>958.3333333333333</ele><time>2026-04-18T10:44:45.261Z</time></trkpt><trkpt lat="44.7016224" lon="9.505224"><ele>959.0</ele><time>2026-04-18T10:44:46.26Z</time></trkpt><trkpt lat="44.7016791" lon="9.5051353"><ele>959.6666666666666</ele><time>2026-04-18T10:44:47.26Z</time></trkpt><trkpt lat="44.7017208" lon="9.5050332"><ele>960.3333333333333</ele><time>2026-04-18T10:44:48.261Z</time></trkpt><trkpt lat="44.7017339" lon="9.5049339"><ele>961.0</ele><time>2026-04-18T10:44:49.26Z</time></trkpt><trkpt lat="44.7017082" lon="9.5047601"><ele>960.9999999999999</ele><time>2026-04-18T10:44:51.261Z</time></trkpt><trkpt lat="44.7016766" lon="9.50468"><ele>961.0</ele><time>2026-04-18T10:44:52.26Z</time></trkpt><trkpt lat="44.7016434" lon="9.5046014"><ele>961.0</ele><time>2026-04-18T10:44:53.26Z</time></trkpt><trkpt lat="44.7016315" lon="9.5045014"><ele>961.0</ele><time>2026-04-18T10:44:54.26Z</time></trkpt><trkpt lat="44.7016431" lon="9.5043748"><ele>960.9999999999999</ele><time>2026-04-18T10:44:55.261Z</time></trkpt><trkpt lat="44.7016615" lon="9.5042459"><ele>961.0</ele><time>2026-04-18T10:44:56.261Z</time></trkpt><trkpt lat="44.7016868" lon="9.5041355"><ele>961.6666666666666</ele><time>2026-04-18T10:44:57.261Z</time></trkpt><trkpt lat="44.7017438" lon="9.504047"><ele>962.3333333333333</ele><time>2026-04-18T10:44:58.26Z</time></trkpt><trkpt lat="44.7018217" lon="9.5039952"><ele>963.0</ele><time>2026-04-18T10:44:59.26Z</time></trkpt><trkpt lat="44.7018995" lon="9.5039912"><ele>963.6666666666667</ele><time>2026-04-18T10:45:00.261Z</time></trkpt><trkpt lat="44.7019614" lon="9.5040119"><ele>964.3333333333334</ele><time>2026-04-18T10:45:01.26Z</time></trkpt><trkpt lat="44.7020241" lon="9.5040602"><ele>965.0</ele><time>2026-04-18T10:45:02.26Z</time></trkpt><trkpt lat="44.702086" lon="9.5041154"><ele>965.5000000000001</ele><time>2026-04-18T10:45:03.261Z</time></trkpt><trkpt lat="44.702148" lon="9.5041754"><ele>966.0</ele><time>2026-04-18T10:45:04.26Z</time></trkpt><trkpt lat="44.702218" lon="9.5042387"><ele>966.5</ele><time>2026-04-18T10:45:05.261Z</time></trkpt><trkpt lat="44.7022966" lon="9.5043008"><ele>967.0</ele><time>2026-04-18T10:45:06.261Z</time></trkpt><trkpt lat="44.7023898" lon="9.5043528"><ele>967.5000000000001</ele><time>2026-04-18T10:45:07.261Z</time></trkpt><trkpt lat="44.7024819" lon="9.504381"><ele>968.0</ele><time>2026-04-18T10:45:08.261Z</time></trkpt><trkpt lat="44.7025755" lon="9.5043795"><ele>968.0</ele><time>2026-04-18T10:45:09.26Z</time></trkpt><trkpt lat="44.7026695" lon="9.504345"><ele>968.0</ele><time>2026-04-18T10:45:10.261Z</time></trkpt><trkpt lat="44.7027597" lon="9.5042778"><ele>968.0</ele><time>2026-04-18T10:45:11.26Z</time></trkpt><trkpt lat="44.7028405" lon="9.5042036"><ele>968.0</ele><time>2026-04-18T10:45:12.261Z</time></trkpt><trkpt lat="44.7029121" lon="9.5041361"><ele>968.0</ele><time>2026-04-18T10:45:13.261Z</time></trkpt><trkpt lat="44.7029733" lon="9.5040844"><ele>968.3333333333334</ele><time>2026-04-18T10:45:14.262Z</time></trkpt><trkpt lat="44.7030301" lon="9.50404"><ele>968.6666666666667</ele><time>2026-04-18T10:45:15.26Z</time></trkpt><trkpt lat="44.7030934" lon="9.5039912"><ele>969.0</ele><time>2026-04-18T10:45:16.261Z</time></trkpt><trkpt lat="44.7031638" lon="9.5039427"><ele>969.3333333333333</ele><time>2026-04-18T10:45:17.261Z</time></trkpt><trkpt lat="44.7032474" lon="9.5038898"><ele>969.6666666666666</ele><time>2026-04-18T10:45:18.261Z</time></trkpt><trkpt lat="44.7033431" lon="9.5038411"><ele>970.0</ele><time>2026-04-18T10:45:19.26Z</time></trkpt><trkpt lat="44.7034458" lon="9.5037991"><ele>970.0</ele><time>2026-04-18T10:45:20.26Z</time></trkpt><trkpt lat="44.7035438" lon="9.5037679"><ele>970.0</ele><time>2026-04-18T10:45:21.262Z</time></trkpt><trkpt lat="44.7036451" lon="9.5037297"><ele>970.0</ele><time>2026-04-18T10:45:22.262Z</time></trkpt><trkpt lat="44.7037486" lon="9.5036822"><ele>970.0</ele><time>2026-04-18T10:45:23.262Z</time></trkpt><trkpt lat="44.7038442" lon="9.5035984"><ele>970.0</ele><time>2026-04-18T10:45:24.261Z</time></trkpt><trkpt lat="44.7039306" lon="9.5034772"><ele>972.75</ele><time>2026-04-18T10:45:25.261Z</time></trkpt><trkpt lat="44.7040048" lon="9.5033408"><ele>975.5</ele><time>2026-04-18T10:45:26.261Z</time></trkpt><trkpt lat="44.7040766" lon="9.5031889"><ele>978.25</ele><time>2026-04-18T10:45:27.26Z</time></trkpt><trkpt lat="44.7041529" lon="9.5030298"><ele>981.0</ele><time>2026-04-18T10:45:28.261Z</time></trkpt><trkpt lat="44.7042384" lon="9.5028755"><ele>982.25</ele><time>2026-04-18T10:45:29.261Z</time></trkpt><trkpt lat="44.7043374" lon="9.5027551"><ele>983.5</ele><time>2026-04-18T10:45:30.261Z</time></trkpt><trkpt lat="44.7044432" lon="9.5026694"><ele>984.75</ele><time>2026-04-18T10:45:31.26Z</time></trkpt><trkpt lat="44.7045504" lon="9.5026036"><ele>986.0</ele><time>2026-04-18T10:45:32.262Z</time></trkpt><trkpt lat="44.7046667" lon="9.5025404"><ele>986.0</ele><time>2026-04-18T10:45:33.261Z</time></trkpt><trkpt lat="44.7048017" lon="9.5024656"><ele>986.0</ele><time>2026-04-18T10:45:34.261Z</time></trkpt><trkpt lat="44.7049291" lon="9.5023857"><ele>986.0</ele><time>2026-04-18T10:45:35.262Z</time></trkpt><trkpt lat="44.7050387" lon="9.5022962"><ele>986.0</ele><time>2026-04-18T10:45:36.261Z</time></trkpt><trkpt lat="44.7051307" lon="9.5021933"><ele>987.25</ele><time>2026-04-18T10:45:37.26Z</time></trkpt><trkpt lat="44.7052184" lon="9.5020703"><ele>988.5</ele><time>2026-04-18T10:45:38.261Z</time></trkpt><trkpt lat="44.7053065" lon="9.5019306"><ele>989.75</ele><time>2026-04-18T10:45:39.261Z</time></trkpt><trkpt lat="44.7053952" lon="9.5017776"><ele>991.0</ele><time>2026-04-18T10:45:40.26Z</time></trkpt><trkpt lat="44.7054841" lon="9.5016163"><ele>991.0</ele><time>2026-04-18T10:45:41.26Z</time></trkpt><trkpt lat="44.705574" lon="9.5014467"><ele>991.0</ele><time>2026-04-18T10:45:42.261Z</time></trkpt><trkpt lat="44.7056693" lon="9.5012836"><ele>991.0</ele><time>2026-04-18T10:45:43.262Z</time></trkpt><trkpt lat="44.7057621" lon="9.5011295"><ele>991.0</ele><time>2026-04-18T10:45:44.261Z</time></trkpt><trkpt lat="44.7058521" lon="9.500966"><ele>991.25</ele><time>2026-04-18T10:45:45.26Z</time></trkpt><trkpt lat="44.7059367" lon="9.5008142"><ele>991.5</ele><time>2026-04-18T10:45:46.259Z</time></trkpt><trkpt lat="44.7060215" lon="9.5006661"><ele>991.75</ele><time>2026-04-18T10:45:47.261Z</time></trkpt><trkpt lat="44.7061075" lon="9.5005184"><ele>992.0</ele><time>2026-04-18T10:45:48.262Z</time></trkpt><trkpt lat="44.7061929" lon="9.5003735"><ele>992.75</ele><time>2026-04-18T10:45:49.261Z</time></trkpt><trkpt lat="44.7062777" lon="9.5002285"><ele>993.5</ele><time>2026-04-18T10:45:50.261Z</time></trkpt><trkpt lat="44.7063617" lon="9.5000769"><ele>994.25</ele><time>2026-04-18T10:45:51.262Z</time></trkpt><trkpt lat="44.7064473" lon="9.4999233"><ele>995.0</ele><time>2026-04-18T10:45:52.261Z</time></trkpt><trkpt lat="44.7065407" lon="9.4997761"><ele>995.0</ele><time>2026-04-18T10:45:53.26Z</time></trkpt><trkpt lat="44.7066387" lon="9.4996344"><ele>995.0</ele><time>2026-04-18T10:45:54.261Z</time></trkpt><trkpt lat="44.7067397" lon="9.4995074"><ele>995.0</ele><time>2026-04-18T10:45:55.261Z</time></trkpt><trkpt lat="44.7068422" lon="9.4993907"><ele>995.0</ele><time>2026-04-18T10:45:56.261Z</time></trkpt><trkpt lat="44.7069315" lon="9.4992651"><ele>994.5</ele><time>2026-04-18T10:45:57.261Z</time></trkpt><trkpt lat="44.7069966" lon="9.4991235"><ele>994.0</ele><time>2026-04-18T10:45:58.262Z</time></trkpt><trkpt lat="44.7070368" lon="9.4989592"><ele>993.5</ele><time>2026-04-18T10:45:59.262Z</time></trkpt><trkpt lat="44.7070707" lon="9.4987729"><ele>993.0</ele><time>2026-04-18T10:46:00.26Z</time></trkpt><trkpt lat="44.7071138" lon="9.4985626"><ele>992.6666666666667</ele><time>2026-04-18T10:46:01.26Z</time></trkpt><trkpt lat="44.707171" lon="9.4983486"><ele>992.3333333333334</ele><time>2026-04-18T10:46:02.261Z</time></trkpt><trkpt lat="44.7072346" lon="9.498154"><ele>992.0</ele><time>2026-04-18T10:46:03.261Z</time></trkpt><trkpt lat="44.7073047" lon="9.497984"><ele>993.0</ele><time>2026-04-18T10:46:04.261Z</time></trkpt><trkpt lat="44.7073769" lon="9.4978566"><ele>994.0</ele><time>2026-04-18T10:46:05.26Z</time></trkpt><trkpt lat="44.7074632" lon="9.4977734"><ele>995.0</ele><time>2026-04-18T10:46:06.26Z</time></trkpt><trkpt lat="44.7075662" lon="9.4977314"><ele>996.0</ele><time>2026-04-18T10:46:07.261Z</time></trkpt><trkpt lat="44.7076764" lon="9.4977151"><ele>997.0</ele><time>2026-04-18T10:46:08.261Z</time></trkpt><trkpt lat="44.7077913" lon="9.4977224"><ele>997.6</ele><time>2026-04-18T10:46:09.261Z</time></trkpt><trkpt lat="44.7079023" lon="9.4977516"><ele>998.2</ele><time>2026-04-18T10:46:10.261Z</time></trkpt><trkpt lat="44.7079974" lon="9.4978113"><ele>998.8</ele><time>2026-04-18T10:46:11.26Z</time></trkpt><trkpt lat="44.7080689" lon="9.497909"><ele>999.4</ele><time>2026-04-18T10:46:12.26Z</time></trkpt><trkpt lat="44.7081036" lon="9.4980362"><ele>1000.0</ele><time>2026-04-18T10:46:13.26Z</time></trkpt><trkpt lat="44.7081047" lon="9.4981837"><ele>1000.0</ele><time>2026-04-18T10:46:14.261Z</time></trkpt><trkpt lat="44.7080854" lon="9.4983392"><ele>1000.0</ele><time>2026-04-18T10:46:15.261Z</time></trkpt><trkpt lat="44.70806" lon="9.4985063"><ele>1000.0</ele><time>2026-04-18T10:46:16.26Z</time></trkpt><trkpt lat="44.7080472" lon="9.4986811"><ele>1000.0</ele><time>2026-04-18T10:46:17.261Z</time></trkpt><trkpt lat="44.708042" lon="9.4988641"><ele>1000.5</ele><time>2026-04-18T10:46:18.262Z</time></trkpt><trkpt lat="44.7080348" lon="9.499051"><ele>1001.0</ele><time>2026-04-18T10:46:19.261Z</time></trkpt><trkpt lat="44.7080312" lon="9.499235"><ele>1001.5</ele><time>2026-04-18T10:46:20.261Z</time></trkpt><trkpt lat="44.7080391" lon="9.4994038"><ele>1002.0</ele><time>2026-04-18T10:46:21.261Z</time></trkpt><trkpt lat="44.7080487" lon="9.499567"><ele>1002.0</ele><time>2026-04-18T10:46:22.26Z</time></trkpt><trkpt lat="44.7080711" lon="9.4997178"><ele>1002.0</ele><time>2026-04-18T10:46:23.261Z</time></trkpt><trkpt lat="44.7081109" lon="9.4998392"><ele>1002.0</ele><time>2026-04-18T10:46:24.26Z</time></trkpt><trkpt lat="44.7081749" lon="9.4999312"><ele>1002.0</ele><time>2026-04-18T10:46:25.26Z</time></trkpt><trkpt lat="44.7082609" lon="9.5000066"><ele>1002.0</ele><time>2026-04-18T10:46:26.262Z</time></trkpt><trkpt lat="44.7083537" lon="9.5000622"><ele>1002.0</ele><time>2026-04-18T10:46:27.261Z</time></trkpt><trkpt lat="44.7084522" lon="9.5001102"><ele>1002.0</ele><time>2026-04-18T10:46:28.261Z</time></trkpt><trkpt lat="44.708553" lon="9.5001527"><ele>1002.0</ele><time>2026-04-18T10:46:29.26Z</time></trkpt><trkpt lat="44.708661" lon="9.500177"><ele>1002.0</ele><time>2026-04-18T10:46:30.26Z</time></trkpt><trkpt lat="44.7087726" lon="9.5001831"><ele>1002.0</ele><time>2026-04-18T10:46:31.262Z</time></trkpt><trkpt lat="44.708882" lon="9.5001805"><ele>1004.2</ele><time>2026-04-18T10:46:32.26Z</time></trkpt><trkpt lat="44.7089847" lon="9.5001743"><ele>1006.4000000000001</ele><time>2026-04-18T10:46:33.26Z</time></trkpt><trkpt lat="44.7090843" lon="9.5001689"><ele>1008.5999999999999</ele><time>2026-04-18T10:46:34.261Z</time></trkpt><trkpt lat="44.7091807" lon="9.5001721"><ele>1010.8</ele><time>2026-04-18T10:46:35.261Z</time></trkpt><trkpt lat="44.709275" lon="9.5002197"><ele>1013.0</ele><time>2026-04-18T10:46:36.262Z</time></trkpt><trkpt lat="44.7093535" lon="9.5003187"><ele>1016.2</ele><time>2026-04-18T10:46:37.261Z</time></trkpt><trkpt lat="44.7094211" lon="9.5004371"><ele>1019.4</ele><time>2026-04-18T10:46:38.261Z</time></trkpt><trkpt lat="44.7094708" lon="9.5005663"><ele>1022.6000000000001</ele><time>2026-04-18T10:46:39.261Z</time></trkpt><trkpt lat="44.70952" lon="9.5007031"><ele>1025.8</ele><time>2026-04-18T10:46:40.26Z</time></trkpt><trkpt lat="44.7095735" lon="9.5008255"><ele>1029.0</ele><time>2026-04-18T10:46:41.261Z</time></trkpt><trkpt lat="44.7096323" lon="9.5009421"><ele>1029.0</ele><time>2026-04-18T10:46:42.261Z</time></trkpt><trkpt lat="44.7097106" lon="9.5010498"><ele>1029.0</ele><time>2026-04-18T10:46:43.262Z</time></trkpt><trkpt lat="44.709802" lon="9.5011418"><ele>1029.0</ele><time>2026-04-18T10:46:44.261Z</time></trkpt><trkpt lat="44.7098972" lon="9.501218"><ele>1029.0</ele><time>2026-04-18T10:46:45.26Z</time></trkpt><trkpt lat="44.7099965" lon="9.5012935"><ele>1029.0</ele><time>2026-04-18T10:46:46.26Z</time></trkpt><trkpt lat="44.7100944" lon="9.5013691"><ele>1027.8</ele><time>2026-04-18T10:46:47.26Z</time></trkpt><trkpt lat="44.7101886" lon="9.5014468"><ele>1026.6000000000001</ele><time>2026-04-18T10:46:48.261Z</time></trkpt><trkpt lat="44.7102749" lon="9.5015226"><ele>1025.4</ele><time>2026-04-18T10:46:49.261Z</time></trkpt><trkpt lat="44.7103407" lon="9.5016014"><ele>1024.2</ele><time>2026-04-18T10:46:50.262Z</time></trkpt><trkpt lat="44.7103812" lon="9.5017068"><ele>1023.0</ele><time>2026-04-18T10:46:51.261Z</time></trkpt><trkpt lat="44.7104157" lon="9.5018328"><ele>1026.2</ele><time>2026-04-18T10:46:52.261Z</time></trkpt><trkpt lat="44.7104447" lon="9.5019603"><ele>1029.4</ele><time>2026-04-18T10:46:53.26Z</time></trkpt><trkpt lat="44.7104741" lon="9.5020998"><ele>1032.6000000000001</ele><time>2026-04-18T10:46:54.262Z</time></trkpt><trkpt lat="44.7105014" lon="9.5022398"><ele>1035.8</ele><time>2026-04-18T10:46:55.261Z</time></trkpt><trkpt lat="44.7105287" lon="9.5023688"><ele>1039.0</ele><time>2026-04-18T10:46:56.26Z</time></trkpt><trkpt lat="44.7105557" lon="9.5024961"><ele>1039.0</ele><time>2026-04-18T10:46:57.261Z</time></trkpt><trkpt lat="44.7105884" lon="9.5026217"><ele>1039.0</ele><time>2026-04-18T10:46:58.261Z</time></trkpt><trkpt lat="44.7106276" lon="9.5027475"><ele>1039.0</ele><time>2026-04-18T10:46:59.261Z</time></trkpt><trkpt lat="44.7106931" lon="9.5028529"><ele>1039.0</ele><time>2026-04-18T10:47:00.262Z</time></trkpt><trkpt lat="44.7107786" lon="9.5029526"><ele>1039.0</ele><time>2026-04-18T10:47:01.26Z</time></trkpt><trkpt lat="44.710885" lon="9.5030407"><ele>1038.75</ele><time>2026-04-18T10:47:02.26Z</time></trkpt><trkpt lat="44.7109888" lon="9.5031188"><ele>1038.5</ele><time>2026-04-18T10:47:03.26Z</time></trkpt><trkpt lat="44.7110911" lon="9.503198"><ele>1038.25</ele><time>2026-04-18T10:47:04.261Z</time></trkpt><trkpt lat="44.7111904" lon="9.5032867"><ele>1038.0</ele><time>2026-04-18T10:47:05.26Z</time></trkpt><trkpt lat="44.7112699" lon="9.503397"><ele>1042.0</ele><time>2026-04-18T10:47:06.26Z</time></trkpt><trkpt lat="44.7113486" lon="9.5035166"><ele>1046.0</ele><time>2026-04-18T10:47:07.26Z</time></trkpt><trkpt lat="44.7113765" lon="9.5036994"><ele>1050.0</ele><time>2026-04-18T10:47:08.261Z</time></trkpt><trkpt lat="44.7114104" lon="9.5038551"><ele>1054.0</ele><time>2026-04-18T10:47:09.261Z</time></trkpt><trkpt lat="44.7114238" lon="9.5040123"><ele>1054.0</ele><time>2026-04-18T10:47:10.26Z</time></trkpt><trkpt lat="44.7114149" lon="9.504158"><ele>1054.0</ele><time>2026-04-18T10:47:11.26Z</time></trkpt><trkpt lat="44.7113748" lon="9.5042895"><ele>1054.0</ele><time>2026-04-18T10:47:12.261Z</time></trkpt><trkpt lat="44.711311" lon="9.5044023"><ele>1054.0</ele><time>2026-04-18T10:47:13.26Z</time></trkpt><trkpt lat="44.7112503" lon="9.5045115"><ele>1054.0</ele><time>2026-04-18T10:47:14.26Z</time></trkpt><trkpt lat="44.7112177" lon="9.5046205"><ele>1054.0</ele><time>2026-04-18T10:47:15.262Z</time></trkpt><trkpt lat="44.7112188" lon="9.5047287"><ele>1054.0</ele><time>2026-04-18T10:47:16.262Z</time></trkpt><trkpt lat="44.7112528" lon="9.5048322"><ele>1054.0</ele><time>2026-04-18T10:47:17.26Z</time></trkpt><trkpt lat="44.7113204" lon="9.5049035"><ele>1054.0</ele><time>2026-04-18T10:47:18.261Z</time></trkpt><trkpt lat="44.7113959" lon="9.5049288"><ele>1054.0</ele><time>2026-04-18T10:47:19.26Z</time></trkpt><trkpt lat="44.7114783" lon="9.5048987"><ele>1054.0</ele><time>2026-04-18T10:47:20.262Z</time></trkpt><trkpt lat="44.7115543" lon="9.5048267"><ele>1054.0</ele><time>2026-04-18T10:47:21.261Z</time></trkpt><trkpt lat="44.711638" lon="9.5047421"><ele>1054.0</ele><time>2026-04-18T10:47:22.261Z</time></trkpt><trkpt lat="44.711729" lon="9.5046528"><ele>1054.0</ele><time>2026-04-18T10:47:23.261Z</time></trkpt><trkpt lat="44.7118141" lon="9.5045645"><ele>1054.0</ele><time>2026-04-18T10:47:24.26Z</time></trkpt><trkpt lat="44.7118925" lon="9.5044524"><ele>1054.0</ele><time>2026-04-18T10:47:25.26Z</time></trkpt><trkpt lat="44.7119583" lon="9.5043146"><ele>1056.5</ele><time>2026-04-18T10:47:26.261Z</time></trkpt><trkpt lat="44.7120032" lon="9.5041355"><ele>1059.0</ele><time>2026-04-18T10:47:27.262Z</time></trkpt><trkpt lat="44.7120346" lon="9.5039742"><ele>1061.5</ele><time>2026-04-18T10:47:28.262Z</time></trkpt><trkpt lat="44.7120641" lon="9.5038282"><ele>1064.0</ele><time>2026-04-18T10:47:29.26Z</time></trkpt><trkpt lat="44.712088" lon="9.503687"><ele>1064.25</ele><time>2026-04-18T10:47:30.26Z</time></trkpt><trkpt lat="44.712109" lon="9.5035285"><ele>1064.5</ele><time>2026-04-18T10:47:31.262Z</time></trkpt><trkpt lat="44.7121253" lon="9.5033531"><ele>1064.75</ele><time>2026-04-18T10:47:32.261Z</time></trkpt><trkpt lat="44.7121306" lon="9.5031238"><ele>1065.0</ele><time>2026-04-18T10:47:33.26Z</time></trkpt><trkpt lat="44.7121246" lon="9.5028745"><ele>1066.5</ele><time>2026-04-18T10:47:34.26Z</time></trkpt><trkpt lat="44.7121167" lon="9.5026642"><ele>1068.0</ele><time>2026-04-18T10:47:35.261Z</time></trkpt><trkpt lat="44.712112" lon="9.5024857"><ele>1069.5</ele><time>2026-04-18T10:47:36.26Z</time></trkpt><trkpt lat="44.7121111" lon="9.5023323"><ele>1071.0</ele><time>2026-04-18T10:47:37.261Z</time></trkpt><trkpt lat="44.7121111" lon="9.5021923"><ele>1072.6</ele><time>2026-04-18T10:47:38.262Z</time></trkpt><trkpt lat="44.712107" lon="9.5020407"><ele>1074.1999999999998</ele><time>2026-04-18T10:47:39.261Z</time></trkpt><trkpt lat="44.7121085" lon="9.5018936"><ele>1075.8000000000002</ele><time>2026-04-18T10:47:40.26Z</time></trkpt><trkpt lat="44.7121139" lon="9.5017418"><ele>1077.4</ele><time>2026-04-18T10:47:41.261Z</time></trkpt><trkpt lat="44.7121243" lon="9.5015973"><ele>1079.0</ele><time>2026-04-18T10:47:42.261Z</time></trkpt><trkpt lat="44.712156" lon="9.5014566"><ele>1079.0</ele><time>2026-04-18T10:47:43.261Z</time></trkpt><trkpt lat="44.7122141" lon="9.5013181"><ele>1079.0</ele><time>2026-04-18T10:47:44.261Z</time></trkpt><trkpt lat="44.712299" lon="9.5011768"><ele>1079.0</ele><time>2026-04-18T10:47:45.26Z</time></trkpt><trkpt lat="44.712395" lon="9.5010184"><ele>1079.0</ele><time>2026-04-18T10:47:46.26Z</time></trkpt><trkpt lat="44.7124916" lon="9.5008597"><ele>1078.5</ele><time>2026-04-18T10:47:47.26Z</time></trkpt><trkpt lat="44.7125774" lon="9.5007048"><ele>1078.0</ele><time>2026-04-18T10:47:48.26Z</time></trkpt><trkpt lat="44.7126464" lon="9.5005366"><ele>1077.5</ele><time>2026-04-18T10:47:49.261Z</time></trkpt><trkpt lat="44.7126848" lon="9.5003683"><ele>1077.0</ele><time>2026-04-18T10:47:50.261Z</time></trkpt><trkpt lat="44.7126969" lon="9.5001914"><ele>1077.0</ele><time>2026-04-18T10:47:51.26Z</time></trkpt><trkpt lat="44.7126967" lon="9.5000175"><ele>1077.0</ele><time>2026-04-18T10:47:52.261Z</time></trkpt><trkpt lat="44.7127076" lon="9.4998538"><ele>1077.0</ele><time>2026-04-18T10:47:53.262Z</time></trkpt><trkpt lat="44.7127418" lon="9.4997372"><ele>1077.0</ele><time>2026-04-18T10:47:54.261Z</time></trkpt><trkpt lat="44.7127909" lon="9.4996618"><ele>1077.0</ele><time>2026-04-18T10:47:55.261Z</time></trkpt><trkpt lat="44.7128833" lon="9.4995479"><ele>1077.0</ele><time>2026-04-18T10:47:57.261Z</time></trkpt><trkpt lat="44.712907" lon="9.4994522"><ele>1077.0</ele><time>2026-04-18T10:47:58.26Z</time></trkpt><trkpt lat="44.7129305" lon="9.4993182"><ele>1077.0</ele><time>2026-04-18T10:47:59.261Z</time></trkpt><trkpt lat="44.7129616" lon="9.4991532"><ele>1077.0</ele><time>2026-04-18T10:48:00.261Z</time></trkpt><trkpt lat="44.7129955" lon="9.4989852"><ele>1077.0</ele><time>2026-04-18T10:48:01.261Z</time></trkpt><trkpt lat="44.7130321" lon="9.4988078"><ele>1077.0</ele><time>2026-04-18T10:48:02.261Z</time></trkpt><trkpt lat="44.7130615" lon="9.4986127"><ele>1077.0</ele><time>2026-04-18T10:48:03.261Z</time></trkpt><trkpt lat="44.713076" lon="9.4984159"><ele>1077.0</ele><time>2026-04-18T10:48:04.261Z</time></trkpt><trkpt lat="44.7130799" lon="9.498224"><ele>1077.0</ele><time>2026-04-18T10:48:05.26Z</time></trkpt><trkpt lat="44.7130833" lon="9.4980292"><ele>1077.6666666666667</ele><time>2026-04-18T10:48:06.262Z</time></trkpt><trkpt lat="44.7130831" lon="9.4978113"><ele>1078.3333333333335</ele><time>2026-04-18T10:48:07.261Z</time></trkpt><trkpt lat="44.7130818" lon="9.4975984"><ele>1079.0</ele><time>2026-04-18T10:48:08.262Z</time></trkpt><trkpt lat="44.7130844" lon="9.4973939"><ele>1079.0</ele><time>2026-04-18T10:48:09.261Z</time></trkpt><trkpt lat="44.7130872" lon="9.4971895"><ele>1079.0</ele><time>2026-04-18T10:48:10.262Z</time></trkpt><trkpt lat="44.7130784" lon="9.4969839"><ele>1079.0</ele><time>2026-04-18T10:48:11.26Z</time></trkpt><trkpt lat="44.7130558" lon="9.4967786"><ele>1079.0</ele><time>2026-04-18T10:48:12.261Z</time></trkpt><trkpt lat="44.7130266" lon="9.4965955"><ele>1079.75</ele><time>2026-04-18T10:48:13.261Z</time></trkpt><trkpt lat="44.7129898" lon="9.4964233"><ele>1080.5</ele><time>2026-04-18T10:48:14.262Z</time></trkpt><trkpt lat="44.7129583" lon="9.4962554"><ele>1081.25</ele><time>2026-04-18T10:48:15.261Z</time></trkpt><trkpt lat="44.7129301" lon="9.4960927"><ele>1082.0</ele><time>2026-04-18T10:48:16.26Z</time></trkpt><trkpt lat="44.7129033" lon="9.4959229"><ele>1082.5</ele><time>2026-04-18T10:48:17.26Z</time></trkpt><trkpt lat="44.7128762" lon="9.4957446"><ele>1083.0</ele><time>2026-04-18T10:48:18.261Z</time></trkpt><trkpt lat="44.7128486" lon="9.4955688"><ele>1083.5</ele><time>2026-04-18T10:48:19.261Z</time></trkpt><trkpt lat="44.7128134" lon="9.4953936"><ele>1084.0</ele><time>2026-04-18T10:48:20.263Z</time></trkpt><trkpt lat="44.7127766" lon="9.4952263"><ele>1085.75</ele><time>2026-04-18T10:48:21.26Z</time></trkpt><trkpt lat="44.7127388" lon="9.495054"><ele>1087.5</ele><time>2026-04-18T10:48:22.262Z</time></trkpt><trkpt lat="44.7126922" lon="9.4948722"><ele>1089.25</ele><time>2026-04-18T10:48:23.262Z</time></trkpt><trkpt lat="44.7126476" lon="9.4946944"><ele>1091.0</ele><time>2026-04-18T10:48:24.262Z</time></trkpt><trkpt lat="44.7126026" lon="9.4945144"><ele>1091.75</ele><time>2026-04-18T10:48:25.261Z</time></trkpt><trkpt lat="44.7125602" lon="9.4943488"><ele>1092.5</ele><time>2026-04-18T10:48:26.261Z</time></trkpt><trkpt lat="44.7125178" lon="9.4941792"><ele>1093.25</ele><time>2026-04-18T10:48:27.261Z</time></trkpt><trkpt lat="44.7124651" lon="9.4939986"><ele>1094.0</ele><time>2026-04-18T10:48:28.262Z</time></trkpt><trkpt lat="44.7124014" lon="9.4938165"><ele>1093.5</ele><time>2026-04-18T10:48:29.262Z</time></trkpt><trkpt lat="44.7123305" lon="9.4936323"><ele>1093.0</ele><time>2026-04-18T10:48:30.26Z</time></trkpt><trkpt lat="44.7122532" lon="9.4934578"><ele>1092.5</ele><time>2026-04-18T10:48:31.261Z</time></trkpt><trkpt lat="44.7121729" lon="9.4933057"><ele>1092.0</ele><time>2026-04-18T10:48:32.262Z</time></trkpt><trkpt lat="44.7121006" lon="9.4931785"><ele>1092.0</ele><time>2026-04-18T10:48:33.262Z</time></trkpt><trkpt lat="44.7120347" lon="9.4930658"><ele>1092.0</ele><time>2026-04-18T10:48:34.261Z</time></trkpt><trkpt lat="44.7119804" lon="9.492959"><ele>1092.0</ele><time>2026-04-18T10:48:35.261Z</time></trkpt><trkpt lat="44.7119398" lon="9.4928316"><ele>1092.0</ele><time>2026-04-18T10:48:36.261Z</time></trkpt><trkpt lat="44.7119153" lon="9.4926816"><ele>1092.0</ele><time>2026-04-18T10:48:37.26Z</time></trkpt><trkpt lat="44.7119026" lon="9.4925097"><ele>1091.0</ele><time>2026-04-18T10:48:38.26Z</time></trkpt><trkpt lat="44.7118915" lon="9.4923297"><ele>1090.0</ele><time>2026-04-18T10:48:39.261Z</time></trkpt><trkpt lat="44.7118816" lon="9.4921512"><ele>1089.0</ele><time>2026-04-18T10:48:40.261Z</time></trkpt><trkpt lat="44.7118749" lon="9.4919847"><ele>1088.0</ele><time>2026-04-18T10:48:41.261Z</time></trkpt><trkpt lat="44.7118698" lon="9.4918444"><ele>1088.0</ele><time>2026-04-18T10:48:42.261Z</time></trkpt><trkpt lat="44.7118643" lon="9.4917214"><ele>1088.0</ele><time>2026-04-18T10:48:43.261Z</time></trkpt><trkpt lat="44.7118575" lon="9.4916221"><ele>1088.0</ele><time>2026-04-18T10:48:44.26Z</time></trkpt><trkpt lat="44.7118383" lon="9.4914953"><ele>1088.0</ele><time>2026-04-18T10:48:46.262Z</time></trkpt><trkpt lat="44.7118066" lon="9.4914132"><ele>1088.0</ele><time>2026-04-18T10:48:49.262Z</time></trkpt><trkpt lat="44.711758" lon="9.4913357"><ele>1088.0</ele><time>2026-04-18T10:51:35.26Z</time></trkpt><trkpt lat="44.7116959" lon="9.4912201"><ele>1089.0</ele><time>2026-04-18T10:51:37.261Z</time></trkpt><trkpt lat="44.7116376" lon="9.4910746"><ele>1090.0</ele><time>2026-04-18T10:51:39.261Z</time></trkpt><trkpt lat="44.7116146" lon="9.4909777"><ele>1091.0</ele><time>2026-04-18T10:51:40.261Z</time></trkpt><trkpt lat="44.711572" lon="9.4908532"><ele>1092.0</ele><time>2026-04-18T10:51:41.26Z</time></trkpt><trkpt lat="44.7115322" lon="9.4907331"><ele>1093.0</ele><time>2026-04-18T10:51:42.26Z</time></trkpt><trkpt lat="44.711508" lon="9.4906248"><ele>1093.0</ele><time>2026-04-18T10:51:43.262Z</time></trkpt><trkpt lat="44.7114886" lon="9.4905022"><ele>1093.0</ele><time>2026-04-18T10:51:44.261Z</time></trkpt><trkpt lat="44.7114697" lon="9.4903449"><ele>1093.0</ele><time>2026-04-18T10:51:45.26Z</time></trkpt><trkpt lat="44.7114378" lon="9.490179"><ele>1093.0</ele><time>2026-04-18T10:51:46.26Z</time></trkpt><trkpt lat="44.7114223" lon="9.4900025"><ele>1094.0</ele><time>2026-04-18T10:51:47.26Z</time></trkpt><trkpt lat="44.7113877" lon="9.4898245"><ele>1095.0</ele><time>2026-04-18T10:51:48.261Z</time></trkpt><trkpt lat="44.7113551" lon="9.4896552"><ele>1096.0</ele><time>2026-04-18T10:51:49.261Z</time></trkpt><trkpt lat="44.7113051" lon="9.4894845"><ele>1097.0</ele><time>2026-04-18T10:51:50.261Z</time></trkpt><trkpt lat="44.7112483" lon="9.4893163"><ele>1097.0</ele><time>2026-04-18T10:51:51.262Z</time></trkpt><trkpt lat="44.7112072" lon="9.4891507"><ele>1097.0</ele><time>2026-04-18T10:51:52.261Z</time></trkpt><trkpt lat="44.7111811" lon="9.4889905"><ele>1097.0</ele><time>2026-04-18T10:51:53.261Z</time></trkpt><trkpt lat="44.7111469" lon="9.4888551"><ele>1097.0</ele><time>2026-04-18T10:51:54.26Z</time></trkpt><trkpt lat="44.7111221" lon="9.4887409"><ele>1097.0</ele><time>2026-04-18T10:51:55.261Z</time></trkpt><trkpt lat="44.7110866" lon="9.4886283"><ele>1100.5</ele><time>2026-04-18T10:51:56.261Z</time></trkpt><trkpt lat="44.7110447" lon="9.488524"><ele>1104.0</ele><time>2026-04-18T10:51:57.26Z</time></trkpt><trkpt lat="44.7110208" lon="9.4884311"><ele>1107.5</ele><time>2026-04-18T10:51:58.261Z</time></trkpt><trkpt lat="44.7110142" lon="9.4883367"><ele>1111.0</ele><time>2026-04-18T10:51:59.261Z</time></trkpt><trkpt lat="44.7110108" lon="9.4882056"><ele>1114.5</ele><time>2026-04-18T10:52:00.262Z</time></trkpt><trkpt lat="44.7109983" lon="9.4880818"><ele>1118.0</ele><time>2026-04-18T10:52:01.261Z</time></trkpt><trkpt lat="44.7109878" lon="9.4879025"><ele>1118.8</ele><time>2026-04-18T10:52:02.26Z</time></trkpt><trkpt lat="44.7109889" lon="9.4877276"><ele>1119.6</ele><time>2026-04-18T10:52:03.261Z</time></trkpt><trkpt lat="44.7109644" lon="9.4875603"><ele>1120.4</ele><time>2026-04-18T10:52:04.261Z</time></trkpt><trkpt lat="44.7109373" lon="9.4874411"><ele>1121.2</ele><time>2026-04-18T10:52:05.261Z</time></trkpt><trkpt lat="44.7109141" lon="9.487296"><ele>1122.0</ele><time>2026-04-18T10:52:06.261Z</time></trkpt><trkpt lat="44.7108942" lon="9.4872028"><ele>1122.0</ele><time>2026-04-18T10:52:07.262Z</time></trkpt><trkpt lat="44.7108347" lon="9.4871356"><ele>1122.0</ele><time>2026-04-18T10:52:09.26Z</time></trkpt><trkpt lat="44.7107449" lon="9.487175"><ele>1122.0</ele><time>2026-04-18T10:52:11.262Z</time></trkpt><trkpt lat="44.7106947" lon="9.4872285"><ele>1122.0</ele><time>2026-04-18T10:52:12.261Z</time></trkpt><trkpt lat="44.7106375" lon="9.4873114"><ele>1122.0</ele><time>2026-04-18T10:52:13.258Z</time></trkpt><trkpt lat="44.7105584" lon="9.4874422"><ele>1122.0</ele><time>2026-04-18T10:52:14.262Z</time></trkpt><trkpt lat="44.7104706" lon="9.4875106"><ele>1122.0</ele><time>2026-04-18T10:52:15.261Z</time></trkpt><trkpt lat="44.7103918" lon="9.4875809"><ele>1122.0</ele><time>2026-04-18T10:52:16.26Z</time></trkpt><trkpt lat="44.7103054" lon="9.4876074"><ele>1122.0</ele><time>2026-04-18T10:52:18.262Z</time></trkpt><trkpt lat="44.7102774" lon="9.4875229"><ele>1122.0</ele><time>2026-04-18T10:52:20.261Z</time></trkpt><trkpt lat="44.7103035" lon="9.4873368"><ele>1122.0</ele><time>2026-04-18T10:52:22.26Z</time></trkpt><trkpt lat="44.7103349" lon="9.4872185"><ele>1123.0</ele><time>2026-04-18T10:52:23.261Z</time></trkpt><trkpt lat="44.710375" lon="9.487079"><ele>1124.0</ele><time>2026-04-18T10:52:24.261Z</time></trkpt><trkpt lat="44.7104138" lon="9.4869369"><ele>1125.0</ele><time>2026-04-18T10:52:25.262Z</time></trkpt><trkpt lat="44.7104366" lon="9.4868039"><ele>1126.0</ele><time>2026-04-18T10:52:26.261Z</time></trkpt><trkpt lat="44.7104431" lon="9.486679"><ele>1127.0</ele><time>2026-04-18T10:52:27.261Z</time></trkpt><trkpt lat="44.710429" lon="9.4865417"><ele>1127.0</ele><time>2026-04-18T10:52:28.261Z</time></trkpt><trkpt lat="44.7103853" lon="9.4863923"><ele>1127.0</ele><time>2026-04-18T10:52:29.262Z</time></trkpt><trkpt lat="44.7103499" lon="9.486236"><ele>1127.0</ele><time>2026-04-18T10:52:30.261Z</time></trkpt><trkpt lat="44.7103211" lon="9.4860807"><ele>1127.0</ele><time>2026-04-18T10:52:31.26Z</time></trkpt><trkpt lat="44.7102948" lon="9.485916"><ele>1128.0</ele><time>2026-04-18T10:52:32.261Z</time></trkpt><trkpt lat="44.7102723" lon="9.4857492"><ele>1129.0</ele><time>2026-04-18T10:52:33.261Z</time></trkpt><trkpt lat="44.7102483" lon="9.4855841"><ele>1130.0</ele><time>2026-04-18T10:52:34.261Z</time></trkpt><trkpt lat="44.7102209" lon="9.4854132"><ele>1131.0</ele><time>2026-04-18T10:52:35.26Z</time></trkpt><trkpt lat="44.7101936" lon="9.4852458"><ele>1135.25</ele><time>2026-04-18T10:52:36.261Z</time></trkpt><trkpt lat="44.7101726" lon="9.4850751"><ele>1139.5</ele><time>2026-04-18T10:52:37.26Z</time></trkpt><trkpt lat="44.7101443" lon="9.4849128"><ele>1143.75</ele><time>2026-04-18T10:52:38.26Z</time></trkpt><trkpt lat="44.7101077" lon="9.4847626"><ele>1148.0</ele><time>2026-04-18T10:52:39.261Z</time></trkpt><trkpt lat="44.7100579" lon="9.4846027"><ele>1149.2</ele><time>2026-04-18T10:52:40.261Z</time></trkpt><trkpt lat="44.7100206" lon="9.4844672"><ele>1150.4</ele><time>2026-04-18T10:52:41.261Z</time></trkpt><trkpt lat="44.709998" lon="9.4843414"><ele>1151.6000000000001</ele><time>2026-04-18T10:52:42.261Z</time></trkpt><trkpt lat="44.7099829" lon="9.4842071"><ele>1152.8</ele><time>2026-04-18T10:52:43.261Z</time></trkpt><trkpt lat="44.709974" lon="9.4840622"><ele>1154.0</ele><time>2026-04-18T10:52:44.261Z</time></trkpt><trkpt lat="44.7099773" lon="9.4839145"><ele>1154.0</ele><time>2026-04-18T10:52:45.261Z</time></trkpt><trkpt lat="44.7099779" lon="9.4837762"><ele>1154.0</ele><time>2026-04-18T10:52:46.261Z</time></trkpt><trkpt lat="44.7099839" lon="9.483661"><ele>1154.0</ele><time>2026-04-18T10:52:47.261Z</time></trkpt><trkpt lat="44.709983" lon="9.483541"><ele>1154.0</ele><time>2026-04-18T10:52:48.26Z</time></trkpt><trkpt lat="44.7099706" lon="9.4834089"><ele>1154.0</ele><time>2026-04-18T10:52:49.261Z</time></trkpt><trkpt lat="44.7099522" lon="9.4832685"><ele>1155.2</ele><time>2026-04-18T10:52:50.261Z</time></trkpt><trkpt lat="44.7099233" lon="9.483123"><ele>1156.4</ele><time>2026-04-18T10:52:51.262Z</time></trkpt><trkpt lat="44.7099028" lon="9.4829708"><ele>1157.6</ele><time>2026-04-18T10:52:52.262Z</time></trkpt><trkpt lat="44.7098971" lon="9.4828233"><ele>1158.8</ele><time>2026-04-18T10:52:53.261Z</time></trkpt><trkpt lat="44.709896" lon="9.4826881"><ele>1160.0</ele><time>2026-04-18T10:52:54.262Z</time></trkpt><trkpt lat="44.7099065" lon="9.4825653"><ele>1161.6</ele><time>2026-04-18T10:52:55.261Z</time></trkpt><trkpt lat="44.7099128" lon="9.4824387"><ele>1163.2</ele><time>2026-04-18T10:52:56.261Z</time></trkpt><trkpt lat="44.7099184" lon="9.4823149"><ele>1164.8</ele><time>2026-04-18T10:52:57.262Z</time></trkpt><trkpt lat="44.7099179" lon="9.4821827"><ele>1166.4</ele><time>2026-04-18T10:52:58.261Z</time></trkpt><trkpt lat="44.7099125" lon="9.4820431"><ele>1168.0</ele><time>2026-04-18T10:52:59.262Z</time></trkpt><trkpt lat="44.7099096" lon="9.4819239"><ele>1169.5</ele><time>2026-04-18T10:53:00.261Z</time></trkpt><trkpt lat="44.7099169" lon="9.4817938"><ele>1171.0</ele><time>2026-04-18T10:53:01.26Z</time></trkpt><trkpt lat="44.7099213" lon="9.4816642"><ele>1172.5</ele><time>2026-04-18T10:53:02.261Z</time></trkpt><trkpt lat="44.7099237" lon="9.481536"><ele>1174.0</ele><time>2026-04-18T10:53:03.26Z</time></trkpt><trkpt lat="44.7099345" lon="9.48143"><ele>1175.5</ele><time>2026-04-18T10:53:04.261Z</time></trkpt><trkpt lat="44.7099572" lon="9.4813219"><ele>1177.0</ele><time>2026-04-18T10:53:05.261Z</time></trkpt><trkpt lat="44.7099901" lon="9.4812136"><ele>1179.0</ele><time>2026-04-18T10:53:06.261Z</time></trkpt><trkpt lat="44.7100378" lon="9.4810653"><ele>1181.0</ele><time>2026-04-18T10:53:07.26Z</time></trkpt><trkpt lat="44.7100904" lon="9.4808882"><ele>1183.0</ele><time>2026-04-18T10:53:08.26Z</time></trkpt><trkpt lat="44.7101347" lon="9.4807238"><ele>1185.0</ele><time>2026-04-18T10:53:09.26Z</time></trkpt><trkpt lat="44.7101746" lon="9.4805913"><ele>1185.0</ele><time>2026-04-18T10:53:10.261Z</time></trkpt><trkpt lat="44.7102232" lon="9.4804884"><ele>1185.0</ele><time>2026-04-18T10:53:11.262Z</time></trkpt><trkpt lat="44.7102693" lon="9.4803781"><ele>1185.0</ele><time>2026-04-18T10:53:12.261Z</time></trkpt><trkpt lat="44.7103121" lon="9.4802381"><ele>1185.0</ele><time>2026-04-18T10:53:13.26Z</time></trkpt><trkpt lat="44.7103457" lon="9.4801142"><ele>1185.0</ele><time>2026-04-18T10:53:14.26Z</time></trkpt><trkpt lat="44.710368" lon="9.4800007"><ele>1184.6</ele><time>2026-04-18T10:53:15.261Z</time></trkpt><trkpt lat="44.71038" lon="9.4798837"><ele>1184.2</ele><time>2026-04-18T10:53:16.261Z</time></trkpt><trkpt lat="44.7103791" lon="9.479759"><ele>1183.8</ele><time>2026-04-18T10:53:17.261Z</time></trkpt><trkpt lat="44.7103724" lon="9.4796378"><ele>1183.4</ele><time>2026-04-18T10:53:18.261Z</time></trkpt><trkpt lat="44.710379" lon="9.4795367"><ele>1183.0</ele><time>2026-04-18T10:53:19.261Z</time></trkpt><trkpt lat="44.7104365" lon="9.4793565"><ele>1185.8333333333333</ele><time>2026-04-18T10:53:21.261Z</time></trkpt><trkpt lat="44.710458" lon="9.4792584"><ele>1188.6666666666665</ele><time>2026-04-18T10:53:22.262Z</time></trkpt><trkpt lat="44.7104769" lon="9.4791524"><ele>1191.5</ele><time>2026-04-18T10:53:23.261Z</time></trkpt><trkpt lat="44.7104958" lon="9.4790447"><ele>1194.3333333333333</ele><time>2026-04-18T10:53:24.261Z</time></trkpt><trkpt lat="44.7105149" lon="9.4789412"><ele>1197.1666666666667</ele><time>2026-04-18T10:53:25.26Z</time></trkpt><trkpt lat="44.7105195" lon="9.4787768"><ele>1200.0</ele><time>2026-04-18T10:53:27.26Z</time></trkpt><trkpt lat="44.7104677" lon="9.4786255"><ele>1201.142857142857</ele><time>2026-04-18T10:53:29.261Z</time></trkpt><trkpt lat="44.710419" lon="9.4785462"><ele>1202.2857142857142</ele><time>2026-04-18T10:53:30.262Z</time></trkpt><trkpt lat="44.7104016" lon="9.4784392"><ele>1203.4285714285716</ele><time>2026-04-18T10:53:32.26Z</time></trkpt><trkpt lat="44.710434" lon="9.4783289"><ele>1204.5714285714284</ele><time>2026-04-18T10:53:34.261Z</time></trkpt><trkpt lat="44.7104095" lon="9.4782465"><ele>1205.7142857142858</ele><time>2026-04-18T10:53:41.26Z</time></trkpt><trkpt lat="44.7103773" lon="9.4781684"><ele>1206.857142857143</ele><time>2026-04-18T10:55:44.261Z</time></trkpt><trkpt lat="44.7103524" lon="9.4780689"><ele>1208.0</ele><time>2026-04-18T10:55:50.26Z</time></trkpt><trkpt lat="44.7103057" lon="9.4779872"><ele>1208.0</ele><time>2026-04-18T10:55:53.26Z</time></trkpt><trkpt lat="44.7102474" lon="9.4779361"><ele>1208.0</ele><time>2026-04-18T10:56:21.261Z</time></trkpt><trkpt lat="44.710175" lon="9.4778374"><ele>1208.0</ele><time>2026-04-18T10:56:23.261Z</time></trkpt><trkpt lat="44.7101243" lon="9.4777672"><ele>1208.0</ele><time>2026-04-18T10:56:24.261Z</time></trkpt><trkpt lat="44.7100673" lon="9.477683"><ele>1208.0</ele><time>2026-04-18T10:56:25.261Z</time></trkpt><trkpt lat="44.7100093" lon="9.4776007"><ele>1208.0</ele><time>2026-04-18T10:56:26.262Z</time></trkpt><trkpt lat="44.7099604" lon="9.4774946"><ele>1211.2</ele><time>2026-04-18T10:56:27.261Z</time></trkpt><trkpt lat="44.7099245" lon="9.4773671"><ele>1214.4</ele><time>2026-04-18T10:56:28.261Z</time></trkpt><trkpt lat="44.7099028" lon="9.477215"><ele>1217.6000000000001</ele><time>2026-04-18T10:56:29.262Z</time></trkpt><trkpt lat="44.7098945" lon="9.4770625"><ele>1220.8</ele><time>2026-04-18T10:56:30.261Z</time></trkpt><trkpt lat="44.709912" lon="9.476909"><ele>1224.0</ele><time>2026-04-18T10:56:31.261Z</time></trkpt><trkpt lat="44.7099306" lon="9.4767471"><ele>1224.0</ele><time>2026-04-18T10:56:32.261Z</time></trkpt><trkpt lat="44.7099337" lon="9.4765919"><ele>1224.0</ele><time>2026-04-18T10:56:33.262Z</time></trkpt><trkpt lat="44.7099201" lon="9.4764388"><ele>1224.0</ele><time>2026-04-18T10:56:34.261Z</time></trkpt><trkpt lat="44.7098903" lon="9.4762897"><ele>1224.0</ele><time>2026-04-18T10:56:35.26Z</time></trkpt><trkpt lat="44.7098681" lon="9.4761382"><ele>1224.0</ele><time>2026-04-18T10:56:36.26Z</time></trkpt><trkpt lat="44.7098616" lon="9.4759863"><ele>1224.4</ele><time>2026-04-18T10:56:37.261Z</time></trkpt><trkpt lat="44.7098604" lon="9.4758383"><ele>1224.8000000000002</ele><time>2026-04-18T10:56:38.261Z</time></trkpt><trkpt lat="44.7098621" lon="9.4757023"><ele>1225.1999999999998</ele><time>2026-04-18T10:56:39.261Z</time></trkpt><trkpt lat="44.7098702" lon="9.4755707"><ele>1225.6</ele><time>2026-04-18T10:56:40.261Z</time></trkpt><trkpt lat="44.7098919" lon="9.4754571"><ele>1226.0</ele><time>2026-04-18T10:56:41.261Z</time></trkpt><trkpt lat="44.709935" lon="9.4753408"><ele>1227.8</ele><time>2026-04-18T10:56:42.261Z</time></trkpt><trkpt lat="44.7100028" lon="9.4752456"><ele>1229.6</ele><time>2026-04-18T10:56:43.26Z</time></trkpt><trkpt lat="44.7100832" lon="9.475167"><ele>1231.4</ele><time>2026-04-18T10:56:44.26Z</time></trkpt><trkpt lat="44.710168" lon="9.4750895"><ele>1233.2</ele><time>2026-04-18T10:56:45.261Z</time></trkpt><trkpt lat="44.7102427" lon="9.474986"><ele>1235.0</ele><time>2026-04-18T10:56:46.261Z</time></trkpt><trkpt lat="44.7102995" lon="9.4748575"><ele>1233.25</ele><time>2026-04-18T10:56:47.261Z</time></trkpt><trkpt lat="44.7103465" lon="9.4747181"><ele>1231.5</ele><time>2026-04-18T10:56:48.26Z</time></trkpt><trkpt lat="44.7103977" lon="9.474575"><ele>1229.75</ele><time>2026-04-18T10:56:49.26Z</time></trkpt><trkpt lat="44.7104573" lon="9.4744341"><ele>1228.0</ele><time>2026-04-18T10:56:50.26Z</time></trkpt><trkpt lat="44.7105178" lon="9.4742913"><ele>1228.0</ele><time>2026-04-18T10:56:51.261Z</time></trkpt><trkpt lat="44.7105764" lon="9.4741458"><ele>1228.0</ele><time>2026-04-18T10:56:52.261Z</time></trkpt><trkpt lat="44.710628" lon="9.473998"><ele>1228.0</ele><time>2026-04-18T10:56:53.26Z</time></trkpt><trkpt lat="44.7106797" lon="9.4738525"><ele>1228.0</ele><time>2026-04-18T10:56:54.261Z</time></trkpt><trkpt lat="44.7107358" lon="9.473712"><ele>1227.6</ele><time>2026-04-18T10:56:55.261Z</time></trkpt><trkpt lat="44.7107897" lon="9.4735737"><ele>1227.1999999999998</ele><time>2026-04-18T10:56:56.261Z</time></trkpt><trkpt lat="44.7108457" lon="9.473436"><ele>1226.8</ele><time>2026-04-18T10:56:57.261Z</time></trkpt><trkpt lat="44.7109127" lon="9.4733093"><ele>1226.3999999999999</ele><time>2026-04-18T10:56:58.261Z</time></trkpt><trkpt lat="44.7109906" lon="9.4732098"><ele>1226.0</ele><time>2026-04-18T10:56:59.26Z</time></trkpt><trkpt lat="44.7110874" lon="9.4731428"><ele>1226.0</ele><time>2026-04-18T10:57:00.261Z</time></trkpt><trkpt lat="44.7111932" lon="9.473111"><ele>1226.0</ele><time>2026-04-18T10:57:01.261Z</time></trkpt><trkpt lat="44.7113015" lon="9.4731069"><ele>1226.0</ele><time>2026-04-18T10:57:02.261Z</time></trkpt><trkpt lat="44.7114044" lon="9.4731095"><ele>1226.0</ele><time>2026-04-18T10:57:03.261Z</time></trkpt><trkpt lat="44.7114968" lon="9.4730787"><ele>1226.0</ele><time>2026-04-18T10:57:04.26Z</time></trkpt><trkpt lat="44.7115706" lon="9.4730189"><ele>1225.2</ele><time>2026-04-18T10:57:05.261Z</time></trkpt><trkpt lat="44.7116222" lon="9.4729173"><ele>1224.3999999999999</ele><time>2026-04-18T10:57:06.261Z</time></trkpt><trkpt lat="44.7116847" lon="9.4728061"><ele>1223.6</ele><time>2026-04-18T10:57:07.261Z</time></trkpt><trkpt lat="44.7117223" lon="9.4726757"><ele>1222.8</ele><time>2026-04-18T10:57:08.261Z</time></trkpt><trkpt lat="44.7118206" lon="9.472567"><ele>1222.0</ele><time>2026-04-18T10:57:09.261Z</time></trkpt><trkpt lat="44.7119272" lon="9.4724713"><ele>1222.0</ele><time>2026-04-18T10:57:10.26Z</time></trkpt><trkpt lat="44.7120364" lon="9.4723673"><ele>1222.0</ele><time>2026-04-18T10:57:11.26Z</time></trkpt><trkpt lat="44.7121501" lon="9.4722565"><ele>1222.0</ele><time>2026-04-18T10:57:12.262Z</time></trkpt><trkpt lat="44.7122603" lon="9.4721614"><ele>1222.0</ele><time>2026-04-18T10:57:13.261Z</time></trkpt><trkpt lat="44.712365" lon="9.4720722"><ele>1223.6</ele><time>2026-04-18T10:57:14.261Z</time></trkpt><trkpt lat="44.7124567" lon="9.4719742"><ele>1225.2</ele><time>2026-04-18T10:57:15.262Z</time></trkpt><trkpt lat="44.712533" lon="9.4718603"><ele>1226.8</ele><time>2026-04-18T10:57:16.262Z</time></trkpt><trkpt lat="44.7125959" lon="9.4717473"><ele>1228.4</ele><time>2026-04-18T10:57:17.262Z</time></trkpt><trkpt lat="44.7126646" lon="9.4716528"><ele>1230.0</ele><time>2026-04-18T10:57:18.261Z</time></trkpt><trkpt lat="44.7127552" lon="9.4715999"><ele>1230.0</ele><time>2026-04-18T10:57:19.26Z</time></trkpt><trkpt lat="44.7128594" lon="9.4716011"><ele>1230.0</ele><time>2026-04-18T10:57:20.261Z</time></trkpt><trkpt lat="44.7129675" lon="9.4716327"><ele>1230.0</ele><time>2026-04-18T10:57:21.26Z</time></trkpt><trkpt lat="44.7130706" lon="9.471701"><ele>1230.0</ele><time>2026-04-18T10:57:22.261Z</time></trkpt><trkpt lat="44.713176" lon="9.471774"><ele>1230.0</ele><time>2026-04-18T10:57:23.261Z</time></trkpt><trkpt lat="44.7132748" lon="9.4718342"><ele>1230.0</ele><time>2026-04-18T10:57:24.261Z</time></trkpt><trkpt lat="44.713375" lon="9.4718761"><ele>1230.0</ele><time>2026-04-18T10:57:25.261Z</time></trkpt><trkpt lat="44.7134732" lon="9.4718834"><ele>1230.0</ele><time>2026-04-18T10:57:26.26Z</time></trkpt><trkpt lat="44.7135542" lon="9.4718416"><ele>1230.0</ele><time>2026-04-18T10:57:27.26Z</time></trkpt><trkpt lat="44.713609" lon="9.4717608"><ele>1230.0</ele><time>2026-04-18T10:57:28.26Z</time></trkpt><trkpt lat="44.7136312" lon="9.4716496"><ele>1228.2</ele><time>2026-04-18T10:57:29.261Z</time></trkpt><trkpt lat="44.7136273" lon="9.4715149"><ele>1226.4</ele><time>2026-04-18T10:57:30.262Z</time></trkpt><trkpt lat="44.7136173" lon="9.4713668"><ele>1224.6</ele><time>2026-04-18T10:57:31.261Z</time></trkpt><trkpt lat="44.7136337" lon="9.4712198"><ele>1222.8</ele><time>2026-04-18T10:57:32.261Z</time></trkpt><trkpt lat="44.7136841" lon="9.471076"><ele>1221.0</ele><time>2026-04-18T10:57:33.262Z</time></trkpt><trkpt lat="44.7137479" lon="9.4709425"><ele>1221.0</ele><time>2026-04-18T10:57:34.261Z</time></trkpt><trkpt lat="44.7138245" lon="9.4708193"><ele>1221.0</ele><time>2026-04-18T10:57:35.262Z</time></trkpt><trkpt lat="44.7139179" lon="9.4707242"><ele>1221.0</ele><time>2026-04-18T10:57:36.261Z</time></trkpt><trkpt lat="44.7140148" lon="9.4706529"><ele>1221.0</ele><time>2026-04-18T10:57:37.261Z</time></trkpt><trkpt lat="44.7141005" lon="9.4705676"><ele>1221.0</ele><time>2026-04-18T10:57:38.262Z</time></trkpt><trkpt lat="44.7141631" lon="9.4704537"><ele>1222.2</ele><time>2026-04-18T10:57:39.262Z</time></trkpt><trkpt lat="44.7141951" lon="9.4703103"><ele>1223.3999999999999</ele><time>2026-04-18T10:57:40.261Z</time></trkpt><trkpt lat="44.7141874" lon="9.4701654"><ele>1224.6</ele><time>2026-04-18T10:57:41.261Z</time></trkpt><trkpt lat="44.7141499" lon="9.4700202"><ele>1225.8</ele><time>2026-04-18T10:57:42.261Z</time></trkpt><trkpt lat="44.7140936" lon="9.4698929"><ele>1227.0</ele><time>2026-04-18T10:57:43.261Z</time></trkpt><trkpt lat="44.7140475" lon="9.4697784"><ele>1227.0</ele><time>2026-04-18T10:57:44.261Z</time></trkpt><trkpt lat="44.7140124" lon="9.4696627"><ele>1227.0</ele><time>2026-04-18T10:57:45.262Z</time></trkpt><trkpt lat="44.7140114" lon="9.4695513"><ele>1227.0</ele><time>2026-04-18T10:57:46.262Z</time></trkpt><trkpt lat="44.7141742" lon="9.4695467"><ele>1227.0</ele><time>2026-04-18T10:57:47.261Z</time></trkpt><trkpt lat="44.7142495" lon="9.4694965"><ele>1227.0</ele><time>2026-04-18T10:57:48.26Z</time></trkpt><trkpt lat="44.7143443" lon="9.469438"><ele>1223.6</ele><time>2026-04-18T10:57:49.26Z</time></trkpt><trkpt lat="44.7144296" lon="9.4693633"><ele>1220.2</ele><time>2026-04-18T10:57:50.261Z</time></trkpt><trkpt lat="44.7145038" lon="9.469275"><ele>1216.8</ele><time>2026-04-18T10:57:51.261Z</time></trkpt><trkpt lat="44.71457" lon="9.4691882"><ele>1213.4</ele><time>2026-04-18T10:57:52.261Z</time></trkpt><trkpt lat="44.7146202" lon="9.4690818"><ele>1210.0</ele><time>2026-04-18T10:57:53.261Z</time></trkpt><trkpt lat="44.7146417" lon="9.4689479"><ele>1210.0</ele><time>2026-04-18T10:57:54.261Z</time></trkpt><trkpt lat="44.7146309" lon="9.4687925"><ele>1210.0</ele><time>2026-04-18T10:57:55.26Z</time></trkpt><trkpt lat="44.7145952" lon="9.4686347"><ele>1210.0</ele><time>2026-04-18T10:57:56.26Z</time></trkpt><trkpt lat="44.7145532" lon="9.4684784"><ele>1210.0</ele><time>2026-04-18T10:57:57.26Z</time></trkpt><trkpt lat="44.7145139" lon="9.4683248"><ele>1210.4</ele><time>2026-04-18T10:57:58.26Z</time></trkpt><trkpt lat="44.7144792" lon="9.468172"><ele>1210.8</ele><time>2026-04-18T10:57:59.262Z</time></trkpt><trkpt lat="44.7144449" lon="9.468026"><ele>1211.2</ele><time>2026-04-18T10:58:00.261Z</time></trkpt><trkpt lat="44.7143928" lon="9.4679038"><ele>1211.6</ele><time>2026-04-18T10:58:01.261Z</time></trkpt><trkpt lat="44.7143132" lon="9.467809"><ele>1212.0</ele><time>2026-04-18T10:58:02.261Z</time></trkpt><trkpt lat="44.7142135" lon="9.4677396"><ele>1214.75</ele><time>2026-04-18T10:58:03.262Z</time></trkpt><trkpt lat="44.7141023" lon="9.4676898"><ele>1217.5</ele><time>2026-04-18T10:58:04.262Z</time></trkpt><trkpt lat="44.7139955" lon="9.4676343"><ele>1220.25</ele><time>2026-04-18T10:58:05.262Z</time></trkpt><trkpt lat="44.7138971" lon="9.4675553"><ele>1223.0</ele><time>2026-04-18T10:58:06.261Z</time></trkpt><trkpt lat="44.7138078" lon="9.4674581"><ele>1223.0</ele><time>2026-04-18T10:58:07.262Z</time></trkpt><trkpt lat="44.7137298" lon="9.4673427"><ele>1223.0</ele><time>2026-04-18T10:58:08.261Z</time></trkpt><trkpt lat="44.7136618" lon="9.4672145"><ele>1223.0</ele><time>2026-04-18T10:58:09.261Z</time></trkpt><trkpt lat="44.713617" lon="9.467083"><ele>1223.0</ele><time>2026-04-18T10:58:10.261Z</time></trkpt><trkpt lat="44.7136073" lon="9.4669404"><ele>1223.0</ele><time>2026-04-18T10:58:11.261Z</time></trkpt><trkpt lat="44.7136174" lon="9.4667833"><ele>1222.5</ele><time>2026-04-18T10:58:12.261Z</time></trkpt><trkpt lat="44.7136323" lon="9.4666159"><ele>1222.0</ele><time>2026-04-18T10:58:13.261Z</time></trkpt><trkpt lat="44.7136483" lon="9.4664434"><ele>1221.5</ele><time>2026-04-18T10:58:14.261Z</time></trkpt><trkpt lat="44.7136676" lon="9.466278"><ele>1221.0</ele><time>2026-04-18T10:58:15.262Z</time></trkpt><trkpt lat="44.7137117" lon="9.4661202"><ele>1221.0</ele><time>2026-04-18T10:58:16.26Z</time></trkpt><trkpt lat="44.7137881" lon="9.4659898"><ele>1221.0</ele><time>2026-04-18T10:58:17.262Z</time></trkpt><trkpt lat="44.713877" lon="9.4658839"><ele>1221.0</ele><time>2026-04-18T10:58:18.261Z</time></trkpt><trkpt lat="44.7139652" lon="9.4657863"><ele>1221.0</ele><time>2026-04-18T10:58:19.261Z</time></trkpt><trkpt lat="44.7140429" lon="9.4656832"><ele>1221.0</ele><time>2026-04-18T10:58:20.262Z</time></trkpt><trkpt lat="44.7141004" lon="9.4655648"><ele>1221.0</ele><time>2026-04-18T10:58:21.262Z</time></trkpt><trkpt lat="44.7141241" lon="9.4654287"><ele>1221.0</ele><time>2026-04-18T10:58:22.26Z</time></trkpt><trkpt lat="44.7141174" lon="9.4652757"><ele>1221.0</ele><time>2026-04-18T10:58:23.261Z</time></trkpt><trkpt lat="44.7140837" lon="9.4651241"><ele>1221.0</ele><time>2026-04-18T10:58:24.261Z</time></trkpt><trkpt lat="44.7140384" lon="9.464973"><ele>1220.6</ele><time>2026-04-18T10:58:25.261Z</time></trkpt><trkpt lat="44.7139834" lon="9.4648243"><ele>1220.1999999999998</ele><time>2026-04-18T10:58:26.261Z</time></trkpt><trkpt lat="44.7139206" lon="9.464698"><ele>1219.8000000000002</ele><time>2026-04-18T10:58:27.261Z</time></trkpt><trkpt lat="44.7138561" lon="9.4645899"><ele>1219.4</ele><time>2026-04-18T10:58:28.261Z</time></trkpt><trkpt lat="44.7137896" lon="9.464484"><ele>1219.0</ele><time>2026-04-18T10:58:29.26Z</time></trkpt><trkpt lat="44.7137306" lon="9.4643751"><ele>1218.4</ele><time>2026-04-18T10:58:30.261Z</time></trkpt><trkpt lat="44.7136944" lon="9.464247"><ele>1217.8000000000002</ele><time>2026-04-18T10:58:31.261Z</time></trkpt><trkpt lat="44.7136813" lon="9.464097"><ele>1217.1999999999998</ele><time>2026-04-18T10:58:32.262Z</time></trkpt><trkpt lat="44.713694" lon="9.463948"><ele>1216.6</ele><time>2026-04-18T10:58:33.261Z</time></trkpt><trkpt lat="44.7137266" lon="9.4638058"><ele>1216.0</ele><time>2026-04-18T10:58:34.261Z</time></trkpt><trkpt lat="44.7137814" lon="9.4636669"><ele>1215.5</ele><time>2026-04-18T10:58:35.261Z</time></trkpt><trkpt lat="44.7138548" lon="9.4635405"><ele>1215.0</ele><time>2026-04-18T10:58:36.26Z</time></trkpt><trkpt lat="44.7139398" lon="9.4634238"><ele>1214.5</ele><time>2026-04-18T10:58:37.26Z</time></trkpt><trkpt lat="44.7140255" lon="9.4633248"><ele>1214.0</ele><time>2026-04-18T10:58:38.261Z</time></trkpt><trkpt lat="44.7141176" lon="9.4632419"><ele>1214.0</ele><time>2026-04-18T10:58:39.261Z</time></trkpt><trkpt lat="44.714212" lon="9.463188"><ele>1214.0</ele><time>2026-04-18T10:58:40.261Z</time></trkpt><trkpt lat="44.7143078" lon="9.4631652"><ele>1214.0</ele><time>2026-04-18T10:58:41.262Z</time></trkpt><trkpt lat="44.7144059" lon="9.4631578"><ele>1214.0</ele><time>2026-04-18T10:58:42.261Z</time></trkpt><trkpt lat="44.7145058" lon="9.4631656"><ele>1214.0</ele><time>2026-04-18T10:58:43.261Z</time></trkpt><trkpt lat="44.7146044" lon="9.4631847"><ele>1213.4</ele><time>2026-04-18T10:58:44.26Z</time></trkpt><trkpt lat="44.7147025" lon="9.4632129"><ele>1212.8000000000002</ele><time>2026-04-18T10:58:45.261Z</time></trkpt><trkpt lat="44.7148058" lon="9.463238"><ele>1212.1999999999998</ele><time>2026-04-18T10:58:46.26Z</time></trkpt><trkpt lat="44.714909" lon="9.4632497"><ele>1211.6</ele><time>2026-04-18T10:58:47.26Z</time></trkpt><trkpt lat="44.7150072" lon="9.463243"><ele>1211.0</ele><time>2026-04-18T10:58:48.261Z</time></trkpt><trkpt lat="44.715107" lon="9.4632011"><ele>1211.0</ele><time>2026-04-18T10:58:49.262Z</time></trkpt><trkpt lat="44.7152027" lon="9.4631149"><ele>1211.0</ele><time>2026-04-18T10:58:50.261Z</time></trkpt><trkpt lat="44.7152912" lon="9.4630062"><ele>1211.0</ele><time>2026-04-18T10:58:51.261Z</time></trkpt><trkpt lat="44.715372" lon="9.4628926"><ele>1211.0</ele><time>2026-04-18T10:58:52.262Z</time></trkpt><trkpt lat="44.7154294" lon="9.4627752"><ele>1211.0</ele><time>2026-04-18T10:58:53.26Z</time></trkpt><trkpt lat="44.7154533" lon="9.46265"><ele>1209.8</ele><time>2026-04-18T10:58:54.261Z</time></trkpt><trkpt lat="44.7154345" lon="9.4625203"><ele>1208.6</ele><time>2026-04-18T10:58:55.262Z</time></trkpt><trkpt lat="44.7153803" lon="9.4624062"><ele>1207.4</ele><time>2026-04-18T10:58:56.261Z</time></trkpt><trkpt lat="44.715307" lon="9.4623019"><ele>1206.2</ele><time>2026-04-18T10:58:57.261Z</time></trkpt><trkpt lat="44.715252" lon="9.4621807"><ele>1205.0</ele><time>2026-04-18T10:58:58.26Z</time></trkpt><trkpt lat="44.7152327" lon="9.462046"><ele>1205.4</ele><time>2026-04-18T10:58:59.26Z</time></trkpt><trkpt lat="44.7152402" lon="9.4619155"><ele>1205.8</ele><time>2026-04-18T10:59:00.261Z</time></trkpt><trkpt lat="44.7152765" lon="9.4617922"><ele>1206.2</ele><time>2026-04-18T10:59:01.261Z</time></trkpt><trkpt lat="44.7153446" lon="9.4617013"><ele>1206.6</ele><time>2026-04-18T10:59:02.261Z</time></trkpt><trkpt lat="44.7154307" lon="9.4616432"><ele>1207.0</ele><time>2026-04-18T10:59:03.26Z</time></trkpt><trkpt lat="44.7155259" lon="9.4616139"><ele>1207.0</ele><time>2026-04-18T10:59:04.261Z</time></trkpt><trkpt lat="44.7156162" lon="9.4616132"><ele>1207.0</ele><time>2026-04-18T10:59:05.26Z</time></trkpt><trkpt lat="44.7157039" lon="9.4616289"><ele>1207.0</ele><time>2026-04-18T10:59:06.26Z</time></trkpt><trkpt lat="44.7157975" lon="9.4616434"><ele>1207.0</ele><time>2026-04-18T10:59:07.261Z</time></trkpt><trkpt lat="44.7158919" lon="9.4616564"><ele>1207.0</ele><time>2026-04-18T10:59:08.261Z</time></trkpt><trkpt lat="44.7159893" lon="9.4616624"><ele>1208.8</ele><time>2026-04-18T10:59:09.261Z</time></trkpt><trkpt lat="44.7160868" lon="9.4616427"><ele>1210.6</ele><time>2026-04-18T10:59:10.261Z</time></trkpt><trkpt lat="44.7161818" lon="9.4615872"><ele>1212.3999999999999</ele><time>2026-04-18T10:59:11.261Z</time></trkpt><trkpt lat="44.716268" lon="9.461512"><ele>1214.2</ele><time>2026-04-18T10:59:12.26Z</time></trkpt><trkpt lat="44.716353" lon="9.4614282"><ele>1216.0</ele><time>2026-04-18T10:59:13.261Z</time></trkpt><trkpt lat="44.7164455" lon="9.4613474"><ele>1213.25</ele><time>2026-04-18T10:59:14.261Z</time></trkpt><trkpt lat="44.7165421" lon="9.4612768"><ele>1210.5</ele><time>2026-04-18T10:59:15.261Z</time></trkpt><trkpt lat="44.7166454" lon="9.4612125"><ele>1207.75</ele><time>2026-04-18T10:59:16.261Z</time></trkpt><trkpt lat="44.7167498" lon="9.4611368"><ele>1205.0</ele><time>2026-04-18T10:59:17.261Z</time></trkpt><trkpt lat="44.7168482" lon="9.4610418"><ele>1206.75</ele><time>2026-04-18T10:59:18.261Z</time></trkpt><trkpt lat="44.716944" lon="9.4609372"><ele>1208.5</ele><time>2026-04-18T10:59:19.261Z</time></trkpt><trkpt lat="44.7170449" lon="9.4608464"><ele>1210.25</ele><time>2026-04-18T10:59:20.261Z</time></trkpt><trkpt lat="44.717148" lon="9.4607807"><ele>1212.0</ele><time>2026-04-18T10:59:21.262Z</time></trkpt><trkpt lat="44.7172637" lon="9.4607428"><ele>1212.0</ele><time>2026-04-18T10:59:22.261Z</time></trkpt><trkpt lat="44.7173899" lon="9.4607339"><ele>1212.0</ele><time>2026-04-18T10:59:23.261Z</time></trkpt><trkpt lat="44.7175163" lon="9.4607302"><ele>1212.0</ele><time>2026-04-18T10:59:24.26Z</time></trkpt><trkpt lat="44.7176401" lon="9.4607149"><ele>1212.0</ele><time>2026-04-18T10:59:25.261Z</time></trkpt><trkpt lat="44.7177619" lon="9.4606928"><ele>1212.0</ele><time>2026-04-18T10:59:26.261Z</time></trkpt><trkpt lat="44.7178844" lon="9.4606656"><ele>1212.0</ele><time>2026-04-18T10:59:27.262Z</time></trkpt><trkpt lat="44.7180046" lon="9.4606271"><ele>1212.0</ele><time>2026-04-18T10:59:28.261Z</time></trkpt><trkpt lat="44.7181184" lon="9.4605839"><ele>1212.0</ele><time>2026-04-18T10:59:29.26Z</time></trkpt><trkpt lat="44.718229" lon="9.4605477"><ele>1212.0</ele><time>2026-04-18T10:59:30.261Z</time></trkpt><trkpt lat="44.7183425" lon="9.4605145"><ele>1212.0</ele><time>2026-04-18T10:59:31.261Z</time></trkpt><trkpt lat="44.7184585" lon="9.4604597"><ele>1212.0</ele><time>2026-04-18T10:59:32.261Z</time></trkpt><trkpt lat="44.7185767" lon="9.4603831"><ele>1212.0</ele><time>2026-04-18T10:59:33.261Z</time></trkpt><trkpt lat="44.7186849" lon="9.4602948"><ele>1212.0</ele><time>2026-04-18T10:59:34.261Z</time></trkpt><trkpt lat="44.7187906" lon="9.4602014"><ele>1212.0</ele><time>2026-04-18T10:59:35.261Z</time></trkpt><trkpt lat="44.718892" lon="9.4601024"><ele>1212.0</ele><time>2026-04-18T10:59:36.262Z</time></trkpt><trkpt lat="44.7189887" lon="9.4599972"><ele>1212.0</ele><time>2026-04-18T10:59:37.26Z</time></trkpt><trkpt lat="44.7190785" lon="9.4598914"><ele>1212.0</ele><time>2026-04-18T10:59:38.262Z</time></trkpt><trkpt lat="44.7191647" lon="9.4597798"><ele>1212.0</ele><time>2026-04-18T10:59:39.262Z</time></trkpt><trkpt lat="44.7192494" lon="9.4596624"><ele>1212.0</ele><time>2026-04-18T10:59:40.26Z</time></trkpt><trkpt lat="44.7193392" lon="9.459554"><ele>1212.0</ele><time>2026-04-18T10:59:41.261Z</time></trkpt><trkpt lat="44.7194233" lon="9.4594653"><ele>1212.1666666666667</ele><time>2026-04-18T10:59:42.261Z</time></trkpt><trkpt lat="44.719505" lon="9.4594208"><ele>1212.3333333333333</ele><time>2026-04-18T10:59:43.26Z</time></trkpt><trkpt lat="44.7195841" lon="9.4594259"><ele>1212.5</ele><time>2026-04-18T10:59:44.261Z</time></trkpt><trkpt lat="44.7196577" lon="9.4594673"><ele>1212.6666666666665</ele><time>2026-04-18T10:59:45.261Z</time></trkpt><trkpt lat="44.7197314" lon="9.4595175"><ele>1212.8333333333333</ele><time>2026-04-18T10:59:46.26Z</time></trkpt><trkpt lat="44.7198042" lon="9.4595346"><ele>1213.0</ele><time>2026-04-18T10:59:47.26Z</time></trkpt><trkpt lat="44.7199146" lon="9.4595089"><ele>1213.0</ele><time>2026-04-18T10:59:49.26Z</time></trkpt><trkpt lat="44.719984" lon="9.4594449"><ele>1213.0</ele><time>2026-04-18T10:59:51.261Z</time></trkpt><trkpt lat="44.720038" lon="9.4592951"><ele>1213.0</ele><time>2026-04-18T10:59:53.26Z</time></trkpt><trkpt lat="44.7200689" lon="9.4591744"><ele>1213.0</ele><time>2026-04-18T10:59:54.261Z</time></trkpt><trkpt lat="44.7201001" lon="9.4590645"><ele>1213.0</ele><time>2026-04-18T10:59:55.261Z</time></trkpt><trkpt lat="44.7201349" lon="9.4589565"><ele>1213.0</ele><time>2026-04-18T10:59:56.26Z</time></trkpt><trkpt lat="44.7201717" lon="9.4588536"><ele>1213.0</ele><time>2026-04-18T10:59:57.261Z</time></trkpt><trkpt lat="44.7202135" lon="9.4587482"><ele>1213.0</ele><time>2026-04-18T10:59:58.261Z</time></trkpt><trkpt lat="44.7202571" lon="9.4586506"><ele>1213.0</ele><time>2026-04-18T10:59:59.26Z</time></trkpt><trkpt lat="44.7203001" lon="9.4585597"><ele>1213.0</ele><time>2026-04-18T11:00:00.261Z</time></trkpt><trkpt lat="44.7203377" lon="9.4584569"><ele>1213.0</ele><time>2026-04-18T11:00:01.261Z</time></trkpt><trkpt lat="44.7203658" lon="9.4583518"><ele>1212.1666666666665</ele><time>2026-04-18T11:00:02.261Z</time></trkpt><trkpt lat="44.7203947" lon="9.458233"><ele>1211.3333333333333</ele><time>2026-04-18T11:00:03.261Z</time></trkpt><trkpt lat="44.7204268" lon="9.4581077"><ele>1210.5</ele><time>2026-04-18T11:00:04.261Z</time></trkpt><trkpt lat="44.7204632" lon="9.4579916"><ele>1209.6666666666667</ele><time>2026-04-18T11:00:05.261Z</time></trkpt><trkpt lat="44.7205031" lon="9.4578806"><ele>1208.8333333333335</ele><time>2026-04-18T11:00:06.262Z</time></trkpt><trkpt lat="44.7205447" lon="9.4577773"><ele>1208.0</ele><time>2026-04-18T11:00:07.26Z</time></trkpt><trkpt lat="44.7205836" lon="9.4576746"><ele>1208.0</ele><time>2026-04-18T11:00:08.261Z</time></trkpt><trkpt lat="44.7206182" lon="9.4575566"><ele>1208.0</ele><time>2026-04-18T11:00:09.262Z</time></trkpt><trkpt lat="44.7206549" lon="9.4574272"><ele>1208.0</ele><time>2026-04-18T11:00:10.261Z</time></trkpt><trkpt lat="44.7206896" lon="9.4572934"><ele>1208.0</ele><time>2026-04-18T11:00:11.26Z</time></trkpt><trkpt lat="44.7207276" lon="9.4571439"><ele>1208.0</ele><time>2026-04-18T11:00:12.26Z</time></trkpt><trkpt lat="44.7207647" lon="9.4569897"><ele>1204.75</ele><time>2026-04-18T11:00:13.261Z</time></trkpt><trkpt lat="44.7207995" lon="9.4568377"><ele>1201.5</ele><time>2026-04-18T11:00:14.26Z</time></trkpt><trkpt lat="44.7208356" lon="9.4566865"><ele>1198.25</ele><time>2026-04-18T11:00:15.261Z</time></trkpt><trkpt lat="44.7208701" lon="9.4565327"><ele>1195.0</ele><time>2026-04-18T11:00:16.261Z</time></trkpt><trkpt lat="44.7209013" lon="9.4563821"><ele>1193.6</ele><time>2026-04-18T11:00:17.261Z</time></trkpt><trkpt lat="44.7209307" lon="9.4562332"><ele>1192.2</ele><time>2026-04-18T11:00:18.261Z</time></trkpt><trkpt lat="44.7209581" lon="9.4560893"><ele>1190.8</ele><time>2026-04-18T11:00:19.262Z</time></trkpt><trkpt lat="44.7209868" lon="9.4559472"><ele>1189.4</ele><time>2026-04-18T11:00:20.26Z</time></trkpt><trkpt lat="44.7210161" lon="9.4558117"><ele>1188.0</ele><time>2026-04-18T11:00:21.261Z</time></trkpt><trkpt lat="44.7210484" lon="9.4556803"><ele>1189.4</ele><time>2026-04-18T11:00:22.261Z</time></trkpt><trkpt lat="44.7210843" lon="9.455546"><ele>1190.8</ele><time>2026-04-18T11:00:23.26Z</time></trkpt><trkpt lat="44.7211272" lon="9.4554043"><ele>1192.2</ele><time>2026-04-18T11:00:24.26Z</time></trkpt><trkpt lat="44.7211765" lon="9.455259"><ele>1193.6</ele><time>2026-04-18T11:00:25.26Z</time></trkpt><trkpt lat="44.7212315" lon="9.4551084"><ele>1195.0</ele><time>2026-04-18T11:00:26.261Z</time></trkpt><trkpt lat="44.721287" lon="9.4549583"><ele>1195.0</ele><time>2026-04-18T11:00:27.261Z</time></trkpt><trkpt lat="44.7213408" lon="9.4548088"><ele>1195.0</ele><time>2026-04-18T11:00:28.26Z</time></trkpt><trkpt lat="44.7213773" lon="9.4546604"><ele>1195.0</ele><time>2026-04-18T11:00:29.261Z</time></trkpt><trkpt lat="44.7213816" lon="9.4545105"><ele>1195.0</ele><time>2026-04-18T11:00:30.261Z</time></trkpt><trkpt lat="44.7213495" lon="9.4543709"><ele>1195.0</ele><time>2026-04-18T11:00:31.261Z</time></trkpt><trkpt lat="44.7212854" lon="9.4542375"><ele>1195.25</ele><time>2026-04-18T11:00:32.261Z</time></trkpt><trkpt lat="44.7212054" lon="9.4541098"><ele>1195.5</ele><time>2026-04-18T11:00:33.26Z</time></trkpt><trkpt lat="44.7211217" lon="9.4539778"><ele>1195.75</ele><time>2026-04-18T11:00:34.26Z</time></trkpt><trkpt lat="44.7210481" lon="9.4538412"><ele>1196.0</ele><time>2026-04-18T11:00:35.261Z</time></trkpt><trkpt lat="44.7209846" lon="9.4537004"><ele>1192.0</ele><time>2026-04-18T11:00:36.26Z</time></trkpt><trkpt lat="44.7209361" lon="9.4535544"><ele>1188.0</ele><time>2026-04-18T11:00:37.262Z</time></trkpt><trkpt lat="44.7208993" lon="9.4534036"><ele>1184.0</ele><time>2026-04-18T11:00:38.26Z</time></trkpt><trkpt lat="44.7208725" lon="9.4532368"><ele>1180.0</ele><time>2026-04-18T11:00:39.26Z</time></trkpt><trkpt lat="44.720861" lon="9.4530651"><ele>1177.75</ele><time>2026-04-18T11:00:40.261Z</time></trkpt><trkpt lat="44.7208564" lon="9.452893"><ele>1175.5</ele><time>2026-04-18T11:00:41.261Z</time></trkpt><trkpt lat="44.7208506" lon="9.4527305"><ele>1173.25</ele><time>2026-04-18T11:00:42.26Z</time></trkpt><trkpt lat="44.7208438" lon="9.4525734"><ele>1171.0</ele><time>2026-04-18T11:00:43.262Z</time></trkpt><trkpt lat="44.7208483" lon="9.4524164"><ele>1171.0</ele><time>2026-04-18T11:00:44.26Z</time></trkpt><trkpt lat="44.7208844" lon="9.452256"><ele>1171.0</ele><time>2026-04-18T11:00:45.26Z</time></trkpt><trkpt lat="44.7209383" lon="9.4521039"><ele>1171.0</ele><time>2026-04-18T11:00:46.26Z</time></trkpt><trkpt lat="44.7209983" lon="9.4519615"><ele>1171.0</ele><time>2026-04-18T11:00:47.262Z</time></trkpt><trkpt lat="44.7210733" lon="9.4518321"><ele>1172.0</ele><time>2026-04-18T11:00:48.262Z</time></trkpt><trkpt lat="44.7211682" lon="9.4517267"><ele>1173.0</ele><time>2026-04-18T11:00:49.26Z</time></trkpt><trkpt lat="44.7212814" lon="9.4516404"><ele>1174.0</ele><time>2026-04-18T11:00:50.262Z</time></trkpt><trkpt lat="44.7214012" lon="9.4515525"><ele>1175.0</ele><time>2026-04-18T11:00:51.261Z</time></trkpt><trkpt lat="44.7215233" lon="9.451451"><ele>1175.0</ele><time>2026-04-18T11:00:52.262Z</time></trkpt><trkpt lat="44.721639" lon="9.451345"><ele>1175.0</ele><time>2026-04-18T11:00:53.262Z</time></trkpt><trkpt lat="44.7217506" lon="9.4512323"><ele>1175.0</ele><time>2026-04-18T11:00:54.261Z</time></trkpt><trkpt lat="44.7218495" lon="9.4511115"><ele>1175.0</ele><time>2026-04-18T11:00:55.261Z</time></trkpt><trkpt lat="44.7219309" lon="9.4509769"><ele>1174.25</ele><time>2026-04-18T11:00:56.261Z</time></trkpt><trkpt lat="44.7219887" lon="9.4508231"><ele>1173.5</ele><time>2026-04-18T11:00:57.26Z</time></trkpt><trkpt lat="44.7220157" lon="9.4506506"><ele>1172.75</ele><time>2026-04-18T11:00:58.26Z</time></trkpt><trkpt lat="44.7220111" lon="9.4504713"><ele>1172.0</ele><time>2026-04-18T11:00:59.26Z</time></trkpt><trkpt lat="44.7219852" lon="9.4502851"><ele>1171.5</ele><time>2026-04-18T11:01:00.26Z</time></trkpt><trkpt lat="44.7219554" lon="9.4501016"><ele>1171.0</ele><time>2026-04-18T11:01:01.26Z</time></trkpt><trkpt lat="44.7219303" lon="9.4499066"><ele>1170.5</ele><time>2026-04-18T11:01:02.261Z</time></trkpt><trkpt lat="44.7219091" lon="9.4497037"><ele>1170.0</ele><time>2026-04-18T11:01:03.261Z</time></trkpt><trkpt lat="44.7218895" lon="9.4495033"><ele>1163.25</ele><time>2026-04-18T11:01:04.26Z</time></trkpt><trkpt lat="44.7218732" lon="9.4493055"><ele>1156.5</ele><time>2026-04-18T11:01:05.26Z</time></trkpt><trkpt lat="44.7218637" lon="9.4491152"><ele>1149.75</ele><time>2026-04-18T11:01:06.261Z</time></trkpt><trkpt lat="44.7218636" lon="9.4489237"><ele>1143.0</ele><time>2026-04-18T11:01:07.261Z</time></trkpt><trkpt lat="44.7218807" lon="9.4487323"><ele>1145.0</ele><time>2026-04-18T11:01:08.262Z</time></trkpt><trkpt lat="44.7219038" lon="9.4485382"><ele>1147.0</ele><time>2026-04-18T11:01:09.261Z</time></trkpt><trkpt lat="44.7219232" lon="9.4483351"><ele>1149.0</ele><time>2026-04-18T11:01:10.26Z</time></trkpt><trkpt lat="44.7219322" lon="9.4481295"><ele>1151.0</ele><time>2026-04-18T11:01:11.261Z</time></trkpt><trkpt lat="44.7219356" lon="9.4479275"><ele>1147.0</ele><time>2026-04-18T11:01:12.261Z</time></trkpt><trkpt lat="44.7219511" lon="9.4477276"><ele>1143.0</ele><time>2026-04-18T11:01:13.262Z</time></trkpt><trkpt lat="44.721984" lon="9.4475387"><ele>1139.0</ele><time>2026-04-18T11:01:14.261Z</time></trkpt><trkpt lat="44.7220181" lon="9.4473634"><ele>1135.0</ele><time>2026-04-18T11:01:15.261Z</time></trkpt><trkpt lat="44.7220483" lon="9.4471988"><ele>1131.8</ele><time>2026-04-18T11:01:16.261Z</time></trkpt><trkpt lat="44.7220787" lon="9.4470511"><ele>1128.6</ele><time>2026-04-18T11:01:17.261Z</time></trkpt><trkpt lat="44.7221259" lon="9.4469263"><ele>1125.4</ele><time>2026-04-18T11:01:18.261Z</time></trkpt><trkpt lat="44.7222067" lon="9.4468379"><ele>1122.2</ele><time>2026-04-18T11:01:19.26Z</time></trkpt><trkpt lat="44.7223174" lon="9.4467942"><ele>1119.0</ele><time>2026-04-18T11:01:20.261Z</time></trkpt><trkpt lat="44.7224414" lon="9.4467756"><ele>1119.0</ele><time>2026-04-18T11:01:21.262Z</time></trkpt><trkpt lat="44.722561" lon="9.4467253"><ele>1119.0</ele><time>2026-04-18T11:01:22.261Z</time></trkpt><trkpt lat="44.7226715" lon="9.4466263"><ele>1119.0</ele><time>2026-04-18T11:01:23.261Z</time></trkpt><trkpt lat="44.7227532" lon="9.4464841"><ele>1119.0</ele><time>2026-04-18T11:01:24.262Z</time></trkpt><trkpt lat="44.7228191" lon="9.4463101"><ele>1109.6666666666667</ele><time>2026-04-18T11:01:25.261Z</time></trkpt><trkpt lat="44.7228721" lon="9.4461228"><ele>1100.3333333333335</ele><time>2026-04-18T11:01:26.261Z</time></trkpt><trkpt lat="44.7229207" lon="9.4459221"><ele>1091.0</ele><time>2026-04-18T11:01:27.26Z</time></trkpt><trkpt lat="44.722973" lon="9.4457155"><ele>1091.0</ele><time>2026-04-18T11:01:28.26Z</time></trkpt><trkpt lat="44.7230295" lon="9.4455114"><ele>1091.0</ele><time>2026-04-18T11:01:29.26Z</time></trkpt><trkpt lat="44.7230822" lon="9.4453056"><ele>1091.0</ele><time>2026-04-18T11:01:30.26Z</time></trkpt><trkpt lat="44.7231304" lon="9.4451028"><ele>1090.75</ele><time>2026-04-18T11:01:31.26Z</time></trkpt><trkpt lat="44.7231832" lon="9.4449157"><ele>1090.5</ele><time>2026-04-18T11:01:32.262Z</time></trkpt><trkpt lat="44.7232686" lon="9.4447539"><ele>1090.25</ele><time>2026-04-18T11:01:33.261Z</time></trkpt><trkpt lat="44.7233738" lon="9.4446198"><ele>1090.0</ele><time>2026-04-18T11:01:34.261Z</time></trkpt><trkpt lat="44.7234813" lon="9.4444967"><ele>1085.25</ele><time>2026-04-18T11:01:35.262Z</time></trkpt><trkpt lat="44.7235859" lon="9.444383"><ele>1080.5</ele><time>2026-04-18T11:01:36.262Z</time></trkpt><trkpt lat="44.7236869" lon="9.4442795"><ele>1075.75</ele><time>2026-04-18T11:01:37.26Z</time></trkpt><trkpt lat="44.7237769" lon="9.4441777"><ele>1071.0</ele><time>2026-04-18T11:01:38.261Z</time></trkpt><trkpt lat="44.7238469" lon="9.4440571"><ele>1071.0</ele><time>2026-04-18T11:01:39.261Z</time></trkpt><trkpt lat="44.7238869" lon="9.4439083"><ele>1071.0</ele><time>2026-04-18T11:01:40.261Z</time></trkpt><trkpt lat="44.723903" lon="9.4437367"><ele>1071.0</ele><time>2026-04-18T11:01:41.262Z</time></trkpt><trkpt lat="44.7239018" lon="9.4435467"><ele>1071.0</ele><time>2026-04-18T11:01:42.261Z</time></trkpt><trkpt lat="44.7238902" lon="9.4433576"><ele>1070.25</ele><time>2026-04-18T11:01:43.262Z</time></trkpt><trkpt lat="44.7238684" lon="9.4431707"><ele>1069.5</ele><time>2026-04-18T11:01:44.261Z</time></trkpt><trkpt lat="44.7238367" lon="9.4430025"><ele>1068.75</ele><time>2026-04-18T11:01:45.261Z</time></trkpt><trkpt lat="44.7237872" lon="9.4428599"><ele>1068.0</ele><time>2026-04-18T11:01:46.261Z</time></trkpt><trkpt lat="44.7237151" lon="9.4427561"><ele>1067.25</ele><time>2026-04-18T11:01:47.26Z</time></trkpt><trkpt lat="44.7236199" lon="9.4427044"><ele>1066.5</ele><time>2026-04-18T11:01:48.26Z</time></trkpt><trkpt lat="44.7235083" lon="9.4427117"><ele>1065.75</ele><time>2026-04-18T11:01:49.261Z</time></trkpt><trkpt lat="44.7233925" lon="9.442772"><ele>1065.0</ele><time>2026-04-18T11:01:50.261Z</time></trkpt><trkpt lat="44.7232792" lon="9.4428915"><ele>1071.6666666666667</ele><time>2026-04-18T11:01:51.262Z</time></trkpt><trkpt lat="44.7231743" lon="9.4430479"><ele>1078.3333333333335</ele><time>2026-04-18T11:01:52.261Z</time></trkpt><trkpt lat="44.7230727" lon="9.4432082"><ele>1085.0</ele><time>2026-04-18T11:01:53.26Z</time></trkpt><trkpt lat="44.7229743" lon="9.4433636"><ele>1085.0</ele><time>2026-04-18T11:01:54.261Z</time></trkpt><trkpt lat="44.7228769" lon="9.4435143"><ele>1085.0</ele><time>2026-04-18T11:01:55.26Z</time></trkpt><trkpt lat="44.7227698" lon="9.4436424"><ele>1085.0</ele><time>2026-04-18T11:01:56.261Z</time></trkpt><trkpt lat="44.7226569" lon="9.4437444"><ele>1085.0</ele><time>2026-04-18T11:01:57.261Z</time></trkpt><trkpt lat="44.722537" lon="9.4438266"><ele>1083.5</ele><time>2026-04-18T11:01:58.261Z</time></trkpt><trkpt lat="44.7224112" lon="9.4438942"><ele>1082.0</ele><time>2026-04-18T11:01:59.261Z</time></trkpt><trkpt lat="44.7222684" lon="9.4439343"><ele>1080.5</ele><time>2026-04-18T11:02:00.261Z</time></trkpt><trkpt lat="44.7221172" lon="9.4439333"><ele>1079.0</ele><time>2026-04-18T11:02:01.262Z</time></trkpt><trkpt lat="44.7219669" lon="9.4439007"><ele>1078.75</ele><time>2026-04-18T11:02:02.26Z</time></trkpt><trkpt lat="44.7218236" lon="9.4438587"><ele>1078.5</ele><time>2026-04-18T11:02:03.26Z</time></trkpt><trkpt lat="44.7216898" lon="9.443813"><ele>1078.25</ele><time>2026-04-18T11:02:04.26Z</time></trkpt><trkpt lat="44.7215716" lon="9.4437474"><ele>1078.0</ele><time>2026-04-18T11:02:05.261Z</time></trkpt><trkpt lat="44.7214683" lon="9.4436612"><ele>1073.25</ele><time>2026-04-18T11:02:06.261Z</time></trkpt><trkpt lat="44.721375" lon="9.4435534"><ele>1068.5</ele><time>2026-04-18T11:02:07.261Z</time></trkpt><trkpt lat="44.7212915" lon="9.4434258"><ele>1063.75</ele><time>2026-04-18T11:02:08.262Z</time></trkpt><trkpt lat="44.721217" lon="9.443289"><ele>1059.0</ele><time>2026-04-18T11:02:09.261Z</time></trkpt><trkpt lat="44.7211448" lon="9.4431463"><ele>1059.0</ele><time>2026-04-18T11:02:10.26Z</time></trkpt><trkpt lat="44.7210825" lon="9.4430073"><ele>1059.0</ele><time>2026-04-18T11:02:11.26Z</time></trkpt><trkpt lat="44.7210561" lon="9.4428754"><ele>1059.0</ele><time>2026-04-18T11:02:12.261Z</time></trkpt><trkpt lat="44.7210665" lon="9.4427483"><ele>1059.0</ele><time>2026-04-18T11:02:13.26Z</time></trkpt><trkpt lat="44.7211133" lon="9.4426329"><ele>1059.0</ele><time>2026-04-18T11:02:14.26Z</time></trkpt><trkpt lat="44.7211761" lon="9.4425223"><ele>1056.2</ele><time>2026-04-18T11:02:15.26Z</time></trkpt><trkpt lat="44.7212275" lon="9.4423935"><ele>1053.4</ele><time>2026-04-18T11:02:16.26Z</time></trkpt><trkpt lat="44.7212483" lon="9.4422442"><ele>1050.6</ele><time>2026-04-18T11:02:17.26Z</time></trkpt><trkpt lat="44.721246" lon="9.4420845"><ele>1047.8</ele><time>2026-04-18T11:02:18.261Z</time></trkpt><trkpt lat="44.7212375" lon="9.4419165"><ele>1045.0</ele><time>2026-04-18T11:02:19.262Z</time></trkpt><trkpt lat="44.7212275" lon="9.4417558"><ele>1043.4</ele><time>2026-04-18T11:02:20.26Z</time></trkpt><trkpt lat="44.7212288" lon="9.4416058"><ele>1041.8</ele><time>2026-04-18T11:02:21.261Z</time></trkpt><trkpt lat="44.7212697" lon="9.4414676"><ele>1040.2</ele><time>2026-04-18T11:02:22.26Z</time></trkpt><trkpt lat="44.7213427" lon="9.4413517"><ele>1038.6</ele><time>2026-04-18T11:02:23.261Z</time></trkpt><trkpt lat="44.7214318" lon="9.4412394"><ele>1037.0</ele><time>2026-04-18T11:02:24.26Z</time></trkpt><trkpt lat="44.7215151" lon="9.4411214"><ele>1036.25</ele><time>2026-04-18T11:02:25.26Z</time></trkpt><trkpt lat="44.7215958" lon="9.4409839"><ele>1035.5</ele><time>2026-04-18T11:02:26.261Z</time></trkpt><trkpt lat="44.7216739" lon="9.4408321"><ele>1034.75</ele><time>2026-04-18T11:02:27.261Z</time></trkpt><trkpt lat="44.7217503" lon="9.4406755"><ele>1034.0</ele><time>2026-04-18T11:02:28.261Z</time></trkpt><trkpt lat="44.7218426" lon="9.4405312"><ele>1029.75</ele><time>2026-04-18T11:02:29.261Z</time></trkpt><trkpt lat="44.7219473" lon="9.4404067"><ele>1025.5</ele><time>2026-04-18T11:02:30.262Z</time></trkpt><trkpt lat="44.7220532" lon="9.4402998"><ele>1021.25</ele><time>2026-04-18T11:02:31.261Z</time></trkpt><trkpt lat="44.7221595" lon="9.4401984"><ele>1017.0</ele><time>2026-04-18T11:02:32.26Z</time></trkpt><trkpt lat="44.722269" lon="9.4401027"><ele>1017.0</ele><time>2026-04-18T11:02:33.261Z</time></trkpt><trkpt lat="44.7223782" lon="9.4400179"><ele>1017.0</ele><time>2026-04-18T11:02:34.261Z</time></trkpt><trkpt lat="44.7224784" lon="9.4399377"><ele>1017.0</ele><time>2026-04-18T11:02:35.261Z</time></trkpt><trkpt lat="44.722571" lon="9.4398641"><ele>1017.0</ele><time>2026-04-18T11:02:36.261Z</time></trkpt><trkpt lat="44.7226697" lon="9.439826"><ele>1017.0</ele><time>2026-04-18T11:02:37.261Z</time></trkpt><trkpt lat="44.7227661" lon="9.4398198"><ele>1012.8</ele><time>2026-04-18T11:02:38.261Z</time></trkpt><trkpt lat="44.722847" lon="9.439785"><ele>1008.6</ele><time>2026-04-18T11:02:39.261Z</time></trkpt><trkpt lat="44.7229022" lon="9.4397012"><ele>1004.3999999999999</ele><time>2026-04-18T11:02:40.26Z</time></trkpt><trkpt lat="44.7229272" lon="9.4395845"><ele>1000.1999999999999</ele><time>2026-04-18T11:02:41.26Z</time></trkpt><trkpt lat="44.7229344" lon="9.4394391"><ele>996.0</ele><time>2026-04-18T11:02:42.26Z</time></trkpt><trkpt lat="44.7229387" lon="9.4392658"><ele>995.5</ele><time>2026-04-18T11:02:43.26Z</time></trkpt><trkpt lat="44.72295" lon="9.4390838"><ele>995.0</ele><time>2026-04-18T11:02:44.26Z</time></trkpt><trkpt lat="44.7229646" lon="9.4389045"><ele>994.5</ele><time>2026-04-18T11:02:45.261Z</time></trkpt><trkpt lat="44.7229854" lon="9.438728"><ele>994.0</ele><time>2026-04-18T11:02:46.261Z</time></trkpt><trkpt lat="44.7230244" lon="9.4385535"><ele>994.5</ele><time>2026-04-18T11:02:47.261Z</time></trkpt><trkpt lat="44.7230712" lon="9.4383818"><ele>995.0</ele><time>2026-04-18T11:02:48.261Z</time></trkpt><trkpt lat="44.7231203" lon="9.4382086"><ele>995.5</ele><time>2026-04-18T11:02:49.26Z</time></trkpt><trkpt lat="44.7231802" lon="9.4380513"><ele>996.0</ele><time>2026-04-18T11:02:50.26Z</time></trkpt><trkpt lat="44.7232557" lon="9.4379172"><ele>996.0</ele><time>2026-04-18T11:02:51.262Z</time></trkpt><trkpt lat="44.7233458" lon="9.4378112"><ele>995.9999999999999</ele><time>2026-04-18T11:02:52.261Z</time></trkpt><trkpt lat="44.7234442" lon="9.4377416"><ele>995.9999999999999</ele><time>2026-04-18T11:02:53.261Z</time></trkpt><trkpt lat="44.7235421" lon="9.437689"><ele>996.0</ele><time>2026-04-18T11:02:54.26Z</time></trkpt><trkpt lat="44.7236311" lon="9.4376212"><ele>996.0</ele><time>2026-04-18T11:02:55.261Z</time></trkpt><trkpt lat="44.7236984" lon="9.4375168"><ele>991.3333333333334</ele><time>2026-04-18T11:02:56.261Z</time></trkpt><trkpt lat="44.723733" lon="9.4373893"><ele>986.6666666666667</ele><time>2026-04-18T11:02:57.262Z</time></trkpt><trkpt lat="44.723726" lon="9.4372714"><ele>982.0</ele><time>2026-04-18T11:02:58.261Z</time></trkpt><trkpt lat="44.7237068" lon="9.437162"><ele>977.3333333333334</ele><time>2026-04-18T11:02:59.261Z</time></trkpt><trkpt lat="44.7237177" lon="9.4370631"><ele>972.6666666666667</ele><time>2026-04-18T11:03:00.262Z</time></trkpt><trkpt lat="44.7237628" lon="9.4369964"><ele>968.0</ele><time>2026-04-18T11:03:01.26Z</time></trkpt><trkpt lat="44.723879" lon="9.4370465"><ele>968.0</ele><time>2026-04-18T11:03:03.26Z</time></trkpt><trkpt lat="44.7239395" lon="9.4371045"><ele>967.9999999999999</ele><time>2026-04-18T11:03:04.26Z</time></trkpt><trkpt lat="44.7240059" lon="9.437161"><ele>968.0</ele><time>2026-04-18T11:03:05.26Z</time></trkpt><trkpt lat="44.7240693" lon="9.4372143"><ele>968.0</ele><time>2026-04-18T11:03:06.261Z</time></trkpt><trkpt lat="44.7241214" lon="9.4372718"><ele>967.9999999999999</ele><time>2026-04-18T11:03:07.261Z</time></trkpt><trkpt lat="44.7241512" lon="9.4373562"><ele>968.0</ele><time>2026-04-18T11:03:08.262Z</time></trkpt><trkpt lat="44.7241516" lon="9.4374683"><ele>968.0</ele><time>2026-04-18T11:03:09.26Z</time></trkpt><trkpt lat="44.7241349" lon="9.4376007"><ele>967.75</ele><time>2026-04-18T11:03:10.262Z</time></trkpt><trkpt lat="44.7241109" lon="9.4377457"><ele>967.5</ele><time>2026-04-18T11:03:11.261Z</time></trkpt><trkpt lat="44.7240896" lon="9.4379105"><ele>967.25</ele><time>2026-04-18T11:03:12.261Z</time></trkpt><trkpt lat="44.7240678" lon="9.4380869"><ele>967.0</ele><time>2026-04-18T11:03:13.261Z</time></trkpt><trkpt lat="44.7240431" lon="9.438266"><ele>966.75</ele><time>2026-04-18T11:03:14.262Z</time></trkpt><trkpt lat="44.724015" lon="9.4384451"><ele>966.5</ele><time>2026-04-18T11:03:15.261Z</time></trkpt><trkpt lat="44.7239868" lon="9.4386233"><ele>966.25</ele><time>2026-04-18T11:03:16.261Z</time></trkpt><trkpt lat="44.7239575" lon="9.4388093"><ele>966.0</ele><time>2026-04-18T11:03:17.26Z</time></trkpt><trkpt lat="44.7239294" lon="9.438996"><ele>966.0</ele><time>2026-04-18T11:03:18.261Z</time></trkpt><trkpt lat="44.7239064" lon="9.4391651"><ele>965.9999999999999</ele><time>2026-04-18T11:03:19.262Z</time></trkpt><trkpt lat="44.7239079" lon="9.4393052"><ele>965.9999999999999</ele><time>2026-04-18T11:03:20.261Z</time></trkpt><trkpt lat="44.7239488" lon="9.439413"><ele>966.0</ele><time>2026-04-18T11:03:21.261Z</time></trkpt><trkpt lat="44.72402" lon="9.4394712"><ele>966.0</ele><time>2026-04-18T11:03:22.26Z</time></trkpt><trkpt lat="44.7241165" lon="9.4394831"><ele>966.0</ele><time>2026-04-18T11:03:23.261Z</time></trkpt><trkpt lat="44.724232" lon="9.4394399"><ele>966.0</ele><time>2026-04-18T11:03:24.261Z</time></trkpt><trkpt lat="44.724336" lon="9.4393583"><ele>966.0</ele><time>2026-04-18T11:03:25.26Z</time></trkpt><trkpt lat="44.7244452" lon="9.4392694"><ele>966.0</ele><time>2026-04-18T11:03:26.262Z</time></trkpt><trkpt lat="44.7245579" lon="9.4391978"><ele>963.0</ele><time>2026-04-18T11:03:27.261Z</time></trkpt><trkpt lat="44.7246736" lon="9.4391593"><ele>960.0</ele><time>2026-04-18T11:03:28.261Z</time></trkpt><trkpt lat="44.7247914" lon="9.4391538"><ele>957.0</ele><time>2026-04-18T11:03:29.261Z</time></trkpt><trkpt lat="44.7249159" lon="9.4391857"><ele>954.0</ele><time>2026-04-18T11:03:30.262Z</time></trkpt><trkpt lat="44.7250424" lon="9.4392339"><ele>954.0</ele><time>2026-04-18T11:03:31.26Z</time></trkpt><trkpt lat="44.7251721" lon="9.4392874"><ele>954.0</ele><time>2026-04-18T11:03:32.261Z</time></trkpt><trkpt lat="44.7253048" lon="9.4393453"><ele>954.0</ele><time>2026-04-18T11:03:33.262Z</time></trkpt><trkpt lat="44.7254379" lon="9.4394034"><ele>954.0</ele><time>2026-04-18T11:03:34.261Z</time></trkpt><trkpt lat="44.7255652" lon="9.4394681"><ele>953.25</ele><time>2026-04-18T11:03:35.26Z</time></trkpt><trkpt lat="44.7256853" lon="9.4395507"><ele>952.5</ele><time>2026-04-18T11:03:36.261Z</time></trkpt><trkpt lat="44.7257913" lon="9.4396562"><ele>951.75</ele><time>2026-04-18T11:03:37.261Z</time></trkpt><trkpt lat="44.7258827" lon="9.4397923"><ele>951.0</ele><time>2026-04-18T11:03:38.261Z</time></trkpt><trkpt lat="44.7259671" lon="9.439946"><ele>951.0</ele><time>2026-04-18T11:03:39.26Z</time></trkpt><trkpt lat="44.7260547" lon="9.440113"><ele>951.0</ele><time>2026-04-18T11:03:40.26Z</time></trkpt><trkpt lat="44.7261437" lon="9.4402902"><ele>951.0</ele><time>2026-04-18T11:03:41.261Z</time></trkpt><trkpt lat="44.7262321" lon="9.4404612"><ele>948.0</ele><time>2026-04-18T11:03:42.261Z</time></trkpt><trkpt lat="44.7263216" lon="9.4406254"><ele>945.0</ele><time>2026-04-18T11:03:43.261Z</time></trkpt><trkpt lat="44.7264201" lon="9.4407745"><ele>942.0</ele><time>2026-04-18T11:03:44.261Z</time></trkpt><trkpt lat="44.7265341" lon="9.4408896"><ele>939.0</ele><time>2026-04-18T11:03:45.261Z</time></trkpt><trkpt lat="44.7266514" lon="9.4409845"><ele>939.0</ele><time>2026-04-18T11:03:46.262Z</time></trkpt><trkpt lat="44.7267702" lon="9.4410885"><ele>939.0</ele><time>2026-04-18T11:03:47.261Z</time></trkpt><trkpt lat="44.7268821" lon="9.4412113"><ele>939.0</ele><time>2026-04-18T11:03:48.261Z</time></trkpt><trkpt lat="44.7269828" lon="9.4413418"><ele>939.0</ele><time>2026-04-18T11:03:49.261Z</time></trkpt><trkpt lat="44.7270562" lon="9.4414692"><ele>936.8000000000001</ele><time>2026-04-18T11:03:50.26Z</time></trkpt><trkpt lat="44.7271036" lon="9.441598"><ele>934.6000000000001</ele><time>2026-04-18T11:03:51.26Z</time></trkpt><trkpt lat="44.7271223" lon="9.4417306"><ele>932.4</ele><time>2026-04-18T11:03:52.26Z</time></trkpt><trkpt lat="44.7271164" lon="9.4418791"><ele>930.2</ele><time>2026-04-18T11:03:53.262Z</time></trkpt><trkpt lat="44.7270954" lon="9.4420308"><ele>928.0</ele><time>2026-04-18T11:03:54.262Z</time></trkpt><trkpt lat="44.7271036" lon="9.442179"><ele>928.0</ele><time>2026-04-18T11:03:55.261Z</time></trkpt><trkpt lat="44.7271372" lon="9.4423243"><ele>928.0</ele><time>2026-04-18T11:03:56.261Z</time></trkpt><trkpt lat="44.7271966" lon="9.4424543"><ele>928.0</ele><time>2026-04-18T11:03:57.261Z</time></trkpt><trkpt lat="44.7272757" lon="9.442564"><ele>928.0</ele><time>2026-04-18T11:03:58.261Z</time></trkpt><trkpt lat="44.7273681" lon="9.4426392"><ele>928.0</ele><time>2026-04-18T11:03:59.26Z</time></trkpt><trkpt lat="44.7274707" lon="9.442663"><ele>928.0</ele><time>2026-04-18T11:04:00.261Z</time></trkpt><trkpt lat="44.7275702" lon="9.4426279"><ele>928.0</ele><time>2026-04-18T11:04:01.26Z</time></trkpt><trkpt lat="44.7276638" lon="9.4425494"><ele>928.0</ele><time>2026-04-18T11:04:02.261Z</time></trkpt><trkpt lat="44.7277573" lon="9.4424677"><ele>928.0</ele><time>2026-04-18T11:04:03.26Z</time></trkpt><trkpt lat="44.7278626" lon="9.4424267"><ele>928.0</ele><time>2026-04-18T11:04:04.26Z</time></trkpt><trkpt lat="44.72797" lon="9.442405"><ele>927.3333333333333</ele><time>2026-04-18T11:04:05.261Z</time></trkpt><trkpt lat="44.7280742" lon="9.4423724"><ele>926.6666666666666</ele><time>2026-04-18T11:04:06.261Z</time></trkpt><trkpt lat="44.7281608" lon="9.442325"><ele>926.0</ele><time>2026-04-18T11:04:07.261Z</time></trkpt><trkpt lat="44.7282232" lon="9.4422734"><ele>925.3333333333333</ele><time>2026-04-18T11:04:08.261Z</time></trkpt><trkpt lat="44.7282912" lon="9.4422092"><ele>924.6666666666666</ele><time>2026-04-18T11:04:10.262Z</time></trkpt><trkpt lat="44.7283774" lon="9.4421897"><ele>924.0</ele><time>2026-04-18T11:04:13.261Z</time></trkpt><trkpt lat="44.7284572" lon="9.4422192"><ele>924.0</ele><time>2026-04-18T11:04:15.26Z</time></trkpt><trkpt lat="44.7285278" lon="9.4422358"><ele>924.0</ele><time>2026-04-18T11:04:18.262Z</time></trkpt><trkpt lat="44.728599" lon="9.4421948"><ele>924.0</ele><time>2026-04-18T11:04:21.26Z</time></trkpt><trkpt lat="44.7286691" lon="9.4421991"><ele>924.0</ele><time>2026-04-18T11:06:30.261Z</time></trkpt><trkpt lat="44.7287575" lon="9.442204"><ele>924.0</ele><time>2026-04-18T11:06:32.259Z</time></trkpt><trkpt lat="44.7288223" lon="9.4422071"><ele>924.0</ele><time>2026-04-18T11:06:33.259Z</time></trkpt><trkpt lat="44.7289046" lon="9.4422117"><ele>923.6</ele><time>2026-04-18T11:06:34.26Z</time></trkpt><trkpt lat="44.7290014" lon="9.4422247"><ele>923.2</ele><time>2026-04-18T11:06:35.26Z</time></trkpt><trkpt lat="44.7290942" lon="9.4422588"><ele>922.8000000000001</ele><time>2026-04-18T11:06:36.26Z</time></trkpt><trkpt lat="44.7291782" lon="9.4423093"><ele>922.4000000000001</ele><time>2026-04-18T11:06:37.259Z</time></trkpt><trkpt lat="44.7292674" lon="9.4423812"><ele>922.0</ele><time>2026-04-18T11:06:38.26Z</time></trkpt><trkpt lat="44.7293541" lon="9.4424594"><ele>922.4000000000001</ele><time>2026-04-18T11:06:39.261Z</time></trkpt><trkpt lat="44.7294333" lon="9.4425532"><ele>922.8000000000001</ele><time>2026-04-18T11:06:40.259Z</time></trkpt><trkpt lat="44.7294919" lon="9.4426541"><ele>923.2</ele><time>2026-04-18T11:06:41.26Z</time></trkpt><trkpt lat="44.7295427" lon="9.442766"><ele>923.6</ele><time>2026-04-18T11:06:42.26Z</time></trkpt><trkpt lat="44.7295805" lon="9.4428872"><ele>924.0</ele><time>2026-04-18T11:06:43.26Z</time></trkpt><trkpt lat="44.7296212" lon="9.4430162"><ele>924.8000000000001</ele><time>2026-04-18T11:06:44.259Z</time></trkpt><trkpt lat="44.7296758" lon="9.4431237"><ele>925.6000000000001</ele><time>2026-04-18T11:06:45.259Z</time></trkpt><trkpt lat="44.7297525" lon="9.4432068"><ele>926.4</ele><time>2026-04-18T11:06:46.26Z</time></trkpt><trkpt lat="44.7298437" lon="9.4432589"><ele>927.2</ele><time>2026-04-18T11:06:47.26Z</time></trkpt><trkpt lat="44.7299483" lon="9.4432944"><ele>928.0</ele><time>2026-04-18T11:06:48.26Z</time></trkpt><trkpt lat="44.7300685" lon="9.4433237"><ele>928.0</ele><time>2026-04-18T11:06:49.26Z</time></trkpt><trkpt lat="44.7301771" lon="9.4433643"><ele>928.0</ele><time>2026-04-18T11:06:50.26Z</time></trkpt><trkpt lat="44.7302741" lon="9.4433992"><ele>928.0</ele><time>2026-04-18T11:06:51.26Z</time></trkpt><trkpt lat="44.7303716" lon="9.4434037"><ele>928.0</ele><time>2026-04-18T11:06:52.26Z</time></trkpt><trkpt lat="44.7304633" lon="9.4433773"><ele>928.0</ele><time>2026-04-18T11:06:53.26Z</time></trkpt><trkpt lat="44.7305587" lon="9.4433113"><ele>929.2</ele><time>2026-04-18T11:06:54.259Z</time></trkpt><trkpt lat="44.7306677" lon="9.4432147"><ele>930.4</ele><time>2026-04-18T11:06:55.26Z</time></trkpt><trkpt lat="44.7307521" lon="9.4431291"><ele>931.6000000000001</ele><time>2026-04-18T11:06:56.26Z</time></trkpt><trkpt lat="44.7308397" lon="9.4430394"><ele>932.8000000000001</ele><time>2026-04-18T11:06:57.26Z</time></trkpt><trkpt lat="44.7309213" lon="9.4429498"><ele>934.0</ele><time>2026-04-18T11:06:58.26Z</time></trkpt><trkpt lat="44.7309993" lon="9.4428581"><ele>937.4999999999999</ele><time>2026-04-18T11:06:59.261Z</time></trkpt><trkpt lat="44.7310745" lon="9.4427731"><ele>941.0</ele><time>2026-04-18T11:07:00.26Z</time></trkpt><trkpt lat="44.7311334" lon="9.4427119"><ele>944.5</ele><time>2026-04-18T11:07:01.26Z</time></trkpt><trkpt lat="44.7312252" lon="9.4426226"><ele>948.0</ele><time>2026-04-18T11:07:03.26Z</time></trkpt><trkpt lat="44.7312993" lon="9.4426058"><ele>951.4999999999999</ele><time>2026-04-18T11:07:05.26Z</time></trkpt><trkpt lat="44.7313642" lon="9.4426498"><ele>955.0</ele><time>2026-04-18T11:07:07.26Z</time></trkpt><trkpt lat="44.7314289" lon="9.4426309"><ele>955.0</ele><time>2026-04-18T11:07:09.259Z</time></trkpt><trkpt lat="44.7314805" lon="9.4425656"><ele>955.0</ele><time>2026-04-18T11:07:11.26Z</time></trkpt><trkpt lat="44.7315582" lon="9.442644"><ele>955.0</ele><time>2026-04-18T11:07:14.259Z</time></trkpt><trkpt lat="44.7316118" lon="9.4427328"><ele>955.0</ele><time>2026-04-18T11:07:16.259Z</time></trkpt><trkpt lat="44.7316591" lon="9.4428584"><ele>955.0</ele><time>2026-04-18T11:07:19.259Z</time></trkpt><trkpt lat="44.731642" lon="9.4430311"><ele>956.4</ele><time>2026-04-18T11:07:21.259Z</time></trkpt><trkpt lat="44.7316137" lon="9.4431931"><ele>957.8</ele><time>2026-04-18T11:07:23.26Z</time></trkpt><trkpt lat="44.7315801" lon="9.4433605"><ele>959.2</ele><time>2026-04-18T11:07:25.26Z</time></trkpt><trkpt lat="44.7315491" lon="9.4434536"><ele>960.6</ele><time>2026-04-18T11:07:26.259Z</time></trkpt><trkpt lat="44.7315242" lon="9.443538"><ele>962.0</ele><time>2026-04-18T11:07:27.259Z</time></trkpt><trkpt lat="44.7315233" lon="9.4436613"><ele>963.6</ele><time>2026-04-18T11:07:29.261Z</time></trkpt><trkpt lat="44.7315636" lon="9.4438392"><ele>965.2</ele><time>2026-04-18T11:07:31.259Z</time></trkpt><trkpt lat="44.7315863" lon="9.44395"><ele>966.8</ele><time>2026-04-18T11:07:32.259Z</time></trkpt><trkpt lat="44.73161" lon="9.4440629"><ele>968.4</ele><time>2026-04-18T11:07:33.259Z</time></trkpt><trkpt lat="44.7316333" lon="9.4441835"><ele>970.0</ele><time>2026-04-18T11:07:34.259Z</time></trkpt><trkpt lat="44.7316536" lon="9.4442774"><ele>970.0</ele><time>2026-04-18T11:07:35.259Z</time></trkpt><trkpt lat="44.7317012" lon="9.4444218"><ele>970.0</ele><time>2026-04-18T11:07:37.259Z</time></trkpt><trkpt lat="44.7317449" lon="9.4445215"><ele>970.0</ele><time>2026-04-18T11:07:39.26Z</time></trkpt><trkpt lat="44.7318024" lon="9.4446169"><ele>970.0</ele><time>2026-04-18T11:07:41.259Z</time></trkpt><trkpt lat="44.7318602" lon="9.4447398"><ele>970.0</ele><time>2026-04-18T11:07:43.259Z</time></trkpt><trkpt lat="44.731874" lon="9.4448906"><ele>971.1666666666666</ele><time>2026-04-18T11:07:45.259Z</time></trkpt><trkpt lat="44.7318355" lon="9.445026"><ele>972.3333333333333</ele><time>2026-04-18T11:07:47.26Z</time></trkpt><trkpt lat="44.7317856" lon="9.4450855"><ele>973.5</ele><time>2026-04-18T11:07:48.26Z</time></trkpt><trkpt lat="44.7317251" lon="9.4451625"><ele>974.6666666666667</ele><time>2026-04-18T11:07:49.26Z</time></trkpt><trkpt lat="44.7316778" lon="9.445228"><ele>975.8333333333334</ele><time>2026-04-18T11:07:50.26Z</time></trkpt><trkpt lat="44.7316543" lon="9.4453452"><ele>977.0</ele><time>2026-04-18T11:07:52.259Z</time></trkpt><trkpt lat="44.7317247" lon="9.4454366"><ele>979.0</ele><time>2026-04-18T11:07:54.26Z</time></trkpt><trkpt lat="44.7318545" lon="9.4454686"><ele>981.0</ele><time>2026-04-18T11:07:56.259Z</time></trkpt><trkpt lat="44.731923" lon="9.4454657"><ele>983.0</ele><time>2026-04-18T11:07:57.261Z</time></trkpt><trkpt lat="44.7319854" lon="9.4454886"><ele>985.0</ele><time>2026-04-18T11:07:58.26Z</time></trkpt><trkpt lat="44.7320791" lon="9.4455887"><ele>987.0</ele><time>2026-04-18T11:08:00.26Z</time></trkpt><trkpt lat="44.7321427" lon="9.4457391"><ele>987.0</ele><time>2026-04-18T11:08:02.261Z</time></trkpt><trkpt lat="44.7321716" lon="9.4458379"><ele>987.0</ele><time>2026-04-18T11:08:03.261Z</time></trkpt><trkpt lat="44.7321593" lon="9.4459974"><ele>987.0</ele><time>2026-04-18T11:08:05.26Z</time></trkpt><trkpt lat="44.7321241" lon="9.4460869"><ele>987.0</ele><time>2026-04-18T11:08:06.26Z</time></trkpt><trkpt lat="44.7321104" lon="9.4462332"><ele>987.0</ele><time>2026-04-18T11:08:08.261Z</time></trkpt><trkpt lat="44.7321665" lon="9.4463723"><ele>986.5</ele><time>2026-04-18T11:08:10.259Z</time></trkpt><trkpt lat="44.7322107" lon="9.4464487"><ele>986.0</ele><time>2026-04-18T11:08:12.261Z</time></trkpt><trkpt lat="44.7322547" lon="9.4465452"><ele>985.5</ele><time>2026-04-18T11:08:29.26Z</time></trkpt><trkpt lat="44.7322804" lon="9.4466447"><ele>985.0</ele><time>2026-04-18T11:08:31.261Z</time></trkpt><trkpt lat="44.7323112" lon="9.4467752"><ele>984.5</ele><time>2026-04-18T11:08:33.26Z</time></trkpt><trkpt lat="44.7323388" lon="9.4469172"><ele>984.0</ele><time>2026-04-18T11:08:35.26Z</time></trkpt><trkpt lat="44.7323388" lon="9.4470912"><ele>985.1666666666666</ele><time>2026-04-18T11:08:37.26Z</time></trkpt><trkpt lat="44.7323732" lon="9.4472675"><ele>986.3333333333333</ele><time>2026-04-18T11:08:39.26Z</time></trkpt><trkpt lat="44.7324061" lon="9.4473628"><ele>987.5</ele><time>2026-04-18T11:08:40.261Z</time></trkpt><trkpt lat="44.7324472" lon="9.4474623"><ele>988.6666666666666</ele><time>2026-04-18T11:08:41.26Z</time></trkpt><trkpt lat="44.732462" lon="9.4475528"><ele>989.8333333333333</ele><time>2026-04-18T11:08:42.26Z</time></trkpt><trkpt lat="44.7324975" lon="9.4476283"><ele>991.0</ele><time>2026-04-18T11:08:43.261Z</time></trkpt><trkpt lat="44.7325345" lon="9.4477045"><ele>990.9999999999999</ele><time>2026-04-18T11:08:44.26Z</time></trkpt><trkpt lat="44.7325933" lon="9.4477879"><ele>991.0</ele><time>2026-04-18T11:08:45.259Z</time></trkpt><trkpt lat="44.732653" lon="9.447854"><ele>991.0</ele><time>2026-04-18T11:08:46.26Z</time></trkpt><trkpt lat="44.7327127" lon="9.4479029"><ele>991.0</ele><time>2026-04-18T11:08:47.26Z</time></trkpt><trkpt lat="44.7327669" lon="9.4479551"><ele>990.9999999999999</ele><time>2026-04-18T11:08:48.261Z</time></trkpt><trkpt lat="44.7328505" lon="9.4479853"><ele>991.0</ele><time>2026-04-18T11:08:50.259Z</time></trkpt><trkpt lat="44.7329172" lon="9.4478736"><ele>987.6666666666666</ele><time>2026-04-18T11:08:53.26Z</time></trkpt><trkpt lat="44.7329658" lon="9.4477655"><ele>984.3333333333333</ele><time>2026-04-18T11:08:54.26Z</time></trkpt><trkpt lat="44.7330085" lon="9.4476639"><ele>981.0</ele><time>2026-04-18T11:08:55.259Z</time></trkpt><trkpt lat="44.7330489" lon="9.4475645"><ele>977.6666666666667</ele><time>2026-04-18T11:08:56.259Z</time></trkpt><trkpt lat="44.7330937" lon="9.4474756"><ele>974.3333333333334</ele><time>2026-04-18T11:08:57.26Z</time></trkpt><trkpt lat="44.7331428" lon="9.447398"><ele>971.0</ele><time>2026-04-18T11:08:58.26Z</time></trkpt><trkpt lat="44.7332013" lon="9.4473419"><ele>971.0</ele><time>2026-04-18T11:08:59.26Z</time></trkpt><trkpt lat="44.7332602" lon="9.4472929"><ele>971.0000000000001</ele><time>2026-04-18T11:09:00.26Z</time></trkpt><trkpt lat="44.7333303" lon="9.4472506"><ele>971.0</ele><time>2026-04-18T11:09:01.259Z</time></trkpt><trkpt lat="44.7334043" lon="9.4472125"><ele>971.0</ele><time>2026-04-18T11:09:02.26Z</time></trkpt><trkpt lat="44.7334804" lon="9.4471988"><ele>971.0000000000001</ele><time>2026-04-18T11:09:03.26Z</time></trkpt><trkpt lat="44.7335536" lon="9.4471886"><ele>971.0</ele><time>2026-04-18T11:09:04.26Z</time></trkpt><trkpt lat="44.7336216" lon="9.4472051"><ele>971.0</ele><time>2026-04-18T11:09:05.26Z</time></trkpt><trkpt lat="44.733699" lon="9.44724"><ele>969.1999999999999</ele><time>2026-04-18T11:09:06.26Z</time></trkpt><trkpt lat="44.7337775" lon="9.4472731"><ele>967.3999999999999</ele><time>2026-04-18T11:09:07.259Z</time></trkpt><trkpt lat="44.7338586" lon="9.4472961"><ele>965.6</ele><time>2026-04-18T11:09:08.26Z</time></trkpt><trkpt lat="44.7339918" lon="9.4472677"><ele>963.8</ele><time>2026-04-18T11:09:09.26Z</time></trkpt><trkpt lat="44.7340861" lon="9.4472639"><ele>962.0</ele><time>2026-04-18T11:09:10.26Z</time></trkpt><trkpt lat="44.7341748" lon="9.447297"><ele>962.0000000000001</ele><time>2026-04-18T11:09:11.26Z</time></trkpt><trkpt lat="44.73425" lon="9.4473439"><ele>962.0</ele><time>2026-04-18T11:09:12.259Z</time></trkpt><trkpt lat="44.7343106" lon="9.4474043"><ele>962.0</ele><time>2026-04-18T11:09:13.259Z</time></trkpt><trkpt lat="44.7343621" lon="9.4474667"><ele>962.0</ele><time>2026-04-18T11:09:14.26Z</time></trkpt><trkpt lat="44.7344039" lon="9.4475868"><ele>962.0000000000001</ele><time>2026-04-18T11:09:15.26Z</time></trkpt><trkpt lat="44.7344461" lon="9.4476814"><ele>962.0</ele><time>2026-04-18T11:09:16.26Z</time></trkpt><trkpt lat="44.734536" lon="9.4477649"><ele>960.6666666666667</ele><time>2026-04-18T11:09:18.26Z</time></trkpt><trkpt lat="44.7346004" lon="9.4477101"><ele>959.3333333333334</ele><time>2026-04-18T11:09:19.26Z</time></trkpt><trkpt lat="44.7346896" lon="9.4476952"><ele>958.0</ele><time>2026-04-18T11:09:21.261Z</time></trkpt><trkpt lat="44.7347544" lon="9.4477255"><ele>956.6666666666667</ele><time>2026-04-18T11:09:22.259Z</time></trkpt><trkpt lat="44.734823" lon="9.4477793"><ele>955.3333333333334</ele><time>2026-04-18T11:09:23.26Z</time></trkpt><trkpt lat="44.7348846" lon="9.4478412"><ele>954.0</ele><time>2026-04-18T11:09:24.26Z</time></trkpt><trkpt lat="44.73494" lon="9.4478947"><ele>954.0</ele><time>2026-04-18T11:09:25.259Z</time></trkpt><trkpt lat="44.7350476" lon="9.447922"><ele>954.0000000000001</ele><time>2026-04-18T11:09:27.26Z</time></trkpt><trkpt lat="44.7351541" lon="9.4478782"><ele>954.0000000000001</ele><time>2026-04-18T11:09:29.26Z</time></trkpt><trkpt lat="44.735237" lon="9.4478275"><ele>954.0</ele><time>2026-04-18T11:09:31.259Z</time></trkpt><trkpt lat="44.7353167" lon="9.4478045"><ele>954.0</ele><time>2026-04-18T11:09:34.259Z</time></trkpt><trkpt lat="44.7354123" lon="9.4478307"><ele>954.6</ele><time>2026-04-18T11:10:01.26Z</time></trkpt><trkpt lat="44.7354592" lon="9.4479762"><ele>955.2</ele><time>2026-04-18T11:10:03.26Z</time></trkpt><trkpt lat="44.7354704" lon="9.4481095"><ele>955.8000000000001</ele><time>2026-04-18T11:10:04.259Z</time></trkpt><trkpt lat="44.7354826" lon="9.44824"><ele>956.4000000000001</ele><time>2026-04-18T11:10:05.26Z</time></trkpt><trkpt lat="44.7355015" lon="9.4483288"><ele>957.0</ele><time>2026-04-18T11:10:06.26Z</time></trkpt><trkpt lat="44.735554" lon="9.4484235"><ele>957.0</ele><time>2026-04-18T11:10:08.26Z</time></trkpt><trkpt lat="44.7356672" lon="9.4483608"><ele>957.0</ele><time>2026-04-18T11:10:10.259Z</time></trkpt><trkpt lat="44.7357394" lon="9.4483037"><ele>957.0</ele><time>2026-04-18T11:10:11.259Z</time></trkpt><trkpt lat="44.7358044" lon="9.4482266"><ele>957.0</ele><time>2026-04-18T11:10:12.26Z</time></trkpt><trkpt lat="44.7358811" lon="9.4482"><ele>957.0</ele><time>2026-04-18T11:10:13.26Z</time></trkpt><trkpt lat="44.7359582" lon="9.4481487"><ele>957.6</ele><time>2026-04-18T11:10:14.26Z</time></trkpt><trkpt lat="44.7360592" lon="9.4481316"><ele>958.2</ele><time>2026-04-18T11:10:15.26Z</time></trkpt><trkpt lat="44.7361482" lon="9.4481122"><ele>958.8</ele><time>2026-04-18T11:10:16.26Z</time></trkpt><trkpt lat="44.7362301" lon="9.4480966"><ele>959.4</ele><time>2026-04-18T11:10:17.26Z</time></trkpt><trkpt lat="44.7363408" lon="9.4481161"><ele>960.0</ele><time>2026-04-18T11:10:19.26Z</time></trkpt><trkpt lat="44.7364066" lon="9.4481514"><ele>960.0</ele><time>2026-04-18T11:10:20.26Z</time></trkpt><trkpt lat="44.7365091" lon="9.4481948"><ele>960.0</ele><time>2026-04-18T11:10:22.26Z</time></trkpt><trkpt lat="44.7365954" lon="9.4481227"><ele>960.0</ele><time>2026-04-18T11:10:24.26Z</time></trkpt><trkpt lat="44.7366983" lon="9.4480353"><ele>960.0</ele><time>2026-04-18T11:10:26.259Z</time></trkpt><trkpt lat="44.7367647" lon="9.4479839"><ele>960.0</ele><time>2026-04-18T11:10:27.26Z</time></trkpt><trkpt lat="44.7368284" lon="9.4479208"><ele>959.0</ele><time>2026-04-18T11:10:28.26Z</time></trkpt><trkpt lat="44.7369298" lon="9.447921"><ele>958.0</ele><time>2026-04-18T11:10:30.26Z</time></trkpt><trkpt lat="44.7370121" lon="9.4480056"><ele>957.0</ele><time>2026-04-18T11:10:32.261Z</time></trkpt><trkpt lat="44.7370805" lon="9.4481057"><ele>956.0</ele><time>2026-04-18T11:10:34.259Z</time></trkpt><trkpt lat="44.7371287" lon="9.4481671"><ele>955.0</ele><time>2026-04-18T11:10:35.259Z</time></trkpt><trkpt lat="44.7371855" lon="9.4482196"><ele>954.0</ele><time>2026-04-18T11:10:36.26Z</time></trkpt><trkpt lat="44.7372357" lon="9.448275"><ele>957.4000000000001</ele><time>2026-04-18T11:10:37.259Z</time></trkpt><trkpt lat="44.7373009" lon="9.4484039"><ele>960.8000000000001</ele><time>2026-04-18T11:10:39.26Z</time></trkpt><trkpt lat="44.7373864" lon="9.4483828"><ele>964.1999999999999</ele><time>2026-04-18T11:10:42.26Z</time></trkpt><trkpt lat="44.7374132" lon="9.4482316"><ele>967.5999999999999</ele><time>2026-04-18T11:10:52.26Z</time></trkpt><trkpt lat="44.7374334" lon="9.4481423"><ele>971.0</ele><time>2026-04-18T11:10:53.261Z</time></trkpt><trkpt lat="44.7374855" lon="9.4480116"><ele>971.0000000000001</ele><time>2026-04-18T11:10:55.259Z</time></trkpt><trkpt lat="44.7375413" lon="9.4479417"><ele>971.0</ele><time>2026-04-18T11:10:57.26Z</time></trkpt><trkpt lat="44.7376291" lon="9.4479835"><ele>971.0</ele><time>2026-04-18T11:11:00.261Z</time></trkpt><trkpt lat="44.7377305" lon="9.4480406"><ele>971.0</ele><time>2026-04-18T11:11:02.26Z</time></trkpt><trkpt lat="44.7378071" lon="9.4480466"><ele>971.0000000000001</ele><time>2026-04-18T11:11:03.261Z</time></trkpt><trkpt lat="44.7378851" lon="9.448034"><ele>971.0</ele><time>2026-04-18T11:11:04.259Z</time></trkpt><trkpt lat="44.7379595" lon="9.4480401"><ele>971.4</ele><time>2026-04-18T11:11:05.26Z</time></trkpt><trkpt lat="44.7380414" lon="9.4480625"><ele>971.8</ele><time>2026-04-18T11:11:06.261Z</time></trkpt><trkpt lat="44.7381075" lon="9.4480854"><ele>972.1999999999999</ele><time>2026-04-18T11:11:07.259Z</time></trkpt><trkpt lat="44.7382197" lon="9.4480762"><ele>972.5999999999999</ele><time>2026-04-18T11:11:09.26Z</time></trkpt><trkpt lat="44.7383446" lon="9.4479699"><ele>973.0</ele><time>2026-04-18T11:11:11.26Z</time></trkpt><trkpt lat="44.7384274" lon="9.4478949"><ele>972.9999999999999</ele><time>2026-04-18T11:11:12.26Z</time></trkpt><trkpt lat="44.7384848" lon="9.4477754"><ele>973.0</ele><time>2026-04-18T11:11:13.26Z</time></trkpt><trkpt lat="44.7385427" lon="9.4477099"><ele>973.0</ele><time>2026-04-18T11:11:14.259Z</time></trkpt><trkpt lat="44.7386091" lon="9.447672"><ele>973.0</ele><time>2026-04-18T11:11:15.259Z</time></trkpt><trkpt lat="44.7387119" lon="9.4476893"><ele>972.9999999999999</ele><time>2026-04-18T11:11:17.259Z</time></trkpt><trkpt lat="44.7387761" lon="9.4477396"><ele>973.0</ele><time>2026-04-18T11:11:18.26Z</time></trkpt><trkpt lat="44.7388368" lon="9.4478006"><ele>973.3333333333333</ele><time>2026-04-18T11:11:19.26Z</time></trkpt><trkpt lat="44.7388885" lon="9.4478828"><ele>973.6666666666666</ele><time>2026-04-18T11:11:20.259Z</time></trkpt><trkpt lat="44.7389404" lon="9.4480006"><ele>974.0</ele><time>2026-04-18T11:11:21.26Z</time></trkpt><trkpt lat="44.7390005" lon="9.4481035"><ele>974.3333333333333</ele><time>2026-04-18T11:11:22.259Z</time></trkpt><trkpt lat="44.7390556" lon="9.4481656"><ele>974.6666666666666</ele><time>2026-04-18T11:11:23.261Z</time></trkpt><trkpt lat="44.7391168" lon="9.4482112"><ele>975.0</ele><time>2026-04-18T11:11:24.26Z</time></trkpt><trkpt lat="44.7392333" lon="9.4481728"><ele>980.1666666666666</ele><time>2026-04-18T11:11:26.259Z</time></trkpt><trkpt lat="44.7392942" lon="9.4481065"><ele>985.3333333333333</ele><time>2026-04-18T11:11:27.26Z</time></trkpt><trkpt lat="44.7393903" lon="9.4481378"><ele>990.5</ele><time>2026-04-18T11:11:29.26Z</time></trkpt><trkpt lat="44.7394556" lon="9.4481993"><ele>995.6666666666666</ele><time>2026-04-18T11:11:30.261Z</time></trkpt><trkpt lat="44.7395698" lon="9.4482415"><ele>1000.8333333333333</ele><time>2026-04-18T11:11:32.261Z</time></trkpt><trkpt lat="44.7396393" lon="9.4482487"><ele>1006.0</ele><time>2026-04-18T11:11:33.26Z</time></trkpt><trkpt lat="44.7397137" lon="9.4481916"><ele>1006.6666666666666</ele><time>2026-04-18T11:11:34.261Z</time></trkpt><trkpt lat="44.7397964" lon="9.4481877"><ele>1007.3333333333333</ele><time>2026-04-18T11:11:35.26Z</time></trkpt><trkpt lat="44.7398768" lon="9.4481787"><ele>1008.0</ele><time>2026-04-18T11:11:36.259Z</time></trkpt><trkpt lat="44.7399557" lon="9.4481661"><ele>1008.6666666666667</ele><time>2026-04-18T11:11:37.26Z</time></trkpt><trkpt lat="44.7400475" lon="9.4481447"><ele>1009.3333333333334</ele><time>2026-04-18T11:11:38.259Z</time></trkpt><trkpt lat="44.7401521" lon="9.4481018"><ele>1010.0</ele><time>2026-04-18T11:11:39.26Z</time></trkpt><trkpt lat="44.7402459" lon="9.4480726"><ele>1011.0</ele><time>2026-04-18T11:11:40.26Z</time></trkpt><trkpt lat="44.740332" lon="9.448047"><ele>1012.0</ele><time>2026-04-18T11:11:41.259Z</time></trkpt><trkpt lat="44.7404256" lon="9.4479983"><ele>1013.0</ele><time>2026-04-18T11:11:42.26Z</time></trkpt><trkpt lat="44.7405102" lon="9.4479567"><ele>1014.0</ele><time>2026-04-18T11:11:43.261Z</time></trkpt><trkpt lat="44.7406019" lon="9.4479482"><ele>1015.0</ele><time>2026-04-18T11:11:44.26Z</time></trkpt><trkpt lat="44.7406835" lon="9.4479333"><ele>1014.1666666666666</ele><time>2026-04-18T11:11:45.26Z</time></trkpt><trkpt lat="44.7407732" lon="9.4479176"><ele>1013.3333333333333</ele><time>2026-04-18T11:11:46.26Z</time></trkpt><trkpt lat="44.7408545" lon="9.4478967"><ele>1012.5</ele><time>2026-04-18T11:11:47.259Z</time></trkpt><trkpt lat="44.7409329" lon="9.4478584"><ele>1011.6666666666667</ele><time>2026-04-18T11:11:48.259Z</time></trkpt><trkpt lat="44.7409885" lon="9.4478099"><ele>1010.8333333333334</ele><time>2026-04-18T11:11:49.259Z</time></trkpt><trkpt lat="44.7410474" lon="9.4477616"><ele>1010.0</ele><time>2026-04-18T11:11:50.26Z</time></trkpt><trkpt lat="44.7411081" lon="9.4477212"><ele>1010.0000000000001</ele><time>2026-04-18T11:11:51.26Z</time></trkpt><trkpt lat="44.7411735" lon="9.4476927"><ele>1010.0</ele><time>2026-04-18T11:11:52.26Z</time></trkpt><trkpt lat="44.7412888" lon="9.4476601"><ele>1010.0</ele><time>2026-04-18T11:11:54.26Z</time></trkpt><trkpt lat="44.741381" lon="9.4475835"><ele>1010.0</ele><time>2026-04-18T11:11:56.26Z</time></trkpt><trkpt lat="44.7414496" lon="9.4475236"><ele>1010.0000000000001</ele><time>2026-04-18T11:11:58.26Z</time></trkpt><trkpt lat="44.7415163" lon="9.4474839"><ele>1010.0</ele><time>2026-04-18T11:12:01.259Z</time></trkpt><trkpt lat="44.7415735" lon="9.4474438"><ele>1010.0000000000001</ele><time>2026-04-18T11:12:06.26Z</time></trkpt><trkpt lat="44.7416716" lon="9.4473844"><ele>1010.0</ele><time>2026-04-18T11:13:44.258Z</time></trkpt><trkpt lat="44.7417411" lon="9.4473829"><ele>1010.0</ele><time>2026-04-18T11:13:45.259Z</time></trkpt><trkpt lat="44.7418225" lon="9.4473885"><ele>1010.0</ele><time>2026-04-18T11:13:46.259Z</time></trkpt><trkpt lat="44.7419046" lon="9.4473955"><ele>1010.0000000000001</ele><time>2026-04-18T11:13:47.259Z</time></trkpt><trkpt lat="44.7419978" lon="9.4473994"><ele>1010.0</ele><time>2026-04-18T11:13:48.259Z</time></trkpt><trkpt lat="44.7420966" lon="9.4474047"><ele>1010.0</ele><time>2026-04-18T11:13:49.259Z</time></trkpt><trkpt lat="44.742201" lon="9.4474014"><ele>1010.0</ele><time>2026-04-18T11:13:50.259Z</time></trkpt><trkpt lat="44.7423054" lon="9.4474001"><ele>1010.0</ele><time>2026-04-18T11:13:51.259Z</time></trkpt><trkpt lat="44.7424275" lon="9.4474032"><ele>1010.0</ele><time>2026-04-18T11:13:52.259Z</time></trkpt><trkpt lat="44.7425488" lon="9.4474096"><ele>1010.0</ele><time>2026-04-18T11:13:53.26Z</time></trkpt><trkpt lat="44.7426652" lon="9.4474165"><ele>1010.0</ele><time>2026-04-18T11:13:54.259Z</time></trkpt><trkpt lat="44.7427702" lon="9.4474253"><ele>1010.0</ele><time>2026-04-18T11:13:55.259Z</time></trkpt><trkpt lat="44.7428606" lon="9.447415"><ele>1010.0</ele><time>2026-04-18T11:13:56.259Z</time></trkpt><trkpt lat="44.7429346" lon="9.4473778"><ele>1010.0</ele><time>2026-04-18T11:13:57.259Z</time></trkpt><trkpt lat="44.7429978" lon="9.4472898"><ele>1009.5</ele><time>2026-04-18T11:13:58.259Z</time></trkpt><trkpt lat="44.7430618" lon="9.4471716"><ele>1009.0</ele><time>2026-04-18T11:13:59.259Z</time></trkpt><trkpt lat="44.7431318" lon="9.4470467"><ele>1008.5</ele><time>2026-04-18T11:14:00.259Z</time></trkpt><trkpt lat="44.7432225" lon="9.4469321"><ele>1008.0</ele><time>2026-04-18T11:14:01.259Z</time></trkpt><trkpt lat="44.7433158" lon="9.4468309"><ele>1008.0</ele><time>2026-04-18T11:14:02.26Z</time></trkpt><trkpt lat="44.7433899" lon="9.4467141"><ele>1008.0</ele><time>2026-04-18T11:14:03.259Z</time></trkpt><trkpt lat="44.7434722" lon="9.4465958"><ele>1008.0</ele><time>2026-04-18T11:14:04.259Z</time></trkpt><trkpt lat="44.7435202" lon="9.4463695"><ele>1008.0</ele><time>2026-04-18T11:14:05.26Z</time></trkpt><trkpt lat="44.7435914" lon="9.4461823"><ele>1013.5</ele><time>2026-04-18T11:14:06.259Z</time></trkpt><trkpt lat="44.7436621" lon="9.4460097"><ele>1019.0</ele><time>2026-04-18T11:14:07.26Z</time></trkpt><trkpt lat="44.7437328" lon="9.4458435"><ele>1024.5</ele><time>2026-04-18T11:14:08.259Z</time></trkpt><trkpt lat="44.7437954" lon="9.4456672"><ele>1030.0</ele><time>2026-04-18T11:14:09.259Z</time></trkpt><trkpt lat="44.7438455" lon="9.4454756"><ele>1026.25</ele><time>2026-04-18T11:14:10.258Z</time></trkpt><trkpt lat="44.7438897" lon="9.4452806"><ele>1022.5</ele><time>2026-04-18T11:14:11.258Z</time></trkpt><trkpt lat="44.7439197" lon="9.4450834"><ele>1018.75</ele><time>2026-04-18T11:14:12.258Z</time></trkpt><trkpt lat="44.7439312" lon="9.4448787"><ele>1015.0</ele><time>2026-04-18T11:14:13.259Z</time></trkpt><trkpt lat="44.7439316" lon="9.4446734"><ele>1013.5</ele><time>2026-04-18T11:14:14.259Z</time></trkpt><trkpt lat="44.7439236" lon="9.4444709"><ele>1012.0</ele><time>2026-04-18T11:14:15.258Z</time></trkpt><trkpt lat="44.7439152" lon="9.4442689"><ele>1010.5</ele><time>2026-04-18T11:14:16.26Z</time></trkpt><trkpt lat="44.7439151" lon="9.4440656"><ele>1009.0</ele><time>2026-04-18T11:14:17.26Z</time></trkpt><trkpt lat="44.7439336" lon="9.4438696"><ele>1009.75</ele><time>2026-04-18T11:14:18.26Z</time></trkpt><trkpt lat="44.7439708" lon="9.4436853"><ele>1010.5</ele><time>2026-04-18T11:14:19.259Z</time></trkpt><trkpt lat="44.7440261" lon="9.4435186"><ele>1011.25</ele><time>2026-04-18T11:14:20.259Z</time></trkpt><trkpt lat="44.7440837" lon="9.443351"><ele>1012.0</ele><time>2026-04-18T11:14:21.259Z</time></trkpt><trkpt lat="44.7441164" lon="9.4431794"><ele>1012.0</ele><time>2026-04-18T11:14:22.258Z</time></trkpt><trkpt lat="44.7441212" lon="9.4430145"><ele>1012.0</ele><time>2026-04-18T11:14:23.258Z</time></trkpt><trkpt lat="44.7441118" lon="9.4428669"><ele>1012.0</ele><time>2026-04-18T11:14:24.258Z</time></trkpt><trkpt lat="44.7441179" lon="9.4427343"><ele>1012.0</ele><time>2026-04-18T11:14:25.259Z</time></trkpt><trkpt lat="44.744149" lon="9.4426194"><ele>1012.0</ele><time>2026-04-18T11:14:26.258Z</time></trkpt><trkpt lat="44.7442132" lon="9.4425256"><ele>1012.6</ele><time>2026-04-18T11:14:27.258Z</time></trkpt><trkpt lat="44.7442898" lon="9.4424101"><ele>1013.2</ele><time>2026-04-18T11:14:28.259Z</time></trkpt><trkpt lat="44.7443611" lon="9.4422868"><ele>1013.8</ele><time>2026-04-18T11:14:29.259Z</time></trkpt><trkpt lat="44.7444209" lon="9.4421968"><ele>1014.4</ele><time>2026-04-18T11:14:30.259Z</time></trkpt><trkpt lat="44.7444847" lon="9.4421219"><ele>1015.0</ele><time>2026-04-18T11:14:31.26Z</time></trkpt><trkpt lat="44.7445786" lon="9.4421094"><ele>1012.8</ele><time>2026-04-18T11:14:32.259Z</time></trkpt><trkpt lat="44.7446834" lon="9.4421021"><ele>1010.6</ele><time>2026-04-18T11:14:33.258Z</time></trkpt><trkpt lat="44.7447882" lon="9.4420682"><ele>1008.4000000000001</ele><time>2026-04-18T11:14:34.258Z</time></trkpt><trkpt lat="44.7448934" lon="9.4420491"><ele>1006.2</ele><time>2026-04-18T11:14:35.26Z</time></trkpt><trkpt lat="44.7449894" lon="9.4419573"><ele>1004.0</ele><time>2026-04-18T11:14:36.26Z</time></trkpt><trkpt lat="44.745083" lon="9.4419022"><ele>1004.0000000000001</ele><time>2026-04-18T11:14:37.259Z</time></trkpt><trkpt lat="44.7451591" lon="9.4418067"><ele>1004.0</ele><time>2026-04-18T11:14:38.259Z</time></trkpt><trkpt lat="44.7452305" lon="9.4417099"><ele>1004.0</ele><time>2026-04-18T11:14:39.258Z</time></trkpt><trkpt lat="44.7452757" lon="9.4416076"><ele>1004.0</ele><time>2026-04-18T11:14:40.258Z</time></trkpt><trkpt lat="44.7453121" lon="9.4415071"><ele>1004.0000000000001</ele><time>2026-04-18T11:14:41.26Z</time></trkpt><trkpt lat="44.7453378" lon="9.4414096"><ele>1004.0</ele><time>2026-04-18T11:14:42.26Z</time></trkpt><trkpt lat="44.7453022" lon="9.4412912"><ele>1004.0</ele><time>2026-04-18T11:14:43.259Z</time></trkpt><trkpt lat="44.7451578" lon="9.4413337"><ele>1004.0</ele><time>2026-04-18T11:14:44.259Z</time></trkpt><trkpt lat="44.7450839" lon="9.4412895"><ele>1004.0</ele><time>2026-04-18T11:14:45.258Z</time></trkpt><trkpt lat="44.7449889" lon="9.4411773"><ele>1004.0</ele><time>2026-04-18T11:14:47.259Z</time></trkpt><trkpt lat="44.7451328" lon="9.4410485"><ele>1000.4000000000001</ele><time>2026-04-18T11:14:49.259Z</time></trkpt><trkpt lat="44.7452069" lon="9.4409851"><ele>996.8000000000001</ele><time>2026-04-18T11:14:50.259Z</time></trkpt><trkpt lat="44.7452982" lon="9.4409239"><ele>993.1999999999999</ele><time>2026-04-18T11:14:51.259Z</time></trkpt><trkpt lat="44.7453934" lon="9.44085"><ele>989.5999999999999</ele><time>2026-04-18T11:14:52.259Z</time></trkpt><trkpt lat="44.7454989" lon="9.4407744"><ele>986.0</ele><time>2026-04-18T11:14:53.258Z</time></trkpt><trkpt lat="44.7456057" lon="9.4407014"><ele>986.0</ele><time>2026-04-18T11:14:54.258Z</time></trkpt><trkpt lat="44.7457057" lon="9.440624"><ele>985.9999999999999</ele><time>2026-04-18T11:14:55.259Z</time></trkpt><trkpt lat="44.745783" lon="9.4405318"><ele>985.9999999999999</ele><time>2026-04-18T11:14:56.259Z</time></trkpt><trkpt lat="44.7458267" lon="9.4404278"><ele>986.0</ele><time>2026-04-18T11:14:57.26Z</time></trkpt><trkpt lat="44.745858" lon="9.4402977"><ele>986.0</ele><time>2026-04-18T11:14:58.259Z</time></trkpt><trkpt lat="44.7458821" lon="9.4401411"><ele>982.25</ele><time>2026-04-18T11:14:59.26Z</time></trkpt><trkpt lat="44.7459027" lon="9.4399784"><ele>978.5</ele><time>2026-04-18T11:15:00.259Z</time></trkpt><trkpt lat="44.7459252" lon="9.4398047"><ele>974.75</ele><time>2026-04-18T11:15:01.259Z</time></trkpt><trkpt lat="44.7459573" lon="9.4396368"><ele>971.0</ele><time>2026-04-18T11:15:02.26Z</time></trkpt><trkpt lat="44.745994" lon="9.4394983"><ele>972.5999999999999</ele><time>2026-04-18T11:15:03.258Z</time></trkpt><trkpt lat="44.7460297" lon="9.4393769"><ele>974.1999999999999</ele><time>2026-04-18T11:15:04.259Z</time></trkpt><trkpt lat="44.7460462" lon="9.439246"><ele>975.8000000000001</ele><time>2026-04-18T11:15:05.26Z</time></trkpt><trkpt lat="44.7460622" lon="9.4390925"><ele>977.4000000000001</ele><time>2026-04-18T11:15:06.259Z</time></trkpt><trkpt lat="44.7460907" lon="9.4389278"><ele>979.0</ele><time>2026-04-18T11:15:07.258Z</time></trkpt><trkpt lat="44.7461217" lon="9.4387659"><ele>975.8000000000001</ele><time>2026-04-18T11:15:08.259Z</time></trkpt><trkpt lat="44.7461349" lon="9.4385881"><ele>972.6000000000001</ele><time>2026-04-18T11:15:09.26Z</time></trkpt><trkpt lat="44.7461384" lon="9.4384137"><ele>969.4</ele><time>2026-04-18T11:15:10.258Z</time></trkpt><trkpt lat="44.7461443" lon="9.4382684"><ele>966.2</ele><time>2026-04-18T11:15:11.258Z</time></trkpt><trkpt lat="44.746169" lon="9.438147"><ele>963.0</ele><time>2026-04-18T11:15:12.259Z</time></trkpt><trkpt lat="44.7462257" lon="9.4380461"><ele>957.0</ele><time>2026-04-18T11:15:13.26Z</time></trkpt><trkpt lat="44.746312" lon="9.4379547"><ele>951.0</ele><time>2026-04-18T11:15:14.259Z</time></trkpt><trkpt lat="44.7464098" lon="9.4378669"><ele>945.0</ele><time>2026-04-18T11:15:15.258Z</time></trkpt><trkpt lat="44.7465207" lon="9.4378041"><ele>939.0</ele><time>2026-04-18T11:15:16.259Z</time></trkpt><trkpt lat="44.746639" lon="9.4377595"><ele>939.0</ele><time>2026-04-18T11:15:17.259Z</time></trkpt><trkpt lat="44.7467617" lon="9.4377171"><ele>939.0</ele><time>2026-04-18T11:15:18.259Z</time></trkpt><trkpt lat="44.746887" lon="9.4376719"><ele>939.0</ele><time>2026-04-18T11:15:19.26Z</time></trkpt><trkpt lat="44.7470052" lon="9.4376192"><ele>939.0</ele><time>2026-04-18T11:15:20.259Z</time></trkpt><trkpt lat="44.7471164" lon="9.4375455"><ele>940.75</ele><time>2026-04-18T11:15:21.259Z</time></trkpt><trkpt lat="44.7472235" lon="9.4374662"><ele>942.5</ele><time>2026-04-18T11:15:22.259Z</time></trkpt><trkpt lat="44.7473294" lon="9.4374062"><ele>944.25</ele><time>2026-04-18T11:15:23.259Z</time></trkpt><trkpt lat="44.7474386" lon="9.4373742"><ele>946.0</ele><time>2026-04-18T11:15:24.26Z</time></trkpt><trkpt lat="44.7475586" lon="9.4373465"><ele>946.0</ele><time>2026-04-18T11:15:25.26Z</time></trkpt><trkpt lat="44.7476862" lon="9.4373156"><ele>946.0</ele><time>2026-04-18T11:15:26.259Z</time></trkpt><trkpt lat="44.7478109" lon="9.4372898"><ele>946.0</ele><time>2026-04-18T11:15:27.259Z</time></trkpt><trkpt lat="44.7479268" lon="9.4372694"><ele>946.0</ele><time>2026-04-18T11:15:28.259Z</time></trkpt><trkpt lat="44.7480151" lon="9.4372261"><ele>945.8</ele><time>2026-04-18T11:15:29.259Z</time></trkpt><trkpt lat="44.748073" lon="9.4371501"><ele>945.5999999999999</ele><time>2026-04-18T11:15:30.26Z</time></trkpt><trkpt lat="44.7481043" lon="9.4370349"><ele>945.4</ele><time>2026-04-18T11:15:31.258Z</time></trkpt><trkpt lat="44.7481236" lon="9.43688"><ele>945.2</ele><time>2026-04-18T11:15:32.258Z</time></trkpt><trkpt lat="44.7481636" lon="9.4367236"><ele>945.0</ele><time>2026-04-18T11:15:33.258Z</time></trkpt><trkpt lat="44.7482198" lon="9.436588"><ele>943.75</ele><time>2026-04-18T11:15:34.259Z</time></trkpt><trkpt lat="44.7482469" lon="9.4364384"><ele>942.5</ele><time>2026-04-18T11:15:35.258Z</time></trkpt><trkpt lat="44.7482462" lon="9.4362749"><ele>941.25</ele><time>2026-04-18T11:15:36.26Z</time></trkpt><trkpt lat="44.7482359" lon="9.4361099"><ele>940.0</ele><time>2026-04-18T11:15:37.26Z</time></trkpt><trkpt lat="44.7482395" lon="9.4359513"><ele>938.0</ele><time>2026-04-18T11:15:38.26Z</time></trkpt><trkpt lat="44.7482683" lon="9.435805"><ele>936.0</ele><time>2026-04-18T11:15:39.259Z</time></trkpt><trkpt lat="44.7483274" lon="9.4356755"><ele>934.0</ele><time>2026-04-18T11:15:40.259Z</time></trkpt><trkpt lat="44.7483895" lon="9.4355733"><ele>932.0</ele><time>2026-04-18T11:15:41.26Z</time></trkpt><trkpt lat="44.7484344" lon="9.4354954"><ele>930.0</ele><time>2026-04-18T11:15:42.258Z</time></trkpt><trkpt lat="44.7484833" lon="9.4354255"><ele>930.0</ele><time>2026-04-18T11:15:43.258Z</time></trkpt><trkpt lat="44.74856" lon="9.4353248"><ele>930.0</ele><time>2026-04-18T11:15:45.26Z</time></trkpt><trkpt lat="44.7486181" lon="9.4352273"><ele>930.0</ele><time>2026-04-18T11:15:47.258Z</time></trkpt><trkpt lat="44.7486431" lon="9.4351148"><ele>930.0</ele><time>2026-04-18T11:15:49.258Z</time></trkpt><trkpt lat="44.7486322" lon="9.4349485"><ele>930.0</ele><time>2026-04-18T11:15:51.259Z</time></trkpt><trkpt lat="44.7486063" lon="9.4348402"><ele>930.0</ele><time>2026-04-18T11:15:52.258Z</time></trkpt><trkpt lat="44.7485724" lon="9.4347434"><ele>930.0</ele><time>2026-04-18T11:15:53.259Z</time></trkpt><trkpt lat="44.7485391" lon="9.434646"><ele>930.0</ele><time>2026-04-18T11:15:54.258Z</time></trkpt><trkpt lat="44.7485211" lon="9.4345449"><ele>930.0</ele><time>2026-04-18T11:15:55.259Z</time></trkpt><trkpt lat="44.7485266" lon="9.4344541"><ele>930.0</ele><time>2026-04-18T11:15:56.259Z</time></trkpt><trkpt lat="44.7486113" lon="9.4343102"><ele>930.0</ele><time>2026-04-18T11:15:58.259Z</time></trkpt><trkpt lat="44.7486859" lon="9.4342754"><ele>926.4</ele><time>2026-04-18T11:15:59.258Z</time></trkpt><trkpt lat="44.7487711" lon="9.4342516"><ele>922.8</ele><time>2026-04-18T11:16:00.258Z</time></trkpt><trkpt lat="44.7488817" lon="9.4342554"><ele>919.2</ele><time>2026-04-18T11:16:01.258Z</time></trkpt><trkpt lat="44.7489944" lon="9.4342507"><ele>915.6</ele><time>2026-04-18T11:16:02.259Z</time></trkpt><trkpt lat="44.7491084" lon="9.4342432"><ele>912.0</ele><time>2026-04-18T11:16:03.259Z</time></trkpt><trkpt lat="44.749221" lon="9.4342259"><ele>912.0</ele><time>2026-04-18T11:16:04.258Z</time></trkpt><trkpt lat="44.7493352" lon="9.4342083"><ele>912.0</ele><time>2026-04-18T11:16:05.258Z</time></trkpt><trkpt lat="44.749444" lon="9.4341751"><ele>912.0</ele><time>2026-04-18T11:16:06.258Z</time></trkpt><trkpt lat="44.7495613" lon="9.4341102"><ele>912.0</ele><time>2026-04-18T11:16:07.258Z</time></trkpt><trkpt lat="44.7496864" lon="9.4340525"><ele>913.5</ele><time>2026-04-18T11:16:08.258Z</time></trkpt><trkpt lat="44.7498019" lon="9.4339649"><ele>915.0</ele><time>2026-04-18T11:16:09.258Z</time></trkpt><trkpt lat="44.7499213" lon="9.4338736"><ele>916.5</ele><time>2026-04-18T11:16:10.259Z</time></trkpt><trkpt lat="44.7500316" lon="9.4337617"><ele>918.0</ele><time>2026-04-18T11:16:11.26Z</time></trkpt><trkpt lat="44.7501519" lon="9.4336719"><ele>914.75</ele><time>2026-04-18T11:16:12.258Z</time></trkpt><trkpt lat="44.750272" lon="9.4335997"><ele>911.5</ele><time>2026-04-18T11:16:13.259Z</time></trkpt><trkpt lat="44.7503878" lon="9.4335229"><ele>908.25</ele><time>2026-04-18T11:16:14.259Z</time></trkpt><trkpt lat="44.7505126" lon="9.4334539"><ele>905.0</ele><time>2026-04-18T11:16:15.259Z</time></trkpt><trkpt lat="44.7506369" lon="9.4333927"><ele>905.0</ele><time>2026-04-18T11:16:16.259Z</time></trkpt><trkpt lat="44.7507638" lon="9.433339"><ele>905.0</ele><time>2026-04-18T11:16:17.259Z</time></trkpt><trkpt lat="44.7508902" lon="9.4332866"><ele>905.0</ele><time>2026-04-18T11:16:18.26Z</time></trkpt><trkpt lat="44.7510126" lon="9.4332287"><ele>905.0</ele><time>2026-04-18T11:16:19.259Z</time></trkpt><trkpt lat="44.7511341" lon="9.4331552"><ele>906.25</ele><time>2026-04-18T11:16:20.26Z</time></trkpt><trkpt lat="44.7512525" lon="9.4330649"><ele>907.5</ele><time>2026-04-18T11:16:21.259Z</time></trkpt><trkpt lat="44.7513742" lon="9.4329652"><ele>908.75</ele><time>2026-04-18T11:16:22.259Z</time></trkpt><trkpt lat="44.7514956" lon="9.4328625"><ele>910.0</ele><time>2026-04-18T11:16:23.259Z</time></trkpt><trkpt lat="44.7516157" lon="9.4327619"><ele>908.25</ele><time>2026-04-18T11:16:24.259Z</time></trkpt><trkpt lat="44.7517332" lon="9.4326528"><ele>906.5</ele><time>2026-04-18T11:16:25.259Z</time></trkpt><trkpt lat="44.7518462" lon="9.4325349"><ele>904.75</ele><time>2026-04-18T11:16:26.258Z</time></trkpt><trkpt lat="44.7519506" lon="9.4324134"><ele>903.0</ele><time>2026-04-18T11:16:27.258Z</time></trkpt><trkpt lat="44.752045" lon="9.432285"><ele>903.0</ele><time>2026-04-18T11:16:28.259Z</time></trkpt><trkpt lat="44.7521331" lon="9.4321503"><ele>903.0</ele><time>2026-04-18T11:16:29.259Z</time></trkpt><trkpt lat="44.7522156" lon="9.4320107"><ele>903.0</ele><time>2026-04-18T11:16:30.259Z</time></trkpt><trkpt lat="44.7522985" lon="9.4318656"><ele>903.0</ele><time>2026-04-18T11:16:31.259Z</time></trkpt><trkpt lat="44.7523727" lon="9.431719"><ele>902.25</ele><time>2026-04-18T11:16:32.259Z</time></trkpt><trkpt lat="44.7524326" lon="9.431544"><ele>901.5</ele><time>2026-04-18T11:16:33.259Z</time></trkpt><trkpt lat="44.7524964" lon="9.4313716"><ele>900.75</ele><time>2026-04-18T11:16:34.258Z</time></trkpt><trkpt lat="44.7525516" lon="9.4311932"><ele>900.0</ele><time>2026-04-18T11:16:35.259Z</time></trkpt><trkpt lat="44.7526186" lon="9.4310094"><ele>900.0</ele><time>2026-04-18T11:16:36.258Z</time></trkpt><trkpt lat="44.7526988" lon="9.4308801"><ele>900.0</ele><time>2026-04-18T11:16:37.259Z</time></trkpt><trkpt lat="44.7527794" lon="9.4307304"><ele>900.0</ele><time>2026-04-18T11:16:38.258Z</time></trkpt><trkpt lat="44.7528561" lon="9.4305774"><ele>900.0</ele><time>2026-04-18T11:16:39.259Z</time></trkpt><trkpt lat="44.7529257" lon="9.4304148"><ele>896.25</ele><time>2026-04-18T11:16:40.258Z</time></trkpt><trkpt lat="44.7529904" lon="9.4302493"><ele>892.5</ele><time>2026-04-18T11:16:41.259Z</time></trkpt><trkpt lat="44.7530672" lon="9.4300874"><ele>888.75</ele><time>2026-04-18T11:16:42.258Z</time></trkpt><trkpt lat="44.7531505" lon="9.4299335"><ele>885.0</ele><time>2026-04-18T11:16:43.259Z</time></trkpt><trkpt lat="44.7532212" lon="9.4297584"><ele>883.5</ele><time>2026-04-18T11:16:44.259Z</time></trkpt><trkpt lat="44.753268" lon="9.4295639"><ele>882.0</ele><time>2026-04-18T11:16:45.258Z</time></trkpt><trkpt lat="44.7532949" lon="9.4293879"><ele>880.5</ele><time>2026-04-18T11:16:46.258Z</time></trkpt><trkpt lat="44.7533127" lon="9.4292324"><ele>879.0</ele><time>2026-04-18T11:16:47.258Z</time></trkpt><trkpt lat="44.7533383" lon="9.4290864"><ele>879.0</ele><time>2026-04-18T11:16:48.259Z</time></trkpt><trkpt lat="44.7533701" lon="9.4289754"><ele>879.0000000000001</ele><time>2026-04-18T11:16:49.26Z</time></trkpt><trkpt lat="44.7534105" lon="9.4288969"><ele>879.0000000000001</ele><time>2026-04-18T11:16:50.259Z</time></trkpt><trkpt lat="44.7535332" lon="9.4288422"><ele>879.0</ele><time>2026-04-18T11:16:52.26Z</time></trkpt><trkpt lat="44.7536165" lon="9.4288556"><ele>879.0</ele><time>2026-04-18T11:16:53.259Z</time></trkpt><trkpt lat="44.7537166" lon="9.4288704"><ele>878.0</ele><time>2026-04-18T11:16:54.259Z</time></trkpt><trkpt lat="44.7538134" lon="9.4289193"><ele>877.0</ele><time>2026-04-18T11:16:55.26Z</time></trkpt><trkpt lat="44.7538909" lon="9.428975"><ele>876.0</ele><time>2026-04-18T11:16:56.259Z</time></trkpt><trkpt lat="44.7539533" lon="9.4290428"><ele>875.0</ele><time>2026-04-18T11:16:57.259Z</time></trkpt><trkpt lat="44.754004" lon="9.4291198"><ele>874.0</ele><time>2026-04-18T11:16:58.26Z</time></trkpt><trkpt lat="44.7540448" lon="9.4292102"><ele>873.0</ele><time>2026-04-18T11:16:59.258Z</time></trkpt><trkpt lat="44.7540859" lon="9.4293119"><ele>873.0</ele><time>2026-04-18T11:17:00.258Z</time></trkpt><trkpt lat="44.7541302" lon="9.429416"><ele>873.0</ele><time>2026-04-18T11:17:01.259Z</time></trkpt><trkpt lat="44.754175" lon="9.4295274"><ele>873.0</ele><time>2026-04-18T11:17:02.26Z</time></trkpt><trkpt lat="44.7542267" lon="9.4296373"><ele>873.0</ele><time>2026-04-18T11:17:03.26Z</time></trkpt><trkpt lat="44.7542978" lon="9.4297375"><ele>873.0</ele><time>2026-04-18T11:17:04.259Z</time></trkpt><trkpt lat="44.7543691" lon="9.4298356"><ele>871.75</ele><time>2026-04-18T11:17:05.259Z</time></trkpt><trkpt lat="44.7544881" lon="9.4298749"><ele>870.5</ele><time>2026-04-18T11:17:06.259Z</time></trkpt><trkpt lat="44.7546074" lon="9.429933"><ele>869.25</ele><time>2026-04-18T11:17:07.26Z</time></trkpt><trkpt lat="44.7547381" lon="9.429994"><ele>868.0</ele><time>2026-04-18T11:17:08.258Z</time></trkpt><trkpt lat="44.7548767" lon="9.4300568"><ele>868.0</ele><time>2026-04-18T11:17:09.258Z</time></trkpt><trkpt lat="44.755002" lon="9.430114"><ele>868.0</ele><time>2026-04-18T11:17:10.26Z</time></trkpt><trkpt lat="44.7551036" lon="9.4301891"><ele>868.0</ele><time>2026-04-18T11:17:11.259Z</time></trkpt><trkpt lat="44.7551919" lon="9.4302997"><ele>868.0</ele><time>2026-04-18T11:17:12.258Z</time></trkpt><trkpt lat="44.7552612" lon="9.430437"><ele>867.5</ele><time>2026-04-18T11:17:13.259Z</time></trkpt><trkpt lat="44.7553218" lon="9.430592"><ele>867.0</ele><time>2026-04-18T11:17:14.26Z</time></trkpt><trkpt lat="44.7553745" lon="9.4307555"><ele>866.5</ele><time>2026-04-18T11:17:15.26Z</time></trkpt><trkpt lat="44.7554214" lon="9.4309178"><ele>866.0</ele><time>2026-04-18T11:17:16.259Z</time></trkpt><trkpt lat="44.7554735" lon="9.4310813"><ele>866.0</ele><time>2026-04-18T11:17:17.258Z</time></trkpt><trkpt lat="44.7555352" lon="9.4312436"><ele>866.0</ele><time>2026-04-18T11:17:18.258Z</time></trkpt><trkpt lat="44.7556094" lon="9.431411"><ele>866.0</ele><time>2026-04-18T11:17:19.258Z</time></trkpt><trkpt lat="44.7556985" lon="9.4315809"><ele>866.0</ele><time>2026-04-18T11:17:20.259Z</time></trkpt><trkpt lat="44.7557919" lon="9.4317521"><ele>865.25</ele><time>2026-04-18T11:17:21.259Z</time></trkpt><trkpt lat="44.7558898" lon="9.4319124"><ele>864.5</ele><time>2026-04-18T11:17:22.258Z</time></trkpt><trkpt lat="44.7559836" lon="9.432076"><ele>863.75</ele><time>2026-04-18T11:17:23.259Z</time></trkpt><trkpt lat="44.7560805" lon="9.4322295"><ele>863.0</ele><time>2026-04-18T11:17:24.259Z</time></trkpt><trkpt lat="44.7561749" lon="9.4323792"><ele>863.0</ele><time>2026-04-18T11:17:25.258Z</time></trkpt><trkpt lat="44.7562703" lon="9.4325206"><ele>863.0</ele><time>2026-04-18T11:17:26.259Z</time></trkpt><trkpt lat="44.7563685" lon="9.4326529"><ele>863.0</ele><time>2026-04-18T11:17:27.259Z</time></trkpt><trkpt lat="44.756469" lon="9.4327709"><ele>863.0</ele><time>2026-04-18T11:17:28.259Z</time></trkpt><trkpt lat="44.7565795" lon="9.4328697"><ele>863.0</ele><time>2026-04-18T11:17:29.259Z</time></trkpt><trkpt lat="44.7567051" lon="9.4329547"><ele>863.0</ele><time>2026-04-18T11:17:30.259Z</time></trkpt><trkpt lat="44.7568318" lon="9.4330167"><ele>863.0</ele><time>2026-04-18T11:17:31.259Z</time></trkpt><trkpt lat="44.7569687" lon="9.4330562"><ele>863.0</ele><time>2026-04-18T11:17:32.259Z</time></trkpt><trkpt lat="44.7571095" lon="9.433061"><ele>860.25</ele><time>2026-04-18T11:17:33.259Z</time></trkpt><trkpt lat="44.757255" lon="9.4330406"><ele>857.5</ele><time>2026-04-18T11:17:34.259Z</time></trkpt><trkpt lat="44.7574048" lon="9.4330116"><ele>854.75</ele><time>2026-04-18T11:17:35.258Z</time></trkpt><trkpt lat="44.7575538" lon="9.4329965"><ele>852.0</ele><time>2026-04-18T11:17:36.259Z</time></trkpt><trkpt lat="44.7577035" lon="9.4330082"><ele>850.5</ele><time>2026-04-18T11:17:37.26Z</time></trkpt><trkpt lat="44.7578417" lon="9.4330536"><ele>849.0</ele><time>2026-04-18T11:17:38.26Z</time></trkpt><trkpt lat="44.7579762" lon="9.4331325"><ele>847.5</ele><time>2026-04-18T11:17:39.259Z</time></trkpt><trkpt lat="44.7581088" lon="9.4332332"><ele>846.0</ele><time>2026-04-18T11:17:40.259Z</time></trkpt><trkpt lat="44.7582259" lon="9.4333672"><ele>846.0</ele><time>2026-04-18T11:17:41.259Z</time></trkpt><trkpt lat="44.7583425" lon="9.4334957"><ele>846.0</ele><time>2026-04-18T11:17:42.258Z</time></trkpt><trkpt lat="44.7584508" lon="9.4336285"><ele>846.0</ele><time>2026-04-18T11:17:43.259Z</time></trkpt><trkpt lat="44.7585549" lon="9.4337715"><ele>846.0</ele><time>2026-04-18T11:17:44.258Z</time></trkpt><trkpt lat="44.7586454" lon="9.4339221"><ele>847.0</ele><time>2026-04-18T11:17:45.259Z</time></trkpt><trkpt lat="44.7587258" lon="9.4340769"><ele>848.0</ele><time>2026-04-18T11:17:46.259Z</time></trkpt><trkpt lat="44.7587827" lon="9.4342762"><ele>849.0</ele><time>2026-04-18T11:17:47.259Z</time></trkpt><trkpt lat="44.7588295" lon="9.4344682"><ele>850.0</ele><time>2026-04-18T11:17:48.258Z</time></trkpt><trkpt lat="44.7588852" lon="9.4346272"><ele>852.0</ele><time>2026-04-18T11:17:49.26Z</time></trkpt><trkpt lat="44.7589685" lon="9.4347497"><ele>854.0</ele><time>2026-04-18T11:17:50.26Z</time></trkpt><trkpt lat="44.7590849" lon="9.4348614"><ele>856.0</ele><time>2026-04-18T11:17:51.259Z</time></trkpt><trkpt lat="44.7592177" lon="9.4349666"><ele>858.0</ele><time>2026-04-18T11:17:52.258Z</time></trkpt><trkpt lat="44.7593528" lon="9.4350516"><ele>859.75</ele><time>2026-04-18T11:17:53.259Z</time></trkpt><trkpt lat="44.7594861" lon="9.4351224"><ele>861.5</ele><time>2026-04-18T11:17:54.259Z</time></trkpt><trkpt lat="44.7596165" lon="9.4351664"><ele>863.25</ele><time>2026-04-18T11:17:55.259Z</time></trkpt><trkpt lat="44.7597467" lon="9.4351928"><ele>865.0</ele><time>2026-04-18T11:17:56.26Z</time></trkpt><trkpt lat="44.7598754" lon="9.4352279"><ele>865.0</ele><time>2026-04-18T11:17:57.26Z</time></trkpt><trkpt lat="44.7599974" lon="9.4352959"><ele>865.0</ele><time>2026-04-18T11:17:58.258Z</time></trkpt><trkpt lat="44.7601038" lon="9.4353838"><ele>865.0</ele><time>2026-04-18T11:17:59.259Z</time></trkpt><trkpt lat="44.7601887" lon="9.4355883"><ele>865.0</ele><time>2026-04-18T11:18:00.259Z</time></trkpt><trkpt lat="44.7602707" lon="9.4357245"><ele>866.75</ele><time>2026-04-18T11:18:01.259Z</time></trkpt><trkpt lat="44.7603379" lon="9.4358778"><ele>868.5</ele><time>2026-04-18T11:18:02.258Z</time></trkpt><trkpt lat="44.7603991" lon="9.4360314"><ele>870.25</ele><time>2026-04-18T11:18:03.258Z</time></trkpt><trkpt lat="44.7604704" lon="9.4361911"><ele>872.0</ele><time>2026-04-18T11:18:04.258Z</time></trkpt><trkpt lat="44.7605476" lon="9.4363557"><ele>872.0</ele><time>2026-04-18T11:18:05.259Z</time></trkpt><trkpt lat="44.7606346" lon="9.4365212"><ele>872.0</ele><time>2026-04-18T11:18:06.259Z</time></trkpt><trkpt lat="44.7607193" lon="9.4366884"><ele>872.0</ele><time>2026-04-18T11:18:07.26Z</time></trkpt><trkpt lat="44.7607988" lon="9.4368467"><ele>872.0</ele><time>2026-04-18T11:18:08.259Z</time></trkpt><trkpt lat="44.7608605" lon="9.4369891"><ele>871.25</ele><time>2026-04-18T11:18:09.259Z</time></trkpt><trkpt lat="44.7609064" lon="9.4371388"><ele>870.5</ele><time>2026-04-18T11:18:10.259Z</time></trkpt><trkpt lat="44.7609276" lon="9.4372942"><ele>869.75</ele><time>2026-04-18T11:18:11.258Z</time></trkpt><trkpt lat="44.7609426" lon="9.4374708"><ele>869.0</ele><time>2026-04-18T11:18:12.258Z</time></trkpt><trkpt lat="44.7609139" lon="9.437639"><ele>869.0</ele><time>2026-04-18T11:18:13.259Z</time></trkpt><trkpt lat="44.7609266" lon="9.4378255"><ele>869.0</ele><time>2026-04-18T11:18:14.259Z</time></trkpt><trkpt lat="44.7609521" lon="9.4380113"><ele>869.0</ele><time>2026-04-18T11:18:15.26Z</time></trkpt><trkpt lat="44.7609796" lon="9.4381936"><ele>869.0</ele><time>2026-04-18T11:18:16.259Z</time></trkpt><trkpt lat="44.7610032" lon="9.438381"><ele>869.0</ele><time>2026-04-18T11:18:17.259Z</time></trkpt><trkpt lat="44.7610213" lon="9.43857"><ele>869.0</ele><time>2026-04-18T11:18:18.26Z</time></trkpt><trkpt lat="44.761028" lon="9.4387483"><ele>869.0</ele><time>2026-04-18T11:18:19.259Z</time></trkpt><trkpt lat="44.7610232" lon="9.4389143"><ele>869.0</ele><time>2026-04-18T11:18:20.259Z</time></trkpt><trkpt lat="44.7610141" lon="9.4391022"><ele>870.0</ele><time>2026-04-18T11:18:21.259Z</time></trkpt><trkpt lat="44.7610054" lon="9.4392691"><ele>871.0</ele><time>2026-04-18T11:18:22.259Z</time></trkpt><trkpt lat="44.7610007" lon="9.4394299"><ele>872.0</ele><time>2026-04-18T11:18:23.259Z</time></trkpt><trkpt lat="44.7609984" lon="9.4395841"><ele>873.0</ele><time>2026-04-18T11:18:24.26Z</time></trkpt><trkpt lat="44.7610673" lon="9.4397034"><ele>866.3333333333334</ele><time>2026-04-18T11:18:25.259Z</time></trkpt><trkpt lat="44.7611175" lon="9.4398107"><ele>859.6666666666667</ele><time>2026-04-18T11:18:26.259Z</time></trkpt><trkpt lat="44.7611652" lon="9.4398984"><ele>853.0</ele><time>2026-04-18T11:18:27.259Z</time></trkpt><trkpt lat="44.7611978" lon="9.4399933"><ele>846.3333333333334</ele><time>2026-04-18T11:18:28.26Z</time></trkpt><trkpt lat="44.7612004" lon="9.4401121"><ele>839.6666666666667</ele><time>2026-04-18T11:18:29.259Z</time></trkpt><trkpt lat="44.7611794" lon="9.4402643"><ele>833.0</ele><time>2026-04-18T11:18:30.26Z</time></trkpt><trkpt lat="44.7611352" lon="9.440419"><ele>834.5</ele><time>2026-04-18T11:18:31.259Z</time></trkpt><trkpt lat="44.761084" lon="9.4405662"><ele>836.0</ele><time>2026-04-18T11:18:32.259Z</time></trkpt><trkpt lat="44.761037" lon="9.4407277"><ele>837.5</ele><time>2026-04-18T11:18:33.258Z</time></trkpt><trkpt lat="44.7610119" lon="9.4408934"><ele>839.0</ele><time>2026-04-18T11:18:34.258Z</time></trkpt><trkpt lat="44.7610156" lon="9.4410834"><ele>839.0</ele><time>2026-04-18T11:18:35.259Z</time></trkpt><trkpt lat="44.7610366" lon="9.4412709"><ele>839.0</ele><time>2026-04-18T11:18:36.26Z</time></trkpt><trkpt lat="44.7610546" lon="9.4414365"><ele>839.0</ele><time>2026-04-18T11:18:37.259Z</time></trkpt><trkpt lat="44.7610571" lon="9.4415806"><ele>839.0</ele><time>2026-04-18T11:18:38.259Z</time></trkpt><trkpt lat="44.7610273" lon="9.4417107"><ele>848.6</ele><time>2026-04-18T11:18:39.259Z</time></trkpt><trkpt lat="44.7609892" lon="9.4418403"><ele>858.2</ele><time>2026-04-18T11:18:40.258Z</time></trkpt><trkpt lat="44.7609067" lon="9.4419431"><ele>867.8000000000001</ele><time>2026-04-18T11:18:41.258Z</time></trkpt><trkpt lat="44.7608577" lon="9.442044"><ele>877.4000000000001</ele><time>2026-04-18T11:18:42.259Z</time></trkpt><trkpt lat="44.7608412" lon="9.4421471"><ele>887.0</ele><time>2026-04-18T11:18:43.259Z</time></trkpt><trkpt lat="44.7608609" lon="9.4422545"><ele>887.0000000000001</ele><time>2026-04-18T11:18:44.26Z</time></trkpt><trkpt lat="44.7609027" lon="9.4423292"><ele>887.0</ele><time>2026-04-18T11:18:45.259Z</time></trkpt><trkpt lat="44.7609752" lon="9.442367"><ele>887.0</ele><time>2026-04-18T11:18:46.259Z</time></trkpt><trkpt lat="44.7610685" lon="9.4423923"><ele>887.0</ele><time>2026-04-18T11:18:47.259Z</time></trkpt><trkpt lat="44.7611338" lon="9.4424281"><ele>887.0000000000001</ele><time>2026-04-18T11:18:48.259Z</time></trkpt><trkpt lat="44.7611804" lon="9.4424881"><ele>887.0</ele><time>2026-04-18T11:18:49.259Z</time></trkpt><trkpt lat="44.7612329" lon="9.4425877"><ele>885.0</ele><time>2026-04-18T11:18:50.258Z</time></trkpt><trkpt lat="44.7612927" lon="9.4426941"><ele>883.0</ele><time>2026-04-18T11:18:51.259Z</time></trkpt><trkpt lat="44.7613696" lon="9.4428108"><ele>881.0</ele><time>2026-04-18T11:18:52.259Z</time></trkpt><trkpt lat="44.7614465" lon="9.4429474"><ele>879.0</ele><time>2026-04-18T11:18:53.259Z</time></trkpt><trkpt lat="44.7615189" lon="9.443091"><ele>879.0</ele><time>2026-04-18T11:18:54.26Z</time></trkpt><trkpt lat="44.7615929" lon="9.4432302"><ele>879.0</ele><time>2026-04-18T11:18:55.258Z</time></trkpt><trkpt lat="44.7616743" lon="9.4433631"><ele>879.0</ele><time>2026-04-18T11:18:56.258Z</time></trkpt><trkpt lat="44.7617501" lon="9.4434992"><ele>879.0</ele><time>2026-04-18T11:18:57.259Z</time></trkpt><trkpt lat="44.7618072" lon="9.443642"><ele>879.0</ele><time>2026-04-18T11:18:58.259Z</time></trkpt><trkpt lat="44.7618499" lon="9.4437803"><ele>879.0000000000001</ele><time>2026-04-18T11:18:59.259Z</time></trkpt><trkpt lat="44.7618749" lon="9.4439226"><ele>879.0000000000001</ele><time>2026-04-18T11:19:00.258Z</time></trkpt><trkpt lat="44.7618802" lon="9.4440574"><ele>879.0</ele><time>2026-04-18T11:19:01.26Z</time></trkpt><trkpt lat="44.7619037" lon="9.4441616"><ele>879.0</ele><time>2026-04-18T11:19:02.259Z</time></trkpt><trkpt lat="44.7619998" lon="9.4442127"><ele>879.2</ele><time>2026-04-18T11:19:04.258Z</time></trkpt><trkpt lat="44.7620549" lon="9.4441678"><ele>879.4000000000001</ele><time>2026-04-18T11:19:05.258Z</time></trkpt><trkpt lat="44.7621107" lon="9.4440932"><ele>879.6</ele><time>2026-04-18T11:19:06.258Z</time></trkpt><trkpt lat="44.7621835" lon="9.4439753"><ele>879.8</ele><time>2026-04-18T11:19:07.258Z</time></trkpt><trkpt lat="44.7622638" lon="9.4438367"><ele>880.0</ele><time>2026-04-18T11:19:08.259Z</time></trkpt><trkpt lat="44.7623316" lon="9.4437187"><ele>879.9999999999999</ele><time>2026-04-18T11:19:09.258Z</time></trkpt><trkpt lat="44.7623937" lon="9.4435947"><ele>880.0</ele><time>2026-04-18T11:19:10.26Z</time></trkpt><trkpt lat="44.7624664" lon="9.4435061"><ele>880.0</ele><time>2026-04-18T11:19:11.259Z</time></trkpt><trkpt lat="44.7625368" lon="9.44346"><ele>880.0</ele><time>2026-04-18T11:19:12.26Z</time></trkpt><trkpt lat="44.762607" lon="9.4434691"><ele>879.9999999999999</ele><time>2026-04-18T11:19:13.258Z</time></trkpt><trkpt lat="44.762662" lon="9.4435241"><ele>880.0</ele><time>2026-04-18T11:19:14.258Z</time></trkpt><trkpt lat="44.7627022" lon="9.4436212"><ele>880.8</ele><time>2026-04-18T11:19:15.258Z</time></trkpt><trkpt lat="44.7627248" lon="9.4437904"><ele>881.6</ele><time>2026-04-18T11:19:16.258Z</time></trkpt><trkpt lat="44.7627525" lon="9.4439449"><ele>882.4000000000001</ele><time>2026-04-18T11:19:17.258Z</time></trkpt><trkpt lat="44.7627894" lon="9.4440807"><ele>883.2</ele><time>2026-04-18T11:19:18.257Z</time></trkpt><trkpt lat="44.7628171" lon="9.4442133"><ele>884.0</ele><time>2026-04-18T11:19:19.257Z</time></trkpt><trkpt lat="44.7629008" lon="9.4442602"><ele>884.0</ele><time>2026-04-18T11:19:20.257Z</time></trkpt><trkpt lat="44.7629777" lon="9.4443007"><ele>884.0000000000001</ele><time>2026-04-18T11:19:21.257Z</time></trkpt><trkpt lat="44.763073" lon="9.4442845"><ele>884.0000000000001</ele><time>2026-04-18T11:19:22.258Z</time></trkpt><trkpt lat="44.7631907" lon="9.4442421"><ele>884.0</ele><time>2026-04-18T11:19:23.258Z</time></trkpt><trkpt lat="44.7633125" lon="9.4441942"><ele>884.0</ele><time>2026-04-18T11:19:24.258Z</time></trkpt><trkpt lat="44.7634432" lon="9.4441418"><ele>886.0</ele><time>2026-04-18T11:19:25.258Z</time></trkpt><trkpt lat="44.7635698" lon="9.4440924"><ele>888.0</ele><time>2026-04-18T11:19:26.258Z</time></trkpt><trkpt lat="44.7637031" lon="9.4440453"><ele>890.0</ele><time>2026-04-18T11:19:27.257Z</time></trkpt><trkpt lat="44.7638374" lon="9.4440019"><ele>892.0</ele><time>2026-04-18T11:19:28.259Z</time></trkpt><trkpt lat="44.7639689" lon="9.443965"><ele>892.0</ele><time>2026-04-18T11:19:29.259Z</time></trkpt><trkpt lat="44.7641007" lon="9.4439266"><ele>892.0</ele><time>2026-04-18T11:19:30.258Z</time></trkpt><trkpt lat="44.7642372" lon="9.4438984"><ele>892.0</ele><time>2026-04-18T11:19:31.258Z</time></trkpt><trkpt lat="44.7643695" lon="9.4438811"><ele>892.0</ele><time>2026-04-18T11:19:32.258Z</time></trkpt><trkpt lat="44.7645005" lon="9.4438716"><ele>894.0</ele><time>2026-04-18T11:19:33.258Z</time></trkpt><trkpt lat="44.7646289" lon="9.4438657"><ele>896.0</ele><time>2026-04-18T11:19:34.258Z</time></trkpt><trkpt lat="44.7647584" lon="9.443856"><ele>898.0</ele><time>2026-04-18T11:19:35.259Z</time></trkpt><trkpt lat="44.7648891" lon="9.4438446"><ele>900.0</ele><time>2026-04-18T11:19:36.258Z</time></trkpt><trkpt lat="44.7650198" lon="9.44383"><ele>900.0</ele><time>2026-04-18T11:19:37.258Z</time></trkpt><trkpt lat="44.7651503" lon="9.4438136"><ele>900.0</ele><time>2026-04-18T11:19:38.258Z</time></trkpt><trkpt lat="44.7652796" lon="9.4437952"><ele>900.0</ele><time>2026-04-18T11:19:39.257Z</time></trkpt><trkpt lat="44.7654112" lon="9.443772"><ele>900.0</ele><time>2026-04-18T11:19:40.258Z</time></trkpt><trkpt lat="44.7655434" lon="9.4437621"><ele>900.25</ele><time>2026-04-18T11:19:41.257Z</time></trkpt><trkpt lat="44.7656718" lon="9.4437783"><ele>900.5</ele><time>2026-04-18T11:19:42.257Z</time></trkpt><trkpt lat="44.765798" lon="9.4438139"><ele>900.75</ele><time>2026-04-18T11:19:43.258Z</time></trkpt><trkpt lat="44.7659207" lon="9.443878"><ele>901.0</ele><time>2026-04-18T11:19:44.258Z</time></trkpt><trkpt lat="44.7660391" lon="9.4439588"><ele>897.8</ele><time>2026-04-18T11:19:45.259Z</time></trkpt><trkpt lat="44.7661536" lon="9.4440503"><ele>894.5999999999999</ele><time>2026-04-18T11:19:46.258Z</time></trkpt><trkpt lat="44.7662474" lon="9.4441414"><ele>891.4</ele><time>2026-04-18T11:19:47.257Z</time></trkpt><trkpt lat="44.7663182" lon="9.4442359"><ele>888.2</ele><time>2026-04-18T11:19:48.257Z</time></trkpt><trkpt lat="44.7663702" lon="9.4443476"><ele>885.0</ele><time>2026-04-18T11:19:49.259Z</time></trkpt><trkpt lat="44.7664" lon="9.4444781"><ele>885.0</ele><time>2026-04-18T11:19:50.258Z</time></trkpt><trkpt lat="44.7664225" lon="9.4446095"><ele>885.0</ele><time>2026-04-18T11:19:51.257Z</time></trkpt><trkpt lat="44.7664733" lon="9.4447277"><ele>885.0</ele><time>2026-04-18T11:19:52.257Z</time></trkpt><trkpt lat="44.766542" lon="9.4448371"><ele>885.0</ele><time>2026-04-18T11:19:53.257Z</time></trkpt><trkpt lat="44.7666146" lon="9.4449476"><ele>885.0</ele><time>2026-04-18T11:19:54.259Z</time></trkpt><trkpt lat="44.7666866" lon="9.4450495"><ele>884.0</ele><time>2026-04-18T11:19:55.258Z</time></trkpt><trkpt lat="44.7667581" lon="9.4451551"><ele>883.0</ele><time>2026-04-18T11:19:56.257Z</time></trkpt><trkpt lat="44.7668368" lon="9.4452808"><ele>882.0</ele><time>2026-04-18T11:19:57.259Z</time></trkpt><trkpt lat="44.7669111" lon="9.4454224"><ele>881.0</ele><time>2026-04-18T11:19:58.258Z</time></trkpt><trkpt lat="44.7669784" lon="9.4455561"><ele>884.1999999999999</ele><time>2026-04-18T11:19:59.258Z</time></trkpt><trkpt lat="44.7670451" lon="9.4456868"><ele>887.3999999999999</ele><time>2026-04-18T11:20:00.258Z</time></trkpt><trkpt lat="44.7671085" lon="9.4458226"><ele>890.6</ele><time>2026-04-18T11:20:01.258Z</time></trkpt><trkpt lat="44.7671733" lon="9.4459456"><ele>893.8</ele><time>2026-04-18T11:20:02.258Z</time></trkpt><trkpt lat="44.7672488" lon="9.4460601"><ele>897.0</ele><time>2026-04-18T11:20:03.257Z</time></trkpt><trkpt lat="44.7673351" lon="9.4461563"><ele>897.0</ele><time>2026-04-18T11:20:04.258Z</time></trkpt><trkpt lat="44.767428" lon="9.4462401"><ele>897.0</ele><time>2026-04-18T11:20:05.257Z</time></trkpt><trkpt lat="44.7675204" lon="9.4463235"><ele>897.0</ele><time>2026-04-18T11:20:06.258Z</time></trkpt><trkpt lat="44.7675939" lon="9.4464224"><ele>897.0</ele><time>2026-04-18T11:20:07.258Z</time></trkpt><trkpt lat="44.7676502" lon="9.446554"><ele>897.0</ele><time>2026-04-18T11:20:08.258Z</time></trkpt><trkpt lat="44.767709" lon="9.4467184"><ele>897.0</ele><time>2026-04-18T11:20:09.257Z</time></trkpt><trkpt lat="44.7677786" lon="9.4468973"><ele>897.0</ele><time>2026-04-18T11:20:10.258Z</time></trkpt><trkpt lat="44.7678532" lon="9.4470758"><ele>897.0</ele><time>2026-04-18T11:20:11.258Z</time></trkpt><trkpt lat="44.7679258" lon="9.447249"><ele>897.0</ele><time>2026-04-18T11:20:12.258Z</time></trkpt><trkpt lat="44.7679931" lon="9.4474143"><ele>899.5</ele><time>2026-04-18T11:20:13.259Z</time></trkpt><trkpt lat="44.7680602" lon="9.4475712"><ele>902.0</ele><time>2026-04-18T11:20:14.257Z</time></trkpt><trkpt lat="44.7681302" lon="9.4477185"><ele>904.5</ele><time>2026-04-18T11:20:15.258Z</time></trkpt><trkpt lat="44.7682153" lon="9.4478635"><ele>907.0</ele><time>2026-04-18T11:20:16.258Z</time></trkpt><trkpt lat="44.7683123" lon="9.4479992"><ele>908.75</ele><time>2026-04-18T11:20:17.257Z</time></trkpt><trkpt lat="44.7684154" lon="9.4481178"><ele>910.5</ele><time>2026-04-18T11:20:18.257Z</time></trkpt><trkpt lat="44.7685264" lon="9.4482158"><ele>912.25</ele><time>2026-04-18T11:20:19.258Z</time></trkpt><trkpt lat="44.7686447" lon="9.4482958"><ele>914.0</ele><time>2026-04-18T11:20:20.259Z</time></trkpt><trkpt lat="44.768759" lon="9.4483797"><ele>914.0</ele><time>2026-04-18T11:20:21.258Z</time></trkpt><trkpt lat="44.7688701" lon="9.4484778"><ele>914.0</ele><time>2026-04-18T11:20:22.258Z</time></trkpt><trkpt lat="44.7689954" lon="9.4485676"><ele>914.0</ele><time>2026-04-18T11:20:23.258Z</time></trkpt><trkpt lat="44.7691244" lon="9.4486339"><ele>914.0</ele><time>2026-04-18T11:20:24.257Z</time></trkpt><trkpt lat="44.7692385" lon="9.4486945"><ele>914.0</ele><time>2026-04-18T11:20:25.257Z</time></trkpt><trkpt lat="44.7693444" lon="9.4487842"><ele>914.0</ele><time>2026-04-18T11:20:26.258Z</time></trkpt><trkpt lat="44.7694285" lon="9.4488919"><ele>914.0</ele><time>2026-04-18T11:20:27.258Z</time></trkpt><trkpt lat="44.7694938" lon="9.4490313"><ele>914.0</ele><time>2026-04-18T11:20:28.258Z</time></trkpt><trkpt lat="44.7695529" lon="9.4491766"><ele>915.0</ele><time>2026-04-18T11:20:29.257Z</time></trkpt><trkpt lat="44.7696159" lon="9.4493002"><ele>916.0</ele><time>2026-04-18T11:20:30.258Z</time></trkpt><trkpt lat="44.7696963" lon="9.4493929"><ele>917.0</ele><time>2026-04-18T11:20:31.257Z</time></trkpt><trkpt lat="44.7697978" lon="9.4494627"><ele>918.0</ele><time>2026-04-18T11:20:32.259Z</time></trkpt><trkpt lat="44.7699231" lon="9.449518"><ele>918.0</ele><time>2026-04-18T11:20:33.258Z</time></trkpt><trkpt lat="44.7700466" lon="9.4495526"><ele>918.0</ele><time>2026-04-18T11:20:34.258Z</time></trkpt><trkpt lat="44.7701699" lon="9.4495531"><ele>918.0</ele><time>2026-04-18T11:20:35.257Z</time></trkpt><trkpt lat="44.7702827" lon="9.4495479"><ele>918.0</ele><time>2026-04-18T11:20:36.257Z</time></trkpt><trkpt lat="44.7703943" lon="9.4495695"><ele>918.25</ele><time>2026-04-18T11:20:37.258Z</time></trkpt><trkpt lat="44.7705102" lon="9.4496062"><ele>918.5</ele><time>2026-04-18T11:20:38.258Z</time></trkpt><trkpt lat="44.7706353" lon="9.4496179"><ele>918.75</ele><time>2026-04-18T11:20:39.258Z</time></trkpt><trkpt lat="44.7707771" lon="9.4496145"><ele>919.0</ele><time>2026-04-18T11:20:40.258Z</time></trkpt><trkpt lat="44.7709089" lon="9.4495954"><ele>921.25</ele><time>2026-04-18T11:20:41.258Z</time></trkpt><trkpt lat="44.7710323" lon="9.4495415"><ele>923.5</ele><time>2026-04-18T11:20:42.258Z</time></trkpt><trkpt lat="44.7711453" lon="9.4494729"><ele>925.75</ele><time>2026-04-18T11:20:43.258Z</time></trkpt><trkpt lat="44.7712512" lon="9.4494274"><ele>928.0</ele><time>2026-04-18T11:20:44.258Z</time></trkpt><trkpt lat="44.7713586" lon="9.4494039"><ele>928.0</ele><time>2026-04-18T11:20:45.257Z</time></trkpt><trkpt lat="44.7714724" lon="9.4494247"><ele>928.0</ele><time>2026-04-18T11:20:46.258Z</time></trkpt><trkpt lat="44.7715971" lon="9.449444"><ele>928.0</ele><time>2026-04-18T11:20:47.258Z</time></trkpt><trkpt lat="44.7717068" lon="9.4494019"><ele>928.0</ele><time>2026-04-18T11:20:48.258Z</time></trkpt><trkpt lat="44.7718062" lon="9.4493013"><ele>929.25</ele><time>2026-04-18T11:20:49.258Z</time></trkpt><trkpt lat="44.7719131" lon="9.4491953"><ele>930.5</ele><time>2026-04-18T11:20:50.258Z</time></trkpt><trkpt lat="44.7720258" lon="9.4491191"><ele>931.75</ele><time>2026-04-18T11:20:51.257Z</time></trkpt><trkpt lat="44.7721407" lon="9.4490693"><ele>933.0</ele><time>2026-04-18T11:20:52.258Z</time></trkpt><trkpt lat="44.7722455" lon="9.4490431"><ele>933.0</ele><time>2026-04-18T11:20:53.259Z</time></trkpt><trkpt lat="44.7723328" lon="9.4490487"><ele>933.0</ele><time>2026-04-18T11:20:54.258Z</time></trkpt><trkpt lat="44.7724109" lon="9.4490829"><ele>933.0</ele><time>2026-04-18T11:20:55.258Z</time></trkpt><trkpt lat="44.7724797" lon="9.4491522"><ele>933.0</ele><time>2026-04-18T11:20:56.257Z</time></trkpt><trkpt lat="44.7725183" lon="9.4492581"><ele>933.0</ele><time>2026-04-18T11:20:57.257Z</time></trkpt><trkpt lat="44.7725411" lon="9.449411"><ele>933.0</ele><time>2026-04-18T11:20:58.258Z</time></trkpt><trkpt lat="44.7725539" lon="9.4495937"><ele>932.0</ele><time>2026-04-18T11:20:59.257Z</time></trkpt><trkpt lat="44.7725564" lon="9.4497929"><ele>931.0</ele><time>2026-04-18T11:21:00.257Z</time></trkpt><trkpt lat="44.7725495" lon="9.4499966"><ele>930.0</ele><time>2026-04-18T11:21:01.257Z</time></trkpt><trkpt lat="44.7725376" lon="9.4501857"><ele>929.0</ele><time>2026-04-18T11:21:02.257Z</time></trkpt><trkpt lat="44.7725346" lon="9.4503618"><ele>928.0</ele><time>2026-04-18T11:21:03.258Z</time></trkpt><trkpt lat="44.7725499" lon="9.4505363"><ele>927.0</ele><time>2026-04-18T11:21:04.257Z</time></trkpt><trkpt lat="44.7725732" lon="9.4507103"><ele>926.0</ele><time>2026-04-18T11:21:05.258Z</time></trkpt><trkpt lat="44.772599" lon="9.4508864"><ele>925.0</ele><time>2026-04-18T11:21:06.258Z</time></trkpt><trkpt lat="44.7726268" lon="9.4510675"><ele>925.0</ele><time>2026-04-18T11:21:07.258Z</time></trkpt><trkpt lat="44.772656" lon="9.4512484"><ele>925.0</ele><time>2026-04-18T11:21:08.258Z</time></trkpt><trkpt lat="44.7726819" lon="9.4514145"><ele>925.0</ele><time>2026-04-18T11:21:09.259Z</time></trkpt><trkpt lat="44.7727075" lon="9.4515726"><ele>925.0</ele><time>2026-04-18T11:21:10.258Z</time></trkpt><trkpt lat="44.7727475" lon="9.4517282"><ele>921.0</ele><time>2026-04-18T11:21:11.258Z</time></trkpt><trkpt lat="44.772814" lon="9.4518773"><ele>917.0</ele><time>2026-04-18T11:21:12.258Z</time></trkpt><trkpt lat="44.7729002" lon="9.4520095"><ele>913.0</ele><time>2026-04-18T11:21:13.258Z</time></trkpt><trkpt lat="44.7729971" lon="9.4521348"><ele>909.0</ele><time>2026-04-18T11:21:14.257Z</time></trkpt><trkpt lat="44.773094" lon="9.4522606"><ele>909.0</ele><time>2026-04-18T11:21:15.257Z</time></trkpt><trkpt lat="44.7731966" lon="9.4523949"><ele>909.0</ele><time>2026-04-18T11:21:16.257Z</time></trkpt><trkpt lat="44.7733029" lon="9.4525366"><ele>909.0</ele><time>2026-04-18T11:21:17.258Z</time></trkpt><trkpt lat="44.77341" lon="9.4526982"><ele>909.0</ele><time>2026-04-18T11:21:18.259Z</time></trkpt><trkpt lat="44.7735089" lon="9.4528516"><ele>906.75</ele><time>2026-04-18T11:21:19.259Z</time></trkpt><trkpt lat="44.7735978" lon="9.4530007"><ele>904.5</ele><time>2026-04-18T11:21:20.258Z</time></trkpt><trkpt lat="44.7736882" lon="9.4531353"><ele>902.25</ele><time>2026-04-18T11:21:21.258Z</time></trkpt><trkpt lat="44.7737946" lon="9.4532411"><ele>900.0</ele><time>2026-04-18T11:21:22.258Z</time></trkpt><trkpt lat="44.7739083" lon="9.4533247"><ele>900.0</ele><time>2026-04-18T11:21:23.259Z</time></trkpt><trkpt lat="44.7740147" lon="9.4533984"><ele>900.0</ele><time>2026-04-18T11:21:24.259Z</time></trkpt><trkpt lat="44.7741032" lon="9.4534713"><ele>900.0</ele><time>2026-04-18T11:21:25.257Z</time></trkpt><trkpt lat="44.7741728" lon="9.4535496"><ele>900.0</ele><time>2026-04-18T11:21:26.259Z</time></trkpt><trkpt lat="44.7742304" lon="9.4536378"><ele>900.0</ele><time>2026-04-18T11:21:27.258Z</time></trkpt><trkpt lat="44.7742934" lon="9.4537469"><ele>898.0</ele><time>2026-04-18T11:21:28.259Z</time></trkpt><trkpt lat="44.7743759" lon="9.4538459"><ele>896.0</ele><time>2026-04-18T11:21:29.258Z</time></trkpt><trkpt lat="44.7744668" lon="9.4539077"><ele>894.0</ele><time>2026-04-18T11:21:30.258Z</time></trkpt><trkpt lat="44.7745575" lon="9.4539579"><ele>892.0</ele><time>2026-04-18T11:21:31.258Z</time></trkpt><trkpt lat="44.7746382" lon="9.4540234"><ele>890.0</ele><time>2026-04-18T11:21:32.257Z</time></trkpt><trkpt lat="44.7746962" lon="9.4541237"><ele>890.0000000000001</ele><time>2026-04-18T11:21:33.258Z</time></trkpt><trkpt lat="44.7747319" lon="9.4542355"><ele>890.0</ele><time>2026-04-18T11:21:34.257Z</time></trkpt><trkpt lat="44.7747953" lon="9.4543168"><ele>890.0</ele><time>2026-04-18T11:21:35.257Z</time></trkpt><trkpt lat="44.7748775" lon="9.4543664"><ele>890.0</ele><time>2026-04-18T11:21:36.257Z</time></trkpt><trkpt lat="44.774967" lon="9.4543748"><ele>890.0000000000001</ele><time>2026-04-18T11:21:37.259Z</time></trkpt><trkpt lat="44.7750531" lon="9.4543403"><ele>890.0</ele><time>2026-04-18T11:21:38.258Z</time></trkpt><trkpt lat="44.7751381" lon="9.4542823"><ele>887.6</ele><time>2026-04-18T11:21:39.258Z</time></trkpt><trkpt lat="44.7752304" lon="9.4542163"><ele>885.2</ele><time>2026-04-18T11:21:40.259Z</time></trkpt><trkpt lat="44.7753286" lon="9.4541516"><ele>882.8</ele><time>2026-04-18T11:21:41.258Z</time></trkpt><trkpt lat="44.7754247" lon="9.4540914"><ele>880.4</ele><time>2026-04-18T11:21:42.258Z</time></trkpt><trkpt lat="44.7755026" lon="9.4540537"><ele>878.0</ele><time>2026-04-18T11:21:43.259Z</time></trkpt><trkpt lat="44.7755695" lon="9.4540306"><ele>878.0000000000001</ele><time>2026-04-18T11:21:44.257Z</time></trkpt><trkpt lat="44.7756325" lon="9.4540374"><ele>878.0</ele><time>2026-04-18T11:21:45.257Z</time></trkpt><trkpt lat="44.7756816" lon="9.4541043"><ele>878.0</ele><time>2026-04-18T11:21:46.259Z</time></trkpt><trkpt lat="44.7757357" lon="9.4542146"><ele>878.0</ele><time>2026-04-18T11:21:47.258Z</time></trkpt><trkpt lat="44.775771" lon="9.4543534"><ele>878.0000000000001</ele><time>2026-04-18T11:21:48.258Z</time></trkpt><trkpt lat="44.7758014" lon="9.4544563"><ele>878.0</ele><time>2026-04-18T11:21:49.258Z</time></trkpt><trkpt lat="44.7758436" lon="9.4545957"><ele>877.5999999999999</ele><time>2026-04-18T11:21:51.258Z</time></trkpt><trkpt lat="44.7759177" lon="9.4547527"><ele>877.1999999999999</ele><time>2026-04-18T11:21:53.259Z</time></trkpt><trkpt lat="44.7759683" lon="9.4548664"><ele>876.8</ele><time>2026-04-18T11:21:54.259Z</time></trkpt><trkpt lat="44.7760167" lon="9.4549746"><ele>876.4</ele><time>2026-04-18T11:21:55.257Z</time></trkpt><trkpt lat="44.7760648" lon="9.4550757"><ele>876.0</ele><time>2026-04-18T11:21:56.257Z</time></trkpt><trkpt lat="44.776122" lon="9.4551831"><ele>874.5</ele><time>2026-04-18T11:21:57.258Z</time></trkpt><trkpt lat="44.7761888" lon="9.4553048"><ele>873.0</ele><time>2026-04-18T11:21:58.258Z</time></trkpt><trkpt lat="44.7762466" lon="9.4554465"><ele>871.5</ele><time>2026-04-18T11:21:59.259Z</time></trkpt><trkpt lat="44.7762733" lon="9.4556056"><ele>870.0</ele><time>2026-04-18T11:22:00.258Z</time></trkpt><trkpt lat="44.7762712" lon="9.4557719"><ele>870.0</ele><time>2026-04-18T11:22:01.257Z</time></trkpt><trkpt lat="44.7762653" lon="9.455935"><ele>870.0</ele><time>2026-04-18T11:22:02.258Z</time></trkpt><trkpt lat="44.7762658" lon="9.4560817"><ele>870.0</ele><time>2026-04-18T11:22:03.258Z</time></trkpt><trkpt lat="44.7762705" lon="9.4562197"><ele>870.0</ele><time>2026-04-18T11:22:04.257Z</time></trkpt><trkpt lat="44.7762833" lon="9.456366"><ele>870.0</ele><time>2026-04-18T11:22:05.258Z</time></trkpt><trkpt lat="44.7763132" lon="9.456515"><ele>871.0</ele><time>2026-04-18T11:22:06.259Z</time></trkpt><trkpt lat="44.7763716" lon="9.4566662"><ele>872.0</ele><time>2026-04-18T11:22:07.259Z</time></trkpt><trkpt lat="44.7764645" lon="9.4568165"><ele>873.0</ele><time>2026-04-18T11:22:08.258Z</time></trkpt><trkpt lat="44.776573" lon="9.4569624"><ele>874.0</ele><time>2026-04-18T11:22:09.257Z</time></trkpt><trkpt lat="44.7766864" lon="9.4570828"><ele>875.0</ele><time>2026-04-18T11:22:10.257Z</time></trkpt><trkpt lat="44.7768127" lon="9.4571843"><ele>876.0</ele><time>2026-04-18T11:22:11.258Z</time></trkpt><trkpt lat="44.7769322" lon="9.4572675"><ele>877.0</ele><time>2026-04-18T11:22:12.257Z</time></trkpt><trkpt lat="44.7770496" lon="9.4573459"><ele>878.0</ele><time>2026-04-18T11:22:13.258Z</time></trkpt><trkpt lat="44.777168" lon="9.4574153"><ele>878.0</ele><time>2026-04-18T11:22:14.258Z</time></trkpt><trkpt lat="44.777289" lon="9.4574689"><ele>878.0</ele><time>2026-04-18T11:22:15.259Z</time></trkpt><trkpt lat="44.7773921" lon="9.4575173"><ele>878.0</ele><time>2026-04-18T11:22:16.258Z</time></trkpt><trkpt lat="44.7775027" lon="9.4575996"><ele>878.0</ele><time>2026-04-18T11:22:17.259Z</time></trkpt><trkpt lat="44.7776253" lon="9.4577141"><ele>875.6666666666667</ele><time>2026-04-18T11:22:18.258Z</time></trkpt><trkpt lat="44.7777516" lon="9.4578417"><ele>873.3333333333333</ele><time>2026-04-18T11:22:19.258Z</time></trkpt><trkpt lat="44.7778772" lon="9.4579691"><ele>871.0</ele><time>2026-04-18T11:22:20.258Z</time></trkpt><trkpt lat="44.7780028" lon="9.4580952"><ele>875.6666666666666</ele><time>2026-04-18T11:22:21.257Z</time></trkpt><trkpt lat="44.778131" lon="9.4582209"><ele>880.3333333333333</ele><time>2026-04-18T11:22:22.257Z</time></trkpt><trkpt lat="44.7782649" lon="9.4583435"><ele>885.0</ele><time>2026-04-18T11:22:23.257Z</time></trkpt><trkpt lat="44.7784005" lon="9.4584595"><ele>884.5</ele><time>2026-04-18T11:22:24.259Z</time></trkpt><trkpt lat="44.7785245" lon="9.4585679"><ele>884.0</ele><time>2026-04-18T11:22:25.258Z</time></trkpt><trkpt lat="44.7786246" lon="9.4586616"><ele>883.5</ele><time>2026-04-18T11:22:26.258Z</time></trkpt><trkpt lat="44.7787048" lon="9.4587529"><ele>883.0</ele><time>2026-04-18T11:22:27.259Z</time></trkpt><trkpt lat="44.7787645" lon="9.4588528"><ele>883.0</ele><time>2026-04-18T11:22:28.258Z</time></trkpt><trkpt lat="44.7788115" lon="9.4590026"><ele>883.0</ele><time>2026-04-18T11:22:29.259Z</time></trkpt><trkpt lat="44.7788505" lon="9.4591887"><ele>883.0</ele><time>2026-04-18T11:22:30.258Z</time></trkpt><trkpt lat="44.778895" lon="9.4593819"><ele>883.0</ele><time>2026-04-18T11:22:31.259Z</time></trkpt><trkpt lat="44.7789501" lon="9.4595646"><ele>884.0</ele><time>2026-04-18T11:22:32.258Z</time></trkpt><trkpt lat="44.7790376" lon="9.4597411"><ele>885.0</ele><time>2026-04-18T11:22:33.257Z</time></trkpt><trkpt lat="44.7791322" lon="9.4599058"><ele>886.0</ele><time>2026-04-18T11:22:34.257Z</time></trkpt><trkpt lat="44.7792231" lon="9.4600738"><ele>886.0</ele><time>2026-04-18T11:22:35.258Z</time></trkpt><trkpt lat="44.7793041" lon="9.4602518"><ele>886.0</ele><time>2026-04-18T11:22:36.259Z</time></trkpt><trkpt lat="44.7793837" lon="9.4604334"><ele>886.0</ele><time>2026-04-18T11:22:37.258Z</time></trkpt><trkpt lat="44.7794725" lon="9.4606092"><ele>882.6666666666666</ele><time>2026-04-18T11:22:38.259Z</time></trkpt><trkpt lat="44.7795729" lon="9.4607781"><ele>879.3333333333333</ele><time>2026-04-18T11:22:39.259Z</time></trkpt><trkpt lat="44.7796816" lon="9.4609433"><ele>876.0</ele><time>2026-04-18T11:22:40.257Z</time></trkpt><trkpt lat="44.7797907" lon="9.461107"><ele>876.0</ele><time>2026-04-18T11:22:41.257Z</time></trkpt><trkpt lat="44.7799046" lon="9.4612787"><ele>876.0</ele><time>2026-04-18T11:22:42.258Z</time></trkpt><trkpt lat="44.7800128" lon="9.4614534"><ele>876.0</ele><time>2026-04-18T11:22:43.258Z</time></trkpt><trkpt lat="44.780114" lon="9.4616431"><ele>871.3333333333333</ele><time>2026-04-18T11:22:44.259Z</time></trkpt><trkpt lat="44.7802138" lon="9.4618261"><ele>866.6666666666666</ele><time>2026-04-18T11:22:45.259Z</time></trkpt><trkpt lat="44.7803288" lon="9.4619832"><ele>862.0</ele><time>2026-04-18T11:22:46.257Z</time></trkpt><trkpt lat="44.7804464" lon="9.4621217"><ele>862.0</ele><time>2026-04-18T11:22:47.258Z</time></trkpt><trkpt lat="44.7805585" lon="9.4622509"><ele>862.0</ele><time>2026-04-18T11:22:48.258Z</time></trkpt><trkpt lat="44.780671" lon="9.4623666"><ele>862.0</ele><time>2026-04-18T11:22:49.258Z</time></trkpt><trkpt lat="44.7807914" lon="9.4624698"><ele>862.0</ele><time>2026-04-18T11:22:50.258Z</time></trkpt><trkpt lat="44.7809109" lon="9.462573"><ele>859.75</ele><time>2026-04-18T11:22:51.259Z</time></trkpt><trkpt lat="44.7810427" lon="9.462666"><ele>857.5</ele><time>2026-04-18T11:22:52.258Z</time></trkpt><trkpt lat="44.7811702" lon="9.4627625"><ele>855.25</ele><time>2026-04-18T11:22:53.258Z</time></trkpt><trkpt lat="44.7813058" lon="9.4628742"><ele>853.0</ele><time>2026-04-18T11:22:54.258Z</time></trkpt><trkpt lat="44.7814501" lon="9.4629837"><ele>853.0</ele><time>2026-04-18T11:22:55.257Z</time></trkpt><trkpt lat="44.7816003" lon="9.4630828"><ele>853.0</ele><time>2026-04-18T11:22:56.257Z</time></trkpt><trkpt lat="44.7817503" lon="9.4631737"><ele>853.0</ele><time>2026-04-18T11:22:57.257Z</time></trkpt><trkpt lat="44.781898" lon="9.4632611"><ele>850.5</ele><time>2026-04-18T11:22:58.257Z</time></trkpt><trkpt lat="44.7820427" lon="9.4633443"><ele>848.0</ele><time>2026-04-18T11:22:59.259Z</time></trkpt><trkpt lat="44.78218" lon="9.4634247"><ele>845.5</ele><time>2026-04-18T11:23:00.257Z</time></trkpt><trkpt lat="44.7822948" lon="9.4635123"><ele>843.0</ele><time>2026-04-18T11:23:01.258Z</time></trkpt><trkpt lat="44.7823751" lon="9.4636066"><ele>843.0</ele><time>2026-04-18T11:23:02.257Z</time></trkpt><trkpt lat="44.7824191" lon="9.463726"><ele>843.0</ele><time>2026-04-18T11:23:03.258Z</time></trkpt><trkpt lat="44.7824492" lon="9.4638991"><ele>843.0</ele><time>2026-04-18T11:23:04.258Z</time></trkpt><trkpt lat="44.7824748" lon="9.4640974"><ele>843.0</ele><time>2026-04-18T11:23:05.259Z</time></trkpt><trkpt lat="44.782501" lon="9.4643069"><ele>842.6666666666667</ele><time>2026-04-18T11:23:06.259Z</time></trkpt><trkpt lat="44.7825289" lon="9.4645152"><ele>842.3333333333334</ele><time>2026-04-18T11:23:07.258Z</time></trkpt><trkpt lat="44.7825588" lon="9.4647237"><ele>842.0</ele><time>2026-04-18T11:23:08.258Z</time></trkpt><trkpt lat="44.7825897" lon="9.4649337"><ele>842.0</ele><time>2026-04-18T11:23:09.258Z</time></trkpt><trkpt lat="44.782626" lon="9.4651401"><ele>842.0</ele><time>2026-04-18T11:23:10.258Z</time></trkpt><trkpt lat="44.7826754" lon="9.4653378"><ele>842.0</ele><time>2026-04-18T11:23:11.258Z</time></trkpt><trkpt lat="44.7827155" lon="9.4655263"><ele>842.0</ele><time>2026-04-18T11:23:12.257Z</time></trkpt><trkpt lat="44.782728" lon="9.4657172"><ele>842.0</ele><time>2026-04-18T11:23:13.257Z</time></trkpt><trkpt lat="44.7827282" lon="9.4659058"><ele>842.0</ele><time>2026-04-18T11:23:14.257Z</time></trkpt><trkpt lat="44.7827234" lon="9.4660977"><ele>842.0</ele><time>2026-04-18T11:23:15.258Z</time></trkpt><trkpt lat="44.7827207" lon="9.4662853"><ele>842.0</ele><time>2026-04-18T11:23:16.258Z</time></trkpt><trkpt lat="44.7827114" lon="9.4664841"><ele>839.75</ele><time>2026-04-18T11:23:17.257Z</time></trkpt><trkpt lat="44.7826832" lon="9.4666942"><ele>837.5</ele><time>2026-04-18T11:23:18.257Z</time></trkpt><trkpt lat="44.782641" lon="9.4669001"><ele>835.25</ele><time>2026-04-18T11:23:19.257Z</time></trkpt><trkpt lat="44.7825977" lon="9.4670947"><ele>833.0</ele><time>2026-04-18T11:23:20.258Z</time></trkpt><trkpt lat="44.7825601" lon="9.4672774"><ele>829.75</ele><time>2026-04-18T11:23:21.259Z</time></trkpt><trkpt lat="44.7825396" lon="9.4674453"><ele>826.5</ele><time>2026-04-18T11:23:22.258Z</time></trkpt><trkpt lat="44.7825455" lon="9.4675911"><ele>823.25</ele><time>2026-04-18T11:23:23.259Z</time></trkpt><trkpt lat="44.7825881" lon="9.4677295"><ele>820.0</ele><time>2026-04-18T11:23:24.259Z</time></trkpt><trkpt lat="44.7826659" lon="9.4678809"><ele>816.6666666666666</ele><time>2026-04-18T11:23:25.259Z</time></trkpt><trkpt lat="44.7827608" lon="9.468042"><ele>813.3333333333333</ele><time>2026-04-18T11:23:26.257Z</time></trkpt><trkpt lat="44.7828606" lon="9.4682151"><ele>810.0</ele><time>2026-04-18T11:23:27.257Z</time></trkpt><trkpt lat="44.7829607" lon="9.4683843"><ele>810.0</ele><time>2026-04-18T11:23:28.258Z</time></trkpt><trkpt lat="44.7830633" lon="9.4685375"><ele>810.0</ele><time>2026-04-18T11:23:29.259Z</time></trkpt><trkpt lat="44.7831628" lon="9.468672"><ele>810.0</ele><time>2026-04-18T11:23:30.258Z</time></trkpt><trkpt lat="44.783255" lon="9.4687941"><ele>810.0</ele><time>2026-04-18T11:23:31.258Z</time></trkpt><trkpt lat="44.7833367" lon="9.4689165"><ele>809.0</ele><time>2026-04-18T11:23:32.258Z</time></trkpt><trkpt lat="44.7834011" lon="9.4690545"><ele>808.0</ele><time>2026-04-18T11:23:33.258Z</time></trkpt><trkpt lat="44.7834405" lon="9.4691964"><ele>807.0</ele><time>2026-04-18T11:23:34.258Z</time></trkpt><trkpt lat="44.7834526" lon="9.4693499"><ele>806.0</ele><time>2026-04-18T11:23:35.258Z</time></trkpt><trkpt lat="44.783445" lon="9.4695064"><ele>805.0</ele><time>2026-04-18T11:23:36.259Z</time></trkpt><trkpt lat="44.7834201" lon="9.4696543"><ele>803.75</ele><time>2026-04-18T11:23:37.257Z</time></trkpt><trkpt lat="44.7833769" lon="9.4698144"><ele>802.5</ele><time>2026-04-18T11:23:38.257Z</time></trkpt><trkpt lat="44.7833302" lon="9.4699695"><ele>801.25</ele><time>2026-04-18T11:23:39.258Z</time></trkpt><trkpt lat="44.7832801" lon="9.4701384"><ele>800.0</ele><time>2026-04-18T11:23:40.259Z</time></trkpt><trkpt lat="44.7832452" lon="9.4703099"><ele>798.0</ele><time>2026-04-18T11:23:41.258Z</time></trkpt><trkpt lat="44.7832267" lon="9.4704691"><ele>796.0</ele><time>2026-04-18T11:23:42.259Z</time></trkpt><trkpt lat="44.7832296" lon="9.4706212"><ele>794.0</ele><time>2026-04-18T11:23:43.257Z</time></trkpt><trkpt lat="44.7832449" lon="9.4707578"><ele>792.0</ele><time>2026-04-18T11:23:44.257Z</time></trkpt><trkpt lat="44.7832356" lon="9.4708894"><ele>790.0</ele><time>2026-04-18T11:23:45.257Z</time></trkpt><trkpt lat="44.7832246" lon="9.471007"><ele>790.0</ele><time>2026-04-18T11:23:46.258Z</time></trkpt><trkpt lat="44.7831343" lon="9.47105"><ele>790.0</ele><time>2026-04-18T11:23:47.259Z</time></trkpt><trkpt lat="44.7830507" lon="9.4710913"><ele>790.0</ele><time>2026-04-18T11:23:48.257Z</time></trkpt><trkpt lat="44.7829583" lon="9.4711471"><ele>790.0</ele><time>2026-04-18T11:23:49.258Z</time></trkpt><trkpt lat="44.7829055" lon="9.4712604"><ele>790.0</ele><time>2026-04-18T11:23:50.258Z</time></trkpt><trkpt lat="44.7828382" lon="9.4713603"><ele>787.0</ele><time>2026-04-18T11:23:51.258Z</time></trkpt><trkpt lat="44.7828663" lon="9.4715395"><ele>784.0</ele><time>2026-04-18T11:23:52.258Z</time></trkpt><trkpt lat="44.7828627" lon="9.4716984"><ele>781.0</ele><time>2026-04-18T11:23:53.258Z</time></trkpt><trkpt lat="44.7828538" lon="9.4718592"><ele>778.0</ele><time>2026-04-18T11:23:54.257Z</time></trkpt><trkpt lat="44.7828212" lon="9.472024"><ele>778.75</ele><time>2026-04-18T11:23:55.257Z</time></trkpt><trkpt lat="44.7827704" lon="9.4721922"><ele>779.5</ele><time>2026-04-18T11:23:56.257Z</time></trkpt><trkpt lat="44.7827177" lon="9.4723644"><ele>780.25</ele><time>2026-04-18T11:23:57.257Z</time></trkpt><trkpt lat="44.7826587" lon="9.4725331"><ele>781.0</ele><time>2026-04-18T11:23:58.257Z</time></trkpt><trkpt lat="44.7826002" lon="9.4726926"><ele>781.0</ele><time>2026-04-18T11:23:59.257Z</time></trkpt><trkpt lat="44.7825377" lon="9.4728359"><ele>781.0</ele><time>2026-04-18T11:24:00.258Z</time></trkpt><trkpt lat="44.7825085" lon="9.4729821"><ele>781.0</ele><time>2026-04-18T11:24:01.258Z</time></trkpt><trkpt lat="44.7825175" lon="9.4731268"><ele>781.0</ele><time>2026-04-18T11:24:02.258Z</time></trkpt><trkpt lat="44.7825566" lon="9.4732592"><ele>781.0</ele><time>2026-04-18T11:24:03.259Z</time></trkpt><trkpt lat="44.7826048" lon="9.4733782"><ele>779.3333333333333</ele><time>2026-04-18T11:24:04.258Z</time></trkpt><trkpt lat="44.7826454" lon="9.4734769"><ele>777.6666666666666</ele><time>2026-04-18T11:24:05.258Z</time></trkpt><trkpt lat="44.782677" lon="9.473557"><ele>776.0</ele><time>2026-04-18T11:24:06.258Z</time></trkpt><trkpt lat="44.7827067" lon="9.4736891"><ele>774.3333333333333</ele><time>2026-04-18T11:24:08.258Z</time></trkpt><trkpt lat="44.7827002" lon="9.4737984"><ele>772.6666666666666</ele><time>2026-04-18T11:24:09.257Z</time></trkpt><trkpt lat="44.7826817" lon="9.4739272"><ele>771.0</ele><time>2026-04-18T11:24:10.257Z</time></trkpt><trkpt lat="44.7826627" lon="9.4740855"><ele>770.4</ele><time>2026-04-18T11:24:11.258Z</time></trkpt><trkpt lat="44.782655" lon="9.4742332"><ele>769.8</ele><time>2026-04-18T11:24:12.259Z</time></trkpt><trkpt lat="44.7826539" lon="9.4743497"><ele>769.1999999999999</ele><time>2026-04-18T11:24:13.257Z</time></trkpt><trkpt lat="44.7826066" lon="9.4744842"><ele>768.5999999999999</ele><time>2026-04-18T11:24:15.258Z</time></trkpt><trkpt lat="44.7825054" lon="9.474564"><ele>768.0</ele><time>2026-04-18T11:24:17.258Z</time></trkpt><trkpt lat="44.7824208" lon="9.474625"><ele>767.0</ele><time>2026-04-18T11:24:18.259Z</time></trkpt><trkpt lat="44.7823278" lon="9.4747058"><ele>766.0</ele><time>2026-04-18T11:24:19.258Z</time></trkpt><trkpt lat="44.7822247" lon="9.4748023"><ele>765.0</ele><time>2026-04-18T11:24:20.258Z</time></trkpt><trkpt lat="44.7821293" lon="9.4748938"><ele>764.0</ele><time>2026-04-18T11:24:21.259Z</time></trkpt><trkpt lat="44.7820257" lon="9.4749846"><ele>764.0</ele><time>2026-04-18T11:24:22.258Z</time></trkpt><trkpt lat="44.7819222" lon="9.4750709"><ele>764.0</ele><time>2026-04-18T11:24:23.258Z</time></trkpt><trkpt lat="44.7818209" lon="9.4751261"><ele>764.0</ele><time>2026-04-18T11:24:24.258Z</time></trkpt><trkpt lat="44.7817243" lon="9.4751452"><ele>764.0</ele><time>2026-04-18T11:24:25.258Z</time></trkpt><trkpt lat="44.7816451" lon="9.4751683"><ele>764.0</ele><time>2026-04-18T11:24:26.258Z</time></trkpt><trkpt lat="44.7815926" lon="9.475238"><ele>765.8000000000001</ele><time>2026-04-18T11:24:27.258Z</time></trkpt><trkpt lat="44.781576" lon="9.475329"><ele>767.6</ele><time>2026-04-18T11:24:28.259Z</time></trkpt><trkpt lat="44.7815785" lon="9.475445"><ele>769.4</ele><time>2026-04-18T11:24:29.258Z</time></trkpt><trkpt lat="44.7815909" lon="9.4755876"><ele>771.2</ele><time>2026-04-18T11:24:30.258Z</time></trkpt><trkpt lat="44.7815998" lon="9.4757253"><ele>773.0</ele><time>2026-04-18T11:24:31.258Z</time></trkpt><trkpt lat="44.7816106" lon="9.4758738"><ele>773.0</ele><time>2026-04-18T11:24:32.257Z</time></trkpt><trkpt lat="44.7816371" lon="9.4760336"><ele>773.0</ele><time>2026-04-18T11:24:33.258Z</time></trkpt><trkpt lat="44.7816944" lon="9.4761764"><ele>773.0</ele><time>2026-04-18T11:24:34.258Z</time></trkpt><trkpt lat="44.7817658" lon="9.4763035"><ele>773.0</ele><time>2026-04-18T11:24:35.258Z</time></trkpt><trkpt lat="44.7818248" lon="9.4764468"><ele>771.75</ele><time>2026-04-18T11:24:36.259Z</time></trkpt><trkpt lat="44.7818572" lon="9.4766282"><ele>770.5</ele><time>2026-04-18T11:24:37.258Z</time></trkpt><trkpt lat="44.7818957" lon="9.4768021"><ele>769.25</ele><time>2026-04-18T11:24:38.258Z</time></trkpt><trkpt lat="44.7819128" lon="9.4769628"><ele>768.0</ele><time>2026-04-18T11:24:39.258Z</time></trkpt><trkpt lat="44.781898" lon="9.4770971"><ele>767.5</ele><time>2026-04-18T11:24:40.257Z</time></trkpt><trkpt lat="44.7818584" lon="9.4771967"><ele>767.0</ele><time>2026-04-18T11:24:41.257Z</time></trkpt><trkpt lat="44.7817942" lon="9.4772778"><ele>766.5</ele><time>2026-04-18T11:24:42.258Z</time></trkpt><trkpt lat="44.7817254" lon="9.4773587"><ele>766.0</ele><time>2026-04-18T11:24:43.258Z</time></trkpt><trkpt lat="44.7816664" lon="9.4774634"><ele>765.5</ele><time>2026-04-18T11:24:44.258Z</time></trkpt><trkpt lat="44.7816271" lon="9.4775888"><ele>765.0</ele><time>2026-04-18T11:24:45.259Z</time></trkpt><trkpt lat="44.7815987" lon="9.4777292"><ele>769.0</ele><time>2026-04-18T11:24:46.257Z</time></trkpt><trkpt lat="44.7815698" lon="9.4778437"><ele>773.0</ele><time>2026-04-18T11:24:47.257Z</time></trkpt><trkpt lat="44.7815296" lon="9.4779619"><ele>777.0</ele><time>2026-04-18T11:24:48.258Z</time></trkpt><trkpt lat="44.7814842" lon="9.4780916"><ele>781.0</ele><time>2026-04-18T11:24:49.258Z</time></trkpt><trkpt lat="44.7814382" lon="9.4782199"><ele>785.0</ele><time>2026-04-18T11:24:50.257Z</time></trkpt><trkpt lat="44.7813939" lon="9.4783438"><ele>785.0000000000001</ele><time>2026-04-18T11:24:51.258Z</time></trkpt><trkpt lat="44.7813454" lon="9.4784535"><ele>785.0</ele><time>2026-04-18T11:24:52.258Z</time></trkpt><trkpt lat="44.7812846" lon="9.4785515"><ele>785.0</ele><time>2026-04-18T11:24:53.258Z</time></trkpt><trkpt lat="44.7812322" lon="9.4786198"><ele>785.0</ele><time>2026-04-18T11:24:54.258Z</time></trkpt><trkpt lat="44.7811845" lon="9.4786805"><ele>785.0000000000001</ele><time>2026-04-18T11:24:55.258Z</time></trkpt><trkpt lat="44.7811518" lon="9.4788112"><ele>785.0</ele><time>2026-04-18T11:24:57.259Z</time></trkpt><trkpt lat="44.7812096" lon="9.478968"><ele>786.0</ele><time>2026-04-18T11:24:59.258Z</time></trkpt><trkpt lat="44.7812743" lon="9.4790503"><ele>787.0</ele><time>2026-04-18T11:25:00.258Z</time></trkpt><trkpt lat="44.7813334" lon="9.4791209"><ele>788.0</ele><time>2026-04-18T11:25:01.257Z</time></trkpt><trkpt lat="44.7813957" lon="9.4792187"><ele>789.0</ele><time>2026-04-18T11:25:02.258Z</time></trkpt><trkpt lat="44.7814703" lon="9.4793221"><ele>790.0</ele><time>2026-04-18T11:25:03.258Z</time></trkpt><trkpt lat="44.781557" lon="9.4794184"><ele>790.0</ele><time>2026-04-18T11:25:04.259Z</time></trkpt><trkpt lat="44.7816578" lon="9.4795106"><ele>790.0</ele><time>2026-04-18T11:25:05.259Z</time></trkpt><trkpt lat="44.7817681" lon="9.4796038"><ele>790.0</ele><time>2026-04-18T11:25:06.259Z</time></trkpt><trkpt lat="44.7818587" lon="9.4797053"><ele>790.0</ele><time>2026-04-18T11:25:07.259Z</time></trkpt><trkpt lat="44.781934" lon="9.4798274"><ele>788.0</ele><time>2026-04-18T11:25:08.258Z</time></trkpt><trkpt lat="44.7819956" lon="9.4799613"><ele>786.0</ele><time>2026-04-18T11:25:09.258Z</time></trkpt><trkpt lat="44.7820486" lon="9.4801015"><ele>784.0</ele><time>2026-04-18T11:25:10.258Z</time></trkpt><trkpt lat="44.7820847" lon="9.4802398"><ele>782.0</ele><time>2026-04-18T11:25:11.259Z</time></trkpt><trkpt lat="44.7821008" lon="9.4803782"><ele>780.0</ele><time>2026-04-18T11:25:12.259Z</time></trkpt><trkpt lat="44.7820951" lon="9.4805319"><ele>778.5</ele><time>2026-04-18T11:25:13.257Z</time></trkpt><trkpt lat="44.7820685" lon="9.4806932"><ele>777.0</ele><time>2026-04-18T11:25:14.257Z</time></trkpt><trkpt lat="44.7820348" lon="9.4808556"><ele>775.5</ele><time>2026-04-18T11:25:15.258Z</time></trkpt><trkpt lat="44.7820069" lon="9.4810256"><ele>774.0</ele><time>2026-04-18T11:25:16.257Z</time></trkpt><trkpt lat="44.7819861" lon="9.4811895"><ele>774.6</ele><time>2026-04-18T11:25:17.258Z</time></trkpt><trkpt lat="44.7819764" lon="9.4813343"><ele>775.2</ele><time>2026-04-18T11:25:18.257Z</time></trkpt><trkpt lat="44.7819801" lon="9.4814601"><ele>775.8000000000001</ele><time>2026-04-18T11:25:19.258Z</time></trkpt><trkpt lat="44.782009" lon="9.4815808"><ele>776.4000000000001</ele><time>2026-04-18T11:25:20.258Z</time></trkpt><trkpt lat="44.7820847" lon="9.4816773"><ele>777.0</ele><time>2026-04-18T11:25:21.258Z</time></trkpt><trkpt lat="44.7821738" lon="9.481756"><ele>777.0</ele><time>2026-04-18T11:25:22.257Z</time></trkpt><trkpt lat="44.7822663" lon="9.4818251"><ele>777.0</ele><time>2026-04-18T11:25:23.259Z</time></trkpt><trkpt lat="44.7823677" lon="9.481875"><ele>777.0</ele><time>2026-04-18T11:25:24.258Z</time></trkpt><trkpt lat="44.7824836" lon="9.4818974"><ele>777.0</ele><time>2026-04-18T11:25:25.258Z</time></trkpt><trkpt lat="44.7826001" lon="9.4819004"><ele>777.0</ele><time>2026-04-18T11:25:26.258Z</time></trkpt><trkpt lat="44.7827171" lon="9.4818888"><ele>775.0</ele><time>2026-04-18T11:25:27.258Z</time></trkpt><trkpt lat="44.7828286" lon="9.4818714"><ele>773.0</ele><time>2026-04-18T11:25:28.257Z</time></trkpt><trkpt lat="44.7829379" lon="9.4818632"><ele>771.0</ele><time>2026-04-18T11:25:29.259Z</time></trkpt><trkpt lat="44.7830444" lon="9.4818689"><ele>769.0</ele><time>2026-04-18T11:25:30.259Z</time></trkpt><trkpt lat="44.7831507" lon="9.481902"><ele>767.0</ele><time>2026-04-18T11:25:31.258Z</time></trkpt><trkpt lat="44.7832409" lon="9.4819657"><ele>767.0</ele><time>2026-04-18T11:25:32.257Z</time></trkpt><trkpt lat="44.7833062" lon="9.4820558"><ele>767.0</ele><time>2026-04-18T11:25:33.258Z</time></trkpt><trkpt lat="44.7833352" lon="9.4821568"><ele>767.0</ele><time>2026-04-18T11:25:34.258Z</time></trkpt><trkpt lat="44.7833459" lon="9.4822886"><ele>767.0</ele><time>2026-04-18T11:25:35.259Z</time></trkpt><trkpt lat="44.7833615" lon="9.4824379"><ele>767.0</ele><time>2026-04-18T11:25:36.259Z</time></trkpt><trkpt lat="44.7834" lon="9.4825701"><ele>767.8</ele><time>2026-04-18T11:25:37.258Z</time></trkpt><trkpt lat="44.7834678" lon="9.4826832"><ele>768.6</ele><time>2026-04-18T11:25:38.258Z</time></trkpt><trkpt lat="44.7835596" lon="9.482776"><ele>769.4</ele><time>2026-04-18T11:25:39.258Z</time></trkpt><trkpt lat="44.7836647" lon="9.4828461"><ele>770.1999999999999</ele><time>2026-04-18T11:25:40.258Z</time></trkpt><trkpt lat="44.7837743" lon="9.482894"><ele>771.0</ele><time>2026-04-18T11:25:41.257Z</time></trkpt><trkpt lat="44.7838933" lon="9.4829302"><ele>770.1999999999999</ele><time>2026-04-18T11:25:42.259Z</time></trkpt><trkpt lat="44.7840142" lon="9.4829045"><ele>769.4</ele><time>2026-04-18T11:25:43.258Z</time></trkpt><trkpt lat="44.7841351" lon="9.4829133"><ele>768.6</ele><time>2026-04-18T11:25:44.257Z</time></trkpt><trkpt lat="44.7842455" lon="9.4829287"><ele>767.8</ele><time>2026-04-18T11:25:45.257Z</time></trkpt><trkpt lat="44.784329" lon="9.4829658"><ele>767.0</ele><time>2026-04-18T11:25:46.258Z</time></trkpt><trkpt lat="44.7843909" lon="9.483036"><ele>760.5</ele><time>2026-04-18T11:25:47.259Z</time></trkpt><trkpt lat="44.7844341" lon="9.4831593"><ele>754.0</ele><time>2026-04-18T11:25:48.258Z</time></trkpt><trkpt lat="44.784479" lon="9.4833022"><ele>747.5</ele><time>2026-04-18T11:25:49.258Z</time></trkpt><trkpt lat="44.784526" lon="9.4834576"><ele>741.0</ele><time>2026-04-18T11:25:50.258Z</time></trkpt><trkpt lat="44.7845787" lon="9.4836204"><ele>741.1999999999999</ele><time>2026-04-18T11:25:51.257Z</time></trkpt><trkpt lat="44.7846275" lon="9.483776"><ele>741.4</ele><time>2026-04-18T11:25:52.257Z</time></trkpt><trkpt lat="44.7846672" lon="9.4839133"><ele>741.6</ele><time>2026-04-18T11:25:53.258Z</time></trkpt><trkpt lat="44.7846858" lon="9.4840601"><ele>741.8</ele><time>2026-04-18T11:25:54.258Z</time></trkpt><trkpt lat="44.7846864" lon="9.4842163"><ele>742.0</ele><time>2026-04-18T11:25:55.258Z</time></trkpt><trkpt lat="44.7846958" lon="9.4843843"><ele>742.0</ele><time>2026-04-18T11:25:56.258Z</time></trkpt><trkpt lat="44.7847341" lon="9.4845455"><ele>742.0</ele><time>2026-04-18T11:25:57.257Z</time></trkpt><trkpt lat="44.784804" lon="9.4846759"><ele>742.0</ele><time>2026-04-18T11:25:58.257Z</time></trkpt><trkpt lat="44.7848874" lon="9.484776"><ele>742.0</ele><time>2026-04-18T11:25:59.258Z</time></trkpt><trkpt lat="44.7849581" lon="9.4848699"><ele>742.0</ele><time>2026-04-18T11:26:00.259Z</time></trkpt><trkpt lat="44.7850183" lon="9.4849854"><ele>742.25</ele><time>2026-04-18T11:26:01.259Z</time></trkpt><trkpt lat="44.7850599" lon="9.4851189"><ele>742.5</ele><time>2026-04-18T11:26:02.259Z</time></trkpt><trkpt lat="44.785087" lon="9.4852654"><ele>742.75</ele><time>2026-04-18T11:26:03.258Z</time></trkpt><trkpt lat="44.785099" lon="9.4854406"><ele>743.0</ele><time>2026-04-18T11:26:04.259Z</time></trkpt><trkpt lat="44.7851073" lon="9.4856084"><ele>742.0</ele><time>2026-04-18T11:26:05.258Z</time></trkpt><trkpt lat="44.7851209" lon="9.4857591"><ele>741.0</ele><time>2026-04-18T11:26:06.258Z</time></trkpt><trkpt lat="44.7851188" lon="9.4858878"><ele>740.0</ele><time>2026-04-18T11:26:07.257Z</time></trkpt><trkpt lat="44.7851133" lon="9.4860145"><ele>739.0</ele><time>2026-04-18T11:26:08.257Z</time></trkpt><trkpt lat="44.7850712" lon="9.4861165"><ele>738.0</ele><time>2026-04-18T11:26:09.258Z</time></trkpt><trkpt lat="44.7849933" lon="9.4862129"><ele>736.4</ele><time>2026-04-18T11:26:10.258Z</time></trkpt><trkpt lat="44.7849638" lon="9.486314"><ele>734.8</ele><time>2026-04-18T11:26:11.257Z</time></trkpt><trkpt lat="44.7850037" lon="9.4864501"><ele>733.2</ele><time>2026-04-18T11:26:12.257Z</time></trkpt><trkpt lat="44.785041" lon="9.4865924"><ele>731.6</ele><time>2026-04-18T11:26:13.257Z</time></trkpt><trkpt lat="44.7850783" lon="9.4867492"><ele>730.0</ele><time>2026-04-18T11:26:14.257Z</time></trkpt><trkpt lat="44.785101" lon="9.4868979"><ele>730.0</ele><time>2026-04-18T11:26:15.257Z</time></trkpt><trkpt lat="44.7851359" lon="9.4870245"><ele>730.0</ele><time>2026-04-18T11:26:16.258Z</time></trkpt><trkpt lat="44.785198" lon="9.4871492"><ele>730.0</ele><time>2026-04-18T11:26:17.258Z</time></trkpt><trkpt lat="44.7852765" lon="9.4872585"><ele>730.0</ele><time>2026-04-18T11:26:18.257Z</time></trkpt><trkpt lat="44.7853738" lon="9.4873417"><ele>730.0</ele><time>2026-04-18T11:26:19.258Z</time></trkpt><trkpt lat="44.7854794" lon="9.4874055"><ele>726.75</ele><time>2026-04-18T11:26:20.257Z</time></trkpt><trkpt lat="44.785587" lon="9.4874653"><ele>723.5</ele><time>2026-04-18T11:26:21.257Z</time></trkpt><trkpt lat="44.7856951" lon="9.4875407"><ele>720.25</ele><time>2026-04-18T11:26:22.258Z</time></trkpt><trkpt lat="44.7857957" lon="9.4876096"><ele>717.0</ele><time>2026-04-18T11:26:23.258Z</time></trkpt><trkpt lat="44.7859137" lon="9.4876386"><ele>715.25</ele><time>2026-04-18T11:26:24.258Z</time></trkpt><trkpt lat="44.7860327" lon="9.4876567"><ele>713.5</ele><time>2026-04-18T11:26:25.258Z</time></trkpt><trkpt lat="44.7861579" lon="9.4876743"><ele>711.75</ele><time>2026-04-18T11:26:26.259Z</time></trkpt><trkpt lat="44.7862834" lon="9.4877001"><ele>710.0</ele><time>2026-04-18T11:26:27.257Z</time></trkpt><trkpt lat="44.7864102" lon="9.4877313"><ele>710.0</ele><time>2026-04-18T11:26:28.257Z</time></trkpt><trkpt lat="44.7865394" lon="9.4877679"><ele>710.0</ele><time>2026-04-18T11:26:29.257Z</time></trkpt><trkpt lat="44.7866591" lon="9.4878279"><ele>710.0</ele><time>2026-04-18T11:26:30.257Z</time></trkpt><trkpt lat="44.7867737" lon="9.4879124"><ele>710.0</ele><time>2026-04-18T11:26:31.257Z</time></trkpt><trkpt lat="44.7868818" lon="9.4880121"><ele>709.5</ele><time>2026-04-18T11:26:32.258Z</time></trkpt><trkpt lat="44.7869844" lon="9.4881195"><ele>709.0</ele><time>2026-04-18T11:26:33.258Z</time></trkpt><trkpt lat="44.7870872" lon="9.4882274"><ele>708.5</ele><time>2026-04-18T11:26:34.258Z</time></trkpt><trkpt lat="44.7871992" lon="9.4883281"><ele>708.0</ele><time>2026-04-18T11:26:35.259Z</time></trkpt><trkpt lat="44.7873177" lon="9.4884166"><ele>708.0</ele><time>2026-04-18T11:26:36.258Z</time></trkpt><trkpt lat="44.787441" lon="9.488487"><ele>708.0</ele><time>2026-04-18T11:26:37.258Z</time></trkpt><trkpt lat="44.7875673" lon="9.488555"><ele>708.0</ele><time>2026-04-18T11:26:38.257Z</time></trkpt><trkpt lat="44.7876873" lon="9.4886312"><ele>708.0</ele><time>2026-04-18T11:26:39.258Z</time></trkpt><trkpt lat="44.7878118" lon="9.4886834"><ele>705.0</ele><time>2026-04-18T11:26:40.259Z</time></trkpt><trkpt lat="44.7879412" lon="9.488704"><ele>702.0</ele><time>2026-04-18T11:26:41.258Z</time></trkpt><trkpt lat="44.7880696" lon="9.4887306"><ele>699.0</ele><time>2026-04-18T11:26:42.258Z</time></trkpt><trkpt lat="44.7881965" lon="9.4888178"><ele>696.0</ele><time>2026-04-18T11:26:43.258Z</time></trkpt><trkpt lat="44.7883218" lon="9.4889222"><ele>691.6666666666666</ele><time>2026-04-18T11:26:44.257Z</time></trkpt><trkpt lat="44.7884711" lon="9.4890078"><ele>687.3333333333333</ele><time>2026-04-18T11:26:45.258Z</time></trkpt><trkpt lat="44.7886279" lon="9.4890707"><ele>683.0</ele><time>2026-04-18T11:26:46.258Z</time></trkpt><trkpt lat="44.7887724" lon="9.4891447"><ele>683.0</ele><time>2026-04-18T11:26:47.258Z</time></trkpt><trkpt lat="44.7889094" lon="9.489233"><ele>683.0</ele><time>2026-04-18T11:26:48.259Z</time></trkpt><trkpt lat="44.7890427" lon="9.4893033"><ele>683.0</ele><time>2026-04-18T11:26:49.257Z</time></trkpt><trkpt lat="44.7891828" lon="9.4893725"><ele>683.0</ele><time>2026-04-18T11:26:50.258Z</time></trkpt><trkpt lat="44.7893245" lon="9.4894284"><ele>680.75</ele><time>2026-04-18T11:26:51.258Z</time></trkpt><trkpt lat="44.7894615" lon="9.4894826"><ele>678.5</ele><time>2026-04-18T11:26:52.259Z</time></trkpt><trkpt lat="44.7896002" lon="9.4895295"><ele>676.25</ele><time>2026-04-18T11:26:53.258Z</time></trkpt><trkpt lat="44.7897346" lon="9.4895713"><ele>674.0</ele><time>2026-04-18T11:26:54.258Z</time></trkpt><trkpt lat="44.7898596" lon="9.4896017"><ele>672.0</ele><time>2026-04-18T11:26:55.258Z</time></trkpt><trkpt lat="44.7899766" lon="9.4896322"><ele>670.0</ele><time>2026-04-18T11:26:56.258Z</time></trkpt><trkpt lat="44.7900926" lon="9.4896848"><ele>668.0</ele><time>2026-04-18T11:26:57.258Z</time></trkpt><trkpt lat="44.7902065" lon="9.4897678"><ele>666.0</ele><time>2026-04-18T11:26:58.257Z</time></trkpt><trkpt lat="44.7903158" lon="9.489869"><ele>664.25</ele><time>2026-04-18T11:26:59.258Z</time></trkpt><trkpt lat="44.790422" lon="9.4899808"><ele>662.5</ele><time>2026-04-18T11:27:00.259Z</time></trkpt><trkpt lat="44.7905235" lon="9.490096"><ele>660.75</ele><time>2026-04-18T11:27:01.258Z</time></trkpt><trkpt lat="44.790633" lon="9.4901999"><ele>659.0</ele><time>2026-04-18T11:27:02.258Z</time></trkpt><trkpt lat="44.7907453" lon="9.4902903"><ele>659.0</ele><time>2026-04-18T11:27:03.258Z</time></trkpt><trkpt lat="44.790866" lon="9.4903586"><ele>659.0</ele><time>2026-04-18T11:27:04.258Z</time></trkpt><trkpt lat="44.7910033" lon="9.4904017"><ele>659.0</ele><time>2026-04-18T11:27:05.258Z</time></trkpt><trkpt lat="44.7911502" lon="9.4904294"><ele>659.0</ele><time>2026-04-18T11:27:06.258Z</time></trkpt><trkpt lat="44.7912971" lon="9.490461"><ele>656.0</ele><time>2026-04-18T11:27:07.258Z</time></trkpt><trkpt lat="44.7914402" lon="9.4905043"><ele>653.0</ele><time>2026-04-18T11:27:08.257Z</time></trkpt><trkpt lat="44.791578" lon="9.4905457"><ele>650.0</ele><time>2026-04-18T11:27:09.259Z</time></trkpt><trkpt lat="44.7917132" lon="9.4905869"><ele>647.0</ele><time>2026-04-18T11:27:10.258Z</time></trkpt><trkpt lat="44.7918435" lon="9.4906233"><ele>644.3333333333333</ele><time>2026-04-18T11:27:11.257Z</time></trkpt><trkpt lat="44.7919625" lon="9.4906595"><ele>641.6666666666666</ele><time>2026-04-18T11:27:12.258Z</time></trkpt><trkpt lat="44.79206" lon="9.4907065"><ele>639.0</ele><time>2026-04-18T11:27:13.257Z</time></trkpt><trkpt lat="44.7921203" lon="9.4907671"><ele>636.3333333333334</ele><time>2026-04-18T11:27:14.257Z</time></trkpt><trkpt lat="44.7921515" lon="9.4908572"><ele>633.6666666666667</ele><time>2026-04-18T11:27:15.258Z</time></trkpt><trkpt lat="44.7921473" lon="9.4909512"><ele>631.0</ele><time>2026-04-18T11:27:16.258Z</time></trkpt><trkpt lat="44.7920576" lon="9.4910499"><ele>631.0</ele><time>2026-04-18T11:27:18.258Z</time></trkpt><trkpt lat="44.7919599" lon="9.4910794"><ele>631.0</ele><time>2026-04-18T11:27:19.258Z</time></trkpt><trkpt lat="44.7918508" lon="9.4910881"><ele>631.0</ele><time>2026-04-18T11:27:20.258Z</time></trkpt><trkpt lat="44.7917402" lon="9.4910743"><ele>631.0</ele><time>2026-04-18T11:27:21.257Z</time></trkpt><trkpt lat="44.7916227" lon="9.4910549"><ele>631.0</ele><time>2026-04-18T11:27:22.257Z</time></trkpt><trkpt lat="44.7915028" lon="9.4910405"><ele>635.0</ele><time>2026-04-18T11:27:23.257Z</time></trkpt><trkpt lat="44.7913866" lon="9.4910358"><ele>639.0</ele><time>2026-04-18T11:27:24.257Z</time></trkpt><trkpt lat="44.7912715" lon="9.4910534"><ele>643.0</ele><time>2026-04-18T11:27:25.257Z</time></trkpt><trkpt lat="44.7911582" lon="9.4910862"><ele>647.0</ele><time>2026-04-18T11:27:26.258Z</time></trkpt><trkpt lat="44.7910493" lon="9.4911172"><ele>646.8</ele><time>2026-04-18T11:27:27.259Z</time></trkpt><trkpt lat="44.7909373" lon="9.4911342"><ele>646.6</ele><time>2026-04-18T11:27:28.258Z</time></trkpt><trkpt lat="44.7908275" lon="9.4911348"><ele>646.4</ele><time>2026-04-18T11:27:29.258Z</time></trkpt><trkpt lat="44.7907185" lon="9.4911178"><ele>646.1999999999999</ele><time>2026-04-18T11:27:30.258Z</time></trkpt><trkpt lat="44.7906109" lon="9.4910907"><ele>646.0</ele><time>2026-04-18T11:27:31.258Z</time></trkpt><trkpt lat="44.7905022" lon="9.4910751"><ele>646.0</ele><time>2026-04-18T11:27:32.258Z</time></trkpt><trkpt lat="44.7903982" lon="9.491098"><ele>646.0</ele><time>2026-04-18T11:27:33.257Z</time></trkpt><trkpt lat="44.7903191" lon="9.4911624"><ele>646.0</ele><time>2026-04-18T11:27:34.259Z</time></trkpt><trkpt lat="44.7902686" lon="9.4912479"><ele>646.0</ele><time>2026-04-18T11:27:35.258Z</time></trkpt><trkpt lat="44.7902647" lon="9.4913479"><ele>646.0</ele><time>2026-04-18T11:27:36.258Z</time></trkpt><trkpt lat="44.7903076" lon="9.4914455"><ele>646.0</ele><time>2026-04-18T11:27:37.259Z</time></trkpt><trkpt lat="44.7903839" lon="9.4915342"><ele>640.75</ele><time>2026-04-18T11:27:38.258Z</time></trkpt><trkpt lat="44.7904953" lon="9.4916231"><ele>635.5</ele><time>2026-04-18T11:27:39.258Z</time></trkpt><trkpt lat="44.7906208" lon="9.49172"><ele>630.25</ele><time>2026-04-18T11:27:40.259Z</time></trkpt><trkpt lat="44.7907394" lon="9.4918213"><ele>625.0</ele><time>2026-04-18T11:27:41.257Z</time></trkpt><trkpt lat="44.7908616" lon="9.4919246"><ele>625.0</ele><time>2026-04-18T11:27:42.257Z</time></trkpt><trkpt lat="44.7909797" lon="9.4920442"><ele>625.0</ele><time>2026-04-18T11:27:43.258Z</time></trkpt><trkpt lat="44.791089" lon="9.4921957"><ele>625.0</ele><time>2026-04-18T11:27:44.258Z</time></trkpt><trkpt lat="44.7911876" lon="9.4923595"><ele>624.5</ele><time>2026-04-18T11:27:45.258Z</time></trkpt><trkpt lat="44.7912781" lon="9.4925264"><ele>624.0</ele><time>2026-04-18T11:27:46.259Z</time></trkpt><trkpt lat="44.7913557" lon="9.4927021"><ele>623.5</ele><time>2026-04-18T11:27:47.258Z</time></trkpt><trkpt lat="44.791413" lon="9.4928856"><ele>623.0</ele><time>2026-04-18T11:27:48.258Z</time></trkpt><trkpt lat="44.7914654" lon="9.4930682"><ele>619.25</ele><time>2026-04-18T11:27:49.257Z</time></trkpt><trkpt lat="44.7915212" lon="9.4932438"><ele>615.5</ele><time>2026-04-18T11:27:50.258Z</time></trkpt><trkpt lat="44.7915863" lon="9.4934139"><ele>611.75</ele><time>2026-04-18T11:27:51.258Z</time></trkpt><trkpt lat="44.7916623" lon="9.4935815"><ele>608.0</ele><time>2026-04-18T11:27:52.258Z</time></trkpt><trkpt lat="44.7917529" lon="9.4937305"><ele>607.0</ele><time>2026-04-18T11:27:53.258Z</time></trkpt><trkpt lat="44.7918553" lon="9.4938609"><ele>606.0</ele><time>2026-04-18T11:27:54.259Z</time></trkpt><trkpt lat="44.7919496" lon="9.4939996"><ele>605.0</ele><time>2026-04-18T11:27:55.258Z</time></trkpt><trkpt lat="44.7920184" lon="9.494168"><ele>604.0</ele><time>2026-04-18T11:27:56.258Z</time></trkpt><trkpt lat="44.7920819" lon="9.4943353"><ele>604.0</ele><time>2026-04-18T11:27:57.258Z</time></trkpt><trkpt lat="44.7921608" lon="9.4944801"><ele>604.0</ele><time>2026-04-18T11:27:58.259Z</time></trkpt><trkpt lat="44.7922651" lon="9.4946033"><ele>604.0</ele><time>2026-04-18T11:27:59.258Z</time></trkpt><trkpt lat="44.7923742" lon="9.4947154"><ele>604.0</ele><time>2026-04-18T11:28:00.258Z</time></trkpt><trkpt lat="44.7924755" lon="9.4948556"><ele>600.75</ele><time>2026-04-18T11:28:01.257Z</time></trkpt><trkpt lat="44.7925623" lon="9.4950056"><ele>597.5</ele><time>2026-04-18T11:28:02.257Z</time></trkpt><trkpt lat="44.7926352" lon="9.4951309"><ele>594.25</ele><time>2026-04-18T11:28:03.258Z</time></trkpt><trkpt lat="44.7927298" lon="9.4952341"><ele>591.0</ele><time>2026-04-18T11:28:04.258Z</time></trkpt><trkpt lat="44.7928444" lon="9.4953146"><ele>590.5</ele><time>2026-04-18T11:28:05.258Z</time></trkpt><trkpt lat="44.7929641" lon="9.4953844"><ele>590.0</ele><time>2026-04-18T11:28:06.257Z</time></trkpt><trkpt lat="44.793075" lon="9.4954776"><ele>589.5</ele><time>2026-04-18T11:28:07.257Z</time></trkpt><trkpt lat="44.793167" lon="9.4955908"><ele>589.0</ele><time>2026-04-18T11:28:08.258Z</time></trkpt><trkpt lat="44.7932411" lon="9.4957272"><ele>587.2</ele><time>2026-04-18T11:28:09.257Z</time></trkpt><trkpt lat="44.793306" lon="9.4958652"><ele>585.4</ele><time>2026-04-18T11:28:10.257Z</time></trkpt><trkpt lat="44.7933521" lon="9.4959809"><ele>583.6</ele><time>2026-04-18T11:28:11.257Z</time></trkpt><trkpt lat="44.7933898" lon="9.4960935"><ele>581.8</ele><time>2026-04-18T11:28:12.258Z</time></trkpt><trkpt lat="44.7934239" lon="9.496196"><ele>580.0</ele><time>2026-04-18T11:28:13.259Z</time></trkpt><trkpt lat="44.7934542" lon="9.4962975"><ele>578.8333333333334</ele><time>2026-04-18T11:28:14.258Z</time></trkpt><trkpt lat="44.7934795" lon="9.496384"><ele>577.6666666666667</ele><time>2026-04-18T11:28:15.258Z</time></trkpt><trkpt lat="44.7935075" lon="9.4964982"><ele>576.5</ele><time>2026-04-18T11:28:17.257Z</time></trkpt><trkpt lat="44.7935269" lon="9.496585"><ele>575.3333333333334</ele><time>2026-04-18T11:28:20.258Z</time></trkpt><trkpt lat="44.7935059" lon="9.4966759"><ele>574.1666666666666</ele><time>2026-04-18T11:31:21.256Z</time></trkpt><trkpt lat="44.7934616" lon="9.4967459"><ele>573.0</ele><time>2026-04-18T11:31:23.257Z</time></trkpt><trkpt lat="44.79337" lon="9.4968021"><ele>573.0</ele><time>2026-04-18T11:31:25.257Z</time></trkpt><trkpt lat="44.7932826" lon="9.4968423"><ele>573.0</ele><time>2026-04-18T11:31:27.256Z</time></trkpt><trkpt lat="44.7932288" lon="9.4968997"><ele>573.0</ele><time>2026-04-18T11:31:29.257Z</time></trkpt><trkpt lat="44.7931987" lon="9.4970358"><ele>573.0</ele><time>2026-04-18T11:31:31.256Z</time></trkpt><trkpt lat="44.7931702" lon="9.4971789"><ele>573.0</ele><time>2026-04-18T11:31:33.257Z</time></trkpt><trkpt lat="44.7931806" lon="9.4973206"><ele>571.1999999999999</ele><time>2026-04-18T11:31:35.257Z</time></trkpt><trkpt lat="44.7932118" lon="9.4974554"><ele>569.4</ele><time>2026-04-18T11:31:37.257Z</time></trkpt><trkpt lat="44.7931943" lon="9.4975432"><ele>567.5999999999999</ele><time>2026-04-18T11:31:39.257Z</time></trkpt><trkpt lat="44.7931316" lon="9.4975607"><ele>565.8</ele><time>2026-04-18T11:31:41.256Z</time></trkpt><trkpt lat="44.7930034" lon="9.4974897"><ele>564.0</ele><time>2026-04-18T11:31:43.256Z</time></trkpt><trkpt lat="44.7929251" lon="9.4974463"><ele>564.0</ele><time>2026-04-18T11:31:44.257Z</time></trkpt><trkpt lat="44.7928535" lon="9.4973995"><ele>564.0</ele><time>2026-04-18T11:31:45.256Z</time></trkpt><trkpt lat="44.7927801" lon="9.4973504"><ele>564.0</ele><time>2026-04-18T11:31:46.258Z</time></trkpt><trkpt lat="44.7927108" lon="9.4973081"><ele>564.0</ele><time>2026-04-18T11:31:47.257Z</time></trkpt><trkpt lat="44.792603" lon="9.497247"><ele>564.0</ele><time>2026-04-18T11:31:49.257Z</time></trkpt><trkpt lat="44.7924775" lon="9.4971997"><ele>564.1666666666666</ele><time>2026-04-18T11:31:51.256Z</time></trkpt><trkpt lat="44.7923989" lon="9.4971681"><ele>564.3333333333334</ele><time>2026-04-18T11:31:52.256Z</time></trkpt><trkpt lat="44.7923256" lon="9.4971311"><ele>564.5</ele><time>2026-04-18T11:31:53.256Z</time></trkpt><trkpt lat="44.7922459" lon="9.4970783"><ele>564.6666666666667</ele><time>2026-04-18T11:31:54.257Z</time></trkpt><trkpt lat="44.7921663" lon="9.4970202"><ele>564.8333333333334</ele><time>2026-04-18T11:31:55.257Z</time></trkpt><trkpt lat="44.7920985" lon="9.4969592"><ele>565.0</ele><time>2026-04-18T11:31:56.256Z</time></trkpt><trkpt lat="44.7920241" lon="9.4968944"><ele>565.0</ele><time>2026-04-18T11:31:57.257Z</time></trkpt><trkpt lat="44.7919483" lon="9.4968405"><ele>565.0</ele><time>2026-04-18T11:31:58.257Z</time></trkpt><trkpt lat="44.791876" lon="9.4968085"><ele>565.0</ele><time>2026-04-18T11:31:59.258Z</time></trkpt><trkpt lat="44.7917432" lon="9.4967928"><ele>565.0</ele><time>2026-04-18T11:32:01.257Z</time></trkpt><trkpt lat="44.7916455" lon="9.4968066"><ele>565.0</ele><time>2026-04-18T11:32:02.256Z</time></trkpt><trkpt lat="44.791555" lon="9.4968307"><ele>563.3333333333334</ele><time>2026-04-18T11:32:03.258Z</time></trkpt><trkpt lat="44.7914596" lon="9.4968037"><ele>561.6666666666667</ele><time>2026-04-18T11:32:04.258Z</time></trkpt><trkpt lat="44.7913771" lon="9.4967958"><ele>560.0</ele><time>2026-04-18T11:32:05.257Z</time></trkpt><trkpt lat="44.7912897" lon="9.496794"><ele>558.3333333333334</ele><time>2026-04-18T11:32:06.257Z</time></trkpt><trkpt lat="44.7912164" lon="9.4967947"><ele>556.6666666666666</ele><time>2026-04-18T11:32:07.257Z</time></trkpt><trkpt lat="44.7911537" lon="9.4967752"><ele>555.0</ele><time>2026-04-18T11:32:08.257Z</time></trkpt><trkpt lat="44.7910845" lon="9.4967832"><ele>555.0</ele><time>2026-04-18T11:32:10.256Z</time></trkpt><trkpt lat="44.7910274" lon="9.4968247"><ele>555.0</ele><time>2026-04-18T11:32:12.257Z</time></trkpt><trkpt lat="44.7910398" lon="9.4969328"><ele>555.0</ele><time>2026-04-18T11:32:14.257Z</time></trkpt><trkpt lat="44.7910731" lon="9.497081"><ele>555.0</ele><time>2026-04-18T11:32:16.258Z</time></trkpt><trkpt lat="44.7910625" lon="9.4971763"><ele>555.0</ele><time>2026-04-18T11:32:17.258Z</time></trkpt><trkpt lat="44.7909881" lon="9.497355"><ele>555.1666666666666</ele><time>2026-04-18T11:32:19.256Z</time></trkpt><trkpt lat="44.7909388" lon="9.4974334"><ele>555.3333333333334</ele><time>2026-04-18T11:32:20.256Z</time></trkpt><trkpt lat="44.7909053" lon="9.4975368"><ele>555.5</ele><time>2026-04-18T11:32:21.257Z</time></trkpt><trkpt lat="44.7908732" lon="9.4976502"><ele>555.6666666666667</ele><time>2026-04-18T11:32:22.257Z</time></trkpt><trkpt lat="44.7908585" lon="9.4977814"><ele>555.8333333333334</ele><time>2026-04-18T11:32:23.257Z</time></trkpt><trkpt lat="44.7908519" lon="9.497928"><ele>556.0</ele><time>2026-04-18T11:32:24.257Z</time></trkpt><trkpt lat="44.7908572" lon="9.4980372"><ele>554.6666666666667</ele><time>2026-04-18T11:32:25.258Z</time></trkpt><trkpt lat="44.7908243" lon="9.4981363"><ele>553.3333333333334</ele><time>2026-04-18T11:32:27.257Z</time></trkpt><trkpt lat="44.7907488" lon="9.4981475"><ele>552.0</ele><time>2026-04-18T11:32:30.256Z</time></trkpt><trkpt lat="44.7906458" lon="9.4981137"><ele>550.6666666666666</ele><time>2026-04-18T11:32:32.257Z</time></trkpt><trkpt lat="44.7905857" lon="9.498084"><ele>549.3333333333333</ele><time>2026-04-18T11:32:33.257Z</time></trkpt><trkpt lat="44.7905198" lon="9.4980685"><ele>548.0</ele><time>2026-04-18T11:32:34.257Z</time></trkpt><trkpt lat="44.7904354" lon="9.4980366"><ele>548.0</ele><time>2026-04-18T11:32:35.256Z</time></trkpt><trkpt lat="44.7903501" lon="9.4980322"><ele>548.0</ele><time>2026-04-18T11:32:36.257Z</time></trkpt><trkpt lat="44.7902865" lon="9.4980314"><ele>548.0</ele><time>2026-04-18T11:32:37.256Z</time></trkpt><trkpt lat="44.7901778" lon="9.4980367"><ele>548.0</ele><time>2026-04-18T11:32:39.256Z</time></trkpt><trkpt lat="44.7900859" lon="9.4980692"><ele>548.0</ele><time>2026-04-18T11:32:41.257Z</time></trkpt><trkpt lat="44.7899845" lon="9.4981571"><ele>551.1666666666666</ele><time>2026-04-18T11:32:43.257Z</time></trkpt><trkpt lat="44.7898888" lon="9.4982144"><ele>554.3333333333333</ele><time>2026-04-18T11:32:45.257Z</time></trkpt><trkpt lat="44.789783" lon="9.4982661"><ele>557.5</ele><time>2026-04-18T11:32:47.257Z</time></trkpt><trkpt lat="44.7897198" lon="9.4983048"><ele>560.6666666666666</ele><time>2026-04-18T11:32:48.257Z</time></trkpt><trkpt lat="44.7896482" lon="9.4983684"><ele>563.8333333333334</ele><time>2026-04-18T11:32:49.257Z</time></trkpt><trkpt lat="44.7895837" lon="9.4984297"><ele>567.0</ele><time>2026-04-18T11:32:50.257Z</time></trkpt><trkpt lat="44.7894874" lon="9.4985816"><ele>567.0</ele><time>2026-04-18T11:32:52.257Z</time></trkpt><trkpt lat="44.7894307" lon="9.4986704"><ele>567.0</ele><time>2026-04-18T11:32:53.256Z</time></trkpt><trkpt lat="44.7893736" lon="9.4987554"><ele>567.0</ele><time>2026-04-18T11:32:54.256Z</time></trkpt><trkpt lat="44.789309" lon="9.4988308"><ele>567.0</ele><time>2026-04-18T11:32:55.257Z</time></trkpt><trkpt lat="44.7892434" lon="9.4988668"><ele>567.0</ele><time>2026-04-18T11:32:56.258Z</time></trkpt><trkpt lat="44.7891718" lon="9.4989015"><ele>567.0</ele><time>2026-04-18T11:32:57.257Z</time></trkpt><trkpt lat="44.7891044" lon="9.4989338"><ele>568.6</ele><time>2026-04-18T11:32:58.257Z</time></trkpt><trkpt lat="44.7890209" lon="9.4989453"><ele>570.2</ele><time>2026-04-18T11:32:59.257Z</time></trkpt><trkpt lat="44.7889308" lon="9.498968"><ele>571.8</ele><time>2026-04-18T11:33:00.257Z</time></trkpt><trkpt lat="44.7888374" lon="9.4989903"><ele>573.4</ele><time>2026-04-18T11:33:01.257Z</time></trkpt><trkpt lat="44.7887438" lon="9.4990135"><ele>575.0</ele><time>2026-04-18T11:33:02.257Z</time></trkpt><trkpt lat="44.7886422" lon="9.4990414"><ele>575.0</ele><time>2026-04-18T11:33:03.256Z</time></trkpt><trkpt lat="44.7885573" lon="9.4990669"><ele>575.0</ele><time>2026-04-18T11:33:04.256Z</time></trkpt><trkpt lat="44.7884865" lon="9.4990895"><ele>575.0</ele><time>2026-04-18T11:33:05.257Z</time></trkpt><trkpt lat="44.7884041" lon="9.4991005"><ele>575.0</ele><time>2026-04-18T11:33:07.257Z</time></trkpt><trkpt lat="44.7883307" lon="9.499109"><ele>575.0</ele><time>2026-04-18T11:34:09.257Z</time></trkpt><trkpt lat="44.7882193" lon="9.4991246"><ele>575.0</ele><time>2026-04-18T11:34:11.258Z</time></trkpt><trkpt lat="44.7881494" lon="9.4991227"><ele>574.6666666666666</ele><time>2026-04-18T11:34:12.257Z</time></trkpt><trkpt lat="44.7880764" lon="9.499102"><ele>574.3333333333333</ele><time>2026-04-18T11:34:13.257Z</time></trkpt><trkpt lat="44.7880029" lon="9.4990744"><ele>574.0</ele><time>2026-04-18T11:34:14.256Z</time></trkpt><trkpt lat="44.7879337" lon="9.4990399"><ele>573.6666666666666</ele><time>2026-04-18T11:34:15.257Z</time></trkpt><trkpt lat="44.7878577" lon="9.4989938"><ele>573.3333333333334</ele><time>2026-04-18T11:34:16.258Z</time></trkpt><trkpt lat="44.7877846" lon="9.4989406"><ele>573.0</ele><time>2026-04-18T11:34:17.258Z</time></trkpt><trkpt lat="44.7877101" lon="9.4988899"><ele>571.0</ele><time>2026-04-18T11:34:18.256Z</time></trkpt><trkpt lat="44.7876407" lon="9.4988492"><ele>569.0</ele><time>2026-04-18T11:34:19.257Z</time></trkpt><trkpt lat="44.7875639" lon="9.4988198"><ele>567.0</ele><time>2026-04-18T11:34:20.257Z</time></trkpt><trkpt lat="44.7874961" lon="9.4988082"><ele>565.0</ele><time>2026-04-18T11:34:21.256Z</time></trkpt><trkpt lat="44.7873764" lon="9.4987659"><ele>563.0</ele><time>2026-04-18T11:34:23.257Z</time></trkpt><trkpt lat="44.7872668" lon="9.4987548"><ele>565.6666666666666</ele><time>2026-04-18T11:34:25.257Z</time></trkpt><trkpt lat="44.7871663" lon="9.4987129"><ele>568.3333333333333</ele><time>2026-04-18T11:34:27.257Z</time></trkpt><trkpt lat="44.7870724" lon="9.4985957"><ele>571.0</ele><time>2026-04-18T11:34:29.257Z</time></trkpt><trkpt lat="44.7870143" lon="9.4985612"><ele>573.6666666666666</ele><time>2026-04-18T11:34:30.257Z</time></trkpt><trkpt lat="44.7869428" lon="9.4985275"><ele>576.3333333333334</ele><time>2026-04-18T11:34:31.256Z</time></trkpt><trkpt lat="44.7868631" lon="9.4985087"><ele>579.0</ele><time>2026-04-18T11:34:32.258Z</time></trkpt><trkpt lat="44.7867829" lon="9.4984773"><ele>579.0</ele><time>2026-04-18T11:34:33.257Z</time></trkpt><trkpt lat="44.786689" lon="9.4984333"><ele>579.0</ele><time>2026-04-18T11:34:34.257Z</time></trkpt><trkpt lat="44.7866145" lon="9.4983914"><ele>579.0</ele><time>2026-04-18T11:34:35.256Z</time></trkpt><trkpt lat="44.7864968" lon="9.4983762"><ele>579.0</ele><time>2026-04-18T11:34:37.257Z</time></trkpt><trkpt lat="44.7864254" lon="9.4983898"><ele>579.0</ele><time>2026-04-18T11:34:39.257Z</time></trkpt><trkpt lat="44.7863481" lon="9.4983924"><ele>579.0</ele><time>2026-04-18T11:35:07.257Z</time></trkpt><trkpt lat="44.7862742" lon="9.4983718"><ele>579.0</ele><time>2026-04-18T11:35:09.256Z</time></trkpt><trkpt lat="44.7862039" lon="9.4983507"><ele>579.0</ele><time>2026-04-18T11:35:11.257Z</time></trkpt><trkpt lat="44.7861074" lon="9.4983607"><ele>579.0</ele><time>2026-04-18T11:35:13.257Z</time></trkpt><trkpt lat="44.7860124" lon="9.4984051"><ele>579.0</ele><time>2026-04-18T11:35:15.256Z</time></trkpt><trkpt lat="44.7859374" lon="9.4984592"><ele>579.0</ele><time>2026-04-18T11:35:17.257Z</time></trkpt><trkpt lat="44.7858936" lon="9.4985281"><ele>579.0</ele><time>2026-04-18T11:35:20.257Z</time></trkpt><trkpt lat="44.7858152" lon="9.4985569"><ele>579.8333333333334</ele><time>2026-04-18T11:46:02.256Z</time></trkpt><trkpt lat="44.7857462" lon="9.4985419"><ele>580.6666666666666</ele><time>2026-04-18T11:46:06.257Z</time></trkpt><trkpt lat="44.7856577" lon="9.4985122"><ele>581.5</ele><time>2026-04-18T11:46:09.256Z</time></trkpt><trkpt lat="44.7855764" lon="9.4985209"><ele>582.3333333333333</ele><time>2026-04-18T11:46:12.257Z</time></trkpt><trkpt lat="44.7855074" lon="9.4985154"><ele>583.1666666666666</ele><time>2026-04-18T11:48:08.256Z</time></trkpt><trkpt lat="44.7854411" lon="9.4984907"><ele>584.0</ele><time>2026-04-18T11:48:11.255Z</time></trkpt><trkpt lat="44.7853525" lon="9.4984877"><ele>584.0</ele><time>2026-04-18T11:48:14.255Z</time></trkpt><trkpt lat="44.7852808" lon="9.4985109"><ele>584.0</ele><time>2026-04-18T11:48:16.256Z</time></trkpt><trkpt lat="44.7852282" lon="9.4985824"><ele>584.0</ele><time>2026-04-18T11:48:18.256Z</time></trkpt><trkpt lat="44.785243" lon="9.4986816"><ele>584.0</ele><time>2026-04-18T11:48:19.255Z</time></trkpt><trkpt lat="44.7852081" lon="9.498823"><ele>584.0</ele><time>2026-04-18T11:48:21.256Z</time></trkpt><trkpt lat="44.7851802" lon="9.4989026"><ele>584.0</ele><time>2026-04-18T11:48:22.256Z</time></trkpt><trkpt lat="44.7851095" lon="9.4990292"><ele>580.4</ele><time>2026-04-18T11:48:24.255Z</time></trkpt><trkpt lat="44.7850601" lon="9.499088"><ele>576.8</ele><time>2026-04-18T11:48:25.255Z</time></trkpt><trkpt lat="44.7849706" lon="9.499159"><ele>573.2</ele><time>2026-04-18T11:48:27.256Z</time></trkpt><trkpt lat="44.7848595" lon="9.4991865"><ele>569.6</ele><time>2026-04-18T11:48:29.256Z</time></trkpt><trkpt lat="44.7847536" lon="9.4992151"><ele>566.0</ele><time>2026-04-18T11:48:31.256Z</time></trkpt><trkpt lat="44.7846922" lon="9.4992758"><ele>566.0</ele><time>2026-04-18T11:48:33.256Z</time></trkpt><trkpt lat="44.7846451" lon="9.4993826"><ele>566.0</ele><time>2026-04-18T11:48:35.257Z</time></trkpt><trkpt lat="44.7845929" lon="9.4995157"><ele>566.0</ele><time>2026-04-18T11:48:37.255Z</time></trkpt><trkpt lat="44.7845465" lon="9.4995946"><ele>566.0</ele><time>2026-04-18T11:48:38.255Z</time></trkpt><trkpt lat="44.7845178" lon="9.4997161"><ele>566.0</ele><time>2026-04-18T11:48:40.256Z</time></trkpt><trkpt lat="44.7845275" lon="9.4998586"><ele>562.5</ele><time>2026-04-18T11:48:42.256Z</time></trkpt><trkpt lat="44.7844908" lon="9.4999697"><ele>559.0</ele><time>2026-04-18T11:48:44.255Z</time></trkpt><trkpt lat="44.7844178" lon="9.500063"><ele>555.5</ele><time>2026-04-18T11:48:46.256Z</time></trkpt><trkpt lat="44.7843581" lon="9.500162"><ele>552.0</ele><time>2026-04-18T11:48:48.255Z</time></trkpt><trkpt lat="44.7843661" lon="9.5002894"><ele>548.5</ele><time>2026-04-18T11:48:51.256Z</time></trkpt><trkpt lat="44.7843981" lon="9.5003825"><ele>545.0</ele><time>2026-04-18T11:48:53.256Z</time></trkpt><trkpt lat="44.7844003" lon="9.5005555"><ele>541.1666666666666</ele><time>2026-04-18T11:48:55.256Z</time></trkpt><trkpt lat="44.7844033" lon="9.5006799"><ele>537.3333333333333</ele><time>2026-04-18T11:48:56.256Z</time></trkpt><trkpt lat="44.7844168" lon="9.5007853"><ele>533.5</ele><time>2026-04-18T11:48:57.256Z</time></trkpt><trkpt lat="44.7844397" lon="9.5008973"><ele>529.6666666666666</ele><time>2026-04-18T11:48:58.256Z</time></trkpt><trkpt lat="44.7844454" lon="9.5009938"><ele>525.8333333333334</ele><time>2026-04-18T11:48:59.255Z</time></trkpt><trkpt lat="44.7844576" lon="9.5011288"><ele>522.0</ele><time>2026-04-18T11:49:01.256Z</time></trkpt><trkpt lat="44.7844885" lon="9.5012094"><ele>522.0</ele><time>2026-04-18T11:49:03.256Z</time></trkpt><trkpt lat="44.7845517" lon="9.5012713"><ele>522.0</ele><time>2026-04-18T11:49:06.256Z</time></trkpt><trkpt lat="44.7846189" lon="9.5012624"><ele>522.0</ele><time>2026-04-18T11:49:58.255Z</time></trkpt><trkpt lat="44.7846882" lon="9.5012507"><ele>522.0</ele><time>2026-04-18T11:49:59.256Z</time></trkpt><trkpt lat="44.7847815" lon="9.5012356"><ele>522.0</ele><time>2026-04-18T11:50:00.256Z</time></trkpt><trkpt lat="44.7848898" lon="9.5012211"><ele>522.0</ele><time>2026-04-18T11:50:01.255Z</time></trkpt><trkpt lat="44.7850155" lon="9.501206"><ele>522.0</ele><time>2026-04-18T11:50:02.257Z</time></trkpt><trkpt lat="44.7851486" lon="9.5011885"><ele>522.0</ele><time>2026-04-18T11:50:03.256Z</time></trkpt><trkpt lat="44.7852854" lon="9.5011619"><ele>522.0</ele><time>2026-04-18T11:50:04.256Z</time></trkpt><trkpt lat="44.7854311" lon="9.5011272"><ele>522.0</ele><time>2026-04-18T11:50:05.257Z</time></trkpt><trkpt lat="44.7855831" lon="9.5010905"><ele>521.75</ele><time>2026-04-18T11:50:06.255Z</time></trkpt><trkpt lat="44.7857358" lon="9.5010656"><ele>521.5</ele><time>2026-04-18T11:50:07.256Z</time></trkpt><trkpt lat="44.7858878" lon="9.5010512"><ele>521.25</ele><time>2026-04-18T11:50:08.256Z</time></trkpt><trkpt lat="44.7860253" lon="9.5010457"><ele>521.0</ele><time>2026-04-18T11:50:09.255Z</time></trkpt><trkpt lat="44.7861414" lon="9.5010311"><ele>521.5</ele><time>2026-04-18T11:50:10.256Z</time></trkpt><trkpt lat="44.7862524" lon="9.5009912"><ele>522.0</ele><time>2026-04-18T11:50:11.256Z</time></trkpt><trkpt lat="44.7863579" lon="9.500932"><ele>522.5</ele><time>2026-04-18T11:50:12.255Z</time></trkpt><trkpt lat="44.7864634" lon="9.5008899"><ele>523.0</ele><time>2026-04-18T11:50:13.256Z</time></trkpt><trkpt lat="44.7865742" lon="9.5008684"><ele>523.0</ele><time>2026-04-18T11:50:14.256Z</time></trkpt><trkpt lat="44.7866809" lon="9.5008553"><ele>523.0</ele><time>2026-04-18T11:50:15.256Z</time></trkpt><trkpt lat="44.786786" lon="9.5008466"><ele>523.0</ele><time>2026-04-18T11:50:16.257Z</time></trkpt><trkpt lat="44.7868858" lon="9.5008532"><ele>523.0</ele><time>2026-04-18T11:50:17.255Z</time></trkpt><trkpt lat="44.7869954" lon="9.5008921"><ele>523.0</ele><time>2026-04-18T11:50:18.257Z</time></trkpt><trkpt lat="44.7871056" lon="9.5009582"><ele>524.25</ele><time>2026-04-18T11:50:19.256Z</time></trkpt><trkpt lat="44.7872073" lon="9.5010263"><ele>525.5</ele><time>2026-04-18T11:50:20.255Z</time></trkpt><trkpt lat="44.7873082" lon="9.5011055"><ele>526.75</ele><time>2026-04-18T11:50:21.255Z</time></trkpt><trkpt lat="44.7873985" lon="9.5012085"><ele>528.0</ele><time>2026-04-18T11:50:22.256Z</time></trkpt><trkpt lat="44.7874871" lon="9.5013109"><ele>527.8</ele><time>2026-04-18T11:50:23.256Z</time></trkpt><trkpt lat="44.7875764" lon="9.5014097"><ele>527.5999999999999</ele><time>2026-04-18T11:50:24.256Z</time></trkpt><trkpt lat="44.7876497" lon="9.5015064"><ele>527.4000000000001</ele><time>2026-04-18T11:50:25.256Z</time></trkpt><trkpt lat="44.7877088" lon="9.5015798"><ele>527.2</ele><time>2026-04-18T11:50:26.256Z</time></trkpt><trkpt lat="44.7877703" lon="9.5016548"><ele>527.0</ele><time>2026-04-18T11:50:28.256Z</time></trkpt><trkpt lat="44.7878516" lon="9.5016724"><ele>527.0</ele><time>2026-04-18T11:50:30.255Z</time></trkpt><trkpt lat="44.7879584" lon="9.5016878"><ele>527.0</ele><time>2026-04-18T11:50:32.257Z</time></trkpt><trkpt lat="44.7880395" lon="9.5018258"><ele>527.0</ele><time>2026-04-18T11:50:34.255Z</time></trkpt><trkpt lat="44.7880825" lon="9.5019255"><ele>527.0</ele><time>2026-04-18T11:50:35.257Z</time></trkpt><trkpt lat="44.7881259" lon="9.5020197"><ele>527.0</ele><time>2026-04-18T11:50:36.255Z</time></trkpt><trkpt lat="44.7881728" lon="9.502096"><ele>527.0</ele><time>2026-04-18T11:50:37.256Z</time></trkpt><trkpt lat="44.7882537" lon="9.5021536"><ele>527.0</ele><time>2026-04-18T11:50:39.256Z</time></trkpt><trkpt lat="44.7883282" lon="9.5021186"><ele>527.0</ele><time>2026-04-18T11:50:42.256Z</time></trkpt><trkpt lat="44.7884225" lon="9.5020425"><ele>527.0</ele><time>2026-04-18T11:50:45.256Z</time></trkpt><trkpt lat="44.7884914" lon="9.5019876"><ele>527.0</ele><time>2026-04-18T11:50:46.257Z</time></trkpt><trkpt lat="44.7885895" lon="9.5019063"><ele>526.25</ele><time>2026-04-18T11:50:47.256Z</time></trkpt><trkpt lat="44.7886946" lon="9.5018211"><ele>525.5</ele><time>2026-04-18T11:50:48.255Z</time></trkpt><trkpt lat="44.7888036" lon="9.5017378"><ele>524.75</ele><time>2026-04-18T11:50:49.256Z</time></trkpt><trkpt lat="44.7889186" lon="9.5016566"><ele>524.0</ele><time>2026-04-18T11:50:50.255Z</time></trkpt><trkpt lat="44.7890384" lon="9.501577"><ele>524.0</ele><time>2026-04-18T11:50:51.257Z</time></trkpt><trkpt lat="44.7891598" lon="9.5015198"><ele>524.0</ele><time>2026-04-18T11:50:52.255Z</time></trkpt><trkpt lat="44.7892712" lon="9.5014973"><ele>524.0</ele><time>2026-04-18T11:50:53.256Z</time></trkpt><trkpt lat="44.7893821" lon="9.5015014"><ele>524.0</ele><time>2026-04-18T11:50:54.257Z</time></trkpt><trkpt lat="44.789492" lon="9.5015146"><ele>521.0</ele><time>2026-04-18T11:50:55.256Z</time></trkpt><trkpt lat="44.789597" lon="9.5015442"><ele>518.0</ele><time>2026-04-18T11:50:56.256Z</time></trkpt><trkpt lat="44.7896949" lon="9.5015918"><ele>515.0</ele><time>2026-04-18T11:50:57.256Z</time></trkpt><trkpt lat="44.7897886" lon="9.501635"><ele>512.0</ele><time>2026-04-18T11:50:58.256Z</time></trkpt><trkpt lat="44.789879" lon="9.501642"><ele>509.0</ele><time>2026-04-18T11:50:59.256Z</time></trkpt><trkpt lat="44.78997" lon="9.5016115"><ele>509.0</ele><time>2026-04-18T11:51:00.255Z</time></trkpt><trkpt lat="44.7900594" lon="9.5015305"><ele>509.0</ele><time>2026-04-18T11:51:01.256Z</time></trkpt><trkpt lat="44.7901485" lon="9.5014171"><ele>509.0</ele><time>2026-04-18T11:51:02.257Z</time></trkpt><trkpt lat="44.7902431" lon="9.5013077"><ele>509.0</ele><time>2026-04-18T11:51:03.257Z</time></trkpt><trkpt lat="44.7903303" lon="9.5011953"><ele>508.0</ele><time>2026-04-18T11:51:04.256Z</time></trkpt><trkpt lat="44.7904022" lon="9.501061"><ele>507.0</ele><time>2026-04-18T11:51:05.256Z</time></trkpt><trkpt lat="44.7904654" lon="9.5009241"><ele>506.0</ele><time>2026-04-18T11:51:06.256Z</time></trkpt><trkpt lat="44.7905382" lon="9.5008195"><ele>505.0</ele><time>2026-04-18T11:51:07.256Z</time></trkpt><trkpt lat="44.790623" lon="9.5007528"><ele>504.0</ele><time>2026-04-18T11:51:08.256Z</time></trkpt><trkpt lat="44.7907065" lon="9.5007252"><ele>504.0</ele><time>2026-04-18T11:51:09.257Z</time></trkpt><trkpt lat="44.7907789" lon="9.5007269"><ele>504.0</ele><time>2026-04-18T11:51:10.256Z</time></trkpt><trkpt lat="44.790865" lon="9.5007633"><ele>504.0</ele><time>2026-04-18T11:51:11.256Z</time></trkpt><trkpt lat="44.7909764" lon="9.5007906"><ele>504.0</ele><time>2026-04-18T11:51:12.256Z</time></trkpt><trkpt lat="44.7910796" lon="9.500773"><ele>504.0</ele><time>2026-04-18T11:51:13.255Z</time></trkpt><trkpt lat="44.7912019" lon="9.5007089"><ele>501.5</ele><time>2026-04-18T11:51:14.255Z</time></trkpt><trkpt lat="44.7913403" lon="9.5006267"><ele>499.0</ele><time>2026-04-18T11:51:15.256Z</time></trkpt><trkpt lat="44.7914603" lon="9.5005575"><ele>496.5</ele><time>2026-04-18T11:51:16.256Z</time></trkpt><trkpt lat="44.7915754" lon="9.5005036"><ele>494.0</ele><time>2026-04-18T11:51:17.256Z</time></trkpt><trkpt lat="44.7916835" lon="9.5004847"><ele>494.0</ele><time>2026-04-18T11:51:18.255Z</time></trkpt><trkpt lat="44.791777" lon="9.5004974"><ele>494.0</ele><time>2026-04-18T11:51:19.255Z</time></trkpt><trkpt lat="44.7918575" lon="9.5005458"><ele>494.0</ele><time>2026-04-18T11:51:20.255Z</time></trkpt><trkpt lat="44.7919272" lon="9.5006285"><ele>494.0</ele><time>2026-04-18T11:51:21.255Z</time></trkpt><trkpt lat="44.7919798" lon="9.5007346"><ele>494.0</ele><time>2026-04-18T11:51:22.256Z</time></trkpt><trkpt lat="44.7920266" lon="9.5008536"><ele>493.5</ele><time>2026-04-18T11:51:23.257Z</time></trkpt><trkpt lat="44.7920841" lon="9.5009964"><ele>493.0</ele><time>2026-04-18T11:51:24.256Z</time></trkpt><trkpt lat="44.792143" lon="9.501152"><ele>492.5</ele><time>2026-04-18T11:51:25.256Z</time></trkpt><trkpt lat="44.7922055" lon="9.5013043"><ele>492.0</ele><time>2026-04-18T11:51:26.257Z</time></trkpt><trkpt lat="44.7922583" lon="9.5014411"><ele>492.0</ele><time>2026-04-18T11:51:27.255Z</time></trkpt><trkpt lat="44.7922683" lon="9.5015752"><ele>492.00000000000006</ele><time>2026-04-18T11:51:28.256Z</time></trkpt><trkpt lat="44.7922811" lon="9.5017201"><ele>492.00000000000006</ele><time>2026-04-18T11:51:29.257Z</time></trkpt><trkpt lat="44.7922829" lon="9.501856"><ele>492.0</ele><time>2026-04-18T11:51:30.256Z</time></trkpt><trkpt lat="44.7922941" lon="9.5019896"><ele>492.0</ele><time>2026-04-18T11:51:31.257Z</time></trkpt><trkpt lat="44.7923208" lon="9.5021119"><ele>489.0</ele><time>2026-04-18T11:51:32.256Z</time></trkpt><trkpt lat="44.7923594" lon="9.5022385"><ele>486.0</ele><time>2026-04-18T11:51:33.256Z</time></trkpt><trkpt lat="44.7924116" lon="9.5023765"><ele>483.0</ele><time>2026-04-18T11:51:34.256Z</time></trkpt><trkpt lat="44.7924753" lon="9.5025249"><ele>480.0</ele><time>2026-04-18T11:51:35.255Z</time></trkpt><trkpt lat="44.7925389" lon="9.5026727"><ele>480.0</ele><time>2026-04-18T11:51:36.255Z</time></trkpt><trkpt lat="44.7926069" lon="9.5028211"><ele>480.0</ele><time>2026-04-18T11:51:37.255Z</time></trkpt><trkpt lat="44.7926907" lon="9.5029736"><ele>480.0</ele><time>2026-04-18T11:51:38.255Z</time></trkpt><trkpt lat="44.7927651" lon="9.5031127"><ele>480.0</ele><time>2026-04-18T11:51:39.255Z</time></trkpt><trkpt lat="44.792824" lon="9.5032524"><ele>481.75</ele><time>2026-04-18T11:51:40.255Z</time></trkpt><trkpt lat="44.7928762" lon="9.503407"><ele>483.5</ele><time>2026-04-18T11:51:41.256Z</time></trkpt><trkpt lat="44.7929252" lon="9.5035485"><ele>485.25</ele><time>2026-04-18T11:51:42.255Z</time></trkpt><trkpt lat="44.7929725" lon="9.5036963"><ele>487.0</ele><time>2026-04-18T11:51:43.255Z</time></trkpt><trkpt lat="44.7930221" lon="9.5038332"><ele>484.1666666666667</ele><time>2026-04-18T11:51:44.255Z</time></trkpt><trkpt lat="44.7930679" lon="9.5039603"><ele>481.33333333333337</ele><time>2026-04-18T11:51:45.256Z</time></trkpt><trkpt lat="44.7931048" lon="9.5040542"><ele>478.5</ele><time>2026-04-18T11:51:46.255Z</time></trkpt><trkpt lat="44.7931635" lon="9.5041178"><ele>475.66666666666663</ele><time>2026-04-18T11:51:47.256Z</time></trkpt><trkpt lat="44.7932332" lon="9.5041652"><ele>472.8333333333333</ele><time>2026-04-18T11:51:48.255Z</time></trkpt><trkpt lat="44.7933102" lon="9.5042153"><ele>470.0</ele><time>2026-04-18T11:51:49.255Z</time></trkpt><trkpt lat="44.793373" lon="9.5042843"><ele>470.0</ele><time>2026-04-18T11:51:50.255Z</time></trkpt><trkpt lat="44.7934213" lon="9.5043838"><ele>470.0</ele><time>2026-04-18T11:51:51.255Z</time></trkpt><trkpt lat="44.7934619" lon="9.5044896"><ele>470.0</ele><time>2026-04-18T11:51:52.255Z</time></trkpt><trkpt lat="44.7935096" lon="9.5046071"><ele>470.0</ele><time>2026-04-18T11:51:53.256Z</time></trkpt><trkpt lat="44.7935873" lon="9.5047351"><ele>470.0</ele><time>2026-04-18T11:51:54.254Z</time></trkpt><trkpt lat="44.7936527" lon="9.504861"><ele>467.0</ele><time>2026-04-18T11:51:55.255Z</time></trkpt><trkpt lat="44.7937133" lon="9.5050185"><ele>464.0</ele><time>2026-04-18T11:51:56.255Z</time></trkpt><trkpt lat="44.7937676" lon="9.5051874"><ele>461.0</ele><time>2026-04-18T11:51:57.254Z</time></trkpt><trkpt lat="44.7938076" lon="9.5053467"><ele>458.0</ele><time>2026-04-18T11:51:58.254Z</time></trkpt><trkpt lat="44.7938342" lon="9.5054837"><ele>456.4</ele><time>2026-04-18T11:51:59.254Z</time></trkpt><trkpt lat="44.7938492" lon="9.5056229"><ele>454.79999999999995</ele><time>2026-04-18T11:52:00.255Z</time></trkpt><trkpt lat="44.7938517" lon="9.5057635"><ele>453.2</ele><time>2026-04-18T11:52:01.254Z</time></trkpt><trkpt lat="44.7938489" lon="9.5059165"><ele>451.6</ele><time>2026-04-18T11:52:02.254Z</time></trkpt><trkpt lat="44.7938418" lon="9.506077"><ele>450.0</ele><time>2026-04-18T11:52:03.255Z</time></trkpt><trkpt lat="44.7938339" lon="9.5062451"><ele>447.6</ele><time>2026-04-18T11:52:04.255Z</time></trkpt><trkpt lat="44.793807" lon="9.5064129"><ele>445.2</ele><time>2026-04-18T11:52:05.256Z</time></trkpt><trkpt lat="44.7937774" lon="9.5065744"><ele>442.79999999999995</ele><time>2026-04-18T11:52:06.256Z</time></trkpt><trkpt lat="44.7937636" lon="9.5067139"><ele>440.4</ele><time>2026-04-18T11:52:07.255Z</time></trkpt><trkpt lat="44.7937579" lon="9.5068387"><ele>438.0</ele><time>2026-04-18T11:52:08.254Z</time></trkpt><trkpt lat="44.7937554" lon="9.5069441"><ele>438.0</ele><time>2026-04-18T11:52:09.254Z</time></trkpt><trkpt lat="44.7937487" lon="9.507033"><ele>438.0</ele><time>2026-04-18T11:52:10.255Z</time></trkpt><trkpt lat="44.7937337" lon="9.5071466"><ele>438.0</ele><time>2026-04-18T11:52:13.255Z</time></trkpt><trkpt lat="44.7938186" lon="9.5071527"><ele>438.0</ele><time>2026-04-18T11:52:19.255Z</time></trkpt><trkpt lat="44.7938761" lon="9.507105"><ele>438.0</ele><time>2026-04-18T11:52:22.255Z</time></trkpt><trkpt lat="44.7939369" lon="9.507074"><ele>438.0</ele><time>2026-04-18T11:52:36.254Z</time></trkpt><trkpt lat="44.793999" lon="9.5070534"><ele>438.0</ele><time>2026-04-18T11:53:04.255Z</time></trkpt><trkpt lat="44.7938928" lon="9.5070757"><ele>435.0</ele><time>2026-04-18T11:53:22.254Z</time></trkpt><trkpt lat="44.7938091" lon="9.5071498"><ele>431.99999999999994</ele><time>2026-04-18T11:53:24.254Z</time></trkpt><trkpt lat="44.7937433" lon="9.5072133"><ele>429.0</ele><time>2026-04-18T11:53:26.256Z</time></trkpt><trkpt lat="44.7936725" lon="9.5072838"><ele>426.0</ele><time>2026-04-18T11:53:36.254Z</time></trkpt><trkpt lat="44.793608" lon="9.5073915"><ele>423.0</ele><time>2026-04-18T11:53:38.255Z</time></trkpt><trkpt lat="44.7935763" lon="9.5075456"><ele>423.0</ele><time>2026-04-18T11:53:40.254Z</time></trkpt><trkpt lat="44.7935732" lon="9.5076362"><ele>423.0</ele><time>2026-04-18T11:53:41.255Z</time></trkpt><trkpt lat="44.7935726" lon="9.5077253"><ele>423.0</ele><time>2026-04-18T11:53:42.256Z</time></trkpt><trkpt lat="44.7935749" lon="9.5078616"><ele>423.0</ele><time>2026-04-18T11:53:44.255Z</time></trkpt><trkpt lat="44.7935666" lon="9.5079924"><ele>423.0</ele><time>2026-04-18T11:53:46.254Z</time></trkpt><trkpt lat="44.7935071" lon="9.5081245"><ele>423.0</ele><time>2026-04-18T11:53:48.256Z</time></trkpt><trkpt lat="44.7933956" lon="9.5082022"><ele>423.57142857142856</ele><time>2026-04-18T11:53:50.254Z</time></trkpt><trkpt lat="44.7933348" lon="9.5082624"><ele>424.14285714285717</ele><time>2026-04-18T11:53:51.254Z</time></trkpt><trkpt lat="44.7932809" lon="9.5083336"><ele>424.7142857142857</ele><time>2026-04-18T11:53:52.254Z</time></trkpt><trkpt lat="44.7932352" lon="9.5084118"><ele>425.2857142857143</ele><time>2026-04-18T11:53:53.255Z</time></trkpt><trkpt lat="44.7932001" lon="9.5084957"><ele>425.8571428571429</ele><time>2026-04-18T11:53:54.255Z</time></trkpt><trkpt lat="44.7931755" lon="9.5085832"><ele>426.42857142857144</ele><time>2026-04-18T11:53:55.255Z</time></trkpt><trkpt lat="44.7931508" lon="9.5086754"><ele>427.0</ele><time>2026-04-18T11:53:56.254Z</time></trkpt><trkpt lat="44.7931284" lon="9.508766"><ele>425.50000000000006</ele><time>2026-04-18T11:53:57.254Z</time></trkpt><trkpt lat="44.7931159" lon="9.5088681"><ele>424.0</ele><time>2026-04-18T11:53:58.254Z</time></trkpt><trkpt lat="44.7931244" lon="9.5089774"><ele>422.5</ele><time>2026-04-18T11:53:59.255Z</time></trkpt><trkpt lat="44.7931543" lon="9.5090743"><ele>421.0</ele><time>2026-04-18T11:54:00.255Z</time></trkpt><trkpt lat="44.7931919" lon="9.5091758"><ele>419.50000000000006</ele><time>2026-04-18T11:54:01.255Z</time></trkpt><trkpt lat="44.7932282" lon="9.5092806"><ele>418.0</ele><time>2026-04-18T11:54:02.254Z</time></trkpt><trkpt lat="44.7932607" lon="9.5093859"><ele>418.00000000000006</ele><time>2026-04-18T11:54:03.254Z</time></trkpt><trkpt lat="44.7932888" lon="9.5094933"><ele>418.0</ele><time>2026-04-18T11:54:04.254Z</time></trkpt><trkpt lat="44.7933158" lon="9.5095971"><ele>418.0</ele><time>2026-04-18T11:54:05.254Z</time></trkpt><trkpt lat="44.7933431" lon="9.509685"><ele>418.0</ele><time>2026-04-18T11:54:06.255Z</time></trkpt><trkpt lat="44.7933788" lon="9.5097651"><ele>418.00000000000006</ele><time>2026-04-18T11:54:07.254Z</time></trkpt><trkpt lat="44.7934319" lon="9.5098436"><ele>418.0</ele><time>2026-04-18T11:54:08.255Z</time></trkpt><trkpt lat="44.7934988" lon="9.5099083"><ele>414.4</ele><time>2026-04-18T11:54:09.256Z</time></trkpt><trkpt lat="44.793575" lon="9.5099566"><ele>410.79999999999995</ele><time>2026-04-18T11:54:10.255Z</time></trkpt><trkpt lat="44.7936543" lon="9.5099959"><ele>407.2</ele><time>2026-04-18T11:54:11.256Z</time></trkpt><trkpt lat="44.793724" lon="9.5100222"><ele>403.6</ele><time>2026-04-18T11:54:12.254Z</time></trkpt><trkpt lat="44.7938339" lon="9.5099991"><ele>400.0</ele><time>2026-04-18T11:54:14.256Z</time></trkpt><trkpt lat="44.793912" lon="9.5098711"><ele>400.0</ele><time>2026-04-18T11:54:16.255Z</time></trkpt><trkpt lat="44.793959" lon="9.5097327"><ele>400.0</ele><time>2026-04-18T11:54:18.254Z</time></trkpt><trkpt lat="44.7940038" lon="9.5095847"><ele>400.0</ele><time>2026-04-18T11:54:20.256Z</time></trkpt><trkpt lat="44.7940564" lon="9.5094473"><ele>400.0</ele><time>2026-04-18T11:54:22.254Z</time></trkpt><trkpt lat="44.7940935" lon="9.5093578"><ele>400.0</ele><time>2026-04-18T11:54:24.255Z</time></trkpt><trkpt lat="44.7941185" lon="9.509273"><ele>400.0</ele><time>2026-04-18T11:55:12.255Z</time></trkpt><trkpt lat="44.7941674" lon="9.5090934"><ele>400.0</ele><time>2026-04-18T11:55:14.255Z</time></trkpt><trkpt lat="44.7942083" lon="9.5089777"><ele>400.0</ele><time>2026-04-18T11:55:15.256Z</time></trkpt><trkpt lat="44.7942577" lon="9.5088535"><ele>400.0</ele><time>2026-04-18T11:55:16.256Z</time></trkpt><trkpt lat="44.7943161" lon="9.508728"><ele>400.0</ele><time>2026-04-18T11:55:17.256Z</time></trkpt><trkpt lat="44.7943919" lon="9.508599"><ele>400.0</ele><time>2026-04-18T11:55:18.255Z</time></trkpt><trkpt lat="44.7944706" lon="9.5084924"><ele>400.0</ele><time>2026-04-18T11:55:19.255Z</time></trkpt><trkpt lat="44.7945493" lon="9.5083977"><ele>400.0</ele><time>2026-04-18T11:55:20.256Z</time></trkpt><trkpt lat="44.7946282" lon="9.5083198"><ele>400.0</ele><time>2026-04-18T11:55:21.256Z</time></trkpt><trkpt lat="44.7947079" lon="9.5082564"><ele>400.0</ele><time>2026-04-18T11:55:22.255Z</time></trkpt><trkpt lat="44.7947881" lon="9.5082002"><ele>400.0</ele><time>2026-04-18T11:55:23.256Z</time></trkpt><trkpt lat="44.7948643" lon="9.5081512"><ele>400.0</ele><time>2026-04-18T11:55:24.255Z</time></trkpt><trkpt lat="44.7949261" lon="9.5081069"><ele>400.0</ele><time>2026-04-18T11:55:25.255Z</time></trkpt><trkpt lat="44.7950393" lon="9.5081056"><ele>400.0</ele><time>2026-04-18T11:55:27.254Z</time></trkpt><trkpt lat="44.7951243" lon="9.5082361"><ele>400.0</ele><time>2026-04-18T11:55:29.255Z</time></trkpt><trkpt lat="44.7951843" lon="9.5083363"><ele>400.6</ele><time>2026-04-18T11:55:30.255Z</time></trkpt><trkpt lat="44.7952577" lon="9.5084128"><ele>401.2</ele><time>2026-04-18T11:55:31.254Z</time></trkpt><trkpt lat="44.7953396" lon="9.508487"><ele>401.79999999999995</ele><time>2026-04-18T11:55:32.254Z</time></trkpt><trkpt lat="44.7954276" lon="9.5085633"><ele>402.4</ele><time>2026-04-18T11:55:33.255Z</time></trkpt><trkpt lat="44.7955108" lon="9.508636"><ele>403.0</ele><time>2026-04-18T11:55:34.255Z</time></trkpt><trkpt lat="44.7955917" lon="9.5087108"><ele>400.4</ele><time>2026-04-18T11:55:35.255Z</time></trkpt><trkpt lat="44.7956752" lon="9.5087876"><ele>397.79999999999995</ele><time>2026-04-18T11:55:36.255Z</time></trkpt><trkpt lat="44.7957546" lon="9.5088632"><ele>395.2</ele><time>2026-04-18T11:55:37.255Z</time></trkpt><trkpt lat="44.7958282" lon="9.5089343"><ele>392.6</ele><time>2026-04-18T11:55:38.255Z</time></trkpt><trkpt lat="44.7959041" lon="9.5090015"><ele>390.0</ele><time>2026-04-18T11:55:39.255Z</time></trkpt><trkpt lat="44.7959846" lon="9.5090573"><ele>390.0</ele><time>2026-04-18T11:55:40.254Z</time></trkpt><trkpt lat="44.7960684" lon="9.5091071"><ele>390.0</ele><time>2026-04-18T11:55:41.254Z</time></trkpt><trkpt lat="44.7961519" lon="9.5091525"><ele>390.0</ele><time>2026-04-18T11:55:42.254Z</time></trkpt><trkpt lat="44.7962352" lon="9.5091989"><ele>390.0</ele><time>2026-04-18T11:55:43.254Z</time></trkpt><trkpt lat="44.7963156" lon="9.509253"><ele>390.0</ele><time>2026-04-18T11:55:44.254Z</time></trkpt><trkpt lat="44.796382" lon="9.5093322"><ele>390.0</ele><time>2026-04-18T11:55:45.255Z</time></trkpt><trkpt lat="44.7964313" lon="9.509441"><ele>387.8</ele><time>2026-04-18T11:55:46.255Z</time></trkpt><trkpt lat="44.7964662" lon="9.5095767"><ele>385.6</ele><time>2026-04-18T11:55:47.255Z</time></trkpt><trkpt lat="44.7964924" lon="9.5097138"><ele>383.4</ele><time>2026-04-18T11:55:48.255Z</time></trkpt><trkpt lat="44.7965217" lon="9.5098486"><ele>381.2</ele><time>2026-04-18T11:55:49.254Z</time></trkpt><trkpt lat="44.7965501" lon="9.5099748"><ele>379.0</ele><time>2026-04-18T11:55:50.254Z</time></trkpt><trkpt lat="44.7965757" lon="9.5101019"><ele>379.0</ele><time>2026-04-18T11:55:51.255Z</time></trkpt><trkpt lat="44.7965963" lon="9.5102446"><ele>379.0</ele><time>2026-04-18T11:55:52.255Z</time></trkpt><trkpt lat="44.7966097" lon="9.5103983"><ele>379.0</ele><time>2026-04-18T11:55:53.256Z</time></trkpt><trkpt lat="44.7966182" lon="9.5105578"><ele>379.0</ele><time>2026-04-18T11:55:54.254Z</time></trkpt><trkpt lat="44.7966213" lon="9.5107205"><ele>379.0</ele><time>2026-04-18T11:55:55.254Z</time></trkpt><trkpt lat="44.7966174" lon="9.5108783"><ele>377.16666666666663</ele><time>2026-04-18T11:55:56.255Z</time></trkpt><trkpt lat="44.7965984" lon="9.5110195"><ele>375.3333333333333</ele><time>2026-04-18T11:55:57.256Z</time></trkpt><trkpt lat="44.7965626" lon="9.511151"><ele>373.5</ele><time>2026-04-18T11:55:58.255Z</time></trkpt><trkpt lat="44.7965365" lon="9.5112753"><ele>371.6666666666667</ele><time>2026-04-18T11:55:59.254Z</time></trkpt><trkpt lat="44.7965375" lon="9.5113813"><ele>369.83333333333337</ele><time>2026-04-18T11:56:00.256Z</time></trkpt><trkpt lat="44.7965693" lon="9.5114812"><ele>368.0</ele><time>2026-04-18T11:56:01.255Z</time></trkpt><trkpt lat="44.796628" lon="9.5115568"><ele>365.59999999999997</ele><time>2026-04-18T11:56:02.255Z</time></trkpt><trkpt lat="44.7967097" lon="9.5115962"><ele>363.2</ele><time>2026-04-18T11:56:03.255Z</time></trkpt><trkpt lat="44.7968041" lon="9.5115811"><ele>360.8</ele><time>2026-04-18T11:56:04.255Z</time></trkpt><trkpt lat="44.7969044" lon="9.5115215"><ele>358.4</ele><time>2026-04-18T11:56:05.256Z</time></trkpt><trkpt lat="44.7970013" lon="9.51144"><ele>356.0</ele><time>2026-04-18T11:56:06.255Z</time></trkpt><trkpt lat="44.7970992" lon="9.5113515"><ele>356.75</ele><time>2026-04-18T11:56:07.255Z</time></trkpt><trkpt lat="44.7971949" lon="9.5112629"><ele>357.5</ele><time>2026-04-18T11:56:08.256Z</time></trkpt><trkpt lat="44.7972942" lon="9.5111717"><ele>358.25</ele><time>2026-04-18T11:56:09.255Z</time></trkpt><trkpt lat="44.7974003" lon="9.5110847"><ele>359.0</ele><time>2026-04-18T11:56:10.256Z</time></trkpt><trkpt lat="44.7975109" lon="9.5110184"><ele>359.0</ele><time>2026-04-18T11:56:11.255Z</time></trkpt><trkpt lat="44.7976249" lon="9.5109788"><ele>359.0</ele><time>2026-04-18T11:56:12.254Z</time></trkpt><trkpt lat="44.7977446" lon="9.5109276"><ele>359.0</ele><time>2026-04-18T11:56:13.255Z</time></trkpt><trkpt lat="44.7978549" lon="9.5108602"><ele>359.0</ele><time>2026-04-18T11:56:14.255Z</time></trkpt><trkpt lat="44.7979606" lon="9.5107907"><ele>355.25</ele><time>2026-04-18T11:56:15.254Z</time></trkpt><trkpt lat="44.7980636" lon="9.5107225"><ele>351.5</ele><time>2026-04-18T11:56:16.255Z</time></trkpt><trkpt lat="44.7981693" lon="9.5106541"><ele>347.75</ele><time>2026-04-18T11:56:17.255Z</time></trkpt><trkpt lat="44.7982773" lon="9.5105797"><ele>344.0</ele><time>2026-04-18T11:56:18.254Z</time></trkpt><trkpt lat="44.7983775" lon="9.5105033"><ele>344.0</ele><time>2026-04-18T11:56:19.255Z</time></trkpt><trkpt lat="44.7984743" lon="9.5104274"><ele>344.0</ele><time>2026-04-18T11:56:20.254Z</time></trkpt><trkpt lat="44.7985673" lon="9.5103492"><ele>344.0</ele><time>2026-04-18T11:56:21.254Z</time></trkpt><trkpt lat="44.798652" lon="9.5102693"><ele>344.0</ele><time>2026-04-18T11:56:22.254Z</time></trkpt><trkpt lat="44.7987239" lon="9.5101759"><ele>344.0</ele><time>2026-04-18T11:56:23.255Z</time></trkpt><trkpt lat="44.7987849" lon="9.5100699"><ele>342.79999999999995</ele><time>2026-04-18T11:56:24.255Z</time></trkpt><trkpt lat="44.7988173" lon="9.5099089"><ele>341.59999999999997</ele><time>2026-04-18T11:56:25.255Z</time></trkpt><trkpt lat="44.7988711" lon="9.5097472"><ele>340.4</ele><time>2026-04-18T11:56:26.255Z</time></trkpt><trkpt lat="44.798937" lon="9.5096245"><ele>339.2</ele><time>2026-04-18T11:56:27.255Z</time></trkpt><trkpt lat="44.7989833" lon="9.50954"><ele>338.0</ele><time>2026-04-18T11:56:28.255Z</time></trkpt><trkpt lat="44.7990728" lon="9.5095019"><ele>336.75</ele><time>2026-04-18T11:56:30.255Z</time></trkpt><trkpt lat="44.7991312" lon="9.5096786"><ele>335.5</ele><time>2026-04-18T11:56:32.255Z</time></trkpt><trkpt lat="44.7991541" lon="9.5098298"><ele>334.25</ele><time>2026-04-18T11:56:33.255Z</time></trkpt><trkpt lat="44.7991645" lon="9.5099892"><ele>333.0</ele><time>2026-04-18T11:56:34.255Z</time></trkpt><trkpt lat="44.7991719" lon="9.5101467"><ele>333.0</ele><time>2026-04-18T11:56:35.256Z</time></trkpt><trkpt lat="44.7991762" lon="9.5102988"><ele>333.0</ele><time>2026-04-18T11:56:36.256Z</time></trkpt><trkpt lat="44.7991784" lon="9.5104421"><ele>333.0</ele><time>2026-04-18T11:56:37.255Z</time></trkpt><trkpt lat="44.79917" lon="9.5105787"><ele>333.0</ele><time>2026-04-18T11:56:38.255Z</time></trkpt><trkpt lat="44.7991374" lon="9.5107162"><ele>333.0</ele><time>2026-04-18T11:56:39.256Z</time></trkpt><trkpt lat="44.7990897" lon="9.5108454"><ele>331.4</ele><time>2026-04-18T11:56:40.255Z</time></trkpt><trkpt lat="44.7990441" lon="9.5109693"><ele>329.79999999999995</ele><time>2026-04-18T11:56:41.255Z</time></trkpt><trkpt lat="44.7989889" lon="9.5110884"><ele>328.2</ele><time>2026-04-18T11:56:42.255Z</time></trkpt><trkpt lat="44.798939" lon="9.5112058"><ele>326.6</ele><time>2026-04-18T11:56:43.255Z</time></trkpt><trkpt lat="44.7988732" lon="9.5113111"><ele>325.0</ele><time>2026-04-18T11:56:44.256Z</time></trkpt><trkpt lat="44.798817" lon="9.5114247"><ele>322.66666666666663</ele><time>2026-04-18T11:56:45.255Z</time></trkpt><trkpt lat="44.7987605" lon="9.5115314"><ele>320.3333333333333</ele><time>2026-04-18T11:56:46.254Z</time></trkpt><trkpt lat="44.7987068" lon="9.5116377"><ele>318.0</ele><time>2026-04-18T11:56:47.256Z</time></trkpt><trkpt lat="44.7986547" lon="9.5117421"><ele>315.6666666666667</ele><time>2026-04-18T11:56:48.255Z</time></trkpt><trkpt lat="44.7986051" lon="9.511835"><ele>313.33333333333337</ele><time>2026-04-18T11:56:49.255Z</time></trkpt><trkpt lat="44.7985685" lon="9.5119224"><ele>311.0</ele><time>2026-04-18T11:56:50.255Z</time></trkpt><trkpt lat="44.7985617" lon="9.5120593"><ele>311.0</ele><time>2026-04-18T11:56:52.255Z</time></trkpt><trkpt lat="44.7986293" lon="9.5120963"><ele>311.0</ele><time>2026-04-18T11:56:56.255Z</time></trkpt><trkpt lat="44.798664" lon="9.5120174"><ele>311.0</ele><time>2026-04-18T11:57:23.253Z</time></trkpt><trkpt lat="44.7987075" lon="9.5118875"><ele>311.0</ele><time>2026-04-18T11:57:26.254Z</time></trkpt><trkpt lat="44.7987996" lon="9.5117343"><ele>311.0</ele><time>2026-04-18T11:57:28.254Z</time></trkpt><trkpt lat="44.7988591" lon="9.5116586"><ele>311.0</ele><time>2026-04-18T11:57:29.254Z</time></trkpt><trkpt lat="44.7989298" lon="9.5115822"><ele>311.0</ele><time>2026-04-18T11:57:30.255Z</time></trkpt><trkpt lat="44.7989963" lon="9.5115044"><ele>311.0</ele><time>2026-04-18T11:57:31.254Z</time></trkpt><trkpt lat="44.7990703" lon="9.5114389"><ele>311.0</ele><time>2026-04-18T11:57:32.254Z</time></trkpt><trkpt lat="44.7991651" lon="9.5114016"><ele>311.0</ele><time>2026-04-18T11:57:33.255Z</time></trkpt><trkpt lat="44.7992545" lon="9.5113613"><ele>309.2</ele><time>2026-04-18T11:57:34.255Z</time></trkpt><trkpt lat="44.799343" lon="9.511318"><ele>307.40000000000003</ele><time>2026-04-18T11:57:35.254Z</time></trkpt><trkpt lat="44.7994358" lon="9.5112509"><ele>305.6</ele><time>2026-04-18T11:57:36.254Z</time></trkpt><trkpt lat="44.7995302" lon="9.5112267"><ele>303.8</ele><time>2026-04-18T11:57:37.255Z</time></trkpt><trkpt lat="44.7996128" lon="9.5112083"><ele>302.0</ele><time>2026-04-18T11:57:38.255Z</time></trkpt><trkpt lat="44.7996996" lon="9.5111798"><ele>302.0</ele><time>2026-04-18T11:57:39.254Z</time></trkpt><trkpt lat="44.799772" lon="9.5111293"><ele>302.0</ele><time>2026-04-18T11:57:40.254Z</time></trkpt><trkpt lat="44.7997951" lon="9.5110074"><ele>302.0</ele><time>2026-04-18T11:57:41.255Z</time></trkpt><trkpt lat="44.7997706" lon="9.5108806"><ele>302.0</ele><time>2026-04-18T11:57:42.254Z</time></trkpt><trkpt lat="44.7997988" lon="9.5107604"><ele>302.0</ele><time>2026-04-18T11:57:43.255Z</time></trkpt><trkpt lat="44.7998248" lon="9.5106317"><ele>302.0</ele><time>2026-04-18T11:57:44.254Z</time></trkpt><trkpt lat="44.7998637" lon="9.510505"><ele>302.83333333333337</ele><time>2026-04-18T11:57:45.254Z</time></trkpt><trkpt lat="44.7999143" lon="9.5103925"><ele>303.6666666666667</ele><time>2026-04-18T11:57:46.253Z</time></trkpt><trkpt lat="44.7999664" lon="9.5102886"><ele>304.5</ele><time>2026-04-18T11:57:47.254Z</time></trkpt><trkpt lat="44.8000043" lon="9.5101849"><ele>305.3333333333333</ele><time>2026-04-18T11:57:48.253Z</time></trkpt><trkpt lat="44.8000293" lon="9.5100782"><ele>306.16666666666663</ele><time>2026-04-18T11:57:49.253Z</time></trkpt><trkpt lat="44.800071" lon="9.5099781"><ele>307.0</ele><time>2026-04-18T11:57:50.253Z</time></trkpt><trkpt lat="44.8001266" lon="9.5098838"><ele>303.8</ele><time>2026-04-18T11:57:51.253Z</time></trkpt><trkpt lat="44.8001957" lon="9.5098185"><ele>300.6</ele><time>2026-04-18T11:57:52.255Z</time></trkpt><trkpt lat="44.8002815" lon="9.5097752"><ele>297.40000000000003</ele><time>2026-04-18T11:57:53.253Z</time></trkpt><trkpt lat="44.8003773" lon="9.5097589"><ele>294.2</ele><time>2026-04-18T11:57:54.254Z</time></trkpt><trkpt lat="44.8004723" lon="9.5097661"><ele>291.0</ele><time>2026-04-18T11:57:55.253Z</time></trkpt><trkpt lat="44.800572" lon="9.5097767"><ele>291.0</ele><time>2026-04-18T11:57:56.253Z</time></trkpt><trkpt lat="44.8006744" lon="9.5097684"><ele>291.0</ele><time>2026-04-18T11:57:57.253Z</time></trkpt><trkpt lat="44.8007662" lon="9.5097298"><ele>291.0</ele><time>2026-04-18T11:57:58.254Z</time></trkpt><trkpt lat="44.80084" lon="9.5096589"><ele>291.0</ele><time>2026-04-18T11:57:59.253Z</time></trkpt><trkpt lat="44.8008915" lon="9.5095595"><ele>291.0</ele><time>2026-04-18T11:58:00.253Z</time></trkpt><trkpt lat="44.800936" lon="9.509421"><ele>289.8</ele><time>2026-04-18T11:58:01.255Z</time></trkpt><trkpt lat="44.8009732" lon="9.509282"><ele>288.6</ele><time>2026-04-18T11:58:02.254Z</time></trkpt><trkpt lat="44.8010245" lon="9.5091471"><ele>287.4</ele><time>2026-04-18T11:58:03.254Z</time></trkpt><trkpt lat="44.8010688" lon="9.5090118"><ele>286.2</ele><time>2026-04-18T11:58:04.255Z</time></trkpt><trkpt lat="44.8011311" lon="9.5089033"><ele>285.0</ele><time>2026-04-18T11:58:05.254Z</time></trkpt><trkpt lat="44.8011865" lon="9.5088383"><ele>285.0</ele><time>2026-04-18T11:58:06.254Z</time></trkpt><trkpt lat="44.8012391" lon="9.5087725"><ele>285.0</ele><time>2026-04-18T11:58:07.254Z</time></trkpt><trkpt lat="44.8013089" lon="9.5087939"><ele>285.0</ele><time>2026-04-18T11:58:08.254Z</time></trkpt><trkpt lat="44.8013107" lon="9.5089024"><ele>285.0</ele><time>2026-04-18T11:58:09.254Z</time></trkpt><trkpt lat="44.8013781" lon="9.5090382"><ele>285.0</ele><time>2026-04-18T11:58:11.254Z</time></trkpt><trkpt lat="44.801443" lon="9.509079"><ele>285.0</ele><time>2026-04-18T11:58:12.253Z</time></trkpt><trkpt lat="44.8015267" lon="9.5090832"><ele>285.0</ele><time>2026-04-18T11:58:13.254Z</time></trkpt><trkpt lat="44.8016187" lon="9.5090731"><ele>285.0</ele><time>2026-04-18T11:58:14.254Z</time></trkpt><trkpt lat="44.8017107" lon="9.5090301"><ele>285.0</ele><time>2026-04-18T11:58:15.254Z</time></trkpt><trkpt lat="44.801802" lon="9.5089846"><ele>285.0</ele><time>2026-04-18T11:58:16.254Z</time></trkpt><trkpt lat="44.8018947" lon="9.5089198"><ele>285.0</ele><time>2026-04-18T11:58:17.255Z</time></trkpt><trkpt lat="44.8019874" lon="9.5088421"><ele>285.4</ele><time>2026-04-18T11:58:18.254Z</time></trkpt><trkpt lat="44.8020615" lon="9.5087594"><ele>285.8</ele><time>2026-04-18T11:58:19.253Z</time></trkpt><trkpt lat="44.8021347" lon="9.5086758"><ele>286.2</ele><time>2026-04-18T11:58:20.254Z</time></trkpt><trkpt lat="44.8022245" lon="9.5086144"><ele>286.6</ele><time>2026-04-18T11:58:21.254Z</time></trkpt><trkpt lat="44.8023166" lon="9.5085524"><ele>287.0</ele><time>2026-04-18T11:58:22.254Z</time></trkpt><trkpt lat="44.8024373" lon="9.5085337"><ele>287.0</ele><time>2026-04-18T11:58:23.255Z</time></trkpt><trkpt lat="44.8025435" lon="9.5085024"><ele>287.0</ele><time>2026-04-18T11:58:24.254Z</time></trkpt><trkpt lat="44.8026738" lon="9.5084977"><ele>287.0</ele><time>2026-04-18T11:58:25.254Z</time></trkpt><trkpt lat="44.8027548" lon="9.5085671"><ele>287.0</ele><time>2026-04-18T11:58:26.253Z</time></trkpt><trkpt lat="44.8028565" lon="9.5085634"><ele>287.0</ele><time>2026-04-18T11:58:27.253Z</time></trkpt><trkpt lat="44.8029511" lon="9.5085465"><ele>283.8</ele><time>2026-04-18T11:58:28.254Z</time></trkpt><trkpt lat="44.8030352" lon="9.5084988"><ele>280.6</ele><time>2026-04-18T11:58:29.255Z</time></trkpt><trkpt lat="44.803118" lon="9.5084271"><ele>277.40000000000003</ele><time>2026-04-18T11:58:30.254Z</time></trkpt><trkpt lat="44.8031824" lon="9.5083078"><ele>274.2</ele><time>2026-04-18T11:58:31.254Z</time></trkpt><trkpt lat="44.8032713" lon="9.50821"><ele>271.0</ele><time>2026-04-18T11:58:32.254Z</time></trkpt><trkpt lat="44.803353" lon="9.5081421"><ele>271.0</ele><time>2026-04-18T11:58:33.255Z</time></trkpt><trkpt lat="44.8034291" lon="9.5080928"><ele>271.0</ele><time>2026-04-18T11:58:34.253Z</time></trkpt><trkpt lat="44.8035118" lon="9.5080457"><ele>271.0</ele><time>2026-04-18T11:58:35.253Z</time></trkpt><trkpt lat="44.8035418" lon="9.5081329"><ele>271.0</ele><time>2026-04-18T11:58:36.254Z</time></trkpt><trkpt lat="44.8036111" lon="9.5082428"><ele>271.0</ele><time>2026-04-18T11:58:38.254Z</time></trkpt><trkpt lat="44.8036473" lon="9.5083206"><ele>271.0</ele><time>2026-04-18T11:58:40.254Z</time></trkpt><trkpt lat="44.8037421" lon="9.5083897"><ele>269.2</ele><time>2026-04-18T11:58:43.254Z</time></trkpt><trkpt lat="44.8038335" lon="9.5083951"><ele>267.40000000000003</ele><time>2026-04-18T11:58:45.255Z</time></trkpt><trkpt lat="44.8039085" lon="9.508389"><ele>265.6</ele><time>2026-04-18T11:58:47.253Z</time></trkpt><trkpt lat="44.8040329" lon="9.508361"><ele>263.8</ele><time>2026-04-18T11:58:49.255Z</time></trkpt><trkpt lat="44.8041137" lon="9.5083449"><ele>262.0</ele><time>2026-04-18T11:58:50.254Z</time></trkpt><trkpt lat="44.8042099" lon="9.508327"><ele>262.0</ele><time>2026-04-18T11:58:51.254Z</time></trkpt><trkpt lat="44.8043219" lon="9.5083175"><ele>262.0</ele><time>2026-04-18T11:58:52.253Z</time></trkpt><trkpt lat="44.8044286" lon="9.5083566"><ele>262.0</ele><time>2026-04-18T11:58:53.253Z</time></trkpt><trkpt lat="44.8045314" lon="9.5084259"><ele>262.0</ele><time>2026-04-18T11:58:54.254Z</time></trkpt><trkpt lat="44.8046324" lon="9.5085041"><ele>263.25</ele><time>2026-04-18T11:58:55.254Z</time></trkpt><trkpt lat="44.8047369" lon="9.5085958"><ele>264.5</ele><time>2026-04-18T11:58:56.253Z</time></trkpt><trkpt lat="44.8048478" lon="9.5086846"><ele>265.75</ele><time>2026-04-18T11:58:57.254Z</time></trkpt><trkpt lat="44.8049572" lon="9.5087385"><ele>267.0</ele><time>2026-04-18T11:58:58.253Z</time></trkpt><trkpt lat="44.8050717" lon="9.5087558"><ele>268.0</ele><time>2026-04-18T11:58:59.253Z</time></trkpt><trkpt lat="44.8051847" lon="9.5087442"><ele>269.0</ele><time>2026-04-18T11:59:00.253Z</time></trkpt><trkpt lat="44.8053064" lon="9.5087201"><ele>270.0</ele><time>2026-04-18T11:59:01.253Z</time></trkpt><trkpt lat="44.8054319" lon="9.5087015"><ele>271.0</ele><time>2026-04-18T11:59:02.253Z</time></trkpt><trkpt lat="44.8055586" lon="9.5086986"><ele>271.0</ele><time>2026-04-18T11:59:03.253Z</time></trkpt><trkpt lat="44.8056816" lon="9.5087004"><ele>271.0</ele><time>2026-04-18T11:59:04.253Z</time></trkpt><trkpt lat="44.8058049" lon="9.5086931"><ele>271.0</ele><time>2026-04-18T11:59:05.254Z</time></trkpt><trkpt lat="44.8059325" lon="9.5086684"><ele>271.0</ele><time>2026-04-18T11:59:06.255Z</time></trkpt><trkpt lat="44.8060618" lon="9.5086186"><ele>270.0</ele><time>2026-04-18T11:59:07.254Z</time></trkpt><trkpt lat="44.8061913" lon="9.5085606"><ele>269.0</ele><time>2026-04-18T11:59:08.254Z</time></trkpt><trkpt lat="44.8063285" lon="9.5085112"><ele>268.0</ele><time>2026-04-18T11:59:09.254Z</time></trkpt><trkpt lat="44.8064612" lon="9.50848"><ele>267.0</ele><time>2026-04-18T11:59:10.254Z</time></trkpt><trkpt lat="44.8065941" lon="9.5084572"><ele>267.0</ele><time>2026-04-18T11:59:11.254Z</time></trkpt><trkpt lat="44.8067265" lon="9.5084357"><ele>267.0</ele><time>2026-04-18T11:59:12.254Z</time></trkpt><trkpt lat="44.8068532" lon="9.5084289"><ele>267.0</ele><time>2026-04-18T11:59:13.254Z</time></trkpt><trkpt lat="44.8069688" lon="9.5084554"><ele>267.0</ele><time>2026-04-18T11:59:14.254Z</time></trkpt><trkpt lat="44.8070848" lon="9.5085219"><ele>267.5</ele><time>2026-04-18T11:59:15.254Z</time></trkpt><trkpt lat="44.8072035" lon="9.5086042"><ele>268.0</ele><time>2026-04-18T11:59:16.254Z</time></trkpt><trkpt lat="44.8073293" lon="9.5086667"><ele>268.5</ele><time>2026-04-18T11:59:17.254Z</time></trkpt><trkpt lat="44.8074589" lon="9.5087015"><ele>269.0</ele><time>2026-04-18T11:59:18.254Z</time></trkpt><trkpt lat="44.807596" lon="9.50871"><ele>267.5</ele><time>2026-04-18T11:59:19.254Z</time></trkpt><trkpt lat="44.8077282" lon="9.5086735"><ele>266.0</ele><time>2026-04-18T11:59:20.254Z</time></trkpt><trkpt lat="44.8078478" lon="9.5085922"><ele>264.5</ele><time>2026-04-18T11:59:21.254Z</time></trkpt><trkpt lat="44.8079603" lon="9.5084877"><ele>263.0</ele><time>2026-04-18T11:59:22.254Z</time></trkpt><trkpt lat="44.8081004" lon="9.5084253"><ele>263.0</ele><time>2026-04-18T11:59:23.253Z</time></trkpt><trkpt lat="44.8082539" lon="9.5083965"><ele>263.0</ele><time>2026-04-18T11:59:24.253Z</time></trkpt><trkpt lat="44.8084238" lon="9.5083982"><ele>263.0</ele><time>2026-04-18T11:59:25.253Z</time></trkpt><trkpt lat="44.8085816" lon="9.5083586"><ele>261.0</ele><time>2026-04-18T11:59:26.253Z</time></trkpt><trkpt lat="44.8087204" lon="9.5083185"><ele>259.0</ele><time>2026-04-18T11:59:27.255Z</time></trkpt><trkpt lat="44.8088589" lon="9.5083532"><ele>257.0</ele><time>2026-04-18T11:59:28.254Z</time></trkpt><trkpt lat="44.8089932" lon="9.508415"><ele>255.0</ele><time>2026-04-18T11:59:29.255Z</time></trkpt><trkpt lat="44.8091233" lon="9.5084424"><ele>255.0</ele><time>2026-04-18T11:59:30.254Z</time></trkpt><trkpt lat="44.8092548" lon="9.5084357"><ele>255.0</ele><time>2026-04-18T11:59:31.255Z</time></trkpt><trkpt lat="44.8093885" lon="9.5084231"><ele>255.0</ele><time>2026-04-18T11:59:32.254Z</time></trkpt><trkpt lat="44.8095254" lon="9.5084031"><ele>255.0</ele><time>2026-04-18T11:59:33.254Z</time></trkpt><trkpt lat="44.8096682" lon="9.5083804"><ele>253.0</ele><time>2026-04-18T11:59:34.255Z</time></trkpt><trkpt lat="44.8098107" lon="9.5083527"><ele>251.0</ele><time>2026-04-18T11:59:35.255Z</time></trkpt><trkpt lat="44.8099537" lon="9.5083174"><ele>249.0</ele><time>2026-04-18T11:59:36.254Z</time></trkpt><trkpt lat="44.8100973" lon="9.5082663"><ele>247.0</ele><time>2026-04-18T11:59:37.254Z</time></trkpt><trkpt lat="44.8102357" lon="9.5082046"><ele>250.0</ele><time>2026-04-18T11:59:38.254Z</time></trkpt><trkpt lat="44.8103726" lon="9.5081426"><ele>253.0</ele><time>2026-04-18T11:59:39.254Z</time></trkpt><trkpt lat="44.8105139" lon="9.5080662"><ele>256.0</ele><time>2026-04-18T11:59:40.254Z</time></trkpt><trkpt lat="44.8106532" lon="9.507984"><ele>259.0</ele><time>2026-04-18T11:59:41.254Z</time></trkpt><trkpt lat="44.8107896" lon="9.507882"><ele>259.0</ele><time>2026-04-18T11:59:42.255Z</time></trkpt><trkpt lat="44.8109155" lon="9.5077633"><ele>259.0</ele><time>2026-04-18T11:59:43.254Z</time></trkpt><trkpt lat="44.8110376" lon="9.5076372"><ele>259.0</ele><time>2026-04-18T11:59:44.254Z</time></trkpt><trkpt lat="44.8111583" lon="9.5075163"><ele>260.5</ele><time>2026-04-18T11:59:45.255Z</time></trkpt><trkpt lat="44.8112771" lon="9.5073965"><ele>262.0</ele><time>2026-04-18T11:59:46.254Z</time></trkpt><trkpt lat="44.8113933" lon="9.50728"><ele>263.5</ele><time>2026-04-18T11:59:47.255Z</time></trkpt><trkpt lat="44.8115059" lon="9.5071719"><ele>265.0</ele><time>2026-04-18T11:59:48.255Z</time></trkpt><trkpt lat="44.8116212" lon="9.5070754"><ele>265.0</ele><time>2026-04-18T11:59:49.254Z</time></trkpt><trkpt lat="44.8117457" lon="9.5070021"><ele>265.0</ele><time>2026-04-18T11:59:50.254Z</time></trkpt><trkpt lat="44.8118882" lon="9.5069757"><ele>265.0</ele><time>2026-04-18T11:59:51.253Z</time></trkpt><trkpt lat="44.8120289" lon="9.5069944"><ele>265.0</ele><time>2026-04-18T11:59:52.253Z</time></trkpt><trkpt lat="44.8121625" lon="9.5070511"><ele>257.25</ele><time>2026-04-18T11:59:53.253Z</time></trkpt><trkpt lat="44.8122909" lon="9.5071114"><ele>249.5</ele><time>2026-04-18T11:59:54.254Z</time></trkpt><trkpt lat="44.8124233" lon="9.5071348"><ele>241.75</ele><time>2026-04-18T11:59:55.254Z</time></trkpt><trkpt lat="44.8125513" lon="9.5070973"><ele>234.0</ele><time>2026-04-18T11:59:56.253Z</time></trkpt><trkpt lat="44.8126764" lon="9.5070039"><ele>234.0</ele><time>2026-04-18T11:59:57.254Z</time></trkpt><trkpt lat="44.8128047" lon="9.5068909"><ele>234.0</ele><time>2026-04-18T11:59:58.254Z</time></trkpt><trkpt lat="44.8129371" lon="9.506794"><ele>234.0</ele><time>2026-04-18T11:59:59.253Z</time></trkpt><trkpt lat="44.813071" lon="9.5067181"><ele>234.0</ele><time>2026-04-18T12:00:00.254Z</time></trkpt><trkpt lat="44.8132086" lon="9.5066479"><ele>234.0</ele><time>2026-04-18T12:00:01.253Z</time></trkpt><trkpt lat="44.813341" lon="9.506568"><ele>234.0</ele><time>2026-04-18T12:00:02.253Z</time></trkpt><trkpt lat="44.8134717" lon="9.5064695"><ele>234.0</ele><time>2026-04-18T12:00:03.254Z</time></trkpt><trkpt lat="44.8135816" lon="9.5063533"><ele>234.0</ele><time>2026-04-18T12:00:04.255Z</time></trkpt><trkpt lat="44.8136856" lon="9.5062312"><ele>232.75</ele><time>2026-04-18T12:00:05.255Z</time></trkpt><trkpt lat="44.8138002" lon="9.5061312"><ele>231.5</ele><time>2026-04-18T12:00:06.254Z</time></trkpt><trkpt lat="44.8139305" lon="9.5060655"><ele>230.25</ele><time>2026-04-18T12:00:07.254Z</time></trkpt><trkpt lat="44.8140581" lon="9.5060282"><ele>229.0</ele><time>2026-04-18T12:00:08.255Z</time></trkpt><trkpt lat="44.8141844" lon="9.5060173"><ele>229.0</ele><time>2026-04-18T12:00:09.254Z</time></trkpt><trkpt lat="44.8143084" lon="9.505969"><ele>229.0</ele><time>2026-04-18T12:00:10.255Z</time></trkpt><trkpt lat="44.8144172" lon="9.5058868"><ele>229.0</ele><time>2026-04-18T12:00:11.255Z</time></trkpt><trkpt lat="44.8145082" lon="9.5057708"><ele>229.0</ele><time>2026-04-18T12:00:12.254Z</time></trkpt><trkpt lat="44.8145846" lon="9.5056245"><ele>228.25</ele><time>2026-04-18T12:00:13.254Z</time></trkpt><trkpt lat="44.8146503" lon="9.5054596"><ele>227.5</ele><time>2026-04-18T12:00:14.254Z</time></trkpt><trkpt lat="44.8147102" lon="9.505291"><ele>226.75</ele><time>2026-04-18T12:00:15.253Z</time></trkpt><trkpt lat="44.8147683" lon="9.5051189"><ele>226.0</ele><time>2026-04-18T12:00:16.253Z</time></trkpt><trkpt lat="44.8148246" lon="9.5049461"><ele>226.0</ele><time>2026-04-18T12:00:17.255Z</time></trkpt><trkpt lat="44.8148814" lon="9.5047782"><ele>226.0</ele><time>2026-04-18T12:00:18.254Z</time></trkpt><trkpt lat="44.8149382" lon="9.5046112"><ele>226.0</ele><time>2026-04-18T12:00:19.254Z</time></trkpt><trkpt lat="44.8150034" lon="9.50445"><ele>226.0</ele><time>2026-04-18T12:00:20.254Z</time></trkpt><trkpt lat="44.8150883" lon="9.5043009"><ele>224.5</ele><time>2026-04-18T12:00:21.254Z</time></trkpt><trkpt lat="44.8151881" lon="9.5041836"><ele>223.0</ele><time>2026-04-18T12:00:22.253Z</time></trkpt><trkpt lat="44.8153019" lon="9.5041098"><ele>221.5</ele><time>2026-04-18T12:00:23.255Z</time></trkpt><trkpt lat="44.8154182" lon="9.504066"><ele>220.0</ele><time>2026-04-18T12:00:24.254Z</time></trkpt><trkpt lat="44.8155361" lon="9.5040618"><ele>220.0</ele><time>2026-04-18T12:00:25.254Z</time></trkpt><trkpt lat="44.8156631" lon="9.5040846"><ele>220.0</ele><time>2026-04-18T12:00:26.255Z</time></trkpt><trkpt lat="44.8158006" lon="9.5041146"><ele>220.0</ele><time>2026-04-18T12:00:27.254Z</time></trkpt><trkpt lat="44.8159325" lon="9.5041413"><ele>220.0</ele><time>2026-04-18T12:00:28.254Z</time></trkpt><trkpt lat="44.8160653" lon="9.504174"><ele>219.0</ele><time>2026-04-18T12:00:29.253Z</time></trkpt><trkpt lat="44.8161961" lon="9.5042066"><ele>218.0</ele><time>2026-04-18T12:00:30.253Z</time></trkpt><trkpt lat="44.816326" lon="9.5042351"><ele>217.0</ele><time>2026-04-18T12:00:31.253Z</time></trkpt><trkpt lat="44.8164506" lon="9.5042459"><ele>216.0</ele><time>2026-04-18T12:00:32.253Z</time></trkpt><trkpt lat="44.8165743" lon="9.5042311"><ele>216.0</ele><time>2026-04-18T12:00:33.254Z</time></trkpt><trkpt lat="44.8166935" lon="9.504201"><ele>216.0</ele><time>2026-04-18T12:00:34.253Z</time></trkpt><trkpt lat="44.8168081" lon="9.5041568"><ele>216.0</ele><time>2026-04-18T12:00:35.253Z</time></trkpt><trkpt lat="44.8169187" lon="9.5040921"><ele>216.0</ele><time>2026-04-18T12:00:36.253Z</time></trkpt><trkpt lat="44.817019" lon="9.5039934"><ele>215.75</ele><time>2026-04-18T12:00:37.253Z</time></trkpt><trkpt lat="44.817109" lon="9.5038704"><ele>215.5</ele><time>2026-04-18T12:00:38.254Z</time></trkpt><trkpt lat="44.8172037" lon="9.5037347"><ele>215.25</ele><time>2026-04-18T12:00:39.253Z</time></trkpt><trkpt lat="44.8173161" lon="9.5036048"><ele>215.0</ele><time>2026-04-18T12:00:40.255Z</time></trkpt><trkpt lat="44.8174358" lon="9.5034899"><ele>215.0</ele><time>2026-04-18T12:00:41.253Z</time></trkpt><trkpt lat="44.817556" lon="9.5033885"><ele>215.0</ele><time>2026-04-18T12:00:42.254Z</time></trkpt><trkpt lat="44.8176729" lon="9.5032934"><ele>215.0</ele><time>2026-04-18T12:00:43.254Z</time></trkpt><trkpt lat="44.8177762" lon="9.5031902"><ele>215.0</ele><time>2026-04-18T12:00:44.253Z</time></trkpt><trkpt lat="44.8178706" lon="9.5030761"><ele>214.5</ele><time>2026-04-18T12:00:45.254Z</time></trkpt><trkpt lat="44.8179643" lon="9.502968"><ele>214.0</ele><time>2026-04-18T12:00:46.255Z</time></trkpt><trkpt lat="44.8180674" lon="9.5028675"><ele>213.5</ele><time>2026-04-18T12:00:47.254Z</time></trkpt><trkpt lat="44.8181785" lon="9.5027821"><ele>213.0</ele><time>2026-04-18T12:00:48.253Z</time></trkpt><trkpt lat="44.8182909" lon="9.5027123"><ele>213.0</ele><time>2026-04-18T12:00:49.254Z</time></trkpt><trkpt lat="44.8184059" lon="9.5026609"><ele>213.0</ele><time>2026-04-18T12:00:50.254Z</time></trkpt><trkpt lat="44.8185213" lon="9.5026084"><ele>213.0</ele><time>2026-04-18T12:00:51.253Z</time></trkpt><trkpt lat="44.8186437" lon="9.5025536"><ele>213.0</ele><time>2026-04-18T12:00:52.254Z</time></trkpt><trkpt lat="44.8187686" lon="9.5024944"><ele>211.75</ele><time>2026-04-18T12:00:53.253Z</time></trkpt><trkpt lat="44.8188971" lon="9.5024268"><ele>210.5</ele><time>2026-04-18T12:00:54.253Z</time></trkpt><trkpt lat="44.8190188" lon="9.5023568"><ele>209.25</ele><time>2026-04-18T12:00:55.255Z</time></trkpt><trkpt lat="44.8191335" lon="9.5022863"><ele>208.0</ele><time>2026-04-18T12:00:56.254Z</time></trkpt><trkpt lat="44.8192351" lon="9.5022261"><ele>207.49999999999997</ele><time>2026-04-18T12:00:57.253Z</time></trkpt><trkpt lat="44.8193219" lon="9.5021839"><ele>207.0</ele><time>2026-04-18T12:00:58.255Z</time></trkpt><trkpt lat="44.8194031" lon="9.502158"><ele>206.5</ele><time>2026-04-18T12:00:59.254Z</time></trkpt><trkpt lat="44.8194804" lon="9.5021669"><ele>206.0</ele><time>2026-04-18T12:01:00.254Z</time></trkpt><trkpt lat="44.8195468" lon="9.5022067"><ele>205.49999999999997</ele><time>2026-04-18T12:01:01.254Z</time></trkpt><trkpt lat="44.8195914" lon="9.5022805"><ele>205.0</ele><time>2026-04-18T12:01:02.253Z</time></trkpt><trkpt lat="44.8196271" lon="9.5023724"><ele>204.99999999999997</ele><time>2026-04-18T12:01:03.253Z</time></trkpt><trkpt lat="44.8196593" lon="9.502458"><ele>205.0</ele><time>2026-04-18T12:01:04.254Z</time></trkpt><trkpt lat="44.8196998" lon="9.5025548"><ele>205.0</ele><time>2026-04-18T12:01:05.254Z</time></trkpt><trkpt lat="44.8197427" lon="9.5026638"><ele>205.0</ele><time>2026-04-18T12:01:06.253Z</time></trkpt><trkpt lat="44.8197814" lon="9.5027694"><ele>204.99999999999997</ele><time>2026-04-18T12:01:07.254Z</time></trkpt><trkpt lat="44.8198121" lon="9.5028589"><ele>205.0</ele><time>2026-04-18T12:01:08.255Z</time></trkpt><trkpt lat="44.8198614" lon="9.5030016"><ele>204.0</ele><time>2026-04-18T12:01:10.254Z</time></trkpt><trkpt lat="44.819894" lon="9.503092"><ele>204.0</ele><time>2026-04-18T12:01:12.254Z</time></trkpt><trkpt lat="44.8199221" lon="9.5031803"><ele>204.0</ele><time>2026-04-18T12:01:15.253Z</time></trkpt><trkpt lat="44.8199578" lon="9.5032727"><ele>204.0</ele><time>2026-04-18T12:01:17.254Z</time></trkpt></trkseg><trkseg><trkpt lat="44.8198337" lon="9.5032082"><ele>204.0</ele><time>2026-04-18T13:04:18.258Z</time></trkpt><trkpt lat="44.8198899" lon="9.5032634"><ele>204.0</ele><time>2026-04-18T13:21:12.258Z</time></trkpt><trkpt lat="44.8199211" lon="9.5033481"><ele>204.0</ele><time>2026-04-18T13:21:19.259Z</time></trkpt><trkpt lat="44.8199681" lon="9.5032858"><ele>204.0</ele><time>2026-04-18T13:25:45.258Z</time></trkpt><trkpt lat="44.8199145" lon="9.5033325"><ele>204.0</ele><time>2026-04-18T13:25:57.259Z</time></trkpt><trkpt lat="44.8199704" lon="9.5033864"><ele>204.0</ele><time>2026-04-18T13:29:23.258Z</time></trkpt><trkpt lat="44.8200259" lon="9.5034676"><ele>204.0</ele><time>2026-04-18T13:29:27.258Z</time></trkpt><trkpt lat="44.8201066" lon="9.5034291"><ele>202.33333333333334</ele><time>2026-04-18T13:31:54.258Z</time></trkpt><trkpt lat="44.8201869" lon="9.5033582"><ele>200.66666666666669</ele><time>2026-04-18T13:31:56.258Z</time></trkpt><trkpt lat="44.8202474" lon="9.5033316"><ele>199.0</ele><time>2026-04-18T13:31:57.258Z</time></trkpt><trkpt lat="44.8203096" lon="9.5032861"><ele>197.33333333333334</ele><time>2026-04-18T13:31:58.258Z</time></trkpt><trkpt lat="44.8203767" lon="9.5032328"><ele>195.66666666666669</ele><time>2026-04-18T13:31:59.258Z</time></trkpt><trkpt lat="44.8204489" lon="9.5031785"><ele>194.0</ele><time>2026-04-18T13:32:00.258Z</time></trkpt><trkpt lat="44.8205253" lon="9.5031188"><ele>194.0</ele><time>2026-04-18T13:32:01.258Z</time></trkpt><trkpt lat="44.8206115" lon="9.5030547"><ele>194.0</ele><time>2026-04-18T13:32:02.258Z</time></trkpt><trkpt lat="44.8207019" lon="9.5029893"><ele>194.0</ele><time>2026-04-18T13:32:03.258Z</time></trkpt><trkpt lat="44.8207901" lon="9.50293"><ele>194.0</ele><time>2026-04-18T13:32:04.258Z</time></trkpt><trkpt lat="44.82089" lon="9.5028757"><ele>194.0</ele><time>2026-04-18T13:32:05.258Z</time></trkpt><trkpt lat="44.8209972" lon="9.5028204"><ele>194.0</ele><time>2026-04-18T13:32:06.258Z</time></trkpt><trkpt lat="44.8211037" lon="9.5027754"><ele>194.0</ele><time>2026-04-18T13:32:07.258Z</time></trkpt><trkpt lat="44.8212038" lon="9.5027276"><ele>194.0</ele><time>2026-04-18T13:32:08.259Z</time></trkpt><trkpt lat="44.8212921" lon="9.502678"><ele>194.0</ele><time>2026-04-18T13:32:09.259Z</time></trkpt><trkpt lat="44.8213707" lon="9.5026232"><ele>194.0</ele><time>2026-04-18T13:32:10.258Z</time></trkpt><trkpt lat="44.8214521" lon="9.5025618"><ele>194.00000000000003</ele><time>2026-04-18T13:32:11.258Z</time></trkpt><trkpt lat="44.821533" lon="9.5025044"><ele>194.0</ele><time>2026-04-18T13:32:12.259Z</time></trkpt><trkpt lat="44.8216102" lon="9.5024497"><ele>194.0</ele><time>2026-04-18T13:32:13.259Z</time></trkpt><trkpt lat="44.8216866" lon="9.5023984"><ele>194.0</ele><time>2026-04-18T13:32:14.258Z</time></trkpt><trkpt lat="44.821759" lon="9.5023482"><ele>194.00000000000003</ele><time>2026-04-18T13:32:15.258Z</time></trkpt><trkpt lat="44.8218212" lon="9.5022991"><ele>194.0</ele><time>2026-04-18T13:32:16.259Z</time></trkpt><trkpt lat="44.8218826" lon="9.5022116"><ele>193.6</ele><time>2026-04-18T13:32:18.258Z</time></trkpt><trkpt lat="44.8218953" lon="9.5021143"><ele>193.2</ele><time>2026-04-18T13:32:43.259Z</time></trkpt><trkpt lat="44.8218709" lon="9.5019938"><ele>192.79999999999998</ele><time>2026-04-18T13:32:48.258Z</time></trkpt><trkpt lat="44.8218274" lon="9.5018949"><ele>192.39999999999998</ele><time>2026-04-18T13:32:49.258Z</time></trkpt><trkpt lat="44.8217612" lon="9.5017867"><ele>192.0</ele><time>2026-04-18T13:32:50.258Z</time></trkpt><trkpt lat="44.8216851" lon="9.5016679"><ele>192.0</ele><time>2026-04-18T13:32:51.259Z</time></trkpt><trkpt lat="44.8216039" lon="9.5015439"><ele>192.0</ele><time>2026-04-18T13:32:52.259Z</time></trkpt><trkpt lat="44.8215258" lon="9.5014081"><ele>192.0</ele><time>2026-04-18T13:32:53.258Z</time></trkpt><trkpt lat="44.8214491" lon="9.501262"><ele>192.0</ele><time>2026-04-18T13:32:54.258Z</time></trkpt><trkpt lat="44.8213751" lon="9.5011168"><ele>191.25</ele><time>2026-04-18T13:32:55.258Z</time></trkpt><trkpt lat="44.8213023" lon="9.5009642"><ele>190.5</ele><time>2026-04-18T13:32:56.258Z</time></trkpt><trkpt lat="44.8212304" lon="9.5007998"><ele>189.75</ele><time>2026-04-18T13:32:57.258Z</time></trkpt><trkpt lat="44.8211633" lon="9.5006473"><ele>189.0</ele><time>2026-04-18T13:32:58.259Z</time></trkpt><trkpt lat="44.8211029" lon="9.5004971"><ele>188.5</ele><time>2026-04-18T13:32:59.258Z</time></trkpt><trkpt lat="44.8210478" lon="9.5003393"><ele>188.0</ele><time>2026-04-18T13:33:00.258Z</time></trkpt><trkpt lat="44.8209945" lon="9.5001795"><ele>187.5</ele><time>2026-04-18T13:33:01.258Z</time></trkpt><trkpt lat="44.8209473" lon="9.5000313"><ele>187.0</ele><time>2026-04-18T13:33:02.259Z</time></trkpt><trkpt lat="44.8209014" lon="9.4998706"><ele>188.5</ele><time>2026-04-18T13:33:03.258Z</time></trkpt><trkpt lat="44.820858" lon="9.4997116"><ele>190.0</ele><time>2026-04-18T13:33:04.258Z</time></trkpt><trkpt lat="44.8208165" lon="9.499558"><ele>191.5</ele><time>2026-04-18T13:33:05.258Z</time></trkpt><trkpt lat="44.8207728" lon="9.4993975"><ele>193.0</ele><time>2026-04-18T13:33:06.259Z</time></trkpt><trkpt lat="44.82073" lon="9.4992337"><ele>193.0</ele><time>2026-04-18T13:33:07.258Z</time></trkpt><trkpt lat="44.8206898" lon="9.4990728"><ele>193.0</ele><time>2026-04-18T13:33:08.258Z</time></trkpt><trkpt lat="44.82065" lon="9.498908"><ele>193.0</ele><time>2026-04-18T13:33:09.258Z</time></trkpt><trkpt lat="44.8206131" lon="9.4987534"><ele>193.0</ele><time>2026-04-18T13:33:10.258Z</time></trkpt><trkpt lat="44.8205787" lon="9.4985987"><ele>192.8</ele><time>2026-04-18T13:33:11.258Z</time></trkpt><trkpt lat="44.8205472" lon="9.4984465"><ele>192.60000000000002</ele><time>2026-04-18T13:33:12.258Z</time></trkpt><trkpt lat="44.8205156" lon="9.498305"><ele>192.39999999999998</ele><time>2026-04-18T13:33:13.259Z</time></trkpt><trkpt lat="44.8204806" lon="9.4981783"><ele>192.2</ele><time>2026-04-18T13:33:14.258Z</time></trkpt><trkpt lat="44.8204453" lon="9.4980572"><ele>192.0</ele><time>2026-04-18T13:33:15.258Z</time></trkpt><trkpt lat="44.8204078" lon="9.4979407"><ele>191.8</ele><time>2026-04-18T13:33:16.258Z</time></trkpt><trkpt lat="44.8203684" lon="9.4978157"><ele>191.6</ele><time>2026-04-18T13:33:17.258Z</time></trkpt><trkpt lat="44.8203347" lon="9.4976985"><ele>191.4</ele><time>2026-04-18T13:33:18.259Z</time></trkpt><trkpt lat="44.8203102" lon="9.4975903"><ele>191.20000000000002</ele><time>2026-04-18T13:33:19.258Z</time></trkpt><trkpt lat="44.8203064" lon="9.4974256"><ele>191.0</ele><time>2026-04-18T13:33:21.259Z</time></trkpt><trkpt lat="44.8203601" lon="9.4972882"><ele>191.0</ele><time>2026-04-18T13:33:23.258Z</time></trkpt><trkpt lat="44.820428" lon="9.4972063"><ele>191.0</ele><time>2026-04-18T13:33:25.258Z</time></trkpt><trkpt lat="44.8205156" lon="9.4971428"><ele>191.0</ele><time>2026-04-18T13:33:27.258Z</time></trkpt><trkpt lat="44.8206017" lon="9.497099"><ele>191.0</ele><time>2026-04-18T13:33:29.258Z</time></trkpt><trkpt lat="44.8206758" lon="9.4970493"><ele>191.0</ele><time>2026-04-18T13:33:31.259Z</time></trkpt><trkpt lat="44.8207521" lon="9.497001"><ele>191.0</ele><time>2026-04-18T13:33:33.259Z</time></trkpt><trkpt lat="44.8208145" lon="9.4969578"><ele>191.0</ele><time>2026-04-18T13:33:35.258Z</time></trkpt><trkpt lat="44.8208915" lon="9.4969032"><ele>191.0</ele><time>2026-04-18T13:33:37.258Z</time></trkpt><trkpt lat="44.8209866" lon="9.4968404"><ele>191.0</ele><time>2026-04-18T13:33:39.258Z</time></trkpt><trkpt lat="44.8210488" lon="9.4967962"><ele>191.0</ele><time>2026-04-18T13:33:40.258Z</time></trkpt><trkpt lat="44.8211217" lon="9.4967445"><ele>191.0</ele><time>2026-04-18T13:33:41.258Z</time></trkpt><trkpt lat="44.8212019" lon="9.4966904"><ele>191.0</ele><time>2026-04-18T13:33:42.258Z</time></trkpt><trkpt lat="44.82129" lon="9.4966325"><ele>191.60000000000002</ele><time>2026-04-18T13:33:43.258Z</time></trkpt><trkpt lat="44.8213724" lon="9.4965761"><ele>192.2</ele><time>2026-04-18T13:33:44.258Z</time></trkpt><trkpt lat="44.8214535" lon="9.4965168"><ele>192.8</ele><time>2026-04-18T13:33:45.258Z</time></trkpt><trkpt lat="44.82154" lon="9.4964571"><ele>193.39999999999998</ele><time>2026-04-18T13:33:46.259Z</time></trkpt><trkpt lat="44.8216221" lon="9.4964029"><ele>194.0</ele><time>2026-04-18T13:33:47.258Z</time></trkpt><trkpt lat="44.8217098" lon="9.4963435"><ele>194.0</ele><time>2026-04-18T13:33:48.259Z</time></trkpt><trkpt lat="44.8217988" lon="9.4962855"><ele>194.0</ele><time>2026-04-18T13:33:49.259Z</time></trkpt><trkpt lat="44.8218952" lon="9.4962474"><ele>194.0</ele><time>2026-04-18T13:33:50.258Z</time></trkpt><trkpt lat="44.8220017" lon="9.496254"><ele>194.0</ele><time>2026-04-18T13:33:51.258Z</time></trkpt><trkpt lat="44.822118" lon="9.4963033"><ele>194.0</ele><time>2026-04-18T13:33:52.258Z</time></trkpt><trkpt lat="44.8222478" lon="9.4963705"><ele>194.0</ele><time>2026-04-18T13:33:53.258Z</time></trkpt><trkpt lat="44.8223779" lon="9.4964352"><ele>194.0</ele><time>2026-04-18T13:33:54.258Z</time></trkpt><trkpt lat="44.8225116" lon="9.4964975"><ele>194.0</ele><time>2026-04-18T13:33:55.258Z</time></trkpt><trkpt lat="44.8226463" lon="9.4965567"><ele>194.0</ele><time>2026-04-18T13:33:56.258Z</time></trkpt><trkpt lat="44.8227874" lon="9.4966083"><ele>194.0</ele><time>2026-04-18T13:33:57.259Z</time></trkpt><trkpt lat="44.8229364" lon="9.4966307"><ele>194.0</ele><time>2026-04-18T13:33:58.259Z</time></trkpt><trkpt lat="44.8230784" lon="9.496613"><ele>194.0</ele><time>2026-04-18T13:33:59.258Z</time></trkpt><trkpt lat="44.8232139" lon="9.4965648"><ele>194.0</ele><time>2026-04-18T13:34:00.258Z</time></trkpt><trkpt lat="44.8233392" lon="9.4964928"><ele>194.0</ele><time>2026-04-18T13:34:01.258Z</time></trkpt><trkpt lat="44.8234521" lon="9.49642"><ele>194.0</ele><time>2026-04-18T13:34:02.258Z</time></trkpt><trkpt lat="44.8235645" lon="9.4963568"><ele>194.0</ele><time>2026-04-18T13:34:03.258Z</time></trkpt><trkpt lat="44.8236781" lon="9.4963095"><ele>194.0</ele><time>2026-04-18T13:34:04.258Z</time></trkpt><trkpt lat="44.8237863" lon="9.496297"><ele>195.0</ele><time>2026-04-18T13:34:05.258Z</time></trkpt><trkpt lat="44.8238927" lon="9.4963166"><ele>196.0</ele><time>2026-04-18T13:34:06.258Z</time></trkpt><trkpt lat="44.8239948" lon="9.4963636"><ele>197.0</ele><time>2026-04-18T13:34:07.258Z</time></trkpt><trkpt lat="44.8240843" lon="9.4964355"><ele>198.0</ele><time>2026-04-18T13:34:08.258Z</time></trkpt><trkpt lat="44.8241657" lon="9.4965276"><ele>199.0</ele><time>2026-04-18T13:34:09.258Z</time></trkpt><trkpt lat="44.8242469" lon="9.4966307"><ele>201.39999999999998</ele><time>2026-04-18T13:34:10.258Z</time></trkpt><trkpt lat="44.8243255" lon="9.4967327"><ele>203.8</ele><time>2026-04-18T13:34:11.258Z</time></trkpt><trkpt lat="44.8244007" lon="9.4968385"><ele>206.2</ele><time>2026-04-18T13:34:12.258Z</time></trkpt><trkpt lat="44.8244763" lon="9.4969413"><ele>208.60000000000002</ele><time>2026-04-18T13:34:13.258Z</time></trkpt><trkpt lat="44.8245518" lon="9.4970398"><ele>211.0</ele><time>2026-04-18T13:34:14.258Z</time></trkpt><trkpt lat="44.8246234" lon="9.4971372"><ele>211.49999999999997</ele><time>2026-04-18T13:34:15.258Z</time></trkpt><trkpt lat="44.8246855" lon="9.4972183"><ele>212.0</ele><time>2026-04-18T13:34:16.258Z</time></trkpt><trkpt lat="44.8247542" lon="9.4972806"><ele>212.5</ele><time>2026-04-18T13:34:17.258Z</time></trkpt><trkpt lat="44.8248186" lon="9.4973"><ele>213.0</ele><time>2026-04-18T13:34:18.259Z</time></trkpt><trkpt lat="44.8248995" lon="9.4972828"><ele>213.49999999999997</ele><time>2026-04-18T13:34:19.258Z</time></trkpt><trkpt lat="44.8249869" lon="9.4972591"><ele>214.0</ele><time>2026-04-18T13:34:20.258Z</time></trkpt><trkpt lat="44.8250632" lon="9.4972804"><ele>214.0</ele><time>2026-04-18T13:34:21.258Z</time></trkpt><trkpt lat="44.82513" lon="9.4974585"><ele>213.99999999999997</ele><time>2026-04-18T13:34:23.258Z</time></trkpt><trkpt lat="44.8251733" lon="9.4975758"><ele>213.99999999999997</ele><time>2026-04-18T13:34:24.259Z</time></trkpt><trkpt lat="44.8252486" lon="9.4976568"><ele>214.0</ele><time>2026-04-18T13:34:25.258Z</time></trkpt><trkpt lat="44.8253393" lon="9.497735"><ele>214.0</ele><time>2026-04-18T13:34:26.258Z</time></trkpt><trkpt lat="44.8254566" lon="9.4978315"><ele>217.2</ele><time>2026-04-18T13:34:27.259Z</time></trkpt><trkpt lat="44.8255511" lon="9.4979057"><ele>220.39999999999998</ele><time>2026-04-18T13:34:28.258Z</time></trkpt><trkpt lat="44.8256438" lon="9.497973"><ele>223.6</ele><time>2026-04-18T13:34:29.259Z</time></trkpt><trkpt lat="44.8257352" lon="9.4980336"><ele>226.8</ele><time>2026-04-18T13:34:30.258Z</time></trkpt><trkpt lat="44.825817" lon="9.4980859"><ele>230.0</ele><time>2026-04-18T13:34:31.258Z</time></trkpt><trkpt lat="44.8259005" lon="9.4981306"><ele>233.4</ele><time>2026-04-18T13:34:32.258Z</time></trkpt><trkpt lat="44.826005" lon="9.498173"><ele>236.8</ele><time>2026-04-18T13:34:33.259Z</time></trkpt><trkpt lat="44.8260993" lon="9.4981888"><ele>240.2</ele><time>2026-04-18T13:34:34.258Z</time></trkpt><trkpt lat="44.8261959" lon="9.4981745"><ele>243.6</ele><time>2026-04-18T13:34:35.258Z</time></trkpt><trkpt lat="44.8263121" lon="9.4981231"><ele>247.0</ele><time>2026-04-18T13:34:36.259Z</time></trkpt><trkpt lat="44.8264361" lon="9.4980405"><ele>247.0</ele><time>2026-04-18T13:34:37.258Z</time></trkpt><trkpt lat="44.8265404" lon="9.497953"><ele>247.0</ele><time>2026-04-18T13:34:38.259Z</time></trkpt><trkpt lat="44.8266393" lon="9.4978618"><ele>247.0</ele><time>2026-04-18T13:34:39.258Z</time></trkpt><trkpt lat="44.8267442" lon="9.4977723"><ele>247.0</ele><time>2026-04-18T13:34:40.258Z</time></trkpt><trkpt lat="44.8268565" lon="9.4977036"><ele>248.75</ele><time>2026-04-18T13:34:41.258Z</time></trkpt><trkpt lat="44.8269685" lon="9.4976645"><ele>250.5</ele><time>2026-04-18T13:34:42.258Z</time></trkpt><trkpt lat="44.8270734" lon="9.4976322"><ele>252.25</ele><time>2026-04-18T13:34:43.258Z</time></trkpt><trkpt lat="44.8271768" lon="9.4975651"><ele>254.0</ele><time>2026-04-18T13:34:44.258Z</time></trkpt><trkpt lat="44.8272631" lon="9.4974578"><ele>254.0</ele><time>2026-04-18T13:34:45.258Z</time></trkpt><trkpt lat="44.8273382" lon="9.4973268"><ele>253.99999999999997</ele><time>2026-04-18T13:34:46.258Z</time></trkpt><trkpt lat="44.8274162" lon="9.4972187"><ele>253.99999999999997</ele><time>2026-04-18T13:34:47.259Z</time></trkpt><trkpt lat="44.8275078" lon="9.4971366"><ele>254.0</ele><time>2026-04-18T13:34:48.258Z</time></trkpt><trkpt lat="44.8276109" lon="9.4970828"><ele>254.0</ele><time>2026-04-18T13:34:49.258Z</time></trkpt><trkpt lat="44.8277259" lon="9.4970456"><ele>256.2</ele><time>2026-04-18T13:34:50.258Z</time></trkpt><trkpt lat="44.8278384" lon="9.4970078"><ele>258.4</ele><time>2026-04-18T13:34:51.258Z</time></trkpt><trkpt lat="44.827938" lon="9.4969796"><ele>260.6</ele><time>2026-04-18T13:34:52.258Z</time></trkpt><trkpt lat="44.8280403" lon="9.4969636"><ele>262.8</ele><time>2026-04-18T13:34:53.259Z</time></trkpt><trkpt lat="44.8281226" lon="9.4969853"><ele>265.0</ele><time>2026-04-18T13:34:54.258Z</time></trkpt><trkpt lat="44.8281812" lon="9.4970602"><ele>265.4</ele><time>2026-04-18T13:34:55.258Z</time></trkpt><trkpt lat="44.8282255" lon="9.4971705"><ele>265.8</ele><time>2026-04-18T13:34:56.258Z</time></trkpt><trkpt lat="44.8282679" lon="9.4973141"><ele>266.2</ele><time>2026-04-18T13:34:57.258Z</time></trkpt><trkpt lat="44.8282955" lon="9.4974411"><ele>266.6</ele><time>2026-04-18T13:34:58.258Z</time></trkpt><trkpt lat="44.8283121" lon="9.4975633"><ele>267.0</ele><time>2026-04-18T13:34:59.258Z</time></trkpt><trkpt lat="44.8283233" lon="9.4976795"><ele>267.0</ele><time>2026-04-18T13:35:00.258Z</time></trkpt><trkpt lat="44.8283392" lon="9.4977902"><ele>267.0</ele><time>2026-04-18T13:35:01.258Z</time></trkpt><trkpt lat="44.8283767" lon="9.4978852"><ele>267.0</ele><time>2026-04-18T13:35:02.258Z</time></trkpt><trkpt lat="44.8284397" lon="9.4979633"><ele>267.0</ele><time>2026-04-18T13:35:03.258Z</time></trkpt><trkpt lat="44.8285118" lon="9.498034"><ele>267.0</ele><time>2026-04-18T13:35:04.258Z</time></trkpt><trkpt lat="44.8285878" lon="9.4981033"><ele>267.0</ele><time>2026-04-18T13:35:05.259Z</time></trkpt><trkpt lat="44.8286687" lon="9.4981748"><ele>267.6666666666667</ele><time>2026-04-18T13:35:06.258Z</time></trkpt><trkpt lat="44.828749" lon="9.4982309"><ele>268.3333333333333</ele><time>2026-04-18T13:35:07.258Z</time></trkpt><trkpt lat="44.8288313" lon="9.498247"><ele>269.0</ele><time>2026-04-18T13:35:08.258Z</time></trkpt><trkpt lat="44.8289172" lon="9.4982247"><ele>269.66666666666663</ele><time>2026-04-18T13:35:09.259Z</time></trkpt><trkpt lat="44.8290031" lon="9.498184"><ele>270.3333333333333</ele><time>2026-04-18T13:35:10.258Z</time></trkpt><trkpt lat="44.8290915" lon="9.4981386"><ele>271.0</ele><time>2026-04-18T13:35:11.258Z</time></trkpt><trkpt lat="44.8291817" lon="9.498081"><ele>271.0</ele><time>2026-04-18T13:35:12.259Z</time></trkpt><trkpt lat="44.8292755" lon="9.4980125"><ele>271.0</ele><time>2026-04-18T13:35:13.258Z</time></trkpt><trkpt lat="44.8293688" lon="9.497944"><ele>271.0</ele><time>2026-04-18T13:35:14.258Z</time></trkpt><trkpt lat="44.8294614" lon="9.4978747"><ele>271.0</ele><time>2026-04-18T13:35:15.258Z</time></trkpt><trkpt lat="44.8295492" lon="9.497813"><ele>271.0</ele><time>2026-04-18T13:35:16.258Z</time></trkpt><trkpt lat="44.8296237" lon="9.4977559"><ele>272.8333333333333</ele><time>2026-04-18T13:35:17.258Z</time></trkpt><trkpt lat="44.829696" lon="9.4976997"><ele>274.66666666666663</ele><time>2026-04-18T13:35:18.259Z</time></trkpt><trkpt lat="44.829771" lon="9.4976518"><ele>276.5</ele><time>2026-04-18T13:35:19.258Z</time></trkpt><trkpt lat="44.8298516" lon="9.4976042"><ele>278.3333333333333</ele><time>2026-04-18T13:35:20.259Z</time></trkpt><trkpt lat="44.8299259" lon="9.4975537"><ele>280.1666666666667</ele><time>2026-04-18T13:35:21.258Z</time></trkpt><trkpt lat="44.8299912" lon="9.4975077"><ele>282.0</ele><time>2026-04-18T13:35:22.259Z</time></trkpt><trkpt lat="44.8300575" lon="9.4974637"><ele>282.0</ele><time>2026-04-18T13:35:23.258Z</time></trkpt><trkpt lat="44.8301275" lon="9.4974157"><ele>282.0</ele><time>2026-04-18T13:35:24.258Z</time></trkpt><trkpt lat="44.8301966" lon="9.497361"><ele>282.0</ele><time>2026-04-18T13:35:25.258Z</time></trkpt><trkpt lat="44.8302661" lon="9.4972992"><ele>282.0</ele><time>2026-04-18T13:35:26.258Z</time></trkpt><trkpt lat="44.8303335" lon="9.4972272"><ele>282.0</ele><time>2026-04-18T13:35:27.258Z</time></trkpt><trkpt lat="44.83039" lon="9.4971446"><ele>282.0</ele><time>2026-04-18T13:35:28.258Z</time></trkpt><trkpt lat="44.8304335" lon="9.4970566"><ele>284.3333333333333</ele><time>2026-04-18T13:35:29.258Z</time></trkpt><trkpt lat="44.8304638" lon="9.4969507"><ele>286.6666666666667</ele><time>2026-04-18T13:35:30.259Z</time></trkpt><trkpt lat="44.8304768" lon="9.496841"><ele>289.0</ele><time>2026-04-18T13:35:31.258Z</time></trkpt><trkpt lat="44.8304908" lon="9.4967306"><ele>291.33333333333337</ele><time>2026-04-18T13:35:32.258Z</time></trkpt><trkpt lat="44.8305108" lon="9.4966266"><ele>293.6666666666667</ele><time>2026-04-18T13:35:33.258Z</time></trkpt><trkpt lat="44.8305553" lon="9.4965445"><ele>296.0</ele><time>2026-04-18T13:35:34.258Z</time></trkpt><trkpt lat="44.8306237" lon="9.4964917"><ele>296.0</ele><time>2026-04-18T13:35:35.258Z</time></trkpt><trkpt lat="44.8307004" lon="9.4964686"><ele>296.0</ele><time>2026-04-18T13:35:36.258Z</time></trkpt><trkpt lat="44.8307859" lon="9.4964476"><ele>296.0</ele><time>2026-04-18T13:35:37.258Z</time></trkpt><trkpt lat="44.8308823" lon="9.4964136"><ele>296.0</ele><time>2026-04-18T13:35:38.258Z</time></trkpt><trkpt lat="44.8309575" lon="9.4963696"><ele>296.0</ele><time>2026-04-18T13:35:39.258Z</time></trkpt><trkpt lat="44.831029" lon="9.4963283"><ele>296.0</ele><time>2026-04-18T13:35:40.258Z</time></trkpt><trkpt lat="44.8310953" lon="9.4962922"><ele>297.0</ele><time>2026-04-18T13:35:41.259Z</time></trkpt><trkpt lat="44.8311636" lon="9.4962547"><ele>298.0</ele><time>2026-04-18T13:35:42.259Z</time></trkpt><trkpt lat="44.8312332" lon="9.4962167"><ele>299.0</ele><time>2026-04-18T13:35:43.258Z</time></trkpt><trkpt lat="44.8313036" lon="9.4961755"><ele>300.0</ele><time>2026-04-18T13:35:44.258Z</time></trkpt><trkpt lat="44.8313731" lon="9.4961335"><ele>301.0</ele><time>2026-04-18T13:35:45.259Z</time></trkpt><trkpt lat="44.8314454" lon="9.4960891"><ele>302.0</ele><time>2026-04-18T13:35:46.258Z</time></trkpt><trkpt lat="44.8315221" lon="9.4960447"><ele>302.6666666666667</ele><time>2026-04-18T13:35:47.259Z</time></trkpt><trkpt lat="44.8315963" lon="9.496012"><ele>303.33333333333337</ele><time>2026-04-18T13:35:48.259Z</time></trkpt><trkpt lat="44.8316663" lon="9.4959774"><ele>304.0</ele><time>2026-04-18T13:35:49.258Z</time></trkpt><trkpt lat="44.8317346" lon="9.4959372"><ele>304.6666666666667</ele><time>2026-04-18T13:35:50.258Z</time></trkpt><trkpt lat="44.8318051" lon="9.4958975"><ele>305.3333333333333</ele><time>2026-04-18T13:35:51.258Z</time></trkpt><trkpt lat="44.831878" lon="9.4958623"><ele>306.0</ele><time>2026-04-18T13:35:52.258Z</time></trkpt><trkpt lat="44.8319505" lon="9.4958163"><ele>307.8333333333333</ele><time>2026-04-18T13:35:53.258Z</time></trkpt><trkpt lat="44.8320215" lon="9.4957594"><ele>309.6666666666667</ele><time>2026-04-18T13:35:54.258Z</time></trkpt><trkpt lat="44.8320894" lon="9.4956982"><ele>311.5</ele><time>2026-04-18T13:35:55.259Z</time></trkpt><trkpt lat="44.8321541" lon="9.4956332"><ele>313.33333333333337</ele><time>2026-04-18T13:35:56.258Z</time></trkpt><trkpt lat="44.8322197" lon="9.4955644"><ele>315.1666666666667</ele><time>2026-04-18T13:35:57.258Z</time></trkpt><trkpt lat="44.8322789" lon="9.4954986"><ele>317.0</ele><time>2026-04-18T13:35:58.258Z</time></trkpt><trkpt lat="44.8323367" lon="9.4954302"><ele>317.33333333333337</ele><time>2026-04-18T13:35:59.258Z</time></trkpt><trkpt lat="44.8323934" lon="9.4953599"><ele>317.6666666666667</ele><time>2026-04-18T13:36:00.258Z</time></trkpt><trkpt lat="44.8324511" lon="9.4952986"><ele>318.0</ele><time>2026-04-18T13:36:01.258Z</time></trkpt><trkpt lat="44.8325206" lon="9.4952575"><ele>318.3333333333333</ele><time>2026-04-18T13:36:02.258Z</time></trkpt><trkpt lat="44.8325942" lon="9.4952441"><ele>318.66666666666663</ele><time>2026-04-18T13:36:03.259Z</time></trkpt><trkpt lat="44.8326743" lon="9.4952581"><ele>319.0</ele><time>2026-04-18T13:36:04.258Z</time></trkpt><trkpt lat="44.8327607" lon="9.4952936"><ele>321.2</ele><time>2026-04-18T13:36:05.258Z</time></trkpt><trkpt lat="44.8328406" lon="9.4953253"><ele>323.4</ele><time>2026-04-18T13:36:06.259Z</time></trkpt><trkpt lat="44.8329235" lon="9.4953356"><ele>325.6</ele><time>2026-04-18T13:36:07.258Z</time></trkpt><trkpt lat="44.8330105" lon="9.4953253"><ele>327.8</ele><time>2026-04-18T13:36:08.258Z</time></trkpt><trkpt lat="44.8330974" lon="9.495283"><ele>330.0</ele><time>2026-04-18T13:36:09.258Z</time></trkpt><trkpt lat="44.8332" lon="9.4952102"><ele>330.0</ele><time>2026-04-18T13:36:10.258Z</time></trkpt><trkpt lat="44.833295" lon="9.4951498"><ele>330.0</ele><time>2026-04-18T13:36:11.258Z</time></trkpt><trkpt lat="44.8333888" lon="9.4950937"><ele>330.0</ele><time>2026-04-18T13:36:12.258Z</time></trkpt><trkpt lat="44.8334775" lon="9.4950075"><ele>330.0</ele><time>2026-04-18T13:36:13.258Z</time></trkpt><trkpt lat="44.8335447" lon="9.4948962"><ele>330.0</ele><time>2026-04-18T13:36:14.258Z</time></trkpt><trkpt lat="44.8336004" lon="9.494761"><ele>332.75</ele><time>2026-04-18T13:36:15.259Z</time></trkpt><trkpt lat="44.8336622" lon="9.4946174"><ele>335.5</ele><time>2026-04-18T13:36:16.258Z</time></trkpt><trkpt lat="44.8337335" lon="9.4944687"><ele>338.25</ele><time>2026-04-18T13:36:17.258Z</time></trkpt><trkpt lat="44.8338081" lon="9.4943546"><ele>341.0</ele><time>2026-04-18T13:36:18.258Z</time></trkpt><trkpt lat="44.8338904" lon="9.4942742"><ele>341.25</ele><time>2026-04-18T13:36:19.258Z</time></trkpt><trkpt lat="44.8339876" lon="9.494218"><ele>341.5</ele><time>2026-04-18T13:36:20.258Z</time></trkpt><trkpt lat="44.8340925" lon="9.4941683"><ele>341.75</ele><time>2026-04-18T13:36:21.258Z</time></trkpt><trkpt lat="44.8342145" lon="9.4941088"><ele>342.0</ele><time>2026-04-18T13:36:22.258Z</time></trkpt><trkpt lat="44.8343354" lon="9.4940509"><ele>344.40000000000003</ele><time>2026-04-18T13:36:23.259Z</time></trkpt><trkpt lat="44.834439" lon="9.4940039"><ele>346.8</ele><time>2026-04-18T13:36:24.258Z</time></trkpt><trkpt lat="44.8345304" lon="9.4939623"><ele>349.2</ele><time>2026-04-18T13:36:25.258Z</time></trkpt><trkpt lat="44.8346241" lon="9.4939211"><ele>351.6</ele><time>2026-04-18T13:36:26.258Z</time></trkpt><trkpt lat="44.8347005" lon="9.4938829"><ele>354.0</ele><time>2026-04-18T13:36:27.258Z</time></trkpt><trkpt lat="44.8347734" lon="9.4938444"><ele>354.0</ele><time>2026-04-18T13:36:28.258Z</time></trkpt><trkpt lat="44.8348501" lon="9.4938246"><ele>354.0</ele><time>2026-04-18T13:36:29.258Z</time></trkpt><trkpt lat="44.8349157" lon="9.4938462"><ele>354.0</ele><time>2026-04-18T13:36:30.258Z</time></trkpt><trkpt lat="44.8349721" lon="9.4939184"><ele>354.0</ele><time>2026-04-18T13:36:31.259Z</time></trkpt><trkpt lat="44.835006" lon="9.4940316"><ele>354.0</ele><time>2026-04-18T13:36:32.258Z</time></trkpt><trkpt lat="44.8350294" lon="9.4941714"><ele>354.0</ele><time>2026-04-18T13:36:33.258Z</time></trkpt><trkpt lat="44.8350652" lon="9.4942954"><ele>354.0</ele><time>2026-04-18T13:36:34.258Z</time></trkpt><trkpt lat="44.8351128" lon="9.4943992"><ele>354.0</ele><time>2026-04-18T13:36:35.258Z</time></trkpt><trkpt lat="44.8351761" lon="9.4944924"><ele>354.0</ele><time>2026-04-18T13:36:36.258Z</time></trkpt><trkpt lat="44.8352477" lon="9.4945525"><ele>354.0</ele><time>2026-04-18T13:36:37.259Z</time></trkpt><trkpt lat="44.8353239" lon="9.4945762"><ele>354.0</ele><time>2026-04-18T13:36:38.258Z</time></trkpt><trkpt lat="44.8354037" lon="9.494561"><ele>354.0</ele><time>2026-04-18T13:36:39.258Z</time></trkpt><trkpt lat="44.8354923" lon="9.4945204"><ele>356.3333333333333</ele><time>2026-04-18T13:36:40.258Z</time></trkpt><trkpt lat="44.8355872" lon="9.4944772"><ele>358.6666666666667</ele><time>2026-04-18T13:36:41.258Z</time></trkpt><trkpt lat="44.8356641" lon="9.4944293"><ele>361.0</ele><time>2026-04-18T13:36:42.258Z</time></trkpt><trkpt lat="44.8357337" lon="9.4943882"><ele>363.33333333333337</ele><time>2026-04-18T13:36:43.259Z</time></trkpt><trkpt lat="44.8358014" lon="9.4943438"><ele>365.6666666666667</ele><time>2026-04-18T13:36:44.258Z</time></trkpt><trkpt lat="44.8358741" lon="9.4942962"><ele>368.0</ele><time>2026-04-18T13:36:45.258Z</time></trkpt><trkpt lat="44.8359473" lon="9.4942454"><ele>370.0</ele><time>2026-04-18T13:36:46.259Z</time></trkpt><trkpt lat="44.8360189" lon="9.4941923"><ele>372.0</ele><time>2026-04-18T13:36:47.258Z</time></trkpt><trkpt lat="44.8360821" lon="9.4941383"><ele>374.0</ele><time>2026-04-18T13:36:48.258Z</time></trkpt><trkpt lat="44.8361472" lon="9.494087"><ele>376.0</ele><time>2026-04-18T13:36:49.258Z</time></trkpt><trkpt lat="44.8362173" lon="9.4940346"><ele>378.0</ele><time>2026-04-18T13:36:50.259Z</time></trkpt><trkpt lat="44.8362954" lon="9.4939727"><ele>380.0</ele><time>2026-04-18T13:36:51.258Z</time></trkpt><trkpt lat="44.8363772" lon="9.4939036"><ele>380.0</ele><time>2026-04-18T13:36:52.258Z</time></trkpt><trkpt lat="44.8364563" lon="9.4938266"><ele>380.0</ele><time>2026-04-18T13:36:53.259Z</time></trkpt><trkpt lat="44.8365346" lon="9.4937297"><ele>380.0</ele><time>2026-04-18T13:36:54.258Z</time></trkpt><trkpt lat="44.8366086" lon="9.4936153"><ele>380.0</ele><time>2026-04-18T13:36:55.258Z</time></trkpt><trkpt lat="44.8366829" lon="9.4935038"><ele>380.0</ele><time>2026-04-18T13:36:56.259Z</time></trkpt><trkpt lat="44.8367545" lon="9.4934017"><ele>383.5</ele><time>2026-04-18T13:36:57.258Z</time></trkpt><trkpt lat="44.83682" lon="9.4933082"><ele>387.0</ele><time>2026-04-18T13:36:58.259Z</time></trkpt><trkpt lat="44.8368782" lon="9.493216"><ele>390.5</ele><time>2026-04-18T13:36:59.258Z</time></trkpt><trkpt lat="44.8369253" lon="9.4931211"><ele>394.0</ele><time>2026-04-18T13:37:00.258Z</time></trkpt><trkpt lat="44.8369517" lon="9.4930129"><ele>397.49999999999994</ele><time>2026-04-18T13:37:01.258Z</time></trkpt><trkpt lat="44.8369519" lon="9.4928764"><ele>401.0</ele><time>2026-04-18T13:37:02.258Z</time></trkpt><trkpt lat="44.8369428" lon="9.4927332"><ele>401.3333333333333</ele><time>2026-04-18T13:37:03.258Z</time></trkpt><trkpt lat="44.8369365" lon="9.4926203"><ele>401.66666666666663</ele><time>2026-04-18T13:37:04.258Z</time></trkpt><trkpt lat="44.8369291" lon="9.4925151"><ele>402.0</ele><time>2026-04-18T13:37:05.258Z</time></trkpt><trkpt lat="44.8369266" lon="9.4924045"><ele>402.33333333333337</ele><time>2026-04-18T13:37:06.258Z</time></trkpt><trkpt lat="44.8369382" lon="9.4922874"><ele>402.6666666666667</ele><time>2026-04-18T13:37:07.258Z</time></trkpt><trkpt lat="44.8369657" lon="9.4921674"><ele>403.0</ele><time>2026-04-18T13:37:08.258Z</time></trkpt><trkpt lat="44.8370149" lon="9.4920618"><ele>403.4</ele><time>2026-04-18T13:37:09.258Z</time></trkpt><trkpt lat="44.8370794" lon="9.4919627"><ele>403.79999999999995</ele><time>2026-04-18T13:37:10.258Z</time></trkpt><trkpt lat="44.8371502" lon="9.4918728"><ele>404.2</ele><time>2026-04-18T13:37:11.258Z</time></trkpt><trkpt lat="44.8372164" lon="9.4917871"><ele>404.6</ele><time>2026-04-18T13:37:12.258Z</time></trkpt><trkpt lat="44.8372822" lon="9.4916976"><ele>405.0</ele><time>2026-04-18T13:37:13.258Z</time></trkpt><trkpt lat="44.8373462" lon="9.4915935"><ele>405.0</ele><time>2026-04-18T13:37:14.258Z</time></trkpt><trkpt lat="44.8373983" lon="9.4914853"><ele>405.0</ele><time>2026-04-18T13:37:15.259Z</time></trkpt><trkpt lat="44.8374484" lon="9.4913845"><ele>405.0</ele><time>2026-04-18T13:37:16.258Z</time></trkpt><trkpt lat="44.8375158" lon="9.4912945"><ele>405.0</ele><time>2026-04-18T13:37:17.258Z</time></trkpt><trkpt lat="44.8376041" lon="9.4912158"><ele>405.0</ele><time>2026-04-18T13:37:18.258Z</time></trkpt><trkpt lat="44.8377037" lon="9.4911529"><ele>407.75</ele><time>2026-04-18T13:37:19.258Z</time></trkpt><trkpt lat="44.8378021" lon="9.4910809"><ele>410.5</ele><time>2026-04-18T13:37:20.259Z</time></trkpt><trkpt lat="44.8378989" lon="9.4909853"><ele>413.25</ele><time>2026-04-18T13:37:21.259Z</time></trkpt><trkpt lat="44.8379913" lon="9.4908819"><ele>416.0</ele><time>2026-04-18T13:37:22.258Z</time></trkpt><trkpt lat="44.8380799" lon="9.4907878"><ele>416.0</ele><time>2026-04-18T13:37:23.258Z</time></trkpt><trkpt lat="44.8381576" lon="9.4907054"><ele>416.0</ele><time>2026-04-18T13:37:24.259Z</time></trkpt><trkpt lat="44.8382416" lon="9.4906254"><ele>416.0</ele><time>2026-04-18T13:37:25.259Z</time></trkpt><trkpt lat="44.8383293" lon="9.4905651"><ele>416.0</ele><time>2026-04-18T13:37:26.259Z</time></trkpt><trkpt lat="44.8384158" lon="9.4905097"><ele>416.0</ele><time>2026-04-18T13:37:27.258Z</time></trkpt><trkpt lat="44.8384872" lon="9.4904622"><ele>418.3333333333333</ele><time>2026-04-18T13:37:28.259Z</time></trkpt><trkpt lat="44.8385614" lon="9.4903475"><ele>420.66666666666663</ele><time>2026-04-18T13:37:30.258Z</time></trkpt><trkpt lat="44.8385929" lon="9.4902445"><ele>423.0</ele><time>2026-04-18T13:37:32.258Z</time></trkpt><trkpt lat="44.8386149" lon="9.4901456"><ele>425.33333333333337</ele><time>2026-04-18T13:37:34.258Z</time></trkpt><trkpt lat="44.8386178" lon="9.4900298"><ele>427.6666666666667</ele><time>2026-04-18T13:37:37.258Z</time></trkpt><trkpt lat="44.838655" lon="9.4899357"><ele>430.0</ele><time>2026-04-18T13:38:25.259Z</time></trkpt><trkpt lat="44.8386879" lon="9.4897994"><ele>430.00000000000006</ele><time>2026-04-18T13:38:27.258Z</time></trkpt><trkpt lat="44.8387339" lon="9.4896241"><ele>430.0</ele><time>2026-04-18T13:38:29.258Z</time></trkpt><trkpt lat="44.8387661" lon="9.4895288"><ele>430.0</ele><time>2026-04-18T13:38:30.258Z</time></trkpt><trkpt lat="44.8388002" lon="9.4894299"><ele>430.0</ele><time>2026-04-18T13:38:31.259Z</time></trkpt><trkpt lat="44.8388346" lon="9.4893305"><ele>430.00000000000006</ele><time>2026-04-18T13:38:32.258Z</time></trkpt><trkpt lat="44.8388684" lon="9.4892234"><ele>430.0</ele><time>2026-04-18T13:38:33.258Z</time></trkpt><trkpt lat="44.8388985" lon="9.489093"><ele>430.8</ele><time>2026-04-18T13:38:34.258Z</time></trkpt><trkpt lat="44.8389279" lon="9.4889782"><ele>431.6</ele><time>2026-04-18T13:38:35.258Z</time></trkpt><trkpt lat="44.8389573" lon="9.4888612"><ele>432.4</ele><time>2026-04-18T13:38:36.259Z</time></trkpt><trkpt lat="44.8389826" lon="9.4887551"><ele>433.2</ele><time>2026-04-18T13:38:37.258Z</time></trkpt><trkpt lat="44.8389638" lon="9.488592"><ele>434.0</ele><time>2026-04-18T13:38:39.259Z</time></trkpt><trkpt lat="44.838856" lon="9.488533"><ele>434.66666666666663</ele><time>2026-04-18T13:38:41.258Z</time></trkpt><trkpt lat="44.8387921" lon="9.4885148"><ele>435.3333333333333</ele><time>2026-04-18T13:38:42.258Z</time></trkpt><trkpt lat="44.8386948" lon="9.488501"><ele>436.0</ele><time>2026-04-18T13:38:43.258Z</time></trkpt><trkpt lat="44.838634" lon="9.4884261"><ele>436.66666666666663</ele><time>2026-04-18T13:38:44.258Z</time></trkpt><trkpt lat="44.8385751" lon="9.488361"><ele>437.3333333333333</ele><time>2026-04-18T13:38:45.258Z</time></trkpt><trkpt lat="44.8385072" lon="9.4882861"><ele>438.0</ele><time>2026-04-18T13:38:46.258Z</time></trkpt><trkpt lat="44.838443" lon="9.488223"><ele>438.0</ele><time>2026-04-18T13:38:47.258Z</time></trkpt><trkpt lat="44.8383665" lon="9.4881611"><ele>438.0</ele><time>2026-04-18T13:38:48.258Z</time></trkpt><trkpt lat="44.8382934" lon="9.4881385"><ele>438.0</ele><time>2026-04-18T13:38:49.258Z</time></trkpt><trkpt lat="44.8382026" lon="9.4881108"><ele>438.0</ele><time>2026-04-18T13:38:50.258Z</time></trkpt><trkpt lat="44.8381051" lon="9.4881072"><ele>438.0</ele><time>2026-04-18T13:38:51.259Z</time></trkpt><trkpt lat="44.8380122" lon="9.4880898"><ele>438.0</ele><time>2026-04-18T13:38:52.258Z</time></trkpt><trkpt lat="44.8379238" lon="9.4880796"><ele>438.0</ele><time>2026-04-18T13:38:53.258Z</time></trkpt><trkpt lat="44.8378326" lon="9.4880729"><ele>437.99999999999994</ele><time>2026-04-18T13:38:54.258Z</time></trkpt><trkpt lat="44.8377435" lon="9.4880761"><ele>437.99999999999994</ele><time>2026-04-18T13:38:55.259Z</time></trkpt><trkpt lat="44.8376536" lon="9.4880738"><ele>438.0</ele><time>2026-04-18T13:38:56.258Z</time></trkpt><trkpt lat="44.8375658" lon="9.4880344"><ele>438.0</ele><time>2026-04-18T13:38:57.258Z</time></trkpt><trkpt lat="44.8374857" lon="9.487949"><ele>440.79999999999995</ele><time>2026-04-18T13:38:58.259Z</time></trkpt><trkpt lat="44.8374104" lon="9.4878526"><ele>443.59999999999997</ele><time>2026-04-18T13:38:59.258Z</time></trkpt><trkpt lat="44.8373551" lon="9.487732"><ele>446.40000000000003</ele><time>2026-04-18T13:39:00.258Z</time></trkpt><trkpt lat="44.8373008" lon="9.4875994"><ele>449.20000000000005</ele><time>2026-04-18T13:39:01.258Z</time></trkpt><trkpt lat="44.8372337" lon="9.4875093"><ele>452.0</ele><time>2026-04-18T13:39:02.258Z</time></trkpt><trkpt lat="44.8371398" lon="9.4874413"><ele>452.0</ele><time>2026-04-18T13:39:03.258Z</time></trkpt><trkpt lat="44.8370275" lon="9.4873852"><ele>452.00000000000006</ele><time>2026-04-18T13:39:04.258Z</time></trkpt><trkpt lat="44.8368961" lon="9.4873447"><ele>452.00000000000006</ele><time>2026-04-18T13:39:05.258Z</time></trkpt><trkpt lat="44.8367959" lon="9.4873238"><ele>452.0</ele><time>2026-04-18T13:39:06.258Z</time></trkpt><trkpt lat="44.8367331" lon="9.4872798"><ele>452.0</ele><time>2026-04-18T13:39:07.258Z</time></trkpt><trkpt lat="44.8367397" lon="9.4871365"><ele>454.8</ele><time>2026-04-18T13:39:09.258Z</time></trkpt><trkpt lat="44.836786" lon="9.4870316"><ele>457.6</ele><time>2026-04-18T13:39:10.259Z</time></trkpt><trkpt lat="44.8368613" lon="9.4869152"><ele>460.40000000000003</ele><time>2026-04-18T13:39:11.258Z</time></trkpt><trkpt lat="44.8369497" lon="9.4867819"><ele>463.20000000000005</ele><time>2026-04-18T13:39:12.259Z</time></trkpt><trkpt lat="44.8370565" lon="9.4867122"><ele>466.0</ele><time>2026-04-18T13:39:13.258Z</time></trkpt><trkpt lat="44.8371461" lon="9.4866603"><ele>466.0</ele><time>2026-04-18T13:39:14.258Z</time></trkpt><trkpt lat="44.837257" lon="9.4866513"><ele>466.0</ele><time>2026-04-18T13:39:15.258Z</time></trkpt><trkpt lat="44.8373573" lon="9.4866168"><ele>466.0</ele><time>2026-04-18T13:39:16.258Z</time></trkpt><trkpt lat="44.8374416" lon="9.4865555"><ele>466.0</ele><time>2026-04-18T13:39:17.258Z</time></trkpt><trkpt lat="44.8375291" lon="9.4864634"><ele>466.0</ele><time>2026-04-18T13:39:18.259Z</time></trkpt><trkpt lat="44.8376174" lon="9.4863478"><ele>468.75</ele><time>2026-04-18T13:39:19.258Z</time></trkpt><trkpt lat="44.8377326" lon="9.4861793"><ele>471.5</ele><time>2026-04-18T13:39:20.259Z</time></trkpt><trkpt lat="44.8378222" lon="9.4860365"><ele>474.25</ele><time>2026-04-18T13:39:21.258Z</time></trkpt><trkpt lat="44.8378998" lon="9.4859045"><ele>477.0</ele><time>2026-04-18T13:39:22.259Z</time></trkpt><trkpt lat="44.8379631" lon="9.4857851"><ele>477.0</ele><time>2026-04-18T13:39:23.258Z</time></trkpt><trkpt lat="44.8380122" lon="9.4856549"><ele>477.00000000000006</ele><time>2026-04-18T13:39:24.259Z</time></trkpt><trkpt lat="44.8380562" lon="9.4854937"><ele>477.00000000000006</ele><time>2026-04-18T13:39:25.259Z</time></trkpt><trkpt lat="44.8380767" lon="9.4853422"><ele>477.0</ele><time>2026-04-18T13:39:26.258Z</time></trkpt><trkpt lat="44.8380817" lon="9.4851847"><ele>477.0</ele><time>2026-04-18T13:39:27.258Z</time></trkpt><trkpt lat="44.8380759" lon="9.4850359"><ele>478.8333333333333</ele><time>2026-04-18T13:39:28.258Z</time></trkpt><trkpt lat="44.8380821" lon="9.4849055"><ele>480.66666666666663</ele><time>2026-04-18T13:39:29.259Z</time></trkpt><trkpt lat="44.838114" lon="9.4848015"><ele>482.5</ele><time>2026-04-18T13:39:30.258Z</time></trkpt><trkpt lat="44.8381754" lon="9.4847414"><ele>484.3333333333333</ele><time>2026-04-18T13:39:31.258Z</time></trkpt><trkpt lat="44.8382691" lon="9.4847103"><ele>486.16666666666663</ele><time>2026-04-18T13:39:32.258Z</time></trkpt><trkpt lat="44.838336" lon="9.4846746"><ele>488.0</ele><time>2026-04-18T13:39:33.259Z</time></trkpt><trkpt lat="44.8383589" lon="9.4845254"><ele>490.16666666666663</ele><time>2026-04-18T13:39:35.258Z</time></trkpt><trkpt lat="44.8383193" lon="9.4844167"><ele>492.3333333333333</ele><time>2026-04-18T13:39:36.258Z</time></trkpt><trkpt lat="44.8382553" lon="9.4843149"><ele>494.5</ele><time>2026-04-18T13:39:37.258Z</time></trkpt><trkpt lat="44.8381839" lon="9.4842545"><ele>496.66666666666663</ele><time>2026-04-18T13:39:38.258Z</time></trkpt><trkpt lat="44.8381132" lon="9.4841938"><ele>498.8333333333333</ele><time>2026-04-18T13:39:39.259Z</time></trkpt><trkpt lat="44.8380308" lon="9.4842084"><ele>501.0</ele><time>2026-04-18T13:39:40.258Z</time></trkpt><trkpt lat="44.8379053" lon="9.4843407"><ele>501.0</ele><time>2026-04-18T13:39:41.258Z</time></trkpt><trkpt lat="44.8377721" lon="9.4843861"><ele>501.0</ele><time>2026-04-18T13:39:42.258Z</time></trkpt><trkpt lat="44.8376603" lon="9.484426"><ele>501.0</ele><time>2026-04-18T13:39:43.258Z</time></trkpt><trkpt lat="44.8375599" lon="9.4844903"><ele>501.0</ele><time>2026-04-18T13:39:44.258Z</time></trkpt><trkpt lat="44.8374701" lon="9.4845578"><ele>500.0</ele><time>2026-04-18T13:39:45.258Z</time></trkpt><trkpt lat="44.8374001" lon="9.4846176"><ele>499.0</ele><time>2026-04-18T13:39:46.258Z</time></trkpt><trkpt lat="44.837317" lon="9.4846277"><ele>498.0</ele><time>2026-04-18T13:39:47.258Z</time></trkpt><trkpt lat="44.8372341" lon="9.4846075"><ele>497.0</ele><time>2026-04-18T13:39:48.258Z</time></trkpt><trkpt lat="44.8371525" lon="9.4845662"><ele>496.0</ele><time>2026-04-18T13:39:49.259Z</time></trkpt><trkpt lat="44.8370681" lon="9.4845228"><ele>495.0</ele><time>2026-04-18T13:39:50.258Z</time></trkpt><trkpt lat="44.8369737" lon="9.4844992"><ele>497.6</ele><time>2026-04-18T13:39:51.258Z</time></trkpt><trkpt lat="44.8368828" lon="9.48448"><ele>500.2</ele><time>2026-04-18T13:39:52.259Z</time></trkpt><trkpt lat="44.8367941" lon="9.4844552"><ele>502.79999999999995</ele><time>2026-04-18T13:39:53.258Z</time></trkpt><trkpt lat="44.8367052" lon="9.4844236"><ele>505.4</ele><time>2026-04-18T13:39:54.258Z</time></trkpt><trkpt lat="44.8366194" lon="9.4843602"><ele>508.0</ele><time>2026-04-18T13:39:55.258Z</time></trkpt><trkpt lat="44.8365408" lon="9.4842802"><ele>509.79999999999995</ele><time>2026-04-18T13:39:56.258Z</time></trkpt><trkpt lat="44.836481" lon="9.4841883"><ele>511.59999999999997</ele><time>2026-04-18T13:39:57.258Z</time></trkpt><trkpt lat="44.8364157" lon="9.4840991"><ele>513.4000000000001</ele><time>2026-04-18T13:39:58.258Z</time></trkpt><trkpt lat="44.836367" lon="9.4839961"><ele>515.2</ele><time>2026-04-18T13:39:59.258Z</time></trkpt><trkpt lat="44.836315" lon="9.4838553"><ele>517.0</ele><time>2026-04-18T13:40:00.258Z</time></trkpt><trkpt lat="44.8362631" lon="9.4837443"><ele>518.8000000000001</ele><time>2026-04-18T13:40:01.258Z</time></trkpt><trkpt lat="44.8362316" lon="9.48363"><ele>520.6</ele><time>2026-04-18T13:40:02.259Z</time></trkpt><trkpt lat="44.8361922" lon="9.4835108"><ele>522.4000000000001</ele><time>2026-04-18T13:40:03.258Z</time></trkpt><trkpt lat="44.8361709" lon="9.4833896"><ele>524.2</ele><time>2026-04-18T13:40:04.259Z</time></trkpt><trkpt lat="44.8361606" lon="9.4832468"><ele>526.0</ele><time>2026-04-18T13:40:05.258Z</time></trkpt><trkpt lat="44.8361643" lon="9.4831108"><ele>526.0</ele><time>2026-04-18T13:40:06.258Z</time></trkpt><trkpt lat="44.8361775" lon="9.4829606"><ele>526.0</ele><time>2026-04-18T13:40:07.258Z</time></trkpt><trkpt lat="44.8362271" lon="9.4828368"><ele>526.0</ele><time>2026-04-18T13:40:08.258Z</time></trkpt><trkpt lat="44.8362569" lon="9.4827113"><ele>526.0</ele><time>2026-04-18T13:40:09.258Z</time></trkpt><trkpt lat="44.8362765" lon="9.4825913"><ele>526.0</ele><time>2026-04-18T13:40:10.258Z</time></trkpt><trkpt lat="44.8362794" lon="9.4824736"><ele>527.0</ele><time>2026-04-18T13:40:11.259Z</time></trkpt><trkpt lat="44.8362518" lon="9.4823686"><ele>528.0</ele><time>2026-04-18T13:40:12.259Z</time></trkpt><trkpt lat="44.8362084" lon="9.4822656"><ele>529.0</ele><time>2026-04-18T13:40:13.259Z</time></trkpt><trkpt lat="44.8361611" lon="9.482134"><ele>530.0</ele><time>2026-04-18T13:40:14.258Z</time></trkpt><trkpt lat="44.8361023" lon="9.4819814"><ele>531.0</ele><time>2026-04-18T13:40:15.258Z</time></trkpt><trkpt lat="44.8360485" lon="9.4818578"><ele>530.8</ele><time>2026-04-18T13:40:16.258Z</time></trkpt><trkpt lat="44.835982" lon="9.4817497"><ele>530.6</ele><time>2026-04-18T13:40:17.258Z</time></trkpt><trkpt lat="44.8359057" lon="9.4816646"><ele>530.4</ele><time>2026-04-18T13:40:18.258Z</time></trkpt><trkpt lat="44.8358243" lon="9.481609"><ele>530.2</ele><time>2026-04-18T13:40:19.258Z</time></trkpt><trkpt lat="44.8357159" lon="9.4815693"><ele>530.0</ele><time>2026-04-18T13:40:20.258Z</time></trkpt><trkpt lat="44.8355932" lon="9.4815356"><ele>530.0</ele><time>2026-04-18T13:40:21.258Z</time></trkpt><trkpt lat="44.8354783" lon="9.4815097"><ele>530.0</ele><time>2026-04-18T13:40:22.258Z</time></trkpt><trkpt lat="44.8353731" lon="9.4814845"><ele>530.0</ele><time>2026-04-18T13:40:23.259Z</time></trkpt><trkpt lat="44.8352586" lon="9.4814639"><ele>530.0</ele><time>2026-04-18T13:40:24.258Z</time></trkpt><trkpt lat="44.8351528" lon="9.481465"><ele>530.0</ele><time>2026-04-18T13:40:25.258Z</time></trkpt><trkpt lat="44.8350382" lon="9.4814737"><ele>528.8</ele><time>2026-04-18T13:40:26.258Z</time></trkpt><trkpt lat="44.8349359" lon="9.4814754"><ele>527.6</ele><time>2026-04-18T13:40:27.259Z</time></trkpt><trkpt lat="44.8348381" lon="9.4814585"><ele>526.4</ele><time>2026-04-18T13:40:28.259Z</time></trkpt><trkpt lat="44.8347438" lon="9.4814139"><ele>525.2</ele><time>2026-04-18T13:40:29.258Z</time></trkpt><trkpt lat="44.8346567" lon="9.4813482"><ele>524.0</ele><time>2026-04-18T13:40:30.258Z</time></trkpt><trkpt lat="44.8345636" lon="9.4812769"><ele>524.4</ele><time>2026-04-18T13:40:31.258Z</time></trkpt><trkpt lat="44.8344777" lon="9.4812006"><ele>524.8</ele><time>2026-04-18T13:40:32.259Z</time></trkpt><trkpt lat="44.8344021" lon="9.4811106"><ele>525.2</ele><time>2026-04-18T13:40:33.258Z</time></trkpt><trkpt lat="44.8343316" lon="9.4809863"><ele>525.6</ele><time>2026-04-18T13:40:34.258Z</time></trkpt><trkpt lat="44.8342736" lon="9.4808342"><ele>526.0</ele><time>2026-04-18T13:40:35.259Z</time></trkpt><trkpt lat="44.834232" lon="9.480663"><ele>526.0</ele><time>2026-04-18T13:40:36.258Z</time></trkpt><trkpt lat="44.8341803" lon="9.4804812"><ele>526.0</ele><time>2026-04-18T13:40:37.259Z</time></trkpt><trkpt lat="44.8341116" lon="9.4803085"><ele>526.0</ele><time>2026-04-18T13:40:38.258Z</time></trkpt><trkpt lat="44.8340491" lon="9.4801526"><ele>526.0</ele><time>2026-04-18T13:40:39.258Z</time></trkpt><trkpt lat="44.8339824" lon="9.4800034"><ele>530.75</ele><time>2026-04-18T13:40:40.258Z</time></trkpt><trkpt lat="44.8338965" lon="9.4798146"><ele>535.5</ele><time>2026-04-18T13:40:41.258Z</time></trkpt><trkpt lat="44.8338142" lon="9.4796859"><ele>540.25</ele><time>2026-04-18T13:40:42.259Z</time></trkpt><trkpt lat="44.8337294" lon="9.4795728"><ele>545.0</ele><time>2026-04-18T13:40:43.258Z</time></trkpt><trkpt lat="44.8336744" lon="9.479464"><ele>549.2</ele><time>2026-04-18T13:40:44.259Z</time></trkpt><trkpt lat="44.8336344" lon="9.4793405"><ele>553.4</ele><time>2026-04-18T13:40:45.258Z</time></trkpt><trkpt lat="44.8336167" lon="9.4791836"><ele>557.6</ele><time>2026-04-18T13:40:46.258Z</time></trkpt><trkpt lat="44.8336045" lon="9.4790157"><ele>561.8</ele><time>2026-04-18T13:40:47.259Z</time></trkpt><trkpt lat="44.8335869" lon="9.4788537"><ele>566.0</ele><time>2026-04-18T13:40:48.259Z</time></trkpt><trkpt lat="44.8335634" lon="9.4786902"><ele>567.2</ele><time>2026-04-18T13:40:49.258Z</time></trkpt><trkpt lat="44.8335302" lon="9.4785328"><ele>568.4000000000001</ele><time>2026-04-18T13:40:50.258Z</time></trkpt><trkpt lat="44.8335072" lon="9.478396"><ele>569.6</ele><time>2026-04-18T13:40:51.258Z</time></trkpt><trkpt lat="44.8335105" lon="9.4782675"><ele>570.8000000000001</ele><time>2026-04-18T13:40:52.258Z</time></trkpt><trkpt lat="44.833548" lon="9.4781419"><ele>572.0</ele><time>2026-04-18T13:40:53.259Z</time></trkpt><trkpt lat="44.8335992" lon="9.478005"><ele>572.2</ele><time>2026-04-18T13:40:54.259Z</time></trkpt><trkpt lat="44.8336352" lon="9.4778402"><ele>572.4000000000001</ele><time>2026-04-18T13:40:55.258Z</time></trkpt><trkpt lat="44.8336562" lon="9.4776799"><ele>572.5999999999999</ele><time>2026-04-18T13:40:56.259Z</time></trkpt><trkpt lat="44.8336699" lon="9.4775364"><ele>572.8</ele><time>2026-04-18T13:40:57.259Z</time></trkpt><trkpt lat="44.8336914" lon="9.4773961"><ele>573.0</ele><time>2026-04-18T13:40:58.259Z</time></trkpt><trkpt lat="44.8337131" lon="9.4772692"><ele>573.0</ele><time>2026-04-18T13:40:59.258Z</time></trkpt><trkpt lat="44.8337174" lon="9.4771321"><ele>573.0</ele><time>2026-04-18T13:41:00.258Z</time></trkpt><trkpt lat="44.8337139" lon="9.4770146"><ele>573.0</ele><time>2026-04-18T13:41:01.258Z</time></trkpt><trkpt lat="44.8337129" lon="9.4769057"><ele>573.0</ele><time>2026-04-18T13:41:02.258Z</time></trkpt><trkpt lat="44.833715" lon="9.476803"><ele>573.0</ele><time>2026-04-18T13:41:03.258Z</time></trkpt><trkpt lat="44.8337293" lon="9.4766468"><ele>573.0</ele><time>2026-04-18T13:41:05.258Z</time></trkpt><trkpt lat="44.8337496" lon="9.4765455"><ele>572.6666666666666</ele><time>2026-04-18T13:41:07.259Z</time></trkpt><trkpt lat="44.8337742" lon="9.4764348"><ele>572.3333333333334</ele><time>2026-04-18T13:41:10.258Z</time></trkpt><trkpt lat="44.8338081" lon="9.4763058"><ele>572.0</ele><time>2026-04-18T13:41:14.259Z</time></trkpt><trkpt lat="44.8338294" lon="9.4761888"><ele>571.6666666666667</ele><time>2026-04-18T13:41:16.258Z</time></trkpt><trkpt lat="44.8338342" lon="9.4760645"><ele>571.3333333333334</ele><time>2026-04-18T13:41:18.258Z</time></trkpt><trkpt lat="44.8338236" lon="9.475951"><ele>571.0</ele><time>2026-04-18T13:41:20.258Z</time></trkpt><trkpt lat="44.8338095" lon="9.47579"><ele>570.6666666666667</ele><time>2026-04-18T13:41:22.258Z</time></trkpt><trkpt lat="44.8337992" lon="9.4756696"><ele>570.3333333333334</ele><time>2026-04-18T13:41:24.258Z</time></trkpt><trkpt lat="44.8337778" lon="9.4755531"><ele>570.0</ele><time>2026-04-18T13:41:26.258Z</time></trkpt><trkpt lat="44.8337557" lon="9.475437"><ele>569.6666666666666</ele><time>2026-04-18T13:41:28.259Z</time></trkpt><trkpt lat="44.8337393" lon="9.4753329"><ele>569.3333333333333</ele><time>2026-04-18T13:41:30.259Z</time></trkpt><trkpt lat="44.8337465" lon="9.4752146"><ele>569.0</ele><time>2026-04-18T13:41:45.258Z</time></trkpt><trkpt lat="44.8337889" lon="9.4751263"><ele>568.8333333333333</ele><time>2026-04-18T13:41:47.259Z</time></trkpt><trkpt lat="44.833832" lon="9.4750482"><ele>568.6666666666666</ele><time>2026-04-18T13:41:50.258Z</time></trkpt><trkpt lat="44.8338959" lon="9.4750108"><ele>568.5</ele><time>2026-04-18T13:41:52.259Z</time></trkpt><trkpt lat="44.8340165" lon="9.47499"><ele>568.3333333333334</ele><time>2026-04-18T13:42:18.258Z</time></trkpt><trkpt lat="44.8340929" lon="9.4749698"><ele>568.1666666666667</ele><time>2026-04-18T13:42:19.258Z</time></trkpt><trkpt lat="44.8341731" lon="9.4749289"><ele>568.0</ele><time>2026-04-18T13:42:20.258Z</time></trkpt><trkpt lat="44.8342694" lon="9.4748543"><ele>569.75</ele><time>2026-04-18T13:42:21.259Z</time></trkpt><trkpt lat="44.8343769" lon="9.4747559"><ele>571.5</ele><time>2026-04-18T13:42:22.258Z</time></trkpt><trkpt lat="44.8344748" lon="9.4746575"><ele>573.25</ele><time>2026-04-18T13:42:23.258Z</time></trkpt><trkpt lat="44.8345778" lon="9.4745527"><ele>575.0</ele><time>2026-04-18T13:42:24.258Z</time></trkpt><trkpt lat="44.8346886" lon="9.4744484"><ele>575.0</ele><time>2026-04-18T13:42:25.258Z</time></trkpt><trkpt lat="44.8348002" lon="9.4743362"><ele>575.0</ele><time>2026-04-18T13:42:26.258Z</time></trkpt><trkpt lat="44.8349025" lon="9.4742003"><ele>575.0</ele><time>2026-04-18T13:42:27.258Z</time></trkpt><trkpt lat="44.8349901" lon="9.474065"><ele>575.0</ele><time>2026-04-18T13:42:28.258Z</time></trkpt><trkpt lat="44.8350631" lon="9.4739194"><ele>574.5</ele><time>2026-04-18T13:42:29.258Z</time></trkpt><trkpt lat="44.8351175" lon="9.473749"><ele>574.0</ele><time>2026-04-18T13:42:30.258Z</time></trkpt><trkpt lat="44.8351682" lon="9.4735765"><ele>573.5</ele><time>2026-04-18T13:42:31.258Z</time></trkpt><trkpt lat="44.835208" lon="9.4734174"><ele>573.0</ele><time>2026-04-18T13:42:32.258Z</time></trkpt><trkpt lat="44.8352179" lon="9.4732622"><ele>576.4</ele><time>2026-04-18T13:42:33.258Z</time></trkpt><trkpt lat="44.8352269" lon="9.4731412"><ele>579.8</ele><time>2026-04-18T13:42:34.259Z</time></trkpt><trkpt lat="44.8353017" lon="9.4730803"><ele>583.2</ele><time>2026-04-18T13:42:36.258Z</time></trkpt><trkpt lat="44.8353428" lon="9.4732527"><ele>586.6</ele><time>2026-04-18T13:42:38.258Z</time></trkpt><trkpt lat="44.8353524" lon="9.4733929"><ele>590.0</ele><time>2026-04-18T13:42:39.258Z</time></trkpt><trkpt lat="44.8353644" lon="9.4735443"><ele>590.0</ele><time>2026-04-18T13:42:40.258Z</time></trkpt><trkpt lat="44.8353828" lon="9.4737066"><ele>590.0</ele><time>2026-04-18T13:42:41.258Z</time></trkpt><trkpt lat="44.8354161" lon="9.4738635"><ele>590.0</ele><time>2026-04-18T13:42:42.258Z</time></trkpt><trkpt lat="44.8354588" lon="9.4740185"><ele>590.0</ele><time>2026-04-18T13:42:43.258Z</time></trkpt><trkpt lat="44.8354963" lon="9.474176"><ele>590.5</ele><time>2026-04-18T13:42:44.258Z</time></trkpt><trkpt lat="44.8355171" lon="9.4743358"><ele>591.0</ele><time>2026-04-18T13:42:45.258Z</time></trkpt><trkpt lat="44.8355112" lon="9.4744997"><ele>591.5</ele><time>2026-04-18T13:42:46.258Z</time></trkpt><trkpt lat="44.8354863" lon="9.4746631"><ele>592.0</ele><time>2026-04-18T13:42:47.258Z</time></trkpt><trkpt lat="44.8354456" lon="9.4748294"><ele>593.0</ele><time>2026-04-18T13:42:48.258Z</time></trkpt><trkpt lat="44.8354029" lon="9.4749835"><ele>594.0</ele><time>2026-04-18T13:42:49.258Z</time></trkpt><trkpt lat="44.8353789" lon="9.475138"><ele>595.0</ele><time>2026-04-18T13:42:50.258Z</time></trkpt><trkpt lat="44.8353808" lon="9.4752901"><ele>596.0</ele><time>2026-04-18T13:42:51.258Z</time></trkpt><trkpt lat="44.8354022" lon="9.4754207"><ele>597.0</ele><time>2026-04-18T13:42:52.258Z</time></trkpt><trkpt lat="44.83544" lon="9.4755229"><ele>597.0</ele><time>2026-04-18T13:42:53.258Z</time></trkpt><trkpt lat="44.8354901" lon="9.4755877"><ele>597.0</ele><time>2026-04-18T13:42:54.258Z</time></trkpt><trkpt lat="44.8355902" lon="9.4755588"><ele>597.0</ele><time>2026-04-18T13:42:56.258Z</time></trkpt><trkpt lat="44.8356404" lon="9.4754569"><ele>597.0</ele><time>2026-04-18T13:42:57.258Z</time></trkpt><trkpt lat="44.8357055" lon="9.4753171"><ele>597.0</ele><time>2026-04-18T13:42:58.258Z</time></trkpt><trkpt lat="44.8357782" lon="9.4752016"><ele>597.0</ele><time>2026-04-18T13:42:59.258Z</time></trkpt><trkpt lat="44.8358606" lon="9.4750964"><ele>597.0</ele><time>2026-04-18T13:43:00.259Z</time></trkpt><trkpt lat="44.8359518" lon="9.4750041"><ele>597.0</ele><time>2026-04-18T13:43:01.258Z</time></trkpt><trkpt lat="44.8360573" lon="9.4749353"><ele>597.0</ele><time>2026-04-18T13:43:02.258Z</time></trkpt><trkpt lat="44.8361772" lon="9.4748878"><ele>602.25</ele><time>2026-04-18T13:43:03.259Z</time></trkpt><trkpt lat="44.8363008" lon="9.4748599"><ele>607.5</ele><time>2026-04-18T13:43:04.259Z</time></trkpt><trkpt lat="44.8364322" lon="9.4748198"><ele>612.75</ele><time>2026-04-18T13:43:05.259Z</time></trkpt><trkpt lat="44.8365614" lon="9.4747542"><ele>618.0</ele><time>2026-04-18T13:43:06.258Z</time></trkpt><trkpt lat="44.8366866" lon="9.4746752"><ele>618.5</ele><time>2026-04-18T13:43:07.258Z</time></trkpt><trkpt lat="44.8368094" lon="9.4746049"><ele>619.0</ele><time>2026-04-18T13:43:08.258Z</time></trkpt><trkpt lat="44.8369285" lon="9.4745352"><ele>619.5</ele><time>2026-04-18T13:43:09.258Z</time></trkpt><trkpt lat="44.8370389" lon="9.4744319"><ele>620.0</ele><time>2026-04-18T13:43:10.258Z</time></trkpt><trkpt lat="44.837143" lon="9.4743126"><ele>620.0</ele><time>2026-04-18T13:43:11.258Z</time></trkpt><trkpt lat="44.8372498" lon="9.4741871"><ele>620.0</ele><time>2026-04-18T13:43:12.259Z</time></trkpt><trkpt lat="44.8373557" lon="9.4740588"><ele>620.0</ele><time>2026-04-18T13:43:13.258Z</time></trkpt><trkpt lat="44.8374619" lon="9.4739236"><ele>620.0</ele><time>2026-04-18T13:43:14.259Z</time></trkpt><trkpt lat="44.8375529" lon="9.4737991"><ele>622.5</ele><time>2026-04-18T13:43:15.258Z</time></trkpt><trkpt lat="44.8376492" lon="9.4736929"><ele>625.0</ele><time>2026-04-18T13:43:16.258Z</time></trkpt><trkpt lat="44.837758" lon="9.4736105"><ele>627.5</ele><time>2026-04-18T13:43:17.258Z</time></trkpt><trkpt lat="44.8378588" lon="9.4735377"><ele>630.0</ele><time>2026-04-18T13:43:18.258Z</time></trkpt><trkpt lat="44.8379418" lon="9.4734546"><ele>630.0</ele><time>2026-04-18T13:43:19.258Z</time></trkpt><trkpt lat="44.8380061" lon="9.4733327"><ele>630.0</ele><time>2026-04-18T13:43:20.258Z</time></trkpt><trkpt lat="44.8380591" lon="9.4731765"><ele>630.0</ele><time>2026-04-18T13:43:21.258Z</time></trkpt><trkpt lat="44.838091" lon="9.4730056"><ele>630.0</ele><time>2026-04-18T13:43:22.258Z</time></trkpt><trkpt lat="44.8381031" lon="9.4728258"><ele>629.75</ele><time>2026-04-18T13:43:23.258Z</time></trkpt><trkpt lat="44.8381086" lon="9.4726471"><ele>629.5</ele><time>2026-04-18T13:43:24.259Z</time></trkpt><trkpt lat="44.8381225" lon="9.4724691"><ele>629.25</ele><time>2026-04-18T13:43:25.258Z</time></trkpt><trkpt lat="44.8381465" lon="9.4722871"><ele>629.0</ele><time>2026-04-18T13:43:26.258Z</time></trkpt><trkpt lat="44.8382286" lon="9.472106"><ele>629.0</ele><time>2026-04-18T13:43:27.258Z</time></trkpt><trkpt lat="44.8382994" lon="9.4719348"><ele>629.0</ele><time>2026-04-18T13:43:28.258Z</time></trkpt><trkpt lat="44.8383803" lon="9.4717561"><ele>629.0</ele><time>2026-04-18T13:43:29.258Z</time></trkpt><trkpt lat="44.8384601" lon="9.4715808"><ele>629.0</ele><time>2026-04-18T13:43:30.258Z</time></trkpt><trkpt lat="44.8385293" lon="9.471419"><ele>631.8</ele><time>2026-04-18T13:43:31.258Z</time></trkpt><trkpt lat="44.8385786" lon="9.4712695"><ele>634.5999999999999</ele><time>2026-04-18T13:43:32.258Z</time></trkpt><trkpt lat="44.8385943" lon="9.4711307"><ele>637.4</ele><time>2026-04-18T13:43:33.259Z</time></trkpt><trkpt lat="44.8385759" lon="9.4709996"><ele>640.1999999999999</ele><time>2026-04-18T13:43:34.258Z</time></trkpt><trkpt lat="44.8385347" lon="9.470858"><ele>643.0</ele><time>2026-04-18T13:43:35.258Z</time></trkpt><trkpt lat="44.8384955" lon="9.4707101"><ele>643.0</ele><time>2026-04-18T13:43:36.258Z</time></trkpt><trkpt lat="44.8384812" lon="9.4705593"><ele>643.0</ele><time>2026-04-18T13:43:37.258Z</time></trkpt><trkpt lat="44.8384921" lon="9.4704032"><ele>643.0</ele><time>2026-04-18T13:43:38.258Z</time></trkpt><trkpt lat="44.8385253" lon="9.4702427"><ele>643.0</ele><time>2026-04-18T13:43:39.258Z</time></trkpt><trkpt lat="44.8385602" lon="9.4701365"><ele>643.0</ele><time>2026-04-18T13:43:40.258Z</time></trkpt><trkpt lat="44.8386138" lon="9.4700716"><ele>641.5</ele><time>2026-04-18T13:43:41.258Z</time></trkpt><trkpt lat="44.8386779" lon="9.4700763"><ele>640.0</ele><time>2026-04-18T13:43:42.259Z</time></trkpt><trkpt lat="44.8387435" lon="9.470135"><ele>638.5</ele><time>2026-04-18T13:43:43.258Z</time></trkpt><trkpt lat="44.8388194" lon="9.4702323"><ele>637.0</ele><time>2026-04-18T13:43:44.258Z</time></trkpt><trkpt lat="44.8389024" lon="9.470297"><ele>635.5</ele><time>2026-04-18T13:43:45.258Z</time></trkpt><trkpt lat="44.8389954" lon="9.4703329"><ele>634.0</ele><time>2026-04-18T13:43:46.259Z</time></trkpt><trkpt lat="44.8391171" lon="9.4703585"><ele>634.0</ele><time>2026-04-18T13:43:47.258Z</time></trkpt><trkpt lat="44.8392214" lon="9.4703754"><ele>634.0</ele><time>2026-04-18T13:43:48.259Z</time></trkpt><trkpt lat="44.8393269" lon="9.4704175"><ele>634.0</ele><time>2026-04-18T13:43:49.259Z</time></trkpt><trkpt lat="44.839415" lon="9.4704834"><ele>634.0</ele><time>2026-04-18T13:43:50.259Z</time></trkpt><trkpt lat="44.8394798" lon="9.4705848"><ele>634.0</ele><time>2026-04-18T13:43:51.259Z</time></trkpt><trkpt lat="44.8395279" lon="9.4707073"><ele>636.6666666666667</ele><time>2026-04-18T13:43:52.258Z</time></trkpt><trkpt lat="44.8395653" lon="9.470841"><ele>639.3333333333334</ele><time>2026-04-18T13:43:53.258Z</time></trkpt><trkpt lat="44.8395963" lon="9.4709719"><ele>642.0</ele><time>2026-04-18T13:43:54.258Z</time></trkpt><trkpt lat="44.8396169" lon="9.4710805"><ele>644.6666666666666</ele><time>2026-04-18T13:43:55.259Z</time></trkpt><trkpt lat="44.8396335" lon="9.4711686"><ele>647.3333333333333</ele><time>2026-04-18T13:43:56.258Z</time></trkpt><trkpt lat="44.8397154" lon="9.4712284"><ele>650.0</ele><time>2026-04-18T13:43:58.259Z</time></trkpt><trkpt lat="44.8398042" lon="9.4711489"><ele>650.0</ele><time>2026-04-18T13:44:00.258Z</time></trkpt><trkpt lat="44.8398603" lon="9.4710803"><ele>650.0</ele><time>2026-04-18T13:44:01.258Z</time></trkpt><trkpt lat="44.8399247" lon="9.4709995"><ele>650.0</ele><time>2026-04-18T13:44:02.259Z</time></trkpt><trkpt lat="44.8399966" lon="9.4709086"><ele>650.0</ele><time>2026-04-18T13:44:03.258Z</time></trkpt><trkpt lat="44.8400729" lon="9.4708133"><ele>650.0</ele><time>2026-04-18T13:44:04.258Z</time></trkpt><trkpt lat="44.8401596" lon="9.470708"><ele>648.5</ele><time>2026-04-18T13:44:05.258Z</time></trkpt><trkpt lat="44.8402557" lon="9.4705954"><ele>647.0</ele><time>2026-04-18T13:44:06.259Z</time></trkpt><trkpt lat="44.8403578" lon="9.4704953"><ele>645.5</ele><time>2026-04-18T13:44:07.258Z</time></trkpt><trkpt lat="44.8404623" lon="9.4704054"><ele>644.0</ele><time>2026-04-18T13:44:08.258Z</time></trkpt><trkpt lat="44.8405697" lon="9.4703346"><ele>644.0</ele><time>2026-04-18T13:44:09.258Z</time></trkpt><trkpt lat="44.8406749" lon="9.4702905"><ele>644.0</ele><time>2026-04-18T13:44:10.258Z</time></trkpt><trkpt lat="44.8407723" lon="9.4702724"><ele>644.0</ele><time>2026-04-18T13:44:11.258Z</time></trkpt><trkpt lat="44.8408754" lon="9.4702809"><ele>644.0</ele><time>2026-04-18T13:44:12.259Z</time></trkpt><trkpt lat="44.8409826" lon="9.4703078"><ele>644.0</ele><time>2026-04-18T13:44:13.258Z</time></trkpt><trkpt lat="44.8410905" lon="9.4703518"><ele>644.2</ele><time>2026-04-18T13:44:14.258Z</time></trkpt><trkpt lat="44.8411927" lon="9.4703875"><ele>644.4000000000001</ele><time>2026-04-18T13:44:15.258Z</time></trkpt><trkpt lat="44.8413024" lon="9.470403"><ele>644.6</ele><time>2026-04-18T13:44:16.258Z</time></trkpt><trkpt lat="44.8414171" lon="9.4703977"><ele>644.8</ele><time>2026-04-18T13:44:17.259Z</time></trkpt><trkpt lat="44.8415297" lon="9.4703928"><ele>645.0</ele><time>2026-04-18T13:44:18.258Z</time></trkpt><trkpt lat="44.8416374" lon="9.4703896"><ele>645.0</ele><time>2026-04-18T13:44:19.258Z</time></trkpt><trkpt lat="44.8417472" lon="9.4703803"><ele>645.0</ele><time>2026-04-18T13:44:20.258Z</time></trkpt><trkpt lat="44.8418571" lon="9.470381"><ele>645.0</ele><time>2026-04-18T13:44:21.258Z</time></trkpt><trkpt lat="44.8419679" lon="9.4703991"><ele>645.0</ele><time>2026-04-18T13:44:22.258Z</time></trkpt><trkpt lat="44.8420796" lon="9.4704323"><ele>645.0</ele><time>2026-04-18T13:44:23.258Z</time></trkpt><trkpt lat="44.8421963" lon="9.4704703"><ele>645.75</ele><time>2026-04-18T13:44:24.259Z</time></trkpt><trkpt lat="44.8423184" lon="9.4704917"><ele>646.5</ele><time>2026-04-18T13:44:25.258Z</time></trkpt><trkpt lat="44.8424418" lon="9.470472"><ele>647.25</ele><time>2026-04-18T13:44:26.259Z</time></trkpt><trkpt lat="44.8425669" lon="9.4704207"><ele>648.0</ele><time>2026-04-18T13:44:27.258Z</time></trkpt><trkpt lat="44.8426918" lon="9.4703469"><ele>650.25</ele><time>2026-04-18T13:44:28.258Z</time></trkpt><trkpt lat="44.8428118" lon="9.4702516"><ele>652.5</ele><time>2026-04-18T13:44:29.258Z</time></trkpt><trkpt lat="44.8429213" lon="9.4701564"><ele>654.75</ele><time>2026-04-18T13:44:30.258Z</time></trkpt><trkpt lat="44.8430406" lon="9.4700643"><ele>657.0</ele><time>2026-04-18T13:44:31.258Z</time></trkpt><trkpt lat="44.8431666" lon="9.4699905"><ele>657.0</ele><time>2026-04-18T13:44:32.258Z</time></trkpt><trkpt lat="44.8432923" lon="9.4699272"><ele>657.0</ele><time>2026-04-18T13:44:33.259Z</time></trkpt><trkpt lat="44.8434116" lon="9.4698539"><ele>657.0</ele><time>2026-04-18T13:44:34.258Z</time></trkpt><trkpt lat="44.8435289" lon="9.4697816"><ele>657.0</ele><time>2026-04-18T13:44:35.258Z</time></trkpt><trkpt lat="44.8436433" lon="9.4697289"><ele>658.25</ele><time>2026-04-18T13:44:36.259Z</time></trkpt><trkpt lat="44.8437506" lon="9.4696617"><ele>659.5</ele><time>2026-04-18T13:44:37.258Z</time></trkpt><trkpt lat="44.8438376" lon="9.4695485"><ele>660.75</ele><time>2026-04-18T13:44:38.258Z</time></trkpt><trkpt lat="44.8439059" lon="9.4693882"><ele>662.0</ele><time>2026-04-18T13:44:39.258Z</time></trkpt><trkpt lat="44.8439685" lon="9.4692119"><ele>662.0</ele><time>2026-04-18T13:44:40.258Z</time></trkpt><trkpt lat="44.8440352" lon="9.4690608"><ele>662.0</ele><time>2026-04-18T13:44:41.259Z</time></trkpt><trkpt lat="44.8441204" lon="9.4689168"><ele>662.0</ele><time>2026-04-18T13:44:42.259Z</time></trkpt><trkpt lat="44.8442027" lon="9.4687774"><ele>662.0</ele><time>2026-04-18T13:44:43.258Z</time></trkpt><trkpt lat="44.8442949" lon="9.468649"><ele>661.5</ele><time>2026-04-18T13:44:44.258Z</time></trkpt><trkpt lat="44.8444044" lon="9.4685488"><ele>661.0</ele><time>2026-04-18T13:44:45.258Z</time></trkpt><trkpt lat="44.8445304" lon="9.4684809"><ele>660.5</ele><time>2026-04-18T13:44:46.258Z</time></trkpt><trkpt lat="44.8446694" lon="9.4684305"><ele>660.0</ele><time>2026-04-18T13:44:47.258Z</time></trkpt><trkpt lat="44.8448007" lon="9.4683691"><ele>660.0</ele><time>2026-04-18T13:44:48.258Z</time></trkpt><trkpt lat="44.8449198" lon="9.4682951"><ele>660.0</ele><time>2026-04-18T13:44:49.258Z</time></trkpt><trkpt lat="44.8450362" lon="9.4682256"><ele>660.0</ele><time>2026-04-18T13:44:50.258Z</time></trkpt><trkpt lat="44.8451577" lon="9.468167"><ele>660.0</ele><time>2026-04-18T13:44:51.259Z</time></trkpt><trkpt lat="44.8452875" lon="9.4681215"><ele>660.25</ele><time>2026-04-18T13:44:52.259Z</time></trkpt><trkpt lat="44.8454094" lon="9.4680654"><ele>660.5</ele><time>2026-04-18T13:44:53.258Z</time></trkpt><trkpt lat="44.8455063" lon="9.467981"><ele>660.75</ele><time>2026-04-18T13:44:54.258Z</time></trkpt><trkpt lat="44.8455732" lon="9.4678707"><ele>661.0</ele><time>2026-04-18T13:44:55.258Z</time></trkpt><trkpt lat="44.8456291" lon="9.4677127"><ele>661.0</ele><time>2026-04-18T13:44:56.258Z</time></trkpt><trkpt lat="44.8456775" lon="9.4675229"><ele>661.0</ele><time>2026-04-18T13:44:57.259Z</time></trkpt><trkpt lat="44.8457251" lon="9.4673377"><ele>661.0</ele><time>2026-04-18T13:44:58.258Z</time></trkpt><trkpt lat="44.8457772" lon="9.4671669"><ele>661.0</ele><time>2026-04-18T13:44:59.258Z</time></trkpt><trkpt lat="44.8458296" lon="9.4670021"><ele>659.75</ele><time>2026-04-18T13:45:00.258Z</time></trkpt><trkpt lat="44.8458813" lon="9.4668483"><ele>658.5</ele><time>2026-04-18T13:45:01.259Z</time></trkpt><trkpt lat="44.8459408" lon="9.4667078"><ele>657.25</ele><time>2026-04-18T13:45:02.258Z</time></trkpt><trkpt lat="44.8460269" lon="9.4665803"><ele>656.0</ele><time>2026-04-18T13:45:03.258Z</time></trkpt><trkpt lat="44.8461397" lon="9.4664607"><ele>657.25</ele><time>2026-04-18T13:45:04.258Z</time></trkpt><trkpt lat="44.8462468" lon="9.466339"><ele>658.5</ele><time>2026-04-18T13:45:05.258Z</time></trkpt><trkpt lat="44.846338" lon="9.466182"><ele>659.75</ele><time>2026-04-18T13:45:06.258Z</time></trkpt><trkpt lat="44.8464131" lon="9.4660256"><ele>661.0</ele><time>2026-04-18T13:45:07.258Z</time></trkpt><trkpt lat="44.8464926" lon="9.4659124"><ele>661.0</ele><time>2026-04-18T13:45:08.258Z</time></trkpt><trkpt lat="44.8465884" lon="9.4658338"><ele>661.0</ele><time>2026-04-18T13:45:09.259Z</time></trkpt><trkpt lat="44.8467078" lon="9.4657612"><ele>661.0</ele><time>2026-04-18T13:45:10.258Z</time></trkpt><trkpt lat="44.8468212" lon="9.4656843"><ele>661.0</ele><time>2026-04-18T13:45:11.259Z</time></trkpt><trkpt lat="44.84693" lon="9.4655908"><ele>661.75</ele><time>2026-04-18T13:45:12.258Z</time></trkpt><trkpt lat="44.8470337" lon="9.4654937"><ele>662.5</ele><time>2026-04-18T13:45:13.258Z</time></trkpt><trkpt lat="44.8471325" lon="9.4653939"><ele>663.25</ele><time>2026-04-18T13:45:14.259Z</time></trkpt><trkpt lat="44.8472201" lon="9.4652987"><ele>664.0</ele><time>2026-04-18T13:45:15.259Z</time></trkpt><trkpt lat="44.8472973" lon="9.4652066"><ele>664.0</ele><time>2026-04-18T13:45:16.258Z</time></trkpt><trkpt lat="44.8473631" lon="9.4651174"><ele>664.0</ele><time>2026-04-18T13:45:17.259Z</time></trkpt><trkpt lat="44.8474208" lon="9.46504"><ele>664.0</ele><time>2026-04-18T13:45:18.258Z</time></trkpt><trkpt lat="44.847474" lon="9.4649819"><ele>664.0</ele><time>2026-04-18T13:45:19.258Z</time></trkpt><trkpt lat="44.8475633" lon="9.4648906"><ele>664.0</ele><time>2026-04-18T13:45:21.258Z</time></trkpt><trkpt lat="44.8476145" lon="9.4648037"><ele>664.0</ele><time>2026-04-18T13:45:22.259Z</time></trkpt><trkpt lat="44.8476601" lon="9.4646876"><ele>662.8333333333334</ele><time>2026-04-18T13:45:23.258Z</time></trkpt><trkpt lat="44.847705" lon="9.4645592"><ele>661.6666666666667</ele><time>2026-04-18T13:45:24.259Z</time></trkpt><trkpt lat="44.8477389" lon="9.464472"><ele>660.5</ele><time>2026-04-18T13:45:25.259Z</time></trkpt><trkpt lat="44.8477728" lon="9.4643804"><ele>659.3333333333334</ele><time>2026-04-18T13:45:26.258Z</time></trkpt><trkpt lat="44.8478059" lon="9.4642837"><ele>658.1666666666666</ele><time>2026-04-18T13:45:27.259Z</time></trkpt><trkpt lat="44.8478438" lon="9.4641888"><ele>657.0</ele><time>2026-04-18T13:45:28.259Z</time></trkpt><trkpt lat="44.8478841" lon="9.4640864"><ele>657.0</ele><time>2026-04-18T13:45:29.258Z</time></trkpt><trkpt lat="44.8479196" lon="9.4639974"><ele>657.0</ele><time>2026-04-18T13:45:30.259Z</time></trkpt><trkpt lat="44.8479573" lon="9.4639071"><ele>657.0</ele><time>2026-04-18T13:45:31.258Z</time></trkpt><trkpt lat="44.8480039" lon="9.4638053"><ele>657.0</ele><time>2026-04-18T13:45:32.258Z</time></trkpt><trkpt lat="44.8480503" lon="9.4637032"><ele>657.0</ele><time>2026-04-18T13:45:33.258Z</time></trkpt><trkpt lat="44.8480984" lon="9.4636033"><ele>657.0</ele><time>2026-04-18T13:45:34.258Z</time></trkpt><trkpt lat="44.8481516" lon="9.4634997"><ele>657.8333333333334</ele><time>2026-04-18T13:45:35.258Z</time></trkpt><trkpt lat="44.848205" lon="9.4633944"><ele>658.6666666666666</ele><time>2026-04-18T13:45:36.258Z</time></trkpt><trkpt lat="44.8482554" lon="9.4632938"><ele>659.5</ele><time>2026-04-18T13:45:37.258Z</time></trkpt><trkpt lat="44.8483003" lon="9.463192"><ele>660.3333333333333</ele><time>2026-04-18T13:45:38.258Z</time></trkpt><trkpt lat="44.8483361" lon="9.4630842"><ele>661.1666666666666</ele><time>2026-04-18T13:45:39.258Z</time></trkpt><trkpt lat="44.8483669" lon="9.4629635"><ele>662.0</ele><time>2026-04-18T13:45:40.258Z</time></trkpt><trkpt lat="44.8483944" lon="9.4628293"><ele>662.0</ele><time>2026-04-18T13:45:41.259Z</time></trkpt><trkpt lat="44.8484159" lon="9.4626932"><ele>662.0</ele><time>2026-04-18T13:45:42.258Z</time></trkpt><trkpt lat="44.848435" lon="9.4625493"><ele>662.0</ele><time>2026-04-18T13:45:43.259Z</time></trkpt><trkpt lat="44.8484547" lon="9.4624027"><ele>662.0</ele><time>2026-04-18T13:45:44.258Z</time></trkpt><trkpt lat="44.8484768" lon="9.4622537"><ele>662.0</ele><time>2026-04-18T13:45:45.259Z</time></trkpt><trkpt lat="44.8484999" lon="9.462098"><ele>660.8</ele><time>2026-04-18T13:45:46.259Z</time></trkpt><trkpt lat="44.8485214" lon="9.4619449"><ele>659.6</ele><time>2026-04-18T13:45:47.258Z</time></trkpt><trkpt lat="44.8485437" lon="9.4617889"><ele>658.4</ele><time>2026-04-18T13:45:48.258Z</time></trkpt><trkpt lat="44.8485676" lon="9.4616364"><ele>657.1999999999999</ele><time>2026-04-18T13:45:49.258Z</time></trkpt><trkpt lat="44.8485926" lon="9.4614893"><ele>656.0</ele><time>2026-04-18T13:45:50.258Z</time></trkpt><trkpt lat="44.8486179" lon="9.461343"><ele>656.5</ele><time>2026-04-18T13:45:51.258Z</time></trkpt><trkpt lat="44.8486427" lon="9.4611906"><ele>657.0</ele><time>2026-04-18T13:45:52.258Z</time></trkpt><trkpt lat="44.8486686" lon="9.4610349"><ele>657.5</ele><time>2026-04-18T13:45:53.259Z</time></trkpt><trkpt lat="44.8486949" lon="9.4608811"><ele>658.0</ele><time>2026-04-18T13:45:54.258Z</time></trkpt><trkpt lat="44.8487233" lon="9.4607223"><ele>658.0</ele><time>2026-04-18T13:45:55.259Z</time></trkpt><trkpt lat="44.8487525" lon="9.4605629"><ele>658.0</ele><time>2026-04-18T13:45:56.258Z</time></trkpt><trkpt lat="44.8487759" lon="9.4603967"><ele>658.0</ele><time>2026-04-18T13:45:57.258Z</time></trkpt><trkpt lat="44.8487868" lon="9.4602255"><ele>658.0</ele><time>2026-04-18T13:45:58.258Z</time></trkpt><trkpt lat="44.8487943" lon="9.4600655"><ele>659.25</ele><time>2026-04-18T13:45:59.259Z</time></trkpt><trkpt lat="44.8488017" lon="9.4599054"><ele>660.5</ele><time>2026-04-18T13:46:00.258Z</time></trkpt><trkpt lat="44.8488189" lon="9.4597406"><ele>661.75</ele><time>2026-04-18T13:46:01.257Z</time></trkpt><trkpt lat="44.8488479" lon="9.4595765"><ele>663.0</ele><time>2026-04-18T13:46:02.258Z</time></trkpt><trkpt lat="44.8488923" lon="9.4594152"><ele>664.0</ele><time>2026-04-18T13:46:03.258Z</time></trkpt><trkpt lat="44.8489512" lon="9.4592592"><ele>665.0</ele><time>2026-04-18T13:46:04.258Z</time></trkpt><trkpt lat="44.8490203" lon="9.4591061"><ele>666.0</ele><time>2026-04-18T13:46:05.258Z</time></trkpt><trkpt lat="44.8490937" lon="9.4589581"><ele>667.0</ele><time>2026-04-18T13:46:06.259Z</time></trkpt><trkpt lat="44.8491724" lon="9.4588218"><ele>667.2</ele><time>2026-04-18T13:46:07.258Z</time></trkpt><trkpt lat="44.849252" lon="9.4586934"><ele>667.4000000000001</ele><time>2026-04-18T13:46:08.258Z</time></trkpt><trkpt lat="44.8493251" lon="9.4585813"><ele>667.5999999999999</ele><time>2026-04-18T13:46:09.259Z</time></trkpt><trkpt lat="44.8493946" lon="9.4584692"><ele>667.8</ele><time>2026-04-18T13:46:10.258Z</time></trkpt><trkpt lat="44.8494582" lon="9.4583624"><ele>668.0</ele><time>2026-04-18T13:46:11.259Z</time></trkpt><trkpt lat="44.8495166" lon="9.4582552"><ele>668.0</ele><time>2026-04-18T13:46:12.258Z</time></trkpt><trkpt lat="44.8495733" lon="9.4581378"><ele>668.0</ele><time>2026-04-18T13:46:13.258Z</time></trkpt><trkpt lat="44.8496247" lon="9.4580015"><ele>668.0</ele><time>2026-04-18T13:46:14.258Z</time></trkpt><trkpt lat="44.8496658" lon="9.4578507"><ele>668.0</ele><time>2026-04-18T13:46:15.258Z</time></trkpt><trkpt lat="44.8497025" lon="9.457697"><ele>668.0</ele><time>2026-04-18T13:46:16.258Z</time></trkpt><trkpt lat="44.8497416" lon="9.4575399"><ele>669.25</ele><time>2026-04-18T13:46:17.258Z</time></trkpt><trkpt lat="44.849785" lon="9.4573858"><ele>670.5</ele><time>2026-04-18T13:46:18.259Z</time></trkpt><trkpt lat="44.8498378" lon="9.457231"><ele>671.75</ele><time>2026-04-18T13:46:19.258Z</time></trkpt><trkpt lat="44.8498981" lon="9.4570911"><ele>673.0</ele><time>2026-04-18T13:46:20.258Z</time></trkpt><trkpt lat="44.8499652" lon="9.4569647"><ele>673.0</ele><time>2026-04-18T13:46:21.259Z</time></trkpt><trkpt lat="44.8500374" lon="9.4568447"><ele>673.0</ele><time>2026-04-18T13:46:22.258Z</time></trkpt><trkpt lat="44.8501159" lon="9.4567271"><ele>673.0</ele><time>2026-04-18T13:46:23.258Z</time></trkpt><trkpt lat="44.8502008" lon="9.4566095"><ele>673.0</ele><time>2026-04-18T13:46:24.259Z</time></trkpt><trkpt lat="44.8502871" lon="9.4564879"><ele>673.0</ele><time>2026-04-18T13:46:25.258Z</time></trkpt><trkpt lat="44.8503694" lon="9.4563727"><ele>673.0</ele><time>2026-04-18T13:46:26.258Z</time></trkpt><trkpt lat="44.8504459" lon="9.4562648"><ele>673.0</ele><time>2026-04-18T13:46:27.258Z</time></trkpt><trkpt lat="44.8505101" lon="9.4561799"><ele>673.0</ele><time>2026-04-18T13:46:28.258Z</time></trkpt><trkpt lat="44.8505734" lon="9.4561221"><ele>673.0</ele><time>2026-04-18T13:46:29.258Z</time></trkpt><trkpt lat="44.8506418" lon="9.4561132"><ele>674.0</ele><time>2026-04-18T13:46:30.258Z</time></trkpt><trkpt lat="44.8507146" lon="9.4561341"><ele>675.0</ele><time>2026-04-18T13:46:31.258Z</time></trkpt><trkpt lat="44.8508103" lon="9.4561817"><ele>676.0</ele><time>2026-04-18T13:46:33.259Z</time></trkpt><trkpt lat="44.850881" lon="9.4562244"><ele>677.0</ele><time>2026-04-18T13:46:35.258Z</time></trkpt><trkpt lat="44.8509773" lon="9.4562667"><ele>678.0</ele><time>2026-04-18T13:47:22.258Z</time></trkpt><trkpt lat="44.851044" lon="9.4563075"><ele>679.0</ele><time>2026-04-18T13:47:23.259Z</time></trkpt><trkpt lat="44.851128" lon="9.4563598"><ele>679.25</ele><time>2026-04-18T13:47:24.258Z</time></trkpt><trkpt lat="44.8512234" lon="9.4564267"><ele>679.5</ele><time>2026-04-18T13:47:25.258Z</time></trkpt><trkpt lat="44.8513238" lon="9.4565065"><ele>679.75</ele><time>2026-04-18T13:47:26.259Z</time></trkpt><trkpt lat="44.8514248" lon="9.4565975"><ele>680.0</ele><time>2026-04-18T13:47:27.259Z</time></trkpt><trkpt lat="44.8515088" lon="9.4566968"><ele>680.0</ele><time>2026-04-18T13:47:28.258Z</time></trkpt><trkpt lat="44.851582" lon="9.4568191"><ele>680.0</ele><time>2026-04-18T13:47:29.259Z</time></trkpt><trkpt lat="44.8516479" lon="9.4569582"><ele>680.0</ele><time>2026-04-18T13:47:30.258Z</time></trkpt><trkpt lat="44.8517101" lon="9.4571008"><ele>680.0</ele><time>2026-04-18T13:47:31.259Z</time></trkpt><trkpt lat="44.8517741" lon="9.4572408"><ele>682.0</ele><time>2026-04-18T13:47:32.258Z</time></trkpt><trkpt lat="44.8518345" lon="9.4573838"><ele>684.0</ele><time>2026-04-18T13:47:33.259Z</time></trkpt><trkpt lat="44.8518917" lon="9.4575229"><ele>686.0</ele><time>2026-04-18T13:47:34.259Z</time></trkpt><trkpt lat="44.8519584" lon="9.4576505"><ele>688.0</ele><time>2026-04-18T13:47:35.258Z</time></trkpt><trkpt lat="44.8520397" lon="9.4577642"><ele>688.0</ele><time>2026-04-18T13:47:36.258Z</time></trkpt><trkpt lat="44.8521275" lon="9.4578685"><ele>688.0</ele><time>2026-04-18T13:47:37.258Z</time></trkpt><trkpt lat="44.8522229" lon="9.4579689"><ele>688.0</ele><time>2026-04-18T13:47:38.258Z</time></trkpt><trkpt lat="44.8523296" lon="9.4580657"><ele>688.0</ele><time>2026-04-18T13:47:39.258Z</time></trkpt><trkpt lat="44.8524551" lon="9.4581475"><ele>687.75</ele><time>2026-04-18T13:47:40.258Z</time></trkpt><trkpt lat="44.8525808" lon="9.4582176"><ele>687.5</ele><time>2026-04-18T13:47:41.258Z</time></trkpt><trkpt lat="44.8527123" lon="9.458287"><ele>687.25</ele><time>2026-04-18T13:47:42.258Z</time></trkpt><trkpt lat="44.8528332" lon="9.4583769"><ele>687.0</ele><time>2026-04-18T13:47:43.258Z</time></trkpt><trkpt lat="44.8529606" lon="9.4584581"><ele>687.0</ele><time>2026-04-18T13:47:44.258Z</time></trkpt><trkpt lat="44.8530909" lon="9.4585293"><ele>687.0</ele><time>2026-04-18T13:47:45.258Z</time></trkpt><trkpt lat="44.8532228" lon="9.4586039"><ele>687.0</ele><time>2026-04-18T13:47:46.259Z</time></trkpt><trkpt lat="44.8533477" lon="9.4586779"><ele>687.0</ele><time>2026-04-18T13:47:47.258Z</time></trkpt><trkpt lat="44.8534722" lon="9.4587603"><ele>688.0</ele><time>2026-04-18T13:47:48.258Z</time></trkpt><trkpt lat="44.8535701" lon="9.4588808"><ele>689.0</ele><time>2026-04-18T13:47:49.258Z</time></trkpt><trkpt lat="44.8536425" lon="9.4590252"><ele>690.0</ele><time>2026-04-18T13:47:50.258Z</time></trkpt><trkpt lat="44.8537003" lon="9.4591792"><ele>691.0</ele><time>2026-04-18T13:47:51.258Z</time></trkpt><trkpt lat="44.8537585" lon="9.4593325"><ele>691.0</ele><time>2026-04-18T13:47:52.258Z</time></trkpt><trkpt lat="44.8538247" lon="9.4594497"><ele>691.0</ele><time>2026-04-18T13:47:53.258Z</time></trkpt><trkpt lat="44.8539174" lon="9.4595377"><ele>691.0</ele><time>2026-04-18T13:47:54.259Z</time></trkpt><trkpt lat="44.8540345" lon="9.4595968"><ele>691.0</ele><time>2026-04-18T13:47:55.258Z</time></trkpt><trkpt lat="44.8541622" lon="9.4596486"><ele>688.75</ele><time>2026-04-18T13:47:56.258Z</time></trkpt><trkpt lat="44.8542928" lon="9.4597043"><ele>686.5</ele><time>2026-04-18T13:47:57.258Z</time></trkpt><trkpt lat="44.8544247" lon="9.459755"><ele>684.25</ele><time>2026-04-18T13:47:58.259Z</time></trkpt><trkpt lat="44.8545557" lon="9.4597931"><ele>682.0</ele><time>2026-04-18T13:47:59.258Z</time></trkpt><trkpt lat="44.8546704" lon="9.459837"><ele>682.0</ele><time>2026-04-18T13:48:00.258Z</time></trkpt><trkpt lat="44.8547522" lon="9.4599265"><ele>682.0</ele><time>2026-04-18T13:48:01.258Z</time></trkpt><trkpt lat="44.854818" lon="9.4600581"><ele>682.0</ele><time>2026-04-18T13:48:02.258Z</time></trkpt><trkpt lat="44.8549064" lon="9.4601903"><ele>682.0</ele><time>2026-04-18T13:48:03.258Z</time></trkpt><trkpt lat="44.8550059" lon="9.4603279"><ele>682.75</ele><time>2026-04-18T13:48:04.258Z</time></trkpt><trkpt lat="44.8550872" lon="9.4604867"><ele>683.5</ele><time>2026-04-18T13:48:05.259Z</time></trkpt><trkpt lat="44.8551755" lon="9.4606565"><ele>684.25</ele><time>2026-04-18T13:48:06.258Z</time></trkpt><trkpt lat="44.8552868" lon="9.4608099"><ele>685.0</ele><time>2026-04-18T13:48:07.259Z</time></trkpt><trkpt lat="44.8553956" lon="9.4609495"><ele>685.0</ele><time>2026-04-18T13:48:08.258Z</time></trkpt><trkpt lat="44.8554907" lon="9.4610903"><ele>685.0</ele><time>2026-04-18T13:48:09.258Z</time></trkpt><trkpt lat="44.8555742" lon="9.4612306"><ele>685.0</ele><time>2026-04-18T13:48:10.258Z</time></trkpt><trkpt lat="44.8556538" lon="9.4613728"><ele>685.0</ele><time>2026-04-18T13:48:11.258Z</time></trkpt><trkpt lat="44.8557384" lon="9.4615143"><ele>684.75</ele><time>2026-04-18T13:48:12.259Z</time></trkpt><trkpt lat="44.8558269" lon="9.4616487"><ele>684.5</ele><time>2026-04-18T13:48:13.258Z</time></trkpt><trkpt lat="44.8559099" lon="9.4617774"><ele>684.25</ele><time>2026-04-18T13:48:14.258Z</time></trkpt><trkpt lat="44.8559855" lon="9.4619076"><ele>684.0</ele><time>2026-04-18T13:48:15.258Z</time></trkpt><trkpt lat="44.8560536" lon="9.462043"><ele>682.4000000000001</ele><time>2026-04-18T13:48:16.259Z</time></trkpt><trkpt lat="44.85611" lon="9.4621653"><ele>680.8</ele><time>2026-04-18T13:48:17.258Z</time></trkpt><trkpt lat="44.8561672" lon="9.4622795"><ele>679.2</ele><time>2026-04-18T13:48:18.259Z</time></trkpt><trkpt lat="44.856223" lon="9.4623935"><ele>677.5999999999999</ele><time>2026-04-18T13:48:19.258Z</time></trkpt><trkpt lat="44.8562765" lon="9.4625101"><ele>676.0</ele><time>2026-04-18T13:48:20.258Z</time></trkpt><trkpt lat="44.856326" lon="9.4626181"><ele>676.0</ele><time>2026-04-18T13:48:21.258Z</time></trkpt><trkpt lat="44.8563671" lon="9.4627062"><ele>676.0</ele><time>2026-04-18T13:48:22.258Z</time></trkpt><trkpt lat="44.8564213" lon="9.4627834"><ele>676.0</ele><time>2026-04-18T13:48:24.258Z</time></trkpt><trkpt lat="44.8564989" lon="9.4627163"><ele>676.0</ele><time>2026-04-18T13:48:28.258Z</time></trkpt><trkpt lat="44.856512" lon="9.4625759"><ele>676.0</ele><time>2026-04-18T13:48:30.258Z</time></trkpt><trkpt lat="44.8565289" lon="9.4624802"><ele>676.0</ele><time>2026-04-18T13:48:31.258Z</time></trkpt><trkpt lat="44.8565486" lon="9.4623688"><ele>676.0</ele><time>2026-04-18T13:48:32.258Z</time></trkpt><trkpt lat="44.8565781" lon="9.4622647"><ele>676.0</ele><time>2026-04-18T13:48:33.258Z</time></trkpt><trkpt lat="44.8566241" lon="9.4621497"><ele>676.0</ele><time>2026-04-18T13:48:34.259Z</time></trkpt><trkpt lat="44.8566894" lon="9.4620258"><ele>676.0</ele><time>2026-04-18T13:48:35.258Z</time></trkpt><trkpt lat="44.8567537" lon="9.4618862"><ele>676.0</ele><time>2026-04-18T13:48:36.259Z</time></trkpt><trkpt lat="44.856805" lon="9.4617453"><ele>678.0</ele><time>2026-04-18T13:48:37.259Z</time></trkpt><trkpt lat="44.8568535" lon="9.4616081"><ele>680.0</ele><time>2026-04-18T13:48:38.258Z</time></trkpt><trkpt lat="44.8569059" lon="9.4614734"><ele>682.0</ele><time>2026-04-18T13:48:39.258Z</time></trkpt><trkpt lat="44.8569623" lon="9.4613389"><ele>684.0</ele><time>2026-04-18T13:48:40.258Z</time></trkpt><trkpt lat="44.8570248" lon="9.4611887"><ele>686.5</ele><time>2026-04-18T13:48:41.259Z</time></trkpt><trkpt lat="44.8570854" lon="9.4610356"><ele>689.0</ele><time>2026-04-18T13:48:42.258Z</time></trkpt><trkpt lat="44.8571349" lon="9.4608942"><ele>691.5</ele><time>2026-04-18T13:48:43.258Z</time></trkpt><trkpt lat="44.8571759" lon="9.4607437"><ele>694.0</ele><time>2026-04-18T13:48:44.258Z</time></trkpt><trkpt lat="44.8572161" lon="9.4606141"><ele>694.0</ele><time>2026-04-18T13:48:45.258Z</time></trkpt><trkpt lat="44.8572594" lon="9.4604918"><ele>694.0</ele><time>2026-04-18T13:48:46.258Z</time></trkpt><trkpt lat="44.8573209" lon="9.4603694"><ele>694.0</ele><time>2026-04-18T13:48:47.258Z</time></trkpt><trkpt lat="44.8574079" lon="9.4602482"><ele>694.0</ele><time>2026-04-18T13:48:48.258Z</time></trkpt><trkpt lat="44.8575094" lon="9.4601355"><ele>696.0</ele><time>2026-04-18T13:48:49.258Z</time></trkpt><trkpt lat="44.857617" lon="9.4600394"><ele>698.0</ele><time>2026-04-18T13:48:50.258Z</time></trkpt><trkpt lat="44.8577134" lon="9.4599397"><ele>700.0</ele><time>2026-04-18T13:48:51.258Z</time></trkpt><trkpt lat="44.8578133" lon="9.4598341"><ele>702.0</ele><time>2026-04-18T13:48:52.259Z</time></trkpt><trkpt lat="44.8579126" lon="9.4597267"><ele>702.0</ele><time>2026-04-18T13:48:53.258Z</time></trkpt><trkpt lat="44.858015" lon="9.459626"><ele>702.0</ele><time>2026-04-18T13:48:54.258Z</time></trkpt><trkpt lat="44.8581094" lon="9.4595147"><ele>702.0</ele><time>2026-04-18T13:48:55.258Z</time></trkpt><trkpt lat="44.8581801" lon="9.4593989"><ele>702.0</ele><time>2026-04-18T13:48:56.259Z</time></trkpt><trkpt lat="44.858237" lon="9.459284"><ele>703.4000000000001</ele><time>2026-04-18T13:48:57.258Z</time></trkpt><trkpt lat="44.8582897" lon="9.4591781"><ele>704.8000000000001</ele><time>2026-04-18T13:48:58.259Z</time></trkpt><trkpt lat="44.8583577" lon="9.4590585"><ele>706.2</ele><time>2026-04-18T13:48:59.259Z</time></trkpt><trkpt lat="44.8584245" lon="9.4589349"><ele>707.6</ele><time>2026-04-18T13:49:00.259Z</time></trkpt><trkpt lat="44.8584986" lon="9.4588103"><ele>709.0</ele><time>2026-04-18T13:49:01.258Z</time></trkpt><trkpt lat="44.8585778" lon="9.4586863"><ele>712.75</ele><time>2026-04-18T13:49:02.259Z</time></trkpt><trkpt lat="44.8586619" lon="9.458553"><ele>716.5</ele><time>2026-04-18T13:49:03.258Z</time></trkpt><trkpt lat="44.8587471" lon="9.4584184"><ele>720.25</ele><time>2026-04-18T13:49:04.258Z</time></trkpt><trkpt lat="44.8588172" lon="9.4583056"><ele>724.0</ele><time>2026-04-18T13:49:05.259Z</time></trkpt><trkpt lat="44.8588859" lon="9.458208"><ele>724.0</ele><time>2026-04-18T13:49:06.259Z</time></trkpt><trkpt lat="44.8589538" lon="9.4581308"><ele>724.0</ele><time>2026-04-18T13:49:07.258Z</time></trkpt><trkpt lat="44.8590308" lon="9.4580609"><ele>724.0</ele><time>2026-04-18T13:49:08.258Z</time></trkpt><trkpt lat="44.8591173" lon="9.4579915"><ele>724.0</ele><time>2026-04-18T13:49:09.259Z</time></trkpt><trkpt lat="44.8591953" lon="9.4579107"><ele>724.0</ele><time>2026-04-18T13:49:10.258Z</time></trkpt><trkpt lat="44.8592728" lon="9.4578126"><ele>725.0</ele><time>2026-04-18T13:49:11.258Z</time></trkpt><trkpt lat="44.8593328" lon="9.4577033"><ele>726.0</ele><time>2026-04-18T13:49:12.258Z</time></trkpt><trkpt lat="44.8594" lon="9.4575658"><ele>727.0</ele><time>2026-04-18T13:49:13.258Z</time></trkpt><trkpt lat="44.8594664" lon="9.45744"><ele>728.0</ele><time>2026-04-18T13:49:14.258Z</time></trkpt><trkpt lat="44.8595428" lon="9.457319"><ele>729.0</ele><time>2026-04-18T13:49:15.258Z</time></trkpt><trkpt lat="44.8596363" lon="9.4572095"><ele>729.0</ele><time>2026-04-18T13:49:16.258Z</time></trkpt><trkpt lat="44.8597403" lon="9.457123"><ele>729.0</ele><time>2026-04-18T13:49:17.258Z</time></trkpt><trkpt lat="44.8598353" lon="9.4570411"><ele>729.0</ele><time>2026-04-18T13:49:18.258Z</time></trkpt><trkpt lat="44.8599251" lon="9.4569482"><ele>729.0</ele><time>2026-04-18T13:49:19.259Z</time></trkpt><trkpt lat="44.8600034" lon="9.4568825"><ele>729.0</ele><time>2026-04-18T13:49:20.258Z</time></trkpt><trkpt lat="44.8600922" lon="9.4568359"><ele>731.4000000000001</ele><time>2026-04-18T13:49:21.258Z</time></trkpt><trkpt lat="44.8601708" lon="9.4568059"><ele>733.8</ele><time>2026-04-18T13:49:22.258Z</time></trkpt><trkpt lat="44.8602538" lon="9.4567665"><ele>736.2</ele><time>2026-04-18T13:49:23.258Z</time></trkpt><trkpt lat="44.8603428" lon="9.4567165"><ele>738.5999999999999</ele><time>2026-04-18T13:49:24.258Z</time></trkpt><trkpt lat="44.8604321" lon="9.4566685"><ele>741.0</ele><time>2026-04-18T13:49:25.258Z</time></trkpt><trkpt lat="44.8605328" lon="9.4566219"><ele>741.0</ele><time>2026-04-18T13:49:26.259Z</time></trkpt><trkpt lat="44.8606513" lon="9.45657"><ele>741.0</ele><time>2026-04-18T13:49:27.258Z</time></trkpt><trkpt lat="44.8607584" lon="9.4565119"><ele>741.0</ele><time>2026-04-18T13:49:28.258Z</time></trkpt><trkpt lat="44.8608466" lon="9.4564569"><ele>741.0</ele><time>2026-04-18T13:49:29.258Z</time></trkpt><trkpt lat="44.8609183" lon="9.4564094"><ele>741.0</ele><time>2026-04-18T13:49:30.258Z</time></trkpt><trkpt lat="44.86098" lon="9.4563689"><ele>741.0</ele><time>2026-04-18T13:49:31.259Z</time></trkpt><trkpt lat="44.8610842" lon="9.4563261"><ele>741.0</ele><time>2026-04-18T13:49:33.258Z</time></trkpt><trkpt lat="44.8611681" lon="9.45633"><ele>741.0</ele><time>2026-04-18T13:49:35.258Z</time></trkpt><trkpt lat="44.8612325" lon="9.4563514"><ele>741.0</ele><time>2026-04-18T13:49:37.259Z</time></trkpt><trkpt lat="44.8613312" lon="9.4563741"><ele>741.0</ele><time>2026-04-18T13:50:32.258Z</time></trkpt><trkpt lat="44.8614155" lon="9.4563831"><ele>741.0</ele><time>2026-04-18T13:50:33.258Z</time></trkpt><trkpt lat="44.8615197" lon="9.4564035"><ele>741.0</ele><time>2026-04-18T13:50:34.258Z</time></trkpt><trkpt lat="44.8616303" lon="9.4564369"><ele>741.0</ele><time>2026-04-18T13:50:35.258Z</time></trkpt><trkpt lat="44.861737" lon="9.4564374"><ele>741.0</ele><time>2026-04-18T13:50:36.258Z</time></trkpt><trkpt lat="44.8618285" lon="9.456397"><ele>741.0</ele><time>2026-04-18T13:50:37.258Z</time></trkpt><trkpt lat="44.8619069" lon="9.4563255"><ele>741.0</ele><time>2026-04-18T13:50:38.258Z</time></trkpt><trkpt lat="44.8619756" lon="9.4562163"><ele>741.0</ele><time>2026-04-18T13:50:39.259Z</time></trkpt><trkpt lat="44.8620415" lon="9.4560835"><ele>741.0</ele><time>2026-04-18T13:50:40.258Z</time></trkpt><trkpt lat="44.862103" lon="9.4559797"><ele>741.0</ele><time>2026-04-18T13:50:41.258Z</time></trkpt><trkpt lat="44.8621692" lon="9.4558907"><ele>741.0</ele><time>2026-04-18T13:50:42.258Z</time></trkpt><trkpt lat="44.8622312" lon="9.4558162"><ele>741.0</ele><time>2026-04-18T13:50:43.258Z</time></trkpt><trkpt lat="44.8623048" lon="9.4557581"><ele>741.0</ele><time>2026-04-18T13:50:44.259Z</time></trkpt><trkpt lat="44.8624021" lon="9.455712"><ele>741.0</ele><time>2026-04-18T13:50:45.258Z</time></trkpt><trkpt lat="44.8625057" lon="9.4556631"><ele>741.0</ele><time>2026-04-18T13:50:46.259Z</time></trkpt><trkpt lat="44.8625971" lon="9.4556088"><ele>741.0</ele><time>2026-04-18T13:50:47.258Z</time></trkpt><trkpt lat="44.8626738" lon="9.4555511"><ele>741.0</ele><time>2026-04-18T13:50:48.259Z</time></trkpt><trkpt lat="44.8627432" lon="9.4554664"><ele>738.4</ele><time>2026-04-18T13:50:49.258Z</time></trkpt><trkpt lat="44.8628032" lon="9.4553693"><ele>735.8</ele><time>2026-04-18T13:50:50.258Z</time></trkpt><trkpt lat="44.8628585" lon="9.4552647"><ele>733.1999999999999</ele><time>2026-04-18T13:50:51.258Z</time></trkpt><trkpt lat="44.8629112" lon="9.4551504"><ele>730.5999999999999</ele><time>2026-04-18T13:50:52.259Z</time></trkpt><trkpt lat="44.8629609" lon="9.4550408"><ele>728.0</ele><time>2026-04-18T13:50:53.258Z</time></trkpt><trkpt lat="44.8630207" lon="9.4549382"><ele>728.0</ele><time>2026-04-18T13:50:54.258Z</time></trkpt><trkpt lat="44.8630967" lon="9.4548399"><ele>728.0</ele><time>2026-04-18T13:50:55.258Z</time></trkpt><trkpt lat="44.8631897" lon="9.4547398"><ele>728.0</ele><time>2026-04-18T13:50:56.258Z</time></trkpt><trkpt lat="44.8632957" lon="9.4546457"><ele>728.0</ele><time>2026-04-18T13:50:57.259Z</time></trkpt><trkpt lat="44.8634016" lon="9.4545629"><ele>725.0</ele><time>2026-04-18T13:50:58.259Z</time></trkpt><trkpt lat="44.8635122" lon="9.4544893"><ele>722.0</ele><time>2026-04-18T13:50:59.258Z</time></trkpt><trkpt lat="44.8636255" lon="9.4544162"><ele>719.0</ele><time>2026-04-18T13:51:00.258Z</time></trkpt><trkpt lat="44.8637344" lon="9.4543236"><ele>716.0</ele><time>2026-04-18T13:51:01.258Z</time></trkpt><trkpt lat="44.8638403" lon="9.4542277"><ele>716.0</ele><time>2026-04-18T13:51:02.258Z</time></trkpt><trkpt lat="44.8639581" lon="9.4541371"><ele>716.0</ele><time>2026-04-18T13:51:03.259Z</time></trkpt><trkpt lat="44.8640708" lon="9.454045"><ele>716.0</ele><time>2026-04-18T13:51:04.258Z</time></trkpt><trkpt lat="44.8641856" lon="9.4539419"><ele>716.0</ele><time>2026-04-18T13:51:05.259Z</time></trkpt><trkpt lat="44.8642946" lon="9.4538384"><ele>712.4</ele><time>2026-04-18T13:51:06.258Z</time></trkpt><trkpt lat="44.8643893" lon="9.4537379"><ele>708.8</ele><time>2026-04-18T13:51:07.258Z</time></trkpt><trkpt lat="44.8644614" lon="9.4536486"><ele>705.1999999999999</ele><time>2026-04-18T13:51:08.258Z</time></trkpt><trkpt lat="44.8645114" lon="9.453585"><ele>701.5999999999999</ele><time>2026-04-18T13:51:09.259Z</time></trkpt><trkpt lat="44.8646132" lon="9.4534749"><ele>698.0</ele><time>2026-04-18T13:51:11.258Z</time></trkpt><trkpt lat="44.8646843" lon="9.4534256"><ele>698.0</ele><time>2026-04-18T13:51:12.258Z</time></trkpt><trkpt lat="44.864768" lon="9.4533806"><ele>698.0</ele><time>2026-04-18T13:51:13.258Z</time></trkpt><trkpt lat="44.8648509" lon="9.4533337"><ele>698.0</ele><time>2026-04-18T13:51:14.259Z</time></trkpt><trkpt lat="44.8649284" lon="9.4532644"><ele>698.0</ele><time>2026-04-18T13:51:15.258Z</time></trkpt><trkpt lat="44.8650049" lon="9.4531792"><ele>698.0</ele><time>2026-04-18T13:51:16.258Z</time></trkpt><trkpt lat="44.8650806" lon="9.4530856"><ele>697.8</ele><time>2026-04-18T13:51:17.258Z</time></trkpt><trkpt lat="44.8651596" lon="9.4529859"><ele>697.5999999999999</ele><time>2026-04-18T13:51:18.258Z</time></trkpt><trkpt lat="44.865235" lon="9.4528872"><ele>697.4000000000001</ele><time>2026-04-18T13:51:19.258Z</time></trkpt><trkpt lat="44.8653168" lon="9.4528034"><ele>697.2</ele><time>2026-04-18T13:51:20.258Z</time></trkpt><trkpt lat="44.8654163" lon="9.4527266"><ele>697.0</ele><time>2026-04-18T13:51:21.258Z</time></trkpt><trkpt lat="44.8655276" lon="9.4526638"><ele>693.75</ele><time>2026-04-18T13:51:22.258Z</time></trkpt><trkpt lat="44.8656526" lon="9.452604"><ele>690.5</ele><time>2026-04-18T13:51:23.258Z</time></trkpt><trkpt lat="44.8657736" lon="9.4525476"><ele>687.25</ele><time>2026-04-18T13:51:24.258Z</time></trkpt><trkpt lat="44.8658883" lon="9.4524866"><ele>684.0</ele><time>2026-04-18T13:51:25.259Z</time></trkpt><trkpt lat="44.8659995" lon="9.4524252"><ele>682.6</ele><time>2026-04-18T13:51:26.259Z</time></trkpt><trkpt lat="44.8660954" lon="9.4523661"><ele>681.2</ele><time>2026-04-18T13:51:27.258Z</time></trkpt><trkpt lat="44.8661732" lon="9.4523074"><ele>679.8000000000001</ele><time>2026-04-18T13:51:28.258Z</time></trkpt><trkpt lat="44.8662374" lon="9.4522342"><ele>678.4000000000001</ele><time>2026-04-18T13:51:29.259Z</time></trkpt><trkpt lat="44.8663023" lon="9.4521189"><ele>677.0</ele><time>2026-04-18T13:51:30.258Z</time></trkpt><trkpt lat="44.8663718" lon="9.4520125"><ele>673.3333333333333</ele><time>2026-04-18T13:51:31.258Z</time></trkpt><trkpt lat="44.8665427" lon="9.4517521"><ele>669.6666666666666</ele><time>2026-04-18T13:51:33.259Z</time></trkpt><trkpt lat="44.866631" lon="9.4516132"><ele>666.0</ele><time>2026-04-18T13:51:34.258Z</time></trkpt><trkpt lat="44.8667173" lon="9.4514722"><ele>663.0</ele><time>2026-04-18T13:51:35.258Z</time></trkpt><trkpt lat="44.8668007" lon="9.4513275"><ele>660.0</ele><time>2026-04-18T13:51:36.258Z</time></trkpt><trkpt lat="44.8668709" lon="9.4511894"><ele>657.0</ele><time>2026-04-18T13:51:37.258Z</time></trkpt><trkpt lat="44.8669331" lon="9.4510349"><ele>654.0</ele><time>2026-04-18T13:51:38.258Z</time></trkpt><trkpt lat="44.8669802" lon="9.4508789"><ele>653.25</ele><time>2026-04-18T13:51:39.258Z</time></trkpt><trkpt lat="44.8670237" lon="9.4507228"><ele>652.5</ele><time>2026-04-18T13:51:40.258Z</time></trkpt><trkpt lat="44.8670703" lon="9.4505734"><ele>651.75</ele><time>2026-04-18T13:51:41.259Z</time></trkpt><trkpt lat="44.8671212" lon="9.4504104"><ele>651.0</ele><time>2026-04-18T13:51:42.258Z</time></trkpt><trkpt lat="44.8671743" lon="9.4502545"><ele>650.0</ele><time>2026-04-18T13:51:43.258Z</time></trkpt><trkpt lat="44.8672277" lon="9.4501042"><ele>649.0</ele><time>2026-04-18T13:51:44.258Z</time></trkpt><trkpt lat="44.8672773" lon="9.4499607"><ele>648.0</ele><time>2026-04-18T13:51:45.258Z</time></trkpt><trkpt lat="44.8673273" lon="9.4498267"><ele>647.0</ele><time>2026-04-18T13:51:46.258Z</time></trkpt><trkpt lat="44.8673751" lon="9.4497008"><ele>646.0</ele><time>2026-04-18T13:51:47.258Z</time></trkpt><trkpt lat="44.8674208" lon="9.4495771"><ele>645.3333333333334</ele><time>2026-04-18T13:51:48.259Z</time></trkpt><trkpt lat="44.8674643" lon="9.4494612"><ele>644.6666666666667</ele><time>2026-04-18T13:51:49.258Z</time></trkpt><trkpt lat="44.8675007" lon="9.449374"><ele>644.0</ele><time>2026-04-18T13:51:50.259Z</time></trkpt><trkpt lat="44.867561" lon="9.4492858"><ele>643.3333333333334</ele><time>2026-04-18T13:51:52.258Z</time></trkpt><trkpt lat="44.8676353" lon="9.4493242"><ele>642.6666666666666</ele><time>2026-04-18T13:51:55.259Z</time></trkpt><trkpt lat="44.8676819" lon="9.4493943"><ele>642.0</ele><time>2026-04-18T13:51:59.258Z</time></trkpt><trkpt lat="44.86777" lon="9.4494666"><ele>640.6666666666666</ele><time>2026-04-18T13:53:02.258Z</time></trkpt><trkpt lat="44.8678328" lon="9.4495123"><ele>639.3333333333334</ele><time>2026-04-18T13:53:03.258Z</time></trkpt><trkpt lat="44.8679085" lon="9.4495661"><ele>638.0</ele><time>2026-04-18T13:53:04.258Z</time></trkpt><trkpt lat="44.8679958" lon="9.4496271"><ele>636.6666666666667</ele><time>2026-04-18T13:53:05.259Z</time></trkpt><trkpt lat="44.8680705" lon="9.4497029"><ele>635.3333333333334</ele><time>2026-04-18T13:53:06.258Z</time></trkpt><trkpt lat="44.8681403" lon="9.4497949"><ele>634.0</ele><time>2026-04-18T13:53:07.259Z</time></trkpt><trkpt lat="44.8682024" lon="9.4498926"><ele>634.0</ele><time>2026-04-18T13:53:08.259Z</time></trkpt><trkpt lat="44.8682577" lon="9.4500001"><ele>634.0</ele><time>2026-04-18T13:53:09.258Z</time></trkpt><trkpt lat="44.8682906" lon="9.4501036"><ele>634.0</ele><time>2026-04-18T13:53:10.258Z</time></trkpt><trkpt lat="44.8683066" lon="9.4502198"><ele>634.0</ele><time>2026-04-18T13:53:11.258Z</time></trkpt><trkpt lat="44.8683098" lon="9.4503859"><ele>634.0</ele><time>2026-04-18T13:53:12.258Z</time></trkpt><trkpt lat="44.8683158" lon="9.4505438"><ele>634.5</ele><time>2026-04-18T13:53:13.258Z</time></trkpt><trkpt lat="44.868334" lon="9.4506583"><ele>635.0</ele><time>2026-04-18T13:53:14.258Z</time></trkpt><trkpt lat="44.8683698" lon="9.4507378"><ele>635.5</ele><time>2026-04-18T13:53:15.258Z</time></trkpt><trkpt lat="44.8684321" lon="9.450787"><ele>636.0</ele><time>2026-04-18T13:53:16.258Z</time></trkpt><trkpt lat="44.868525" lon="9.4508501"><ele>636.5</ele><time>2026-04-18T13:53:17.257Z</time></trkpt><trkpt lat="44.8686275" lon="9.4509219"><ele>637.0</ele><time>2026-04-18T13:53:18.259Z</time></trkpt><trkpt lat="44.8687369" lon="9.451008"><ele>636.0</ele><time>2026-04-18T13:53:19.258Z</time></trkpt><trkpt lat="44.8688324" lon="9.4510901"><ele>635.0</ele><time>2026-04-18T13:53:20.258Z</time></trkpt><trkpt lat="44.8689086" lon="9.4511748"><ele>634.0</ele><time>2026-04-18T13:53:21.259Z</time></trkpt><trkpt lat="44.8689575" lon="9.4512646"><ele>633.0</ele><time>2026-04-18T13:53:22.258Z</time></trkpt><trkpt lat="44.8689812" lon="9.4513575"><ele>632.0</ele><time>2026-04-18T13:53:23.258Z</time></trkpt><trkpt lat="44.8690138" lon="9.4515055"><ele>632.0</ele><time>2026-04-18T13:53:24.258Z</time></trkpt><trkpt lat="44.8690492" lon="9.4516357"><ele>632.0</ele><time>2026-04-18T13:53:25.258Z</time></trkpt><trkpt lat="44.8691052" lon="9.4517626"><ele>632.0</ele><time>2026-04-18T13:53:26.258Z</time></trkpt><trkpt lat="44.8691726" lon="9.4518772"><ele>632.0</ele><time>2026-04-18T13:53:27.258Z</time></trkpt><trkpt lat="44.8692371" lon="9.4520123"><ele>632.0</ele><time>2026-04-18T13:53:28.259Z</time></trkpt><trkpt lat="44.8693019" lon="9.4521576"><ele>630.5</ele><time>2026-04-18T13:53:29.259Z</time></trkpt><trkpt lat="44.8693846" lon="9.4523047"><ele>629.0</ele><time>2026-04-18T13:53:30.258Z</time></trkpt><trkpt lat="44.869477" lon="9.4524327"><ele>627.5</ele><time>2026-04-18T13:53:31.259Z</time></trkpt><trkpt lat="44.8695692" lon="9.4525552"><ele>626.0</ele><time>2026-04-18T13:53:32.258Z</time></trkpt><trkpt lat="44.869654" lon="9.4526752"><ele>626.0</ele><time>2026-04-18T13:53:33.258Z</time></trkpt><trkpt lat="44.8697356" lon="9.452779"><ele>626.0</ele><time>2026-04-18T13:53:34.258Z</time></trkpt><trkpt lat="44.8698239" lon="9.4528799"><ele>626.0</ele><time>2026-04-18T13:53:35.258Z</time></trkpt><trkpt lat="44.8699023" lon="9.4529782"><ele>626.0</ele><time>2026-04-18T13:53:36.258Z</time></trkpt><trkpt lat="44.8699601" lon="9.4530899"><ele>626.0</ele><time>2026-04-18T13:53:37.259Z</time></trkpt><trkpt lat="44.870006" lon="9.4532234"><ele>626.0</ele><time>2026-04-18T13:53:38.259Z</time></trkpt><trkpt lat="44.8700454" lon="9.4533511"><ele>626.0</ele><time>2026-04-18T13:53:39.258Z</time></trkpt><trkpt lat="44.8700847" lon="9.453463"><ele>626.0</ele><time>2026-04-18T13:53:40.258Z</time></trkpt><trkpt lat="44.870108" lon="9.4535669"><ele>626.0</ele><time>2026-04-18T13:53:41.258Z</time></trkpt><trkpt lat="44.8700953" lon="9.453677"><ele>626.0</ele><time>2026-04-18T13:53:42.259Z</time></trkpt><trkpt lat="44.8700653" lon="9.4538183"><ele>626.0</ele><time>2026-04-18T13:53:43.259Z</time></trkpt><trkpt lat="44.870042" lon="9.4539617"><ele>626.0</ele><time>2026-04-18T13:53:44.258Z</time></trkpt><trkpt lat="44.8700264" lon="9.4541212"><ele>626.0</ele><time>2026-04-18T13:53:45.259Z</time></trkpt><trkpt lat="44.8700277" lon="9.4542681"><ele>626.0</ele><time>2026-04-18T13:53:46.258Z</time></trkpt><trkpt lat="44.8700261" lon="9.4543826"><ele>626.0</ele><time>2026-04-18T13:53:47.258Z</time></trkpt><trkpt lat="44.8700108" lon="9.4544695"><ele>626.0</ele><time>2026-04-18T13:53:48.258Z</time></trkpt><trkpt lat="44.8699049" lon="9.4545976"><ele>622.75</ele><time>2026-04-18T13:53:50.258Z</time></trkpt><trkpt lat="44.8698083" lon="9.4546839"><ele>619.5</ele><time>2026-04-18T13:53:51.258Z</time></trkpt><trkpt lat="44.8697192" lon="9.454787"><ele>616.25</ele><time>2026-04-18T13:53:52.258Z</time></trkpt><trkpt lat="44.8696341" lon="9.4548867"><ele>613.0</ele><time>2026-04-18T13:53:53.258Z</time></trkpt><trkpt lat="44.8695443" lon="9.4549789"><ele>613.0</ele><time>2026-04-18T13:53:54.259Z</time></trkpt><trkpt lat="44.8694573" lon="9.4550751"><ele>613.0</ele><time>2026-04-18T13:53:55.258Z</time></trkpt><trkpt lat="44.8693897" lon="9.4551552"><ele>613.0</ele><time>2026-04-18T13:53:56.258Z</time></trkpt><trkpt lat="44.8693558" lon="9.4552493"><ele>613.0</ele><time>2026-04-18T13:53:57.258Z</time></trkpt><trkpt lat="44.8693375" lon="9.4553633"><ele>613.0</ele><time>2026-04-18T13:53:58.258Z</time></trkpt><trkpt lat="44.8693348" lon="9.4555221"><ele>609.25</ele><time>2026-04-18T13:53:59.258Z</time></trkpt><trkpt lat="44.8693369" lon="9.4557127"><ele>605.5</ele><time>2026-04-18T13:54:00.258Z</time></trkpt><trkpt lat="44.8693369" lon="9.4558983"><ele>601.75</ele><time>2026-04-18T13:54:01.259Z</time></trkpt><trkpt lat="44.8693323" lon="9.4560657"><ele>598.0</ele><time>2026-04-18T13:54:02.258Z</time></trkpt><trkpt lat="44.8693155" lon="9.4562232"><ele>596.6666666666667</ele><time>2026-04-18T13:54:03.259Z</time></trkpt><trkpt lat="44.8692891" lon="9.4563624"><ele>595.3333333333334</ele><time>2026-04-18T13:54:04.259Z</time></trkpt><trkpt lat="44.869263" lon="9.4564902"><ele>594.0</ele><time>2026-04-18T13:54:05.258Z</time></trkpt><trkpt lat="44.8692302" lon="9.4565923"><ele>592.6666666666666</ele><time>2026-04-18T13:54:06.259Z</time></trkpt><trkpt lat="44.8691811" lon="9.4566746"><ele>591.3333333333333</ele><time>2026-04-18T13:54:07.258Z</time></trkpt><trkpt lat="44.8691082" lon="9.4567612"><ele>590.0</ele><time>2026-04-18T13:54:08.258Z</time></trkpt><trkpt lat="44.8690206" lon="9.456861"><ele>591.2</ele><time>2026-04-18T13:54:09.258Z</time></trkpt><trkpt lat="44.8689505" lon="9.4569582"><ele>592.4</ele><time>2026-04-18T13:54:10.258Z</time></trkpt><trkpt lat="44.8688912" lon="9.4570838"><ele>593.6</ele><time>2026-04-18T13:54:11.258Z</time></trkpt><trkpt lat="44.8688426" lon="9.4572367"><ele>594.8</ele><time>2026-04-18T13:54:12.258Z</time></trkpt><trkpt lat="44.8687996" lon="9.4573744"><ele>596.0</ele><time>2026-04-18T13:54:13.259Z</time></trkpt><trkpt lat="44.8687507" lon="9.4575097"><ele>596.0</ele><time>2026-04-18T13:54:14.259Z</time></trkpt><trkpt lat="44.8687191" lon="9.4576471"><ele>596.0</ele><time>2026-04-18T13:54:15.259Z</time></trkpt><trkpt lat="44.8687056" lon="9.4577842"><ele>596.0</ele><time>2026-04-18T13:54:16.258Z</time></trkpt><trkpt lat="44.8686846" lon="9.457905"><ele>596.0</ele><time>2026-04-18T13:54:17.258Z</time></trkpt><trkpt lat="44.8686383" lon="9.4580074"><ele>596.0</ele><time>2026-04-18T13:54:18.258Z</time></trkpt><trkpt lat="44.8685727" lon="9.4581065"><ele>594.5</ele><time>2026-04-18T13:54:19.258Z</time></trkpt><trkpt lat="44.8685187" lon="9.458206"><ele>593.0</ele><time>2026-04-18T13:54:20.259Z</time></trkpt><trkpt lat="44.8684801" lon="9.4584433"><ele>591.5</ele><time>2026-04-18T13:54:22.258Z</time></trkpt><trkpt lat="44.8684487" lon="9.4585677"><ele>590.0</ele><time>2026-04-18T13:54:23.258Z</time></trkpt><trkpt lat="44.8684085" lon="9.4586924"><ele>593.0</ele><time>2026-04-18T13:54:24.258Z</time></trkpt><trkpt lat="44.8683287" lon="9.458808"><ele>596.0</ele><time>2026-04-18T13:54:25.258Z</time></trkpt><trkpt lat="44.8682765" lon="9.4589096"><ele>599.0</ele><time>2026-04-18T13:54:26.258Z</time></trkpt><trkpt lat="44.8682303" lon="9.4590284"><ele>602.0</ele><time>2026-04-18T13:54:27.258Z</time></trkpt><trkpt lat="44.8681985" lon="9.459123"><ele>605.0</ele><time>2026-04-18T13:54:28.259Z</time></trkpt><trkpt lat="44.8682008" lon="9.4592387"><ele>605.0</ele><time>2026-04-18T13:54:30.259Z</time></trkpt><trkpt lat="44.8683063" lon="9.4593444"><ele>605.0</ele><time>2026-04-18T13:54:32.259Z</time></trkpt><trkpt lat="44.8683846" lon="9.4593695"><ele>605.0</ele><time>2026-04-18T13:54:33.258Z</time></trkpt><trkpt lat="44.8685113" lon="9.4594378"><ele>605.0</ele><time>2026-04-18T13:54:34.258Z</time></trkpt><trkpt lat="44.8685925" lon="9.4595215"><ele>605.0</ele><time>2026-04-18T13:54:35.258Z</time></trkpt><trkpt lat="44.8686718" lon="9.4596273"><ele>600.4</ele><time>2026-04-18T13:54:36.258Z</time></trkpt><trkpt lat="44.8687443" lon="9.4597351"><ele>595.8</ele><time>2026-04-18T13:54:37.258Z</time></trkpt><trkpt lat="44.8687916" lon="9.4598449"><ele>591.2</ele><time>2026-04-18T13:54:38.259Z</time></trkpt><trkpt lat="44.8688177" lon="9.4599679"><ele>586.6</ele><time>2026-04-18T13:54:39.259Z</time></trkpt><trkpt lat="44.8688207" lon="9.4601051"><ele>582.0</ele><time>2026-04-18T13:54:40.258Z</time></trkpt><trkpt lat="44.8688255" lon="9.460249"><ele>582.0</ele><time>2026-04-18T13:54:41.258Z</time></trkpt><trkpt lat="44.8688415" lon="9.4603879"><ele>582.0</ele><time>2026-04-18T13:54:42.258Z</time></trkpt><trkpt lat="44.8688772" lon="9.4605498"><ele>582.0</ele><time>2026-04-18T13:54:43.258Z</time></trkpt><trkpt lat="44.8689285" lon="9.4606876"><ele>582.0</ele><time>2026-04-18T13:54:44.259Z</time></trkpt><trkpt lat="44.8689775" lon="9.4608143"><ele>582.0</ele><time>2026-04-18T13:54:45.259Z</time></trkpt><trkpt lat="44.8690259" lon="9.460942"><ele>582.8000000000001</ele><time>2026-04-18T13:54:46.258Z</time></trkpt><trkpt lat="44.8690925" lon="9.4610629"><ele>583.6</ele><time>2026-04-18T13:54:47.258Z</time></trkpt><trkpt lat="44.8691631" lon="9.4611542"><ele>584.4000000000001</ele><time>2026-04-18T13:54:48.259Z</time></trkpt><trkpt lat="44.869233" lon="9.4612438"><ele>585.2</ele><time>2026-04-18T13:54:49.258Z</time></trkpt><trkpt lat="44.8693094" lon="9.4613249"><ele>586.0</ele><time>2026-04-18T13:54:50.258Z</time></trkpt><trkpt lat="44.8693875" lon="9.461367"><ele>581.4</ele><time>2026-04-18T13:54:51.258Z</time></trkpt><trkpt lat="44.869454" lon="9.4614214"><ele>576.8</ele><time>2026-04-18T13:54:52.258Z</time></trkpt><trkpt lat="44.8694895" lon="9.4615009"><ele>572.1999999999999</ele><time>2026-04-18T13:54:53.258Z</time></trkpt><trkpt lat="44.8695164" lon="9.4615966"><ele>567.6</ele><time>2026-04-18T13:54:54.259Z</time></trkpt><trkpt lat="44.8695369" lon="9.4617377"><ele>563.0</ele><time>2026-04-18T13:54:55.258Z</time></trkpt><trkpt lat="44.8695268" lon="9.4619309"><ele>563.75</ele><time>2026-04-18T13:54:56.259Z</time></trkpt><trkpt lat="44.8695243" lon="9.4621219"><ele>564.5</ele><time>2026-04-18T13:54:57.259Z</time></trkpt><trkpt lat="44.8695061" lon="9.462297"><ele>565.25</ele><time>2026-04-18T13:54:58.259Z</time></trkpt><trkpt lat="44.869498" lon="9.4624671"><ele>566.0</ele><time>2026-04-18T13:54:59.258Z</time></trkpt><trkpt lat="44.8694736" lon="9.462586"><ele>566.0</ele><time>2026-04-18T13:55:00.258Z</time></trkpt><trkpt lat="44.8694764" lon="9.4627108"><ele>566.0</ele><time>2026-04-18T13:55:01.259Z</time></trkpt><trkpt lat="44.869498" lon="9.4628116"><ele>566.0</ele><time>2026-04-18T13:55:02.258Z</time></trkpt><trkpt lat="44.8695454" lon="9.462911"><ele>566.0</ele><time>2026-04-18T13:55:03.258Z</time></trkpt><trkpt lat="44.8696094" lon="9.4630139"><ele>566.0</ele><time>2026-04-18T13:55:04.258Z</time></trkpt><trkpt lat="44.8696747" lon="9.4630895"><ele>566.0</ele><time>2026-04-18T13:55:05.258Z</time></trkpt><trkpt lat="44.8697685" lon="9.4631747"><ele>567.6666666666666</ele><time>2026-04-18T13:55:06.258Z</time></trkpt><trkpt lat="44.8698345" lon="9.4632307"><ele>569.3333333333333</ele><time>2026-04-18T13:55:07.258Z</time></trkpt><trkpt lat="44.8698979" lon="9.4633212"><ele>571.0</ele><time>2026-04-18T13:55:09.258Z</time></trkpt><trkpt lat="44.8698927" lon="9.4634168"><ele>572.6666666666666</ele><time>2026-04-18T13:55:11.258Z</time></trkpt><trkpt lat="44.869829" lon="9.4635026"><ele>574.3333333333334</ele><time>2026-04-18T13:55:13.258Z</time></trkpt><trkpt lat="44.8697715" lon="9.4635568"><ele>576.0</ele><time>2026-04-18T13:55:15.258Z</time></trkpt><trkpt lat="44.869708" lon="9.4635955"><ele>576.0</ele><time>2026-04-18T13:55:18.259Z</time></trkpt><trkpt lat="44.8696332" lon="9.4636388"><ele>576.0</ele><time>2026-04-18T13:55:21.258Z</time></trkpt><trkpt lat="44.8695703" lon="9.4636766"><ele>576.0</ele><time>2026-04-18T13:55:24.258Z</time></trkpt><trkpt lat="44.8695099" lon="9.4637861"><ele>576.0</ele><time>2026-04-18T13:55:29.258Z</time></trkpt><trkpt lat="44.8694646" lon="9.4638891"><ele>576.0</ele><time>2026-04-18T13:55:31.259Z</time></trkpt><trkpt lat="44.8694352" lon="9.4639808"><ele>576.0</ele><time>2026-04-18T13:55:35.258Z</time></trkpt><trkpt lat="44.8694381" lon="9.4640753"><ele>575.7142857142858</ele><time>2026-04-18T13:56:54.258Z</time></trkpt><trkpt lat="44.869444" lon="9.464168"><ele>575.4285714285714</ele><time>2026-04-18T13:56:55.259Z</time></trkpt><trkpt lat="44.8694557" lon="9.4642603"><ele>575.1428571428571</ele><time>2026-04-18T13:56:56.258Z</time></trkpt><trkpt lat="44.8694736" lon="9.4643593"><ele>574.8571428571429</ele><time>2026-04-18T13:56:57.258Z</time></trkpt><trkpt lat="44.8694919" lon="9.4644581"><ele>574.5714285714286</ele><time>2026-04-18T13:56:58.258Z</time></trkpt><trkpt lat="44.8695158" lon="9.4645704"><ele>574.2857142857143</ele><time>2026-04-18T13:56:59.258Z</time></trkpt><trkpt lat="44.8695389" lon="9.4646795"><ele>574.0</ele><time>2026-04-18T13:57:00.258Z</time></trkpt><trkpt lat="44.8695576" lon="9.4647848"><ele>573.4</ele><time>2026-04-18T13:57:01.258Z</time></trkpt><trkpt lat="44.8695746" lon="9.4648985"><ele>572.8</ele><time>2026-04-18T13:57:02.258Z</time></trkpt><trkpt lat="44.8695712" lon="9.4650285"><ele>572.2</ele><time>2026-04-18T13:57:03.258Z</time></trkpt><trkpt lat="44.8695864" lon="9.4651665"><ele>571.6</ele><time>2026-04-18T13:57:04.258Z</time></trkpt><trkpt lat="44.8696189" lon="9.4652989"><ele>571.0</ele><time>2026-04-18T13:57:05.258Z</time></trkpt><trkpt lat="44.8696582" lon="9.4654309"><ele>571.6</ele><time>2026-04-18T13:57:06.258Z</time></trkpt><trkpt lat="44.8696984" lon="9.4655717"><ele>572.2</ele><time>2026-04-18T13:57:07.258Z</time></trkpt><trkpt lat="44.8697368" lon="9.4657001"><ele>572.8</ele><time>2026-04-18T13:57:08.259Z</time></trkpt><trkpt lat="44.8697765" lon="9.4658313"><ele>573.4</ele><time>2026-04-18T13:57:09.258Z</time></trkpt><trkpt lat="44.8698091" lon="9.4659648"><ele>574.0</ele><time>2026-04-18T13:57:10.258Z</time></trkpt><trkpt lat="44.8698434" lon="9.4661116"><ele>574.0</ele><time>2026-04-18T13:57:11.259Z</time></trkpt><trkpt lat="44.8698717" lon="9.4662527"><ele>574.0</ele><time>2026-04-18T13:57:12.258Z</time></trkpt><trkpt lat="44.8698956" lon="9.4664023"><ele>574.0</ele><time>2026-04-18T13:57:13.258Z</time></trkpt><trkpt lat="44.8699271" lon="9.4665579"><ele>574.0</ele><time>2026-04-18T13:57:14.258Z</time></trkpt><trkpt lat="44.8699724" lon="9.4667132"><ele>574.0</ele><time>2026-04-18T13:57:15.258Z</time></trkpt><trkpt lat="44.8700278" lon="9.4668565"><ele>574.6</ele><time>2026-04-18T13:57:16.258Z</time></trkpt><trkpt lat="44.8700853" lon="9.4669974"><ele>575.2</ele><time>2026-04-18T13:57:17.259Z</time></trkpt><trkpt lat="44.8701439" lon="9.4671377"><ele>575.8000000000001</ele><time>2026-04-18T13:57:18.258Z</time></trkpt><trkpt lat="44.8701963" lon="9.4672693"><ele>576.4</ele><time>2026-04-18T13:57:19.258Z</time></trkpt><trkpt lat="44.870232" lon="9.4673891"><ele>577.0</ele><time>2026-04-18T13:57:20.258Z</time></trkpt><trkpt lat="44.8702562" lon="9.4675094"><ele>574.6</ele><time>2026-04-18T13:57:21.258Z</time></trkpt><trkpt lat="44.8702705" lon="9.4676226"><ele>572.2</ele><time>2026-04-18T13:57:22.258Z</time></trkpt><trkpt lat="44.8703059" lon="9.4677305"><ele>569.8</ele><time>2026-04-18T13:57:23.258Z</time></trkpt><trkpt lat="44.8703474" lon="9.46781"><ele>567.4</ele><time>2026-04-18T13:57:24.259Z</time></trkpt><trkpt lat="44.8703752" lon="9.4679364"><ele>565.0</ele><time>2026-04-18T13:57:26.258Z</time></trkpt><trkpt lat="44.8703178" lon="9.4680905"><ele>565.0</ele><time>2026-04-18T13:57:28.258Z</time></trkpt><trkpt lat="44.8702528" lon="9.4681705"><ele>565.0</ele><time>2026-04-18T13:57:29.258Z</time></trkpt><trkpt lat="44.8701806" lon="9.4682472"><ele>565.0</ele><time>2026-04-18T13:57:30.258Z</time></trkpt><trkpt lat="44.8700961" lon="9.4683372"><ele>565.0</ele><time>2026-04-18T13:57:31.258Z</time></trkpt><trkpt lat="44.8700037" lon="9.4684426"><ele>565.0</ele><time>2026-04-18T13:57:32.258Z</time></trkpt><trkpt lat="44.8699168" lon="9.4685474"><ele>566.2</ele><time>2026-04-18T13:57:33.258Z</time></trkpt><trkpt lat="44.8698273" lon="9.4686313"><ele>567.4</ele><time>2026-04-18T13:57:34.258Z</time></trkpt><trkpt lat="44.8697318" lon="9.4686985"><ele>568.6</ele><time>2026-04-18T13:57:35.258Z</time></trkpt><trkpt lat="44.8696299" lon="9.468768"><ele>569.8</ele><time>2026-04-18T13:57:36.258Z</time></trkpt><trkpt lat="44.8695319" lon="9.4688435"><ele>571.0</ele><time>2026-04-18T13:57:37.259Z</time></trkpt><trkpt lat="44.8694359" lon="9.4689229"><ele>570.0</ele><time>2026-04-18T13:57:38.258Z</time></trkpt><trkpt lat="44.8693532" lon="9.4690034"><ele>569.0</ele><time>2026-04-18T13:57:39.258Z</time></trkpt><trkpt lat="44.8692834" lon="9.4690852"><ele>568.0</ele><time>2026-04-18T13:57:40.258Z</time></trkpt><trkpt lat="44.869241" lon="9.4691662"><ele>567.0</ele><time>2026-04-18T13:57:41.258Z</time></trkpt><trkpt lat="44.8692243" lon="9.4692547"><ele>566.0</ele><time>2026-04-18T13:57:42.258Z</time></trkpt><trkpt lat="44.8692287" lon="9.4693542"><ele>565.0</ele><time>2026-04-18T13:57:43.258Z</time></trkpt><trkpt lat="44.8692534" lon="9.4694817"><ele>560.6</ele><time>2026-04-18T13:57:44.258Z</time></trkpt><trkpt lat="44.8692953" lon="9.4696304"><ele>556.2</ele><time>2026-04-18T13:57:45.258Z</time></trkpt><trkpt lat="44.8693424" lon="9.4697697"><ele>551.8</ele><time>2026-04-18T13:57:46.258Z</time></trkpt><trkpt lat="44.869386" lon="9.4698967"><ele>547.4</ele><time>2026-04-18T13:57:47.258Z</time></trkpt><trkpt lat="44.8694256" lon="9.4700355"><ele>543.0</ele><time>2026-04-18T13:57:48.259Z</time></trkpt><trkpt lat="44.8694602" lon="9.4701738"><ele>543.0</ele><time>2026-04-18T13:57:49.258Z</time></trkpt><trkpt lat="44.869482" lon="9.470308"><ele>543.0</ele><time>2026-04-18T13:57:50.258Z</time></trkpt><trkpt lat="44.8694933" lon="9.4704455"><ele>543.0</ele><time>2026-04-18T13:57:51.259Z</time></trkpt><trkpt lat="44.8695005" lon="9.4705938"><ele>543.0</ele><time>2026-04-18T13:57:52.258Z</time></trkpt><trkpt lat="44.8695215" lon="9.4707338"><ele>543.0</ele><time>2026-04-18T13:57:53.258Z</time></trkpt><trkpt lat="44.8695276" lon="9.4708657"><ele>542.0</ele><time>2026-04-18T13:57:54.258Z</time></trkpt><trkpt lat="44.8695231" lon="9.4710024"><ele>541.0</ele><time>2026-04-18T13:57:55.259Z</time></trkpt><trkpt lat="44.869525" lon="9.4711439"><ele>540.0</ele><time>2026-04-18T13:57:56.259Z</time></trkpt><trkpt lat="44.8695474" lon="9.471277"><ele>539.0</ele><time>2026-04-18T13:57:57.258Z</time></trkpt><trkpt lat="44.8695857" lon="9.4713977"><ele>538.0</ele><time>2026-04-18T13:57:58.258Z</time></trkpt><trkpt lat="44.8696328" lon="9.4715133"><ele>538.0</ele><time>2026-04-18T13:57:59.258Z</time></trkpt><trkpt lat="44.869685" lon="9.4716254"><ele>538.0</ele><time>2026-04-18T13:58:00.258Z</time></trkpt><trkpt lat="44.8697438" lon="9.4717333"><ele>538.0</ele><time>2026-04-18T13:58:01.259Z</time></trkpt><trkpt lat="44.8697959" lon="9.4718375"><ele>538.0</ele><time>2026-04-18T13:58:02.259Z</time></trkpt><trkpt lat="44.8698479" lon="9.4719395"><ele>538.0</ele><time>2026-04-18T13:58:03.258Z</time></trkpt><trkpt lat="44.8698946" lon="9.4720074"><ele>538.0</ele><time>2026-04-18T13:58:04.259Z</time></trkpt><trkpt lat="44.869944" lon="9.4720642"><ele>538.1999999999999</ele><time>2026-04-18T13:58:05.258Z</time></trkpt><trkpt lat="44.8700084" lon="9.4721167"><ele>538.4</ele><time>2026-04-18T13:58:06.258Z</time></trkpt><trkpt lat="44.8700901" lon="9.4721766"><ele>538.5999999999999</ele><time>2026-04-18T13:58:07.258Z</time></trkpt><trkpt lat="44.8701762" lon="9.4722478"><ele>538.8</ele><time>2026-04-18T13:58:08.258Z</time></trkpt><trkpt lat="44.8702846" lon="9.4723443"><ele>539.0</ele><time>2026-04-18T13:58:09.258Z</time></trkpt><trkpt lat="44.8703997" lon="9.4724199"><ele>538.0</ele><time>2026-04-18T13:58:10.258Z</time></trkpt><trkpt lat="44.8704952" lon="9.4724864"><ele>537.0</ele><time>2026-04-18T13:58:11.258Z</time></trkpt><trkpt lat="44.8705766" lon="9.4725744"><ele>536.0</ele><time>2026-04-18T13:58:12.258Z</time></trkpt><trkpt lat="44.8706447" lon="9.4726822"><ele>535.0</ele><time>2026-04-18T13:58:13.258Z</time></trkpt><trkpt lat="44.870708" lon="9.4727938"><ele>534.0</ele><time>2026-04-18T13:58:14.258Z</time></trkpt><trkpt lat="44.8707728" lon="9.4729057"><ele>532.4</ele><time>2026-04-18T13:58:15.258Z</time></trkpt><trkpt lat="44.8708412" lon="9.4730174"><ele>530.8</ele><time>2026-04-18T13:58:16.258Z</time></trkpt><trkpt lat="44.8709075" lon="9.4731141"><ele>529.2</ele><time>2026-04-18T13:58:17.258Z</time></trkpt><trkpt lat="44.8709696" lon="9.4732104"><ele>527.6</ele><time>2026-04-18T13:58:18.258Z</time></trkpt><trkpt lat="44.8710285" lon="9.4733161"><ele>526.0</ele><time>2026-04-18T13:58:19.258Z</time></trkpt><trkpt lat="44.8710761" lon="9.4734253"><ele>526.0</ele><time>2026-04-18T13:58:20.258Z</time></trkpt><trkpt lat="44.8711044" lon="9.4735189"><ele>526.0</ele><time>2026-04-18T13:58:21.258Z</time></trkpt><trkpt lat="44.8711182" lon="9.4736217"><ele>526.0</ele><time>2026-04-18T13:58:22.258Z</time></trkpt><trkpt lat="44.8711272" lon="9.4737391"><ele>526.0</ele><time>2026-04-18T13:58:23.259Z</time></trkpt><trkpt lat="44.8711168" lon="9.4738708"><ele>526.0</ele><time>2026-04-18T13:58:24.258Z</time></trkpt><trkpt lat="44.8711066" lon="9.4740075"><ele>526.0</ele><time>2026-04-18T13:58:25.258Z</time></trkpt><trkpt lat="44.8711004" lon="9.4741577"><ele>527.0</ele><time>2026-04-18T13:58:26.259Z</time></trkpt><trkpt lat="44.8711153" lon="9.4743057"><ele>528.0</ele><time>2026-04-18T13:58:27.259Z</time></trkpt><trkpt lat="44.871152" lon="9.4744404"><ele>529.0</ele><time>2026-04-18T13:58:28.259Z</time></trkpt><trkpt lat="44.8711993" lon="9.4745671"><ele>530.0</ele><time>2026-04-18T13:58:29.259Z</time></trkpt><trkpt lat="44.8712478" lon="9.4746919"><ele>531.0</ele><time>2026-04-18T13:58:30.259Z</time></trkpt><trkpt lat="44.8712968" lon="9.4748191"><ele>531.4</ele><time>2026-04-18T13:58:31.258Z</time></trkpt><trkpt lat="44.8713407" lon="9.4749376"><ele>531.8</ele><time>2026-04-18T13:58:32.258Z</time></trkpt><trkpt lat="44.8713768" lon="9.4750618"><ele>532.1999999999999</ele><time>2026-04-18T13:58:33.258Z</time></trkpt><trkpt lat="44.8714124" lon="9.475189"><ele>532.6</ele><time>2026-04-18T13:58:34.259Z</time></trkpt><trkpt lat="44.8714467" lon="9.475329"><ele>533.0</ele><time>2026-04-18T13:58:35.259Z</time></trkpt><trkpt lat="44.8714874" lon="9.4754775"><ele>533.5</ele><time>2026-04-18T13:58:36.258Z</time></trkpt><trkpt lat="44.8715316" lon="9.4756299"><ele>534.0</ele><time>2026-04-18T13:58:37.258Z</time></trkpt><trkpt lat="44.8715832" lon="9.4757814"><ele>534.5</ele><time>2026-04-18T13:58:38.259Z</time></trkpt><trkpt lat="44.8716363" lon="9.4759357"><ele>535.0</ele><time>2026-04-18T13:58:39.258Z</time></trkpt><trkpt lat="44.8716902" lon="9.4760847"><ele>535.0</ele><time>2026-04-18T13:58:40.258Z</time></trkpt><trkpt lat="44.8717347" lon="9.4762226"><ele>535.0</ele><time>2026-04-18T13:58:41.258Z</time></trkpt><trkpt lat="44.8717672" lon="9.4763524"><ele>535.0</ele><time>2026-04-18T13:58:42.258Z</time></trkpt><trkpt lat="44.8717883" lon="9.4764744"><ele>535.0</ele><time>2026-04-18T13:58:43.258Z</time></trkpt><trkpt lat="44.8718161" lon="9.4766013"><ele>535.0</ele><time>2026-04-18T13:58:44.258Z</time></trkpt><trkpt lat="44.8718595" lon="9.4767067"><ele>534.2</ele><time>2026-04-18T13:58:45.259Z</time></trkpt><trkpt lat="44.8719237" lon="9.4767931"><ele>533.4</ele><time>2026-04-18T13:58:46.258Z</time></trkpt><trkpt lat="44.872006" lon="9.4768753"><ele>532.6</ele><time>2026-04-18T13:58:47.258Z</time></trkpt><trkpt lat="44.8720804" lon="9.4769502"><ele>531.8</ele><time>2026-04-18T13:58:48.258Z</time></trkpt><trkpt lat="44.8721397" lon="9.4770213"><ele>531.0</ele><time>2026-04-18T13:58:49.258Z</time></trkpt><trkpt lat="44.8722179" lon="9.4771017"><ele>533.2</ele><time>2026-04-18T13:58:51.258Z</time></trkpt><trkpt lat="44.8723116" lon="9.4771529"><ele>535.4000000000001</ele><time>2026-04-18T13:58:53.259Z</time></trkpt><trkpt lat="44.8724218" lon="9.4772098"><ele>537.6</ele><time>2026-04-18T13:58:55.258Z</time></trkpt><trkpt lat="44.8724702" lon="9.4772771"><ele>539.8000000000001</ele><time>2026-04-18T13:58:56.258Z</time></trkpt><trkpt lat="44.8725226" lon="9.4773763"><ele>542.0</ele><time>2026-04-18T13:58:57.258Z</time></trkpt><trkpt lat="44.8725698" lon="9.4774814"><ele>537.0</ele><time>2026-04-18T13:58:58.258Z</time></trkpt><trkpt lat="44.8726174" lon="9.4775993"><ele>532.0</ele><time>2026-04-18T13:58:59.258Z</time></trkpt><trkpt lat="44.8726622" lon="9.4777114"><ele>527.0</ele><time>2026-04-18T13:59:00.258Z</time></trkpt><trkpt lat="44.8727004" lon="9.4778126"><ele>522.0</ele><time>2026-04-18T13:59:01.258Z</time></trkpt><trkpt lat="44.872733" lon="9.4779167"><ele>517.0</ele><time>2026-04-18T13:59:02.258Z</time></trkpt><trkpt lat="44.8727592" lon="9.4780334"><ele>512.0</ele><time>2026-04-18T13:59:03.258Z</time></trkpt><trkpt lat="44.8727801" lon="9.4781634"><ele>511.8</ele><time>2026-04-18T13:59:04.258Z</time></trkpt><trkpt lat="44.8727958" lon="9.4783138"><ele>511.6</ele><time>2026-04-18T13:59:05.258Z</time></trkpt><trkpt lat="44.8728015" lon="9.478462"><ele>511.40000000000003</ele><time>2026-04-18T13:59:06.258Z</time></trkpt><trkpt lat="44.872799" lon="9.4786056"><ele>511.20000000000005</ele><time>2026-04-18T13:59:07.258Z</time></trkpt><trkpt lat="44.8728051" lon="9.4787489"><ele>511.0</ele><time>2026-04-18T13:59:08.258Z</time></trkpt><trkpt lat="44.8728254" lon="9.4788982"><ele>511.6</ele><time>2026-04-18T13:59:09.258Z</time></trkpt><trkpt lat="44.8728504" lon="9.4790313"><ele>512.2</ele><time>2026-04-18T13:59:10.258Z</time></trkpt><trkpt lat="44.8728756" lon="9.4791682"><ele>512.8</ele><time>2026-04-18T13:59:11.258Z</time></trkpt><trkpt lat="44.8728912" lon="9.4793096"><ele>513.4</ele><time>2026-04-18T13:59:12.258Z</time></trkpt><trkpt lat="44.8729046" lon="9.4794489"><ele>514.0</ele><time>2026-04-18T13:59:13.258Z</time></trkpt><trkpt lat="44.8729155" lon="9.4795876"><ele>514.6666666666667</ele><time>2026-04-18T13:59:14.259Z</time></trkpt><trkpt lat="44.8729197" lon="9.4797157"><ele>515.3333333333334</ele><time>2026-04-18T13:59:15.258Z</time></trkpt><trkpt lat="44.8729269" lon="9.4798268"><ele>516.0</ele><time>2026-04-18T13:59:16.258Z</time></trkpt><trkpt lat="44.8729487" lon="9.479937"><ele>516.6666666666666</ele><time>2026-04-18T13:59:17.258Z</time></trkpt><trkpt lat="44.8729863" lon="9.4800544"><ele>517.3333333333333</ele><time>2026-04-18T13:59:18.259Z</time></trkpt><trkpt lat="44.8730366" lon="9.4801803"><ele>518.0</ele><time>2026-04-18T13:59:19.258Z</time></trkpt><trkpt lat="44.8730881" lon="9.4803146"><ele>519.6</ele><time>2026-04-18T13:59:20.258Z</time></trkpt><trkpt lat="44.8731371" lon="9.4804387"><ele>521.1999999999999</ele><time>2026-04-18T13:59:21.258Z</time></trkpt><trkpt lat="44.8731827" lon="9.4805569"><ele>522.8</ele><time>2026-04-18T13:59:22.259Z</time></trkpt><trkpt lat="44.8732276" lon="9.4806735"><ele>524.4</ele><time>2026-04-18T13:59:23.258Z</time></trkpt><trkpt lat="44.8732717" lon="9.4807721"><ele>526.0</ele><time>2026-04-18T13:59:24.258Z</time></trkpt><trkpt lat="44.873318" lon="9.4808634"><ele>526.0</ele><time>2026-04-18T13:59:25.258Z</time></trkpt><trkpt lat="44.8733661" lon="9.4809501"><ele>526.0</ele><time>2026-04-18T13:59:26.258Z</time></trkpt><trkpt lat="44.8734196" lon="9.4810398"><ele>526.0</ele><time>2026-04-18T13:59:27.258Z</time></trkpt><trkpt lat="44.8734714" lon="9.4811171"><ele>526.0</ele><time>2026-04-18T13:59:28.258Z</time></trkpt><trkpt lat="44.8735222" lon="9.4811791"><ele>526.0</ele><time>2026-04-18T13:59:29.259Z</time></trkpt><trkpt lat="44.87357" lon="9.4812404"><ele>526.0</ele><time>2026-04-18T13:59:30.258Z</time></trkpt><trkpt lat="44.8736644" lon="9.4813507"><ele>528.0</ele><time>2026-04-18T13:59:32.258Z</time></trkpt><trkpt lat="44.8737197" lon="9.4814038"><ele>530.0</ele><time>2026-04-18T13:59:33.258Z</time></trkpt><trkpt lat="44.873778" lon="9.4814662"><ele>532.0</ele><time>2026-04-18T13:59:34.258Z</time></trkpt><trkpt lat="44.8738381" lon="9.481528"><ele>534.0</ele><time>2026-04-18T13:59:35.258Z</time></trkpt><trkpt lat="44.8738943" lon="9.4815824"><ele>536.0</ele><time>2026-04-18T13:59:36.259Z</time></trkpt><trkpt lat="44.873952" lon="9.4816416"><ele>538.0</ele><time>2026-04-18T13:59:37.258Z</time></trkpt><trkpt lat="44.874008" lon="9.4816981"><ele>540.0</ele><time>2026-04-18T13:59:38.259Z</time></trkpt><trkpt lat="44.8741141" lon="9.4817951"><ele>540.0</ele><time>2026-04-18T13:59:40.258Z</time></trkpt><trkpt lat="44.874171" lon="9.4818502"><ele>540.0</ele><time>2026-04-18T13:59:41.258Z</time></trkpt><trkpt lat="44.8742287" lon="9.4819041"><ele>540.0</ele><time>2026-04-18T13:59:42.258Z</time></trkpt><trkpt lat="44.8742974" lon="9.4819495"><ele>540.0</ele><time>2026-04-18T13:59:43.258Z</time></trkpt><trkpt lat="44.874374" lon="9.481982"><ele>540.0</ele><time>2026-04-18T13:59:44.258Z</time></trkpt><trkpt lat="44.8744505" lon="9.482004"><ele>540.0</ele><time>2026-04-18T13:59:45.258Z</time></trkpt><trkpt lat="44.8745306" lon="9.4820231"><ele>541.3333333333334</ele><time>2026-04-18T13:59:46.258Z</time></trkpt><trkpt lat="44.8745996" lon="9.4820417"><ele>542.6666666666666</ele><time>2026-04-18T13:59:47.258Z</time></trkpt><trkpt lat="44.8747152" lon="9.4820684"><ele>544.0</ele><time>2026-04-18T13:59:49.259Z</time></trkpt><trkpt lat="44.8747845" lon="9.4820907"><ele>545.3333333333333</ele><time>2026-04-18T13:59:52.258Z</time></trkpt><trkpt lat="44.8748498" lon="9.4821194"><ele>546.6666666666666</ele><time>2026-04-18T14:01:43.259Z</time></trkpt><trkpt lat="44.8749302" lon="9.4821961"><ele>548.0</ele><time>2026-04-18T14:01:45.258Z</time></trkpt><trkpt lat="44.875009" lon="9.4822706"><ele>548.0</ele><time>2026-04-18T14:04:40.258Z</time></trkpt><trkpt lat="44.8750635" lon="9.4823304"><ele>548.0</ele><time>2026-04-18T14:04:41.258Z</time></trkpt><trkpt lat="44.8751235" lon="9.4824074"><ele>548.0</ele><time>2026-04-18T14:04:42.259Z</time></trkpt><trkpt lat="44.8751804" lon="9.4824945"><ele>548.0</ele><time>2026-04-18T14:04:43.258Z</time></trkpt><trkpt lat="44.8752357" lon="9.4826014"><ele>548.0</ele><time>2026-04-18T14:04:44.258Z</time></trkpt><trkpt lat="44.8752751" lon="9.4827214"><ele>548.0</ele><time>2026-04-18T14:04:45.258Z</time></trkpt><trkpt lat="44.8752989" lon="9.4828619"><ele>548.5</ele><time>2026-04-18T14:04:46.258Z</time></trkpt><trkpt lat="44.8753199" lon="9.4830177"><ele>549.0</ele><time>2026-04-18T14:04:47.258Z</time></trkpt><trkpt lat="44.8753424" lon="9.4831684"><ele>549.5</ele><time>2026-04-18T14:04:48.258Z</time></trkpt><trkpt lat="44.8753664" lon="9.4833233"><ele>550.0</ele><time>2026-04-18T14:04:49.259Z</time></trkpt><trkpt lat="44.8753941" lon="9.4834873"><ele>550.0</ele><time>2026-04-18T14:04:50.258Z</time></trkpt><trkpt lat="44.8754205" lon="9.4836557"><ele>550.0</ele><time>2026-04-18T14:04:51.258Z</time></trkpt><trkpt lat="44.8754461" lon="9.4838331"><ele>550.0</ele><time>2026-04-18T14:04:52.259Z</time></trkpt><trkpt lat="44.8754727" lon="9.4840111"><ele>550.0</ele><time>2026-04-18T14:04:53.258Z</time></trkpt><trkpt lat="44.875504" lon="9.484181"><ele>551.0</ele><time>2026-04-18T14:04:54.258Z</time></trkpt><trkpt lat="44.8755397" lon="9.4843409"><ele>552.0</ele><time>2026-04-18T14:04:55.258Z</time></trkpt><trkpt lat="44.8755795" lon="9.4844961"><ele>553.0</ele><time>2026-04-18T14:04:56.258Z</time></trkpt><trkpt lat="44.8756244" lon="9.4846499"><ele>554.0</ele><time>2026-04-18T14:04:57.258Z</time></trkpt><trkpt lat="44.8756747" lon="9.4848003"><ele>554.0</ele><time>2026-04-18T14:04:58.258Z</time></trkpt><trkpt lat="44.8757289" lon="9.4849499"><ele>554.0</ele><time>2026-04-18T14:04:59.258Z</time></trkpt><trkpt lat="44.8757832" lon="9.4851122"><ele>554.0</ele><time>2026-04-18T14:05:00.258Z</time></trkpt><trkpt lat="44.8758219" lon="9.4852782"><ele>554.0</ele><time>2026-04-18T14:05:01.258Z</time></trkpt><trkpt lat="44.8758539" lon="9.4854462"><ele>553.5</ele><time>2026-04-18T14:05:02.258Z</time></trkpt><trkpt lat="44.8758929" lon="9.4856129"><ele>553.0</ele><time>2026-04-18T14:05:03.258Z</time></trkpt><trkpt lat="44.8759536" lon="9.4857681"><ele>552.5</ele><time>2026-04-18T14:05:04.258Z</time></trkpt><trkpt lat="44.8760305" lon="9.4859021"><ele>552.0</ele><time>2026-04-18T14:05:05.259Z</time></trkpt><trkpt lat="44.8761157" lon="9.4860298"><ele>552.25</ele><time>2026-04-18T14:05:06.258Z</time></trkpt><trkpt lat="44.8761995" lon="9.4861654"><ele>552.5</ele><time>2026-04-18T14:05:07.258Z</time></trkpt><trkpt lat="44.8762769" lon="9.486302"><ele>552.75</ele><time>2026-04-18T14:05:08.259Z</time></trkpt><trkpt lat="44.8763539" lon="9.4864384"><ele>553.0</ele><time>2026-04-18T14:05:09.258Z</time></trkpt><trkpt lat="44.8764205" lon="9.4865909"><ele>553.0</ele><time>2026-04-18T14:05:10.258Z</time></trkpt><trkpt lat="44.8764857" lon="9.4867595"><ele>553.0</ele><time>2026-04-18T14:05:11.259Z</time></trkpt><trkpt lat="44.8765507" lon="9.4869279"><ele>553.0</ele><time>2026-04-18T14:05:12.258Z</time></trkpt><trkpt lat="44.8766038" lon="9.4870953"><ele>553.0</ele><time>2026-04-18T14:05:13.259Z</time></trkpt><trkpt lat="44.8766485" lon="9.4872734"><ele>553.0</ele><time>2026-04-18T14:05:14.259Z</time></trkpt><trkpt lat="44.8766867" lon="9.4874566"><ele>553.0</ele><time>2026-04-18T14:05:15.259Z</time></trkpt><trkpt lat="44.8767141" lon="9.4876448"><ele>553.0</ele><time>2026-04-18T14:05:16.259Z</time></trkpt><trkpt lat="44.8767354" lon="9.487828"><ele>553.0</ele><time>2026-04-18T14:05:17.258Z</time></trkpt><trkpt lat="44.8767446" lon="9.4880085"><ele>550.75</ele><time>2026-04-18T14:05:18.258Z</time></trkpt><trkpt lat="44.8767834" lon="9.4881819"><ele>548.5</ele><time>2026-04-18T14:05:19.258Z</time></trkpt><trkpt lat="44.8768304" lon="9.4883586"><ele>546.25</ele><time>2026-04-18T14:05:20.258Z</time></trkpt><trkpt lat="44.8768796" lon="9.4885373"><ele>544.0</ele><time>2026-04-18T14:05:21.258Z</time></trkpt><trkpt lat="44.8769379" lon="9.4887282"><ele>546.25</ele><time>2026-04-18T14:05:22.258Z</time></trkpt><trkpt lat="44.8770016" lon="9.4889215"><ele>548.5</ele><time>2026-04-18T14:05:23.259Z</time></trkpt><trkpt lat="44.877066" lon="9.4891033"><ele>550.75</ele><time>2026-04-18T14:05:24.259Z</time></trkpt><trkpt lat="44.8771317" lon="9.489272"><ele>553.0</ele><time>2026-04-18T14:05:25.258Z</time></trkpt><trkpt lat="44.877195" lon="9.4894346"><ele>554.0</ele><time>2026-04-18T14:05:26.258Z</time></trkpt><trkpt lat="44.8772564" lon="9.4895942"><ele>555.0</ele><time>2026-04-18T14:05:27.258Z</time></trkpt><trkpt lat="44.8773136" lon="9.4897515"><ele>556.0</ele><time>2026-04-18T14:05:28.259Z</time></trkpt><trkpt lat="44.877351" lon="9.4898999"><ele>557.0</ele><time>2026-04-18T14:05:29.258Z</time></trkpt><trkpt lat="44.877361" lon="9.4900316"><ele>557.0</ele><time>2026-04-18T14:05:30.258Z</time></trkpt><trkpt lat="44.8773338" lon="9.4901688"><ele>557.0</ele><time>2026-04-18T14:05:31.258Z</time></trkpt><trkpt lat="44.8772719" lon="9.4902966"><ele>557.0</ele><time>2026-04-18T14:05:32.258Z</time></trkpt><trkpt lat="44.8771844" lon="9.4904381"><ele>557.0</ele><time>2026-04-18T14:05:33.258Z</time></trkpt><trkpt lat="44.877109" lon="9.4905872"><ele>555.0</ele><time>2026-04-18T14:05:34.258Z</time></trkpt><trkpt lat="44.877056" lon="9.490746"><ele>553.0</ele><time>2026-04-18T14:05:35.258Z</time></trkpt><trkpt lat="44.8770259" lon="9.4909121"><ele>551.0</ele><time>2026-04-18T14:05:36.259Z</time></trkpt><trkpt lat="44.877022" lon="9.491085"><ele>549.0</ele><time>2026-04-18T14:05:37.258Z</time></trkpt><trkpt lat="44.8770371" lon="9.4912457"><ele>548.0</ele><time>2026-04-18T14:05:38.259Z</time></trkpt><trkpt lat="44.8770472" lon="9.4914104"><ele>547.0</ele><time>2026-04-18T14:05:39.258Z</time></trkpt><trkpt lat="44.8770358" lon="9.4915765"><ele>546.0</ele><time>2026-04-18T14:05:40.258Z</time></trkpt><trkpt lat="44.8770247" lon="9.4917355"><ele>545.0</ele><time>2026-04-18T14:05:41.258Z</time></trkpt><trkpt lat="44.8770221" lon="9.4918861"><ele>545.0</ele><time>2026-04-18T14:05:42.258Z</time></trkpt><trkpt lat="44.8770267" lon="9.4920365"><ele>545.0</ele><time>2026-04-18T14:05:43.258Z</time></trkpt><trkpt lat="44.8770333" lon="9.4921986"><ele>545.0</ele><time>2026-04-18T14:05:44.258Z</time></trkpt><trkpt lat="44.8770337" lon="9.4923727"><ele>545.0</ele><time>2026-04-18T14:05:45.258Z</time></trkpt><trkpt lat="44.8770214" lon="9.4925548"><ele>545.25</ele><time>2026-04-18T14:05:46.258Z</time></trkpt><trkpt lat="44.8769943" lon="9.4927321"><ele>545.5</ele><time>2026-04-18T14:05:47.259Z</time></trkpt><trkpt lat="44.8769659" lon="9.4928946"><ele>545.75</ele><time>2026-04-18T14:05:48.258Z</time></trkpt><trkpt lat="44.8769379" lon="9.4930641"><ele>546.0</ele><time>2026-04-18T14:05:49.258Z</time></trkpt><trkpt lat="44.8769114" lon="9.49324"><ele>546.0</ele><time>2026-04-18T14:05:50.258Z</time></trkpt><trkpt lat="44.8768952" lon="9.4934239"><ele>546.0</ele><time>2026-04-18T14:05:51.259Z</time></trkpt><trkpt lat="44.876895" lon="9.4935952"><ele>546.0</ele><time>2026-04-18T14:05:52.258Z</time></trkpt><trkpt lat="44.8769084" lon="9.4937616"><ele>546.0</ele><time>2026-04-18T14:05:53.259Z</time></trkpt><trkpt lat="44.8769383" lon="9.4939188"><ele>548.8</ele><time>2026-04-18T14:05:54.258Z</time></trkpt><trkpt lat="44.876983" lon="9.4940619"><ele>551.6</ele><time>2026-04-18T14:05:55.258Z</time></trkpt><trkpt lat="44.8770347" lon="9.494194"><ele>554.4</ele><time>2026-04-18T14:05:56.258Z</time></trkpt><trkpt lat="44.8770897" lon="9.4943202"><ele>557.2</ele><time>2026-04-18T14:05:57.258Z</time></trkpt><trkpt lat="44.8771466" lon="9.4944465"><ele>560.0</ele><time>2026-04-18T14:05:58.258Z</time></trkpt><trkpt lat="44.8772032" lon="9.4945707"><ele>562.4</ele><time>2026-04-18T14:05:59.258Z</time></trkpt><trkpt lat="44.8772626" lon="9.4946875"><ele>564.8</ele><time>2026-04-18T14:06:00.258Z</time></trkpt><trkpt lat="44.8773348" lon="9.4947922"><ele>567.2</ele><time>2026-04-18T14:06:01.259Z</time></trkpt><trkpt lat="44.8774204" lon="9.494883"><ele>569.6</ele><time>2026-04-18T14:06:02.258Z</time></trkpt><trkpt lat="44.8775113" lon="9.4949566"><ele>572.0</ele><time>2026-04-18T14:06:03.259Z</time></trkpt><trkpt lat="44.8776022" lon="9.4950205"><ele>572.0</ele><time>2026-04-18T14:06:04.258Z</time></trkpt><trkpt lat="44.8776946" lon="9.4950754"><ele>572.0</ele><time>2026-04-18T14:06:05.258Z</time></trkpt><trkpt lat="44.8777977" lon="9.4951337"><ele>572.0</ele><time>2026-04-18T14:06:06.258Z</time></trkpt><trkpt lat="44.8778957" lon="9.4951907"><ele>572.0</ele><time>2026-04-18T14:06:07.258Z</time></trkpt><trkpt lat="44.8779803" lon="9.4952391"><ele>572.0</ele><time>2026-04-18T14:06:08.259Z</time></trkpt><trkpt lat="44.8780633" lon="9.4952842"><ele>572.0</ele><time>2026-04-18T14:06:09.258Z</time></trkpt><trkpt lat="44.8781388" lon="9.495334"><ele>572.0</ele><time>2026-04-18T14:06:10.258Z</time></trkpt><trkpt lat="44.8781962" lon="9.4953793"><ele>572.0</ele><time>2026-04-18T14:06:11.259Z</time></trkpt><trkpt lat="44.8782255" lon="9.4955104"><ele>572.0</ele><time>2026-04-18T14:06:13.258Z</time></trkpt><trkpt lat="44.8781688" lon="9.4956636"><ele>572.0</ele><time>2026-04-18T14:06:15.258Z</time></trkpt><trkpt lat="44.878126" lon="9.4957679"><ele>575.25</ele><time>2026-04-18T14:06:16.258Z</time></trkpt><trkpt lat="44.8780797" lon="9.4958958"><ele>578.5</ele><time>2026-04-18T14:06:17.258Z</time></trkpt><trkpt lat="44.8780288" lon="9.4960476"><ele>581.75</ele><time>2026-04-18T14:06:18.259Z</time></trkpt><trkpt lat="44.8779766" lon="9.4962019"><ele>585.0</ele><time>2026-04-18T14:06:19.258Z</time></trkpt><trkpt lat="44.877925" lon="9.496352"><ele>587.75</ele><time>2026-04-18T14:06:20.258Z</time></trkpt><trkpt lat="44.8778634" lon="9.4965141"><ele>590.5</ele><time>2026-04-18T14:06:21.258Z</time></trkpt><trkpt lat="44.8777961" lon="9.4966762"><ele>593.25</ele><time>2026-04-18T14:06:22.258Z</time></trkpt><trkpt lat="44.8777304" lon="9.4968272"><ele>596.0</ele><time>2026-04-18T14:06:23.258Z</time></trkpt><trkpt lat="44.8776737" lon="9.4969585"><ele>596.0</ele><time>2026-04-18T14:06:24.259Z</time></trkpt><trkpt lat="44.8776262" lon="9.4970748"><ele>596.0</ele><time>2026-04-18T14:06:25.258Z</time></trkpt><trkpt lat="44.8775754" lon="9.4972104"><ele>596.0</ele><time>2026-04-18T14:06:26.259Z</time></trkpt><trkpt lat="44.8775253" lon="9.4973674"><ele>596.0</ele><time>2026-04-18T14:06:27.258Z</time></trkpt><trkpt lat="44.8774787" lon="9.4975259"><ele>596.0</ele><time>2026-04-18T14:06:28.258Z</time></trkpt><trkpt lat="44.8774377" lon="9.4977011"><ele>595.25</ele><time>2026-04-18T14:06:29.258Z</time></trkpt><trkpt lat="44.8773942" lon="9.4978844"><ele>594.5</ele><time>2026-04-18T14:06:30.258Z</time></trkpt><trkpt lat="44.877358" lon="9.4980649"><ele>593.75</ele><time>2026-04-18T14:06:31.259Z</time></trkpt><trkpt lat="44.8773251" lon="9.4982439"><ele>593.0</ele><time>2026-04-18T14:06:32.258Z</time></trkpt><trkpt lat="44.8772898" lon="9.4984293"><ele>594.75</ele><time>2026-04-18T14:06:33.258Z</time></trkpt><trkpt lat="44.8772544" lon="9.4985994"><ele>596.5</ele><time>2026-04-18T14:06:34.259Z</time></trkpt><trkpt lat="44.8772233" lon="9.4987692"><ele>598.25</ele><time>2026-04-18T14:06:35.258Z</time></trkpt><trkpt lat="44.8771977" lon="9.49894"><ele>600.0</ele><time>2026-04-18T14:06:36.258Z</time></trkpt><trkpt lat="44.8771793" lon="9.4991126"><ele>600.5</ele><time>2026-04-18T14:06:37.258Z</time></trkpt><trkpt lat="44.8771621" lon="9.49928"><ele>601.0</ele><time>2026-04-18T14:06:38.258Z</time></trkpt><trkpt lat="44.8771497" lon="9.4994375"><ele>601.5</ele><time>2026-04-18T14:06:39.258Z</time></trkpt><trkpt lat="44.8771469" lon="9.4995929"><ele>602.0</ele><time>2026-04-18T14:06:40.258Z</time></trkpt><trkpt lat="44.8771571" lon="9.4997466"><ele>602.0</ele><time>2026-04-18T14:06:41.259Z</time></trkpt><trkpt lat="44.8771812" lon="9.4999154"><ele>602.0</ele><time>2026-04-18T14:06:42.258Z</time></trkpt><trkpt lat="44.8772142" lon="9.500088"><ele>602.0</ele><time>2026-04-18T14:06:43.258Z</time></trkpt><trkpt lat="44.8772436" lon="9.5002634"><ele>602.0</ele><time>2026-04-18T14:06:44.258Z</time></trkpt><trkpt lat="44.8772751" lon="9.5004343"><ele>600.5</ele><time>2026-04-18T14:06:45.259Z</time></trkpt><trkpt lat="44.8773096" lon="9.500603"><ele>599.0</ele><time>2026-04-18T14:06:46.259Z</time></trkpt><trkpt lat="44.8773417" lon="9.5007731"><ele>597.5</ele><time>2026-04-18T14:06:47.259Z</time></trkpt><trkpt lat="44.8773743" lon="9.5009348"><ele>596.0</ele><time>2026-04-18T14:06:48.258Z</time></trkpt><trkpt lat="44.8774059" lon="9.5010935"><ele>596.25</ele><time>2026-04-18T14:06:49.258Z</time></trkpt><trkpt lat="44.8774347" lon="9.5012523"><ele>596.5</ele><time>2026-04-18T14:06:50.258Z</time></trkpt><trkpt lat="44.8774494" lon="9.5014129"><ele>596.75</ele><time>2026-04-18T14:06:51.258Z</time></trkpt><trkpt lat="44.8774451" lon="9.5015725"><ele>597.0</ele><time>2026-04-18T14:06:52.259Z</time></trkpt><trkpt lat="44.8774148" lon="9.5017241"><ele>597.0</ele><time>2026-04-18T14:06:53.258Z</time></trkpt><trkpt lat="44.8773608" lon="9.5018604"><ele>597.0</ele><time>2026-04-18T14:06:54.258Z</time></trkpt><trkpt lat="44.8773108" lon="9.5019606"><ele>597.0</ele><time>2026-04-18T14:06:55.258Z</time></trkpt><trkpt lat="44.8772479" lon="9.5020638"><ele>597.0</ele><time>2026-04-18T14:06:57.258Z</time></trkpt><trkpt lat="44.8772034" lon="9.5021703"><ele>597.0</ele><time>2026-04-18T14:07:00.258Z</time></trkpt><trkpt lat="44.8771675" lon="9.5023783"><ele>598.2</ele><time>2026-04-18T14:07:02.259Z</time></trkpt><trkpt lat="44.8771499" lon="9.5025206"><ele>599.4000000000001</ele><time>2026-04-18T14:07:03.258Z</time></trkpt><trkpt lat="44.8771337" lon="9.5026401"><ele>600.5999999999999</ele><time>2026-04-18T14:07:04.258Z</time></trkpt><trkpt lat="44.8771136" lon="9.502777"><ele>601.8</ele><time>2026-04-18T14:07:05.259Z</time></trkpt><trkpt lat="44.8770896" lon="9.5029099"><ele>603.0</ele><time>2026-04-18T14:07:06.258Z</time></trkpt><trkpt lat="44.8770654" lon="9.5030358"><ele>604.75</ele><time>2026-04-18T14:07:07.259Z</time></trkpt><trkpt lat="44.8770371" lon="9.5031583"><ele>606.5</ele><time>2026-04-18T14:07:08.258Z</time></trkpt><trkpt lat="44.8770015" lon="9.5032908"><ele>608.25</ele><time>2026-04-18T14:07:09.258Z</time></trkpt><trkpt lat="44.8769604" lon="9.5034242"><ele>610.0</ele><time>2026-04-18T14:07:10.258Z</time></trkpt><trkpt lat="44.8768883" lon="9.5036732"><ele>612.0</ele><time>2026-04-18T14:07:12.259Z</time></trkpt><trkpt lat="44.8768696" lon="9.5038037"><ele>614.0</ele><time>2026-04-18T14:07:13.258Z</time></trkpt><trkpt lat="44.8768631" lon="9.5039399"><ele>616.0</ele><time>2026-04-18T14:07:14.258Z</time></trkpt><trkpt lat="44.8768661" lon="9.5040922"><ele>618.0</ele><time>2026-04-18T14:07:15.258Z</time></trkpt><trkpt lat="44.8768732" lon="9.5042558"><ele>620.0</ele><time>2026-04-18T14:07:16.258Z</time></trkpt><trkpt lat="44.8768833" lon="9.5044016"><ele>620.0</ele><time>2026-04-18T14:07:17.258Z</time></trkpt><trkpt lat="44.8769017" lon="9.5045505"><ele>620.0</ele><time>2026-04-18T14:07:18.258Z</time></trkpt><trkpt lat="44.8769212" lon="9.5046697"><ele>620.0</ele><time>2026-04-18T14:07:19.258Z</time></trkpt><trkpt lat="44.8769361" lon="9.5047948"><ele>620.0</ele><time>2026-04-18T14:07:20.258Z</time></trkpt><trkpt lat="44.8769582" lon="9.5049102"><ele>620.0</ele><time>2026-04-18T14:07:21.259Z</time></trkpt><trkpt lat="44.8770249" lon="9.5050784"><ele>620.8333333333333</ele><time>2026-04-18T14:07:23.259Z</time></trkpt><trkpt lat="44.8770646" lon="9.5051653"><ele>621.6666666666666</ele><time>2026-04-18T14:07:24.258Z</time></trkpt><trkpt lat="44.8771009" lon="9.5052525"><ele>622.5</ele><time>2026-04-18T14:07:25.258Z</time></trkpt><trkpt lat="44.8771313" lon="9.505347"><ele>623.3333333333334</ele><time>2026-04-18T14:07:26.258Z</time></trkpt><trkpt lat="44.8771609" lon="9.5054601"><ele>624.1666666666667</ele><time>2026-04-18T14:07:27.258Z</time></trkpt><trkpt lat="44.8771808" lon="9.5055652"><ele>625.0</ele><time>2026-04-18T14:07:28.258Z</time></trkpt><trkpt lat="44.8771995" lon="9.5056797"><ele>625.5</ele><time>2026-04-18T14:07:29.259Z</time></trkpt><trkpt lat="44.8772215" lon="9.5057875"><ele>626.0</ele><time>2026-04-18T14:07:30.258Z</time></trkpt><trkpt lat="44.8772526" lon="9.5059174"><ele>626.5</ele><time>2026-04-18T14:07:31.259Z</time></trkpt><trkpt lat="44.8772805" lon="9.5060334"><ele>627.0</ele><time>2026-04-18T14:07:32.259Z</time></trkpt><trkpt lat="44.8773081" lon="9.5061335"><ele>627.5</ele><time>2026-04-18T14:07:33.258Z</time></trkpt><trkpt lat="44.8773365" lon="9.5062257"><ele>628.0</ele><time>2026-04-18T14:07:34.259Z</time></trkpt><trkpt lat="44.8774052" lon="9.5063269"><ele>628.0</ele><time>2026-04-18T14:07:36.258Z</time></trkpt><trkpt lat="44.8774628" lon="9.5063721"><ele>628.0</ele><time>2026-04-18T14:07:37.258Z</time></trkpt><trkpt lat="44.8775311" lon="9.5064045"><ele>628.0</ele><time>2026-04-18T14:07:38.258Z</time></trkpt><trkpt lat="44.8776093" lon="9.5064238"><ele>628.0</ele><time>2026-04-18T14:07:39.258Z</time></trkpt><trkpt lat="44.877695" lon="9.5064349"><ele>628.0</ele><time>2026-04-18T14:07:40.258Z</time></trkpt><trkpt lat="44.8777855" lon="9.5064281"><ele>628.0</ele><time>2026-04-18T14:07:41.258Z</time></trkpt><trkpt lat="44.8778808" lon="9.5064425"><ele>628.0</ele><time>2026-04-18T14:07:42.258Z</time></trkpt><trkpt lat="44.8779685" lon="9.5064534"><ele>628.0</ele><time>2026-04-18T14:07:43.258Z</time></trkpt><trkpt lat="44.8780428" lon="9.5064774"><ele>628.0</ele><time>2026-04-18T14:07:44.258Z</time></trkpt><trkpt lat="44.8781033" lon="9.5065184"><ele>628.0</ele><time>2026-04-18T14:07:45.258Z</time></trkpt><trkpt lat="44.8781561" lon="9.5065758"><ele>628.0</ele><time>2026-04-18T14:07:46.258Z</time></trkpt><trkpt lat="44.8782077" lon="9.5066348"><ele>628.0</ele><time>2026-04-18T14:07:47.258Z</time></trkpt><trkpt lat="44.878327" lon="9.5067776"><ele>628.0</ele><time>2026-04-18T14:07:50.258Z</time></trkpt><trkpt lat="44.8783696" lon="9.5068462"><ele>628.0</ele><time>2026-04-18T14:08:13.258Z</time></trkpt><trkpt lat="44.8784209" lon="9.5070176"><ele>628.0</ele><time>2026-04-18T14:08:19.258Z</time></trkpt><trkpt lat="44.8784447" lon="9.5071257"><ele>628.0</ele><time>2026-04-18T14:08:20.258Z</time></trkpt><trkpt lat="44.8784725" lon="9.5072557"><ele>628.0</ele><time>2026-04-18T14:08:21.258Z</time></trkpt><trkpt lat="44.8784963" lon="9.50739"><ele>629.75</ele><time>2026-04-18T14:08:22.258Z</time></trkpt><trkpt lat="44.8785192" lon="9.5075326"><ele>631.5</ele><time>2026-04-18T14:08:23.259Z</time></trkpt><trkpt lat="44.8785443" lon="9.5076954"><ele>633.25</ele><time>2026-04-18T14:08:24.258Z</time></trkpt><trkpt lat="44.8785614" lon="9.5078725"><ele>635.0</ele><time>2026-04-18T14:08:25.258Z</time></trkpt><trkpt lat="44.8785747" lon="9.5080649"><ele>635.25</ele><time>2026-04-18T14:08:26.258Z</time></trkpt><trkpt lat="44.8785861" lon="9.5082765"><ele>635.5</ele><time>2026-04-18T14:08:27.258Z</time></trkpt><trkpt lat="44.8785897" lon="9.5084804"><ele>635.75</ele><time>2026-04-18T14:08:28.258Z</time></trkpt><trkpt lat="44.8785841" lon="9.5086954"><ele>636.0</ele><time>2026-04-18T14:08:29.258Z</time></trkpt><trkpt lat="44.8785816" lon="9.5088756"><ele>636.0</ele><time>2026-04-18T14:08:30.259Z</time></trkpt><trkpt lat="44.8785522" lon="9.5090431"><ele>636.0</ele><time>2026-04-18T14:08:31.258Z</time></trkpt><trkpt lat="44.878504" lon="9.5091892"><ele>636.0</ele><time>2026-04-18T14:08:32.258Z</time></trkpt><trkpt lat="44.8784322" lon="9.5093095"><ele>636.0</ele><time>2026-04-18T14:08:33.258Z</time></trkpt><trkpt lat="44.8782149" lon="9.5095988"><ele>632.6666666666666</ele><time>2026-04-18T14:08:36.258Z</time></trkpt><trkpt lat="44.8781924" lon="9.5097306"><ele>629.3333333333334</ele><time>2026-04-18T14:08:37.259Z</time></trkpt><trkpt lat="44.8781794" lon="9.5098511"><ele>626.0</ele><time>2026-04-18T14:08:38.259Z</time></trkpt><trkpt lat="44.8781774" lon="9.5099574"><ele>622.6666666666667</ele><time>2026-04-18T14:08:39.258Z</time></trkpt><trkpt lat="44.8782294" lon="9.5100811"><ele>619.3333333333334</ele><time>2026-04-18T14:08:41.259Z</time></trkpt><trkpt lat="44.8782958" lon="9.510124"><ele>616.0</ele><time>2026-04-18T14:08:42.258Z</time></trkpt><trkpt lat="44.8783841" lon="9.510154"><ele>615.75</ele><time>2026-04-18T14:08:43.258Z</time></trkpt><trkpt lat="44.8784836" lon="9.5101677"><ele>615.5</ele><time>2026-04-18T14:08:44.258Z</time></trkpt><trkpt lat="44.8785892" lon="9.5101649"><ele>615.25</ele><time>2026-04-18T14:08:45.258Z</time></trkpt><trkpt lat="44.8787053" lon="9.5101389"><ele>615.0</ele><time>2026-04-18T14:08:46.258Z</time></trkpt><trkpt lat="44.8788301" lon="9.5101049"><ele>615.0</ele><time>2026-04-18T14:08:47.258Z</time></trkpt><trkpt lat="44.878961" lon="9.5100658"><ele>615.0</ele><time>2026-04-18T14:08:48.259Z</time></trkpt><trkpt lat="44.8790928" lon="9.5100223"><ele>615.0</ele><time>2026-04-18T14:08:49.258Z</time></trkpt><trkpt lat="44.8792226" lon="9.5099903"><ele>615.0</ele><time>2026-04-18T14:08:50.258Z</time></trkpt><trkpt lat="44.8793486" lon="9.510007"><ele>615.75</ele><time>2026-04-18T14:08:51.258Z</time></trkpt><trkpt lat="44.8794636" lon="9.5100704"><ele>616.5</ele><time>2026-04-18T14:08:52.258Z</time></trkpt><trkpt lat="44.8795861" lon="9.5101488"><ele>617.25</ele><time>2026-04-18T14:08:53.258Z</time></trkpt><trkpt lat="44.8797217" lon="9.5102239"><ele>618.0</ele><time>2026-04-18T14:08:54.258Z</time></trkpt><trkpt lat="44.8798649" lon="9.5102907"><ele>618.0</ele><time>2026-04-18T14:08:55.258Z</time></trkpt><trkpt lat="44.8799967" lon="9.5103469"><ele>618.0</ele><time>2026-04-18T14:08:56.258Z</time></trkpt><trkpt lat="44.8801164" lon="9.5104071"><ele>618.0</ele><time>2026-04-18T14:08:57.258Z</time></trkpt><trkpt lat="44.8802273" lon="9.5104671"><ele>618.0</ele><time>2026-04-18T14:08:58.258Z</time></trkpt><trkpt lat="44.8803264" lon="9.5105211"><ele>615.0</ele><time>2026-04-18T14:08:59.258Z</time></trkpt><trkpt lat="44.8804194" lon="9.510576"><ele>612.0</ele><time>2026-04-18T14:09:00.258Z</time></trkpt><trkpt lat="44.8804975" lon="9.5106575"><ele>609.0</ele><time>2026-04-18T14:09:01.259Z</time></trkpt><trkpt lat="44.8805657" lon="9.5107609"><ele>606.0</ele><time>2026-04-18T14:09:02.258Z</time></trkpt><trkpt lat="44.8806187" lon="9.5108887"><ele>603.0</ele><time>2026-04-18T14:09:03.258Z</time></trkpt><trkpt lat="44.8806661" lon="9.5110448"><ele>603.0</ele><time>2026-04-18T14:09:04.258Z</time></trkpt><trkpt lat="44.8807008" lon="9.51119"><ele>603.0</ele><time>2026-04-18T14:09:05.259Z</time></trkpt><trkpt lat="44.880744" lon="9.5113121"><ele>603.0</ele><time>2026-04-18T14:09:06.258Z</time></trkpt><trkpt lat="44.8808105" lon="9.5114106"><ele>603.0</ele><time>2026-04-18T14:09:07.259Z</time></trkpt><trkpt lat="44.8808708" lon="9.511489"><ele>603.0</ele><time>2026-04-18T14:09:08.258Z</time></trkpt><trkpt lat="44.8809721" lon="9.5114402"><ele>599.8</ele><time>2026-04-18T14:09:09.258Z</time></trkpt><trkpt lat="44.881053" lon="9.5113717"><ele>596.5999999999999</ele><time>2026-04-18T14:09:10.258Z</time></trkpt><trkpt lat="44.8811249" lon="9.5112675"><ele>593.4000000000001</ele><time>2026-04-18T14:09:11.258Z</time></trkpt><trkpt lat="44.8811859" lon="9.5111154"><ele>590.2</ele><time>2026-04-18T14:09:12.258Z</time></trkpt><trkpt lat="44.8812464" lon="9.5109633"><ele>587.0</ele><time>2026-04-18T14:09:13.258Z</time></trkpt><trkpt lat="44.8813921" lon="9.5106646"><ele>587.0</ele><time>2026-04-18T14:09:15.258Z</time></trkpt><trkpt lat="44.8814808" lon="9.5105545"><ele>587.0</ele><time>2026-04-18T14:09:16.258Z</time></trkpt><trkpt lat="44.8815803" lon="9.5104771"><ele>587.0</ele><time>2026-04-18T14:09:17.258Z</time></trkpt><trkpt lat="44.881687" lon="9.5104129"><ele>587.0</ele><time>2026-04-18T14:09:18.259Z</time></trkpt><trkpt lat="44.8817916" lon="9.5103424"><ele>585.0</ele><time>2026-04-18T14:09:19.258Z</time></trkpt><trkpt lat="44.8818941" lon="9.5102664"><ele>583.0</ele><time>2026-04-18T14:09:20.258Z</time></trkpt><trkpt lat="44.8820019" lon="9.5101988"><ele>581.0</ele><time>2026-04-18T14:09:21.258Z</time></trkpt><trkpt lat="44.8821153" lon="9.5101549"><ele>579.0</ele><time>2026-04-18T14:09:22.258Z</time></trkpt><trkpt lat="44.8822315" lon="9.5101592"><ele>579.0</ele><time>2026-04-18T14:09:23.258Z</time></trkpt><trkpt lat="44.8823425" lon="9.5101852"><ele>579.0</ele><time>2026-04-18T14:09:24.258Z</time></trkpt><trkpt lat="44.8824509" lon="9.5102068"><ele>579.0</ele><time>2026-04-18T14:09:25.258Z</time></trkpt><trkpt lat="44.8825522" lon="9.5102223"><ele>579.0</ele><time>2026-04-18T14:09:26.258Z</time></trkpt><trkpt lat="44.8826459" lon="9.5102355"><ele>579.0</ele><time>2026-04-18T14:09:27.258Z</time></trkpt><trkpt lat="44.8827378" lon="9.5102463"><ele>579.0</ele><time>2026-04-18T14:09:28.258Z</time></trkpt><trkpt lat="44.88283" lon="9.5102619"><ele>579.0</ele><time>2026-04-18T14:09:29.258Z</time></trkpt><trkpt lat="44.8829148" lon="9.5102855"><ele>579.0</ele><time>2026-04-18T14:09:30.258Z</time></trkpt><trkpt lat="44.8830018" lon="9.5103231"><ele>579.0</ele><time>2026-04-18T14:09:31.258Z</time></trkpt><trkpt lat="44.8831081" lon="9.5103894"><ele>579.0</ele><time>2026-04-18T14:09:32.258Z</time></trkpt><trkpt lat="44.883203" lon="9.5104634"><ele>579.0</ele><time>2026-04-18T14:09:33.258Z</time></trkpt><trkpt lat="44.8832955" lon="9.5105359"><ele>579.0</ele><time>2026-04-18T14:09:34.258Z</time></trkpt><trkpt lat="44.8833895" lon="9.510593"><ele>579.0</ele><time>2026-04-18T14:09:35.258Z</time></trkpt><trkpt lat="44.8834964" lon="9.5106365"><ele>579.0</ele><time>2026-04-18T14:09:36.258Z</time></trkpt><trkpt lat="44.8836121" lon="9.5106756"><ele>579.0</ele><time>2026-04-18T14:09:37.258Z</time></trkpt><trkpt lat="44.8837346" lon="9.5107005"><ele>580.75</ele><time>2026-04-18T14:09:38.258Z</time></trkpt><trkpt lat="44.8838557" lon="9.5107074"><ele>582.5</ele><time>2026-04-18T14:09:39.258Z</time></trkpt><trkpt lat="44.8839795" lon="9.5106957"><ele>584.25</ele><time>2026-04-18T14:09:40.258Z</time></trkpt><trkpt lat="44.8841057" lon="9.5106792"><ele>586.0</ele><time>2026-04-18T14:09:41.258Z</time></trkpt><trkpt lat="44.8842297" lon="9.5106724"><ele>587.0</ele><time>2026-04-18T14:09:42.258Z</time></trkpt><trkpt lat="44.8843513" lon="9.5106846"><ele>588.0</ele><time>2026-04-18T14:09:43.258Z</time></trkpt><trkpt lat="44.8844711" lon="9.5107242"><ele>589.0</ele><time>2026-04-18T14:09:44.259Z</time></trkpt><trkpt lat="44.8845892" lon="9.5107737"><ele>590.0</ele><time>2026-04-18T14:09:45.258Z</time></trkpt><trkpt lat="44.8847124" lon="9.510826"><ele>590.0</ele><time>2026-04-18T14:09:46.258Z</time></trkpt><trkpt lat="44.884839" lon="9.5108451"><ele>590.0</ele><time>2026-04-18T14:09:47.258Z</time></trkpt><trkpt lat="44.8849583" lon="9.5108468"><ele>590.0</ele><time>2026-04-18T14:09:48.258Z</time></trkpt><trkpt lat="44.8850639" lon="9.5108422"><ele>590.0</ele><time>2026-04-18T14:09:49.258Z</time></trkpt><trkpt lat="44.8851642" lon="9.5108397"><ele>590.5</ele><time>2026-04-18T14:09:50.258Z</time></trkpt><trkpt lat="44.8852635" lon="9.5108483"><ele>591.0</ele><time>2026-04-18T14:09:51.258Z</time></trkpt><trkpt lat="44.8853709" lon="9.5108624"><ele>591.5</ele><time>2026-04-18T14:09:52.259Z</time></trkpt><trkpt lat="44.8854879" lon="9.5108645"><ele>592.0</ele><time>2026-04-18T14:09:53.258Z</time></trkpt><trkpt lat="44.8856178" lon="9.5108426"><ele>592.0</ele><time>2026-04-18T14:09:54.258Z</time></trkpt><trkpt lat="44.8857528" lon="9.5108048"><ele>592.0</ele><time>2026-04-18T14:09:55.259Z</time></trkpt><trkpt lat="44.8858787" lon="9.5107621"><ele>592.0</ele><time>2026-04-18T14:09:56.258Z</time></trkpt><trkpt lat="44.8859954" lon="9.5107132"><ele>592.0</ele><time>2026-04-18T14:09:57.258Z</time></trkpt><trkpt lat="44.8861064" lon="9.5106656"><ele>592.0</ele><time>2026-04-18T14:09:58.258Z</time></trkpt><trkpt lat="44.8862182" lon="9.5106196"><ele>592.0</ele><time>2026-04-18T14:09:59.258Z</time></trkpt><trkpt lat="44.8863309" lon="9.5105783"><ele>592.0</ele><time>2026-04-18T14:10:00.259Z</time></trkpt><trkpt lat="44.886437" lon="9.5105431"><ele>592.0</ele><time>2026-04-18T14:10:01.259Z</time></trkpt><trkpt lat="44.8865395" lon="9.5105272"><ele>592.0</ele><time>2026-04-18T14:10:02.258Z</time></trkpt><trkpt lat="44.8866489" lon="9.5105417"><ele>592.0</ele><time>2026-04-18T14:10:03.258Z</time></trkpt><trkpt lat="44.8867513" lon="9.5105859"><ele>592.0</ele><time>2026-04-18T14:10:04.258Z</time></trkpt><trkpt lat="44.8868482" lon="9.510632"><ele>592.0</ele><time>2026-04-18T14:10:05.258Z</time></trkpt><trkpt lat="44.8869409" lon="9.5106997"><ele>592.0</ele><time>2026-04-18T14:10:06.258Z</time></trkpt><trkpt lat="44.8870259" lon="9.5107995"><ele>592.0</ele><time>2026-04-18T14:10:07.258Z</time></trkpt><trkpt lat="44.8870728" lon="9.5109177"><ele>588.0</ele><time>2026-04-18T14:10:08.258Z</time></trkpt><trkpt lat="44.8871372" lon="9.5110324"><ele>584.0</ele><time>2026-04-18T14:10:09.258Z</time></trkpt><trkpt lat="44.8871707" lon="9.5111595"><ele>580.0</ele><time>2026-04-18T14:10:10.258Z</time></trkpt><trkpt lat="44.8871887" lon="9.5112927"><ele>576.0</ele><time>2026-04-18T14:10:11.259Z</time></trkpt><trkpt lat="44.8871762" lon="9.5114276"><ele>572.0</ele><time>2026-04-18T14:10:12.258Z</time></trkpt><trkpt lat="44.8871214" lon="9.5115617"><ele>571.25</ele><time>2026-04-18T14:10:13.259Z</time></trkpt><trkpt lat="44.8870581" lon="9.5117192"><ele>570.5</ele><time>2026-04-18T14:10:14.259Z</time></trkpt><trkpt lat="44.8870147" lon="9.5118945"><ele>569.75</ele><time>2026-04-18T14:10:15.259Z</time></trkpt><trkpt lat="44.8869987" lon="9.5120898"><ele>569.0</ele><time>2026-04-18T14:10:16.258Z</time></trkpt><trkpt lat="44.8870165" lon="9.5122811"><ele>567.75</ele><time>2026-04-18T14:10:17.258Z</time></trkpt><trkpt lat="44.8870474" lon="9.5124602"><ele>566.5</ele><time>2026-04-18T14:10:18.258Z</time></trkpt><trkpt lat="44.8870739" lon="9.5126374"><ele>565.25</ele><time>2026-04-18T14:10:19.258Z</time></trkpt><trkpt lat="44.8870898" lon="9.5128138"><ele>564.0</ele><time>2026-04-18T14:10:20.258Z</time></trkpt><trkpt lat="44.887089" lon="9.5129885"><ele>562.75</ele><time>2026-04-18T14:10:21.258Z</time></trkpt><trkpt lat="44.8870912" lon="9.5131684"><ele>561.5</ele><time>2026-04-18T14:10:22.259Z</time></trkpt><trkpt lat="44.8871086" lon="9.5133454"><ele>560.25</ele><time>2026-04-18T14:10:23.258Z</time></trkpt><trkpt lat="44.8871363" lon="9.5135157"><ele>559.0</ele><time>2026-04-18T14:10:24.258Z</time></trkpt><trkpt lat="44.8871697" lon="9.5136782"><ele>559.0</ele><time>2026-04-18T14:10:25.258Z</time></trkpt><trkpt lat="44.8871995" lon="9.5138319"><ele>559.0</ele><time>2026-04-18T14:10:26.258Z</time></trkpt><trkpt lat="44.8872193" lon="9.5139878"><ele>559.0</ele><time>2026-04-18T14:10:27.258Z</time></trkpt><trkpt lat="44.887229" lon="9.514144"><ele>559.0</ele><time>2026-04-18T14:10:28.259Z</time></trkpt><trkpt lat="44.8872333" lon="9.514304"><ele>559.0</ele><time>2026-04-18T14:10:29.258Z</time></trkpt><trkpt lat="44.8872483" lon="9.5144635"><ele>559.0</ele><time>2026-04-18T14:10:30.259Z</time></trkpt><trkpt lat="44.8872693" lon="9.5146083"><ele>559.0</ele><time>2026-04-18T14:10:31.258Z</time></trkpt><trkpt lat="44.8873014" lon="9.5147421"><ele>559.0</ele><time>2026-04-18T14:10:32.258Z</time></trkpt><trkpt lat="44.8873393" lon="9.5148695"><ele>559.0</ele><time>2026-04-18T14:10:33.258Z</time></trkpt><trkpt lat="44.8874516" lon="9.515118"><ele>558.6666666666667</ele><time>2026-04-18T14:10:35.258Z</time></trkpt><trkpt lat="44.887508" lon="9.5152357"><ele>558.3333333333334</ele><time>2026-04-18T14:10:36.258Z</time></trkpt><trkpt lat="44.8875617" lon="9.5153381"><ele>558.0</ele><time>2026-04-18T14:10:37.258Z</time></trkpt><trkpt lat="44.8876072" lon="9.5154241"><ele>557.6666666666666</ele><time>2026-04-18T14:10:38.258Z</time></trkpt><trkpt lat="44.8876461" lon="9.5155006"><ele>557.3333333333333</ele><time>2026-04-18T14:10:39.258Z</time></trkpt><trkpt lat="44.887687" lon="9.515618"><ele>557.0</ele><time>2026-04-18T14:10:41.259Z</time></trkpt><trkpt lat="44.8876442" lon="9.5157115"><ele>555.8333333333333</ele><time>2026-04-18T14:10:44.258Z</time></trkpt><trkpt lat="44.8875496" lon="9.5157544"><ele>554.6666666666666</ele><time>2026-04-18T14:10:46.258Z</time></trkpt><trkpt lat="44.8874827" lon="9.5157749"><ele>553.5</ele><time>2026-04-18T14:10:47.258Z</time></trkpt><trkpt lat="44.8874061" lon="9.5157915"><ele>552.3333333333334</ele><time>2026-04-18T14:10:48.259Z</time></trkpt><trkpt lat="44.8873181" lon="9.5158061"><ele>551.1666666666667</ele><time>2026-04-18T14:10:49.258Z</time></trkpt><trkpt lat="44.887233" lon="9.5158188"><ele>550.0</ele><time>2026-04-18T14:10:50.258Z</time></trkpt><trkpt lat="44.8871552" lon="9.515834"><ele>550.0</ele><time>2026-04-18T14:10:51.258Z</time></trkpt><trkpt lat="44.887083" lon="9.5158529"><ele>550.0</ele><time>2026-04-18T14:10:52.258Z</time></trkpt><trkpt lat="44.887013" lon="9.5158861"><ele>550.0</ele><time>2026-04-18T14:10:53.259Z</time></trkpt><trkpt lat="44.88694" lon="9.5159356"><ele>550.0</ele><time>2026-04-18T14:10:54.259Z</time></trkpt><trkpt lat="44.8868607" lon="9.5159835"><ele>550.0</ele><time>2026-04-18T14:10:55.258Z</time></trkpt><trkpt lat="44.8867867" lon="9.5159962"><ele>550.0</ele><time>2026-04-18T14:10:56.258Z</time></trkpt><trkpt lat="44.8866943" lon="9.5159963"><ele>550.6</ele><time>2026-04-18T14:10:57.259Z</time></trkpt><trkpt lat="44.8866099" lon="9.5159701"><ele>551.2</ele><time>2026-04-18T14:10:58.259Z</time></trkpt><trkpt lat="44.8865241" lon="9.5159409"><ele>551.8</ele><time>2026-04-18T14:10:59.258Z</time></trkpt><trkpt lat="44.8864399" lon="9.5159406"><ele>552.4</ele><time>2026-04-18T14:11:00.258Z</time></trkpt><trkpt lat="44.8863498" lon="9.5159816"><ele>553.0</ele><time>2026-04-18T14:11:01.258Z</time></trkpt><trkpt lat="44.8862403" lon="9.5160389"><ele>553.0</ele><time>2026-04-18T14:11:02.258Z</time></trkpt><trkpt lat="44.886148" lon="9.5160849"><ele>553.0</ele><time>2026-04-18T14:11:03.259Z</time></trkpt><trkpt lat="44.8860633" lon="9.5161204"><ele>553.0</ele><time>2026-04-18T14:11:04.259Z</time></trkpt><trkpt lat="44.8859825" lon="9.5161501"><ele>553.0</ele><time>2026-04-18T14:11:05.259Z</time></trkpt><trkpt lat="44.8859024" lon="9.5162042"><ele>553.0</ele><time>2026-04-18T14:11:06.258Z</time></trkpt><trkpt lat="44.8858148" lon="9.5162914"><ele>551.8</ele><time>2026-04-18T14:11:07.259Z</time></trkpt><trkpt lat="44.8857415" lon="9.516397"><ele>550.5999999999999</ele><time>2026-04-18T14:11:08.258Z</time></trkpt><trkpt lat="44.885691" lon="9.5165138"><ele>549.4000000000001</ele><time>2026-04-18T14:11:09.258Z</time></trkpt><trkpt lat="44.8856527" lon="9.5166517"><ele>548.2</ele><time>2026-04-18T14:11:10.258Z</time></trkpt><trkpt lat="44.8856153" lon="9.5167979"><ele>547.0</ele><time>2026-04-18T14:11:11.258Z</time></trkpt><trkpt lat="44.8855814" lon="9.5169103"><ele>547.0</ele><time>2026-04-18T14:11:12.258Z</time></trkpt><trkpt lat="44.8855415" lon="9.5169978"><ele>547.0</ele><time>2026-04-18T14:11:13.258Z</time></trkpt><trkpt lat="44.885487" lon="9.5170724"><ele>547.0</ele><time>2026-04-18T14:11:14.258Z</time></trkpt><trkpt lat="44.8854272" lon="9.5171263"><ele>547.0</ele><time>2026-04-18T14:11:15.258Z</time></trkpt><trkpt lat="44.8853673" lon="9.5171761"><ele>547.0</ele><time>2026-04-18T14:11:16.258Z</time></trkpt><trkpt lat="44.8853219" lon="9.5172407"><ele>547.0</ele><time>2026-04-18T14:11:17.259Z</time></trkpt><trkpt lat="44.8852738" lon="9.5173021"><ele>547.0</ele><time>2026-04-18T14:11:18.258Z</time></trkpt><trkpt lat="44.8853058" lon="9.5174315"><ele>545.5</ele><time>2026-04-18T14:11:19.259Z</time></trkpt><trkpt lat="44.8853154" lon="9.5175543"><ele>544.0</ele><time>2026-04-18T14:11:20.259Z</time></trkpt><trkpt lat="44.8853183" lon="9.517676"><ele>542.5</ele><time>2026-04-18T14:11:21.259Z</time></trkpt><trkpt lat="44.8853113" lon="9.5177937"><ele>541.0</ele><time>2026-04-18T14:11:22.258Z</time></trkpt><trkpt lat="44.8853228" lon="9.5179119"><ele>539.5</ele><time>2026-04-18T14:11:23.258Z</time></trkpt><trkpt lat="44.885342" lon="9.5180312"><ele>538.0</ele><time>2026-04-18T14:11:24.258Z</time></trkpt><trkpt lat="44.8853706" lon="9.5181668"><ele>534.6666666666667</ele><time>2026-04-18T14:11:25.258Z</time></trkpt><trkpt lat="44.885394" lon="9.5183216"><ele>531.3333333333334</ele><time>2026-04-18T14:11:26.258Z</time></trkpt><trkpt lat="44.8854254" lon="9.5184728"><ele>528.0</ele><time>2026-04-18T14:11:27.258Z</time></trkpt><trkpt lat="44.8855829" lon="9.5190002"><ele>526.0</ele><time>2026-04-18T14:11:31.259Z</time></trkpt><trkpt lat="44.8856039" lon="9.5191072"><ele>524.0</ele><time>2026-04-18T14:11:32.258Z</time></trkpt><trkpt lat="44.8856068" lon="9.5192405"><ele>522.0</ele><time>2026-04-18T14:11:34.258Z</time></trkpt><trkpt lat="44.885551" lon="9.5193449"><ele>520.0</ele><time>2026-04-18T14:11:36.258Z</time></trkpt><trkpt lat="44.8854521" lon="9.5194162"><ele>518.0</ele><time>2026-04-18T14:11:38.258Z</time></trkpt><trkpt lat="44.8853763" lon="9.5195059"><ele>515.1999999999999</ele><time>2026-04-18T14:11:40.259Z</time></trkpt><trkpt lat="44.8853885" lon="9.5196273"><ele>512.4</ele><time>2026-04-18T14:11:42.258Z</time></trkpt><trkpt lat="44.8854645" lon="9.5197388"><ele>509.59999999999997</ele><time>2026-04-18T14:11:44.258Z</time></trkpt><trkpt lat="44.8855709" lon="9.5198424"><ele>506.79999999999995</ele><time>2026-04-18T14:11:46.258Z</time></trkpt><trkpt lat="44.8856199" lon="9.5199045"><ele>504.0</ele><time>2026-04-18T14:11:47.258Z</time></trkpt><trkpt lat="44.8856548" lon="9.5199892"><ele>504.0</ele><time>2026-04-18T14:11:48.258Z</time></trkpt><trkpt lat="44.8856672" lon="9.5200982"><ele>504.0</ele><time>2026-04-18T14:11:49.259Z</time></trkpt><trkpt lat="44.8856607" lon="9.5202064"><ele>504.0</ele><time>2026-04-18T14:11:50.258Z</time></trkpt><trkpt lat="44.8856391" lon="9.520318"><ele>504.0</ele><time>2026-04-18T14:11:51.258Z</time></trkpt><trkpt lat="44.8856088" lon="9.520457"><ele>504.0</ele><time>2026-04-18T14:11:52.258Z</time></trkpt><trkpt lat="44.8855861" lon="9.5205914"><ele>504.0</ele><time>2026-04-18T14:11:53.258Z</time></trkpt><trkpt lat="44.8855689" lon="9.5207314"><ele>501.79999999999995</ele><time>2026-04-18T14:11:54.259Z</time></trkpt><trkpt lat="44.885555" lon="9.5208763"><ele>499.59999999999997</ele><time>2026-04-18T14:11:55.258Z</time></trkpt><trkpt lat="44.8855439" lon="9.521025"><ele>497.4</ele><time>2026-04-18T14:11:56.258Z</time></trkpt><trkpt lat="44.8855345" lon="9.5211663"><ele>495.2</ele><time>2026-04-18T14:11:57.258Z</time></trkpt><trkpt lat="44.8855301" lon="9.5213055"><ele>493.0</ele><time>2026-04-18T14:11:58.258Z</time></trkpt><trkpt lat="44.8855306" lon="9.5214439"><ele>490.79999999999995</ele><time>2026-04-18T14:11:59.259Z</time></trkpt><trkpt lat="44.8855488" lon="9.5215782"><ele>488.59999999999997</ele><time>2026-04-18T14:12:00.258Z</time></trkpt><trkpt lat="44.8855781" lon="9.5217063"><ele>486.40000000000003</ele><time>2026-04-18T14:12:01.258Z</time></trkpt><trkpt lat="44.8856037" lon="9.5218265"><ele>484.20000000000005</ele><time>2026-04-18T14:12:02.258Z</time></trkpt><trkpt lat="44.8856058" lon="9.5219497"><ele>482.0</ele><time>2026-04-18T14:12:03.259Z</time></trkpt><trkpt lat="44.8855823" lon="9.5220708"><ele>479.25</ele><time>2026-04-18T14:12:04.258Z</time></trkpt><trkpt lat="44.8855326" lon="9.5222081"><ele>476.5</ele><time>2026-04-18T14:12:05.258Z</time></trkpt><trkpt lat="44.8854579" lon="9.5223668"><ele>473.75</ele><time>2026-04-18T14:12:06.259Z</time></trkpt><trkpt lat="44.8853735" lon="9.5225414"><ele>471.0</ele><time>2026-04-18T14:12:07.258Z</time></trkpt><trkpt lat="44.8852775" lon="9.522743"><ele>472.0</ele><time>2026-04-18T14:12:08.258Z</time></trkpt><trkpt lat="44.8851122" lon="9.5231241"><ele>473.0</ele><time>2026-04-18T14:12:10.258Z</time></trkpt><trkpt lat="44.8850441" lon="9.5232973"><ele>473.0</ele><time>2026-04-18T14:12:11.258Z</time></trkpt><trkpt lat="44.8849752" lon="9.5234658"><ele>473.0</ele><time>2026-04-18T14:12:12.258Z</time></trkpt><trkpt lat="44.8849035" lon="9.5236298"><ele>473.0</ele><time>2026-04-18T14:12:13.259Z</time></trkpt><trkpt lat="44.8848294" lon="9.5237739"><ele>473.0</ele><time>2026-04-18T14:12:14.258Z</time></trkpt><trkpt lat="44.8847556" lon="9.5239378"><ele>471.5</ele><time>2026-04-18T14:12:15.259Z</time></trkpt><trkpt lat="44.8846866" lon="9.5241052"><ele>470.0</ele><time>2026-04-18T14:12:16.258Z</time></trkpt><trkpt lat="44.8846217" lon="9.5242598"><ele>468.5</ele><time>2026-04-18T14:12:17.259Z</time></trkpt><trkpt lat="44.8845606" lon="9.5244023"><ele>467.0</ele><time>2026-04-18T14:12:18.258Z</time></trkpt><trkpt lat="44.8845036" lon="9.5245327"><ele>465.40000000000003</ele><time>2026-04-18T14:12:19.259Z</time></trkpt><trkpt lat="44.8844551" lon="9.5246607"><ele>463.80000000000007</ele><time>2026-04-18T14:12:20.258Z</time></trkpt><trkpt lat="44.8844167" lon="9.52478"><ele>462.2</ele><time>2026-04-18T14:12:21.258Z</time></trkpt><trkpt lat="44.8843883" lon="9.5248997"><ele>460.6</ele><time>2026-04-18T14:12:22.258Z</time></trkpt><trkpt lat="44.8843746" lon="9.5250267"><ele>459.0</ele><time>2026-04-18T14:12:23.258Z</time></trkpt><trkpt lat="44.8843624" lon="9.5251592"><ele>459.0</ele><time>2026-04-18T14:12:24.259Z</time></trkpt><trkpt lat="44.8843484" lon="9.5252768"><ele>459.0</ele><time>2026-04-18T14:12:25.259Z</time></trkpt><trkpt lat="44.8843283" lon="9.5253864"><ele>459.0</ele><time>2026-04-18T14:12:26.259Z</time></trkpt><trkpt lat="44.8843028" lon="9.5254758"><ele>459.0</ele><time>2026-04-18T14:12:27.258Z</time></trkpt><trkpt lat="44.8842595" lon="9.5255575"><ele>459.0</ele><time>2026-04-18T14:12:28.258Z</time></trkpt><trkpt lat="44.8841971" lon="9.5256521"><ele>459.0</ele><time>2026-04-18T14:12:29.259Z</time></trkpt><trkpt lat="44.8841123" lon="9.5257592"><ele>457.25</ele><time>2026-04-18T14:12:30.258Z</time></trkpt><trkpt lat="44.8840183" lon="9.5258698"><ele>455.5</ele><time>2026-04-18T14:12:31.258Z</time></trkpt><trkpt lat="44.8839327" lon="9.5259827"><ele>453.75</ele><time>2026-04-18T14:12:32.258Z</time></trkpt><trkpt lat="44.8838601" lon="9.5261113"><ele>452.0</ele><time>2026-04-18T14:12:33.258Z</time></trkpt><trkpt lat="44.8837918" lon="9.5262478"><ele>449.20000000000005</ele><time>2026-04-18T14:12:34.258Z</time></trkpt><trkpt lat="44.8837394" lon="9.5263897"><ele>446.40000000000003</ele><time>2026-04-18T14:12:35.258Z</time></trkpt><trkpt lat="44.8837038" lon="9.5265318"><ele>443.59999999999997</ele><time>2026-04-18T14:12:36.259Z</time></trkpt><trkpt lat="44.8836811" lon="9.5266805"><ele>440.79999999999995</ele><time>2026-04-18T14:12:37.258Z</time></trkpt><trkpt lat="44.8836681" lon="9.5268465"><ele>438.0</ele><time>2026-04-18T14:12:38.258Z</time></trkpt><trkpt lat="44.8836688" lon="9.5269898"><ele>438.4</ele><time>2026-04-18T14:12:39.258Z</time></trkpt><trkpt lat="44.8836606" lon="9.5271152"><ele>438.79999999999995</ele><time>2026-04-18T14:12:40.258Z</time></trkpt><trkpt lat="44.8836323" lon="9.5272241"><ele>439.2</ele><time>2026-04-18T14:12:41.258Z</time></trkpt><trkpt lat="44.8835859" lon="9.5273138"><ele>439.6</ele><time>2026-04-18T14:12:42.258Z</time></trkpt><trkpt lat="44.8835137" lon="9.5274033"><ele>440.0</ele><time>2026-04-18T14:12:43.259Z</time></trkpt><trkpt lat="44.883124" lon="9.5278687"><ele>437.0</ele><time>2026-04-18T14:12:47.259Z</time></trkpt><trkpt lat="44.8830363" lon="9.5280127"><ele>434.0</ele><time>2026-04-18T14:12:48.258Z</time></trkpt><trkpt lat="44.8829611" lon="9.52816"><ele>431.0</ele><time>2026-04-18T14:12:49.258Z</time></trkpt><trkpt lat="44.8828884" lon="9.5282954"><ele>428.0</ele><time>2026-04-18T14:12:50.258Z</time></trkpt><trkpt lat="44.8828123" lon="9.5284265"><ele>428.0</ele><time>2026-04-18T14:12:51.258Z</time></trkpt><trkpt lat="44.8827384" lon="9.528553"><ele>428.0</ele><time>2026-04-18T14:12:52.258Z</time></trkpt><trkpt lat="44.8826562" lon="9.5286701"><ele>428.0</ele><time>2026-04-18T14:12:53.258Z</time></trkpt><trkpt lat="44.882566" lon="9.5287792"><ele>428.0</ele><time>2026-04-18T14:12:54.258Z</time></trkpt><trkpt lat="44.882473" lon="9.5289079"><ele>424.5</ele><time>2026-04-18T14:12:55.259Z</time></trkpt><trkpt lat="44.8823826" lon="9.5290461"><ele>421.0</ele><time>2026-04-18T14:12:56.258Z</time></trkpt><trkpt lat="44.8823028" lon="9.5291894"><ele>417.5</ele><time>2026-04-18T14:12:57.258Z</time></trkpt><trkpt lat="44.8822341" lon="9.5293409"><ele>414.0</ele><time>2026-04-18T14:12:58.258Z</time></trkpt><trkpt lat="44.8821692" lon="9.5294923"><ele>410.0</ele><time>2026-04-18T14:12:59.259Z</time></trkpt><trkpt lat="44.8820992" lon="9.5296567"><ele>406.0</ele><time>2026-04-18T14:13:00.258Z</time></trkpt><trkpt lat="44.8820298" lon="9.5298111"><ele>402.0</ele><time>2026-04-18T14:13:01.258Z</time></trkpt><trkpt lat="44.8819586" lon="9.5299576"><ele>398.0</ele><time>2026-04-18T14:13:02.258Z</time></trkpt><trkpt lat="44.8818928" lon="9.5300972"><ele>398.0</ele><time>2026-04-18T14:13:03.258Z</time></trkpt><trkpt lat="44.8818385" lon="9.5302405"><ele>398.0</ele><time>2026-04-18T14:13:04.258Z</time></trkpt><trkpt lat="44.8817978" lon="9.5303784"><ele>398.0</ele><time>2026-04-18T14:13:05.259Z</time></trkpt><trkpt lat="44.8817771" lon="9.5305233"><ele>398.0</ele><time>2026-04-18T14:13:06.258Z</time></trkpt><trkpt lat="44.8817679" lon="9.5306665"><ele>398.0</ele><time>2026-04-18T14:13:07.258Z</time></trkpt><trkpt lat="44.8817513" lon="9.5308049"><ele>397.66666666666663</ele><time>2026-04-18T14:13:08.258Z</time></trkpt><trkpt lat="44.8817179" lon="9.5309346"><ele>397.3333333333333</ele><time>2026-04-18T14:13:09.258Z</time></trkpt><trkpt lat="44.8816694" lon="9.5310496"><ele>397.0</ele><time>2026-04-18T14:13:10.258Z</time></trkpt><trkpt lat="44.8816143" lon="9.5311521"><ele>396.66666666666663</ele><time>2026-04-18T14:13:11.259Z</time></trkpt><trkpt lat="44.8815635" lon="9.5312435"><ele>396.3333333333333</ele><time>2026-04-18T14:13:12.259Z</time></trkpt><trkpt lat="44.8815105" lon="9.5313218"><ele>396.0</ele><time>2026-04-18T14:13:13.258Z</time></trkpt><trkpt lat="44.8814633" lon="9.5313871"><ele>394.6666666666667</ele><time>2026-04-18T14:13:14.258Z</time></trkpt><trkpt lat="44.8813939" lon="9.5314798"><ele>393.33333333333337</ele><time>2026-04-18T14:13:16.258Z</time></trkpt><trkpt lat="44.8813399" lon="9.531564"><ele>392.0</ele><time>2026-04-18T14:13:19.258Z</time></trkpt><trkpt lat="44.8813318" lon="9.5316825"><ele>390.6666666666667</ele><time>2026-04-18T14:19:43.258Z</time></trkpt><trkpt lat="44.8813539" lon="9.5317756"><ele>389.33333333333337</ele><time>2026-04-18T14:19:44.259Z</time></trkpt><trkpt lat="44.8813748" lon="9.5318931"><ele>388.0</ele><time>2026-04-18T14:19:45.259Z</time></trkpt><trkpt lat="44.8813791" lon="9.532017"><ele>386.33333333333337</ele><time>2026-04-18T14:19:46.258Z</time></trkpt><trkpt lat="44.8813729" lon="9.5321348"><ele>384.6666666666667</ele><time>2026-04-18T14:19:47.258Z</time></trkpt><trkpt lat="44.8813582" lon="9.5322319"><ele>383.0</ele><time>2026-04-18T14:19:48.258Z</time></trkpt><trkpt lat="44.881335" lon="9.5323279"><ele>381.33333333333337</ele><time>2026-04-18T14:19:49.258Z</time></trkpt><trkpt lat="44.8813076" lon="9.5324192"><ele>379.6666666666667</ele><time>2026-04-18T14:19:50.258Z</time></trkpt><trkpt lat="44.8812813" lon="9.5325107"><ele>378.0</ele><time>2026-04-18T14:19:51.259Z</time></trkpt><trkpt lat="44.8812202" lon="9.5326604"><ele>378.0</ele><time>2026-04-18T14:19:53.258Z</time></trkpt><trkpt lat="44.8811836" lon="9.5327378"><ele>378.0</ele><time>2026-04-18T14:19:55.258Z</time></trkpt><trkpt lat="44.8811262" lon="9.5328226"><ele>378.0</ele><time>2026-04-18T14:19:58.258Z</time></trkpt><trkpt lat="44.8810689" lon="9.532899"><ele>378.0</ele><time>2026-04-18T14:20:00.258Z</time></trkpt><trkpt lat="44.8810127" lon="9.5329757"><ele>378.0</ele><time>2026-04-18T14:20:02.259Z</time></trkpt><trkpt lat="44.8809674" lon="9.5330598"><ele>378.0</ele><time>2026-04-18T14:20:04.258Z</time></trkpt><trkpt lat="44.8809139" lon="9.5331504"><ele>376.8333333333333</ele><time>2026-04-18T14:20:06.258Z</time></trkpt><trkpt lat="44.8808306" lon="9.5332068"><ele>375.6666666666667</ele><time>2026-04-18T14:20:08.258Z</time></trkpt><trkpt lat="44.8807462" lon="9.5331247"><ele>374.5</ele><time>2026-04-18T14:20:10.258Z</time></trkpt><trkpt lat="44.8807148" lon="9.5330437"><ele>373.33333333333337</ele><time>2026-04-18T14:20:11.258Z</time></trkpt><trkpt lat="44.8806873" lon="9.5329558"><ele>372.1666666666667</ele><time>2026-04-18T14:20:12.258Z</time></trkpt><trkpt lat="44.8806578" lon="9.5328749"><ele>371.0</ele><time>2026-04-18T14:20:13.259Z</time></trkpt><trkpt lat="44.880611" lon="9.5327108"><ele>371.0</ele><time>2026-04-18T14:20:15.259Z</time></trkpt><trkpt lat="44.8805997" lon="9.5326218"><ele>371.0</ele><time>2026-04-18T14:20:16.258Z</time></trkpt><trkpt lat="44.8806" lon="9.5325131"><ele>371.0</ele><time>2026-04-18T14:20:17.258Z</time></trkpt><trkpt lat="44.8806159" lon="9.5323946"><ele>371.0</ele><time>2026-04-18T14:20:18.259Z</time></trkpt><trkpt lat="44.8806322" lon="9.5322776"><ele>371.0</ele><time>2026-04-18T14:20:19.259Z</time></trkpt><trkpt lat="44.8806362" lon="9.5321374"><ele>371.0</ele><time>2026-04-18T14:20:20.259Z</time></trkpt><trkpt lat="44.8806262" lon="9.5320016"><ele>371.6</ele><time>2026-04-18T14:20:21.258Z</time></trkpt><trkpt lat="44.8806008" lon="9.5318753"><ele>372.20000000000005</ele><time>2026-04-18T14:20:22.259Z</time></trkpt><trkpt lat="44.8805565" lon="9.5317489"><ele>372.79999999999995</ele><time>2026-04-18T14:20:23.258Z</time></trkpt><trkpt lat="44.8805007" lon="9.5316331"><ele>373.4</ele><time>2026-04-18T14:20:24.258Z</time></trkpt><trkpt lat="44.8804423" lon="9.5315149"><ele>374.0</ele><time>2026-04-18T14:20:25.259Z</time></trkpt><trkpt lat="44.8803872" lon="9.531389"><ele>374.0</ele><time>2026-04-18T14:20:26.258Z</time></trkpt><trkpt lat="44.8803318" lon="9.5312622"><ele>374.0</ele><time>2026-04-18T14:20:27.258Z</time></trkpt><trkpt lat="44.8802783" lon="9.5311348"><ele>374.0</ele><time>2026-04-18T14:20:28.258Z</time></trkpt><trkpt lat="44.8802266" lon="9.5310052"><ele>374.0</ele><time>2026-04-18T14:20:29.258Z</time></trkpt><trkpt lat="44.8801825" lon="9.5308771"><ele>374.0</ele><time>2026-04-18T14:20:30.258Z</time></trkpt><trkpt lat="44.8801524" lon="9.5307589"><ele>374.4</ele><time>2026-04-18T14:20:31.258Z</time></trkpt><trkpt lat="44.8801406" lon="9.5306403"><ele>374.79999999999995</ele><time>2026-04-18T14:20:32.258Z</time></trkpt><trkpt lat="44.8801432" lon="9.5305162"><ele>375.20000000000005</ele><time>2026-04-18T14:20:33.258Z</time></trkpt><trkpt lat="44.8801692" lon="9.5303263"><ele>375.6</ele><time>2026-04-18T14:20:35.259Z</time></trkpt><trkpt lat="44.8801033" lon="9.5302205"><ele>376.0</ele><time>2026-04-18T14:20:37.258Z</time></trkpt><trkpt lat="44.8800307" lon="9.5303382"><ele>371.20000000000005</ele><time>2026-04-18T14:20:38.258Z</time></trkpt><trkpt lat="44.8799766" lon="9.5304308"><ele>366.40000000000003</ele><time>2026-04-18T14:20:39.258Z</time></trkpt><trkpt lat="44.8799262" lon="9.530563"><ele>361.6</ele><time>2026-04-18T14:20:40.259Z</time></trkpt><trkpt lat="44.8798774" lon="9.5307161"><ele>356.8</ele><time>2026-04-18T14:20:41.258Z</time></trkpt><trkpt lat="44.8798306" lon="9.5308663"><ele>352.0</ele><time>2026-04-18T14:20:42.259Z</time></trkpt><trkpt lat="44.8797905" lon="9.5310033"><ele>352.0</ele><time>2026-04-18T14:20:43.258Z</time></trkpt><trkpt lat="44.8797637" lon="9.5311481"><ele>352.0</ele><time>2026-04-18T14:20:44.258Z</time></trkpt><trkpt lat="44.8797481" lon="9.5313011"><ele>352.0</ele><time>2026-04-18T14:20:45.258Z</time></trkpt><trkpt lat="44.8797361" lon="9.5314531"><ele>352.0</ele><time>2026-04-18T14:20:46.258Z</time></trkpt><trkpt lat="44.8797385" lon="9.5316051"><ele>352.0</ele><time>2026-04-18T14:20:47.258Z</time></trkpt><trkpt lat="44.8797539" lon="9.5317626"><ele>351.20000000000005</ele><time>2026-04-18T14:20:48.259Z</time></trkpt><trkpt lat="44.8797765" lon="9.5319302"><ele>350.4</ele><time>2026-04-18T14:20:49.258Z</time></trkpt><trkpt lat="44.8797605" lon="9.5320853"><ele>349.6</ele><time>2026-04-18T14:20:50.259Z</time></trkpt><trkpt lat="44.8797207" lon="9.5322304"><ele>348.79999999999995</ele><time>2026-04-18T14:20:51.258Z</time></trkpt><trkpt lat="44.8796647" lon="9.5323574"><ele>348.0</ele><time>2026-04-18T14:20:52.259Z</time></trkpt><trkpt lat="44.8796026" lon="9.5324729"><ele>347.59999999999997</ele><time>2026-04-18T14:20:53.258Z</time></trkpt><trkpt lat="44.8795335" lon="9.5325819"><ele>347.2</ele><time>2026-04-18T14:20:54.258Z</time></trkpt><trkpt lat="44.8794606" lon="9.5326841"><ele>346.8</ele><time>2026-04-18T14:20:55.259Z</time></trkpt><trkpt lat="44.8793807" lon="9.5327748"><ele>346.4</ele><time>2026-04-18T14:20:56.258Z</time></trkpt><trkpt lat="44.8792983" lon="9.5328568"><ele>346.0</ele><time>2026-04-18T14:20:57.258Z</time></trkpt><trkpt lat="44.8792239" lon="9.5329401"><ele>340.66666666666663</ele><time>2026-04-18T14:20:58.258Z</time></trkpt><trkpt lat="44.8791561" lon="9.5330406"><ele>335.3333333333333</ele><time>2026-04-18T14:20:59.259Z</time></trkpt><trkpt lat="44.8790976" lon="9.5331533"><ele>330.0</ele><time>2026-04-18T14:21:00.258Z</time></trkpt><trkpt lat="44.8789366" lon="9.5335395"><ele>330.0</ele><time>2026-04-18T14:21:03.258Z</time></trkpt><trkpt lat="44.8788804" lon="9.5336778"><ele>330.0</ele><time>2026-04-18T14:21:04.259Z</time></trkpt><trkpt lat="44.8788245" lon="9.533818"><ele>330.0</ele><time>2026-04-18T14:21:05.259Z</time></trkpt><trkpt lat="44.8787748" lon="9.533958"><ele>330.0</ele><time>2026-04-18T14:21:06.258Z</time></trkpt><trkpt lat="44.8787318" lon="9.5340939"><ele>330.0</ele><time>2026-04-18T14:21:07.259Z</time></trkpt><trkpt lat="44.8786902" lon="9.5342374"><ele>329.2</ele><time>2026-04-18T14:21:08.259Z</time></trkpt><trkpt lat="44.8786478" lon="9.5343784"><ele>328.4</ele><time>2026-04-18T14:21:09.259Z</time></trkpt><trkpt lat="44.8786057" lon="9.5345152"><ele>327.6</ele><time>2026-04-18T14:21:10.259Z</time></trkpt><trkpt lat="44.8785651" lon="9.5346474"><ele>326.8</ele><time>2026-04-18T14:21:11.259Z</time></trkpt><trkpt lat="44.8785264" lon="9.5347829"><ele>326.0</ele><time>2026-04-18T14:21:12.258Z</time></trkpt><trkpt lat="44.8784901" lon="9.5349141"><ele>324.8</ele><time>2026-04-18T14:21:13.259Z</time></trkpt><trkpt lat="44.8784566" lon="9.5350294"><ele>323.6</ele><time>2026-04-18T14:21:14.258Z</time></trkpt><trkpt lat="44.8784276" lon="9.535122"><ele>322.4</ele><time>2026-04-18T14:21:15.259Z</time></trkpt><trkpt lat="44.8783414" lon="9.5352039"><ele>321.2</ele><time>2026-04-18T14:21:17.258Z</time></trkpt><trkpt lat="44.8782557" lon="9.5350887"><ele>320.0</ele><time>2026-04-18T14:21:19.258Z</time></trkpt><trkpt lat="44.8782322" lon="9.5349818"><ele>315.5</ele><time>2026-04-18T14:21:20.259Z</time></trkpt><trkpt lat="44.878195" lon="9.5347285"><ele>311.0</ele><time>2026-04-18T14:21:22.258Z</time></trkpt><trkpt lat="44.878174" lon="9.5345944"><ele>306.5</ele><time>2026-04-18T14:21:23.258Z</time></trkpt><trkpt lat="44.8781489" lon="9.5344595"><ele>302.0</ele><time>2026-04-18T14:21:24.258Z</time></trkpt><trkpt lat="44.8781306" lon="9.5343458"><ele>302.0</ele><time>2026-04-18T14:21:25.258Z</time></trkpt><trkpt lat="44.8781084" lon="9.5342524"><ele>302.0</ele><time>2026-04-18T14:21:26.258Z</time></trkpt><trkpt lat="44.8780624" lon="9.5341894"><ele>302.0</ele><time>2026-04-18T14:21:27.258Z</time></trkpt><trkpt lat="44.8779621" lon="9.5342158"><ele>302.0</ele><time>2026-04-18T14:21:29.258Z</time></trkpt><trkpt lat="44.8779031" lon="9.5342911"><ele>302.0</ele><time>2026-04-18T14:21:30.258Z</time></trkpt><trkpt lat="44.8778495" lon="9.5343866"><ele>302.0</ele><time>2026-04-18T14:21:31.259Z</time></trkpt><trkpt lat="44.8777868" lon="9.5344707"><ele>302.0</ele><time>2026-04-18T14:21:32.258Z</time></trkpt><trkpt lat="44.8777022" lon="9.5345153"><ele>302.0</ele><time>2026-04-18T14:21:33.259Z</time></trkpt><trkpt lat="44.8776394" lon="9.5345722"><ele>302.0</ele><time>2026-04-18T14:21:34.258Z</time></trkpt><trkpt lat="44.8775954" lon="9.5346482"><ele>302.0</ele><time>2026-04-18T14:21:35.258Z</time></trkpt><trkpt lat="44.8775583" lon="9.5347434"><ele>302.0</ele><time>2026-04-18T14:21:36.258Z</time></trkpt><trkpt lat="44.877511" lon="9.534843"><ele>302.0</ele><time>2026-04-18T14:21:37.259Z</time></trkpt><trkpt lat="44.8774633" lon="9.5349522"><ele>298.83333333333337</ele><time>2026-04-18T14:21:38.259Z</time></trkpt><trkpt lat="44.8774181" lon="9.5350476"><ele>295.6666666666667</ele><time>2026-04-18T14:21:39.258Z</time></trkpt><trkpt lat="44.8773804" lon="9.5351514"><ele>292.5</ele><time>2026-04-18T14:21:40.258Z</time></trkpt><trkpt lat="44.8773612" lon="9.5352614"><ele>289.3333333333333</ele><time>2026-04-18T14:21:41.259Z</time></trkpt><trkpt lat="44.8773714" lon="9.5353807"><ele>286.16666666666663</ele><time>2026-04-18T14:21:42.259Z</time></trkpt><trkpt lat="44.877396" lon="9.5355095"><ele>283.0</ele><time>2026-04-18T14:21:43.258Z</time></trkpt><trkpt lat="44.8774254" lon="9.5356486"><ele>281.6</ele><time>2026-04-18T14:21:44.259Z</time></trkpt><trkpt lat="44.8774483" lon="9.5357952"><ele>280.20000000000005</ele><time>2026-04-18T14:21:45.258Z</time></trkpt><trkpt lat="44.8774638" lon="9.5359406"><ele>278.8</ele><time>2026-04-18T14:21:46.258Z</time></trkpt><trkpt lat="44.877482" lon="9.5360844"><ele>277.40000000000003</ele><time>2026-04-18T14:21:47.258Z</time></trkpt><trkpt lat="44.8775048" lon="9.5362274"><ele>276.0</ele><time>2026-04-18T14:21:48.258Z</time></trkpt><trkpt lat="44.8775367" lon="9.53637"><ele>274.40000000000003</ele><time>2026-04-18T14:21:49.258Z</time></trkpt><trkpt lat="44.8775719" lon="9.5365141"><ele>272.8</ele><time>2026-04-18T14:21:50.258Z</time></trkpt><trkpt lat="44.8775926" lon="9.5366657"><ele>271.20000000000005</ele><time>2026-04-18T14:21:51.258Z</time></trkpt><trkpt lat="44.8775755" lon="9.5368175"><ele>269.6</ele><time>2026-04-18T14:21:52.258Z</time></trkpt><trkpt lat="44.8775233" lon="9.5369474"><ele>268.0</ele><time>2026-04-18T14:21:53.258Z</time></trkpt><trkpt lat="44.8774648" lon="9.5370643"><ele>267.6</ele><time>2026-04-18T14:21:54.258Z</time></trkpt><trkpt lat="44.8774129" lon="9.5371843"><ele>267.20000000000005</ele><time>2026-04-18T14:21:55.259Z</time></trkpt><trkpt lat="44.8773703" lon="9.5373031"><ele>266.8</ele><time>2026-04-18T14:21:56.258Z</time></trkpt><trkpt lat="44.8773475" lon="9.5374219"><ele>266.40000000000003</ele><time>2026-04-18T14:21:57.258Z</time></trkpt><trkpt lat="44.8773548" lon="9.5375397"><ele>266.0</ele><time>2026-04-18T14:21:58.258Z</time></trkpt><trkpt lat="44.8774173" lon="9.5377752"><ele>265.0</ele><time>2026-04-18T14:22:00.258Z</time></trkpt><trkpt lat="44.8774444" lon="9.5379255"><ele>264.0</ele><time>2026-04-18T14:22:01.258Z</time></trkpt><trkpt lat="44.8774627" lon="9.5380843"><ele>263.0</ele><time>2026-04-18T14:22:02.258Z</time></trkpt><trkpt lat="44.8774738" lon="9.5382375"><ele>262.0</ele><time>2026-04-18T14:22:03.258Z</time></trkpt><trkpt lat="44.877475" lon="9.538523"><ele>262.0</ele><time>2026-04-18T14:22:05.259Z</time></trkpt><trkpt lat="44.8774586" lon="9.5386753"><ele>262.0</ele><time>2026-04-18T14:22:06.258Z</time></trkpt><trkpt lat="44.8774333" lon="9.538843"><ele>262.0</ele><time>2026-04-18T14:22:07.258Z</time></trkpt><trkpt lat="44.8774049" lon="9.5390045"><ele>262.0</ele><time>2026-04-18T14:22:08.258Z</time></trkpt><trkpt lat="44.8773795" lon="9.5391548"><ele>261.75</ele><time>2026-04-18T14:22:09.259Z</time></trkpt><trkpt lat="44.8773579" lon="9.5393217"><ele>261.5</ele><time>2026-04-18T14:22:10.259Z</time></trkpt><trkpt lat="44.8773468" lon="9.5394865"><ele>261.25</ele><time>2026-04-18T14:22:11.259Z</time></trkpt><trkpt lat="44.8773524" lon="9.5396473"><ele>261.0</ele><time>2026-04-18T14:22:12.259Z</time></trkpt><trkpt lat="44.8773679" lon="9.5398035"><ele>259.2</ele><time>2026-04-18T14:22:13.258Z</time></trkpt><trkpt lat="44.8773928" lon="9.5399544"><ele>257.40000000000003</ele><time>2026-04-18T14:22:14.258Z</time></trkpt><trkpt lat="44.8774328" lon="9.5400981"><ele>255.6</ele><time>2026-04-18T14:22:15.258Z</time></trkpt><trkpt lat="44.8774901" lon="9.5402286"><ele>253.8</ele><time>2026-04-18T14:22:16.258Z</time></trkpt><trkpt lat="44.8775507" lon="9.5403472"><ele>252.0</ele><time>2026-04-18T14:22:17.258Z</time></trkpt><trkpt lat="44.8775962" lon="9.5404637"><ele>249.5</ele><time>2026-04-18T14:22:18.258Z</time></trkpt><trkpt lat="44.8776112" lon="9.5406007"><ele>247.0</ele><time>2026-04-18T14:22:19.258Z</time></trkpt><trkpt lat="44.8776067" lon="9.5407545"><ele>244.5</ele><time>2026-04-18T14:22:20.258Z</time></trkpt><trkpt lat="44.877578" lon="9.5409246"><ele>242.0</ele><time>2026-04-18T14:22:21.258Z</time></trkpt><trkpt lat="44.8775376" lon="9.5410948"><ele>240.0</ele><time>2026-04-18T14:22:22.258Z</time></trkpt><trkpt lat="44.877488" lon="9.5412449"><ele>238.0</ele><time>2026-04-18T14:22:23.258Z</time></trkpt><trkpt lat="44.8774175" lon="9.5413638"><ele>236.0</ele><time>2026-04-18T14:22:24.258Z</time></trkpt><trkpt lat="44.8772316" lon="9.5415241"><ele>234.0</ele><time>2026-04-18T14:22:26.258Z</time></trkpt><trkpt lat="44.8771469" lon="9.5415951"><ele>234.0</ele><time>2026-04-18T14:22:27.258Z</time></trkpt><trkpt lat="44.8770702" lon="9.5416853"><ele>233.99999999999997</ele><time>2026-04-18T14:22:28.258Z</time></trkpt><trkpt lat="44.8769895" lon="9.5417913"><ele>233.99999999999997</ele><time>2026-04-18T14:22:29.258Z</time></trkpt><trkpt lat="44.8769102" lon="9.5419109"><ele>234.0</ele><time>2026-04-18T14:22:30.259Z</time></trkpt><trkpt lat="44.8768274" lon="9.5420388"><ele>234.0</ele><time>2026-04-18T14:22:31.258Z</time></trkpt><trkpt lat="44.8767481" lon="9.5421691"><ele>235.66666666666669</ele><time>2026-04-18T14:22:32.258Z</time></trkpt><trkpt lat="44.8766739" lon="9.5422994"><ele>237.33333333333334</ele><time>2026-04-18T14:22:33.259Z</time></trkpt><trkpt lat="44.8765195" lon="9.5425455"><ele>239.0</ele><time>2026-04-18T14:22:35.258Z</time></trkpt><trkpt lat="44.8764363" lon="9.5426364"><ele>239.0</ele><time>2026-04-18T14:22:36.259Z</time></trkpt><trkpt lat="44.8763508" lon="9.542699"><ele>238.99999999999997</ele><time>2026-04-18T14:22:37.258Z</time></trkpt><trkpt lat="44.876289" lon="9.5427809"><ele>238.99999999999997</ele><time>2026-04-18T14:22:38.259Z</time></trkpt><trkpt lat="44.8762463" lon="9.5428941"><ele>239.0</ele><time>2026-04-18T14:22:39.258Z</time></trkpt><trkpt lat="44.8762121" lon="9.5430375"><ele>239.0</ele><time>2026-04-18T14:22:40.259Z</time></trkpt><trkpt lat="44.8761858" lon="9.5431802"><ele>235.79999999999998</ele><time>2026-04-18T14:22:41.259Z</time></trkpt><trkpt lat="44.8761642" lon="9.5433177"><ele>232.59999999999997</ele><time>2026-04-18T14:22:42.258Z</time></trkpt><trkpt lat="44.8761412" lon="9.5434591"><ele>229.4</ele><time>2026-04-18T14:22:43.258Z</time></trkpt><trkpt lat="44.8761068" lon="9.5436011"><ele>226.2</ele><time>2026-04-18T14:22:44.259Z</time></trkpt><trkpt lat="44.8760588" lon="9.5437414"><ele>223.0</ele><time>2026-04-18T14:22:45.258Z</time></trkpt><trkpt lat="44.8759994" lon="9.5438736"><ele>223.25</ele><time>2026-04-18T14:22:46.258Z</time></trkpt><trkpt lat="44.8759315" lon="9.543999"><ele>223.5</ele><time>2026-04-18T14:22:47.258Z</time></trkpt><trkpt lat="44.8758566" lon="9.5441254"><ele>223.75</ele><time>2026-04-18T14:22:48.258Z</time></trkpt><trkpt lat="44.8757857" lon="9.5442605"><ele>224.0</ele><time>2026-04-18T14:22:49.258Z</time></trkpt><trkpt lat="44.8757242" lon="9.5444078"><ele>221.25</ele><time>2026-04-18T14:22:50.258Z</time></trkpt><trkpt lat="44.8756735" lon="9.5445593"><ele>218.5</ele><time>2026-04-18T14:22:51.258Z</time></trkpt><trkpt lat="44.8756293" lon="9.5447105"><ele>215.75</ele><time>2026-04-18T14:22:52.258Z</time></trkpt><trkpt lat="44.8755828" lon="9.5448501"><ele>213.0</ele><time>2026-04-18T14:22:53.258Z</time></trkpt><trkpt lat="44.8754913" lon="9.5450987"><ele>213.0</ele><time>2026-04-18T14:22:55.259Z</time></trkpt><trkpt lat="44.8754491" lon="9.5452255"><ele>213.0</ele><time>2026-04-18T14:22:56.259Z</time></trkpt><trkpt lat="44.8754031" lon="9.5453539"><ele>213.0</ele><time>2026-04-18T14:22:57.259Z</time></trkpt><trkpt lat="44.8753542" lon="9.5454757"><ele>213.0</ele><time>2026-04-18T14:22:58.258Z</time></trkpt><trkpt lat="44.8753083" lon="9.5456004"><ele>213.0</ele><time>2026-04-18T14:22:59.258Z</time></trkpt><trkpt lat="44.8752586" lon="9.5457251"><ele>213.2</ele><time>2026-04-18T14:23:00.258Z</time></trkpt><trkpt lat="44.8752084" lon="9.5458564"><ele>213.4</ele><time>2026-04-18T14:23:01.258Z</time></trkpt><trkpt lat="44.875155" lon="9.5459902"><ele>213.59999999999997</ele><time>2026-04-18T14:23:02.258Z</time></trkpt><trkpt lat="44.8750975" lon="9.54613"><ele>213.79999999999998</ele><time>2026-04-18T14:23:03.258Z</time></trkpt><trkpt lat="44.8750441" lon="9.5462525"><ele>214.0</ele><time>2026-04-18T14:23:04.258Z</time></trkpt><trkpt lat="44.8749773" lon="9.5463632"><ele>214.0</ele><time>2026-04-18T14:23:05.259Z</time></trkpt><trkpt lat="44.8749063" lon="9.5464771"><ele>213.99999999999997</ele><time>2026-04-18T14:23:06.258Z</time></trkpt><trkpt lat="44.8748371" lon="9.5465975"><ele>213.99999999999997</ele><time>2026-04-18T14:23:07.258Z</time></trkpt><trkpt lat="44.8747692" lon="9.5467209"><ele>214.0</ele><time>2026-04-18T14:23:08.258Z</time></trkpt><trkpt lat="44.8747141" lon="9.5468624"><ele>214.0</ele><time>2026-04-18T14:23:09.258Z</time></trkpt><trkpt lat="44.8746708" lon="9.5470195"><ele>212.66666666666666</ele><time>2026-04-18T14:23:10.258Z</time></trkpt><trkpt lat="44.8745868" lon="9.5473366"><ele>211.33333333333331</ele><time>2026-04-18T14:23:12.258Z</time></trkpt><trkpt lat="44.8745476" lon="9.5474802"><ele>210.0</ele><time>2026-04-18T14:23:13.258Z</time></trkpt><trkpt lat="44.8745202" lon="9.5476184"><ele>210.0</ele><time>2026-04-18T14:23:14.258Z</time></trkpt><trkpt lat="44.8744994" lon="9.5477444"><ele>210.0</ele><time>2026-04-18T14:23:15.258Z</time></trkpt><trkpt lat="44.8744946" lon="9.5478696"><ele>210.0</ele><time>2026-04-18T14:23:16.258Z</time></trkpt><trkpt lat="44.8745122" lon="9.5479855"><ele>210.0</ele><time>2026-04-18T14:23:17.258Z</time></trkpt><trkpt lat="44.8745504" lon="9.5480834"><ele>210.0</ele><time>2026-04-18T14:23:18.259Z</time></trkpt><trkpt lat="44.8746037" lon="9.5481736"><ele>210.0</ele><time>2026-04-18T14:23:19.258Z</time></trkpt><trkpt lat="44.8746551" lon="9.5482673"><ele>207.6</ele><time>2026-04-18T14:23:20.258Z</time></trkpt><trkpt lat="44.8747149" lon="9.5483664"><ele>205.2</ele><time>2026-04-18T14:23:21.258Z</time></trkpt><trkpt lat="44.8747739" lon="9.548446"><ele>202.8</ele><time>2026-04-18T14:23:22.258Z</time></trkpt><trkpt lat="44.8748396" lon="9.5484793"><ele>200.4</ele><time>2026-04-18T14:23:23.258Z</time></trkpt><trkpt lat="44.8749027" lon="9.5484566"><ele>198.0</ele><time>2026-04-18T14:23:24.258Z</time></trkpt><trkpt lat="44.8750336" lon="9.5483512"><ele>198.0</ele><time>2026-04-18T14:23:26.258Z</time></trkpt><trkpt lat="44.8750963" lon="9.5482081"><ele>198.0</ele><time>2026-04-18T14:23:27.258Z</time></trkpt><trkpt lat="44.8751496" lon="9.548098"><ele>198.0</ele><time>2026-04-18T14:23:28.258Z</time></trkpt><trkpt lat="44.8751886" lon="9.5479874"><ele>198.0</ele><time>2026-04-18T14:23:29.258Z</time></trkpt><trkpt lat="44.875224" lon="9.547907"><ele>198.0</ele><time>2026-04-18T14:23:30.258Z</time></trkpt><trkpt lat="44.8753087" lon="9.5478658"><ele>194.16666666666666</ele><time>2026-04-18T14:23:32.259Z</time></trkpt><trkpt lat="44.8753335" lon="9.5480029"><ele>190.33333333333334</ele><time>2026-04-18T14:23:34.259Z</time></trkpt><trkpt lat="44.8753324" lon="9.5480968"><ele>186.5</ele><time>2026-04-18T14:23:35.259Z</time></trkpt><trkpt lat="44.8752888" lon="9.5482192"><ele>182.66666666666669</ele><time>2026-04-18T14:23:36.258Z</time></trkpt><trkpt lat="44.8752616" lon="9.5483423"><ele>178.83333333333334</ele><time>2026-04-18T14:23:37.258Z</time></trkpt><trkpt lat="44.8752236" lon="9.5484592"><ele>175.0</ele><time>2026-04-18T14:23:38.258Z</time></trkpt><trkpt lat="44.8751754" lon="9.5485681"><ele>175.0</ele><time>2026-04-18T14:23:39.259Z</time></trkpt><trkpt lat="44.8751371" lon="9.5486914"><ele>175.0</ele><time>2026-04-18T14:23:40.258Z</time></trkpt><trkpt lat="44.8751045" lon="9.5488104"><ele>175.0</ele><time>2026-04-18T14:23:41.258Z</time></trkpt><trkpt lat="44.8750948" lon="9.548939"><ele>175.0</ele><time>2026-04-18T14:23:42.258Z</time></trkpt><trkpt lat="44.8750933" lon="9.5490651"><ele>175.0</ele><time>2026-04-18T14:23:43.258Z</time></trkpt><trkpt lat="44.875109" lon="9.5491932"><ele>174.5</ele><time>2026-04-18T14:23:44.258Z</time></trkpt><trkpt lat="44.8751301" lon="9.5493121"><ele>174.0</ele><time>2026-04-18T14:23:45.258Z</time></trkpt><trkpt lat="44.8751553" lon="9.5494092"><ele>173.5</ele><time>2026-04-18T14:23:46.258Z</time></trkpt><trkpt lat="44.8751828" lon="9.5495373"><ele>173.0</ele><time>2026-04-18T14:23:48.258Z</time></trkpt><trkpt lat="44.8752468" lon="9.5495795"><ele>172.5</ele><time>2026-04-18T14:24:27.259Z</time></trkpt><trkpt lat="44.8753036" lon="9.5495323"><ele>172.0</ele><time>2026-04-18T14:24:30.258Z</time></trkpt><trkpt lat="44.8753202" lon="9.5493898"><ele>172.0</ele><time>2026-04-18T14:30:40.258Z</time></trkpt><trkpt lat="44.8754207" lon="9.549302"><ele>172.0</ele><time>2026-04-18T14:30:42.258Z</time></trkpt><trkpt lat="44.8754984" lon="9.5493148"><ele>172.0</ele><time>2026-04-18T14:30:43.258Z</time></trkpt><trkpt lat="44.875644" lon="9.5493874"><ele>172.0</ele><time>2026-04-18T14:30:45.258Z</time></trkpt><trkpt lat="44.8758167" lon="9.5494614"><ele>172.0</ele><time>2026-04-18T14:30:48.258Z</time></trkpt><trkpt lat="44.8758953" lon="9.5494799"><ele>172.0</ele><time>2026-04-18T14:30:50.259Z</time></trkpt><trkpt lat="44.8759848" lon="9.5494418"><ele>172.0</ele><time>2026-04-18T14:30:52.258Z</time></trkpt><trkpt lat="44.8760397" lon="9.5492998"><ele>172.0</ele><time>2026-04-18T14:30:54.258Z</time></trkpt><trkpt lat="44.8760652" lon="9.5491953"><ele>172.0</ele><time>2026-04-18T14:30:55.259Z</time></trkpt><trkpt lat="44.8761087" lon="9.5490593"><ele>175.5</ele><time>2026-04-18T14:30:56.258Z</time></trkpt><trkpt lat="44.8761456" lon="9.5489457"><ele>179.0</ele><time>2026-04-18T14:30:57.259Z</time></trkpt><trkpt lat="44.8761776" lon="9.5488205"><ele>182.5</ele><time>2026-04-18T14:30:58.258Z</time></trkpt><trkpt lat="44.8761871" lon="9.548687"><ele>186.0</ele><time>2026-04-18T14:30:59.259Z</time></trkpt><trkpt lat="44.8761927" lon="9.5485599"><ele>189.49999999999997</ele><time>2026-04-18T14:31:00.258Z</time></trkpt><trkpt lat="44.8761964" lon="9.5484513"><ele>193.0</ele><time>2026-04-18T14:31:01.258Z</time></trkpt><trkpt lat="44.8762113" lon="9.548318"><ele>193.0</ele><time>2026-04-18T14:31:02.258Z</time></trkpt><trkpt lat="44.8762348" lon="9.5481864"><ele>193.0</ele><time>2026-04-18T14:31:03.258Z</time></trkpt><trkpt lat="44.8762547" lon="9.5480526"><ele>193.0</ele><time>2026-04-18T14:31:04.258Z</time></trkpt><trkpt lat="44.8762956" lon="9.5479058"><ele>193.0</ele><time>2026-04-18T14:31:05.259Z</time></trkpt><trkpt lat="44.8763388" lon="9.5477658"><ele>193.0</ele><time>2026-04-18T14:31:06.259Z</time></trkpt><trkpt lat="44.8763836" lon="9.5476356"><ele>193.25</ele><time>2026-04-18T14:31:07.258Z</time></trkpt><trkpt lat="44.8764441" lon="9.5475156"><ele>193.5</ele><time>2026-04-18T14:31:08.259Z</time></trkpt><trkpt lat="44.876507" lon="9.5473989"><ele>193.75</ele><time>2026-04-18T14:31:09.258Z</time></trkpt><trkpt lat="44.8766357" lon="9.5471982"><ele>194.0</ele><time>2026-04-18T14:31:11.259Z</time></trkpt><trkpt lat="44.8767185" lon="9.5469634"><ele>193.0</ele><time>2026-04-18T14:31:13.258Z</time></trkpt><trkpt lat="44.8767439" lon="9.5467961"><ele>192.0</ele><time>2026-04-18T14:31:14.258Z</time></trkpt><trkpt lat="44.8767643" lon="9.5466469"><ele>191.0</ele><time>2026-04-18T14:31:15.259Z</time></trkpt><trkpt lat="44.8768243" lon="9.5462165"><ele>197.66666666666666</ele><time>2026-04-18T14:31:18.258Z</time></trkpt><trkpt lat="44.8768219" lon="9.5457375"><ele>204.33333333333331</ele><time>2026-04-18T14:31:21.258Z</time></trkpt><trkpt lat="44.8768228" lon="9.5456049"><ele>211.0</ele><time>2026-04-18T14:31:22.258Z</time></trkpt><trkpt lat="44.8768309" lon="9.5454931"><ele>210.99999999999997</ele><time>2026-04-18T14:31:23.258Z</time></trkpt><trkpt lat="44.876845" lon="9.5453897"><ele>211.0</ele><time>2026-04-18T14:31:24.259Z</time></trkpt><trkpt lat="44.8768628" lon="9.5452793"><ele>211.0</ele><time>2026-04-18T14:31:25.259Z</time></trkpt><trkpt lat="44.8768994" lon="9.5451736"><ele>211.0</ele><time>2026-04-18T14:31:26.258Z</time></trkpt><trkpt lat="44.8769657" lon="9.5450635"><ele>210.99999999999997</ele><time>2026-04-18T14:31:27.258Z</time></trkpt><trkpt lat="44.8770508" lon="9.544994"><ele>211.0</ele><time>2026-04-18T14:31:28.258Z</time></trkpt><trkpt lat="44.8771157" lon="9.5449005"><ele>210.33333333333331</ele><time>2026-04-18T14:31:29.258Z</time></trkpt><trkpt lat="44.8772249" lon="9.5448234"><ele>209.66666666666666</ele><time>2026-04-18T14:31:31.258Z</time></trkpt><trkpt lat="44.8773021" lon="9.5448079"><ele>209.0</ele><time>2026-04-18T14:31:32.259Z</time></trkpt><trkpt lat="44.8773887" lon="9.5448068"><ele>208.33333333333331</ele><time>2026-04-18T14:31:33.259Z</time></trkpt><trkpt lat="44.877449" lon="9.5447752"><ele>207.66666666666666</ele><time>2026-04-18T14:31:34.259Z</time></trkpt><trkpt lat="44.8775011" lon="9.5447238"><ele>207.0</ele><time>2026-04-18T14:31:35.258Z</time></trkpt><trkpt lat="44.8775532" lon="9.5446475"><ele>208.8</ele><time>2026-04-18T14:31:36.259Z</time></trkpt><trkpt lat="44.8776082" lon="9.5445514"><ele>210.6</ele><time>2026-04-18T14:31:37.258Z</time></trkpt><trkpt lat="44.8776685" lon="9.5444601"><ele>212.40000000000003</ele><time>2026-04-18T14:31:38.258Z</time></trkpt><trkpt lat="44.8777492" lon="9.5443199"><ele>214.20000000000002</ele><time>2026-04-18T14:31:39.258Z</time></trkpt><trkpt lat="44.8778272" lon="9.5442074"><ele>216.0</ele><time>2026-04-18T14:31:40.258Z</time></trkpt><trkpt lat="44.8779122" lon="9.5440769"><ele>216.0</ele><time>2026-04-18T14:31:41.258Z</time></trkpt><trkpt lat="44.8779945" lon="9.5439596"><ele>216.00000000000003</ele><time>2026-04-18T14:31:42.258Z</time></trkpt><trkpt lat="44.8780597" lon="9.5438309"><ele>216.00000000000003</ele><time>2026-04-18T14:31:43.259Z</time></trkpt><trkpt lat="44.878124" lon="9.5437155"><ele>216.0</ele><time>2026-04-18T14:31:44.259Z</time></trkpt><trkpt lat="44.8782024" lon="9.5436066"><ele>216.0</ele><time>2026-04-18T14:31:45.258Z</time></trkpt><trkpt lat="44.8782766" lon="9.5434953"><ele>216.8</ele><time>2026-04-18T14:31:46.258Z</time></trkpt><trkpt lat="44.878341" lon="9.5433714"><ele>217.60000000000002</ele><time>2026-04-18T14:31:47.258Z</time></trkpt><trkpt lat="44.8783942" lon="9.5432528"><ele>218.4</ele><time>2026-04-18T14:31:48.258Z</time></trkpt><trkpt lat="44.8784395" lon="9.5431483"><ele>219.2</ele><time>2026-04-18T14:31:49.258Z</time></trkpt><trkpt lat="44.8784948" lon="9.5430583"><ele>220.0</ele><time>2026-04-18T14:31:50.258Z</time></trkpt><trkpt lat="44.8785591" lon="9.5429728"><ele>218.0</ele><time>2026-04-18T14:31:51.258Z</time></trkpt><trkpt lat="44.8786399" lon="9.5428725"><ele>216.0</ele><time>2026-04-18T14:31:52.258Z</time></trkpt><trkpt lat="44.8787318" lon="9.5427692"><ele>214.0</ele><time>2026-04-18T14:31:53.259Z</time></trkpt><trkpt lat="44.8788243" lon="9.5426723"><ele>212.0</ele><time>2026-04-18T14:31:54.258Z</time></trkpt><trkpt lat="44.8789089" lon="9.5425813"><ele>210.0</ele><time>2026-04-18T14:31:55.258Z</time></trkpt><trkpt lat="44.8789831" lon="9.5424985"><ele>210.0</ele><time>2026-04-18T14:31:56.259Z</time></trkpt><trkpt lat="44.879054" lon="9.5424337"><ele>210.0</ele><time>2026-04-18T14:31:57.258Z</time></trkpt><trkpt lat="44.8791211" lon="9.5423796"><ele>210.0</ele><time>2026-04-18T14:31:58.258Z</time></trkpt><trkpt lat="44.879181" lon="9.5423336"><ele>210.0</ele><time>2026-04-18T14:31:59.258Z</time></trkpt><trkpt lat="44.8792761" lon="9.5422574"><ele>210.0</ele><time>2026-04-18T14:32:01.258Z</time></trkpt><trkpt lat="44.8793519" lon="9.5421798"><ele>210.0</ele><time>2026-04-18T14:32:03.258Z</time></trkpt><trkpt lat="44.8794509" lon="9.5421132"><ele>211.6</ele><time>2026-04-18T14:32:05.258Z</time></trkpt><trkpt lat="44.8795528" lon="9.5421407"><ele>213.2</ele><time>2026-04-18T14:32:07.258Z</time></trkpt><trkpt lat="44.8796648" lon="9.5422485"><ele>214.8</ele><time>2026-04-18T14:32:09.258Z</time></trkpt><trkpt lat="44.8797335" lon="9.5422953"><ele>216.4</ele><time>2026-04-18T14:32:10.258Z</time></trkpt><trkpt lat="44.8798046" lon="9.5422502"><ele>218.0</ele><time>2026-04-18T14:32:11.259Z</time></trkpt><trkpt lat="44.8798866" lon="9.5422386"><ele>218.0</ele><time>2026-04-18T14:32:12.258Z</time></trkpt><trkpt lat="44.8799801" lon="9.5422053"><ele>218.0</ele><time>2026-04-18T14:32:13.259Z</time></trkpt><trkpt lat="44.8800559" lon="9.5420754"><ele>218.0</ele><time>2026-04-18T14:32:14.258Z</time></trkpt><trkpt lat="44.8801472" lon="9.5419756"><ele>218.0</ele><time>2026-04-18T14:32:15.258Z</time></trkpt><trkpt lat="44.880189" lon="9.5418495"><ele>218.0</ele><time>2026-04-18T14:32:16.259Z</time></trkpt><trkpt lat="44.8802461" lon="9.5417723"><ele>218.8</ele><time>2026-04-18T14:32:17.258Z</time></trkpt><trkpt lat="44.8803158" lon="9.5416863"><ele>219.60000000000002</ele><time>2026-04-18T14:32:18.258Z</time></trkpt><trkpt lat="44.880404" lon="9.5416071"><ele>220.39999999999998</ele><time>2026-04-18T14:32:19.258Z</time></trkpt><trkpt lat="44.880497" lon="9.5415534"><ele>221.2</ele><time>2026-04-18T14:32:20.259Z</time></trkpt><trkpt lat="44.8806071" lon="9.5415012"><ele>222.0</ele><time>2026-04-18T14:32:21.259Z</time></trkpt><trkpt lat="44.8807166" lon="9.5414454"><ele>222.0</ele><time>2026-04-18T14:32:22.258Z</time></trkpt><trkpt lat="44.8807997" lon="9.5413692"><ele>222.0</ele><time>2026-04-18T14:32:23.258Z</time></trkpt><trkpt lat="44.8808961" lon="9.5412952"><ele>222.0</ele><time>2026-04-18T14:32:24.258Z</time></trkpt><trkpt lat="44.8809931" lon="9.5412266"><ele>222.0</ele><time>2026-04-18T14:32:25.258Z</time></trkpt><trkpt lat="44.881082" lon="9.5411446"><ele>222.0</ele><time>2026-04-18T14:32:26.258Z</time></trkpt><trkpt lat="44.8811529" lon="9.541001"><ele>224.75</ele><time>2026-04-18T14:32:27.259Z</time></trkpt><trkpt lat="44.8812348" lon="9.5408884"><ele>227.5</ele><time>2026-04-18T14:32:28.259Z</time></trkpt><trkpt lat="44.8813275" lon="9.5407601"><ele>230.25</ele><time>2026-04-18T14:32:29.258Z</time></trkpt><trkpt lat="44.8814206" lon="9.5406254"><ele>233.0</ele><time>2026-04-18T14:32:30.258Z</time></trkpt><trkpt lat="44.8815085" lon="9.5405001"><ele>235.75</ele><time>2026-04-18T14:32:31.258Z</time></trkpt><trkpt lat="44.8815802" lon="9.5403588"><ele>238.5</ele><time>2026-04-18T14:32:32.258Z</time></trkpt><trkpt lat="44.8816537" lon="9.5402121"><ele>241.25</ele><time>2026-04-18T14:32:33.258Z</time></trkpt><trkpt lat="44.8817158" lon="9.5400636"><ele>244.0</ele><time>2026-04-18T14:32:34.258Z</time></trkpt><trkpt lat="44.8817851" lon="9.5399227"><ele>244.0</ele><time>2026-04-18T14:32:35.258Z</time></trkpt><trkpt lat="44.8818694" lon="9.539797"><ele>244.0</ele><time>2026-04-18T14:32:36.258Z</time></trkpt><trkpt lat="44.8819552" lon="9.5396828"><ele>244.0</ele><time>2026-04-18T14:32:37.258Z</time></trkpt><trkpt lat="44.8820451" lon="9.5395771"><ele>244.0</ele><time>2026-04-18T14:32:38.258Z</time></trkpt><trkpt lat="44.8821278" lon="9.5395061"><ele>240.75</ele><time>2026-04-18T14:32:39.258Z</time></trkpt><trkpt lat="44.8822454" lon="9.5394358"><ele>237.5</ele><time>2026-04-18T14:32:40.258Z</time></trkpt><trkpt lat="44.8823609" lon="9.5393792"><ele>234.25</ele><time>2026-04-18T14:32:41.259Z</time></trkpt><trkpt lat="44.8824832" lon="9.5393448"><ele>231.0</ele><time>2026-04-18T14:32:42.258Z</time></trkpt><trkpt lat="44.8825939" lon="9.539295"><ele>231.5</ele><time>2026-04-18T14:32:43.259Z</time></trkpt><trkpt lat="44.8827156" lon="9.5392556"><ele>232.0</ele><time>2026-04-18T14:32:44.258Z</time></trkpt><trkpt lat="44.8828344" lon="9.5391779"><ele>232.5</ele><time>2026-04-18T14:32:45.258Z</time></trkpt><trkpt lat="44.8829458" lon="9.5391129"><ele>233.0</ele><time>2026-04-18T14:32:46.258Z</time></trkpt><trkpt lat="44.883069" lon="9.5390462"><ele>233.0</ele><time>2026-04-18T14:32:47.258Z</time></trkpt><trkpt lat="44.8831849" lon="9.5389904"><ele>233.0</ele><time>2026-04-18T14:32:48.259Z</time></trkpt><trkpt lat="44.8833167" lon="9.5389596"><ele>233.0</ele><time>2026-04-18T14:32:49.258Z</time></trkpt><trkpt lat="44.8834497" lon="9.5389492"><ele>233.0</ele><time>2026-04-18T14:32:50.258Z</time></trkpt><trkpt lat="44.8835774" lon="9.538912"><ele>233.75</ele><time>2026-04-18T14:32:51.258Z</time></trkpt><trkpt lat="44.8837063" lon="9.5388506"><ele>234.5</ele><time>2026-04-18T14:32:52.259Z</time></trkpt><trkpt lat="44.8838432" lon="9.538774"><ele>235.25</ele><time>2026-04-18T14:32:53.258Z</time></trkpt><trkpt lat="44.8839855" lon="9.5386943"><ele>236.0</ele><time>2026-04-18T14:32:54.258Z</time></trkpt><trkpt lat="44.8841314" lon="9.5386161"><ele>239.0</ele><time>2026-04-18T14:32:55.258Z</time></trkpt><trkpt lat="44.8844103" lon="9.5384511"><ele>242.0</ele><time>2026-04-18T14:32:57.258Z</time></trkpt><trkpt lat="44.8845522" lon="9.5383698"><ele>242.0</ele><time>2026-04-18T14:32:58.258Z</time></trkpt><trkpt lat="44.8846911" lon="9.5382867"><ele>242.0</ele><time>2026-04-18T14:32:59.258Z</time></trkpt><trkpt lat="44.8848294" lon="9.5382016"><ele>242.0</ele><time>2026-04-18T14:33:00.258Z</time></trkpt><trkpt lat="44.8849546" lon="9.538126"><ele>242.0</ele><time>2026-04-18T14:33:01.259Z</time></trkpt><trkpt lat="44.8850689" lon="9.5380528"><ele>244.2</ele><time>2026-04-18T14:33:02.258Z</time></trkpt><trkpt lat="44.8851562" lon="9.538002"><ele>246.39999999999998</ele><time>2026-04-18T14:33:03.258Z</time></trkpt><trkpt lat="44.8852408" lon="9.5379675"><ele>248.60000000000002</ele><time>2026-04-18T14:33:04.259Z</time></trkpt><trkpt lat="44.8853294" lon="9.5379553"><ele>250.8</ele><time>2026-04-18T14:33:05.258Z</time></trkpt><trkpt lat="44.8854385" lon="9.5379598"><ele>253.0</ele><time>2026-04-18T14:33:06.258Z</time></trkpt><trkpt lat="44.8855484" lon="9.5379619"><ele>253.0</ele><time>2026-04-18T14:33:07.258Z</time></trkpt><trkpt lat="44.8856616" lon="9.5379479"><ele>253.0</ele><time>2026-04-18T14:33:08.258Z</time></trkpt><trkpt lat="44.885786" lon="9.5379294"><ele>253.0</ele><time>2026-04-18T14:33:09.258Z</time></trkpt><trkpt lat="44.8859026" lon="9.5379197"><ele>253.0</ele><time>2026-04-18T14:33:10.258Z</time></trkpt><trkpt lat="44.8862158" lon="9.5378744"><ele>251.4</ele><time>2026-04-18T14:33:13.258Z</time></trkpt><trkpt lat="44.8862934" lon="9.5378069"><ele>249.8</ele><time>2026-04-18T14:33:14.259Z</time></trkpt><trkpt lat="44.886367" lon="9.5377089"><ele>248.2</ele><time>2026-04-18T14:33:15.259Z</time></trkpt><trkpt lat="44.8864379" lon="9.5375835"><ele>246.6</ele><time>2026-04-18T14:33:16.258Z</time></trkpt><trkpt lat="44.8865204" lon="9.5374679"><ele>245.0</ele><time>2026-04-18T14:33:17.258Z</time></trkpt><trkpt lat="44.8866125" lon="9.5373818"><ele>245.0</ele><time>2026-04-18T14:33:18.258Z</time></trkpt><trkpt lat="44.8867102" lon="9.537308"><ele>245.0</ele><time>2026-04-18T14:33:19.258Z</time></trkpt><trkpt lat="44.8867903" lon="9.5372409"><ele>245.0</ele><time>2026-04-18T14:33:20.258Z</time></trkpt><trkpt lat="44.8868664" lon="9.5371892"><ele>245.0</ele><time>2026-04-18T14:33:21.258Z</time></trkpt><trkpt lat="44.8869449" lon="9.537148"><ele>245.0</ele><time>2026-04-18T14:33:22.259Z</time></trkpt><trkpt lat="44.8870283" lon="9.5371325"><ele>245.6</ele><time>2026-04-18T14:33:23.258Z</time></trkpt><trkpt lat="44.8871172" lon="9.5371402"><ele>246.2</ele><time>2026-04-18T14:33:24.258Z</time></trkpt><trkpt lat="44.8872033" lon="9.5371781"><ele>246.8</ele><time>2026-04-18T14:33:25.258Z</time></trkpt><trkpt lat="44.8872789" lon="9.5372471"><ele>247.4</ele><time>2026-04-18T14:33:26.258Z</time></trkpt><trkpt lat="44.8873421" lon="9.5373294"><ele>248.0</ele><time>2026-04-18T14:33:27.259Z</time></trkpt><trkpt lat="44.8874047" lon="9.5374294"><ele>248.00000000000003</ele><time>2026-04-18T14:33:28.259Z</time></trkpt><trkpt lat="44.887465" lon="9.5375251"><ele>248.0</ele><time>2026-04-18T14:33:29.259Z</time></trkpt><trkpt lat="44.8875248" lon="9.5376222"><ele>248.0</ele><time>2026-04-18T14:33:30.259Z</time></trkpt><trkpt lat="44.8875878" lon="9.537714"><ele>248.0</ele><time>2026-04-18T14:33:31.258Z</time></trkpt><trkpt lat="44.8876408" lon="9.5378113"><ele>248.00000000000003</ele><time>2026-04-18T14:33:32.258Z</time></trkpt><trkpt lat="44.887694" lon="9.5379028"><ele>248.0</ele><time>2026-04-18T14:33:33.258Z</time></trkpt><trkpt lat="44.8877504" lon="9.5379757"><ele>251.16666666666669</ele><time>2026-04-18T14:33:34.258Z</time></trkpt><trkpt lat="44.8878052" lon="9.5380586"><ele>254.33333333333334</ele><time>2026-04-18T14:33:35.258Z</time></trkpt><trkpt lat="44.8878609" lon="9.5381388"><ele>257.5</ele><time>2026-04-18T14:33:36.258Z</time></trkpt><trkpt lat="44.8878977" lon="9.5382224"><ele>260.6666666666667</ele><time>2026-04-18T14:33:37.258Z</time></trkpt><trkpt lat="44.8879289" lon="9.5383283"><ele>263.8333333333333</ele><time>2026-04-18T14:33:38.259Z</time></trkpt><trkpt lat="44.887971" lon="9.5384283"><ele>267.0</ele><time>2026-04-18T14:33:39.259Z</time></trkpt><trkpt lat="44.8880326" lon="9.5384993"><ele>267.0</ele><time>2026-04-18T14:33:40.259Z</time></trkpt><trkpt lat="44.8881012" lon="9.5385022"><ele>267.0</ele><time>2026-04-18T14:33:41.258Z</time></trkpt><trkpt lat="44.8881746" lon="9.5385406"><ele>267.0</ele><time>2026-04-18T14:33:42.258Z</time></trkpt><trkpt lat="44.8882474" lon="9.5384926"><ele>267.0</ele><time>2026-04-18T14:33:43.258Z</time></trkpt><trkpt lat="44.8883166" lon="9.5384501"><ele>267.0</ele><time>2026-04-18T14:33:44.258Z</time></trkpt><trkpt lat="44.8883889" lon="9.5383861"><ele>267.0</ele><time>2026-04-18T14:33:45.258Z</time></trkpt><trkpt lat="44.8884598" lon="9.5383261"><ele>269.3333333333333</ele><time>2026-04-18T14:33:46.258Z</time></trkpt><trkpt lat="44.8885336" lon="9.5382573"><ele>271.6666666666667</ele><time>2026-04-18T14:33:47.259Z</time></trkpt><trkpt lat="44.8886006" lon="9.5381938"><ele>274.0</ele><time>2026-04-18T14:33:48.259Z</time></trkpt><trkpt lat="44.8886656" lon="9.5381169"><ele>276.33333333333337</ele><time>2026-04-18T14:33:49.258Z</time></trkpt><trkpt lat="44.8887289" lon="9.53803"><ele>278.6666666666667</ele><time>2026-04-18T14:33:50.258Z</time></trkpt><trkpt lat="44.8887375" lon="9.5379041"><ele>281.0</ele><time>2026-04-18T14:33:51.258Z</time></trkpt><trkpt lat="44.8887669" lon="9.5377785"><ele>281.0</ele><time>2026-04-18T14:33:52.258Z</time></trkpt><trkpt lat="44.8887946" lon="9.537657"><ele>281.0</ele><time>2026-04-18T14:33:53.258Z</time></trkpt><trkpt lat="44.8888213" lon="9.5375405"><ele>281.0</ele><time>2026-04-18T14:33:54.258Z</time></trkpt><trkpt lat="44.8888601" lon="9.5374311"><ele>281.0</ele><time>2026-04-18T14:33:55.258Z</time></trkpt><trkpt lat="44.8888917" lon="9.5373294"><ele>281.0</ele><time>2026-04-18T14:33:56.258Z</time></trkpt><trkpt lat="44.8889898" lon="9.5371729"><ele>281.0</ele><time>2026-04-18T14:33:58.259Z</time></trkpt><trkpt lat="44.8890623" lon="9.5371297"><ele>281.0</ele><time>2026-04-18T14:33:59.258Z</time></trkpt><trkpt lat="44.8891473" lon="9.5371106"><ele>281.0</ele><time>2026-04-18T14:34:00.258Z</time></trkpt><trkpt lat="44.889235" lon="9.537091"><ele>281.0</ele><time>2026-04-18T14:34:01.258Z</time></trkpt><trkpt lat="44.8893309" lon="9.5370765"><ele>281.0</ele><time>2026-04-18T14:34:02.258Z</time></trkpt><trkpt lat="44.8894273" lon="9.537068"><ele>281.0</ele><time>2026-04-18T14:34:03.258Z</time></trkpt><trkpt lat="44.8896242" lon="9.5370411"><ele>282.0</ele><time>2026-04-18T14:34:05.258Z</time></trkpt><trkpt lat="44.8897243" lon="9.537025"><ele>283.0</ele><time>2026-04-18T14:34:06.259Z</time></trkpt><trkpt lat="44.8898987" lon="9.5368892"><ele>284.0</ele><time>2026-04-18T14:34:08.258Z</time></trkpt><trkpt lat="44.8899931" lon="9.5368047"><ele>285.0</ele><time>2026-04-18T14:34:09.258Z</time></trkpt><trkpt lat="44.8900944" lon="9.5367636"><ele>287.4</ele><time>2026-04-18T14:34:10.258Z</time></trkpt><trkpt lat="44.8901812" lon="9.5367602"><ele>289.8</ele><time>2026-04-18T14:34:11.258Z</time></trkpt><trkpt lat="44.8902418" lon="9.5367863"><ele>292.2</ele><time>2026-04-18T14:34:12.258Z</time></trkpt><trkpt lat="44.8902873" lon="9.5368514"><ele>294.6</ele><time>2026-04-18T14:34:13.258Z</time></trkpt><trkpt lat="44.8903567" lon="9.5370638"><ele>297.0</ele><time>2026-04-18T14:34:15.258Z</time></trkpt><trkpt lat="44.8903749" lon="9.5372263"><ele>298.6666666666667</ele><time>2026-04-18T14:34:16.258Z</time></trkpt><trkpt lat="44.8904089" lon="9.537311"><ele>300.3333333333333</ele><time>2026-04-18T14:34:17.258Z</time></trkpt><trkpt lat="44.8904566" lon="9.5374019"><ele>302.0</ele><time>2026-04-18T14:34:18.259Z</time></trkpt><trkpt lat="44.8905178" lon="9.5374612"><ele>303.66666666666663</ele><time>2026-04-18T14:34:19.258Z</time></trkpt><trkpt lat="44.8905883" lon="9.5374184"><ele>305.3333333333333</ele><time>2026-04-18T14:34:20.258Z</time></trkpt><trkpt lat="44.8906629" lon="9.5373757"><ele>307.0</ele><time>2026-04-18T14:34:21.258Z</time></trkpt><trkpt lat="44.8907467" lon="9.537299"><ele>307.0</ele><time>2026-04-18T14:34:22.258Z</time></trkpt><trkpt lat="44.8907861" lon="9.5371544"><ele>307.0</ele><time>2026-04-18T14:34:23.259Z</time></trkpt><trkpt lat="44.8908407" lon="9.5370855"><ele>307.0</ele><time>2026-04-18T14:34:24.258Z</time></trkpt><trkpt lat="44.8908913" lon="9.5370147"><ele>307.0</ele><time>2026-04-18T14:34:25.258Z</time></trkpt><trkpt lat="44.8909506" lon="9.5369651"><ele>307.0</ele><time>2026-04-18T14:34:26.258Z</time></trkpt><trkpt lat="44.8910146" lon="9.5369599"><ele>307.0</ele><time>2026-04-18T14:34:27.258Z</time></trkpt><trkpt lat="44.8910891" lon="9.5369708"><ele>314.0</ele><time>2026-04-18T14:34:28.258Z</time></trkpt><trkpt lat="44.8914468" lon="9.5371167"><ele>321.0</ele><time>2026-04-18T14:34:32.258Z</time></trkpt><trkpt lat="44.8915201" lon="9.537064"><ele>320.6666666666667</ele><time>2026-04-18T14:34:33.258Z</time></trkpt><trkpt lat="44.891589" lon="9.5369795"><ele>320.3333333333333</ele><time>2026-04-18T14:34:34.259Z</time></trkpt><trkpt lat="44.8916385" lon="9.5368719"><ele>320.0</ele><time>2026-04-18T14:34:35.259Z</time></trkpt><trkpt lat="44.8916777" lon="9.5367582"><ele>319.66666666666663</ele><time>2026-04-18T14:34:36.258Z</time></trkpt><trkpt lat="44.8917142" lon="9.5366704"><ele>319.3333333333333</ele><time>2026-04-18T14:34:37.258Z</time></trkpt><trkpt lat="44.8917773" lon="9.5366055"><ele>319.0</ele><time>2026-04-18T14:34:38.258Z</time></trkpt><trkpt lat="44.8918993" lon="9.536612"><ele>319.0</ele><time>2026-04-18T14:34:40.259Z</time></trkpt><trkpt lat="44.8919672" lon="9.5366472"><ele>319.0</ele><time>2026-04-18T14:34:41.259Z</time></trkpt><trkpt lat="44.8920465" lon="9.5367157"><ele>319.0</ele><time>2026-04-18T14:34:42.258Z</time></trkpt><trkpt lat="44.8921018" lon="9.5368308"><ele>319.0</ele><time>2026-04-18T14:34:43.259Z</time></trkpt><trkpt lat="44.8921265" lon="9.53693"><ele>319.0</ele><time>2026-04-18T14:34:44.258Z</time></trkpt><trkpt lat="44.8922115" lon="9.5370221"><ele>319.0</ele><time>2026-04-18T14:34:45.258Z</time></trkpt><trkpt lat="44.8923521" lon="9.5371171"><ele>319.0</ele><time>2026-04-18T14:34:47.258Z</time></trkpt><trkpt lat="44.8924286" lon="9.537086"><ele>319.0</ele><time>2026-04-18T14:34:48.259Z</time></trkpt><trkpt lat="44.8925066" lon="9.5370631"><ele>319.0</ele><time>2026-04-18T14:34:49.258Z</time></trkpt><trkpt lat="44.8925849" lon="9.5370296"><ele>319.0</ele><time>2026-04-18T14:34:50.258Z</time></trkpt><trkpt lat="44.8926624" lon="9.5369601"><ele>319.0</ele><time>2026-04-18T14:34:51.258Z</time></trkpt><trkpt lat="44.892716" lon="9.5368687"><ele>319.0</ele><time>2026-04-18T14:34:52.258Z</time></trkpt><trkpt lat="44.8927583" lon="9.5367634"><ele>319.4</ele><time>2026-04-18T14:34:53.258Z</time></trkpt><trkpt lat="44.8927468" lon="9.5366169"><ele>319.79999999999995</ele><time>2026-04-18T14:34:54.258Z</time></trkpt><trkpt lat="44.8927269" lon="9.5364897"><ele>320.20000000000005</ele><time>2026-04-18T14:34:55.259Z</time></trkpt><trkpt lat="44.8926799" lon="9.5363469"><ele>320.6</ele><time>2026-04-18T14:34:56.259Z</time></trkpt><trkpt lat="44.8926216" lon="9.5362091"><ele>321.0</ele><time>2026-04-18T14:34:57.258Z</time></trkpt><trkpt lat="44.8925716" lon="9.5360874"><ele>321.0</ele><time>2026-04-18T14:34:58.258Z</time></trkpt><trkpt lat="44.8925384" lon="9.5359693"><ele>321.0</ele><time>2026-04-18T14:34:59.258Z</time></trkpt><trkpt lat="44.8925241" lon="9.5358485"><ele>321.0</ele><time>2026-04-18T14:35:00.259Z</time></trkpt><trkpt lat="44.8925272" lon="9.5357249"><ele>321.0</ele><time>2026-04-18T14:35:01.258Z</time></trkpt><trkpt lat="44.8925343" lon="9.5356027"><ele>321.0</ele><time>2026-04-18T14:35:02.258Z</time></trkpt><trkpt lat="44.8925445" lon="9.5354801"><ele>321.0</ele><time>2026-04-18T14:35:03.258Z</time></trkpt><trkpt lat="44.8925545" lon="9.5353658"><ele>322.3333333333333</ele><time>2026-04-18T14:35:04.258Z</time></trkpt><trkpt lat="44.8925662" lon="9.5352505"><ele>323.6666666666667</ele><time>2026-04-18T14:35:05.258Z</time></trkpt><trkpt lat="44.8925816" lon="9.5351418"><ele>325.0</ele><time>2026-04-18T14:35:06.258Z</time></trkpt><trkpt lat="44.8926011" lon="9.5350139"><ele>326.33333333333337</ele><time>2026-04-18T14:35:07.258Z</time></trkpt><trkpt lat="44.8926236" lon="9.5348965"><ele>327.6666666666667</ele><time>2026-04-18T14:35:08.258Z</time></trkpt><trkpt lat="44.8926661" lon="9.5347752"><ele>329.0</ele><time>2026-04-18T14:35:09.258Z</time></trkpt><trkpt lat="44.8927174" lon="9.5346531"><ele>333.79999999999995</ele><time>2026-04-18T14:35:10.258Z</time></trkpt><trkpt lat="44.8927804" lon="9.5345354"><ele>338.59999999999997</ele><time>2026-04-18T14:35:11.258Z</time></trkpt><trkpt lat="44.8928484" lon="9.5344159"><ele>343.4</ele><time>2026-04-18T14:35:12.258Z</time></trkpt><trkpt lat="44.8929206" lon="9.5342881"><ele>348.2</ele><time>2026-04-18T14:35:13.259Z</time></trkpt><trkpt lat="44.8929832" lon="9.5341578"><ele>353.0</ele><time>2026-04-18T14:35:14.258Z</time></trkpt><trkpt lat="44.8930334" lon="9.5340124"><ele>353.0</ele><time>2026-04-18T14:35:15.258Z</time></trkpt><trkpt lat="44.893084" lon="9.5338713"><ele>353.0</ele><time>2026-04-18T14:35:16.258Z</time></trkpt><trkpt lat="44.8931341" lon="9.5337289"><ele>353.0</ele><time>2026-04-18T14:35:17.258Z</time></trkpt><trkpt lat="44.89318" lon="9.533583"><ele>353.0</ele><time>2026-04-18T14:35:18.259Z</time></trkpt><trkpt lat="44.8932155" lon="9.5334244"><ele>352.4</ele><time>2026-04-18T14:35:19.258Z</time></trkpt><trkpt lat="44.8932438" lon="9.5332806"><ele>351.79999999999995</ele><time>2026-04-18T14:35:20.259Z</time></trkpt><trkpt lat="44.8932693" lon="9.5331662"><ele>351.2</ele><time>2026-04-18T14:35:21.258Z</time></trkpt><trkpt lat="44.8933443" lon="9.533066"><ele>350.6</ele><time>2026-04-18T14:35:23.258Z</time></trkpt><trkpt lat="44.893428" lon="9.5331064"><ele>350.0</ele><time>2026-04-18T14:35:25.258Z</time></trkpt><trkpt lat="44.8934983" lon="9.5332788"><ele>357.6666666666667</ele><time>2026-04-18T14:35:27.258Z</time></trkpt><trkpt lat="44.8935338" lon="9.5333788"><ele>365.3333333333333</ele><time>2026-04-18T14:35:28.259Z</time></trkpt><trkpt lat="44.8936666" lon="9.5337019"><ele>373.0</ele><time>2026-04-18T14:35:30.258Z</time></trkpt><trkpt lat="44.8937092" lon="9.5338424"><ele>372.79999999999995</ele><time>2026-04-18T14:35:31.259Z</time></trkpt><trkpt lat="44.8937401" lon="9.5339982"><ele>372.6</ele><time>2026-04-18T14:35:32.259Z</time></trkpt><trkpt lat="44.8937556" lon="9.5341525"><ele>372.4</ele><time>2026-04-18T14:35:33.258Z</time></trkpt><trkpt lat="44.8937591" lon="9.5342821"><ele>372.20000000000005</ele><time>2026-04-18T14:35:34.258Z</time></trkpt><trkpt lat="44.8937547" lon="9.534443"><ele>372.0</ele><time>2026-04-18T14:35:35.258Z</time></trkpt><trkpt lat="44.8937727" lon="9.534678"><ele>372.0</ele><time>2026-04-18T14:35:37.258Z</time></trkpt><trkpt lat="44.8938103" lon="9.5347539"><ele>372.0</ele><time>2026-04-18T14:35:38.258Z</time></trkpt><trkpt lat="44.8938742" lon="9.5347873"><ele>372.0</ele><time>2026-04-18T14:35:39.258Z</time></trkpt><trkpt lat="44.8939471" lon="9.5347818"><ele>372.0</ele><time>2026-04-18T14:35:40.258Z</time></trkpt><trkpt lat="44.8940156" lon="9.5347836"><ele>372.0</ele><time>2026-04-18T14:35:41.258Z</time></trkpt><trkpt lat="44.8941023" lon="9.5347336"><ele>372.0</ele><time>2026-04-18T14:35:42.258Z</time></trkpt><trkpt lat="44.8941798" lon="9.534678"><ele>372.0</ele><time>2026-04-18T14:35:43.258Z</time></trkpt><trkpt lat="44.894253" lon="9.5346045"><ele>372.0</ele><time>2026-04-18T14:35:44.259Z</time></trkpt><trkpt lat="44.8944079" lon="9.5344601"><ele>372.0</ele><time>2026-04-18T14:35:46.258Z</time></trkpt><trkpt lat="44.8944854" lon="9.5344076"><ele>372.0</ele><time>2026-04-18T14:35:47.258Z</time></trkpt><trkpt lat="44.8945597" lon="9.5343683"><ele>372.0</ele><time>2026-04-18T14:35:48.259Z</time></trkpt><trkpt lat="44.8947009" lon="9.5343252"><ele>374.6666666666667</ele><time>2026-04-18T14:35:50.258Z</time></trkpt><trkpt lat="44.8947653" lon="9.5343285"><ele>377.33333333333337</ele><time>2026-04-18T14:35:51.258Z</time></trkpt><trkpt lat="44.8948361" lon="9.5343473"><ele>380.0</ele><time>2026-04-18T14:35:54.259Z</time></trkpt><trkpt lat="44.8948855" lon="9.53441"><ele>382.6666666666667</ele><time>2026-04-18T14:36:31.258Z</time></trkpt><trkpt lat="44.8949718" lon="9.5345298"><ele>385.33333333333337</ele><time>2026-04-18T14:36:33.258Z</time></trkpt><trkpt lat="44.8950111" lon="9.5346516"><ele>388.0</ele><time>2026-04-18T14:36:34.258Z</time></trkpt><trkpt lat="44.8950666" lon="9.5349223"><ele>388.0</ele><time>2026-04-18T14:36:36.258Z</time></trkpt><trkpt lat="44.8950794" lon="9.5350951"><ele>388.0</ele><time>2026-04-18T14:36:37.258Z</time></trkpt><trkpt lat="44.8950932" lon="9.53526"><ele>388.0</ele><time>2026-04-18T14:36:38.259Z</time></trkpt><trkpt lat="44.895109" lon="9.5354318"><ele>388.0</ele><time>2026-04-18T14:36:39.258Z</time></trkpt><trkpt lat="44.8951293" lon="9.5356043"><ele>393.6666666666667</ele><time>2026-04-18T14:36:40.258Z</time></trkpt><trkpt lat="44.8951512" lon="9.5357835"><ele>399.33333333333337</ele><time>2026-04-18T14:36:41.258Z</time></trkpt><trkpt lat="44.8951812" lon="9.5359709"><ele>405.0</ele><time>2026-04-18T14:36:42.259Z</time></trkpt><trkpt lat="44.8952627" lon="9.5365479"><ele>405.0</ele><time>2026-04-18T14:36:45.258Z</time></trkpt><trkpt lat="44.8952873" lon="9.5367156"><ele>405.0</ele><time>2026-04-18T14:36:46.259Z</time></trkpt><trkpt lat="44.8953114" lon="9.536849"><ele>405.0</ele><time>2026-04-18T14:36:47.258Z</time></trkpt><trkpt lat="44.8953976" lon="9.537054"><ele>405.0</ele><time>2026-04-18T14:36:49.258Z</time></trkpt><trkpt lat="44.8954611" lon="9.5371523"><ele>401.66666666666663</ele><time>2026-04-18T14:36:50.258Z</time></trkpt><trkpt lat="44.8956709" lon="9.5372533"><ele>398.3333333333333</ele><time>2026-04-18T14:36:52.258Z</time></trkpt><trkpt lat="44.8957686" lon="9.5372915"><ele>395.0</ele><time>2026-04-18T14:36:53.258Z</time></trkpt><trkpt lat="44.8959096" lon="9.5373867"><ele>396.75</ele><time>2026-04-18T14:36:55.258Z</time></trkpt><trkpt lat="44.8959685" lon="9.5375422"><ele>398.5</ele><time>2026-04-18T14:36:57.258Z</time></trkpt><trkpt lat="44.8959723" lon="9.5376773"><ele>400.25</ele><time>2026-04-18T14:36:58.258Z</time></trkpt><trkpt lat="44.8959652" lon="9.537825"><ele>402.0</ele><time>2026-04-18T14:36:59.258Z</time></trkpt><trkpt lat="44.8958641" lon="9.5381703"><ele>402.0</ele><time>2026-04-18T14:37:02.259Z</time></trkpt><trkpt lat="44.8957883" lon="9.5382636"><ele>402.0</ele><time>2026-04-18T14:37:03.259Z</time></trkpt><trkpt lat="44.8956477" lon="9.5384751"><ele>402.0</ele><time>2026-04-18T14:37:05.258Z</time></trkpt><trkpt lat="44.89555" lon="9.5385615"><ele>402.0</ele><time>2026-04-18T14:37:06.258Z</time></trkpt><trkpt lat="44.8954533" lon="9.5386448"><ele>404.5</ele><time>2026-04-18T14:37:07.258Z</time></trkpt><trkpt lat="44.8954005" lon="9.5387368"><ele>407.0</ele><time>2026-04-18T14:37:08.258Z</time></trkpt><trkpt lat="44.8953585" lon="9.5388207"><ele>409.5</ele><time>2026-04-18T14:37:09.259Z</time></trkpt><trkpt lat="44.8953342" lon="9.5389156"><ele>412.0</ele><time>2026-04-18T14:37:10.258Z</time></trkpt><trkpt lat="44.8954473" lon="9.5393145"><ele>412.0</ele><time>2026-04-18T14:37:13.258Z</time></trkpt><trkpt lat="44.8955013" lon="9.5394459"><ele>412.0</ele><time>2026-04-18T14:37:14.259Z</time></trkpt><trkpt lat="44.8955613" lon="9.539584"><ele>412.0</ele><time>2026-04-18T14:37:15.258Z</time></trkpt><trkpt lat="44.8956251" lon="9.5397169"><ele>412.0</ele><time>2026-04-18T14:37:16.259Z</time></trkpt><trkpt lat="44.8956895" lon="9.5398368"><ele>412.0</ele><time>2026-04-18T14:37:17.258Z</time></trkpt><trkpt lat="44.8957482" lon="9.5399345"><ele>411.33333333333337</ele><time>2026-04-18T14:37:18.258Z</time></trkpt><trkpt lat="44.8957472" lon="9.5400548"><ele>410.66666666666663</ele><time>2026-04-18T14:37:19.258Z</time></trkpt><trkpt lat="44.8957287" lon="9.540324"><ele>410.0</ele><time>2026-04-18T14:37:21.258Z</time></trkpt><trkpt lat="44.8956669" lon="9.5406375"><ele>409.75</ele><time>2026-04-18T14:37:23.258Z</time></trkpt><trkpt lat="44.8956359" lon="9.5408007"><ele>409.5</ele><time>2026-04-18T14:37:24.258Z</time></trkpt><trkpt lat="44.8956137" lon="9.5409608"><ele>409.25</ele><time>2026-04-18T14:37:25.258Z</time></trkpt><trkpt lat="44.8955947" lon="9.5411266"><ele>409.0</ele><time>2026-04-18T14:37:26.259Z</time></trkpt><trkpt lat="44.8955893" lon="9.5412905"><ele>409.75</ele><time>2026-04-18T14:37:27.259Z</time></trkpt><trkpt lat="44.8955786" lon="9.5414299"><ele>410.5</ele><time>2026-04-18T14:37:28.258Z</time></trkpt><trkpt lat="44.8955532" lon="9.5415585"><ele>411.25</ele><time>2026-04-18T14:37:29.258Z</time></trkpt><trkpt lat="44.8954642" lon="9.5417975"><ele>412.0</ele><time>2026-04-18T14:37:31.258Z</time></trkpt><trkpt lat="44.8954161" lon="9.5418914"><ele>412.0</ele><time>2026-04-18T14:37:32.258Z</time></trkpt><trkpt lat="44.895377" lon="9.5419928"><ele>412.0</ele><time>2026-04-18T14:37:33.258Z</time></trkpt><trkpt lat="44.8953608" lon="9.5420833"><ele>412.0</ele><time>2026-04-18T14:37:34.258Z</time></trkpt><trkpt lat="44.8953901" lon="9.5422311"><ele>412.0</ele><time>2026-04-18T14:37:36.258Z</time></trkpt><trkpt lat="44.8954851" lon="9.5423478"><ele>412.0</ele><time>2026-04-18T14:37:38.258Z</time></trkpt><trkpt lat="44.895579" lon="9.5424068"><ele>413.8</ele><time>2026-04-18T14:37:39.259Z</time></trkpt><trkpt lat="44.8956683" lon="9.5424844"><ele>415.6</ele><time>2026-04-18T14:37:40.258Z</time></trkpt><trkpt lat="44.8957563" lon="9.5425731"><ele>417.40000000000003</ele><time>2026-04-18T14:37:41.258Z</time></trkpt><trkpt lat="44.895843" lon="9.5426532"><ele>419.20000000000005</ele><time>2026-04-18T14:37:42.258Z</time></trkpt><trkpt lat="44.89593" lon="9.5427107"><ele>421.0</ele><time>2026-04-18T14:37:43.258Z</time></trkpt><trkpt lat="44.89601" lon="9.5427423"><ele>423.20000000000005</ele><time>2026-04-18T14:37:44.258Z</time></trkpt><trkpt lat="44.8961007" lon="9.5427573"><ele>425.40000000000003</ele><time>2026-04-18T14:37:45.259Z</time></trkpt><trkpt lat="44.8961918" lon="9.5427604"><ele>427.6</ele><time>2026-04-18T14:37:46.258Z</time></trkpt><trkpt lat="44.8962872" lon="9.5427525"><ele>429.8</ele><time>2026-04-18T14:37:47.258Z</time></trkpt><trkpt lat="44.8963807" lon="9.5427366"><ele>432.0</ele><time>2026-04-18T14:37:48.259Z</time></trkpt><trkpt lat="44.8964694" lon="9.5427071"><ele>432.0</ele><time>2026-04-18T14:37:49.258Z</time></trkpt><trkpt lat="44.8965565" lon="9.54268"><ele>432.0</ele><time>2026-04-18T14:37:50.258Z</time></trkpt><trkpt lat="44.896635" lon="9.5426668"><ele>432.0</ele><time>2026-04-18T14:37:51.258Z</time></trkpt><trkpt lat="44.8967242" lon="9.5426821"><ele>432.0</ele><time>2026-04-18T14:37:52.259Z</time></trkpt><trkpt lat="44.8969326" lon="9.542743"><ele>435.0</ele><time>2026-04-18T14:37:54.259Z</time></trkpt><trkpt lat="44.8970352" lon="9.5427707"><ele>438.0</ele><time>2026-04-18T14:37:55.258Z</time></trkpt><trkpt lat="44.8971373" lon="9.5428"><ele>441.0</ele><time>2026-04-18T14:37:56.258Z</time></trkpt><trkpt lat="44.8974351" lon="9.5428799"><ele>443.0</ele><time>2026-04-18T14:37:59.258Z</time></trkpt><trkpt lat="44.8975364" lon="9.5429116"><ele>445.0</ele><time>2026-04-18T14:38:00.259Z</time></trkpt><trkpt lat="44.8976413" lon="9.5429497"><ele>447.0</ele><time>2026-04-18T14:38:01.258Z</time></trkpt><trkpt lat="44.8977433" lon="9.5429632"><ele>449.0</ele><time>2026-04-18T14:38:02.258Z</time></trkpt><trkpt lat="44.8978336" lon="9.54296"><ele>451.0</ele><time>2026-04-18T14:38:03.258Z</time></trkpt><trkpt lat="44.89793" lon="9.5429398"><ele>452.0</ele><time>2026-04-18T14:38:04.259Z</time></trkpt><trkpt lat="44.8980283" lon="9.5429097"><ele>453.0</ele><time>2026-04-18T14:38:05.258Z</time></trkpt><trkpt lat="44.8981269" lon="9.5428774"><ele>454.0</ele><time>2026-04-18T14:38:06.258Z</time></trkpt><trkpt lat="44.8982268" lon="9.5428374"><ele>455.0</ele><time>2026-04-18T14:38:07.258Z</time></trkpt><trkpt lat="44.898315" lon="9.5427872"><ele>456.0</ele><time>2026-04-18T14:38:08.258Z</time></trkpt><trkpt lat="44.8984016" lon="9.5427225"><ele>458.5</ele><time>2026-04-18T14:38:09.259Z</time></trkpt><trkpt lat="44.8984709" lon="9.542647"><ele>461.0</ele><time>2026-04-18T14:38:10.258Z</time></trkpt><trkpt lat="44.8985151" lon="9.5425674"><ele>463.5</ele><time>2026-04-18T14:38:11.258Z</time></trkpt><trkpt lat="44.8985548" lon="9.5424752"><ele>466.0</ele><time>2026-04-18T14:38:12.258Z</time></trkpt><trkpt lat="44.8986191" lon="9.5423548"><ele>468.5</ele><time>2026-04-18T14:38:14.259Z</time></trkpt><trkpt lat="44.8986976" lon="9.5423531"><ele>471.0</ele><time>2026-04-18T14:38:16.258Z</time></trkpt><trkpt lat="44.8987628" lon="9.5424356"><ele>471.0</ele><time>2026-04-18T14:38:18.258Z</time></trkpt><trkpt lat="44.8988281" lon="9.5426105"><ele>471.0</ele><time>2026-04-18T14:38:20.259Z</time></trkpt><trkpt lat="44.8988675" lon="9.5427106"><ele>471.0</ele><time>2026-04-18T14:38:21.258Z</time></trkpt><trkpt lat="44.8989017" lon="9.5428248"><ele>471.0</ele><time>2026-04-18T14:38:22.259Z</time></trkpt><trkpt lat="44.898918" lon="9.5429554"><ele>471.0</ele><time>2026-04-18T14:38:23.258Z</time></trkpt><trkpt lat="44.8989331" lon="9.5430964"><ele>471.4</ele><time>2026-04-18T14:38:24.258Z</time></trkpt><trkpt lat="44.8989615" lon="9.543227"><ele>471.8</ele><time>2026-04-18T14:38:25.258Z</time></trkpt><trkpt lat="44.8989864" lon="9.5433721"><ele>472.19999999999993</ele><time>2026-04-18T14:38:26.259Z</time></trkpt><trkpt lat="44.8989941" lon="9.5435185"><ele>472.59999999999997</ele><time>2026-04-18T14:38:27.259Z</time></trkpt><trkpt lat="44.8989864" lon="9.5436606"><ele>473.0</ele><time>2026-04-18T14:38:28.258Z</time></trkpt><trkpt lat="44.898985" lon="9.5439094"><ele>474.0</ele><time>2026-04-18T14:38:30.258Z</time></trkpt><trkpt lat="44.8990053" lon="9.5440434"><ele>474.99999999999994</ele><time>2026-04-18T14:38:31.258Z</time></trkpt><trkpt lat="44.8990216" lon="9.544173"><ele>475.99999999999994</ele><time>2026-04-18T14:38:32.258Z</time></trkpt><trkpt lat="44.8990472" lon="9.5442807"><ele>477.0</ele><time>2026-04-18T14:38:33.258Z</time></trkpt><trkpt lat="44.8991275" lon="9.5444413"><ele>478.0</ele><time>2026-04-18T14:38:35.258Z</time></trkpt><trkpt lat="44.8991802" lon="9.5444921"><ele>480.2</ele><time>2026-04-18T14:38:36.259Z</time></trkpt><trkpt lat="44.8992791" lon="9.5445188"><ele>482.4</ele><time>2026-04-18T14:38:39.258Z</time></trkpt><trkpt lat="44.8993118" lon="9.5444414"><ele>484.59999999999997</ele><time>2026-04-18T14:38:42.258Z</time></trkpt><trkpt lat="44.8992912" lon="9.54432"><ele>486.79999999999995</ele><time>2026-04-18T14:38:59.258Z</time></trkpt><trkpt lat="44.8993671" lon="9.5442525"><ele>489.0</ele><time>2026-04-18T14:39:01.259Z</time></trkpt><trkpt lat="44.8995022" lon="9.5442724"><ele>489.0</ele><time>2026-04-18T14:39:03.258Z</time></trkpt><trkpt lat="44.8995924" lon="9.5442917"><ele>489.0</ele><time>2026-04-18T14:39:04.258Z</time></trkpt><trkpt lat="44.89991" lon="9.5442505"><ele>489.0</ele><time>2026-04-18T14:39:07.259Z</time></trkpt><trkpt lat="44.9000171" lon="9.5441841"><ele>490.75</ele><time>2026-04-18T14:39:08.258Z</time></trkpt><trkpt lat="44.9001324" lon="9.5441094"><ele>492.5</ele><time>2026-04-18T14:39:09.258Z</time></trkpt><trkpt lat="44.9002589" lon="9.5440455"><ele>494.25</ele><time>2026-04-18T14:39:10.258Z</time></trkpt><trkpt lat="44.9003865" lon="9.5439764"><ele>496.0</ele><time>2026-04-18T14:39:11.258Z</time></trkpt><trkpt lat="44.9005004" lon="9.5439282"><ele>496.00000000000006</ele><time>2026-04-18T14:39:12.258Z</time></trkpt><trkpt lat="44.9005997" lon="9.5438865"><ele>496.0</ele><time>2026-04-18T14:39:13.258Z</time></trkpt><trkpt lat="44.9006826" lon="9.5438427"><ele>496.0</ele><time>2026-04-18T14:39:14.258Z</time></trkpt><trkpt lat="44.9007473" lon="9.5437803"><ele>496.0</ele><time>2026-04-18T14:39:15.258Z</time></trkpt><trkpt lat="44.9008066" lon="9.5436993"><ele>496.00000000000006</ele><time>2026-04-18T14:39:16.259Z</time></trkpt><trkpt lat="44.9008459" lon="9.5436084"><ele>496.0</ele><time>2026-04-18T14:39:17.259Z</time></trkpt><trkpt lat="44.9008656" lon="9.5435182"><ele>496.20000000000005</ele><time>2026-04-18T14:39:18.259Z</time></trkpt><trkpt lat="44.9008803" lon="9.5434124"><ele>496.40000000000003</ele><time>2026-04-18T14:39:19.258Z</time></trkpt><trkpt lat="44.9008872" lon="9.543289"><ele>496.6</ele><time>2026-04-18T14:39:20.259Z</time></trkpt><trkpt lat="44.9008803" lon="9.5431555"><ele>496.8</ele><time>2026-04-18T14:39:21.258Z</time></trkpt><trkpt lat="44.9008611" lon="9.5430266"><ele>497.0</ele><time>2026-04-18T14:39:22.258Z</time></trkpt><trkpt lat="44.9007816" lon="9.5428269"><ele>495.99999999999994</ele><time>2026-04-18T14:39:24.258Z</time></trkpt><trkpt lat="44.9007234" lon="9.5427522"><ele>495.0</ele><time>2026-04-18T14:39:25.258Z</time></trkpt><trkpt lat="44.9006647" lon="9.5426917"><ele>494.0</ele><time>2026-04-18T14:39:26.258Z</time></trkpt><trkpt lat="44.9005796" lon="9.5426008"><ele>493.0</ele><time>2026-04-18T14:39:28.258Z</time></trkpt><trkpt lat="44.900552" lon="9.5424767"><ele>491.99999999999994</ele><time>2026-04-18T14:39:30.258Z</time></trkpt><trkpt lat="44.9005672" lon="9.5423863"><ele>491.0</ele><time>2026-04-18T14:39:31.258Z</time></trkpt><trkpt lat="44.9006026" lon="9.542262"><ele>491.0</ele><time>2026-04-18T14:39:32.259Z</time></trkpt><trkpt lat="44.9006445" lon="9.5421256"><ele>491.0</ele><time>2026-04-18T14:39:33.258Z</time></trkpt><trkpt lat="44.900715" lon="9.5417972"><ele>491.0</ele><time>2026-04-18T14:39:35.258Z</time></trkpt><trkpt lat="44.9007585" lon="9.5416197"><ele>490.0</ele><time>2026-04-18T14:39:36.259Z</time></trkpt><trkpt lat="44.9008055" lon="9.5414417"><ele>489.0</ele><time>2026-04-18T14:39:37.258Z</time></trkpt><trkpt lat="44.9008451" lon="9.5412616"><ele>488.0</ele><time>2026-04-18T14:39:38.258Z</time></trkpt><trkpt lat="44.9009654" lon="9.5407746"><ele>487.99999999999994</ele><time>2026-04-18T14:39:41.258Z</time></trkpt><trkpt lat="44.9009935" lon="9.5406369"><ele>488.0</ele><time>2026-04-18T14:39:42.258Z</time></trkpt><trkpt lat="44.9010031" lon="9.540511"><ele>488.0</ele><time>2026-04-18T14:39:43.258Z</time></trkpt><trkpt lat="44.9009839" lon="9.5404078"><ele>488.0</ele><time>2026-04-18T14:39:44.258Z</time></trkpt><trkpt lat="44.9009437" lon="9.5403158"><ele>487.99999999999994</ele><time>2026-04-18T14:39:45.259Z</time></trkpt><trkpt lat="44.9008903" lon="9.5402236"><ele>488.0</ele><time>2026-04-18T14:39:46.258Z</time></trkpt><trkpt lat="44.9008589" lon="9.5401159"><ele>487.2</ele><time>2026-04-18T14:39:47.258Z</time></trkpt><trkpt lat="44.9008416" lon="9.5399787"><ele>486.4</ele><time>2026-04-18T14:39:48.258Z</time></trkpt><trkpt lat="44.9008422" lon="9.5398201"><ele>485.59999999999997</ele><time>2026-04-18T14:39:49.258Z</time></trkpt><trkpt lat="44.9008417" lon="9.5396814"><ele>484.79999999999995</ele><time>2026-04-18T14:39:50.258Z</time></trkpt><trkpt lat="44.9008412" lon="9.5395385"><ele>484.0</ele><time>2026-04-18T14:39:51.258Z</time></trkpt><trkpt lat="44.9008375" lon="9.5394004"><ele>484.0</ele><time>2026-04-18T14:39:52.258Z</time></trkpt><trkpt lat="44.9008347" lon="9.5392844"><ele>484.0</ele><time>2026-04-18T14:39:53.258Z</time></trkpt><trkpt lat="44.9008243" lon="9.5391687"><ele>484.0</ele><time>2026-04-18T14:39:54.259Z</time></trkpt><trkpt lat="44.9006853" lon="9.538979"><ele>484.0</ele><time>2026-04-18T14:39:57.258Z</time></trkpt><trkpt lat="44.9005859" lon="9.5388175"><ele>486.2</ele><time>2026-04-18T14:39:59.259Z</time></trkpt><trkpt lat="44.900545" lon="9.5386071"><ele>488.4</ele><time>2026-04-18T14:40:01.258Z</time></trkpt><trkpt lat="44.9005312" lon="9.5384937"><ele>490.6</ele><time>2026-04-18T14:40:02.258Z</time></trkpt><trkpt lat="44.9005199" lon="9.5383781"><ele>492.8</ele><time>2026-04-18T14:40:03.258Z</time></trkpt><trkpt lat="44.9005223" lon="9.5382337"><ele>495.0</ele><time>2026-04-18T14:40:04.258Z</time></trkpt><trkpt lat="44.9005218" lon="9.5380846"><ele>501.0</ele><time>2026-04-18T14:40:05.258Z</time></trkpt><trkpt lat="44.900485" lon="9.5375809"><ele>507.0</ele><time>2026-04-18T14:40:08.258Z</time></trkpt><trkpt lat="44.9004721" lon="9.5372711"><ele>506.5</ele><time>2026-04-18T14:40:10.258Z</time></trkpt><trkpt lat="44.9005221" lon="9.536985"><ele>506.0</ele><time>2026-04-18T14:40:12.258Z</time></trkpt><trkpt lat="44.9005653" lon="9.5368442"><ele>505.5</ele><time>2026-04-18T14:40:13.258Z</time></trkpt><trkpt lat="44.9006202" lon="9.5366943"><ele>505.0</ele><time>2026-04-18T14:40:14.258Z</time></trkpt><trkpt lat="44.9006801" lon="9.5365505"><ele>505.0</ele><time>2026-04-18T14:40:15.258Z</time></trkpt><trkpt lat="44.9007464" lon="9.536412"><ele>505.0</ele><time>2026-04-18T14:40:16.258Z</time></trkpt><trkpt lat="44.9008114" lon="9.536255"><ele>505.0</ele><time>2026-04-18T14:40:17.258Z</time></trkpt><trkpt lat="44.9008647" lon="9.5360876"><ele>505.0</ele><time>2026-04-18T14:40:18.258Z</time></trkpt><trkpt lat="44.9009088" lon="9.5359168"><ele>507.0</ele><time>2026-04-18T14:40:19.258Z</time></trkpt><trkpt lat="44.9009566" lon="9.5357416"><ele>509.0</ele><time>2026-04-18T14:40:20.258Z</time></trkpt><trkpt lat="44.9009933" lon="9.5355744"><ele>511.0</ele><time>2026-04-18T14:40:21.258Z</time></trkpt><trkpt lat="44.9010132" lon="9.5353936"><ele>513.0</ele><time>2026-04-18T14:40:22.259Z</time></trkpt><trkpt lat="44.9010217" lon="9.5352125"><ele>513.25</ele><time>2026-04-18T14:40:23.258Z</time></trkpt><trkpt lat="44.9010289" lon="9.5350255"><ele>513.5</ele><time>2026-04-18T14:40:24.258Z</time></trkpt><trkpt lat="44.9010282" lon="9.5348436"><ele>513.75</ele><time>2026-04-18T14:40:25.259Z</time></trkpt><trkpt lat="44.9010315" lon="9.5346723"><ele>514.0</ele><time>2026-04-18T14:40:26.258Z</time></trkpt><trkpt lat="44.9010265" lon="9.5345162"><ele>513.5</ele><time>2026-04-18T14:40:27.258Z</time></trkpt><trkpt lat="44.9010182" lon="9.5343863"><ele>513.0</ele><time>2026-04-18T14:40:28.258Z</time></trkpt><trkpt lat="44.9010121" lon="9.5342705"><ele>512.5</ele><time>2026-04-18T14:40:29.258Z</time></trkpt><trkpt lat="44.9010046" lon="9.5340153"><ele>512.0</ele><time>2026-04-18T14:40:31.258Z</time></trkpt><trkpt lat="44.901014" lon="9.5338793"><ele>512.0</ele><time>2026-04-18T14:40:32.259Z</time></trkpt><trkpt lat="44.9010237" lon="9.5337634"><ele>512.0</ele><time>2026-04-18T14:40:33.258Z</time></trkpt><trkpt lat="44.9010386" lon="9.5336496"><ele>512.0</ele><time>2026-04-18T14:40:34.259Z</time></trkpt><trkpt lat="44.9010496" lon="9.5335494"><ele>512.0</ele><time>2026-04-18T14:40:35.259Z</time></trkpt><trkpt lat="44.9010734" lon="9.5333794"><ele>512.0</ele><time>2026-04-18T14:40:37.258Z</time></trkpt><trkpt lat="44.9010927" lon="9.5332532"><ele>511.0</ele><time>2026-04-18T14:40:39.258Z</time></trkpt><trkpt lat="44.9011469" lon="9.5330487"><ele>510.0</ele><time>2026-04-18T14:41:16.259Z</time></trkpt><trkpt lat="44.9011755" lon="9.5329291"><ele>509.0</ele><time>2026-04-18T14:41:17.258Z</time></trkpt><trkpt lat="44.9012138" lon="9.5327778"><ele>508.0</ele><time>2026-04-18T14:41:18.259Z</time></trkpt><trkpt lat="44.9012503" lon="9.5326395"><ele>508.0</ele><time>2026-04-18T14:41:19.258Z</time></trkpt><trkpt lat="44.9012818" lon="9.5324873"><ele>508.0</ele><time>2026-04-18T14:41:20.259Z</time></trkpt><trkpt lat="44.9013038" lon="9.5323278"><ele>508.0</ele><time>2026-04-18T14:41:21.258Z</time></trkpt><trkpt lat="44.9013206" lon="9.5318557"><ele>507.79999999999995</ele><time>2026-04-18T14:41:24.259Z</time></trkpt><trkpt lat="44.9013273" lon="9.531718"><ele>507.59999999999997</ele><time>2026-04-18T14:41:25.258Z</time></trkpt><trkpt lat="44.9013413" lon="9.5315846"><ele>507.40000000000003</ele><time>2026-04-18T14:41:26.258Z</time></trkpt><trkpt lat="44.9013724" lon="9.5314655"><ele>507.20000000000005</ele><time>2026-04-18T14:41:27.258Z</time></trkpt><trkpt lat="44.9014222" lon="9.5313413"><ele>507.0</ele><time>2026-04-18T14:41:28.258Z</time></trkpt><trkpt lat="44.9014839" lon="9.531225"><ele>506.0</ele><time>2026-04-18T14:41:29.258Z</time></trkpt><trkpt lat="44.9015455" lon="9.5311093"><ele>505.0</ele><time>2026-04-18T14:41:30.258Z</time></trkpt><trkpt lat="44.9016479" lon="9.5307158"><ele>504.0</ele><time>2026-04-18T14:41:33.259Z</time></trkpt><trkpt lat="44.9016652" lon="9.5305618"><ele>504.0</ele><time>2026-04-18T14:41:34.258Z</time></trkpt><trkpt lat="44.9016751" lon="9.5304031"><ele>504.0</ele><time>2026-04-18T14:41:35.258Z</time></trkpt><trkpt lat="44.9016718" lon="9.5302271"><ele>504.0</ele><time>2026-04-18T14:41:36.258Z</time></trkpt><trkpt lat="44.9016534" lon="9.5300462"><ele>504.0</ele><time>2026-04-18T14:41:37.258Z</time></trkpt><trkpt lat="44.9016283" lon="9.5298776"><ele>503.5</ele><time>2026-04-18T14:41:38.258Z</time></trkpt><trkpt lat="44.9015923" lon="9.5297075"><ele>503.0</ele><time>2026-04-18T14:41:39.258Z</time></trkpt><trkpt lat="44.901559" lon="9.5295452"><ele>502.5</ele><time>2026-04-18T14:41:40.258Z</time></trkpt><trkpt lat="44.9015222" lon="9.5293883"><ele>502.0</ele><time>2026-04-18T14:41:41.259Z</time></trkpt><trkpt lat="44.9014873" lon="9.5292262"><ele>502.0</ele><time>2026-04-18T14:41:42.259Z</time></trkpt><trkpt lat="44.9014332" lon="9.5289156"><ele>502.0</ele><time>2026-04-18T14:41:44.258Z</time></trkpt><trkpt lat="44.9013933" lon="9.5287636"><ele>502.0</ele><time>2026-04-18T14:41:45.258Z</time></trkpt><trkpt lat="44.9013582" lon="9.5286246"><ele>502.0</ele><time>2026-04-18T14:41:46.258Z</time></trkpt><trkpt lat="44.9013337" lon="9.5284892"><ele>502.1666666666667</ele><time>2026-04-18T14:41:47.258Z</time></trkpt><trkpt lat="44.9013166" lon="9.528361"><ele>502.33333333333337</ele><time>2026-04-18T14:41:48.258Z</time></trkpt><trkpt lat="44.9013137" lon="9.5282464"><ele>502.5</ele><time>2026-04-18T14:41:49.258Z</time></trkpt><trkpt lat="44.9013235" lon="9.5281404"><ele>502.66666666666663</ele><time>2026-04-18T14:41:50.258Z</time></trkpt><trkpt lat="44.9013386" lon="9.5280419"><ele>502.8333333333333</ele><time>2026-04-18T14:41:51.258Z</time></trkpt><trkpt lat="44.9013596" lon="9.5279411"><ele>503.0</ele><time>2026-04-18T14:41:52.258Z</time></trkpt><trkpt lat="44.9013749" lon="9.5278238"><ele>503.4</ele><time>2026-04-18T14:41:53.258Z</time></trkpt><trkpt lat="44.9014025" lon="9.5277183"><ele>503.79999999999995</ele><time>2026-04-18T14:41:54.259Z</time></trkpt><trkpt lat="44.9014471" lon="9.5276201"><ele>504.2</ele><time>2026-04-18T14:41:55.259Z</time></trkpt><trkpt lat="44.9015104" lon="9.5275137"><ele>504.6</ele><time>2026-04-18T14:41:56.258Z</time></trkpt><trkpt lat="44.9015918" lon="9.5274093"><ele>505.0</ele><time>2026-04-18T14:41:57.259Z</time></trkpt><trkpt lat="44.9016807" lon="9.5273081"><ele>507.4</ele><time>2026-04-18T14:41:58.258Z</time></trkpt><trkpt lat="44.901766" lon="9.5272055"><ele>509.8</ele><time>2026-04-18T14:41:59.258Z</time></trkpt><trkpt lat="44.9018461" lon="9.5271321"><ele>512.2</ele><time>2026-04-18T14:42:00.258Z</time></trkpt><trkpt lat="44.901931" lon="9.5270752"><ele>514.6</ele><time>2026-04-18T14:42:01.259Z</time></trkpt><trkpt lat="44.9020216" lon="9.52702"><ele>517.0</ele><time>2026-04-18T14:42:02.258Z</time></trkpt><trkpt lat="44.9021121" lon="9.5269752"><ele>518.2</ele><time>2026-04-18T14:42:03.258Z</time></trkpt><trkpt lat="44.9022089" lon="9.5269376"><ele>519.4000000000001</ele><time>2026-04-18T14:42:04.259Z</time></trkpt><trkpt lat="44.9023138" lon="9.5269072"><ele>520.5999999999999</ele><time>2026-04-18T14:42:05.258Z</time></trkpt><trkpt lat="44.9024007" lon="9.5268637"><ele>521.8</ele><time>2026-04-18T14:42:06.258Z</time></trkpt><trkpt lat="44.9024791" lon="9.5267944"><ele>523.0</ele><time>2026-04-18T14:42:07.258Z</time></trkpt><trkpt lat="44.9025357" lon="9.5267171"><ele>521.8333333333334</ele><time>2026-04-18T14:42:08.258Z</time></trkpt><trkpt lat="44.902582" lon="9.5266539"><ele>520.6666666666667</ele><time>2026-04-18T14:42:09.258Z</time></trkpt><trkpt lat="44.9026373" lon="9.5265668"><ele>519.5</ele><time>2026-04-18T14:42:11.259Z</time></trkpt><trkpt lat="44.9026507" lon="9.5264694"><ele>518.3333333333334</ele><time>2026-04-18T14:42:14.258Z</time></trkpt><trkpt lat="44.9026436" lon="9.5263386"><ele>517.1666666666666</ele><time>2026-04-18T14:42:16.258Z</time></trkpt><trkpt lat="44.9026337" lon="9.5261992"><ele>516.0</ele><time>2026-04-18T14:42:18.258Z</time></trkpt><trkpt lat="44.9026282" lon="9.5260229"><ele>515.4</ele><time>2026-04-18T14:42:20.258Z</time></trkpt><trkpt lat="44.9026226" lon="9.5258499"><ele>514.8</ele><time>2026-04-18T14:42:22.258Z</time></trkpt><trkpt lat="44.9026403" lon="9.5257619"><ele>514.1999999999999</ele><time>2026-04-18T14:42:23.258Z</time></trkpt><trkpt lat="44.9026689" lon="9.5256789"><ele>513.6</ele><time>2026-04-18T14:42:24.258Z</time></trkpt><trkpt lat="44.9026973" lon="9.5255918"><ele>513.0</ele><time>2026-04-18T14:42:25.258Z</time></trkpt><trkpt lat="44.9027665" lon="9.5253254"><ele>514.75</ele><time>2026-04-18T14:42:27.258Z</time></trkpt><trkpt lat="44.9027765" lon="9.5251899"><ele>516.5</ele><time>2026-04-18T14:42:28.258Z</time></trkpt><trkpt lat="44.9027699" lon="9.5250366"><ele>518.25</ele><time>2026-04-18T14:42:29.258Z</time></trkpt><trkpt lat="44.9027637" lon="9.5248369"><ele>520.0</ele><time>2026-04-18T14:42:30.258Z</time></trkpt><trkpt lat="44.9027713" lon="9.5246424"><ele>522.0</ele><time>2026-04-18T14:42:31.258Z</time></trkpt><trkpt lat="44.9027907" lon="9.5244822"><ele>524.0</ele><time>2026-04-18T14:42:32.258Z</time></trkpt><trkpt lat="44.9028464" lon="9.5241729"><ele>526.0</ele><time>2026-04-18T14:42:34.259Z</time></trkpt><trkpt lat="44.9028885" lon="9.5240345"><ele>528.0</ele><time>2026-04-18T14:42:35.258Z</time></trkpt><trkpt lat="44.9029401" lon="9.5238959"><ele>528.0</ele><time>2026-04-18T14:42:36.259Z</time></trkpt><trkpt lat="44.9029938" lon="9.5237566"><ele>528.0</ele><time>2026-04-18T14:42:37.258Z</time></trkpt><trkpt lat="44.9030371" lon="9.5236075"><ele>528.0</ele><time>2026-04-18T14:42:38.258Z</time></trkpt><trkpt lat="44.9030968" lon="9.5233157"><ele>528.0</ele><time>2026-04-18T14:42:40.258Z</time></trkpt><trkpt lat="44.9031256" lon="9.5231702"><ele>530.4</ele><time>2026-04-18T14:42:41.258Z</time></trkpt><trkpt lat="44.9031526" lon="9.5230268"><ele>532.8</ele><time>2026-04-18T14:42:42.258Z</time></trkpt><trkpt lat="44.9031716" lon="9.522882"><ele>535.2</ele><time>2026-04-18T14:42:43.258Z</time></trkpt><trkpt lat="44.9031842" lon="9.5227355"><ele>537.6</ele><time>2026-04-18T14:42:44.259Z</time></trkpt><trkpt lat="44.9031957" lon="9.5225717"><ele>540.0</ele><time>2026-04-18T14:42:45.258Z</time></trkpt><trkpt lat="44.9032047" lon="9.5224133"><ele>540.25</ele><time>2026-04-18T14:42:46.259Z</time></trkpt><trkpt lat="44.9032101" lon="9.5222414"><ele>540.5</ele><time>2026-04-18T14:42:47.258Z</time></trkpt><trkpt lat="44.9032088" lon="9.5220548"><ele>540.75</ele><time>2026-04-18T14:42:48.258Z</time></trkpt><trkpt lat="44.9032039" lon="9.5218635"><ele>541.0</ele><time>2026-04-18T14:42:49.259Z</time></trkpt><trkpt lat="44.9031957" lon="9.5216732"><ele>541.0</ele><time>2026-04-18T14:42:50.258Z</time></trkpt><trkpt lat="44.9031828" lon="9.5214779"><ele>541.0</ele><time>2026-04-18T14:42:51.259Z</time></trkpt><trkpt lat="44.9031646" lon="9.5212885"><ele>541.0</ele><time>2026-04-18T14:42:52.259Z</time></trkpt><trkpt lat="44.903146" lon="9.5211034"><ele>541.0</ele><time>2026-04-18T14:42:53.258Z</time></trkpt><trkpt lat="44.9031448" lon="9.5209096"><ele>540.5</ele><time>2026-04-18T14:42:54.258Z</time></trkpt><trkpt lat="44.9031664" lon="9.5207094"><ele>540.0</ele><time>2026-04-18T14:42:55.258Z</time></trkpt><trkpt lat="44.9031796" lon="9.5205002"><ele>539.5</ele><time>2026-04-18T14:42:56.258Z</time></trkpt><trkpt lat="44.9031802" lon="9.5202855"><ele>539.0</ele><time>2026-04-18T14:42:57.259Z</time></trkpt><trkpt lat="44.9031905" lon="9.5200808"><ele>538.75</ele><time>2026-04-18T14:42:58.258Z</time></trkpt><trkpt lat="44.9031952" lon="9.5198774"><ele>538.5</ele><time>2026-04-18T14:42:59.259Z</time></trkpt><trkpt lat="44.9031901" lon="9.5196769"><ele>538.25</ele><time>2026-04-18T14:43:00.258Z</time></trkpt><trkpt lat="44.9031826" lon="9.5194831"><ele>538.0</ele><time>2026-04-18T14:43:01.258Z</time></trkpt><trkpt lat="44.9031818" lon="9.5192898"><ele>537.5</ele><time>2026-04-18T14:43:02.259Z</time></trkpt><trkpt lat="44.9031876" lon="9.5190945"><ele>537.0</ele><time>2026-04-18T14:43:03.259Z</time></trkpt><trkpt lat="44.9031823" lon="9.5188946"><ele>536.5</ele><time>2026-04-18T14:43:04.258Z</time></trkpt><trkpt lat="44.9031606" lon="9.5187022"><ele>536.0</ele><time>2026-04-18T14:43:05.259Z</time></trkpt><trkpt lat="44.9031346" lon="9.5185189"><ele>533.5</ele><time>2026-04-18T14:43:06.259Z</time></trkpt><trkpt lat="44.9031016" lon="9.5183383"><ele>531.0</ele><time>2026-04-18T14:43:07.259Z</time></trkpt><trkpt lat="44.9030545" lon="9.5181639"><ele>528.5</ele><time>2026-04-18T14:43:08.259Z</time></trkpt><trkpt lat="44.9029783" lon="9.5179983"><ele>526.0</ele><time>2026-04-18T14:43:09.258Z</time></trkpt><trkpt lat="44.9028783" lon="9.5178501"><ele>524.25</ele><time>2026-04-18T14:43:10.258Z</time></trkpt><trkpt lat="44.9027607" lon="9.5177296"><ele>522.5</ele><time>2026-04-18T14:43:11.258Z</time></trkpt><trkpt lat="44.902641" lon="9.5176256"><ele>520.75</ele><time>2026-04-18T14:43:12.258Z</time></trkpt><trkpt lat="44.902526" lon="9.5175103"><ele>519.0</ele><time>2026-04-18T14:43:13.258Z</time></trkpt><trkpt lat="44.9024237" lon="9.5173802"><ele>523.0</ele><time>2026-04-18T14:43:14.258Z</time></trkpt><trkpt lat="44.9023313" lon="9.5172613"><ele>527.0</ele><time>2026-04-18T14:43:15.258Z</time></trkpt><trkpt lat="44.9022341" lon="9.5171532"><ele>531.0</ele><time>2026-04-18T14:43:16.258Z</time></trkpt><trkpt lat="44.9021361" lon="9.5170548"><ele>535.0</ele><time>2026-04-18T14:43:17.258Z</time></trkpt><trkpt lat="44.9020409" lon="9.5169603"><ele>535.2</ele><time>2026-04-18T14:43:18.259Z</time></trkpt><trkpt lat="44.9019415" lon="9.5168702"><ele>535.4</ele><time>2026-04-18T14:43:19.258Z</time></trkpt><trkpt lat="44.9018444" lon="9.516794"><ele>535.6</ele><time>2026-04-18T14:43:20.258Z</time></trkpt><trkpt lat="44.9017495" lon="9.5167137"><ele>535.8</ele><time>2026-04-18T14:43:21.258Z</time></trkpt><trkpt lat="44.9016669" lon="9.5166194"><ele>536.0</ele><time>2026-04-18T14:43:22.258Z</time></trkpt><trkpt lat="44.9016055" lon="9.5165262"><ele>537.6</ele><time>2026-04-18T14:43:23.258Z</time></trkpt><trkpt lat="44.9015451" lon="9.5164048"><ele>539.2</ele><time>2026-04-18T14:43:25.259Z</time></trkpt><trkpt lat="44.9014792" lon="9.5163656"><ele>540.8</ele><time>2026-04-18T14:43:28.258Z</time></trkpt><trkpt lat="44.9013629" lon="9.5164458"><ele>542.4</ele><time>2026-04-18T14:43:30.258Z</time></trkpt><trkpt lat="44.9012552" lon="9.5164962"><ele>544.0</ele><time>2026-04-18T14:43:31.258Z</time></trkpt><trkpt lat="44.9011354" lon="9.5165408"><ele>544.0</ele><time>2026-04-18T14:43:32.258Z</time></trkpt><trkpt lat="44.901022" lon="9.516593"><ele>544.0</ele><time>2026-04-18T14:43:33.258Z</time></trkpt><trkpt lat="44.9009143" lon="9.516662"><ele>544.0</ele><time>2026-04-18T14:43:34.258Z</time></trkpt><trkpt lat="44.9008095" lon="9.5167353"><ele>544.0</ele><time>2026-04-18T14:43:35.258Z</time></trkpt><trkpt lat="44.9007084" lon="9.516811"><ele>544.4</ele><time>2026-04-18T14:43:36.258Z</time></trkpt><trkpt lat="44.9006121" lon="9.5168835"><ele>544.8</ele><time>2026-04-18T14:43:37.258Z</time></trkpt><trkpt lat="44.9005199" lon="9.5169502"><ele>545.2</ele><time>2026-04-18T14:43:38.258Z</time></trkpt><trkpt lat="44.9004337" lon="9.5169998"><ele>545.6</ele><time>2026-04-18T14:43:39.258Z</time></trkpt><trkpt lat="44.9003461" lon="9.5170373"><ele>546.0</ele><time>2026-04-18T14:43:40.259Z</time></trkpt><trkpt lat="44.9002588" lon="9.5170588"><ele>546.0</ele><time>2026-04-18T14:43:41.258Z</time></trkpt><trkpt lat="44.900173" lon="9.5170273"><ele>546.0</ele><time>2026-04-18T14:43:42.258Z</time></trkpt><trkpt lat="44.900082" lon="9.5169657"><ele>546.0</ele><time>2026-04-18T14:43:43.259Z</time></trkpt><trkpt lat="44.8999894" lon="9.5168788"><ele>546.0</ele><time>2026-04-18T14:43:44.258Z</time></trkpt><trkpt lat="44.8998952" lon="9.5167899"><ele>546.0</ele><time>2026-04-18T14:43:45.258Z</time></trkpt><trkpt lat="44.8998041" lon="9.5167111"><ele>546.0</ele><time>2026-04-18T14:43:46.258Z</time></trkpt><trkpt lat="44.8997098" lon="9.5166411"><ele>546.0</ele><time>2026-04-18T14:43:47.258Z</time></trkpt><trkpt lat="44.8996166" lon="9.5165718"><ele>546.0</ele><time>2026-04-18T14:43:48.258Z</time></trkpt><trkpt lat="44.8995174" lon="9.5164952"><ele>546.0</ele><time>2026-04-18T14:43:49.258Z</time></trkpt><trkpt lat="44.8994122" lon="9.5164161"><ele>546.0</ele><time>2026-04-18T14:43:50.259Z</time></trkpt><trkpt lat="44.8993086" lon="9.5163422"><ele>543.6</ele><time>2026-04-18T14:43:51.259Z</time></trkpt><trkpt lat="44.8992117" lon="9.5162703"><ele>541.2</ele><time>2026-04-18T14:43:52.259Z</time></trkpt><trkpt lat="44.8991224" lon="9.5162048"><ele>538.8</ele><time>2026-04-18T14:43:53.258Z</time></trkpt><trkpt lat="44.8990396" lon="9.5161423"><ele>536.4</ele><time>2026-04-18T14:43:54.258Z</time></trkpt><trkpt lat="44.8989659" lon="9.51608"><ele>534.0</ele><time>2026-04-18T14:43:55.258Z</time></trkpt><trkpt lat="44.8989004" lon="9.5160341"><ele>534.0</ele><time>2026-04-18T14:43:56.258Z</time></trkpt><trkpt lat="44.8988395" lon="9.5160014"><ele>534.0</ele><time>2026-04-18T14:43:57.258Z</time></trkpt><trkpt lat="44.8987351" lon="9.5159678"><ele>534.0</ele><time>2026-04-18T14:43:59.258Z</time></trkpt><trkpt lat="44.8986715" lon="9.5158826"><ele>534.0</ele><time>2026-04-18T14:44:01.258Z</time></trkpt><trkpt lat="44.8986573" lon="9.5157223"><ele>534.0</ele><time>2026-04-18T14:44:03.258Z</time></trkpt><trkpt lat="44.8986582" lon="9.5156053"><ele>534.0</ele><time>2026-04-18T14:44:04.258Z</time></trkpt><trkpt lat="44.8986515" lon="9.5154681"><ele>534.0</ele><time>2026-04-18T14:44:05.258Z</time></trkpt><trkpt lat="44.8986418" lon="9.5153125"><ele>534.0</ele><time>2026-04-18T14:44:06.258Z</time></trkpt><trkpt lat="44.8986246" lon="9.5151499"><ele>534.0</ele><time>2026-04-18T14:44:07.258Z</time></trkpt><trkpt lat="44.8986063" lon="9.5149944"><ele>534.0</ele><time>2026-04-18T14:44:08.258Z</time></trkpt><trkpt lat="44.8985874" lon="9.5148498"><ele>532.4</ele><time>2026-04-18T14:44:09.258Z</time></trkpt><trkpt lat="44.8985615" lon="9.5147159"><ele>530.8</ele><time>2026-04-18T14:44:10.259Z</time></trkpt><trkpt lat="44.8985274" lon="9.5145815"><ele>529.2</ele><time>2026-04-18T14:44:11.258Z</time></trkpt><trkpt lat="44.8984818" lon="9.5144437"><ele>527.6</ele><time>2026-04-18T14:44:12.258Z</time></trkpt><trkpt lat="44.8984288" lon="9.5143134"><ele>526.0</ele><time>2026-04-18T14:44:13.258Z</time></trkpt><trkpt lat="44.8983718" lon="9.5141835"><ele>525.4</ele><time>2026-04-18T14:44:14.258Z</time></trkpt><trkpt lat="44.8983152" lon="9.5140636"><ele>524.8</ele><time>2026-04-18T14:44:15.258Z</time></trkpt><trkpt lat="44.8982627" lon="9.5139571"><ele>524.1999999999999</ele><time>2026-04-18T14:44:16.259Z</time></trkpt><trkpt lat="44.8982077" lon="9.5138521"><ele>523.6</ele><time>2026-04-18T14:44:17.258Z</time></trkpt><trkpt lat="44.898145" lon="9.5137421"><ele>523.0</ele><time>2026-04-18T14:44:18.258Z</time></trkpt><trkpt lat="44.8980676" lon="9.5136308"><ele>518.6666666666667</ele><time>2026-04-18T14:44:19.258Z</time></trkpt><trkpt lat="44.8979789" lon="9.5135236"><ele>514.3333333333334</ele><time>2026-04-18T14:44:20.259Z</time></trkpt><trkpt lat="44.8978893" lon="9.5134164"><ele>510.0</ele><time>2026-04-18T14:44:21.258Z</time></trkpt><trkpt lat="44.8977307" lon="9.5132096"><ele>510.0</ele><time>2026-04-18T14:44:23.258Z</time></trkpt><trkpt lat="44.8976644" lon="9.5131081"><ele>510.0</ele><time>2026-04-18T14:44:24.258Z</time></trkpt><trkpt lat="44.8976181" lon="9.5129946"><ele>510.0</ele><time>2026-04-18T14:44:25.258Z</time></trkpt><trkpt lat="44.8975595" lon="9.5127545"><ele>510.0</ele><time>2026-04-18T14:44:27.258Z</time></trkpt><trkpt lat="44.8975499" lon="9.5126297"><ele>507.25</ele><time>2026-04-18T14:44:28.258Z</time></trkpt><trkpt lat="44.8975529" lon="9.5124989"><ele>504.5</ele><time>2026-04-18T14:44:29.258Z</time></trkpt><trkpt lat="44.8975631" lon="9.5123627"><ele>501.75</ele><time>2026-04-18T14:44:30.259Z</time></trkpt><trkpt lat="44.8975787" lon="9.5122245"><ele>499.0</ele><time>2026-04-18T14:44:31.259Z</time></trkpt><trkpt lat="44.8976184" lon="9.5119676"><ele>496.79999999999995</ele><time>2026-04-18T14:44:33.258Z</time></trkpt><trkpt lat="44.8976337" lon="9.5118625"><ele>494.59999999999997</ele><time>2026-04-18T14:44:34.258Z</time></trkpt><trkpt lat="44.8976484" lon="9.5117682"><ele>492.4</ele><time>2026-04-18T14:44:35.259Z</time></trkpt><trkpt lat="44.8976796" lon="9.5115919"><ele>490.2</ele><time>2026-04-18T14:44:37.259Z</time></trkpt><trkpt lat="44.8977195" lon="9.5114086"><ele>488.0</ele><time>2026-04-18T14:44:39.259Z</time></trkpt><trkpt lat="44.8977502" lon="9.5112736"><ele>486.59999999999997</ele><time>2026-04-18T14:44:41.258Z</time></trkpt><trkpt lat="44.8977421" lon="9.511161"><ele>485.19999999999993</ele><time>2026-04-18T14:44:44.258Z</time></trkpt><trkpt lat="44.8976557" lon="9.5111195"><ele>483.8</ele><time>2026-04-18T14:44:48.258Z</time></trkpt><trkpt lat="44.8975812" lon="9.5111495"><ele>482.4</ele><time>2026-04-18T14:44:51.258Z</time></trkpt><trkpt lat="44.8974651" lon="9.511185"><ele>481.0</ele><time>2026-04-18T14:44:55.258Z</time></trkpt><trkpt lat="44.897325" lon="9.5112277"><ele>482.6666666666667</ele><time>2026-04-18T14:44:57.258Z</time></trkpt><trkpt lat="44.8972477" lon="9.5112633"><ele>484.33333333333337</ele><time>2026-04-18T14:44:58.258Z</time></trkpt><trkpt lat="44.8971831" lon="9.5113185"><ele>486.0</ele><time>2026-04-18T14:44:59.258Z</time></trkpt><trkpt lat="44.8971257" lon="9.5113946"><ele>487.66666666666663</ele><time>2026-04-18T14:45:00.259Z</time></trkpt><trkpt lat="44.8970573" lon="9.5114874"><ele>489.3333333333333</ele><time>2026-04-18T14:45:01.259Z</time></trkpt><trkpt lat="44.8969829" lon="9.5115844"><ele>491.0</ele><time>2026-04-18T14:45:02.258Z</time></trkpt><trkpt lat="44.8969081" lon="9.5116672"><ele>491.0</ele><time>2026-04-18T14:45:03.258Z</time></trkpt><trkpt lat="44.8968283" lon="9.5117217"><ele>491.0</ele><time>2026-04-18T14:45:04.259Z</time></trkpt><trkpt lat="44.896655" lon="9.5117638"><ele>491.0</ele><time>2026-04-18T14:45:06.259Z</time></trkpt><trkpt lat="44.8965626" lon="9.5117928"><ele>491.0</ele><time>2026-04-18T14:45:07.258Z</time></trkpt><trkpt lat="44.8964635" lon="9.511828"><ele>491.0</ele><time>2026-04-18T14:45:08.258Z</time></trkpt><trkpt lat="44.8963607" lon="9.511885"><ele>491.0</ele><time>2026-04-18T14:45:09.258Z</time></trkpt><trkpt lat="44.8962627" lon="9.5119794"><ele>491.0</ele><time>2026-04-18T14:45:10.258Z</time></trkpt><trkpt lat="44.8961726" lon="9.5120907"><ele>491.0</ele><time>2026-04-18T14:45:11.258Z</time></trkpt><trkpt lat="44.8960841" lon="9.5121899"><ele>486.66666666666663</ele><time>2026-04-18T14:45:12.258Z</time></trkpt><trkpt lat="44.895893" lon="9.5124259"><ele>482.33333333333337</ele><time>2026-04-18T14:45:14.258Z</time></trkpt><trkpt lat="44.895795" lon="9.5125441"><ele>478.0</ele><time>2026-04-18T14:45:15.258Z</time></trkpt><trkpt lat="44.8956977" lon="9.5126581"><ele>478.0</ele><time>2026-04-18T14:45:16.258Z</time></trkpt><trkpt lat="44.8956077" lon="9.5127648"><ele>478.0</ele><time>2026-04-18T14:45:17.259Z</time></trkpt><trkpt lat="44.8954489" lon="9.5129485"><ele>478.0</ele><time>2026-04-18T14:45:19.258Z</time></trkpt><trkpt lat="44.8953774" lon="9.5130021"><ele>478.0</ele><time>2026-04-18T14:45:20.258Z</time></trkpt><trkpt lat="44.8953116" lon="9.5130191"><ele>477.4</ele><time>2026-04-18T14:45:21.258Z</time></trkpt><trkpt lat="44.8952295" lon="9.5129967"><ele>476.79999999999995</ele><time>2026-04-18T14:45:22.259Z</time></trkpt><trkpt lat="44.8951255" lon="9.5129473"><ele>476.2</ele><time>2026-04-18T14:45:23.258Z</time></trkpt><trkpt lat="44.8950226" lon="9.5128961"><ele>475.6</ele><time>2026-04-18T14:45:24.258Z</time></trkpt><trkpt lat="44.8949261" lon="9.5128436"><ele>475.0</ele><time>2026-04-18T14:45:25.258Z</time></trkpt><trkpt lat="44.8948297" lon="9.5127919"><ele>475.00000000000006</ele><time>2026-04-18T14:45:26.258Z</time></trkpt><trkpt lat="44.8947366" lon="9.5127522"><ele>475.0</ele><time>2026-04-18T14:45:27.258Z</time></trkpt><trkpt lat="44.8946591" lon="9.512709"><ele>475.0</ele><time>2026-04-18T14:45:28.258Z</time></trkpt><trkpt lat="44.8945849" lon="9.5126666"><ele>475.0</ele><time>2026-04-18T14:45:29.258Z</time></trkpt><trkpt lat="44.8944969" lon="9.512637"><ele>475.00000000000006</ele><time>2026-04-18T14:45:30.258Z</time></trkpt><trkpt lat="44.8944144" lon="9.5126305"><ele>475.0</ele><time>2026-04-18T14:45:31.258Z</time></trkpt><trkpt lat="44.8943294" lon="9.5126522"><ele>476.1666666666667</ele><time>2026-04-18T14:45:32.258Z</time></trkpt><trkpt lat="44.8942439" lon="9.5126889"><ele>477.33333333333337</ele><time>2026-04-18T14:45:33.258Z</time></trkpt><trkpt lat="44.8941755" lon="9.512705"><ele>478.5</ele><time>2026-04-18T14:45:34.258Z</time></trkpt><trkpt lat="44.8941108" lon="9.5126999"><ele>479.66666666666663</ele><time>2026-04-18T14:45:35.258Z</time></trkpt><trkpt lat="44.8940415" lon="9.5126666"><ele>480.8333333333333</ele><time>2026-04-18T14:45:36.258Z</time></trkpt><trkpt lat="44.8939621" lon="9.5126075"><ele>482.0</ele><time>2026-04-18T14:45:37.259Z</time></trkpt><trkpt lat="44.8938804" lon="9.5125287"><ele>482.0</ele><time>2026-04-18T14:45:38.258Z</time></trkpt><trkpt lat="44.8937201" lon="9.5123604"><ele>482.0</ele><time>2026-04-18T14:45:40.258Z</time></trkpt><trkpt lat="44.8936401" lon="9.5122715"><ele>482.0</ele><time>2026-04-18T14:45:41.259Z</time></trkpt><trkpt lat="44.8935724" lon="9.512221"><ele>482.0</ele><time>2026-04-18T14:45:42.258Z</time></trkpt><trkpt lat="44.8934966" lon="9.5121942"><ele>482.6</ele><time>2026-04-18T14:45:43.258Z</time></trkpt><trkpt lat="44.8934025" lon="9.5121836"><ele>483.20000000000005</ele><time>2026-04-18T14:45:44.258Z</time></trkpt><trkpt lat="44.8933002" lon="9.5121909"><ele>483.8</ele><time>2026-04-18T14:45:45.258Z</time></trkpt><trkpt lat="44.8931918" lon="9.5122014"><ele>484.4</ele><time>2026-04-18T14:45:46.258Z</time></trkpt><trkpt lat="44.8930878" lon="9.5122068"><ele>485.0</ele><time>2026-04-18T14:45:47.258Z</time></trkpt><trkpt lat="44.8929808" lon="9.5122156"><ele>484.99999999999994</ele><time>2026-04-18T14:45:48.258Z</time></trkpt><trkpt lat="44.8928833" lon="9.5122131"><ele>485.0</ele><time>2026-04-18T14:45:49.258Z</time></trkpt><trkpt lat="44.8927894" lon="9.5122149"><ele>485.0</ele><time>2026-04-18T14:45:50.259Z</time></trkpt><trkpt lat="44.8927052" lon="9.5122405"><ele>485.0</ele><time>2026-04-18T14:45:51.259Z</time></trkpt><trkpt lat="44.8926361" lon="9.5122904"><ele>484.99999999999994</ele><time>2026-04-18T14:45:52.259Z</time></trkpt><trkpt lat="44.8925803" lon="9.5123448"><ele>485.0</ele><time>2026-04-18T14:45:53.258Z</time></trkpt><trkpt lat="44.892521" lon="9.5123934"><ele>484.16666666666663</ele><time>2026-04-18T14:45:54.258Z</time></trkpt><trkpt lat="44.8924579" lon="9.5123965"><ele>483.3333333333333</ele><time>2026-04-18T14:45:55.258Z</time></trkpt><trkpt lat="44.8923899" lon="9.5124124"><ele>482.5</ele><time>2026-04-18T14:45:56.259Z</time></trkpt><trkpt lat="44.8923146" lon="9.512437"><ele>481.66666666666663</ele><time>2026-04-18T14:45:57.259Z</time></trkpt><trkpt lat="44.8922344" lon="9.5124762"><ele>480.8333333333333</ele><time>2026-04-18T14:45:58.258Z</time></trkpt><trkpt lat="44.8921422" lon="9.5125318"><ele>480.0</ele><time>2026-04-18T14:45:59.258Z</time></trkpt><trkpt lat="44.8919903" lon="9.5126341"><ele>480.0</ele><time>2026-04-18T14:46:01.258Z</time></trkpt><trkpt lat="44.8919209" lon="9.5126614"><ele>480.0</ele><time>2026-04-18T14:46:02.258Z</time></trkpt><trkpt lat="44.8918283" lon="9.5126389"><ele>480.0</ele><time>2026-04-18T14:46:03.259Z</time></trkpt><trkpt lat="44.8917364" lon="9.5126086"><ele>480.0</ele><time>2026-04-18T14:46:04.258Z</time></trkpt><trkpt lat="44.8915554" lon="9.5125395"><ele>480.0</ele><time>2026-04-18T14:46:06.258Z</time></trkpt><trkpt lat="44.8914685" lon="9.5125231"><ele>479.0</ele><time>2026-04-18T14:46:07.259Z</time></trkpt><trkpt lat="44.8913853" lon="9.5125072"><ele>478.0</ele><time>2026-04-18T14:46:08.258Z</time></trkpt><trkpt lat="44.8912944" lon="9.5124958"><ele>477.0</ele><time>2026-04-18T14:46:09.259Z</time></trkpt><trkpt lat="44.8912073" lon="9.5124885"><ele>476.0</ele><time>2026-04-18T14:46:10.258Z</time></trkpt><trkpt lat="44.8911317" lon="9.512489"><ele>475.0</ele><time>2026-04-18T14:46:11.258Z</time></trkpt><trkpt lat="44.8910575" lon="9.5124898"><ele>474.0</ele><time>2026-04-18T14:46:12.258Z</time></trkpt><trkpt lat="44.8909911" lon="9.5124841"><ele>475.0</ele><time>2026-04-18T14:46:13.258Z</time></trkpt><trkpt lat="44.890883" lon="9.5124623"><ele>476.0</ele><time>2026-04-18T14:46:15.259Z</time></trkpt><trkpt lat="44.890815" lon="9.5124154"><ele>477.0</ele><time>2026-04-18T14:46:17.258Z</time></trkpt><trkpt lat="44.8907856" lon="9.5122767"><ele>478.0</ele><time>2026-04-18T14:46:19.258Z</time></trkpt><trkpt lat="44.8907918" lon="9.5121659"><ele>479.0</ele><time>2026-04-18T14:46:20.259Z</time></trkpt><trkpt lat="44.8907419" lon="9.511949"><ele>477.0</ele><time>2026-04-18T14:46:22.258Z</time></trkpt><trkpt lat="44.8906835" lon="9.5118449"><ele>475.0</ele><time>2026-04-18T14:46:23.258Z</time></trkpt><trkpt lat="44.8906135" lon="9.5117281"><ele>473.0</ele><time>2026-04-18T14:46:24.258Z</time></trkpt><trkpt lat="44.8905427" lon="9.5116147"><ele>471.0</ele><time>2026-04-18T14:46:25.259Z</time></trkpt><trkpt lat="44.8904812" lon="9.5115117"><ele>469.0</ele><time>2026-04-18T14:46:26.258Z</time></trkpt><trkpt lat="44.8904417" lon="9.5114094"><ele>469.00000000000006</ele><time>2026-04-18T14:46:27.258Z</time></trkpt><trkpt lat="44.8904306" lon="9.5113138"><ele>469.0</ele><time>2026-04-18T14:46:28.259Z</time></trkpt><trkpt lat="44.8904377" lon="9.5112212"><ele>469.0</ele><time>2026-04-18T14:46:29.259Z</time></trkpt><trkpt lat="44.8904669" lon="9.511135"><ele>469.0</ele><time>2026-04-18T14:46:30.258Z</time></trkpt><trkpt lat="44.8905273" lon="9.5110527"><ele>469.00000000000006</ele><time>2026-04-18T14:46:31.258Z</time></trkpt><trkpt lat="44.890617" lon="9.5109807"><ele>469.0</ele><time>2026-04-18T14:46:32.258Z</time></trkpt><trkpt lat="44.8907005" lon="9.51092"><ele>468.83333333333337</ele><time>2026-04-18T14:46:33.258Z</time></trkpt><trkpt lat="44.8907638" lon="9.510854"><ele>468.6666666666667</ele><time>2026-04-18T14:46:34.258Z</time></trkpt><trkpt lat="44.890798" lon="9.5107772"><ele>468.5</ele><time>2026-04-18T14:46:35.258Z</time></trkpt><trkpt lat="44.8908256" lon="9.5106938"><ele>468.33333333333337</ele><time>2026-04-18T14:46:36.258Z</time></trkpt><trkpt lat="44.890827" lon="9.5105884"><ele>468.1666666666667</ele><time>2026-04-18T14:46:37.258Z</time></trkpt><trkpt lat="44.8908249" lon="9.5104533"><ele>468.0</ele><time>2026-04-18T14:46:38.259Z</time></trkpt><trkpt lat="44.8907739" lon="9.5102742"><ele>468.0</ele><time>2026-04-18T14:46:39.259Z</time></trkpt><trkpt lat="44.8907677" lon="9.5101215"><ele>467.99999999999994</ele><time>2026-04-18T14:46:40.258Z</time></trkpt><trkpt lat="44.8907693" lon="9.5099775"><ele>467.99999999999994</ele><time>2026-04-18T14:46:41.259Z</time></trkpt><trkpt lat="44.8907802" lon="9.5098238"><ele>468.0</ele><time>2026-04-18T14:46:42.258Z</time></trkpt><trkpt lat="44.8907976" lon="9.5096622"><ele>468.0</ele><time>2026-04-18T14:46:43.258Z</time></trkpt><trkpt lat="44.8908153" lon="9.5095084"><ele>466.59999999999997</ele><time>2026-04-18T14:46:44.258Z</time></trkpt><trkpt lat="44.8908176" lon="9.5093617"><ele>465.19999999999993</ele><time>2026-04-18T14:46:45.258Z</time></trkpt><trkpt lat="44.8908013" lon="9.5092198"><ele>463.8</ele><time>2026-04-18T14:46:46.258Z</time></trkpt><trkpt lat="44.890772" lon="9.5090837"><ele>462.4</ele><time>2026-04-18T14:46:47.258Z</time></trkpt><trkpt lat="44.890736" lon="9.5089375"><ele>461.0</ele><time>2026-04-18T14:46:48.258Z</time></trkpt><trkpt lat="44.8907012" lon="9.5087827"><ele>460.0</ele><time>2026-04-18T14:46:49.258Z</time></trkpt><trkpt lat="44.8906798" lon="9.5086158"><ele>459.0</ele><time>2026-04-18T14:46:50.258Z</time></trkpt><trkpt lat="44.8906592" lon="9.5084462"><ele>458.0</ele><time>2026-04-18T14:46:51.258Z</time></trkpt><trkpt lat="44.8906395" lon="9.5082776"><ele>457.0</ele><time>2026-04-18T14:46:52.259Z</time></trkpt><trkpt lat="44.8906221" lon="9.5081123"><ele>456.33333333333337</ele><time>2026-04-18T14:46:53.258Z</time></trkpt><trkpt lat="44.8905879" lon="9.5078172"><ele>455.66666666666663</ele><time>2026-04-18T14:46:55.258Z</time></trkpt><trkpt lat="44.8905158" lon="9.5075649"><ele>455.0</ele><time>2026-04-18T14:46:57.258Z</time></trkpt><trkpt lat="44.8904795" lon="9.5074501"><ele>455.0</ele><time>2026-04-18T14:46:58.259Z</time></trkpt><trkpt lat="44.8904647" lon="9.5073366"><ele>455.0</ele><time>2026-04-18T14:46:59.258Z</time></trkpt><trkpt lat="44.890474" lon="9.5072235"><ele>455.0</ele><time>2026-04-18T14:47:00.259Z</time></trkpt><trkpt lat="44.8905068" lon="9.5070665"><ele>455.0</ele><time>2026-04-18T14:47:01.258Z</time></trkpt><trkpt lat="44.8905304" lon="9.5067806"><ele>454.99999999999994</ele><time>2026-04-18T14:47:03.259Z</time></trkpt><trkpt lat="44.8905263" lon="9.5066725"><ele>455.0</ele><time>2026-04-18T14:47:04.258Z</time></trkpt><trkpt lat="44.8905146" lon="9.5065707"><ele>455.0</ele><time>2026-04-18T14:47:06.258Z</time></trkpt><trkpt lat="44.8904499" lon="9.5065239"><ele>455.0</ele><time>2026-04-18T14:51:37.259Z</time></trkpt><trkpt lat="44.8903505" lon="9.5065478"><ele>454.99999999999994</ele><time>2026-04-18T14:51:39.258Z</time></trkpt><trkpt lat="44.8902858" lon="9.5065517"><ele>455.0</ele><time>2026-04-18T14:51:40.258Z</time></trkpt><trkpt lat="44.8902229" lon="9.5065334"><ele>454.99999999999994</ele><time>2026-04-18T14:51:41.259Z</time></trkpt><trkpt lat="44.8901569" lon="9.5064938"><ele>455.0</ele><time>2026-04-18T14:51:42.258Z</time></trkpt><trkpt lat="44.8901017" lon="9.5064392"><ele>455.0</ele><time>2026-04-18T14:51:43.258Z</time></trkpt><trkpt lat="44.8900588" lon="9.5063686"><ele>455.0</ele><time>2026-04-18T14:51:44.258Z</time></trkpt><trkpt lat="44.8900365" lon="9.5062459"><ele>454.99999999999994</ele><time>2026-04-18T14:51:46.259Z</time></trkpt><trkpt lat="44.8900969" lon="9.5061921"><ele>455.0</ele><time>2026-04-18T14:51:48.258Z</time></trkpt><trkpt lat="44.8901938" lon="9.5062219"><ele>454.8</ele><time>2026-04-18T14:51:50.258Z</time></trkpt><trkpt lat="44.8903032" lon="9.5062179"><ele>454.6</ele><time>2026-04-18T14:51:52.258Z</time></trkpt><trkpt lat="44.8903786" lon="9.5061178"><ele>454.4</ele><time>2026-04-18T14:51:54.259Z</time></trkpt><trkpt lat="44.8904279" lon="9.5059596"><ele>454.2</ele><time>2026-04-18T14:51:56.259Z</time></trkpt><trkpt lat="44.890454" lon="9.5058514"><ele>454.0</ele><time>2026-04-18T14:51:57.259Z</time></trkpt><trkpt lat="44.8904801" lon="9.5057558"><ele>454.0</ele><time>2026-04-18T14:51:58.258Z</time></trkpt><trkpt lat="44.8905066" lon="9.5056643"><ele>454.0</ele><time>2026-04-18T14:51:59.259Z</time></trkpt><trkpt lat="44.8905365" lon="9.5055813"><ele>454.0</ele><time>2026-04-18T14:52:00.259Z</time></trkpt><trkpt lat="44.8906018" lon="9.5054446"><ele>454.0</ele><time>2026-04-18T14:52:02.258Z</time></trkpt><trkpt lat="44.8906683" lon="9.5053355"><ele>454.0</ele><time>2026-04-18T14:52:04.258Z</time></trkpt><trkpt lat="44.8907453" lon="9.5052481"><ele>451.4</ele><time>2026-04-18T14:52:06.258Z</time></trkpt><trkpt lat="44.890806" lon="9.5051944"><ele>448.79999999999995</ele><time>2026-04-18T14:52:07.258Z</time></trkpt><trkpt lat="44.8909236" lon="9.505129"><ele>446.20000000000005</ele><time>2026-04-18T14:52:09.259Z</time></trkpt><trkpt lat="44.8910269" lon="9.5050569"><ele>443.6</ele><time>2026-04-18T14:52:11.259Z</time></trkpt><trkpt lat="44.8911239" lon="9.5049991"><ele>441.0</ele><time>2026-04-18T14:52:13.258Z</time></trkpt><trkpt lat="44.8912142" lon="9.5049578"><ele>437.8</ele><time>2026-04-18T14:52:15.258Z</time></trkpt><trkpt lat="44.8913085" lon="9.5049678"><ele>434.6</ele><time>2026-04-18T14:52:17.258Z</time></trkpt><trkpt lat="44.8914211" lon="9.5050884"><ele>431.4</ele><time>2026-04-18T14:52:20.258Z</time></trkpt><trkpt lat="44.8914859" lon="9.505205"><ele>428.2</ele><time>2026-04-18T14:52:22.258Z</time></trkpt><trkpt lat="44.8915262" lon="9.5052785"><ele>425.0</ele><time>2026-04-18T14:52:23.258Z</time></trkpt><trkpt lat="44.8915878" lon="9.5054054"><ele>425.6</ele><time>2026-04-18T14:52:25.258Z</time></trkpt><trkpt lat="44.8916188" lon="9.50553"><ele>426.2</ele><time>2026-04-18T14:52:27.258Z</time></trkpt><trkpt lat="44.8916833" lon="9.5055819"><ele>426.79999999999995</ele><time>2026-04-18T14:52:29.258Z</time></trkpt><trkpt lat="44.8917497" lon="9.5054683"><ele>427.4</ele><time>2026-04-18T14:52:32.258Z</time></trkpt><trkpt lat="44.891824" lon="9.5053336"><ele>428.0</ele><time>2026-04-18T14:52:34.258Z</time></trkpt><trkpt lat="44.8918694" lon="9.5052703"><ele>423.0</ele><time>2026-04-18T14:52:35.259Z</time></trkpt><trkpt lat="44.8919107" lon="9.5052027"><ele>417.99999999999994</ele><time>2026-04-18T14:52:36.258Z</time></trkpt><trkpt lat="44.8919647" lon="9.5050588"><ele>413.0</ele><time>2026-04-18T14:52:38.258Z</time></trkpt><trkpt lat="44.8920319" lon="9.5049435"><ele>408.0</ele><time>2026-04-18T14:52:40.258Z</time></trkpt><trkpt lat="44.8921437" lon="9.5048173"><ele>403.0</ele><time>2026-04-18T14:52:43.258Z</time></trkpt><trkpt lat="44.8922001" lon="9.5047335"><ele>403.0</ele><time>2026-04-18T14:52:45.258Z</time></trkpt><trkpt lat="44.8922534" lon="9.5046338"><ele>403.0</ele><time>2026-04-18T14:52:47.258Z</time></trkpt><trkpt lat="44.892304" lon="9.5045253"><ele>403.0</ele><time>2026-04-18T14:52:49.258Z</time></trkpt><trkpt lat="44.8923559" lon="9.5044075"><ele>403.0</ele><time>2026-04-18T14:52:51.259Z</time></trkpt><trkpt lat="44.8923973" lon="9.5042789"><ele>403.0</ele><time>2026-04-18T14:52:53.259Z</time></trkpt><trkpt lat="44.8924447" lon="9.5041546"><ele>402.00000000000006</ele><time>2026-04-18T14:52:55.259Z</time></trkpt><trkpt lat="44.8924906" lon="9.5040249"><ele>401.0</ele><time>2026-04-18T14:52:57.258Z</time></trkpt><trkpt lat="44.8925425" lon="9.5039028"><ele>400.0</ele><time>2026-04-18T14:52:59.258Z</time></trkpt><trkpt lat="44.8926071" lon="9.5038151"><ele>399.0</ele><time>2026-04-18T14:53:01.259Z</time></trkpt><trkpt lat="44.8926784" lon="9.5037548"><ele>398.00000000000006</ele><time>2026-04-18T14:53:03.258Z</time></trkpt><trkpt lat="44.8927311" lon="9.5036878"><ele>397.0</ele><time>2026-04-18T14:53:05.258Z</time></trkpt><trkpt lat="44.8927804" lon="9.5035904"><ele>390.5</ele><time>2026-04-18T14:53:31.258Z</time></trkpt><trkpt lat="44.8928542" lon="9.5034575"><ele>384.0</ele><time>2026-04-18T14:53:33.258Z</time></trkpt><trkpt lat="44.8928916" lon="9.5033655"><ele>377.5</ele><time>2026-04-18T14:53:34.258Z</time></trkpt><trkpt lat="44.8929682" lon="9.5031393"><ele>371.0</ele><time>2026-04-18T14:53:36.258Z</time></trkpt><trkpt lat="44.8930214" lon="9.5030211"><ele>369.75</ele><time>2026-04-18T14:53:37.258Z</time></trkpt><trkpt lat="44.8931464" lon="9.5028008"><ele>368.5</ele><time>2026-04-18T14:53:39.258Z</time></trkpt><trkpt lat="44.8931968" lon="9.5026925"><ele>367.25</ele><time>2026-04-18T14:53:40.259Z</time></trkpt><trkpt lat="44.8932369" lon="9.50258"><ele>366.0</ele><time>2026-04-18T14:53:41.258Z</time></trkpt><trkpt lat="44.893268" lon="9.5024661"><ele>366.0</ele><time>2026-04-18T14:53:42.258Z</time></trkpt><trkpt lat="44.8933107" lon="9.5022415"><ele>366.0</ele><time>2026-04-18T14:53:44.258Z</time></trkpt><trkpt lat="44.8933319" lon="9.502129"><ele>366.0</ele><time>2026-04-18T14:53:45.258Z</time></trkpt><trkpt lat="44.8933562" lon="9.5020085"><ele>366.0</ele><time>2026-04-18T14:53:46.259Z</time></trkpt><trkpt lat="44.893394" lon="9.5018852"><ele>366.0</ele><time>2026-04-18T14:53:47.258Z</time></trkpt><trkpt lat="44.8934287" lon="9.501774"><ele>362.3333333333333</ele><time>2026-04-18T14:53:48.258Z</time></trkpt><trkpt lat="44.8934477" lon="9.5016669"><ele>358.6666666666667</ele><time>2026-04-18T14:53:49.258Z</time></trkpt><trkpt lat="44.8934541" lon="9.5015735"><ele>355.0</ele><time>2026-04-18T14:53:50.258Z</time></trkpt><trkpt lat="44.8934396" lon="9.5014864"><ele>351.33333333333337</ele><time>2026-04-18T14:53:51.258Z</time></trkpt><trkpt lat="44.8934377" lon="9.5013119"><ele>347.6666666666667</ele><time>2026-04-18T14:53:53.258Z</time></trkpt><trkpt lat="44.8934697" lon="9.5012007"><ele>344.0</ele><time>2026-04-18T14:53:54.259Z</time></trkpt><trkpt lat="44.8935041" lon="9.5010719"><ele>342.4</ele><time>2026-04-18T14:53:55.258Z</time></trkpt><trkpt lat="44.8935313" lon="9.5009342"><ele>340.79999999999995</ele><time>2026-04-18T14:53:56.259Z</time></trkpt><trkpt lat="44.8935215" lon="9.5007807"><ele>339.20000000000005</ele><time>2026-04-18T14:53:57.259Z</time></trkpt><trkpt lat="44.893511" lon="9.5006414"><ele>337.6</ele><time>2026-04-18T14:53:58.259Z</time></trkpt><trkpt lat="44.8935072" lon="9.5005094"><ele>336.0</ele><time>2026-04-18T14:53:59.259Z</time></trkpt><trkpt lat="44.8935041" lon="9.5003836"><ele>334.8</ele><time>2026-04-18T14:54:00.258Z</time></trkpt><trkpt lat="44.8935109" lon="9.5002581"><ele>333.6</ele><time>2026-04-18T14:54:01.259Z</time></trkpt><trkpt lat="44.8935279" lon="9.5001315"><ele>332.4</ele><time>2026-04-18T14:54:02.258Z</time></trkpt><trkpt lat="44.8935534" lon="9.5000025"><ele>331.2</ele><time>2026-04-18T14:54:03.258Z</time></trkpt><trkpt lat="44.8935807" lon="9.4998777"><ele>330.0</ele><time>2026-04-18T14:54:04.258Z</time></trkpt><trkpt lat="44.893611" lon="9.4997573"><ele>330.0</ele><time>2026-04-18T14:54:05.258Z</time></trkpt><trkpt lat="44.8936425" lon="9.4996416"><ele>330.0</ele><time>2026-04-18T14:54:06.258Z</time></trkpt><trkpt lat="44.8938421" lon="9.498976"><ele>327.25</ele><time>2026-04-18T14:54:12.258Z</time></trkpt><trkpt lat="44.8939146" lon="9.498742"><ele>324.5</ele><time>2026-04-18T14:54:14.258Z</time></trkpt><trkpt lat="44.8939535" lon="9.4986275"><ele>321.75</ele><time>2026-04-18T14:54:15.258Z</time></trkpt><trkpt lat="44.8939806" lon="9.4985013"><ele>319.0</ele><time>2026-04-18T14:54:16.258Z</time></trkpt><trkpt lat="44.8940016" lon="9.4983753"><ele>319.0</ele><time>2026-04-18T14:54:17.258Z</time></trkpt><trkpt lat="44.8940371" lon="9.4982633"><ele>319.0</ele><time>2026-04-18T14:54:18.258Z</time></trkpt><trkpt lat="44.8940776" lon="9.4981632"><ele>319.0</ele><time>2026-04-18T14:54:19.258Z</time></trkpt><trkpt lat="44.8941134" lon="9.4980639"><ele>319.0</ele><time>2026-04-18T14:54:20.258Z</time></trkpt><trkpt lat="44.8941865" lon="9.4978501"><ele>319.0</ele><time>2026-04-18T14:54:22.258Z</time></trkpt><trkpt lat="44.8942173" lon="9.4977523"><ele>318.59999999999997</ele><time>2026-04-18T14:54:23.258Z</time></trkpt><trkpt lat="44.8942347" lon="9.4976093"><ele>318.2</ele><time>2026-04-18T14:54:25.258Z</time></trkpt><trkpt lat="44.8941904" lon="9.497504"><ele>317.79999999999995</ele><time>2026-04-18T14:56:37.258Z</time></trkpt><trkpt lat="44.8941046" lon="9.4973834"><ele>317.4</ele><time>2026-04-18T14:56:39.258Z</time></trkpt><trkpt lat="44.8940436" lon="9.4973131"><ele>317.0</ele><time>2026-04-18T14:56:40.259Z</time></trkpt><trkpt lat="44.8939746" lon="9.4972411"><ele>317.0</ele><time>2026-04-18T14:56:41.258Z</time></trkpt><trkpt lat="44.8939053" lon="9.4971686"><ele>317.0</ele><time>2026-04-18T14:56:42.259Z</time></trkpt><trkpt lat="44.8938566" lon="9.497084"><ele>317.0</ele><time>2026-04-18T14:56:43.258Z</time></trkpt><trkpt lat="44.8938241" lon="9.4969712"><ele>317.0</ele><time>2026-04-18T14:56:44.259Z</time></trkpt><trkpt lat="44.8938178" lon="9.4968472"><ele>317.0</ele><time>2026-04-18T14:56:45.258Z</time></trkpt><trkpt lat="44.8938364" lon="9.4967134"><ele>317.0</ele><time>2026-04-18T14:56:46.258Z</time></trkpt><trkpt lat="44.8938665" lon="9.4965759"><ele>316.25</ele><time>2026-04-18T14:56:47.258Z</time></trkpt><trkpt lat="44.8939082" lon="9.4964265"><ele>315.5</ele><time>2026-04-18T14:56:48.258Z</time></trkpt><trkpt lat="44.8939515" lon="9.4962692"><ele>314.75</ele><time>2026-04-18T14:56:49.258Z</time></trkpt><trkpt lat="44.8939876" lon="9.4961027"><ele>314.0</ele><time>2026-04-18T14:56:50.258Z</time></trkpt><trkpt lat="44.8940238" lon="9.4959477"><ele>312.75</ele><time>2026-04-18T14:56:51.258Z</time></trkpt><trkpt lat="44.8940541" lon="9.4957832"><ele>311.5</ele><time>2026-04-18T14:56:52.259Z</time></trkpt><trkpt lat="44.8940764" lon="9.4956149"><ele>310.25</ele><time>2026-04-18T14:56:53.258Z</time></trkpt><trkpt lat="44.8940899" lon="9.495456"><ele>309.0</ele><time>2026-04-18T14:56:54.258Z</time></trkpt><trkpt lat="44.8940873" lon="9.4952953"><ele>308.0</ele><time>2026-04-18T14:56:55.258Z</time></trkpt><trkpt lat="44.8940662" lon="9.4951487"><ele>307.0</ele><time>2026-04-18T14:56:56.259Z</time></trkpt><trkpt lat="44.8940358" lon="9.4950084"><ele>306.0</ele><time>2026-04-18T14:56:57.258Z</time></trkpt><trkpt lat="44.8940002" lon="9.4948696"><ele>305.0</ele><time>2026-04-18T14:56:58.259Z</time></trkpt><trkpt lat="44.8939587" lon="9.4947287"><ele>304.0</ele><time>2026-04-18T14:56:59.258Z</time></trkpt><trkpt lat="44.8939073" lon="9.4945906"><ele>302.75</ele><time>2026-04-18T14:57:00.259Z</time></trkpt><trkpt lat="44.8938534" lon="9.4944643"><ele>301.5</ele><time>2026-04-18T14:57:01.259Z</time></trkpt><trkpt lat="44.8937431" lon="9.4942195"><ele>300.25</ele><time>2026-04-18T14:57:03.259Z</time></trkpt><trkpt lat="44.8936964" lon="9.4941046"><ele>299.0</ele><time>2026-04-18T14:57:04.258Z</time></trkpt><trkpt lat="44.8936659" lon="9.4939888"><ele>299.0</ele><time>2026-04-18T14:57:05.259Z</time></trkpt><trkpt lat="44.8936532" lon="9.4938822"><ele>299.0</ele><time>2026-04-18T14:57:06.258Z</time></trkpt><trkpt lat="44.8936634" lon="9.4937807"><ele>299.0</ele><time>2026-04-18T14:57:07.258Z</time></trkpt><trkpt lat="44.8937018" lon="9.4936994"><ele>299.0</ele><time>2026-04-18T14:57:08.258Z</time></trkpt><trkpt lat="44.8937608" lon="9.4936504"><ele>299.0</ele><time>2026-04-18T14:57:09.258Z</time></trkpt><trkpt lat="44.8938242" lon="9.4936315"><ele>299.0</ele><time>2026-04-18T14:57:11.258Z</time></trkpt><trkpt lat="44.8939073" lon="9.4936436"><ele>299.0</ele><time>2026-04-18T14:57:13.258Z</time></trkpt><trkpt lat="44.8940491" lon="9.4936422"><ele>302.25</ele><time>2026-04-18T14:57:15.259Z</time></trkpt><trkpt lat="44.8941281" lon="9.4936335"><ele>305.5</ele><time>2026-04-18T14:57:16.258Z</time></trkpt><trkpt lat="44.8943022" lon="9.4936167"><ele>308.75</ele><time>2026-04-18T14:57:18.258Z</time></trkpt><trkpt lat="44.8943841" lon="9.4936266"><ele>312.0</ele><time>2026-04-18T14:57:19.258Z</time></trkpt><trkpt lat="44.8945456" lon="9.4936842"><ele>313.0</ele><time>2026-04-18T14:57:21.258Z</time></trkpt><trkpt lat="44.8946981" lon="9.4937182"><ele>314.0</ele><time>2026-04-18T14:57:23.258Z</time></trkpt><trkpt lat="44.8947818" lon="9.4937343"><ele>315.0</ele><time>2026-04-18T14:57:24.258Z</time></trkpt><trkpt lat="44.8948663" lon="9.4937417"><ele>316.0</ele><time>2026-04-18T14:57:25.259Z</time></trkpt><trkpt lat="44.8949451" lon="9.4937496"><ele>317.0</ele><time>2026-04-18T14:57:26.258Z</time></trkpt><trkpt lat="44.8950232" lon="9.4937552"><ele>317.0</ele><time>2026-04-18T14:57:27.258Z</time></trkpt><trkpt lat="44.8950976" lon="9.4937574"><ele>317.0</ele><time>2026-04-18T14:57:28.258Z</time></trkpt><trkpt lat="44.8952335" lon="9.4937444"><ele>317.0</ele><time>2026-04-18T14:57:30.258Z</time></trkpt><trkpt lat="44.8953145" lon="9.4937349"><ele>317.0</ele><time>2026-04-18T14:57:31.258Z</time></trkpt><trkpt lat="44.8954068" lon="9.4937277"><ele>317.0</ele><time>2026-04-18T14:57:32.259Z</time></trkpt><trkpt lat="44.8955043" lon="9.493727"><ele>317.0</ele><time>2026-04-18T14:57:33.258Z</time></trkpt><trkpt lat="44.8956108" lon="9.4937324"><ele>317.0</ele><time>2026-04-18T14:57:34.259Z</time></trkpt><trkpt lat="44.8957312" lon="9.4937444"><ele>317.0</ele><time>2026-04-18T14:57:35.259Z</time></trkpt><trkpt lat="44.8958708" lon="9.4937605"><ele>317.0</ele><time>2026-04-18T14:57:36.258Z</time></trkpt><trkpt lat="44.8960147" lon="9.493766"><ele>314.75</ele><time>2026-04-18T14:57:37.258Z</time></trkpt><trkpt lat="44.8961585" lon="9.4937542"><ele>312.5</ele><time>2026-04-18T14:57:38.259Z</time></trkpt><trkpt lat="44.8963082" lon="9.4937284"><ele>310.25</ele><time>2026-04-18T14:57:39.258Z</time></trkpt><trkpt lat="44.8964556" lon="9.4937036"><ele>308.0</ele><time>2026-04-18T14:57:40.258Z</time></trkpt><trkpt lat="44.8966081" lon="9.493688"><ele>305.0</ele><time>2026-04-18T14:57:41.259Z</time></trkpt><trkpt lat="44.8967594" lon="9.4936999"><ele>302.0</ele><time>2026-04-18T14:57:42.259Z</time></trkpt><trkpt lat="44.8971557" lon="9.4937268"><ele>302.0</ele><time>2026-04-18T14:57:45.258Z</time></trkpt><trkpt lat="44.897286" lon="9.4936859"><ele>302.0</ele><time>2026-04-18T14:57:46.258Z</time></trkpt><trkpt lat="44.8974222" lon="9.4936428"><ele>302.0</ele><time>2026-04-18T14:57:47.259Z</time></trkpt><trkpt lat="44.8975548" lon="9.4936055"><ele>302.0</ele><time>2026-04-18T14:57:48.258Z</time></trkpt><trkpt lat="44.897939" lon="9.4934761"><ele>300.0</ele><time>2026-04-18T14:57:51.258Z</time></trkpt><trkpt lat="44.8980673" lon="9.493439"><ele>298.0</ele><time>2026-04-18T14:57:52.259Z</time></trkpt><trkpt lat="44.8981948" lon="9.4934024"><ele>296.0</ele><time>2026-04-18T14:57:53.258Z</time></trkpt><trkpt lat="44.8983235" lon="9.4933624"><ele>294.0</ele><time>2026-04-18T14:57:54.258Z</time></trkpt><trkpt lat="44.8987997" lon="9.4931436"><ele>293.0</ele><time>2026-04-18T14:57:58.258Z</time></trkpt><trkpt lat="44.8989049" lon="9.4930631"><ele>292.0</ele><time>2026-04-18T14:57:59.258Z</time></trkpt><trkpt lat="44.8990047" lon="9.4929696"><ele>291.0</ele><time>2026-04-18T14:58:00.258Z</time></trkpt><trkpt lat="44.8991893" lon="9.4927359"><ele>290.5</ele><time>2026-04-18T14:58:02.259Z</time></trkpt><trkpt lat="44.8992796" lon="9.4926139"><ele>290.0</ele><time>2026-04-18T14:58:03.258Z</time></trkpt><trkpt lat="44.8993702" lon="9.4924825"><ele>289.5</ele><time>2026-04-18T14:58:04.258Z</time></trkpt><trkpt lat="44.8994608" lon="9.4923643"><ele>289.0</ele><time>2026-04-18T14:58:05.259Z</time></trkpt><trkpt lat="44.8995492" lon="9.4922571"><ele>289.0</ele><time>2026-04-18T14:58:06.259Z</time></trkpt><trkpt lat="44.8996279" lon="9.4921456"><ele>289.0</ele><time>2026-04-18T14:58:07.258Z</time></trkpt><trkpt lat="44.8996882" lon="9.4920312"><ele>289.0</ele><time>2026-04-18T14:58:08.259Z</time></trkpt><trkpt lat="44.8997344" lon="9.4918979"><ele>289.0</ele><time>2026-04-18T14:58:09.258Z</time></trkpt><trkpt lat="44.8997767" lon="9.4917499"><ele>289.0</ele><time>2026-04-18T14:58:10.259Z</time></trkpt><trkpt lat="44.8998217" lon="9.4915993"><ele>288.75</ele><time>2026-04-18T14:58:11.258Z</time></trkpt><trkpt lat="44.8998778" lon="9.4914674"><ele>288.5</ele><time>2026-04-18T14:58:12.259Z</time></trkpt><trkpt lat="44.9000414" lon="9.4913148"><ele>288.25</ele><time>2026-04-18T14:58:14.258Z</time></trkpt><trkpt lat="44.9001483" lon="9.4912885"><ele>288.0</ele><time>2026-04-18T14:58:16.259Z</time></trkpt><trkpt lat="44.9002134" lon="9.4912514"><ele>290.8</ele><time>2026-04-18T14:58:18.258Z</time></trkpt><trkpt lat="44.9001693" lon="9.4911647"><ele>293.6</ele><time>2026-04-18T14:58:21.258Z</time></trkpt><trkpt lat="44.9000237" lon="9.4911427"><ele>296.4</ele><time>2026-04-18T14:58:23.258Z</time></trkpt><trkpt lat="44.8999214" lon="9.4911436"><ele>299.2</ele><time>2026-04-18T14:58:24.258Z</time></trkpt><trkpt lat="44.8998122" lon="9.4911766"><ele>302.0</ele><time>2026-04-18T14:58:25.259Z</time></trkpt><trkpt lat="44.8996243" lon="9.491367"><ele>302.0</ele><time>2026-04-18T14:58:27.258Z</time></trkpt><trkpt lat="44.8995357" lon="9.4914912"><ele>302.0</ele><time>2026-04-18T14:58:28.258Z</time></trkpt><trkpt lat="44.8994606" lon="9.4915987"><ele>302.0</ele><time>2026-04-18T14:58:29.259Z</time></trkpt><trkpt lat="44.8993955" lon="9.4916922"><ele>302.0</ele><time>2026-04-18T14:58:30.258Z</time></trkpt><trkpt lat="44.8993268" lon="9.4917557"><ele>302.0</ele><time>2026-04-18T14:58:31.259Z</time></trkpt><trkpt lat="44.8992475" lon="9.4917795"><ele>304.2</ele><time>2026-04-18T14:58:32.258Z</time></trkpt><trkpt lat="44.8991712" lon="9.4917683"><ele>306.4</ele><time>2026-04-18T14:58:33.259Z</time></trkpt><trkpt lat="44.8990878" lon="9.491715"><ele>308.6</ele><time>2026-04-18T14:58:34.259Z</time></trkpt><trkpt lat="44.8990028" lon="9.4916447"><ele>310.8</ele><time>2026-04-18T14:58:35.258Z</time></trkpt><trkpt lat="44.8989057" lon="9.4915908"><ele>313.0</ele><time>2026-04-18T14:58:36.258Z</time></trkpt><trkpt lat="44.8987954" lon="9.4915676"><ele>313.0</ele><time>2026-04-18T14:58:37.258Z</time></trkpt><trkpt lat="44.8986736" lon="9.4915511"><ele>313.0</ele><time>2026-04-18T14:58:38.258Z</time></trkpt><trkpt lat="44.8985617" lon="9.4915397"><ele>313.0</ele><time>2026-04-18T14:58:39.258Z</time></trkpt><trkpt lat="44.898454" lon="9.4915266"><ele>313.0</ele><time>2026-04-18T14:58:40.258Z</time></trkpt><trkpt lat="44.8983408" lon="9.4915297"><ele>316.0</ele><time>2026-04-18T14:58:41.259Z</time></trkpt><trkpt lat="44.8982311" lon="9.4915543"><ele>319.0</ele><time>2026-04-18T14:58:42.259Z</time></trkpt><trkpt lat="44.8981246" lon="9.4916088"><ele>322.0</ele><time>2026-04-18T14:58:43.258Z</time></trkpt><trkpt lat="44.8980238" lon="9.4916894"><ele>325.0</ele><time>2026-04-18T14:58:44.258Z</time></trkpt><trkpt lat="44.8979452" lon="9.4918068"><ele>325.0</ele><time>2026-04-18T14:58:45.258Z</time></trkpt><trkpt lat="44.8978777" lon="9.4919414"><ele>325.0</ele><time>2026-04-18T14:58:46.258Z</time></trkpt><trkpt lat="44.8978258" lon="9.4920906"><ele>325.0</ele><time>2026-04-18T14:58:47.258Z</time></trkpt><trkpt lat="44.8977751" lon="9.4922283"><ele>325.0</ele><time>2026-04-18T14:58:48.258Z</time></trkpt><trkpt lat="44.8977222" lon="9.4923334"><ele>325.0</ele><time>2026-04-18T14:58:49.258Z</time></trkpt><trkpt lat="44.8976316" lon="9.4923987"><ele>326.2</ele><time>2026-04-18T14:58:50.259Z</time></trkpt><trkpt lat="44.8975292" lon="9.4924289"><ele>327.4</ele><time>2026-04-18T14:58:51.258Z</time></trkpt><trkpt lat="44.8974143" lon="9.4924527"><ele>328.6</ele><time>2026-04-18T14:58:52.258Z</time></trkpt><trkpt lat="44.8973093" lon="9.4924595"><ele>329.8</ele><time>2026-04-18T14:58:53.258Z</time></trkpt><trkpt lat="44.8972007" lon="9.4924543"><ele>331.0</ele><time>2026-04-18T14:58:54.258Z</time></trkpt><trkpt lat="44.8970939" lon="9.4924306"><ele>331.0</ele><time>2026-04-18T14:58:55.258Z</time></trkpt><trkpt lat="44.8969926" lon="9.4923998"><ele>331.0</ele><time>2026-04-18T14:58:56.258Z</time></trkpt><trkpt lat="44.8968894" lon="9.4923864"><ele>331.0</ele><time>2026-04-18T14:58:57.258Z</time></trkpt><trkpt lat="44.8966807" lon="9.4924904"><ele>331.0</ele><time>2026-04-18T14:58:59.258Z</time></trkpt><trkpt lat="44.8965887" lon="9.4925604"><ele>333.16666666666663</ele><time>2026-04-18T14:59:00.258Z</time></trkpt><trkpt lat="44.8965141" lon="9.4926091"><ele>335.3333333333333</ele><time>2026-04-18T14:59:01.258Z</time></trkpt><trkpt lat="44.8964419" lon="9.4926341"><ele>337.5</ele><time>2026-04-18T14:59:02.259Z</time></trkpt><trkpt lat="44.8963237" lon="9.4926508"><ele>339.6666666666667</ele><time>2026-04-18T14:59:04.258Z</time></trkpt><trkpt lat="44.8962553" lon="9.4926468"><ele>341.83333333333337</ele><time>2026-04-18T14:59:05.258Z</time></trkpt><trkpt lat="44.8961851" lon="9.4926429"><ele>344.0</ele><time>2026-04-18T14:59:06.258Z</time></trkpt><trkpt lat="44.8961118" lon="9.4926378"><ele>344.0</ele><time>2026-04-18T14:59:07.258Z</time></trkpt><trkpt lat="44.896039" lon="9.4926347"><ele>344.0</ele><time>2026-04-18T14:59:08.258Z</time></trkpt><trkpt lat="44.8959643" lon="9.492624"><ele>344.0</ele><time>2026-04-18T14:59:09.258Z</time></trkpt><trkpt lat="44.8958868" lon="9.4926191"><ele>344.0</ele><time>2026-04-18T14:59:10.259Z</time></trkpt><trkpt lat="44.8958098" lon="9.4926086"><ele>344.0</ele><time>2026-04-18T14:59:11.259Z</time></trkpt><trkpt lat="44.895737" lon="9.4926014"><ele>344.0</ele><time>2026-04-18T14:59:12.258Z</time></trkpt><trkpt lat="44.8956589" lon="9.4925988"><ele>346.0</ele><time>2026-04-18T14:59:13.259Z</time></trkpt><trkpt lat="44.8955724" lon="9.4925957"><ele>348.0</ele><time>2026-04-18T14:59:14.259Z</time></trkpt><trkpt lat="44.8954751" lon="9.4926042"><ele>350.0</ele><time>2026-04-18T14:59:15.258Z</time></trkpt><trkpt lat="44.8953675" lon="9.4926273"><ele>352.0</ele><time>2026-04-18T14:59:16.258Z</time></trkpt><trkpt lat="44.8952445" lon="9.4926659"><ele>354.0</ele><time>2026-04-18T14:59:17.259Z</time></trkpt><trkpt lat="44.8951143" lon="9.4926936"><ele>357.0</ele><time>2026-04-18T14:59:18.258Z</time></trkpt><trkpt lat="44.8949867" lon="9.4927176"><ele>360.0</ele><time>2026-04-18T14:59:19.258Z</time></trkpt><trkpt lat="44.8947469" lon="9.4927805"><ele>363.0</ele><time>2026-04-18T14:59:21.258Z</time></trkpt><trkpt lat="44.8946367" lon="9.4927824"><ele>363.0</ele><time>2026-04-18T14:59:22.258Z</time></trkpt><trkpt lat="44.8945361" lon="9.4927575"><ele>363.0</ele><time>2026-04-18T14:59:23.259Z</time></trkpt><trkpt lat="44.8944424" lon="9.4926936"><ele>363.0</ele><time>2026-04-18T14:59:24.258Z</time></trkpt><trkpt lat="44.8943596" lon="9.4926017"><ele>363.0</ele><time>2026-04-18T14:59:25.258Z</time></trkpt><trkpt lat="44.8942898" lon="9.4925109"><ele>363.0</ele><time>2026-04-18T14:59:26.258Z</time></trkpt><trkpt lat="44.894246" lon="9.4924115"><ele>363.0</ele><time>2026-04-18T14:59:27.258Z</time></trkpt><trkpt lat="44.8942353" lon="9.4922933"><ele>363.0</ele><time>2026-04-18T14:59:28.259Z</time></trkpt><trkpt lat="44.8942611" lon="9.4921606"><ele>363.0</ele><time>2026-04-18T14:59:29.259Z</time></trkpt><trkpt lat="44.8943086" lon="9.49204"><ele>363.0</ele><time>2026-04-18T14:59:30.258Z</time></trkpt><trkpt lat="44.8943335" lon="9.4919201"><ele>363.0</ele><time>2026-04-18T14:59:31.258Z</time></trkpt><trkpt lat="44.8943621" lon="9.4918035"><ele>361.2</ele><time>2026-04-18T14:59:32.258Z</time></trkpt><trkpt lat="44.8942614" lon="9.4916471"><ele>359.4</ele><time>2026-04-18T14:59:33.258Z</time></trkpt><trkpt lat="44.8941977" lon="9.4915286"><ele>357.59999999999997</ele><time>2026-04-18T14:59:34.258Z</time></trkpt><trkpt lat="44.8941559" lon="9.4914191"><ele>355.79999999999995</ele><time>2026-04-18T14:59:35.259Z</time></trkpt><trkpt lat="44.8941491" lon="9.4912895"><ele>354.0</ele><time>2026-04-18T14:59:36.258Z</time></trkpt><trkpt lat="44.8942424" lon="9.4906547"><ele>358.5</ele><time>2026-04-18T14:59:40.258Z</time></trkpt><trkpt lat="44.8942777" lon="9.4904771"><ele>363.0</ele><time>2026-04-18T14:59:41.258Z</time></trkpt><trkpt lat="44.8943163" lon="9.4903036"><ele>367.5</ele><time>2026-04-18T14:59:42.258Z</time></trkpt><trkpt lat="44.8943721" lon="9.4901376"><ele>372.0</ele><time>2026-04-18T14:59:43.258Z</time></trkpt><trkpt lat="44.8943908" lon="9.4899592"><ele>372.0</ele><time>2026-04-18T14:59:44.258Z</time></trkpt><trkpt lat="44.894401" lon="9.4897777"><ele>372.0</ele><time>2026-04-18T14:59:45.259Z</time></trkpt><trkpt lat="44.8943941" lon="9.4895975"><ele>372.0</ele><time>2026-04-18T14:59:46.259Z</time></trkpt><trkpt lat="44.8943767" lon="9.4894176"><ele>372.0</ele><time>2026-04-18T14:59:47.258Z</time></trkpt><trkpt lat="44.8943013" lon="9.4890637"><ele>367.0</ele><time>2026-04-18T14:59:49.258Z</time></trkpt><trkpt lat="44.8942481" lon="9.4888911"><ele>362.0</ele><time>2026-04-18T14:59:50.258Z</time></trkpt><trkpt lat="44.8941806" lon="9.4887268"><ele>357.0</ele><time>2026-04-18T14:59:51.258Z</time></trkpt><trkpt lat="44.8940584" lon="9.488426"><ele>357.0</ele><time>2026-04-18T14:59:53.259Z</time></trkpt><trkpt lat="44.8940258" lon="9.4882871"><ele>357.0</ele><time>2026-04-18T14:59:54.258Z</time></trkpt><trkpt lat="44.89401" lon="9.4881318"><ele>357.0</ele><time>2026-04-18T14:59:55.258Z</time></trkpt><trkpt lat="44.8940129" lon="9.4879799"><ele>357.0</ele><time>2026-04-18T14:59:56.258Z</time></trkpt><trkpt lat="44.8940256" lon="9.4878347"><ele>357.0</ele><time>2026-04-18T14:59:57.258Z</time></trkpt><trkpt lat="44.8940292" lon="9.487712"><ele>357.6666666666667</ele><time>2026-04-18T14:59:58.258Z</time></trkpt><trkpt lat="44.8939995" lon="9.4876037"><ele>358.3333333333333</ele><time>2026-04-18T14:59:59.258Z</time></trkpt><trkpt lat="44.8939376" lon="9.4875262"><ele>359.0</ele><time>2026-04-18T15:00:00.259Z</time></trkpt><trkpt lat="44.8938576" lon="9.4875085"><ele>359.66666666666663</ele><time>2026-04-18T15:00:01.259Z</time></trkpt><trkpt lat="44.8937726" lon="9.4875498"><ele>360.3333333333333</ele><time>2026-04-18T15:00:02.258Z</time></trkpt><trkpt lat="44.8936746" lon="9.4876298"><ele>361.0</ele><time>2026-04-18T15:00:03.258Z</time></trkpt><trkpt lat="44.8935762" lon="9.4877074"><ele>361.0</ele><time>2026-04-18T15:00:04.258Z</time></trkpt><trkpt lat="44.8934906" lon="9.4878121"><ele>361.0</ele><time>2026-04-18T15:00:05.258Z</time></trkpt><trkpt lat="44.8934043" lon="9.4879162"><ele>361.0</ele><time>2026-04-18T15:00:06.258Z</time></trkpt><trkpt lat="44.8933594" lon="9.4880725"><ele>361.0</ele><time>2026-04-18T15:00:07.258Z</time></trkpt><trkpt lat="44.893299" lon="9.4881833"><ele>361.0</ele><time>2026-04-18T15:00:08.259Z</time></trkpt><trkpt lat="44.8932095" lon="9.4882026"><ele>359.5</ele><time>2026-04-18T15:00:09.258Z</time></trkpt><trkpt lat="44.8931235" lon="9.4882565"><ele>358.0</ele><time>2026-04-18T15:00:10.258Z</time></trkpt><trkpt lat="44.8930379" lon="9.4883248"><ele>356.5</ele><time>2026-04-18T15:00:11.258Z</time></trkpt><trkpt lat="44.8929666" lon="9.4884104"><ele>355.0</ele><time>2026-04-18T15:00:12.258Z</time></trkpt><trkpt lat="44.8929022" lon="9.488493"><ele>353.5</ele><time>2026-04-18T15:00:13.258Z</time></trkpt><trkpt lat="44.8928344" lon="9.4885362"><ele>352.0</ele><time>2026-04-18T15:00:14.259Z</time></trkpt><trkpt lat="44.8927696" lon="9.4885402"><ele>352.0</ele><time>2026-04-18T15:00:15.259Z</time></trkpt><trkpt lat="44.8926248" lon="9.48839"><ele>352.0</ele><time>2026-04-18T15:00:17.258Z</time></trkpt><trkpt lat="44.8925453" lon="9.4882804"><ele>352.0</ele><time>2026-04-18T15:00:18.258Z</time></trkpt><trkpt lat="44.8924659" lon="9.4881527"><ele>352.0</ele><time>2026-04-18T15:00:19.258Z</time></trkpt><trkpt lat="44.8924001" lon="9.4880217"><ele>354.5</ele><time>2026-04-18T15:00:20.258Z</time></trkpt><trkpt lat="44.8923291" lon="9.4878975"><ele>357.0</ele><time>2026-04-18T15:00:21.259Z</time></trkpt><trkpt lat="44.8922595" lon="9.4878186"><ele>359.5</ele><time>2026-04-18T15:00:22.258Z</time></trkpt><trkpt lat="44.8921858" lon="9.487781"><ele>362.0</ele><time>2026-04-18T15:00:23.258Z</time></trkpt><trkpt lat="44.8921184" lon="9.4877419"><ele>364.5</ele><time>2026-04-18T15:00:24.258Z</time></trkpt><trkpt lat="44.8920283" lon="9.4877357"><ele>367.0</ele><time>2026-04-18T15:00:25.259Z</time></trkpt><trkpt lat="44.8919156" lon="9.487838"><ele>367.0</ele><time>2026-04-18T15:00:26.258Z</time></trkpt><trkpt lat="44.8918398" lon="9.4878206"><ele>367.0</ele><time>2026-04-18T15:00:27.258Z</time></trkpt><trkpt lat="44.8917683" lon="9.4877734"><ele>367.0</ele><time>2026-04-18T15:00:28.258Z</time></trkpt><trkpt lat="44.891701" lon="9.4876832"><ele>367.0</ele><time>2026-04-18T15:00:29.258Z</time></trkpt><trkpt lat="44.8916152" lon="9.4875991"><ele>367.0</ele><time>2026-04-18T15:00:30.258Z</time></trkpt><trkpt lat="44.8915069" lon="9.4875743"><ele>366.25</ele><time>2026-04-18T15:00:31.258Z</time></trkpt><trkpt lat="44.8914082" lon="9.4875544"><ele>365.5</ele><time>2026-04-18T15:00:32.258Z</time></trkpt><trkpt lat="44.8913171" lon="9.4875002"><ele>364.75</ele><time>2026-04-18T15:00:33.259Z</time></trkpt><trkpt lat="44.8912214" lon="9.4874185"><ele>364.0</ele><time>2026-04-18T15:00:34.259Z</time></trkpt><trkpt lat="44.8909213" lon="9.4871025"><ele>369.0</ele><time>2026-04-18T15:00:37.259Z</time></trkpt><trkpt lat="44.8906832" lon="9.4869774"><ele>374.0</ele><time>2026-04-18T15:00:39.259Z</time></trkpt><trkpt lat="44.8905739" lon="9.4869244"><ele>379.0</ele><time>2026-04-18T15:00:40.258Z</time></trkpt><trkpt lat="44.8904734" lon="9.4869394"><ele>379.0</ele><time>2026-04-18T15:00:41.259Z</time></trkpt><trkpt lat="44.8903905" lon="9.4869294"><ele>379.0</ele><time>2026-04-18T15:00:42.259Z</time></trkpt><trkpt lat="44.8903183" lon="9.4868882"><ele>379.0</ele><time>2026-04-18T15:00:43.259Z</time></trkpt><trkpt lat="44.8902601" lon="9.4868117"><ele>379.0</ele><time>2026-04-18T15:00:44.258Z</time></trkpt><trkpt lat="44.8901929" lon="9.4867109"><ele>379.0</ele><time>2026-04-18T15:00:45.259Z</time></trkpt><trkpt lat="44.8901238" lon="9.4865975"><ele>379.0</ele><time>2026-04-18T15:00:46.258Z</time></trkpt><trkpt lat="44.8900542" lon="9.4864848"><ele>380.25</ele><time>2026-04-18T15:00:47.258Z</time></trkpt><trkpt lat="44.8899785" lon="9.4863719"><ele>381.5</ele><time>2026-04-18T15:00:48.258Z</time></trkpt><trkpt lat="44.8898068" lon="9.4861709"><ele>382.75</ele><time>2026-04-18T15:00:50.258Z</time></trkpt><trkpt lat="44.8897186" lon="9.4860921"><ele>384.0</ele><time>2026-04-18T15:00:51.258Z</time></trkpt><trkpt lat="44.8896259" lon="9.4860358"><ele>384.0</ele><time>2026-04-18T15:00:52.258Z</time></trkpt><trkpt lat="44.8895283" lon="9.4860156"><ele>384.0</ele><time>2026-04-18T15:00:53.258Z</time></trkpt><trkpt lat="44.8894351" lon="9.4860118"><ele>384.0</ele><time>2026-04-18T15:00:54.258Z</time></trkpt><trkpt lat="44.8893515" lon="9.48599"><ele>384.0</ele><time>2026-04-18T15:00:55.258Z</time></trkpt><trkpt lat="44.8892799" lon="9.4859289"><ele>384.0</ele><time>2026-04-18T15:00:56.259Z</time></trkpt><trkpt lat="44.8891365" lon="9.4857427"><ele>381.6</ele><time>2026-04-18T15:00:58.258Z</time></trkpt><trkpt lat="44.8890764" lon="9.4856198"><ele>379.2</ele><time>2026-04-18T15:00:59.259Z</time></trkpt><trkpt lat="44.889018" lon="9.4854955"><ele>376.8</ele><time>2026-04-18T15:01:00.258Z</time></trkpt><trkpt lat="44.888951" lon="9.4853952"><ele>374.40000000000003</ele><time>2026-04-18T15:01:01.259Z</time></trkpt><trkpt lat="44.8888708" lon="9.4853258"><ele>372.0</ele><time>2026-04-18T15:01:02.258Z</time></trkpt><trkpt lat="44.8887769" lon="9.4852824"><ele>372.0</ele><time>2026-04-18T15:01:03.259Z</time></trkpt><trkpt lat="44.8886717" lon="9.485266"><ele>372.0</ele><time>2026-04-18T15:01:04.258Z</time></trkpt><trkpt lat="44.8885645" lon="9.4852447"><ele>372.0</ele><time>2026-04-18T15:01:05.258Z</time></trkpt><trkpt lat="44.8884578" lon="9.4851899"><ele>372.0</ele><time>2026-04-18T15:01:06.259Z</time></trkpt><trkpt lat="44.8883534" lon="9.485107"><ele>372.0</ele><time>2026-04-18T15:01:07.258Z</time></trkpt><trkpt lat="44.8882544" lon="9.4849984"><ele>366.3333333333333</ele><time>2026-04-18T15:01:08.258Z</time></trkpt><trkpt lat="44.8881588" lon="9.4848796"><ele>360.66666666666663</ele><time>2026-04-18T15:01:09.258Z</time></trkpt><trkpt lat="44.8880581" lon="9.4847917"><ele>355.0</ele><time>2026-04-18T15:01:10.259Z</time></trkpt><trkpt lat="44.8878452" lon="9.4846866"><ele>357.5</ele><time>2026-04-18T15:01:12.258Z</time></trkpt><trkpt lat="44.8876645" lon="9.4845622"><ele>360.0</ele><time>2026-04-18T15:01:14.259Z</time></trkpt><trkpt lat="44.8874345" lon="9.4843219"><ele>360.0</ele><time>2026-04-18T15:01:17.259Z</time></trkpt><trkpt lat="44.8873654" lon="9.4842463"><ele>360.0</ele><time>2026-04-18T15:01:18.259Z</time></trkpt><trkpt lat="44.8872999" lon="9.4841774"><ele>360.0</ele><time>2026-04-18T15:01:19.258Z</time></trkpt><trkpt lat="44.8872441" lon="9.4840787"><ele>360.0</ele><time>2026-04-18T15:01:20.258Z</time></trkpt><trkpt lat="44.8871547" lon="9.4838077"><ele>363.75</ele><time>2026-04-18T15:01:22.259Z</time></trkpt><trkpt lat="44.887105" lon="9.4836691"><ele>367.5</ele><time>2026-04-18T15:01:23.258Z</time></trkpt><trkpt lat="44.8870419" lon="9.4835352"><ele>371.25</ele><time>2026-04-18T15:01:24.258Z</time></trkpt><trkpt lat="44.8869627" lon="9.4834052"><ele>375.0</ele><time>2026-04-18T15:01:25.259Z</time></trkpt><trkpt lat="44.8868698" lon="9.4832961"><ele>375.0</ele><time>2026-04-18T15:01:26.259Z</time></trkpt><trkpt lat="44.8867734" lon="9.4831958"><ele>375.0</ele><time>2026-04-18T15:01:27.258Z</time></trkpt><trkpt lat="44.8866728" lon="9.4830992"><ele>375.0</ele><time>2026-04-18T15:01:28.258Z</time></trkpt><trkpt lat="44.8864755" lon="9.4829345"><ele>372.5</ele><time>2026-04-18T15:01:30.258Z</time></trkpt><trkpt lat="44.8862702" lon="9.482779"><ele>370.0</ele><time>2026-04-18T15:01:32.258Z</time></trkpt><trkpt lat="44.8861782" lon="9.4827042"><ele>367.5</ele><time>2026-04-18T15:01:33.258Z</time></trkpt><trkpt lat="44.886106" lon="9.4826184"><ele>365.0</ele><time>2026-04-18T15:01:34.258Z</time></trkpt><trkpt lat="44.886053" lon="9.4825146"><ele>365.0</ele><time>2026-04-18T15:01:35.258Z</time></trkpt><trkpt lat="44.8860343" lon="9.482394"><ele>365.0</ele><time>2026-04-18T15:01:36.259Z</time></trkpt><trkpt lat="44.8860353" lon="9.4822564"><ele>365.0</ele><time>2026-04-18T15:01:37.258Z</time></trkpt><trkpt lat="44.8860441" lon="9.482129"><ele>365.0</ele><time>2026-04-18T15:01:38.258Z</time></trkpt><trkpt lat="44.8860071" lon="9.4819355"><ele>365.0</ele><time>2026-04-18T15:01:40.258Z</time></trkpt><trkpt lat="44.8857927" lon="9.4819117"><ele>363.5</ele><time>2026-04-18T15:01:43.258Z</time></trkpt><trkpt lat="44.8855948" lon="9.4820224"><ele>362.0</ele><time>2026-04-18T15:01:45.258Z</time></trkpt><trkpt lat="44.8855093" lon="9.4820658"><ele>360.5</ele><time>2026-04-18T15:01:46.258Z</time></trkpt><trkpt lat="44.8854303" lon="9.4820849"><ele>359.0</ele><time>2026-04-18T15:01:47.258Z</time></trkpt><trkpt lat="44.8853444" lon="9.4820875"><ele>359.0</ele><time>2026-04-18T15:01:48.258Z</time></trkpt><trkpt lat="44.8852534" lon="9.4820621"><ele>359.0</ele><time>2026-04-18T15:01:49.258Z</time></trkpt><trkpt lat="44.8851629" lon="9.4820078"><ele>359.0</ele><time>2026-04-18T15:01:50.258Z</time></trkpt><trkpt lat="44.885076" lon="9.4819199"><ele>359.0</ele><time>2026-04-18T15:01:51.258Z</time></trkpt><trkpt lat="44.8849798" lon="9.4818014"><ele>359.0</ele><time>2026-04-18T15:01:52.258Z</time></trkpt><trkpt lat="44.8848881" lon="9.4816811"><ele>358.6666666666667</ele><time>2026-04-18T15:01:53.259Z</time></trkpt><trkpt lat="44.8847923" lon="9.4815557"><ele>358.3333333333333</ele><time>2026-04-18T15:01:54.258Z</time></trkpt><trkpt lat="44.8846256" lon="9.4813188"><ele>358.0</ele><time>2026-04-18T15:01:56.258Z</time></trkpt><trkpt lat="44.8845478" lon="9.4812074"><ele>358.0</ele><time>2026-04-18T15:01:57.259Z</time></trkpt><trkpt lat="44.8844771" lon="9.4810883"><ele>358.0</ele><time>2026-04-18T15:01:58.259Z</time></trkpt><trkpt lat="44.884413" lon="9.4809485"><ele>358.0</ele><time>2026-04-18T15:01:59.259Z</time></trkpt><trkpt lat="44.8842927" lon="9.4806459"><ele>358.0</ele><time>2026-04-18T15:02:01.258Z</time></trkpt><trkpt lat="44.8842349" lon="9.4804849"><ele>358.0</ele><time>2026-04-18T15:02:02.258Z</time></trkpt><trkpt lat="44.8841099" lon="9.4801627"><ele>358.0</ele><time>2026-04-18T15:02:04.258Z</time></trkpt><trkpt lat="44.8840523" lon="9.4800105"><ele>358.0</ele><time>2026-04-18T15:02:05.258Z</time></trkpt><trkpt lat="44.8839871" lon="9.4798818"><ele>358.0</ele><time>2026-04-18T15:02:06.258Z</time></trkpt><trkpt lat="44.8839106" lon="9.4797851"><ele>358.0</ele><time>2026-04-18T15:02:07.259Z</time></trkpt><trkpt lat="44.8838218" lon="9.4797165"><ele>358.0</ele><time>2026-04-18T15:02:08.258Z</time></trkpt><trkpt lat="44.8837059" lon="9.4796914"><ele>358.0</ele><time>2026-04-18T15:02:09.259Z</time></trkpt><trkpt lat="44.8835982" lon="9.4796822"><ele>358.0</ele><time>2026-04-18T15:02:10.258Z</time></trkpt><trkpt lat="44.8834982" lon="9.479664"><ele>358.0</ele><time>2026-04-18T15:02:11.258Z</time></trkpt><trkpt lat="44.8833075" lon="9.4795759"><ele>358.0</ele><time>2026-04-18T15:02:13.258Z</time></trkpt><trkpt lat="44.8832116" lon="9.4795176"><ele>358.0</ele><time>2026-04-18T15:02:14.258Z</time></trkpt><trkpt lat="44.8831201" lon="9.4794501"><ele>363.0</ele><time>2026-04-18T15:02:15.258Z</time></trkpt><trkpt lat="44.883018" lon="9.4794026"><ele>368.0</ele><time>2026-04-18T15:02:16.259Z</time></trkpt><trkpt lat="44.8828215" lon="9.4793788"><ele>373.0</ele><time>2026-04-18T15:02:18.258Z</time></trkpt><trkpt lat="44.8827205" lon="9.4793321"><ele>378.0</ele><time>2026-04-18T15:02:19.258Z</time></trkpt><trkpt lat="44.8826145" lon="9.479277"><ele>377.79999999999995</ele><time>2026-04-18T15:02:20.258Z</time></trkpt><trkpt lat="44.8825123" lon="9.4792155"><ele>377.6</ele><time>2026-04-18T15:02:21.258Z</time></trkpt><trkpt lat="44.8824138" lon="9.4791585"><ele>377.4</ele><time>2026-04-18T15:02:22.258Z</time></trkpt><trkpt lat="44.8823044" lon="9.4791266"><ele>377.20000000000005</ele><time>2026-04-18T15:02:23.258Z</time></trkpt><trkpt lat="44.8822051" lon="9.4791174"><ele>377.0</ele><time>2026-04-18T15:02:24.258Z</time></trkpt><trkpt lat="44.8820418" lon="9.4790716"><ele>377.0</ele><time>2026-04-18T15:02:26.258Z</time></trkpt><trkpt lat="44.8819667" lon="9.4790099"><ele>377.0</ele><time>2026-04-18T15:02:27.258Z</time></trkpt><trkpt lat="44.8818744" lon="9.4789162"><ele>377.0</ele><time>2026-04-18T15:02:28.258Z</time></trkpt><trkpt lat="44.8817716" lon="9.4788389"><ele>377.0</ele><time>2026-04-18T15:02:29.258Z</time></trkpt><trkpt lat="44.881665" lon="9.4787811"><ele>377.0</ele><time>2026-04-18T15:02:30.258Z</time></trkpt><trkpt lat="44.8815705" lon="9.4787415"><ele>380.8</ele><time>2026-04-18T15:02:31.258Z</time></trkpt><trkpt lat="44.8814789" lon="9.4787091"><ele>384.6</ele><time>2026-04-18T15:02:32.258Z</time></trkpt><trkpt lat="44.8814026" lon="9.478687"><ele>388.40000000000003</ele><time>2026-04-18T15:02:33.258Z</time></trkpt><trkpt lat="44.8812908" lon="9.4786185"><ele>392.20000000000005</ele><time>2026-04-18T15:02:35.258Z</time></trkpt><trkpt lat="44.8812067" lon="9.4785114"><ele>396.0</ele><time>2026-04-18T15:02:37.258Z</time></trkpt><trkpt lat="44.8811129" lon="9.4784101"><ele>396.0</ele><time>2026-04-18T15:02:39.258Z</time></trkpt><trkpt lat="44.8810298" lon="9.4783505"><ele>396.0</ele><time>2026-04-18T15:02:41.258Z</time></trkpt><trkpt lat="44.8809353" lon="9.4782534"><ele>396.0</ele><time>2026-04-18T15:02:44.258Z</time></trkpt><trkpt lat="44.8808919" lon="9.4781635"><ele>396.0</ele><time>2026-04-18T15:02:46.258Z</time></trkpt><trkpt lat="44.8808572" lon="9.4780696"><ele>396.0</ele><time>2026-04-18T15:02:48.258Z</time></trkpt><trkpt lat="44.8807957" lon="9.4779778"><ele>393.0</ele><time>2026-04-18T15:02:51.259Z</time></trkpt><trkpt lat="44.8807361" lon="9.4779481"><ele>390.0</ele><time>2026-04-18T15:03:56.258Z</time></trkpt><trkpt lat="44.8806319" lon="9.4779258"><ele>387.0</ele><time>2026-04-18T15:03:58.258Z</time></trkpt><trkpt lat="44.8805511" lon="9.4779252"><ele>384.0</ele><time>2026-04-18T15:03:59.258Z</time></trkpt><trkpt lat="44.8804641" lon="9.4779215"><ele>381.0</ele><time>2026-04-18T15:04:00.259Z</time></trkpt><trkpt lat="44.8802749" lon="9.4779079"><ele>379.6</ele><time>2026-04-18T15:04:02.258Z</time></trkpt><trkpt lat="44.8800942" lon="9.4779537"><ele>378.20000000000005</ele><time>2026-04-18T15:04:04.258Z</time></trkpt><trkpt lat="44.8800188" lon="9.4779621"><ele>376.79999999999995</ele><time>2026-04-18T15:04:05.259Z</time></trkpt><trkpt lat="44.8799374" lon="9.4779639"><ele>375.4</ele><time>2026-04-18T15:04:06.258Z</time></trkpt><trkpt lat="44.8798819" lon="9.4778803"><ele>374.0</ele><time>2026-04-18T15:04:07.258Z</time></trkpt><trkpt lat="44.8798172" lon="9.4777988"><ele>382.25</ele><time>2026-04-18T15:04:08.259Z</time></trkpt><trkpt lat="44.8797402" lon="9.4777028"><ele>390.5</ele><time>2026-04-18T15:04:09.259Z</time></trkpt><trkpt lat="44.879593" lon="9.4775019"><ele>398.75</ele><time>2026-04-18T15:04:11.259Z</time></trkpt><trkpt lat="44.8795238" lon="9.4773903"><ele>407.0</ele><time>2026-04-18T15:04:12.258Z</time></trkpt><trkpt lat="44.8794593" lon="9.4772945"><ele>407.0</ele><time>2026-04-18T15:04:13.258Z</time></trkpt><trkpt lat="44.8793965" lon="9.4771987"><ele>407.0</ele><time>2026-04-18T15:04:14.258Z</time></trkpt><trkpt lat="44.8793416" lon="9.4770771"><ele>407.0</ele><time>2026-04-18T15:04:15.258Z</time></trkpt><trkpt lat="44.879304" lon="9.4769547"><ele>407.0</ele><time>2026-04-18T15:04:16.259Z</time></trkpt><trkpt lat="44.8792725" lon="9.4768303"><ele>407.0</ele><time>2026-04-18T15:04:17.258Z</time></trkpt><trkpt lat="44.8792287" lon="9.4767354"><ele>406.40000000000003</ele><time>2026-04-18T15:04:18.258Z</time></trkpt><trkpt lat="44.879169" lon="9.4766759"><ele>405.8</ele><time>2026-04-18T15:04:19.258Z</time></trkpt><trkpt lat="44.8791025" lon="9.4766462"><ele>405.2</ele><time>2026-04-18T15:04:20.258Z</time></trkpt><trkpt lat="44.8790287" lon="9.4766097"><ele>404.6</ele><time>2026-04-18T15:04:21.258Z</time></trkpt><trkpt lat="44.8789661" lon="9.4765479"><ele>404.0</ele><time>2026-04-18T15:04:22.258Z</time></trkpt><trkpt lat="44.8788642" lon="9.4763406"><ele>406.6</ele><time>2026-04-18T15:04:24.259Z</time></trkpt><trkpt lat="44.8788169" lon="9.476103"><ele>409.2</ele><time>2026-04-18T15:04:26.259Z</time></trkpt><trkpt lat="44.8788224" lon="9.475987"><ele>411.8</ele><time>2026-04-18T15:04:27.259Z</time></trkpt><trkpt lat="44.8788399" lon="9.4758616"><ele>414.40000000000003</ele><time>2026-04-18T15:04:28.258Z</time></trkpt><trkpt lat="44.8788613" lon="9.4757321"><ele>417.0</ele><time>2026-04-18T15:04:29.258Z</time></trkpt><trkpt lat="44.8788689" lon="9.4756146"><ele>417.0</ele><time>2026-04-18T15:04:30.258Z</time></trkpt><trkpt lat="44.8788615" lon="9.4754781"><ele>417.0</ele><time>2026-04-18T15:04:31.258Z</time></trkpt><trkpt lat="44.8788309" lon="9.4753492"><ele>417.0</ele><time>2026-04-18T15:04:32.258Z</time></trkpt><trkpt lat="44.8788009" lon="9.4752272"><ele>417.0</ele><time>2026-04-18T15:04:33.258Z</time></trkpt><trkpt lat="44.8787545" lon="9.4750833"><ele>417.0</ele><time>2026-04-18T15:04:34.258Z</time></trkpt><trkpt lat="44.8787042" lon="9.4749691"><ele>419.0</ele><time>2026-04-18T15:04:35.258Z</time></trkpt><trkpt lat="44.8786399" lon="9.4748879"><ele>421.0</ele><time>2026-04-18T15:04:36.258Z</time></trkpt><trkpt lat="44.8784647" lon="9.474645"><ele>423.0</ele><time>2026-04-18T15:04:39.259Z</time></trkpt><trkpt lat="44.878432" lon="9.4744455"><ele>425.25</ele><time>2026-04-18T15:04:41.259Z</time></trkpt><trkpt lat="44.8784433" lon="9.4741755"><ele>427.5</ele><time>2026-04-18T15:04:43.258Z</time></trkpt><trkpt lat="44.8784642" lon="9.474024"><ele>429.75</ele><time>2026-04-18T15:04:44.258Z</time></trkpt><trkpt lat="44.8784935" lon="9.4738719"><ele>432.0</ele><time>2026-04-18T15:04:45.258Z</time></trkpt><trkpt lat="44.8785179" lon="9.4737227"><ele>434.0</ele><time>2026-04-18T15:04:46.259Z</time></trkpt><trkpt lat="44.8785336" lon="9.4735876"><ele>436.00000000000006</ele><time>2026-04-18T15:04:47.259Z</time></trkpt><trkpt lat="44.8785269" lon="9.4734579"><ele>438.00000000000006</ele><time>2026-04-18T15:04:48.258Z</time></trkpt><trkpt lat="44.8784979" lon="9.4733335"><ele>440.0</ele><time>2026-04-18T15:04:49.258Z</time></trkpt><trkpt lat="44.8784849" lon="9.4732341"><ele>442.0</ele><time>2026-04-18T15:04:50.258Z</time></trkpt><trkpt lat="44.8785047" lon="9.4730256"><ele>442.8</ele><time>2026-04-18T15:04:52.258Z</time></trkpt><trkpt lat="44.8785331" lon="9.4729349"><ele>443.6</ele><time>2026-04-18T15:04:53.258Z</time></trkpt><trkpt lat="44.878589" lon="9.4728363"><ele>444.40000000000003</ele><time>2026-04-18T15:04:54.258Z</time></trkpt><trkpt lat="44.8787224" lon="9.4726517"><ele>445.20000000000005</ele><time>2026-04-18T15:04:56.259Z</time></trkpt><trkpt lat="44.8787581" lon="9.472549"><ele>446.0</ele><time>2026-04-18T15:04:57.258Z</time></trkpt><trkpt lat="44.8787732" lon="9.4724381"><ele>446.0</ele><time>2026-04-18T15:04:58.258Z</time></trkpt><trkpt lat="44.8787692" lon="9.4723218"><ele>446.0</ele><time>2026-04-18T15:04:59.259Z</time></trkpt><trkpt lat="44.8786284" lon="9.4720169"><ele>446.0</ele><time>2026-04-18T15:05:02.258Z</time></trkpt><trkpt lat="44.8785718" lon="9.4719056"><ele>446.0</ele><time>2026-04-18T15:05:03.258Z</time></trkpt><trkpt lat="44.87852" lon="9.4717811"><ele>449.0</ele><time>2026-04-18T15:05:04.258Z</time></trkpt><trkpt lat="44.8784805" lon="9.4716506"><ele>452.0</ele><time>2026-04-18T15:05:05.259Z</time></trkpt><trkpt lat="44.878444" lon="9.471517"><ele>455.0</ele><time>2026-04-18T15:05:06.258Z</time></trkpt><trkpt lat="44.878406" lon="9.4713825"><ele>458.0</ele><time>2026-04-18T15:05:07.258Z</time></trkpt><trkpt lat="44.8783729" lon="9.4712328"><ele>461.0</ele><time>2026-04-18T15:05:08.258Z</time></trkpt><trkpt lat="44.8783423" lon="9.4710727"><ele>455.0</ele><time>2026-04-18T15:05:09.259Z</time></trkpt><trkpt lat="44.8783134" lon="9.4709099"><ele>449.0</ele><time>2026-04-18T15:05:10.258Z</time></trkpt><trkpt lat="44.878286" lon="9.4707446"><ele>443.0</ele><time>2026-04-18T15:05:11.258Z</time></trkpt><trkpt lat="44.8782594" lon="9.4705755"><ele>437.0</ele><time>2026-04-18T15:05:12.258Z</time></trkpt><trkpt lat="44.8782133" lon="9.470246"><ele>437.0</ele><time>2026-04-18T15:05:14.259Z</time></trkpt><trkpt lat="44.8781964" lon="9.470103"><ele>437.00000000000006</ele><time>2026-04-18T15:05:15.258Z</time></trkpt><trkpt lat="44.8781837" lon="9.4699856"><ele>437.00000000000006</ele><time>2026-04-18T15:05:16.258Z</time></trkpt><trkpt lat="44.8781949" lon="9.4698764"><ele>437.0</ele><time>2026-04-18T15:05:17.258Z</time></trkpt><trkpt lat="44.8782302" lon="9.469774"><ele>437.0</ele><time>2026-04-18T15:05:18.258Z</time></trkpt><trkpt lat="44.8783616" lon="9.4695915"><ele>442.20000000000005</ele><time>2026-04-18T15:05:20.258Z</time></trkpt><trkpt lat="44.8784426" lon="9.4695171"><ele>447.40000000000003</ele><time>2026-04-18T15:05:21.258Z</time></trkpt><trkpt lat="44.8785085" lon="9.4694474"><ele>452.59999999999997</ele><time>2026-04-18T15:05:22.258Z</time></trkpt><trkpt lat="44.8785506" lon="9.4693698"><ele>457.79999999999995</ele><time>2026-04-18T15:05:23.258Z</time></trkpt><trkpt lat="44.878561" lon="9.4691976"><ele>463.0</ele><time>2026-04-18T15:05:25.258Z</time></trkpt><trkpt lat="44.8785248" lon="9.4690899"><ele>463.0</ele><time>2026-04-18T15:05:26.258Z</time></trkpt><trkpt lat="44.8784683" lon="9.4689584"><ele>462.99999999999994</ele><time>2026-04-18T15:05:27.259Z</time></trkpt><trkpt lat="44.8784256" lon="9.4688252"><ele>462.99999999999994</ele><time>2026-04-18T15:05:28.259Z</time></trkpt><trkpt lat="44.8784121" lon="9.4686989"><ele>463.0</ele><time>2026-04-18T15:05:29.258Z</time></trkpt><trkpt lat="44.8784007" lon="9.4686079"><ele>463.0</ele><time>2026-04-18T15:05:30.258Z</time></trkpt><trkpt lat="44.8783898" lon="9.4684505"><ele>459.0</ele><time>2026-04-18T15:05:32.258Z</time></trkpt><trkpt lat="44.8783852" lon="9.4683521"><ele>454.99999999999994</ele><time>2026-04-18T15:05:33.258Z</time></trkpt><trkpt lat="44.8783784" lon="9.4682566"><ele>450.99999999999994</ele><time>2026-04-18T15:05:34.258Z</time></trkpt><trkpt lat="44.8783628" lon="9.4680963"><ele>447.0</ele><time>2026-04-18T15:05:36.258Z</time></trkpt><trkpt lat="44.878352" lon="9.4679492"><ele>443.0</ele><time>2026-04-18T15:05:38.258Z</time></trkpt><trkpt lat="44.8783809" lon="9.4678207"><ele>446.16666666666663</ele><time>2026-04-18T15:05:41.258Z</time></trkpt><trkpt lat="44.8784573" lon="9.4677269"><ele>449.3333333333333</ele><time>2026-04-18T15:05:44.258Z</time></trkpt><trkpt lat="44.878522" lon="9.4676883"><ele>452.5</ele><time>2026-04-18T15:05:46.259Z</time></trkpt><trkpt lat="44.8785712" lon="9.4677546"><ele>455.66666666666663</ele><time>2026-04-18T15:05:48.259Z</time></trkpt><trkpt lat="44.8785874" lon="9.4678733"><ele>458.8333333333333</ele><time>2026-04-18T15:05:50.258Z</time></trkpt><trkpt lat="44.8786348" lon="9.4679665"><ele>462.0</ele><time>2026-04-18T15:05:56.258Z</time></trkpt><trkpt lat="44.8787109" lon="9.4681052"><ele>462.0</ele><time>2026-04-18T15:05:58.258Z</time></trkpt><trkpt lat="44.8787597" lon="9.4681972"><ele>462.0</ele><time>2026-04-18T15:05:59.258Z</time></trkpt><trkpt lat="44.8788284" lon="9.4682851"><ele>462.0</ele><time>2026-04-18T15:06:00.259Z</time></trkpt><trkpt lat="44.878914" lon="9.4683711"><ele>462.0</ele><time>2026-04-18T15:06:01.258Z</time></trkpt><trkpt lat="44.8789851" lon="9.4684331"><ele>462.0</ele><time>2026-04-18T15:06:02.258Z</time></trkpt><trkpt lat="44.8790484" lon="9.4684785"><ele>462.0</ele><time>2026-04-18T15:06:03.258Z</time></trkpt><trkpt lat="44.8791375" lon="9.4684657"><ele>462.0</ele><time>2026-04-18T15:06:05.258Z</time></trkpt><trkpt lat="44.8791901" lon="9.4683385"><ele>462.00000000000006</ele><time>2026-04-18T15:06:07.258Z</time></trkpt><trkpt lat="44.8791987" lon="9.4682313"><ele>462.00000000000006</ele><time>2026-04-18T15:06:08.259Z</time></trkpt><trkpt lat="44.8792072" lon="9.4680957"><ele>462.0</ele><time>2026-04-18T15:06:09.258Z</time></trkpt><trkpt lat="44.8792225" lon="9.4678833"><ele>462.0</ele><time>2026-04-18T15:06:11.259Z</time></trkpt><trkpt lat="44.879165" lon="9.4677071"><ele>462.40000000000003</ele><time>2026-04-18T15:06:13.258Z</time></trkpt><trkpt lat="44.8791339" lon="9.4676279"><ele>462.80000000000007</ele><time>2026-04-18T15:06:14.259Z</time></trkpt><trkpt lat="44.8791261" lon="9.4674744"><ele>463.2</ele><time>2026-04-18T15:06:16.258Z</time></trkpt><trkpt lat="44.8791903" lon="9.467305"><ele>463.6</ele><time>2026-04-18T15:06:18.258Z</time></trkpt><trkpt lat="44.8792439" lon="9.4672113"><ele>464.0</ele><time>2026-04-18T15:06:19.259Z</time></trkpt><trkpt lat="44.8793044" lon="9.4671121"><ele>468.2</ele><time>2026-04-18T15:06:20.258Z</time></trkpt><trkpt lat="44.8794468" lon="9.4669765"><ele>472.4</ele><time>2026-04-18T15:06:22.259Z</time></trkpt><trkpt lat="44.8795198" lon="9.4669455"><ele>476.6</ele><time>2026-04-18T15:06:23.258Z</time></trkpt><trkpt lat="44.8796195" lon="9.4669577"><ele>480.8</ele><time>2026-04-18T15:06:25.259Z</time></trkpt><trkpt lat="44.8796467" lon="9.467078"><ele>485.0</ele><time>2026-04-18T15:06:27.258Z</time></trkpt><trkpt lat="44.8796274" lon="9.4671725"><ele>485.6</ele><time>2026-04-18T15:06:28.258Z</time></trkpt><trkpt lat="44.8796045" lon="9.4672684"><ele>486.2</ele><time>2026-04-18T15:06:29.259Z</time></trkpt><trkpt lat="44.8796342" lon="9.4674214"><ele>486.79999999999995</ele><time>2026-04-18T15:06:31.258Z</time></trkpt><trkpt lat="44.8796831" lon="9.4675264"><ele>487.4</ele><time>2026-04-18T15:06:32.259Z</time></trkpt><trkpt lat="44.8797435" lon="9.4676408"><ele>488.0</ele><time>2026-04-18T15:06:33.258Z</time></trkpt><trkpt lat="44.8797954" lon="9.4677461"><ele>487.99999999999994</ele><time>2026-04-18T15:06:34.258Z</time></trkpt><trkpt lat="44.8798349" lon="9.467852"><ele>488.0</ele><time>2026-04-18T15:06:35.258Z</time></trkpt><trkpt lat="44.8798671" lon="9.4679325"><ele>488.0</ele><time>2026-04-18T15:06:36.258Z</time></trkpt><trkpt lat="44.8799281" lon="9.4680091"><ele>488.0</ele><time>2026-04-18T15:06:38.258Z</time></trkpt><trkpt lat="44.8799979" lon="9.467875"><ele>487.99999999999994</ele><time>2026-04-18T15:06:42.258Z</time></trkpt><trkpt lat="44.8799721" lon="9.4677924"><ele>488.0</ele><time>2026-04-18T15:06:43.258Z</time></trkpt><trkpt lat="44.8799382" lon="9.4676246"><ele>496.3333333333333</ele><time>2026-04-18T15:06:45.259Z</time></trkpt><trkpt lat="44.8802392" lon="9.4678588"><ele>504.66666666666663</ele><time>2026-04-18T15:06:53.258Z</time></trkpt><trkpt lat="44.8803138" lon="9.467955"><ele>513.0</ele><time>2026-04-18T15:06:54.258Z</time></trkpt><trkpt lat="44.8803633" lon="9.4680636"><ele>520.0</ele><time>2026-04-18T15:06:55.259Z</time></trkpt><trkpt lat="44.8803" lon="9.4687011"><ele>520.0</ele><time>2026-04-18T15:07:00.259Z</time></trkpt><trkpt lat="44.8802498" lon="9.468807"><ele>520.0</ele><time>2026-04-18T15:07:01.258Z</time></trkpt><trkpt lat="44.8802038" lon="9.4689606"><ele>520.0</ele><time>2026-04-18T15:07:03.259Z</time></trkpt><trkpt lat="44.880261" lon="9.4690163"><ele>520.0</ele><time>2026-04-18T15:07:05.259Z</time></trkpt><trkpt lat="44.8803566" lon="9.4689473"><ele>520.0</ele><time>2026-04-18T15:07:07.258Z</time></trkpt><trkpt lat="44.8805226" lon="9.4686709"><ele>520.0</ele><time>2026-04-18T15:07:10.258Z</time></trkpt><trkpt lat="44.8805607" lon="9.4685488"><ele>520.0</ele><time>2026-04-18T15:07:11.258Z</time></trkpt><trkpt lat="44.8805852" lon="9.4684105"><ele>520.0</ele><time>2026-04-18T15:07:12.258Z</time></trkpt><trkpt lat="44.8806092" lon="9.4682638"><ele>520.0</ele><time>2026-04-18T15:07:13.258Z</time></trkpt><trkpt lat="44.8806972" lon="9.4678812"><ele>518.25</ele><time>2026-04-18T15:07:16.258Z</time></trkpt><trkpt lat="44.8807792" lon="9.4675686"><ele>516.5</ele><time>2026-04-18T15:07:20.259Z</time></trkpt><trkpt lat="44.8808523" lon="9.467476"><ele>514.75</ele><time>2026-04-18T15:07:37.258Z</time></trkpt><trkpt lat="44.8809273" lon="9.4674262"><ele>513.0</ele><time>2026-04-18T15:07:39.258Z</time></trkpt><trkpt lat="44.8809831" lon="9.4675711"><ele>516.6</ele><time>2026-04-18T15:07:43.259Z</time></trkpt><trkpt lat="44.8809466" lon="9.4677253"><ele>520.1999999999999</ele><time>2026-04-18T15:07:45.258Z</time></trkpt><trkpt lat="44.8809338" lon="9.4678214"><ele>523.8</ele><time>2026-04-18T15:07:46.258Z</time></trkpt><trkpt lat="44.8809349" lon="9.4680201"><ele>527.4</ele><time>2026-04-18T15:07:48.258Z</time></trkpt><trkpt lat="44.8809493" lon="9.4681452"><ele>531.0</ele><time>2026-04-18T15:07:49.258Z</time></trkpt><trkpt lat="44.880975" lon="9.4682752"><ele>533.25</ele><time>2026-04-18T15:07:50.258Z</time></trkpt><trkpt lat="44.8810036" lon="9.4684299"><ele>535.5</ele><time>2026-04-18T15:07:51.259Z</time></trkpt><trkpt lat="44.8810297" lon="9.4685911"><ele>537.75</ele><time>2026-04-18T15:07:52.259Z</time></trkpt><trkpt lat="44.8810689" lon="9.4688482"><ele>540.0</ele><time>2026-04-18T15:07:54.258Z</time></trkpt><trkpt lat="44.8810938" lon="9.4689386"><ele>540.0</ele><time>2026-04-18T15:07:55.258Z</time></trkpt><trkpt lat="44.8811629" lon="9.4690116"><ele>540.0</ele><time>2026-04-18T15:07:57.258Z</time></trkpt><trkpt lat="44.8812212" lon="9.4689662"><ele>540.0</ele><time>2026-04-18T15:07:59.259Z</time></trkpt><trkpt lat="44.8812536" lon="9.4688873"><ele>540.0</ele><time>2026-04-18T15:08:00.258Z</time></trkpt><trkpt lat="44.8812731" lon="9.4687893"><ele>540.0</ele><time>2026-04-18T15:08:01.258Z</time></trkpt><trkpt lat="44.8813041" lon="9.4686155"><ele>540.0</ele><time>2026-04-18T15:08:03.259Z</time></trkpt><trkpt lat="44.8813744" lon="9.4684253"><ele>540.0</ele><time>2026-04-18T15:08:06.258Z</time></trkpt><trkpt lat="44.8814453" lon="9.468391"><ele>540.0</ele><time>2026-04-18T15:08:08.258Z</time></trkpt><trkpt lat="44.8815544" lon="9.4684284"><ele>540.0</ele><time>2026-04-18T15:08:10.258Z</time></trkpt><trkpt lat="44.8817487" lon="9.4684984"><ele>540.0</ele><time>2026-04-18T15:08:13.258Z</time></trkpt><trkpt lat="44.8818338" lon="9.4684788"><ele>542.0</ele><time>2026-04-18T15:08:15.258Z</time></trkpt><trkpt lat="44.8818728" lon="9.4683837"><ele>544.0</ele><time>2026-04-18T15:08:17.259Z</time></trkpt><trkpt lat="44.8819138" lon="9.4680354"><ele>546.0</ele><time>2026-04-18T15:08:20.258Z</time></trkpt><trkpt lat="44.8819617" lon="9.46791"><ele>548.0</ele><time>2026-04-18T15:08:21.258Z</time></trkpt><trkpt lat="44.8820262" lon="9.4677932"><ele>548.0</ele><time>2026-04-18T15:08:22.258Z</time></trkpt><trkpt lat="44.8821016" lon="9.4676721"><ele>548.0</ele><time>2026-04-18T15:08:23.258Z</time></trkpt><trkpt lat="44.8821691" lon="9.4675628"><ele>548.0</ele><time>2026-04-18T15:08:24.258Z</time></trkpt><trkpt lat="44.8822265" lon="9.4674651"><ele>548.0</ele><time>2026-04-18T15:08:25.258Z</time></trkpt><trkpt lat="44.8822749" lon="9.4673732"><ele>548.0</ele><time>2026-04-18T15:08:26.258Z</time></trkpt><trkpt lat="44.8823157" lon="9.4672927"><ele>544.6666666666666</ele><time>2026-04-18T15:08:27.258Z</time></trkpt><trkpt lat="44.8825604" lon="9.4669616"><ele>541.3333333333334</ele><time>2026-04-18T15:08:33.258Z</time></trkpt><trkpt lat="44.8826294" lon="9.4668994"><ele>538.0</ele><time>2026-04-18T15:08:34.258Z</time></trkpt><trkpt lat="44.8827711" lon="9.4667092"><ele>541.4</ele><time>2026-04-18T15:08:36.259Z</time></trkpt><trkpt lat="44.8828278" lon="9.4666008"><ele>544.8</ele><time>2026-04-18T15:08:37.258Z</time></trkpt><trkpt lat="44.8828711" lon="9.4664952"><ele>548.2</ele><time>2026-04-18T15:08:38.258Z</time></trkpt><trkpt lat="44.8829002" lon="9.4663858"><ele>551.6</ele><time>2026-04-18T15:08:39.259Z</time></trkpt><trkpt lat="44.8829272" lon="9.4662524"><ele>555.0</ele><time>2026-04-18T15:08:40.258Z</time></trkpt><trkpt lat="44.8829505" lon="9.4661223"><ele>555.0</ele><time>2026-04-18T15:08:41.258Z</time></trkpt><trkpt lat="44.8829769" lon="9.465982"><ele>555.0</ele><time>2026-04-18T15:08:42.258Z</time></trkpt><trkpt lat="44.8830135" lon="9.4658456"><ele>555.0</ele><time>2026-04-18T15:08:43.258Z</time></trkpt><trkpt lat="44.8830515" lon="9.46572"><ele>555.0</ele><time>2026-04-18T15:08:44.258Z</time></trkpt><trkpt lat="44.883087" lon="9.4654642"><ele>554.5</ele><time>2026-04-18T15:08:46.258Z</time></trkpt><trkpt lat="44.883065" lon="9.465312"><ele>554.0</ele><time>2026-04-18T15:08:47.259Z</time></trkpt><trkpt lat="44.8829272" lon="9.4647177"><ele>554.0</ele><time>2026-04-18T15:08:51.258Z</time></trkpt><trkpt lat="44.8829448" lon="9.4645612"><ele>554.0</ele><time>2026-04-18T15:08:52.258Z</time></trkpt><trkpt lat="44.8830724" lon="9.4638884"><ele>554.3333333333333</ele><time>2026-04-18T15:08:56.259Z</time></trkpt><trkpt lat="44.8831455" lon="9.4635693"><ele>554.6666666666666</ele><time>2026-04-18T15:08:58.258Z</time></trkpt><trkpt lat="44.8831873" lon="9.4634376"><ele>555.0</ele><time>2026-04-18T15:08:59.258Z</time></trkpt><trkpt lat="44.8832763" lon="9.4631588"><ele>568.0</ele><time>2026-04-18T15:09:01.259Z</time></trkpt><trkpt lat="44.8834484" lon="9.4627352"><ele>581.0</ele><time>2026-04-18T15:09:04.258Z</time></trkpt><trkpt lat="44.8835196" lon="9.4625913"><ele>578.0</ele><time>2026-04-18T15:09:05.258Z</time></trkpt><trkpt lat="44.8839102" lon="9.4616186"><ele>579.5</ele><time>2026-04-18T15:09:11.258Z</time></trkpt><trkpt lat="44.8840239" lon="9.4610357"><ele>581.0</ele><time>2026-04-18T15:09:15.258Z</time></trkpt><trkpt lat="44.8841891" lon="9.4607409"><ele>581.0</ele><time>2026-04-18T15:09:18.259Z</time></trkpt><trkpt lat="44.8842511" lon="9.4606297"><ele>581.0</ele><time>2026-04-18T15:09:19.259Z</time></trkpt><trkpt lat="44.8842971" lon="9.4604965"><ele>581.0</ele><time>2026-04-18T15:09:20.258Z</time></trkpt><trkpt lat="44.8843133" lon="9.4603654"><ele>581.0</ele><time>2026-04-18T15:09:21.259Z</time></trkpt><trkpt lat="44.8843242" lon="9.460126"><ele>585.2</ele><time>2026-04-18T15:09:23.258Z</time></trkpt><trkpt lat="44.8844052" lon="9.4600459"><ele>589.4000000000001</ele><time>2026-04-18T15:09:25.258Z</time></trkpt><trkpt lat="44.8844683" lon="9.4601751"><ele>593.6</ele><time>2026-04-18T15:09:27.258Z</time></trkpt><trkpt lat="44.8844782" lon="9.460306"><ele>597.8000000000001</ele><time>2026-04-18T15:09:28.258Z</time></trkpt><trkpt lat="44.8844802" lon="9.4604928"><ele>602.0</ele><time>2026-04-18T15:09:29.259Z</time></trkpt><trkpt lat="44.8844716" lon="9.4606777"><ele>604.3333333333333</ele><time>2026-04-18T15:09:30.258Z</time></trkpt><trkpt lat="44.8844544" lon="9.4608686"><ele>606.6666666666666</ele><time>2026-04-18T15:09:31.258Z</time></trkpt><trkpt lat="44.8844221" lon="9.46121"><ele>609.0</ele><time>2026-04-18T15:09:33.258Z</time></trkpt><trkpt lat="44.8844676" lon="9.4614739"><ele>609.0</ele><time>2026-04-18T15:09:35.258Z</time></trkpt><trkpt lat="44.8845181" lon="9.4615397"><ele>609.0</ele><time>2026-04-18T15:09:36.258Z</time></trkpt><trkpt lat="44.8846329" lon="9.4614939"><ele>609.0</ele><time>2026-04-18T15:09:38.258Z</time></trkpt><trkpt lat="44.8846931" lon="9.4613734"><ele>609.0</ele><time>2026-04-18T15:09:39.258Z</time></trkpt><trkpt lat="44.8847543" lon="9.4612324"><ele>609.0</ele><time>2026-04-18T15:09:40.258Z</time></trkpt><trkpt lat="44.8848163" lon="9.4611"><ele>609.0</ele><time>2026-04-18T15:09:41.258Z</time></trkpt><trkpt lat="44.88488" lon="9.4609654"><ele>609.0</ele><time>2026-04-18T15:09:42.259Z</time></trkpt><trkpt lat="44.8850112" lon="9.4606487"><ele>609.0</ele><time>2026-04-18T15:09:44.258Z</time></trkpt><trkpt lat="44.88507" lon="9.4604778"><ele>614.25</ele><time>2026-04-18T15:09:45.258Z</time></trkpt><trkpt lat="44.8851325" lon="9.4603105"><ele>619.5</ele><time>2026-04-18T15:09:46.259Z</time></trkpt><trkpt lat="44.8851999" lon="9.4601546"><ele>624.75</ele><time>2026-04-18T15:09:47.258Z</time></trkpt><trkpt lat="44.8852707" lon="9.4600149"><ele>630.0</ele><time>2026-04-18T15:09:48.258Z</time></trkpt><trkpt lat="44.8853552" lon="9.4598887"><ele>630.0</ele><time>2026-04-18T15:09:49.258Z</time></trkpt><trkpt lat="44.8854565" lon="9.4597792"><ele>630.0</ele><time>2026-04-18T15:09:50.258Z</time></trkpt><trkpt lat="44.8855713" lon="9.4596817"><ele>630.0</ele><time>2026-04-18T15:09:51.258Z</time></trkpt><trkpt lat="44.8861053" lon="9.459342"><ele>631.5</ele><time>2026-04-18T15:09:56.258Z</time></trkpt><trkpt lat="44.8861882" lon="9.4592434"><ele>633.0</ele><time>2026-04-18T15:09:57.258Z</time></trkpt><trkpt lat="44.8862534" lon="9.4591215"><ele>634.5</ele><time>2026-04-18T15:09:58.258Z</time></trkpt><trkpt lat="44.8862952" lon="9.4589943"><ele>636.0</ele><time>2026-04-18T15:09:59.258Z</time></trkpt><trkpt lat="44.8863133" lon="9.4585435"><ele>636.0</ele><time>2026-04-18T15:10:03.259Z</time></trkpt><trkpt lat="44.8861703" lon="9.4581154"><ele>636.0</ele><time>2026-04-18T15:10:06.258Z</time></trkpt><trkpt lat="44.8861107" lon="9.4579613"><ele>634.25</ele><time>2026-04-18T15:10:07.258Z</time></trkpt><trkpt lat="44.8860561" lon="9.4578071"><ele>632.5</ele><time>2026-04-18T15:10:08.259Z</time></trkpt><trkpt lat="44.8860093" lon="9.4576485"><ele>630.75</ele><time>2026-04-18T15:10:09.258Z</time></trkpt><trkpt lat="44.8859733" lon="9.457487"><ele>629.0</ele><time>2026-04-18T15:10:10.258Z</time></trkpt><trkpt lat="44.8859514" lon="9.4573093"><ele>629.0</ele><time>2026-04-18T15:10:11.258Z</time></trkpt><trkpt lat="44.8859427" lon="9.4571317"><ele>629.0</ele><time>2026-04-18T15:10:12.258Z</time></trkpt><trkpt lat="44.8859399" lon="9.4569538"><ele>629.0</ele><time>2026-04-18T15:10:13.258Z</time></trkpt><trkpt lat="44.8859508" lon="9.4567817"><ele>629.0</ele><time>2026-04-18T15:10:14.258Z</time></trkpt><trkpt lat="44.8859848" lon="9.4566145"><ele>626.4</ele><time>2026-04-18T15:10:15.258Z</time></trkpt><trkpt lat="44.8860247" lon="9.4564686"><ele>623.8</ele><time>2026-04-18T15:10:16.258Z</time></trkpt><trkpt lat="44.8860412" lon="9.4563407"><ele>621.2</ele><time>2026-04-18T15:10:17.258Z</time></trkpt><trkpt lat="44.8860338" lon="9.4562026"><ele>618.6</ele><time>2026-04-18T15:10:18.258Z</time></trkpt><trkpt lat="44.8859937" lon="9.4560555"><ele>616.0</ele><time>2026-04-18T15:10:19.258Z</time></trkpt><trkpt lat="44.8859352" lon="9.4558906"><ele>612.75</ele><time>2026-04-18T15:10:20.258Z</time></trkpt><trkpt lat="44.8858751" lon="9.4557146"><ele>609.5</ele><time>2026-04-18T15:10:21.259Z</time></trkpt><trkpt lat="44.8858142" lon="9.4555376"><ele>606.25</ele><time>2026-04-18T15:10:22.258Z</time></trkpt><trkpt lat="44.8857518" lon="9.4553593"><ele>603.0</ele><time>2026-04-18T15:10:23.258Z</time></trkpt><trkpt lat="44.885625" lon="9.4550034"><ele>600.6666666666666</ele><time>2026-04-18T15:10:25.258Z</time></trkpt><trkpt lat="44.885555" lon="9.4548154"><ele>598.3333333333333</ele><time>2026-04-18T15:10:26.258Z</time></trkpt><trkpt lat="44.8854817" lon="9.4546214"><ele>596.0</ele><time>2026-04-18T15:10:27.258Z</time></trkpt><trkpt lat="44.8854043" lon="9.4544256"><ele>592.5</ele><time>2026-04-18T15:10:28.258Z</time></trkpt><trkpt lat="44.8853251" lon="9.4542332"><ele>589.0</ele><time>2026-04-18T15:10:29.258Z</time></trkpt><trkpt lat="44.884878" lon="9.4531255"><ele>587.0</ele><time>2026-04-18T15:10:35.259Z</time></trkpt><trkpt lat="44.884794" lon="9.452933"><ele>585.0</ele><time>2026-04-18T15:10:36.259Z</time></trkpt><trkpt lat="44.8847222" lon="9.4527296"><ele>583.0</ele><time>2026-04-18T15:10:37.258Z</time></trkpt><trkpt lat="44.8846641" lon="9.4525226"><ele>583.0</ele><time>2026-04-18T15:10:38.258Z</time></trkpt><trkpt lat="44.8846167" lon="9.4523111"><ele>583.0</ele><time>2026-04-18T15:10:39.259Z</time></trkpt><trkpt lat="44.8845678" lon="9.4520953"><ele>583.0</ele><time>2026-04-18T15:10:40.258Z</time></trkpt><trkpt lat="44.8845151" lon="9.4518991"><ele>582.5</ele><time>2026-04-18T15:10:41.258Z</time></trkpt><trkpt lat="44.8844601" lon="9.4517307"><ele>582.0</ele><time>2026-04-18T15:10:42.258Z</time></trkpt><trkpt lat="44.8843375" lon="9.4512491"><ele>582.0</ele><time>2026-04-18T15:10:45.258Z</time></trkpt><trkpt lat="44.8842748" lon="9.4509587"><ele>582.0</ele><time>2026-04-18T15:10:47.259Z</time></trkpt><trkpt lat="44.8842402" lon="9.4508243"><ele>582.0</ele><time>2026-04-18T15:10:48.258Z</time></trkpt><trkpt lat="44.8842279" lon="9.4506863"><ele>582.0</ele><time>2026-04-18T15:10:49.258Z</time></trkpt><trkpt lat="44.8842367" lon="9.4505583"><ele>586.25</ele><time>2026-04-18T15:10:50.258Z</time></trkpt><trkpt lat="44.8842401" lon="9.4504267"><ele>590.5</ele><time>2026-04-18T15:10:51.259Z</time></trkpt><trkpt lat="44.8842308" lon="9.4502998"><ele>594.75</ele><time>2026-04-18T15:10:52.258Z</time></trkpt><trkpt lat="44.8842186" lon="9.4501627"><ele>599.0</ele><time>2026-04-18T15:10:53.258Z</time></trkpt><trkpt lat="44.8841931" lon="9.4497619"><ele>599.0</ele><time>2026-04-18T15:10:56.258Z</time></trkpt><trkpt lat="44.88418" lon="9.4496293"><ele>599.0</ele><time>2026-04-18T15:10:57.258Z</time></trkpt><trkpt lat="44.8841641" lon="9.4494981"><ele>599.0</ele><time>2026-04-18T15:10:58.258Z</time></trkpt><trkpt lat="44.8841401" lon="9.4493725"><ele>599.0</ele><time>2026-04-18T15:10:59.258Z</time></trkpt><trkpt lat="44.8841101" lon="9.4492481"><ele>599.0</ele><time>2026-04-18T15:11:00.258Z</time></trkpt><trkpt lat="44.8840854" lon="9.449132"><ele>600.75</ele><time>2026-04-18T15:11:01.259Z</time></trkpt><trkpt lat="44.884039" lon="9.4488919"><ele>602.5</ele><time>2026-04-18T15:11:03.258Z</time></trkpt><trkpt lat="44.8840342" lon="9.4487619"><ele>604.25</ele><time>2026-04-18T15:11:04.258Z</time></trkpt><trkpt lat="44.8840371" lon="9.4486304"><ele>606.0</ele><time>2026-04-18T15:11:05.258Z</time></trkpt><trkpt lat="44.8840386" lon="9.4484929"><ele>608.6</ele><time>2026-04-18T15:11:06.258Z</time></trkpt><trkpt lat="44.884037" lon="9.4483727"><ele>611.2</ele><time>2026-04-18T15:11:07.259Z</time></trkpt><trkpt lat="44.8840212" lon="9.4482524"><ele>613.8</ele><time>2026-04-18T15:11:08.258Z</time></trkpt><trkpt lat="44.8839729" lon="9.448022"><ele>616.4</ele><time>2026-04-18T15:11:10.258Z</time></trkpt><trkpt lat="44.8839394" lon="9.4479016"><ele>619.0</ele><time>2026-04-18T15:11:11.258Z</time></trkpt><trkpt lat="44.8838556" lon="9.4476744"><ele>621.5</ele><time>2026-04-18T15:11:13.258Z</time></trkpt><trkpt lat="44.8838199" lon="9.4475438"><ele>624.0</ele><time>2026-04-18T15:11:14.258Z</time></trkpt><trkpt lat="44.883791" lon="9.4473849"><ele>626.5</ele><time>2026-04-18T15:11:15.259Z</time></trkpt><trkpt lat="44.8837584" lon="9.4472161"><ele>629.0</ele><time>2026-04-18T15:11:16.259Z</time></trkpt><trkpt lat="44.8836409" lon="9.4469279"><ele>630.0</ele><time>2026-04-18T15:11:18.259Z</time></trkpt><trkpt lat="44.8835752" lon="9.4468071"><ele>631.0</ele><time>2026-04-18T15:11:19.258Z</time></trkpt><trkpt lat="44.8835152" lon="9.446702"><ele>632.0</ele><time>2026-04-18T15:11:20.258Z</time></trkpt><trkpt lat="44.883476" lon="9.4466138"><ele>633.0</ele><time>2026-04-18T15:11:21.258Z</time></trkpt><trkpt lat="44.883445" lon="9.4465033"><ele>634.0</ele><time>2026-04-18T15:11:22.259Z</time></trkpt><trkpt lat="44.883411" lon="9.4463711"><ele>629.5</ele><time>2026-04-18T15:11:23.259Z</time></trkpt><trkpt lat="44.8833059" lon="9.4461187"><ele>625.0</ele><time>2026-04-18T15:11:25.258Z</time></trkpt><trkpt lat="44.8831878" lon="9.4457664"><ele>625.0</ele><time>2026-04-18T15:11:28.258Z</time></trkpt><trkpt lat="44.8831057" lon="9.4455097"><ele>625.0</ele><time>2026-04-18T15:11:30.259Z</time></trkpt><trkpt lat="44.8830726" lon="9.4453818"><ele>625.0</ele><time>2026-04-18T15:11:31.258Z</time></trkpt><trkpt lat="44.8830416" lon="9.4452467"><ele>625.0</ele><time>2026-04-18T15:11:32.258Z</time></trkpt><trkpt lat="44.8830166" lon="9.444968"><ele>625.6666666666667</ele><time>2026-04-18T15:11:34.259Z</time></trkpt><trkpt lat="44.8830068" lon="9.4448458"><ele>626.3333333333334</ele><time>2026-04-18T15:11:35.258Z</time></trkpt><trkpt lat="44.8829771" lon="9.4447553"><ele>627.0</ele><time>2026-04-18T15:11:36.258Z</time></trkpt><trkpt lat="44.8829331" lon="9.4446796"><ele>627.6666666666666</ele><time>2026-04-18T15:11:37.258Z</time></trkpt><trkpt lat="44.8828496" lon="9.4446063"><ele>628.3333333333333</ele><time>2026-04-18T15:11:38.258Z</time></trkpt><trkpt lat="44.8827563" lon="9.4445574"><ele>629.0</ele><time>2026-04-18T15:11:39.258Z</time></trkpt><trkpt lat="44.8826505" lon="9.4445148"><ele>630.75</ele><time>2026-04-18T15:11:40.258Z</time></trkpt><trkpt lat="44.8825536" lon="9.4444777"><ele>632.5</ele><time>2026-04-18T15:11:41.258Z</time></trkpt><trkpt lat="44.8824601" lon="9.4444499"><ele>634.25</ele><time>2026-04-18T15:11:42.258Z</time></trkpt><trkpt lat="44.8822274" lon="9.4444048"><ele>636.0</ele><time>2026-04-18T15:11:45.258Z</time></trkpt><trkpt lat="44.8820976" lon="9.4444175"><ele>636.0</ele><time>2026-04-18T15:11:47.259Z</time></trkpt><trkpt lat="44.8819512" lon="9.4444782"><ele>636.0</ele><time>2026-04-18T15:11:49.258Z</time></trkpt><trkpt lat="44.8818757" lon="9.4445039"><ele>636.0</ele><time>2026-04-18T15:11:50.258Z</time></trkpt><trkpt lat="44.8817869" lon="9.4445295"><ele>636.0</ele><time>2026-04-18T15:11:51.258Z</time></trkpt><trkpt lat="44.8816772" lon="9.4445639"><ele>636.0</ele><time>2026-04-18T15:11:52.258Z</time></trkpt><trkpt lat="44.8815796" lon="9.4445975"><ele>634.2</ele><time>2026-04-18T15:11:53.258Z</time></trkpt><trkpt lat="44.8814955" lon="9.4446279"><ele>632.4000000000001</ele><time>2026-04-18T15:11:54.258Z</time></trkpt><trkpt lat="44.8814216" lon="9.4446452"><ele>630.6</ele><time>2026-04-18T15:11:55.258Z</time></trkpt><trkpt lat="44.8813395" lon="9.444642"><ele>628.8000000000001</ele><time>2026-04-18T15:11:57.258Z</time></trkpt><trkpt lat="44.8811815" lon="9.4445919"><ele>627.0</ele><time>2026-04-18T15:12:33.258Z</time></trkpt><trkpt lat="44.8811042" lon="9.4445557"><ele>631.0</ele><time>2026-04-18T15:12:34.258Z</time></trkpt><trkpt lat="44.8810329" lon="9.444501"><ele>635.0</ele><time>2026-04-18T15:12:36.258Z</time></trkpt><trkpt lat="44.8808842" lon="9.4443696"><ele>639.0</ele><time>2026-04-18T15:14:36.258Z</time></trkpt><trkpt lat="44.8808182" lon="9.4443065"><ele>643.0</ele><time>2026-04-18T15:14:37.258Z</time></trkpt><trkpt lat="44.8807426" lon="9.4442288"><ele>647.0</ele><time>2026-04-18T15:14:38.258Z</time></trkpt><trkpt lat="44.8805948" lon="9.4440818"><ele>647.3333333333333</ele><time>2026-04-18T15:14:40.258Z</time></trkpt><trkpt lat="44.8805126" lon="9.4440174"><ele>647.6666666666666</ele><time>2026-04-18T15:14:41.258Z</time></trkpt><trkpt lat="44.8804259" lon="9.4439707"><ele>648.0</ele><time>2026-04-18T15:14:42.258Z</time></trkpt><trkpt lat="44.880345" lon="9.4439351"><ele>648.3333333333334</ele><time>2026-04-18T15:14:43.259Z</time></trkpt><trkpt lat="44.8802628" lon="9.4439073"><ele>648.6666666666667</ele><time>2026-04-18T15:14:44.259Z</time></trkpt><trkpt lat="44.8802045" lon="9.4438654"><ele>649.0</ele><time>2026-04-18T15:14:45.258Z</time></trkpt><trkpt lat="44.8801201" lon="9.4437492"><ele>651.5</ele><time>2026-04-18T15:14:47.259Z</time></trkpt><trkpt lat="44.8800201" lon="9.4434756"><ele>654.0</ele><time>2026-04-18T15:14:50.258Z</time></trkpt><trkpt lat="44.8798835" lon="9.4430241"><ele>655.5</ele><time>2026-04-18T15:14:54.259Z</time></trkpt><trkpt lat="44.8799026" lon="9.4425496"><ele>657.0</ele><time>2026-04-18T15:14:58.259Z</time></trkpt><trkpt lat="44.879922" lon="9.4421647"><ele>655.0</ele><time>2026-04-18T15:15:01.258Z</time></trkpt><trkpt lat="44.8799344" lon="9.442042"><ele>653.0</ele><time>2026-04-18T15:15:02.258Z</time></trkpt><trkpt lat="44.8799942" lon="9.4418191"><ele>651.0</ele><time>2026-04-18T15:15:04.258Z</time></trkpt><trkpt lat="44.8800734" lon="9.4416083"><ele>649.0</ele><time>2026-04-18T15:15:06.259Z</time></trkpt><trkpt lat="44.8800994" lon="9.4415021"><ele>653.1666666666667</ele><time>2026-04-18T15:15:07.258Z</time></trkpt><trkpt lat="44.8801224" lon="9.4413838"><ele>657.3333333333334</ele><time>2026-04-18T15:15:08.258Z</time></trkpt><trkpt lat="44.8801489" lon="9.4412714"><ele>661.5</ele><time>2026-04-18T15:15:09.259Z</time></trkpt><trkpt lat="44.880182" lon="9.4411722"><ele>665.6666666666666</ele><time>2026-04-18T15:15:10.259Z</time></trkpt><trkpt lat="44.8802112" lon="9.441059"><ele>669.8333333333333</ele><time>2026-04-18T15:15:11.258Z</time></trkpt><trkpt lat="44.8802385" lon="9.4409374"><ele>674.0</ele><time>2026-04-18T15:15:12.258Z</time></trkpt><trkpt lat="44.880263" lon="9.440838"><ele>674.0</ele><time>2026-04-18T15:15:13.258Z</time></trkpt><trkpt lat="44.880289" lon="9.4407481"><ele>674.0</ele><time>2026-04-18T15:15:14.258Z</time></trkpt><trkpt lat="44.8803528" lon="9.4406057"><ele>674.0</ele><time>2026-04-18T15:15:16.259Z</time></trkpt><trkpt lat="44.8804433" lon="9.4404657"><ele>674.0</ele><time>2026-04-18T15:15:18.259Z</time></trkpt><trkpt lat="44.8805037" lon="9.4403931"><ele>674.0</ele><time>2026-04-18T15:15:19.258Z</time></trkpt><trkpt lat="44.880607" lon="9.4402132"><ele>672.5</ele><time>2026-04-18T15:15:21.258Z</time></trkpt><trkpt lat="44.880639" lon="9.4401112"><ele>671.0</ele><time>2026-04-18T15:15:22.259Z</time></trkpt><trkpt lat="44.8806582" lon="9.4400047"><ele>669.5</ele><time>2026-04-18T15:15:23.258Z</time></trkpt><trkpt lat="44.8806969" lon="9.4396161"><ele>668.0</ele><time>2026-04-18T15:15:26.258Z</time></trkpt><trkpt lat="44.880694" lon="9.4394707"><ele>667.5999999999999</ele><time>2026-04-18T15:15:27.258Z</time></trkpt><trkpt lat="44.8806751" lon="9.4393257"><ele>667.1999999999999</ele><time>2026-04-18T15:15:28.258Z</time></trkpt><trkpt lat="44.8806516" lon="9.4391842"><ele>666.8</ele><time>2026-04-18T15:15:29.258Z</time></trkpt><trkpt lat="44.8806231" lon="9.4390488"><ele>666.4</ele><time>2026-04-18T15:15:30.258Z</time></trkpt><trkpt lat="44.8805884" lon="9.4389134"><ele>666.0</ele><time>2026-04-18T15:15:31.258Z</time></trkpt><trkpt lat="44.880495" lon="9.4386777"><ele>667.0</ele><time>2026-04-18T15:15:33.258Z</time></trkpt><trkpt lat="44.8804443" lon="9.438568"><ele>668.0</ele><time>2026-04-18T15:15:34.258Z</time></trkpt><trkpt lat="44.8804031" lon="9.4384594"><ele>669.0</ele><time>2026-04-18T15:15:35.258Z</time></trkpt><trkpt lat="44.8803737" lon="9.4383419"><ele>670.0</ele><time>2026-04-18T15:15:36.258Z</time></trkpt><trkpt lat="44.8803501" lon="9.438208"><ele>671.0</ele><time>2026-04-18T15:15:37.258Z</time></trkpt><trkpt lat="44.8803276" lon="9.4379314"><ele>671.0</ele><time>2026-04-18T15:15:39.259Z</time></trkpt><trkpt lat="44.8802614" lon="9.4376794"><ele>671.0</ele><time>2026-04-18T15:15:41.258Z</time></trkpt><trkpt lat="44.8802138" lon="9.4375609"><ele>671.0</ele><time>2026-04-18T15:15:42.259Z</time></trkpt><trkpt lat="44.8801381" lon="9.4373787"><ele>671.0</ele><time>2026-04-18T15:15:44.258Z</time></trkpt><trkpt lat="44.8800724" lon="9.437266"><ele>670.5</ele><time>2026-04-18T15:15:47.259Z</time></trkpt><trkpt lat="44.8799841" lon="9.4372017"><ele>670.0</ele><time>2026-04-18T15:15:58.258Z</time></trkpt><trkpt lat="44.8798174" lon="9.4372314"><ele>669.5</ele><time>2026-04-18T15:16:00.258Z</time></trkpt><trkpt lat="44.8797358" lon="9.4371907"><ele>669.0</ele><time>2026-04-18T15:16:01.258Z</time></trkpt><trkpt lat="44.8795889" lon="9.4370342"><ele>669.0</ele><time>2026-04-18T15:16:03.258Z</time></trkpt><trkpt lat="44.8795305" lon="9.43693"><ele>669.0</ele><time>2026-04-18T15:16:04.258Z</time></trkpt><trkpt lat="44.8794076" lon="9.436765"><ele>669.0</ele><time>2026-04-18T15:16:06.259Z</time></trkpt><trkpt lat="44.879351" lon="9.4367243"><ele>669.0</ele><time>2026-04-18T15:16:07.258Z</time></trkpt><trkpt lat="44.8792867" lon="9.436696"><ele>669.0</ele><time>2026-04-18T15:16:08.258Z</time></trkpt><trkpt lat="44.8791578" lon="9.4366772"><ele>668.25</ele><time>2026-04-18T15:16:10.258Z</time></trkpt><trkpt lat="44.8790359" lon="9.4366114"><ele>667.5</ele><time>2026-04-18T15:16:12.259Z</time></trkpt><trkpt lat="44.8789497" lon="9.4365034"><ele>666.75</ele><time>2026-04-18T15:16:14.258Z</time></trkpt><trkpt lat="44.8788816" lon="9.436376"><ele>666.0</ele><time>2026-04-18T15:16:16.258Z</time></trkpt><trkpt lat="44.8788087" lon="9.4362597"><ele>666.0</ele><time>2026-04-18T15:16:19.258Z</time></trkpt><trkpt lat="44.8787313" lon="9.4361933"><ele>666.0</ele><time>2026-04-18T15:16:21.258Z</time></trkpt><trkpt lat="44.8786556" lon="9.4361469"><ele>666.0</ele><time>2026-04-18T15:16:26.258Z</time></trkpt><trkpt lat="44.8785819" lon="9.4361589"><ele>666.0</ele><time>2026-04-18T15:16:29.258Z</time></trkpt><trkpt lat="44.8787294" lon="9.4362054"><ele>666.0</ele><time>2026-04-18T15:16:33.258Z</time></trkpt><trkpt lat="44.8788832" lon="9.4364"><ele>666.0</ele><time>2026-04-18T15:16:37.258Z</time></trkpt><trkpt lat="44.8789621" lon="9.4365388"><ele>666.0</ele><time>2026-04-18T15:16:40.259Z</time></trkpt><trkpt lat="44.8790207" lon="9.4364849"><ele>666.0</ele><time>2026-04-18T15:16:45.259Z</time></trkpt><trkpt lat="44.8789418" lon="9.4362519"><ele>666.0</ele><time>2026-04-18T15:16:48.258Z</time></trkpt><trkpt lat="44.8788596" lon="9.4361241"><ele>666.0</ele><time>2026-04-18T15:16:50.258Z</time></trkpt><trkpt lat="44.8787385" lon="9.4359514"><ele>666.0</ele><time>2026-04-18T15:16:53.259Z</time></trkpt><trkpt lat="44.8786236" lon="9.4358751"><ele>666.0</ele><time>2026-04-18T15:16:55.258Z</time></trkpt><trkpt lat="44.8784337" lon="9.4358361"><ele>667.0</ele><time>2026-04-18T15:16:58.258Z</time></trkpt><trkpt lat="44.8783703" lon="9.4358205"><ele>668.0</ele><time>2026-04-18T15:16:59.258Z</time></trkpt><trkpt lat="44.8781736" lon="9.4357602"><ele>669.0</ele><time>2026-04-18T15:17:02.258Z</time></trkpt><trkpt lat="44.8777556" lon="9.4357965"><ele>669.0</ele><time>2026-04-18T15:17:09.258Z</time></trkpt><trkpt lat="44.8776758" lon="9.4357579"><ele>669.0</ele><time>2026-04-18T15:17:11.259Z</time></trkpt><trkpt lat="44.8776263" lon="9.4356488"><ele>669.0</ele><time>2026-04-18T15:17:13.258Z</time></trkpt><trkpt lat="44.8777484" lon="9.4354554"><ele>669.0</ele><time>2026-04-18T15:17:18.258Z</time></trkpt><trkpt lat="44.8777995" lon="9.4352612"><ele>665.6666666666666</ele><time>2026-04-18T15:17:21.258Z</time></trkpt><trkpt lat="44.8778067" lon="9.4351689"><ele>662.3333333333334</ele><time>2026-04-18T15:17:22.258Z</time></trkpt><trkpt lat="44.8778037" lon="9.4350716"><ele>659.0</ele><time>2026-04-18T15:17:23.258Z</time></trkpt><trkpt lat="44.8777917" lon="9.4349537"><ele>655.6666666666667</ele><time>2026-04-18T15:17:24.258Z</time></trkpt><trkpt lat="44.8777702" lon="9.4348392"><ele>652.3333333333334</ele><time>2026-04-18T15:17:25.259Z</time></trkpt><trkpt lat="44.8777477" lon="9.4347219"><ele>649.0</ele><time>2026-04-18T15:17:26.258Z</time></trkpt><trkpt lat="44.8777256" lon="9.4346161"><ele>646.8333333333334</ele><time>2026-04-18T15:17:27.258Z</time></trkpt><trkpt lat="44.8777072" lon="9.4345189"><ele>644.6666666666667</ele><time>2026-04-18T15:17:28.258Z</time></trkpt><trkpt lat="44.87769" lon="9.434421"><ele>642.5</ele><time>2026-04-18T15:17:29.258Z</time></trkpt><trkpt lat="44.8776779" lon="9.434324"><ele>640.3333333333334</ele><time>2026-04-18T15:17:30.258Z</time></trkpt><trkpt lat="44.877671" lon="9.4342306"><ele>638.1666666666666</ele><time>2026-04-18T15:17:31.258Z</time></trkpt><trkpt lat="44.8776645" lon="9.4340454"><ele>636.0</ele><time>2026-04-18T15:17:33.258Z</time></trkpt><trkpt lat="44.8776898" lon="9.4338994"><ele>634.0</ele><time>2026-04-18T15:17:35.259Z</time></trkpt><trkpt lat="44.8777287" lon="9.43366"><ele>632.0</ele><time>2026-04-18T15:17:38.259Z</time></trkpt><trkpt lat="44.8777514" lon="9.4335732"><ele>630.0</ele><time>2026-04-18T15:17:39.258Z</time></trkpt><trkpt lat="44.8777876" lon="9.4334218"><ele>628.0</ele><time>2026-04-18T15:17:41.258Z</time></trkpt><trkpt lat="44.8778235" lon="9.4331176"><ele>625.75</ele><time>2026-04-18T15:17:45.258Z</time></trkpt><trkpt lat="44.877817" lon="9.4329556"><ele>623.5</ele><time>2026-04-18T15:17:47.258Z</time></trkpt><trkpt lat="44.8777751" lon="9.4326827"><ele>621.25</ele><time>2026-04-18T15:17:50.258Z</time></trkpt><trkpt lat="44.8777546" lon="9.4325879"><ele>619.0</ele><time>2026-04-18T15:17:51.259Z</time></trkpt><trkpt lat="44.8777318" lon="9.4324988"><ele>619.0</ele><time>2026-04-18T15:17:52.258Z</time></trkpt><trkpt lat="44.8776965" lon="9.4323403"><ele>619.0</ele><time>2026-04-18T15:17:54.259Z</time></trkpt><trkpt lat="44.8776877" lon="9.4322326"><ele>619.0</ele><time>2026-04-18T15:17:56.258Z</time></trkpt><trkpt lat="44.8776955" lon="9.4321342"><ele>619.0</ele><time>2026-04-18T15:22:14.258Z</time></trkpt><trkpt lat="44.8776869" lon="9.4320091"><ele>619.0</ele><time>2026-04-18T15:22:16.258Z</time></trkpt><trkpt lat="44.8776768" lon="9.4319112"><ele>619.0</ele><time>2026-04-18T15:22:17.258Z</time></trkpt><trkpt lat="44.8776783" lon="9.4318111"><ele>616.25</ele><time>2026-04-18T15:22:18.259Z</time></trkpt><trkpt lat="44.877733" lon="9.4316749"><ele>613.5</ele><time>2026-04-18T15:22:20.258Z</time></trkpt><trkpt lat="44.8778169" lon="9.4315398"><ele>610.75</ele><time>2026-04-18T15:22:22.258Z</time></trkpt><trkpt lat="44.8778965" lon="9.4314344"><ele>608.0</ele><time>2026-04-18T15:22:24.259Z</time></trkpt><trkpt lat="44.8779653" lon="9.4313129"><ele>606.8333333333333</ele><time>2026-04-18T15:22:26.258Z</time></trkpt><trkpt lat="44.8779943" lon="9.4312235"><ele>605.6666666666666</ele><time>2026-04-18T15:22:28.258Z</time></trkpt><trkpt lat="44.8779627" lon="9.4311425"><ele>604.5</ele><time>2026-04-18T15:22:31.258Z</time></trkpt><trkpt lat="44.8780291" lon="9.4311372"><ele>603.3333333333334</ele><time>2026-04-18T15:27:32.258Z</time></trkpt><trkpt lat="44.8781287" lon="9.4311187"><ele>602.1666666666667</ele><time>2026-04-18T15:27:36.258Z</time></trkpt><trkpt lat="44.8781622" lon="9.4310256"><ele>601.0</ele><time>2026-04-18T15:27:38.258Z</time></trkpt><trkpt lat="44.8782087" lon="9.4309208"><ele>601.0</ele><time>2026-04-18T15:27:41.258Z</time></trkpt><trkpt lat="44.8782974" lon="9.4309196"><ele>601.0</ele><time>2026-04-18T15:27:43.259Z</time></trkpt><trkpt lat="44.8783925" lon="9.4309279"><ele>601.0</ele><time>2026-04-18T15:27:45.258Z</time></trkpt><trkpt lat="44.8784874" lon="9.4309672"><ele>601.0</ele><time>2026-04-18T15:27:47.259Z</time></trkpt><trkpt lat="44.878711" lon="9.4310172"><ele>598.0</ele><time>2026-04-18T15:27:50.258Z</time></trkpt><trkpt lat="44.8788972" lon="9.4310819"><ele>595.0</ele><time>2026-04-18T15:27:52.259Z</time></trkpt><trkpt lat="44.8789912" lon="9.4311147"><ele>592.0</ele><time>2026-04-18T15:27:53.258Z</time></trkpt><trkpt lat="44.8790742" lon="9.4311432"><ele>589.0</ele><time>2026-04-18T15:27:54.258Z</time></trkpt><trkpt lat="44.8791469" lon="9.431172"><ele>589.0</ele><time>2026-04-18T15:27:55.259Z</time></trkpt><trkpt lat="44.8792196" lon="9.4312002"><ele>589.0</ele><time>2026-04-18T15:27:56.258Z</time></trkpt><trkpt lat="44.8792944" lon="9.4312289"><ele>589.0</ele><time>2026-04-18T15:27:57.259Z</time></trkpt><trkpt lat="44.8793754" lon="9.43126"><ele>589.0</ele><time>2026-04-18T15:27:58.259Z</time></trkpt><trkpt lat="44.8794625" lon="9.4313056"><ele>589.0</ele><time>2026-04-18T15:27:59.258Z</time></trkpt><trkpt lat="44.8797011" lon="9.4314709"><ele>587.75</ele><time>2026-04-18T15:28:02.259Z</time></trkpt><trkpt lat="44.8797691" lon="9.431529"><ele>586.5</ele><time>2026-04-18T15:28:03.259Z</time></trkpt><trkpt lat="44.8798274" lon="9.4316"><ele>585.25</ele><time>2026-04-18T15:28:04.258Z</time></trkpt><trkpt lat="44.8798967" lon="9.4316786"><ele>584.0</ele><time>2026-04-18T15:28:05.258Z</time></trkpt><trkpt lat="44.8800634" lon="9.431879"><ele>581.5</ele><time>2026-04-18T15:28:07.258Z</time></trkpt><trkpt lat="44.880146" lon="9.4319842"><ele>579.0</ele><time>2026-04-18T15:28:08.258Z</time></trkpt><trkpt lat="44.8802332" lon="9.4320721"><ele>576.5</ele><time>2026-04-18T15:28:09.258Z</time></trkpt><trkpt lat="44.880314" lon="9.4321123"><ele>574.0</ele><time>2026-04-18T15:28:10.259Z</time></trkpt><trkpt lat="44.8805881" lon="9.432042"><ele>574.0</ele><time>2026-04-18T15:28:13.258Z</time></trkpt><trkpt lat="44.8806697" lon="9.4319803"><ele>574.0</ele><time>2026-04-18T15:28:14.258Z</time></trkpt><trkpt lat="44.8808268" lon="9.4319204"><ele>574.0</ele><time>2026-04-18T15:28:16.258Z</time></trkpt><trkpt lat="44.880982" lon="9.4319686"><ele>574.0</ele><time>2026-04-18T15:28:18.258Z</time></trkpt><trkpt lat="44.881054" lon="9.4319611"><ele>573.25</ele><time>2026-04-18T15:28:19.258Z</time></trkpt><trkpt lat="44.8812224" lon="9.4318189"><ele>572.5</ele><time>2026-04-18T15:28:22.258Z</time></trkpt><trkpt lat="44.8812728" lon="9.4317433"><ele>571.75</ele><time>2026-04-18T15:28:23.258Z</time></trkpt><trkpt lat="44.8813123" lon="9.4316041"><ele>571.0</ele><time>2026-04-18T15:28:25.259Z</time></trkpt><trkpt lat="44.881261" lon="9.4310499"><ele>548.0</ele><time>2026-04-18T15:28:30.259Z</time></trkpt><trkpt lat="44.8810034" lon="9.430119"><ele>547.4</ele><time>2026-04-18T15:28:40.258Z</time></trkpt><trkpt lat="44.8809232" lon="9.4300485"><ele>546.8</ele><time>2026-04-18T15:28:41.259Z</time></trkpt><trkpt lat="44.8808292" lon="9.4298928"><ele>546.2</ele><time>2026-04-18T15:28:43.259Z</time></trkpt><trkpt lat="44.8808159" lon="9.4298033"><ele>545.6</ele><time>2026-04-18T15:28:44.258Z</time></trkpt><trkpt lat="44.8808498" lon="9.4296238"><ele>545.0</ele><time>2026-04-18T15:28:46.258Z</time></trkpt><trkpt lat="44.8808764" lon="9.4294204"><ele>545.0</ele><time>2026-04-18T15:28:48.258Z</time></trkpt><trkpt lat="44.8808753" lon="9.4293135"><ele>545.0</ele><time>2026-04-18T15:28:49.258Z</time></trkpt><trkpt lat="44.8808637" lon="9.4290685"><ele>545.0</ele><time>2026-04-18T15:28:51.258Z</time></trkpt><trkpt lat="44.8808565" lon="9.4289566"><ele>545.0</ele><time>2026-04-18T15:28:52.258Z</time></trkpt><trkpt lat="44.8808533" lon="9.4288443"><ele>545.0</ele><time>2026-04-18T15:28:53.258Z</time></trkpt><trkpt lat="44.8808481" lon="9.4287482"><ele>543.4</ele><time>2026-04-18T15:28:54.258Z</time></trkpt><trkpt lat="44.880852" lon="9.4285594"><ele>541.8</ele><time>2026-04-18T15:28:58.259Z</time></trkpt><trkpt lat="44.8808507" lon="9.4284547"><ele>540.2</ele><time>2026-04-18T15:29:00.259Z</time></trkpt><trkpt lat="44.8808461" lon="9.4283541"><ele>538.6</ele><time>2026-04-18T15:29:02.258Z</time></trkpt><trkpt lat="44.880844" lon="9.428226"><ele>537.0</ele><time>2026-04-18T15:29:04.258Z</time></trkpt><trkpt lat="44.8808421" lon="9.4281034"><ele>535.0</ele><time>2026-04-18T15:29:06.258Z</time></trkpt><trkpt lat="44.8808747" lon="9.4277705"><ele>533.0</ele><time>2026-04-18T15:29:09.258Z</time></trkpt><trkpt lat="44.880894" lon="9.4276453"><ele>531.0</ele><time>2026-04-18T15:29:10.258Z</time></trkpt><trkpt lat="44.8809259" lon="9.427532"><ele>529.0</ele><time>2026-04-18T15:29:11.258Z</time></trkpt><trkpt lat="44.8809987" lon="9.4272889"><ele>526.5</ele><time>2026-04-18T15:29:13.259Z</time></trkpt><trkpt lat="44.8807469" lon="9.4268801"><ele>524.0</ele><time>2026-04-18T15:29:18.258Z</time></trkpt><trkpt lat="44.8801597" lon="9.4262937"><ele>519.5</ele><time>2026-04-18T15:29:25.258Z</time></trkpt><trkpt lat="44.8801146" lon="9.4259792"><ele>515.0</ele><time>2026-04-18T15:29:28.259Z</time></trkpt><trkpt lat="44.8803656" lon="9.4254713"><ele>515.0</ele><time>2026-04-18T15:29:33.259Z</time></trkpt><trkpt lat="44.8806558" lon="9.4256551"><ele>515.0</ele><time>2026-04-18T15:29:37.258Z</time></trkpt><trkpt lat="44.8807092" lon="9.4257527"><ele>515.0</ele><time>2026-04-18T15:29:38.258Z</time></trkpt><trkpt lat="44.880909" lon="9.4258597"><ele>513.0</ele><time>2026-04-18T15:29:41.258Z</time></trkpt><trkpt lat="44.8809916" lon="9.4258319"><ele>511.0</ele><time>2026-04-18T15:29:42.258Z</time></trkpt><trkpt lat="44.881079" lon="9.4257785"><ele>509.0</ele><time>2026-04-18T15:29:43.258Z</time></trkpt><trkpt lat="44.881171" lon="9.4257227"><ele>507.0</ele><time>2026-04-18T15:29:44.259Z</time></trkpt><trkpt lat="44.8815153" lon="9.4256688"><ele>507.0</ele><time>2026-04-18T15:29:48.258Z</time></trkpt><trkpt lat="44.881596" lon="9.4257231"><ele>507.0</ele><time>2026-04-18T15:29:49.259Z</time></trkpt><trkpt lat="44.8817513" lon="9.4259006"><ele>507.0</ele><time>2026-04-18T15:29:51.258Z</time></trkpt><trkpt lat="44.8818288" lon="9.4260221"><ele>507.0</ele><time>2026-04-18T15:29:52.258Z</time></trkpt><trkpt lat="44.881908" lon="9.42615"><ele>504.0</ele><time>2026-04-18T15:29:53.259Z</time></trkpt><trkpt lat="44.8819831" lon="9.4262762"><ele>501.0</ele><time>2026-04-18T15:29:54.259Z</time></trkpt><trkpt lat="44.8820532" lon="9.4264036"><ele>498.0</ele><time>2026-04-18T15:29:55.258Z</time></trkpt><trkpt lat="44.8822473" lon="9.4266666"><ele>498.0</ele><time>2026-04-18T15:29:58.259Z</time></trkpt><trkpt lat="44.8823293" lon="9.4266882"><ele>498.0</ele><time>2026-04-18T15:29:59.259Z</time></trkpt><trkpt lat="44.8824872" lon="9.4266137"><ele>498.0</ele><time>2026-04-18T15:30:01.259Z</time></trkpt><trkpt lat="44.882635" lon="9.4262757"><ele>489.0</ele><time>2026-04-18T15:30:04.258Z</time></trkpt><trkpt lat="44.8825681" lon="9.4255857"><ele>472.0</ele><time>2026-04-18T15:30:10.258Z</time></trkpt><trkpt lat="44.8828918" lon="9.4250786"><ele>472.0</ele><time>2026-04-18T15:30:17.258Z</time></trkpt><trkpt lat="44.8829899" lon="9.4251235"><ele>472.0</ele><time>2026-04-18T15:30:18.259Z</time></trkpt><trkpt lat="44.8831625" lon="9.4251419"><ele>472.0</ele><time>2026-04-18T15:30:20.258Z</time></trkpt><trkpt lat="44.8832334" lon="9.4251018"><ele>472.0</ele><time>2026-04-18T15:30:21.259Z</time></trkpt><trkpt lat="44.8833366" lon="9.4249276"><ele>464.5</ele><time>2026-04-18T15:30:23.258Z</time></trkpt><trkpt lat="44.8834403" lon="9.4245735"><ele>457.0</ele><time>2026-04-18T15:30:26.258Z</time></trkpt><trkpt lat="44.8837271" lon="9.4242852"><ele>457.0</ele><time>2026-04-18T15:30:30.258Z</time></trkpt><trkpt lat="44.8838101" lon="9.4242654"><ele>457.00000000000006</ele><time>2026-04-18T15:30:31.259Z</time></trkpt><trkpt lat="44.883878" lon="9.4242422"><ele>457.00000000000006</ele><time>2026-04-18T15:30:32.258Z</time></trkpt><trkpt lat="44.8839173" lon="9.4240824"><ele>457.0</ele><time>2026-04-18T15:30:35.258Z</time></trkpt><trkpt lat="44.8838392" lon="9.4240249"><ele>457.0</ele><time>2026-04-18T15:30:37.258Z</time></trkpt><trkpt lat="44.8837441" lon="9.4239709"><ele>457.0</ele><time>2026-04-18T15:30:39.258Z</time></trkpt><trkpt lat="44.8837251" lon="9.4238251"><ele>457.0</ele><time>2026-04-18T15:30:41.258Z</time></trkpt><trkpt lat="44.8837625" lon="9.4237468"><ele>457.0</ele><time>2026-04-18T15:30:42.259Z</time></trkpt><trkpt lat="44.8838176" lon="9.4236586"><ele>457.0</ele><time>2026-04-18T15:30:43.258Z</time></trkpt><trkpt lat="44.8839675" lon="9.4233102"><ele>454.25</ele><time>2026-04-18T15:30:46.259Z</time></trkpt><trkpt lat="44.8840848" lon="9.4229393"><ele>451.5</ele><time>2026-04-18T15:30:50.258Z</time></trkpt><trkpt lat="44.8840971" lon="9.422844"><ele>448.75</ele><time>2026-04-18T15:30:52.259Z</time></trkpt><trkpt lat="44.884063" lon="9.4227515"><ele>446.0</ele><time>2026-04-18T15:30:54.258Z</time></trkpt><trkpt lat="44.8838756" lon="9.422574"><ele>446.0</ele><time>2026-04-18T15:30:57.258Z</time></trkpt><trkpt lat="44.8837216" lon="9.4224146"><ele>446.0</ele><time>2026-04-18T15:30:59.258Z</time></trkpt><trkpt lat="44.8836487" lon="9.4223336"><ele>446.0</ele><time>2026-04-18T15:31:00.258Z</time></trkpt><trkpt lat="44.8834055" lon="9.4220894"><ele>445.0</ele><time>2026-04-18T15:31:03.258Z</time></trkpt><trkpt lat="44.8829355" lon="9.4217312"><ele>445.00000000000006</ele><time>2026-04-18T15:31:08.259Z</time></trkpt><trkpt lat="44.8828613" lon="9.4216407"><ele>445.0</ele><time>2026-04-18T15:31:09.258Z</time></trkpt><trkpt lat="44.8828182" lon="9.4215476"><ele>445.0</ele><time>2026-04-18T15:31:10.258Z</time></trkpt><trkpt lat="44.8828074" lon="9.4214499"><ele>445.0</ele><time>2026-04-18T15:31:11.259Z</time></trkpt><trkpt lat="44.8828124" lon="9.4213401"><ele>445.00000000000006</ele><time>2026-04-18T15:31:12.258Z</time></trkpt><trkpt lat="44.8828305" lon="9.4212201"><ele>445.0</ele><time>2026-04-18T15:31:13.258Z</time></trkpt><trkpt lat="44.8828603" lon="9.4210887"><ele>443.6666666666667</ele><time>2026-04-18T15:31:14.259Z</time></trkpt><trkpt lat="44.8829065" lon="9.4208366"><ele>442.33333333333337</ele><time>2026-04-18T15:31:16.258Z</time></trkpt><trkpt lat="44.8829702" lon="9.4206072"><ele>441.0</ele><time>2026-04-18T15:31:18.258Z</time></trkpt><trkpt lat="44.883022" lon="9.4204981"><ele>441.33333333333337</ele><time>2026-04-18T15:31:19.259Z</time></trkpt><trkpt lat="44.8831203" lon="9.4202762"><ele>441.6666666666667</ele><time>2026-04-18T15:31:21.258Z</time></trkpt><trkpt lat="44.8831648" lon="9.4201587"><ele>442.0</ele><time>2026-04-18T15:31:22.258Z</time></trkpt><trkpt lat="44.8832673" lon="9.4198967"><ele>444.33333333333337</ele><time>2026-04-18T15:31:24.258Z</time></trkpt><trkpt lat="44.8833764" lon="9.4196431"><ele>446.66666666666663</ele><time>2026-04-18T15:31:26.259Z</time></trkpt><trkpt lat="44.8835244" lon="9.4194084"><ele>449.0</ele><time>2026-04-18T15:31:28.258Z</time></trkpt><trkpt lat="44.8836047" lon="9.4192826"><ele>441.5</ele><time>2026-04-18T15:31:29.259Z</time></trkpt><trkpt lat="44.8836945" lon="9.4191736"><ele>434.0</ele><time>2026-04-18T15:31:30.258Z</time></trkpt><trkpt lat="44.8840955" lon="9.4188482"><ele>433.25</ele><time>2026-04-18T15:31:34.258Z</time></trkpt><trkpt lat="44.8841887" lon="9.4187627"><ele>432.5</ele><time>2026-04-18T15:31:35.258Z</time></trkpt><trkpt lat="44.8843493" lon="9.418558"><ele>431.75</ele><time>2026-04-18T15:31:37.258Z</time></trkpt><trkpt lat="44.8844291" lon="9.4184359"><ele>431.0</ele><time>2026-04-18T15:31:38.258Z</time></trkpt><trkpt lat="44.884724" lon="9.4181407"><ele>431.0</ele><time>2026-04-18T15:31:41.258Z</time></trkpt><trkpt lat="44.8848278" lon="9.4180549"><ele>431.0</ele><time>2026-04-18T15:31:42.258Z</time></trkpt><trkpt lat="44.8849161" lon="9.417956"><ele>431.0</ele><time>2026-04-18T15:31:43.258Z</time></trkpt><trkpt lat="44.885063" lon="9.417735"><ele>431.0</ele><time>2026-04-18T15:31:45.258Z</time></trkpt><trkpt lat="44.8851437" lon="9.417619"><ele>427.5</ele><time>2026-04-18T15:31:46.259Z</time></trkpt><trkpt lat="44.8852421" lon="9.4175242"><ele>424.0</ele><time>2026-04-18T15:31:47.259Z</time></trkpt><trkpt lat="44.8856395" lon="9.4173194"><ele>424.0</ele><time>2026-04-18T15:31:50.259Z</time></trkpt><trkpt lat="44.8857593" lon="9.4172619"><ele>424.0</ele><time>2026-04-18T15:31:51.259Z</time></trkpt><trkpt lat="44.8859076" lon="9.417144"><ele>424.0</ele><time>2026-04-18T15:31:53.259Z</time></trkpt><trkpt lat="44.8859447" lon="9.4170518"><ele>424.0</ele><time>2026-04-18T15:31:54.258Z</time></trkpt><trkpt lat="44.8859644" lon="9.4169267"><ele>424.5</ele><time>2026-04-18T15:31:55.258Z</time></trkpt><trkpt lat="44.8859752" lon="9.4166395"><ele>425.0</ele><time>2026-04-18T15:31:57.259Z</time></trkpt><trkpt lat="44.886004" lon="9.416498"><ele>425.5</ele><time>2026-04-18T15:31:58.258Z</time></trkpt><trkpt lat="44.8860484" lon="9.4163776"><ele>426.0</ele><time>2026-04-18T15:31:59.258Z</time></trkpt><trkpt lat="44.8861059" lon="9.4162495"><ele>426.0</ele><time>2026-04-18T15:32:00.258Z</time></trkpt><trkpt lat="44.8863534" lon="9.4158207"><ele>426.0</ele><time>2026-04-18T15:32:04.258Z</time></trkpt><trkpt lat="44.8864055" lon="9.4157007"><ele>426.0</ele><time>2026-04-18T15:32:05.258Z</time></trkpt><trkpt lat="44.8864431" lon="9.4155933"><ele>426.0</ele><time>2026-04-18T15:32:06.259Z</time></trkpt><trkpt lat="44.8864695" lon="9.4155062"><ele>426.0</ele><time>2026-04-18T15:32:07.258Z</time></trkpt><trkpt lat="44.8864623" lon="9.4153782"><ele>426.0</ele><time>2026-04-18T15:32:09.258Z</time></trkpt><trkpt lat="44.8863341" lon="9.4152614"><ele>426.0</ele><time>2026-04-18T15:32:12.259Z</time></trkpt><trkpt lat="44.8858826" lon="9.4151381"><ele>433.33333333333337</ele><time>2026-04-18T15:32:18.258Z</time></trkpt><trkpt lat="44.8856971" lon="9.4150121"><ele>440.6666666666667</ele><time>2026-04-18T15:32:20.258Z</time></trkpt><trkpt lat="44.8856008" lon="9.4149569"><ele>448.0</ele><time>2026-04-18T15:32:21.258Z</time></trkpt><trkpt lat="44.8853355" lon="9.414714"><ele>449.6666666666667</ele><time>2026-04-18T15:32:25.258Z</time></trkpt><trkpt lat="44.8853172" lon="9.4146026"><ele>451.33333333333337</ele><time>2026-04-18T15:32:26.258Z</time></trkpt><trkpt lat="44.8853044" lon="9.4142688"><ele>453.0</ele><time>2026-04-18T15:32:28.258Z</time></trkpt><trkpt lat="44.8852829" lon="9.4138086"><ele>454.0</ele><time>2026-04-18T15:32:31.258Z</time></trkpt><trkpt lat="44.8851286" lon="9.4134438"><ele>455.0</ele><time>2026-04-18T15:32:35.258Z</time></trkpt><trkpt lat="44.8847853" lon="9.4134675"><ele>459.0</ele><time>2026-04-18T15:32:40.259Z</time></trkpt><trkpt lat="44.884698" lon="9.4134662"><ele>463.0</ele><time>2026-04-18T15:32:41.259Z</time></trkpt><trkpt lat="44.8845474" lon="9.4134862"><ele>467.0</ele><time>2026-04-18T15:32:43.259Z</time></trkpt><trkpt lat="44.8843665" lon="9.4136562"><ele>467.0</ele><time>2026-04-18T15:32:46.259Z</time></trkpt><trkpt lat="44.8843397" lon="9.4137562"><ele>467.00000000000006</ele><time>2026-04-18T15:32:47.258Z</time></trkpt><trkpt lat="44.8843271" lon="9.413873"><ele>467.00000000000006</ele><time>2026-04-18T15:32:48.258Z</time></trkpt><trkpt lat="44.8843033" lon="9.4139874"><ele>467.0</ele><time>2026-04-18T15:32:49.258Z</time></trkpt><trkpt lat="44.884268" lon="9.4140995"><ele>467.0</ele><time>2026-04-18T15:32:50.258Z</time></trkpt><trkpt lat="44.8841965" lon="9.4143276"><ele>470.40000000000003</ele><time>2026-04-18T15:32:52.259Z</time></trkpt><trkpt lat="44.8841583" lon="9.4144292"><ele>473.80000000000007</ele><time>2026-04-18T15:32:53.258Z</time></trkpt><trkpt lat="44.8841116" lon="9.4145161"><ele>477.2</ele><time>2026-04-18T15:32:54.258Z</time></trkpt><trkpt lat="44.8840485" lon="9.4145851"><ele>480.6</ele><time>2026-04-18T15:32:55.258Z</time></trkpt><trkpt lat="44.8839717" lon="9.4146525"><ele>484.0</ele><time>2026-04-18T15:32:56.258Z</time></trkpt><trkpt lat="44.8837815" lon="9.4148095"><ele>484.6666666666667</ele><time>2026-04-18T15:32:58.258Z</time></trkpt><trkpt lat="44.8836125" lon="9.4149339"><ele>485.33333333333337</ele><time>2026-04-18T15:33:00.258Z</time></trkpt><trkpt lat="44.8834449" lon="9.4150193"><ele>486.0</ele><time>2026-04-18T15:33:02.258Z</time></trkpt><trkpt lat="44.8833576" lon="9.4150313"><ele>489.20000000000005</ele><time>2026-04-18T15:33:03.258Z</time></trkpt><trkpt lat="44.8831763" lon="9.4149793"><ele>492.40000000000003</ele><time>2026-04-18T15:33:05.258Z</time></trkpt><trkpt lat="44.8830951" lon="9.4149204"><ele>495.6</ele><time>2026-04-18T15:33:06.258Z</time></trkpt><trkpt lat="44.8830204" lon="9.414859"><ele>498.8</ele><time>2026-04-18T15:33:07.258Z</time></trkpt><trkpt lat="44.8829624" lon="9.414785"><ele>502.0</ele><time>2026-04-18T15:33:08.258Z</time></trkpt><trkpt lat="44.8829111" lon="9.4147002"><ele>501.0</ele><time>2026-04-18T15:33:09.258Z</time></trkpt><trkpt lat="44.8828124" lon="9.4145037"><ele>500.00000000000006</ele><time>2026-04-18T15:33:11.258Z</time></trkpt><trkpt lat="44.8827579" lon="9.4144188"><ele>499.00000000000006</ele><time>2026-04-18T15:33:12.258Z</time></trkpt><trkpt lat="44.882705" lon="9.4143668"><ele>498.0</ele><time>2026-04-18T15:33:13.259Z</time></trkpt><trkpt lat="44.8825811" lon="9.4143558"><ele>497.0</ele><time>2026-04-18T15:33:15.259Z</time></trkpt><trkpt lat="44.8825187" lon="9.4143925"><ele>500.5</ele><time>2026-04-18T15:33:16.258Z</time></trkpt><trkpt lat="44.8824612" lon="9.4144378"><ele>504.0</ele><time>2026-04-18T15:33:17.258Z</time></trkpt><trkpt lat="44.8823926" lon="9.4144651"><ele>507.5</ele><time>2026-04-18T15:33:18.258Z</time></trkpt><trkpt lat="44.8821225" lon="9.4144347"><ele>511.0</ele><time>2026-04-18T15:33:21.258Z</time></trkpt><trkpt lat="44.8820149" lon="9.4144121"><ele>511.0</ele><time>2026-04-18T15:33:22.258Z</time></trkpt><trkpt lat="44.881908" lon="9.4144054"><ele>511.0</ele><time>2026-04-18T15:33:23.258Z</time></trkpt><trkpt lat="44.8814853" lon="9.4144677"><ele>514.6666666666667</ele><time>2026-04-18T15:33:27.259Z</time></trkpt><trkpt lat="44.8813842" lon="9.4144658"><ele>518.3333333333334</ele><time>2026-04-18T15:33:28.258Z</time></trkpt><trkpt lat="44.8811859" lon="9.4144143"><ele>522.0</ele><time>2026-04-18T15:33:30.258Z</time></trkpt><trkpt lat="44.8809196" lon="9.4143202"><ele>524.1666666666666</ele><time>2026-04-18T15:33:33.258Z</time></trkpt><trkpt lat="44.8808512" lon="9.4143281"><ele>526.3333333333334</ele><time>2026-04-18T15:33:34.258Z</time></trkpt><trkpt lat="44.8807777" lon="9.4143508"><ele>528.5</ele><time>2026-04-18T15:33:35.259Z</time></trkpt><trkpt lat="44.8807123" lon="9.4143922"><ele>530.6666666666667</ele><time>2026-04-18T15:33:36.258Z</time></trkpt><trkpt lat="44.8806532" lon="9.4144322"><ele>532.8333333333334</ele><time>2026-04-18T15:33:37.258Z</time></trkpt><trkpt lat="44.8805181" lon="9.4145198"><ele>535.0</ele><time>2026-04-18T15:33:39.258Z</time></trkpt><trkpt lat="44.8804573" lon="9.4145558"><ele>535.0</ele><time>2026-04-18T15:33:40.258Z</time></trkpt><trkpt lat="44.8803592" lon="9.4146175"><ele>535.0</ele><time>2026-04-18T15:33:42.258Z</time></trkpt><trkpt lat="44.8802957" lon="9.4146394"><ele>535.0</ele><time>2026-04-18T15:33:45.258Z</time></trkpt><trkpt lat="44.8802129" lon="9.4146678"><ele>535.0</ele><time>2026-04-18T15:34:31.259Z</time></trkpt><trkpt lat="44.8801457" lon="9.4146854"><ele>535.0</ele><time>2026-04-18T15:34:32.258Z</time></trkpt><trkpt lat="44.8799555" lon="9.4147284"><ele>539.0</ele><time>2026-04-18T15:34:34.258Z</time></trkpt><trkpt lat="44.8796121" lon="9.4147942"><ele>543.0</ele><time>2026-04-18T15:34:37.258Z</time></trkpt><trkpt lat="44.8793989" lon="9.4148018"><ele>547.5</ele><time>2026-04-18T15:34:39.258Z</time></trkpt><trkpt lat="44.8791964" lon="9.4147641"><ele>552.0</ele><time>2026-04-18T15:34:41.259Z</time></trkpt><trkpt lat="44.8788982" lon="9.4146607"><ele>555.5</ele><time>2026-04-18T15:34:44.258Z</time></trkpt><trkpt lat="44.8786884" lon="9.4146263"><ele>559.0</ele><time>2026-04-18T15:34:46.258Z</time></trkpt><trkpt lat="44.8781749" lon="9.4147676"><ele>559.0</ele><time>2026-04-18T15:34:51.258Z</time></trkpt><trkpt lat="44.8780829" lon="9.4147718"><ele>559.0</ele><time>2026-04-18T15:34:52.259Z</time></trkpt><trkpt lat="44.8779125" lon="9.4142641"><ele>561.0</ele><time>2026-04-18T15:34:58.259Z</time></trkpt><trkpt lat="44.8779559" lon="9.4140995"><ele>563.0</ele><time>2026-04-18T15:34:59.258Z</time></trkpt><trkpt lat="44.8780085" lon="9.4139679"><ele>565.0</ele><time>2026-04-18T15:35:00.258Z</time></trkpt><trkpt lat="44.8780711" lon="9.4138508"><ele>567.0</ele><time>2026-04-18T15:35:01.258Z</time></trkpt><trkpt lat="44.8781437" lon="9.4137326"><ele>569.0</ele><time>2026-04-18T15:35:02.258Z</time></trkpt><trkpt lat="44.8782852" lon="9.4135074"><ele>568.0</ele><time>2026-04-18T15:35:04.258Z</time></trkpt><trkpt lat="44.8784764" lon="9.4131865"><ele>567.0</ele><time>2026-04-18T15:35:07.258Z</time></trkpt><trkpt lat="44.8785568" lon="9.4126718"><ele>567.0</ele><time>2026-04-18T15:35:12.258Z</time></trkpt><trkpt lat="44.8785164" lon="9.4125658"><ele>567.0</ele><time>2026-04-18T15:35:13.258Z</time></trkpt><trkpt lat="44.8784681" lon="9.4123357"><ele>567.0</ele><time>2026-04-18T15:35:15.259Z</time></trkpt><trkpt lat="44.8784396" lon="9.4122355"><ele>567.0</ele><time>2026-04-18T15:35:16.258Z</time></trkpt><trkpt lat="44.8784077" lon="9.4121326"><ele>567.0</ele><time>2026-04-18T15:35:17.258Z</time></trkpt><trkpt lat="44.8783658" lon="9.412029"><ele>576.5</ele><time>2026-04-18T15:35:18.258Z</time></trkpt><trkpt lat="44.87825" lon="9.4118613"><ele>586.0</ele><time>2026-04-18T15:35:20.258Z</time></trkpt><trkpt lat="44.8780098" lon="9.4116366"><ele>586.0</ele><time>2026-04-18T15:35:23.258Z</time></trkpt><trkpt lat="44.8779206" lon="9.4115625"><ele>586.0</ele><time>2026-04-18T15:35:24.258Z</time></trkpt><trkpt lat="44.8778367" lon="9.4114839"><ele>586.0</ele><time>2026-04-18T15:35:25.258Z</time></trkpt><trkpt lat="44.8777589" lon="9.4113966"><ele>586.0</ele><time>2026-04-18T15:35:26.258Z</time></trkpt><trkpt lat="44.8773645" lon="9.410778"><ele>585.5</ele><time>2026-04-18T15:35:32.258Z</time></trkpt><trkpt lat="44.8772305" lon="9.4104176"><ele>585.0</ele><time>2026-04-18T15:35:35.258Z</time></trkpt><trkpt lat="44.8771087" lon="9.4101666"><ele>585.0</ele><time>2026-04-18T15:35:37.258Z</time></trkpt><trkpt lat="44.8769665" lon="9.4099327"><ele>585.0</ele><time>2026-04-18T15:35:39.258Z</time></trkpt><trkpt lat="44.8768026" lon="9.4097245"><ele>585.0</ele><time>2026-04-18T15:35:41.258Z</time></trkpt><trkpt lat="44.8767158" lon="9.4096221"><ele>593.3333333333334</ele><time>2026-04-18T15:35:42.258Z</time></trkpt><trkpt lat="44.8766337" lon="9.4095208"><ele>601.6666666666667</ele><time>2026-04-18T15:35:43.258Z</time></trkpt><trkpt lat="44.8765588" lon="9.4094073"><ele>610.0</ele><time>2026-04-18T15:35:44.258Z</time></trkpt><trkpt lat="44.8763334" lon="9.4090381"><ele>610.0</ele><time>2026-04-18T15:35:47.258Z</time></trkpt><trkpt lat="44.8762454" lon="9.4089381"><ele>610.0</ele><time>2026-04-18T15:35:48.259Z</time></trkpt><trkpt lat="44.8761594" lon="9.4088464"><ele>610.0</ele><time>2026-04-18T15:35:49.259Z</time></trkpt><trkpt lat="44.8760647" lon="9.4087586"><ele>610.0</ele><time>2026-04-18T15:35:50.259Z</time></trkpt><trkpt lat="44.875968" lon="9.4086812"><ele>610.0</ele><time>2026-04-18T15:35:51.258Z</time></trkpt><trkpt lat="44.8758703" lon="9.4086175"><ele>617.0</ele><time>2026-04-18T15:35:52.259Z</time></trkpt><trkpt lat="44.8755057" lon="9.4085614"><ele>624.0</ele><time>2026-04-18T15:35:56.258Z</time></trkpt><trkpt lat="44.8754198" lon="9.408611"><ele>622.0</ele><time>2026-04-18T15:35:57.259Z</time></trkpt><trkpt lat="44.8751001" lon="9.409027"><ele>620.0</ele><time>2026-04-18T15:36:01.258Z</time></trkpt><trkpt lat="44.8750221" lon="9.4091408"><ele>620.0</ele><time>2026-04-18T15:36:02.258Z</time></trkpt><trkpt lat="44.8749448" lon="9.4092479"><ele>620.0</ele><time>2026-04-18T15:36:03.258Z</time></trkpt><trkpt lat="44.8748703" lon="9.4093505"><ele>620.0</ele><time>2026-04-18T15:36:04.258Z</time></trkpt><trkpt lat="44.8747993" lon="9.4094495"><ele>620.0</ele><time>2026-04-18T15:36:05.258Z</time></trkpt><trkpt lat="44.8747266" lon="9.4095305"><ele>620.0</ele><time>2026-04-18T15:36:06.258Z</time></trkpt><trkpt lat="44.8746566" lon="9.4096072"><ele>623.0</ele><time>2026-04-18T15:36:07.258Z</time></trkpt><trkpt lat="44.8743299" lon="9.410033"><ele>626.0</ele><time>2026-04-18T15:36:13.258Z</time></trkpt><trkpt lat="44.8742645" lon="9.410133"><ele>623.2</ele><time>2026-04-18T15:36:15.258Z</time></trkpt><trkpt lat="44.8741969" lon="9.4101785"><ele>620.4000000000001</ele><time>2026-04-18T15:36:18.258Z</time></trkpt><trkpt lat="44.8740994" lon="9.4101338"><ele>617.6</ele><time>2026-04-18T15:36:22.258Z</time></trkpt><trkpt lat="44.8740671" lon="9.4100544"><ele>614.8000000000001</ele><time>2026-04-18T15:36:24.258Z</time></trkpt><trkpt lat="44.8741063" lon="9.4097801"><ele>612.0</ele><time>2026-04-18T15:36:27.258Z</time></trkpt><trkpt lat="44.8743423" lon="9.4086342"><ele>612.0</ele><time>2026-04-18T15:36:36.258Z</time></trkpt><trkpt lat="44.8743427" lon="9.4085131"><ele>612.0</ele><time>2026-04-18T15:36:37.258Z</time></trkpt><trkpt lat="44.8743272" lon="9.4083901"><ele>612.0</ele><time>2026-04-18T15:36:38.258Z</time></trkpt><trkpt lat="44.8741554" lon="9.4078135"><ele>604.3333333333334</ele><time>2026-04-18T15:36:42.258Z</time></trkpt><trkpt lat="44.8741065" lon="9.4076549"><ele>596.6666666666667</ele><time>2026-04-18T15:36:43.258Z</time></trkpt><trkpt lat="44.8740584" lon="9.4075019"><ele>589.0</ele><time>2026-04-18T15:36:44.258Z</time></trkpt><trkpt lat="44.8737786" lon="9.4065525"><ele>582.0</ele><time>2026-04-18T15:36:51.259Z</time></trkpt><trkpt lat="44.8733197" lon="9.4062346"><ele>582.0</ele><time>2026-04-18T15:36:56.258Z</time></trkpt><trkpt lat="44.8732454" lon="9.4061112"><ele>582.0</ele><time>2026-04-18T15:36:57.259Z</time></trkpt><trkpt lat="44.8730933" lon="9.4058789"><ele>582.0</ele><time>2026-04-18T15:36:59.258Z</time></trkpt><trkpt lat="44.8730223" lon="9.4057717"><ele>582.0</ele><time>2026-04-18T15:37:00.258Z</time></trkpt><trkpt lat="44.8728988" lon="9.4054526"><ele>583.0</ele><time>2026-04-18T15:37:03.258Z</time></trkpt><trkpt lat="44.8728837" lon="9.4051804"><ele>584.0</ele><time>2026-04-18T15:37:06.258Z</time></trkpt><trkpt lat="44.8728665" lon="9.4050643"><ele>585.0</ele><time>2026-04-18T15:37:08.258Z</time></trkpt><trkpt lat="44.872782" lon="9.4050189"><ele>586.0</ele><time>2026-04-18T15:41:30.258Z</time></trkpt><trkpt lat="44.8727089" lon="9.4050853"><ele>586.0</ele><time>2026-04-18T15:41:32.258Z</time></trkpt><trkpt lat="44.8726595" lon="9.4052334"><ele>586.0</ele><time>2026-04-18T15:41:34.259Z</time></trkpt><trkpt lat="44.8726481" lon="9.4053876"><ele>586.0</ele><time>2026-04-18T15:41:36.258Z</time></trkpt><trkpt lat="44.8724464" lon="9.4055838"><ele>580.0</ele><time>2026-04-18T15:41:43.258Z</time></trkpt><trkpt lat="44.872376" lon="9.4054443"><ele>574.0</ele><time>2026-04-18T15:41:45.258Z</time></trkpt><trkpt lat="44.8722575" lon="9.4051032"><ele>568.0</ele><time>2026-04-18T15:41:48.258Z</time></trkpt><trkpt lat="44.8722121" lon="9.4049908"><ele>568.0</ele><time>2026-04-18T15:41:49.258Z</time></trkpt><trkpt lat="44.8721554" lon="9.404889"><ele>568.0</ele><time>2026-04-18T15:41:50.258Z</time></trkpt><trkpt lat="44.8716762" lon="9.4044862"><ele>566.8</ele><time>2026-04-18T15:41:59.258Z</time></trkpt><trkpt lat="44.8715842" lon="9.4043878"><ele>565.5999999999999</ele><time>2026-04-18T15:42:01.258Z</time></trkpt><trkpt lat="44.871486" lon="9.4042233"><ele>564.4000000000001</ele><time>2026-04-18T15:42:04.258Z</time></trkpt><trkpt lat="44.8714886" lon="9.4041048"><ele>563.2</ele><time>2026-04-18T15:42:06.258Z</time></trkpt><trkpt lat="44.8715501" lon="9.4040072"><ele>562.0</ele><time>2026-04-18T15:42:08.258Z</time></trkpt><trkpt lat="44.8716102" lon="9.4039462"><ele>562.0</ele><time>2026-04-18T15:42:10.258Z</time></trkpt><trkpt lat="44.8716872" lon="9.4039026"><ele>562.0</ele><time>2026-04-18T15:42:15.258Z</time></trkpt><trkpt lat="44.8716406" lon="9.4038416"><ele>562.0</ele><time>2026-04-18T15:50:16.258Z</time></trkpt><trkpt lat="44.8715393" lon="9.4040004"><ele>562.0</ele><time>2026-04-18T15:50:27.258Z</time></trkpt><trkpt lat="44.8714699" lon="9.4041263"><ele>562.0</ele><time>2026-04-18T15:50:30.258Z</time></trkpt><trkpt lat="44.8715279" lon="9.4043524"><ele>562.0</ele><time>2026-04-18T15:50:34.258Z</time></trkpt><trkpt lat="44.8716181" lon="9.4044614"><ele>562.0</ele><time>2026-04-18T15:50:36.258Z</time></trkpt><trkpt lat="44.8720863" lon="9.4048117"><ele>564.0</ele><time>2026-04-18T15:50:44.258Z</time></trkpt><trkpt lat="44.8722634" lon="9.4051721"><ele>566.0</ele><time>2026-04-18T15:50:48.258Z</time></trkpt><trkpt lat="44.8723241" lon="9.4053416"><ele>568.0</ele><time>2026-04-18T15:50:51.258Z</time></trkpt><trkpt lat="44.8723633" lon="9.4054604"><ele>567.0</ele><time>2026-04-18T15:50:53.258Z</time></trkpt><trkpt lat="44.8725433" lon="9.4057871"><ele>566.0</ele><time>2026-04-18T15:50:58.259Z</time></trkpt><trkpt lat="44.8726083" lon="9.4061471"><ele>565.0</ele><time>2026-04-18T15:51:01.258Z</time></trkpt><trkpt lat="44.8726081" lon="9.4063805"><ele>564.0</ele><time>2026-04-18T15:51:03.258Z</time></trkpt><trkpt lat="44.8726076" lon="9.4064875"><ele>563.0</ele><time>2026-04-18T15:51:04.258Z</time></trkpt><trkpt lat="44.8726055" lon="9.4065797"><ele>562.0</ele><time>2026-04-18T15:51:05.258Z</time></trkpt><trkpt lat="44.8726046" lon="9.4067787"><ele>561.0</ele><time>2026-04-18T15:51:07.258Z</time></trkpt><trkpt lat="44.8726131" lon="9.4070896"><ele>559.5</ele><time>2026-04-18T15:51:10.258Z</time></trkpt><trkpt lat="44.8726987" lon="9.4072618"><ele>558.0</ele><time>2026-04-18T15:51:12.259Z</time></trkpt><trkpt lat="44.8725604" lon="9.407778"><ele>562.5</ele><time>2026-04-18T15:51:18.258Z</time></trkpt><trkpt lat="44.8723825" lon="9.4080328"><ele>567.0</ele><time>2026-04-18T15:51:20.258Z</time></trkpt><trkpt lat="44.8718412" lon="9.4086467"><ele>563.0</ele><time>2026-04-18T15:51:27.258Z</time></trkpt><trkpt lat="44.8714183" lon="9.4088963"><ele>563.0</ele><time>2026-04-18T15:51:32.258Z</time></trkpt><trkpt lat="44.871353" lon="9.4089717"><ele>563.0</ele><time>2026-04-18T15:51:33.259Z</time></trkpt><trkpt lat="44.8712906" lon="9.4090534"><ele>563.0</ele><time>2026-04-18T15:51:34.258Z</time></trkpt><trkpt lat="44.8712415" lon="9.4091494"><ele>563.0</ele><time>2026-04-18T15:51:35.258Z</time></trkpt><trkpt lat="44.8711997" lon="9.4092509"><ele>563.0</ele><time>2026-04-18T15:51:36.258Z</time></trkpt><trkpt lat="44.871124" lon="9.4094954"><ele>561.5</ele><time>2026-04-18T15:51:38.258Z</time></trkpt><trkpt lat="44.8710484" lon="9.4097857"><ele>560.0</ele><time>2026-04-18T15:51:40.258Z</time></trkpt><trkpt lat="44.8709181" lon="9.4101754"><ele>560.0</ele><time>2026-04-18T15:51:43.258Z</time></trkpt><trkpt lat="44.8708924" lon="9.4102852"><ele>560.0</ele><time>2026-04-18T15:51:44.258Z</time></trkpt><trkpt lat="44.8708679" lon="9.4105928"><ele>560.0</ele><time>2026-04-18T15:51:47.258Z</time></trkpt><trkpt lat="44.8710923" lon="9.4112233"><ele>554.0</ele><time>2026-04-18T15:51:54.258Z</time></trkpt><trkpt lat="44.8715596" lon="9.4123143"><ele>554.0</ele><time>2026-04-18T15:52:04.258Z</time></trkpt><trkpt lat="44.871414" lon="9.4125767"><ele>554.0</ele><time>2026-04-18T15:52:07.258Z</time></trkpt><trkpt lat="44.8712588" lon="9.4126273"><ele>554.0</ele><time>2026-04-18T15:52:09.258Z</time></trkpt><trkpt lat="44.8704757" lon="9.4131343"><ele>549.0</ele><time>2026-04-18T15:52:21.258Z</time></trkpt><trkpt lat="44.8704102" lon="9.4131419"><ele>544.0</ele><time>2026-04-18T15:52:22.258Z</time></trkpt><trkpt lat="44.8699542" lon="9.4131965"><ele>541.25</ele><time>2026-04-18T15:52:28.258Z</time></trkpt><trkpt lat="44.8698964" lon="9.4132363"><ele>538.5</ele><time>2026-04-18T15:52:29.258Z</time></trkpt><trkpt lat="44.8698213" lon="9.4134536"><ele>535.75</ele><time>2026-04-18T15:52:32.259Z</time></trkpt><trkpt lat="44.8697312" lon="9.41362"><ele>533.0</ele><time>2026-04-18T15:52:35.258Z</time></trkpt><trkpt lat="44.8696357" lon="9.4136832"><ele>541.0</ele><time>2026-04-18T15:52:37.258Z</time></trkpt><trkpt lat="44.8682456" lon="9.413051"><ele>541.0</ele><time>2026-04-18T15:52:54.258Z</time></trkpt><trkpt lat="44.8681262" lon="9.4130194"><ele>541.0</ele><time>2026-04-18T15:52:55.258Z</time></trkpt><trkpt lat="44.8671431" lon="9.4131639"><ele>544.0</ele><time>2026-04-18T15:53:05.258Z</time></trkpt><trkpt lat="44.8671927" lon="9.413589"><ele>547.0</ele><time>2026-04-18T15:53:09.258Z</time></trkpt><trkpt lat="44.8672526" lon="9.4136279"><ele>550.0</ele><time>2026-04-18T15:53:10.258Z</time></trkpt><trkpt lat="44.8673018" lon="9.4141651"><ele>555.0</ele><time>2026-04-18T15:53:15.258Z</time></trkpt><trkpt lat="44.8668448" lon="9.4145803"><ele>557.0</ele><time>2026-04-18T15:53:22.258Z</time></trkpt><trkpt lat="44.8667259" lon="9.4145919"><ele>559.0</ele><time>2026-04-18T15:53:23.258Z</time></trkpt><trkpt lat="44.866156" lon="9.4146342"><ele>559.0</ele><time>2026-04-18T15:53:28.258Z</time></trkpt><trkpt lat="44.8660463" lon="9.4146492"><ele>559.0</ele><time>2026-04-18T15:53:29.258Z</time></trkpt><trkpt lat="44.8658079" lon="9.4151974"><ele>569.5</ele><time>2026-04-18T15:53:34.259Z</time></trkpt><trkpt lat="44.8658508" lon="9.4156771"><ele>580.0</ele><time>2026-04-18T15:53:37.258Z</time></trkpt><trkpt lat="44.8658076" lon="9.4158189"><ele>580.0</ele><time>2026-04-18T15:53:38.258Z</time></trkpt><trkpt lat="44.865741" lon="9.4159362"><ele>580.0</ele><time>2026-04-18T15:53:39.258Z</time></trkpt><trkpt lat="44.8656507" lon="9.4160099"><ele>580.0</ele><time>2026-04-18T15:53:40.258Z</time></trkpt><trkpt lat="44.8654538" lon="9.4161387"><ele>580.0</ele><time>2026-04-18T15:53:42.258Z</time></trkpt><trkpt lat="44.8649903" lon="9.4165122"><ele>584.0</ele><time>2026-04-18T15:53:48.258Z</time></trkpt><trkpt lat="44.8647809" lon="9.4160057"><ele>588.0</ele><time>2026-04-18T15:53:52.259Z</time></trkpt><trkpt lat="44.8649154" lon="9.4147118"><ele>588.5</ele><time>2026-04-18T15:53:58.258Z</time></trkpt><trkpt lat="44.8649425" lon="9.4145336"><ele>589.0</ele><time>2026-04-18T15:53:59.258Z</time></trkpt><trkpt lat="44.8649582" lon="9.4143476"><ele>589.5</ele><time>2026-04-18T15:54:00.258Z</time></trkpt><trkpt lat="44.8649608" lon="9.4141811"><ele>590.0</ele><time>2026-04-18T15:54:01.259Z</time></trkpt><trkpt lat="44.8649862" lon="9.4135111"><ele>584.0</ele><time>2026-04-18T15:54:05.258Z</time></trkpt><trkpt lat="44.8648184" lon="9.4128876"><ele>584.0</ele><time>2026-04-18T15:54:09.259Z</time></trkpt><trkpt lat="44.8644434" lon="9.4123851"><ele>591.0</ele><time>2026-04-18T15:54:16.259Z</time></trkpt><trkpt lat="44.8641477" lon="9.4125213"><ele>598.0</ele><time>2026-04-18T15:54:19.259Z</time></trkpt><trkpt lat="44.8634496" lon="9.4135824"><ele>606.0</ele><time>2026-04-18T15:54:27.258Z</time></trkpt><trkpt lat="44.863158" lon="9.4139868"><ele>614.0</ele><time>2026-04-18T15:54:30.258Z</time></trkpt><trkpt lat="44.8630447" lon="9.4140893"><ele>614.0</ele><time>2026-04-18T15:54:31.259Z</time></trkpt><trkpt lat="44.8629599" lon="9.4141577"><ele>614.0</ele><time>2026-04-18T15:54:32.258Z</time></trkpt><trkpt lat="44.8629098" lon="9.4142177"><ele>614.0</ele><time>2026-04-18T15:54:33.259Z</time></trkpt><trkpt lat="44.862965" lon="9.4143556"><ele>614.0</ele><time>2026-04-18T15:54:36.259Z</time></trkpt><trkpt lat="44.8630649" lon="9.4143731"><ele>614.0</ele><time>2026-04-18T15:54:37.258Z</time></trkpt><trkpt lat="44.8634123" lon="9.4143413"><ele>616.0</ele><time>2026-04-18T15:54:40.259Z</time></trkpt><trkpt lat="44.8635314" lon="9.4142878"><ele>618.0</ele><time>2026-04-18T15:54:41.258Z</time></trkpt><trkpt lat="44.8639312" lon="9.4141418"><ele>618.0</ele><time>2026-04-18T15:54:44.258Z</time></trkpt><trkpt lat="44.8642039" lon="9.4142027"><ele>618.0</ele><time>2026-04-18T15:54:47.258Z</time></trkpt><trkpt lat="44.8642647" lon="9.4147728"><ele>619.1999999999999</ele><time>2026-04-18T15:54:52.258Z</time></trkpt><trkpt lat="44.8642418" lon="9.4149009"><ele>620.4</ele><time>2026-04-18T15:54:53.258Z</time></trkpt><trkpt lat="44.8641935" lon="9.4150717"><ele>621.5999999999999</ele><time>2026-04-18T15:54:55.258Z</time></trkpt><trkpt lat="44.8641478" lon="9.4151971"><ele>622.8</ele><time>2026-04-18T15:54:57.259Z</time></trkpt><trkpt lat="44.8641213" lon="9.4152833"><ele>624.0</ele><time>2026-04-18T15:54:58.258Z</time></trkpt><trkpt lat="44.8641072" lon="9.4153899"><ele>625.0</ele><time>2026-04-18T15:54:59.258Z</time></trkpt><trkpt lat="44.8641239" lon="9.4162618"><ele>624.6666666666667</ele><time>2026-04-18T15:55:05.258Z</time></trkpt><trkpt lat="44.8641151" lon="9.4164034"><ele>624.3333333333334</ele><time>2026-04-18T15:55:06.258Z</time></trkpt><trkpt lat="44.864007" lon="9.4167893"><ele>624.0</ele><time>2026-04-18T15:55:09.258Z</time></trkpt><trkpt lat="44.8639335" lon="9.4172003"><ele>619.0</ele><time>2026-04-18T15:55:12.258Z</time></trkpt><trkpt lat="44.8646662" lon="9.4184815"><ele>634.0</ele><time>2026-04-18T15:55:24.258Z</time></trkpt><trkpt lat="44.86494" lon="9.4199517"><ele>634.0</ele><time>2026-04-18T15:55:33.258Z</time></trkpt><trkpt lat="44.8649513" lon="9.4201113"><ele>634.0</ele><time>2026-04-18T15:55:34.258Z</time></trkpt><trkpt lat="44.8649746" lon="9.4202574"><ele>634.0</ele><time>2026-04-18T15:55:35.259Z</time></trkpt><trkpt lat="44.8650458" lon="9.4205199"><ele>634.0</ele><time>2026-04-18T15:55:37.258Z</time></trkpt><trkpt lat="44.8650948" lon="9.4206473"><ele>639.0</ele><time>2026-04-18T15:55:38.259Z</time></trkpt><trkpt lat="44.8650868" lon="9.4213807"><ele>631.0</ele><time>2026-04-18T15:55:44.258Z</time></trkpt><trkpt lat="44.8651174" lon="9.4221569"><ele>631.0</ele><time>2026-04-18T15:55:49.258Z</time></trkpt><trkpt lat="44.865161" lon="9.4223034"><ele>631.0</ele><time>2026-04-18T15:55:50.258Z</time></trkpt><trkpt lat="44.8651883" lon="9.4224572"><ele>631.0</ele><time>2026-04-18T15:55:51.258Z</time></trkpt><trkpt lat="44.8656412" lon="9.4236905"><ele>638.0</ele><time>2026-04-18T15:56:00.259Z</time></trkpt><trkpt lat="44.8659919" lon="9.4239031"><ele>645.0</ele><time>2026-04-18T15:56:03.258Z</time></trkpt><trkpt lat="44.8662956" lon="9.4240519"><ele>645.0</ele><time>2026-04-18T15:56:06.258Z</time></trkpt><trkpt lat="44.8663553" lon="9.4243363"><ele>645.0</ele><time>2026-04-18T15:56:09.259Z</time></trkpt><trkpt lat="44.8663214" lon="9.4244616"><ele>645.0</ele><time>2026-04-18T15:56:10.258Z</time></trkpt><trkpt lat="44.8662441" lon="9.424782"><ele>646.6666666666666</ele><time>2026-04-18T15:56:12.258Z</time></trkpt><trkpt lat="44.8662034" lon="9.4251607"><ele>648.3333333333333</ele><time>2026-04-18T15:56:14.259Z</time></trkpt><trkpt lat="44.8661901" lon="9.4253407"><ele>650.0</ele><time>2026-04-18T15:56:15.258Z</time></trkpt><trkpt lat="44.8661644" lon="9.4256908"><ele>653.0</ele><time>2026-04-18T15:56:17.258Z</time></trkpt><trkpt lat="44.8661516" lon="9.4258718"><ele>656.0</ele><time>2026-04-18T15:56:18.258Z</time></trkpt><trkpt lat="44.8661196" lon="9.4262249"><ele>659.0</ele><time>2026-04-18T15:56:20.258Z</time></trkpt><trkpt lat="44.8664571" lon="9.4270155"><ele>687.0</ele><time>2026-04-18T15:56:27.258Z</time></trkpt><trkpt lat="44.8669661" lon="9.4271637"><ele>677.0</ele><time>2026-04-18T15:56:32.258Z</time></trkpt><trkpt lat="44.8678564" lon="9.4269594"><ele>677.0</ele><time>2026-04-18T15:56:40.258Z</time></trkpt><trkpt lat="44.8682546" lon="9.4268218"><ele>677.0</ele><time>2026-04-18T15:56:43.258Z</time></trkpt><trkpt lat="44.8689785" lon="9.4268845"><ele>694.0</ele><time>2026-04-18T15:56:49.259Z</time></trkpt><trkpt lat="44.8695342" lon="9.4265286"><ele>692.0</ele><time>2026-04-18T15:56:55.258Z</time></trkpt><trkpt lat="44.8704067" lon="9.4262388"><ele>692.0</ele><time>2026-04-18T15:57:04.258Z</time></trkpt><trkpt lat="44.8705564" lon="9.4262485"><ele>692.0</ele><time>2026-04-18T15:57:07.258Z</time></trkpt><trkpt lat="44.8705771" lon="9.4263411"><ele>692.0</ele><time>2026-04-18T15:57:12.258Z</time></trkpt><trkpt lat="44.8704941" lon="9.4263987"><ele>692.0</ele><time>2026-04-18T15:57:14.258Z</time></trkpt><trkpt lat="44.8704359" lon="9.4264733"><ele>692.0</ele><time>2026-04-18T15:57:16.258Z</time></trkpt><trkpt lat="44.8703939" lon="9.4265642"><ele>692.0</ele><time>2026-04-18T15:57:25.258Z</time></trkpt><trkpt lat="44.870389" lon="9.4264726"><ele>692.0</ele><time>2026-04-18T15:58:00.258Z</time></trkpt><trkpt lat="44.8704715" lon="9.4263697"><ele>692.0</ele><time>2026-04-18T15:58:08.258Z</time></trkpt><trkpt lat="44.8706529" lon="9.4263107"><ele>692.0</ele><time>2026-04-18T15:58:14.258Z</time></trkpt><trkpt lat="44.8707213" lon="9.426416"><ele>692.5</ele><time>2026-04-18T15:58:16.259Z</time></trkpt><trkpt lat="44.8708268" lon="9.4266676"><ele>693.0</ele><time>2026-04-18T15:58:19.259Z</time></trkpt><trkpt lat="44.8708811" lon="9.4267714"><ele>693.5</ele><time>2026-04-18T15:58:20.258Z</time></trkpt><trkpt lat="44.8709436" lon="9.4268922"><ele>694.0</ele><time>2026-04-18T15:58:21.258Z</time></trkpt><trkpt lat="44.8712202" lon="9.4275705"><ele>690.5</ele><time>2026-04-18T15:58:27.258Z</time></trkpt><trkpt lat="44.8713372" lon="9.4280967"><ele>687.0</ele><time>2026-04-18T15:58:32.259Z</time></trkpt><trkpt lat="44.871345" lon="9.4282062"><ele>687.0</ele><time>2026-04-18T15:58:33.258Z</time></trkpt><trkpt lat="44.8713422" lon="9.4283029"><ele>687.0</ele><time>2026-04-18T15:58:34.258Z</time></trkpt><trkpt lat="44.8715577" lon="9.4288485"><ele>690.5</ele><time>2026-04-18T15:58:40.258Z</time></trkpt><trkpt lat="44.871622" lon="9.4289482"><ele>694.0</ele><time>2026-04-18T15:58:41.258Z</time></trkpt><trkpt lat="44.8720935" lon="9.4298698"><ele>695.0</ele><time>2026-04-18T15:58:50.258Z</time></trkpt><trkpt lat="44.8723556" lon="9.4303878"><ele>692.0</ele><time>2026-04-18T15:58:55.258Z</time></trkpt><trkpt lat="44.8726376" lon="9.430944"><ele>692.0</ele><time>2026-04-18T15:58:59.259Z</time></trkpt><trkpt lat="44.8727897" lon="9.4312029"><ele>692.0</ele><time>2026-04-18T15:59:01.258Z</time></trkpt><trkpt lat="44.8728636" lon="9.4313307"><ele>692.0</ele><time>2026-04-18T15:59:02.259Z</time></trkpt><trkpt lat="44.8729226" lon="9.4314579"><ele>703.0</ele><time>2026-04-18T15:59:03.258Z</time></trkpt><trkpt lat="44.8732791" lon="9.4324147"><ele>703.0</ele><time>2026-04-18T15:59:10.259Z</time></trkpt><trkpt lat="44.8732458" lon="9.4330235"><ele>703.0</ele><time>2026-04-18T15:59:15.259Z</time></trkpt><trkpt lat="44.8739135" lon="9.4339688"><ele>692.0</ele><time>2026-04-18T15:59:23.258Z</time></trkpt><trkpt lat="44.8741567" lon="9.4345056"><ele>692.0</ele><time>2026-04-18T15:59:28.258Z</time></trkpt><trkpt lat="44.8741016" lon="9.4345572"><ele>692.0</ele><time>2026-04-18T15:59:31.258Z</time></trkpt><trkpt lat="44.8726627" lon="9.4346287"><ele>695.0</ele><time>2026-04-18T15:59:43.258Z</time></trkpt><trkpt lat="44.8725676" lon="9.4347611"><ele>698.0</ele><time>2026-04-18T15:59:44.258Z</time></trkpt><trkpt lat="44.8724791" lon="9.4349403"><ele>701.0</ele><time>2026-04-18T15:59:45.259Z</time></trkpt><trkpt lat="44.8724017" lon="9.435129"><ele>704.0</ele><time>2026-04-18T15:59:46.258Z</time></trkpt><trkpt lat="44.8722477" lon="9.4354574"><ele>702.5</ele><time>2026-04-18T15:59:48.258Z</time></trkpt><trkpt lat="44.8719594" lon="9.4358361"><ele>701.0</ele><time>2026-04-18T15:59:52.258Z</time></trkpt><trkpt lat="44.8718724" lon="9.435857"><ele>702.5</ele><time>2026-04-18T15:59:53.258Z</time></trkpt><trkpt lat="44.8717684" lon="9.4358119"><ele>704.0</ele><time>2026-04-18T15:59:54.258Z</time></trkpt><trkpt lat="44.8709215" lon="9.4351758"><ele>710.0</ele><time>2026-04-18T16:00:01.258Z</time></trkpt><trkpt lat="44.8708015" lon="9.4351021"><ele>716.0</ele><time>2026-04-18T16:00:02.258Z</time></trkpt><trkpt lat="44.8705245" lon="9.4347901"><ele>716.0</ele><time>2026-04-18T16:00:05.258Z</time></trkpt><trkpt lat="44.8698783" lon="9.4341586"><ele>727.0</ele><time>2026-04-18T16:00:12.258Z</time></trkpt><trkpt lat="44.8693998" lon="9.4334931"><ele>727.0</ele><time>2026-04-18T16:00:17.258Z</time></trkpt><trkpt lat="44.8693155" lon="9.4333206"><ele>727.0</ele><time>2026-04-18T16:00:18.258Z</time></trkpt><trkpt lat="44.8692388" lon="9.433146"><ele>727.0</ele><time>2026-04-18T16:00:19.258Z</time></trkpt><trkpt lat="44.8688672" lon="9.4324233"><ele>728.0</ele><time>2026-04-18T16:00:24.258Z</time></trkpt><trkpt lat="44.8687487" lon="9.4323323"><ele>729.0</ele><time>2026-04-18T16:00:25.258Z</time></trkpt><trkpt lat="44.8677102" lon="9.4319495"><ele>726.0</ele><time>2026-04-18T16:00:33.258Z</time></trkpt><trkpt lat="44.8675969" lon="9.4318592"><ele>723.0</ele><time>2026-04-18T16:00:34.258Z</time></trkpt><trkpt lat="44.8662675" lon="9.4314377"><ele>727.0</ele><time>2026-04-18T16:00:44.258Z</time></trkpt><trkpt lat="44.8653109" lon="9.4318212"><ele>737.0</ele><time>2026-04-18T16:00:50.258Z</time></trkpt><trkpt lat="44.8639184" lon="9.4332071"><ele>737.0</ele><time>2026-04-18T16:01:01.259Z</time></trkpt><trkpt lat="44.8637918" lon="9.4332782"><ele>737.0</ele><time>2026-04-18T16:01:02.258Z</time></trkpt><trkpt lat="44.8630059" lon="9.4335284"><ele>737.0</ele><time>2026-04-18T16:01:08.258Z</time></trkpt><trkpt lat="44.8627474" lon="9.4341305"><ele>749.0</ele><time>2026-04-18T16:01:12.259Z</time></trkpt><trkpt lat="44.8621433" lon="9.4341235"><ele>742.0</ele><time>2026-04-18T16:01:17.258Z</time></trkpt><trkpt lat="44.8613535" lon="9.4346599"><ele>751.0</ele><time>2026-04-18T16:01:23.258Z</time></trkpt><trkpt lat="44.8607866" lon="9.434913"><ele>751.0</ele><time>2026-04-18T16:01:27.258Z</time></trkpt><trkpt lat="44.8601483" lon="9.4348565"><ele>751.3333333333334</ele><time>2026-04-18T16:01:32.258Z</time></trkpt><trkpt lat="44.8600082" lon="9.4347771"><ele>751.6666666666666</ele><time>2026-04-18T16:01:33.259Z</time></trkpt><trkpt lat="44.8598748" lon="9.4346966"><ele>752.0</ele><time>2026-04-18T16:01:34.259Z</time></trkpt><trkpt lat="44.8594727" lon="9.4345924"><ele>752.0</ele><time>2026-04-18T16:01:37.258Z</time></trkpt><trkpt lat="44.8593432" lon="9.4346391"><ele>752.0</ele><time>2026-04-18T16:01:38.258Z</time></trkpt><trkpt lat="44.8592217" lon="9.434739"><ele>752.0</ele><time>2026-04-18T16:01:39.258Z</time></trkpt><trkpt lat="44.8590005" lon="9.4350452"><ele>764.0</ele><time>2026-04-18T16:01:41.258Z</time></trkpt><trkpt lat="44.8584019" lon="9.4360591"><ele>764.0</ele><time>2026-04-18T16:01:47.259Z</time></trkpt><trkpt lat="44.8583014" lon="9.4362221"><ele>764.0</ele><time>2026-04-18T16:01:48.258Z</time></trkpt><trkpt lat="44.8578854" lon="9.4378766"><ele>761.6666666666666</ele><time>2026-04-18T16:01:59.258Z</time></trkpt><trkpt lat="44.8577662" lon="9.4380866"><ele>759.3333333333334</ele><time>2026-04-18T16:02:01.258Z</time></trkpt><trkpt lat="44.8576466" lon="9.4381277"><ele>757.0</ele><time>2026-04-18T16:02:02.258Z</time></trkpt><trkpt lat="44.8565181" lon="9.4389314"><ele>757.0</ele><time>2026-04-18T16:02:11.258Z</time></trkpt><trkpt lat="44.8564247" lon="9.439599"><ele>747.0</ele><time>2026-04-18T16:02:14.258Z</time></trkpt><trkpt lat="44.8563291" lon="9.4402216"><ele>757.0</ele><time>2026-04-18T16:02:17.259Z</time></trkpt><trkpt lat="44.855814" lon="9.4408927"><ele>757.0</ele><time>2026-04-18T16:02:23.259Z</time></trkpt><trkpt lat="44.855796" lon="9.4410483"><ele>757.0</ele><time>2026-04-18T16:02:24.258Z</time></trkpt><trkpt lat="44.8559837" lon="9.4419607"><ele>752.0</ele><time>2026-04-18T16:02:29.259Z</time></trkpt><trkpt lat="44.8559541" lon="9.4425862"><ele>747.0</ele><time>2026-04-18T16:02:32.258Z</time></trkpt><trkpt lat="44.8558821" lon="9.4429867"><ele>747.0</ele><time>2026-04-18T16:02:34.258Z</time></trkpt><trkpt lat="44.8557175" lon="9.4433005"><ele>747.0</ele><time>2026-04-18T16:02:36.258Z</time></trkpt><trkpt lat="44.8550377" lon="9.4435997"><ele>747.0</ele><time>2026-04-18T16:02:45.258Z</time></trkpt><trkpt lat="44.8549862" lon="9.4435003"><ele>747.0</ele><time>2026-04-18T16:02:47.258Z</time></trkpt><trkpt lat="44.854915" lon="9.4429581"><ele>755.0</ele><time>2026-04-18T16:02:53.258Z</time></trkpt><trkpt lat="44.8543822" lon="9.4422814"><ele>753.0</ele><time>2026-04-18T16:03:00.258Z</time></trkpt><trkpt lat="44.8542627" lon="9.4422223"><ele>751.0</ele><time>2026-04-18T16:03:01.258Z</time></trkpt><trkpt lat="44.8540573" lon="9.4419633"><ele>749.0</ele><time>2026-04-18T16:03:03.258Z</time></trkpt><trkpt lat="44.8529522" lon="9.4400302"><ele>728.0</ele><time>2026-04-18T16:03:16.259Z</time></trkpt><trkpt lat="44.8508002" lon="9.4402778"><ele>728.0</ele><time>2026-04-18T16:03:33.259Z</time></trkpt><trkpt lat="44.8502512" lon="9.4402262"><ele>725.0</ele><time>2026-04-18T16:03:39.258Z</time></trkpt><trkpt lat="44.8500611" lon="9.439702"><ele>722.0</ele><time>2026-04-18T16:03:42.258Z</time></trkpt><trkpt lat="44.8499464" lon="9.4393472"><ele>717.0</ele><time>2026-04-18T16:03:44.258Z</time></trkpt><trkpt lat="44.8484589" lon="9.4384967"><ele>717.0</ele><time>2026-04-18T16:03:58.258Z</time></trkpt><trkpt lat="44.8481918" lon="9.4386753"><ele>717.0</ele><time>2026-04-18T16:04:00.258Z</time></trkpt><trkpt lat="44.8478197" lon="9.4389633"><ele>715.3333333333334</ele><time>2026-04-18T16:04:03.258Z</time></trkpt><trkpt lat="44.8477016" lon="9.4390232"><ele>713.6666666666667</ele><time>2026-04-18T16:04:04.258Z</time></trkpt><trkpt lat="44.8475919" lon="9.4390425"><ele>712.0</ele><time>2026-04-18T16:04:05.258Z</time></trkpt><trkpt lat="44.8462272" lon="9.4383811"><ele>715.0</ele><time>2026-04-18T16:04:15.258Z</time></trkpt><trkpt lat="44.8454498" lon="9.4376281"><ele>728.0</ele><time>2026-04-18T16:04:26.258Z</time></trkpt><trkpt lat="44.8443799" lon="9.437066"><ele>721.6666666666666</ele><time>2026-04-18T16:04:34.258Z</time></trkpt><trkpt lat="44.8442515" lon="9.4369806"><ele>715.3333333333334</ele><time>2026-04-18T16:04:35.258Z</time></trkpt><trkpt lat="44.8440113" lon="9.4368498"><ele>709.0</ele><time>2026-04-18T16:04:37.258Z</time></trkpt><trkpt lat="44.843165" lon="9.4372302"><ele>684.0</ele><time>2026-04-18T16:04:42.258Z</time></trkpt><trkpt lat="44.842786" lon="9.4375991"><ele>685.0</ele><time>2026-04-18T16:04:45.258Z</time></trkpt><trkpt lat="44.8424562" lon="9.4384626"><ele>685.0</ele><time>2026-04-18T16:04:49.258Z</time></trkpt><trkpt lat="44.8421636" lon="9.4387586"><ele>685.0</ele><time>2026-04-18T16:04:52.258Z</time></trkpt><trkpt lat="44.8418486" lon="9.438772"><ele>680.0</ele><time>2026-04-18T16:04:54.258Z</time></trkpt><trkpt lat="44.8413492" lon="9.4391626"><ele>685.0</ele><time>2026-04-18T16:04:58.258Z</time></trkpt><trkpt lat="44.8405365" lon="9.4394966"><ele>667.0</ele><time>2026-04-18T16:05:05.258Z</time></trkpt><trkpt lat="44.8401255" lon="9.4405435"><ele>667.0</ele><time>2026-04-18T16:05:10.258Z</time></trkpt><trkpt lat="44.8398989" lon="9.4409773"><ele>667.0</ele><time>2026-04-18T16:05:13.258Z</time></trkpt><trkpt lat="44.8398177" lon="9.4410684"><ele>667.0</ele><time>2026-04-18T16:05:14.258Z</time></trkpt><trkpt lat="44.8397135" lon="9.4411212"><ele>667.0</ele><time>2026-04-18T16:05:15.258Z</time></trkpt><trkpt lat="44.8394601" lon="9.4411991"><ele>667.0</ele><time>2026-04-18T16:05:17.258Z</time></trkpt><trkpt lat="44.8393269" lon="9.4412807"><ele>652.0</ele><time>2026-04-18T16:05:18.259Z</time></trkpt><trkpt lat="44.8377997" lon="9.4417454"><ele>652.0</ele><time>2026-04-18T16:05:30.258Z</time></trkpt><trkpt lat="44.8377477" lon="9.4418979"><ele>652.0</ele><time>2026-04-18T16:05:31.258Z</time></trkpt><trkpt lat="44.8376751" lon="9.442028"><ele>652.0</ele><time>2026-04-18T16:05:32.258Z</time></trkpt><trkpt lat="44.8375519" lon="9.4421291"><ele>652.0</ele><time>2026-04-18T16:05:33.258Z</time></trkpt><trkpt lat="44.836589" lon="9.4420308"><ele>652.6666666666667</ele><time>2026-04-18T16:05:41.258Z</time></trkpt><trkpt lat="44.8364824" lon="9.4416942"><ele>653.3333333333334</ele><time>2026-04-18T16:05:43.258Z</time></trkpt><trkpt lat="44.8364343" lon="9.4415253"><ele>654.0</ele><time>2026-04-18T16:05:44.258Z</time></trkpt><trkpt lat="44.8363598" lon="9.4413715"><ele>654.6666666666666</ele><time>2026-04-18T16:05:45.258Z</time></trkpt><trkpt lat="44.8362733" lon="9.4412576"><ele>655.3333333333333</ele><time>2026-04-18T16:05:46.259Z</time></trkpt><trkpt lat="44.8361779" lon="9.4411899"><ele>656.0</ele><time>2026-04-18T16:05:47.258Z</time></trkpt><trkpt lat="44.8355411" lon="9.4402856"><ele>655.0</ele><time>2026-04-18T16:05:55.258Z</time></trkpt><trkpt lat="44.8352792" lon="9.4393481"><ele>636.0</ele><time>2026-04-18T16:06:00.259Z</time></trkpt><trkpt lat="44.8346338" lon="9.4384153"><ele>617.0</ele><time>2026-04-18T16:06:06.258Z</time></trkpt><trkpt lat="44.8339297" lon="9.4362515"><ele>621.0</ele><time>2026-04-18T16:06:23.258Z</time></trkpt><trkpt lat="44.8346576" lon="9.434976"><ele>617.5</ele><time>2026-04-18T16:06:31.258Z</time></trkpt><trkpt lat="44.8345011" lon="9.4345929"><ele>614.0</ele><time>2026-04-18T16:06:37.258Z</time></trkpt><trkpt lat="44.8342381" lon="9.4351637"><ele>617.0</ele><time>2026-04-18T16:06:41.258Z</time></trkpt><trkpt lat="44.8336269" lon="9.4355328"><ele>612.0</ele><time>2026-04-18T16:06:46.258Z</time></trkpt><trkpt lat="44.8332133" lon="9.4354944"><ele>607.0</ele><time>2026-04-18T16:06:49.258Z</time></trkpt><trkpt lat="44.8325755" lon="9.4357355"><ele>603.3333333333334</ele><time>2026-04-18T16:06:54.258Z</time></trkpt><trkpt lat="44.8324638" lon="9.4358074"><ele>599.6666666666666</ele><time>2026-04-18T16:06:55.258Z</time></trkpt><trkpt lat="44.8323215" lon="9.4360389"><ele>596.0</ele><time>2026-04-18T16:06:57.258Z</time></trkpt><trkpt lat="44.8322909" lon="9.4363898"><ele>595.6666666666666</ele><time>2026-04-18T16:06:59.258Z</time></trkpt><trkpt lat="44.832295" lon="9.4365928"><ele>595.3333333333334</ele><time>2026-04-18T16:07:00.259Z</time></trkpt><trkpt lat="44.8322999" lon="9.436808"><ele>595.0</ele><time>2026-04-18T16:07:01.259Z</time></trkpt><trkpt lat="44.8323014" lon="9.4372448"><ele>593.6666666666667</ele><time>2026-04-18T16:07:03.258Z</time></trkpt><trkpt lat="44.832309" lon="9.437464"><ele>592.3333333333334</ele><time>2026-04-18T16:07:04.258Z</time></trkpt><trkpt lat="44.8323186" lon="9.4376872"><ele>591.0</ele><time>2026-04-18T16:07:05.258Z</time></trkpt><trkpt lat="44.8323462" lon="9.4382918"><ele>588.0</ele><time>2026-04-18T16:07:08.258Z</time></trkpt><trkpt lat="44.8323667" lon="9.4386254"><ele>585.0</ele><time>2026-04-18T16:07:10.258Z</time></trkpt><trkpt lat="44.8322611" lon="9.438936"><ele>585.0</ele><time>2026-04-18T16:07:13.258Z</time></trkpt><trkpt lat="44.8319886" lon="9.4385809"><ele>585.0</ele><time>2026-04-18T16:07:17.258Z</time></trkpt><trkpt lat="44.8315794" lon="9.4376396"><ele>576.0</ele><time>2026-04-18T16:07:23.259Z</time></trkpt><trkpt lat="44.8312712" lon="9.4366627"><ele>576.0</ele><time>2026-04-18T16:07:28.258Z</time></trkpt><trkpt lat="44.8310653" lon="9.4362005"><ele>576.0</ele><time>2026-04-18T16:07:31.258Z</time></trkpt><trkpt lat="44.8310108" lon="9.4344968"><ele>563.5</ele><time>2026-04-18T16:07:40.258Z</time></trkpt><trkpt lat="44.8309317" lon="9.4343501"><ele>551.0</ele><time>2026-04-18T16:07:41.259Z</time></trkpt><trkpt lat="44.8311132" lon="9.4336944"><ele>551.0</ele><time>2026-04-18T16:07:47.259Z</time></trkpt><trkpt lat="44.8315646" lon="9.4334603"><ele>551.0</ele><time>2026-04-18T16:07:51.258Z</time></trkpt><trkpt lat="44.8316075" lon="9.4333336"><ele>551.0</ele><time>2026-04-18T16:07:52.258Z</time></trkpt><trkpt lat="44.8319668" lon="9.4316783"><ele>509.0</ele><time>2026-04-18T16:08:01.258Z</time></trkpt><trkpt lat="44.8301248" lon="9.4328699"><ele>513.0</ele><time>2026-04-18T16:08:24.258Z</time></trkpt><trkpt lat="44.830018" lon="9.4330351"><ele>517.0</ele><time>2026-04-18T16:08:25.258Z</time></trkpt><trkpt lat="44.8296004" lon="9.4336618"><ele>519.3333333333334</ele><time>2026-04-18T16:08:30.258Z</time></trkpt><trkpt lat="44.8295763" lon="9.4338585"><ele>521.6666666666666</ele><time>2026-04-18T16:08:31.259Z</time></trkpt><trkpt lat="44.8295473" lon="9.4340505"><ele>524.0</ele><time>2026-04-18T16:08:32.258Z</time></trkpt><trkpt lat="44.8291524" lon="9.4344448"><ele>514.0</ele><time>2026-04-18T16:08:36.258Z</time></trkpt><trkpt lat="44.8290013" lon="9.4344692"><ele>504.0</ele><time>2026-04-18T16:08:37.258Z</time></trkpt><trkpt lat="44.828153" lon="9.4345385"><ele>487.0</ele><time>2026-04-18T16:08:42.258Z</time></trkpt><trkpt lat="44.8274192" lon="9.4345678"><ele>493.0</ele><time>2026-04-18T16:08:47.258Z</time></trkpt><trkpt lat="44.8272122" lon="9.4348937"><ele>499.0</ele><time>2026-04-18T16:08:50.259Z</time></trkpt><trkpt lat="44.8272061" lon="9.4350926"><ele>499.0</ele><time>2026-04-18T16:08:51.258Z</time></trkpt><trkpt lat="44.8272062" lon="9.4353215"><ele>499.0</ele><time>2026-04-18T16:08:52.258Z</time></trkpt><trkpt lat="44.8271963" lon="9.4360533"><ele>495.5</ele><time>2026-04-18T16:08:55.258Z</time></trkpt><trkpt lat="44.8272303" lon="9.4365358"><ele>492.0</ele><time>2026-04-18T16:08:57.258Z</time></trkpt><trkpt lat="44.8272692" lon="9.4367714"><ele>479.0</ele><time>2026-04-18T16:08:58.258Z</time></trkpt><trkpt lat="44.8274221" lon="9.4385717"><ele>479.0</ele><time>2026-04-18T16:09:07.258Z</time></trkpt><trkpt lat="44.8274225" lon="9.4387795"><ele>479.0</ele><time>2026-04-18T16:09:08.259Z</time></trkpt><trkpt lat="44.8274895" lon="9.4394808"><ele>469.0</ele><time>2026-04-18T16:09:11.258Z</time></trkpt><trkpt lat="44.8275802" lon="9.4402828"><ele>464.0</ele><time>2026-04-18T16:09:15.259Z</time></trkpt><trkpt lat="44.8275477" lon="9.4405568"><ele>459.0</ele><time>2026-04-18T16:09:17.258Z</time></trkpt><trkpt lat="44.8272305" lon="9.4404683"><ele>463.0</ele><time>2026-04-18T16:09:21.259Z</time></trkpt><trkpt lat="44.8259849" lon="9.4379136"><ele>459.33333333333337</ele><time>2026-04-18T16:09:36.258Z</time></trkpt><trkpt lat="44.8258625" lon="9.4378031"><ele>455.66666666666663</ele><time>2026-04-18T16:09:37.258Z</time></trkpt><trkpt lat="44.8257606" lon="9.4376708"><ele>452.0</ele><time>2026-04-18T16:09:38.258Z</time></trkpt><trkpt lat="44.8255823" lon="9.4373952"><ele>452.0</ele><time>2026-04-18T16:09:40.258Z</time></trkpt><trkpt lat="44.8254694" lon="9.4372948"><ele>452.0</ele><time>2026-04-18T16:09:41.258Z</time></trkpt><trkpt lat="44.8247494" lon="9.436796"><ele>447.0</ele><time>2026-04-18T16:09:48.258Z</time></trkpt><trkpt lat="44.8244463" lon="9.4359538"><ele>447.0</ele><time>2026-04-18T16:09:54.258Z</time></trkpt><trkpt lat="44.824367" lon="9.4356454"><ele>447.0</ele><time>2026-04-18T16:09:56.259Z</time></trkpt><trkpt lat="44.8243321" lon="9.4355098"><ele>447.0</ele><time>2026-04-18T16:09:57.258Z</time></trkpt><trkpt lat="44.8242425" lon="9.4351413"><ele>438.5</ele><time>2026-04-18T16:10:00.258Z</time></trkpt><trkpt lat="44.8241344" lon="9.4345323"><ele>430.0</ele><time>2026-04-18T16:10:05.259Z</time></trkpt><trkpt lat="44.8242036" lon="9.4339265"><ele>430.0</ele><time>2026-04-18T16:10:11.258Z</time></trkpt><trkpt lat="44.8241744" lon="9.4337036"><ele>430.0</ele><time>2026-04-18T16:10:15.258Z</time></trkpt><trkpt lat="44.8239316" lon="9.4341707"><ele>430.0</ele><time>2026-04-18T16:10:20.258Z</time></trkpt><trkpt lat="44.8238624" lon="9.4343694"><ele>430.0</ele><time>2026-04-18T16:10:21.258Z</time></trkpt><trkpt lat="44.8237479" lon="9.4348076"><ele>430.33333333333337</ele><time>2026-04-18T16:10:23.259Z</time></trkpt><trkpt lat="44.8236986" lon="9.4350372"><ele>430.66666666666663</ele><time>2026-04-18T16:10:24.258Z</time></trkpt><trkpt lat="44.8236574" lon="9.4352633"><ele>431.0</ele><time>2026-04-18T16:10:25.258Z</time></trkpt><trkpt lat="44.823583" lon="9.4362023"><ele>430.0</ele><time>2026-04-18T16:10:29.258Z</time></trkpt><trkpt lat="44.8235237" lon="9.4364246"><ele>429.0</ele><time>2026-04-18T16:10:30.259Z</time></trkpt><trkpt lat="44.8234009" lon="9.4378969"><ele>408.0</ele><time>2026-04-18T16:10:38.258Z</time></trkpt><trkpt lat="44.823788" lon="9.4383952"><ele>404.0</ele><time>2026-04-18T16:10:41.258Z</time></trkpt><trkpt lat="44.8238283" lon="9.4392367"><ele>404.5</ele><time>2026-04-18T16:10:47.258Z</time></trkpt><trkpt lat="44.8236292" lon="9.4397139"><ele>405.0</ele><time>2026-04-18T16:10:50.258Z</time></trkpt><trkpt lat="44.8236383" lon="9.4402139"><ele>379.0</ele><time>2026-04-18T16:10:52.258Z</time></trkpt><trkpt lat="44.8232489" lon="9.4421876"><ele>379.0</ele><time>2026-04-18T16:11:02.258Z</time></trkpt><trkpt lat="44.8232348" lon="9.4424733"><ele>379.0</ele><time>2026-04-18T16:11:04.258Z</time></trkpt><trkpt lat="44.8236638" lon="9.4433829"><ele>371.0</ele><time>2026-04-18T16:11:10.258Z</time></trkpt><trkpt lat="44.823186" lon="9.443938"><ele>382.0</ele><time>2026-04-18T16:11:15.259Z</time></trkpt><trkpt lat="44.8226814" lon="9.4446817"><ele>374.5</ele><time>2026-04-18T16:11:20.258Z</time></trkpt><trkpt lat="44.8223408" lon="9.4448142"><ele>367.0</ele><time>2026-04-18T16:11:23.257Z</time></trkpt><trkpt lat="44.8219654" lon="9.4446887"><ele>356.0</ele><time>2026-04-18T16:11:26.259Z</time></trkpt><trkpt lat="44.8216756" lon="9.4452568"><ele>356.0</ele><time>2026-04-18T16:11:30.258Z</time></trkpt><trkpt lat="44.8216342" lon="9.4454515"><ele>356.0</ele><time>2026-04-18T16:11:31.258Z</time></trkpt><trkpt lat="44.8215875" lon="9.4455897"><ele>356.0</ele><time>2026-04-18T16:11:32.258Z</time></trkpt><trkpt lat="44.8215219" lon="9.4456785"><ele>356.0</ele><time>2026-04-18T16:11:33.258Z</time></trkpt><trkpt lat="44.8213577" lon="9.4456419"><ele>356.0</ele><time>2026-04-18T16:11:35.259Z</time></trkpt><trkpt lat="44.821384" lon="9.4449527"><ele>357.0</ele><time>2026-04-18T16:11:39.258Z</time></trkpt><trkpt lat="44.8219504" lon="9.4438379"><ele>356.0</ele><time>2026-04-18T16:11:46.258Z</time></trkpt><trkpt lat="44.8220801" lon="9.4429063"><ele>345.5</ele><time>2026-04-18T16:11:51.258Z</time></trkpt><trkpt lat="44.821778" lon="9.4424934"><ele>335.0</ele><time>2026-04-18T16:11:54.259Z</time></trkpt><trkpt lat="44.8216161" lon="9.4413214"><ele>337.0</ele><time>2026-04-18T16:12:00.258Z</time></trkpt><trkpt lat="44.8210931" lon="9.4410131"><ele>326.0</ele><time>2026-04-18T16:12:05.258Z</time></trkpt><trkpt lat="44.8204511" lon="9.4411019"><ele>326.0</ele><time>2026-04-18T16:12:09.258Z</time></trkpt><trkpt lat="44.8203119" lon="9.4411025"><ele>326.0</ele><time>2026-04-18T16:12:10.259Z</time></trkpt><trkpt lat="44.8201882" lon="9.4410766"><ele>326.0</ele><time>2026-04-18T16:12:11.258Z</time></trkpt><trkpt lat="44.8196218" lon="9.440441"><ele>310.0</ele><time>2026-04-18T16:12:16.258Z</time></trkpt><trkpt lat="44.8192081" lon="9.4400848"><ele>310.0</ele><time>2026-04-18T16:12:19.258Z</time></trkpt><trkpt lat="44.8191037" lon="9.4399213"><ele>310.0</ele><time>2026-04-18T16:12:20.258Z</time></trkpt><trkpt lat="44.8189818" lon="9.4395576"><ele>310.0</ele><time>2026-04-18T16:12:22.258Z</time></trkpt><trkpt lat="44.8188216" lon="9.4388224"><ele>293.0</ele><time>2026-04-18T16:12:26.258Z</time></trkpt><trkpt lat="44.8182751" lon="9.4377157"><ele>293.0</ele><time>2026-04-18T16:12:33.258Z</time></trkpt><trkpt lat="44.8182665" lon="9.4374707"><ele>293.0</ele><time>2026-04-18T16:12:34.258Z</time></trkpt><trkpt lat="44.8174725" lon="9.4354782"><ele>290.5</ele><time>2026-04-18T16:12:46.258Z</time></trkpt><trkpt lat="44.8173604" lon="9.4352866"><ele>288.0</ele><time>2026-04-18T16:12:47.258Z</time></trkpt><trkpt lat="44.8172685" lon="9.4337477"><ele>283.0</ele><time>2026-04-18T16:12:57.258Z</time></trkpt><trkpt lat="44.8173556" lon="9.4335156"><ele>278.0</ele><time>2026-04-18T16:12:58.259Z</time></trkpt><trkpt lat="44.817394" lon="9.4323858"><ele>275.6666666666667</ele><time>2026-04-18T16:13:02.259Z</time></trkpt><trkpt lat="44.8173606" lon="9.4321077"><ele>273.3333333333333</ele><time>2026-04-18T16:13:03.259Z</time></trkpt><trkpt lat="44.8173306" lon="9.4318389"><ele>271.0</ele><time>2026-04-18T16:13:04.258Z</time></trkpt><trkpt lat="44.8171344" lon="9.4306696"><ele>249.0</ele><time>2026-04-18T16:13:09.259Z</time></trkpt><trkpt lat="44.8153244" lon="9.4301774"><ele>249.0</ele><time>2026-04-18T16:13:22.259Z</time></trkpt><trkpt lat="44.8151977" lon="9.430335"><ele>249.0</ele><time>2026-04-18T16:13:23.258Z</time></trkpt><trkpt lat="44.814469" lon="9.4312673"><ele>249.0</ele><time>2026-04-18T16:13:28.258Z</time></trkpt><trkpt lat="44.8143223" lon="9.431433"><ele>249.0</ele><time>2026-04-18T16:13:29.258Z</time></trkpt><trkpt lat="44.8114014" lon="9.4316835"><ele>249.0</ele><time>2026-04-18T16:13:47.258Z</time></trkpt><trkpt lat="44.811047" lon="9.4318379"><ele>249.0</ele><time>2026-04-18T16:13:49.258Z</time></trkpt><trkpt lat="44.8097288" lon="9.4314616"><ele>247.0</ele><time>2026-04-18T16:13:56.258Z</time></trkpt><trkpt lat="44.8079482" lon="9.4305831"><ele>241.0</ele><time>2026-04-18T16:14:06.259Z</time></trkpt><trkpt lat="44.8075442" lon="9.4311683"><ele>239.0</ele><time>2026-04-18T16:14:11.259Z</time></trkpt><trkpt lat="44.8078924" lon="9.4317666"><ele>229.0</ele><time>2026-04-18T16:14:15.258Z</time></trkpt><trkpt lat="44.8084986" lon="9.4323685"><ele>239.0</ele><time>2026-04-18T16:14:21.258Z</time></trkpt><trkpt lat="44.80774" lon="9.431495"><ele>234.0</ele><time>2026-04-18T16:14:30.406Z</time></trkpt><trkpt lat="44.8070365" lon="9.4313769"><ele>237.5</ele><time>2026-04-18T16:14:38.258Z</time></trkpt><trkpt lat="44.8069695" lon="9.4312508"><ele>241.0</ele><time>2026-04-18T16:14:39.258Z</time></trkpt><trkpt lat="44.8059233" lon="9.4295315"><ele>234.5</ele><time>2026-04-18T16:14:49.258Z</time></trkpt><trkpt lat="44.8057638" lon="9.4293208"><ele>228.0</ele><time>2026-04-18T16:14:50.258Z</time></trkpt><trkpt lat="44.8043564" lon="9.4274746"><ele>228.5</ele><time>2026-04-18T16:14:59.258Z</time></trkpt><trkpt lat="44.8041944" lon="9.4272643"><ele>229.0</ele><time>2026-04-18T16:15:00.259Z</time></trkpt><trkpt lat="44.8008204" lon="9.4241795"><ele>229.0</ele><time>2026-04-18T16:15:19.258Z</time></trkpt><trkpt lat="44.800437" lon="9.4239071"><ele>229.0</ele><time>2026-04-18T16:15:21.258Z</time></trkpt><trkpt lat="44.8002474" lon="9.423777"><ele>230.66666666666666</ele><time>2026-04-18T16:15:22.258Z</time></trkpt><trkpt lat="44.8000568" lon="9.4236578"><ele>232.33333333333331</ele><time>2026-04-18T16:15:23.258Z</time></trkpt><trkpt lat="44.7998713" lon="9.4235568"><ele>234.0</ele><time>2026-04-18T16:15:24.258Z</time></trkpt><trkpt lat="44.7982696" lon="9.4231679"><ele>233.0</ele><time>2026-04-18T16:15:33.259Z</time></trkpt><trkpt lat="44.7980964" lon="9.423135"><ele>232.0</ele><time>2026-04-18T16:15:34.258Z</time></trkpt><trkpt lat="44.7972358" lon="9.4229286"><ele>240.0</ele><time>2026-04-18T16:15:39.258Z</time></trkpt><trkpt lat="44.7967842" lon="9.4226887"><ele>240.0</ele><time>2026-04-18T16:15:42.258Z</time></trkpt><trkpt lat="44.7966432" lon="9.4225826"><ele>240.0</ele><time>2026-04-18T16:15:43.259Z</time></trkpt><trkpt lat="44.7952447" lon="9.4209352"><ele>238.0</ele><time>2026-04-18T16:15:55.258Z</time></trkpt><trkpt lat="44.7949227" lon="9.4205076"><ele>236.0</ele><time>2026-04-18T16:15:58.258Z</time></trkpt><trkpt lat="44.7899072" lon="9.4134973"><ele>236.0</ele><time>2026-04-18T16:16:39.259Z</time></trkpt><trkpt lat="44.7897041" lon="9.413447"><ele>236.0</ele><time>2026-04-18T16:16:40.258Z</time></trkpt><trkpt lat="44.7884362" lon="9.4119616"><ele>237.0</ele><time>2026-04-18T16:16:47.258Z</time></trkpt><trkpt lat="44.7878451" lon="9.4112007"><ele>248.0</ele><time>2026-04-18T16:16:51.258Z</time></trkpt><trkpt lat="44.7868405" lon="9.4098927"><ele>248.0</ele><time>2026-04-18T16:16:58.258Z</time></trkpt><trkpt lat="44.7867048" lon="9.4097148"><ele>248.0</ele><time>2026-04-18T16:16:59.258Z</time></trkpt><trkpt lat="44.7856108" lon="9.408271"><ele>245.5</ele><time>2026-04-18T16:17:07.258Z</time></trkpt><trkpt lat="44.7853333" lon="9.4079044"><ele>243.0</ele><time>2026-04-18T16:17:09.258Z</time></trkpt><trkpt lat="44.7851954" lon="9.40772"><ele>246.0</ele><time>2026-04-18T16:17:10.258Z</time></trkpt><trkpt lat="44.7843902" lon="9.4065787"><ele>245.0</ele><time>2026-04-18T16:17:16.258Z</time></trkpt><trkpt lat="44.784118" lon="9.4061938"><ele>244.0</ele><time>2026-04-18T16:17:18.258Z</time></trkpt><trkpt lat="44.782472" lon="9.4038297"><ele>244.0</ele><time>2026-04-18T16:17:30.258Z</time></trkpt><trkpt lat="44.7820519" lon="9.4032247"><ele>247.0</ele><time>2026-04-18T16:17:33.258Z</time></trkpt><trkpt lat="44.7813477" lon="9.4022157"><ele>250.0</ele><time>2026-04-18T16:17:38.258Z</time></trkpt><trkpt lat="44.7810672" lon="9.4018131"><ele>253.0</ele><time>2026-04-18T16:17:40.258Z</time></trkpt><trkpt lat="44.7804128" lon="9.4006933"><ele>252.0</ele><time>2026-04-18T16:17:45.259Z</time></trkpt><trkpt lat="44.7801244" lon="9.3999157"><ele>260.0</ele><time>2026-04-18T16:17:48.258Z</time></trkpt><trkpt lat="44.7798629" lon="9.3983695"><ele>260.0</ele><time>2026-04-18T16:17:54.258Z</time></trkpt><trkpt lat="44.7798453" lon="9.3981051"><ele>260.0</ele><time>2026-04-18T16:17:55.258Z</time></trkpt><trkpt lat="44.7796858" lon="9.3963765"><ele>265.0</ele><time>2026-04-18T16:18:02.258Z</time></trkpt><trkpt lat="44.7796487" lon="9.3961647"><ele>270.0</ele><time>2026-04-18T16:18:03.258Z</time></trkpt><trkpt lat="44.7796117" lon="9.3959595"><ele>275.0</ele><time>2026-04-18T16:18:04.258Z</time></trkpt><trkpt lat="44.7793995" lon="9.3950156"><ele>253.0</ele><time>2026-04-18T16:18:08.258Z</time></trkpt><trkpt lat="44.7791332" lon="9.3941656"><ele>264.0</ele><time>2026-04-18T16:18:12.259Z</time></trkpt><trkpt lat="44.7787923" lon="9.3933651"><ele>255.0</ele><time>2026-04-18T16:18:16.258Z</time></trkpt><trkpt lat="44.7781349" lon="9.3922238"><ele>256.0</ele><time>2026-04-18T16:18:22.258Z</time></trkpt><trkpt lat="44.7776803" lon="9.3916411"><ele>276.0</ele><time>2026-04-18T16:18:26.258Z</time></trkpt><trkpt lat="44.7772185" lon="9.3911793"><ele>270.0</ele><time>2026-04-18T16:18:30.258Z</time></trkpt><trkpt lat="44.7761717" lon="9.3901993"><ele>269.0</ele><time>2026-04-18T16:18:37.258Z</time></trkpt><trkpt lat="44.7752952" lon="9.3895982"><ele>264.5</ele><time>2026-04-18T16:18:42.258Z</time></trkpt><trkpt lat="44.7750985" lon="9.3895287"><ele>260.0</ele><time>2026-04-18T16:18:43.258Z</time></trkpt><trkpt lat="44.7732598" lon="9.3891257"><ele>260.0</ele><time>2026-04-18T16:18:52.36Z</time></trkpt><trkpt lat="44.772869" lon="9.3890719"><ele>260.0</ele><time>2026-04-18T16:18:58.016Z</time></trkpt><trkpt lat="44.7729599" lon="9.3887865"><ele>261.5</ele><time>2026-04-18T16:19:03.259Z</time></trkpt><trkpt lat="44.7729667" lon="9.3886806"><ele>263.0</ele><time>2026-04-18T16:19:04.258Z</time></trkpt><trkpt lat="44.7730274" lon="9.3880868"><ele>263.33333333333337</ele><time>2026-04-18T16:19:11.258Z</time></trkpt><trkpt lat="44.7730575" lon="9.3877331"><ele>263.6666666666667</ele><time>2026-04-18T16:19:17.258Z</time></trkpt><trkpt lat="44.7729293" lon="9.3876993"><ele>264.0</ele><time>2026-04-18T16:19:26.258Z</time></trkpt><trkpt lat="44.7728487" lon="9.3876873"><ele>264.0</ele><time>2026-04-18T16:19:31.258Z</time></trkpt></trkseg></trk></gpx>